<?xml version="1.0" encoding="UTF-8"?>
<gpx xmlns="http://www.topografix.com/GPX/1/1"
     creator="GpsDump 4.73"
     version="1.1"
     xmlns:xsi="http://www.w3.org/2001/XMLSchema-instance"
     xsi:schemaLocation="http://www.topografix.com/GPX/1/1 http://www.topografix.com/GPX/1/1/gpx.xsd">
  <metadata>
    <link href="http://www.gethome.no/stein.sorensen/">
      <text>GPS dump for www.flightlog.org</text>
    </link>
    <time>2013-09-29T12:28:18Z</time>
    <bounds minlat="42.007817" minlon="0.729883" maxlat="42.225733" maxlon="1.041850"/>
  </metadata>
  <trk>
    <name>Track 001</name>
    <trkseg>
      <trkpt lat="42.045867" lon="0.745883">
        <ele>1565.0</ele>
        <time>2013-09-13T12:01:58Z</time>
      </trkpt>
      <trkpt lat="42.045817" lon="0.745883">
        <ele>1565.0</ele>
        <time>2013-09-13T12:01:59Z</time>
      </trkpt>
      <trkpt lat="42.045767" lon="0.745883">
        <ele>1565.0</ele>
        <time>2013-09-13T12:02:00Z</time>
      </trkpt>
      <trkpt lat="42.045700" lon="0.745867">
        <ele>1564.0</ele>
        <time>2013-09-13T12:02:01Z</time>
      </trkpt>
      <trkpt lat="42.045650" lon="0.745850">
        <ele>1564.0</ele>
        <time>2013-09-13T12:02:02Z</time>
      </trkpt>
      <trkpt lat="42.045583" lon="0.745833">
        <ele>1564.0</ele>
        <time>2013-09-13T12:02:03Z</time>
      </trkpt>
      <trkpt lat="42.045517" lon="0.745833">
        <ele>1564.0</ele>
        <time>2013-09-13T12:02:04Z</time>
      </trkpt>
      <trkpt lat="42.045450" lon="0.745867">
        <ele>1565.0</ele>
        <time>2013-09-13T12:02:05Z</time>
      </trkpt>
      <trkpt lat="42.045400" lon="0.745900">
        <ele>1568.0</ele>
        <time>2013-09-13T12:02:06Z</time>
      </trkpt>
      <trkpt lat="42.045350" lon="0.745917">
        <ele>1570.0</ele>
        <time>2013-09-13T12:02:07Z</time>
      </trkpt>
      <trkpt lat="42.045317" lon="0.745933">
        <ele>1572.0</ele>
        <time>2013-09-13T12:02:08Z</time>
      </trkpt>
      <trkpt lat="42.045283" lon="0.745950">
        <ele>1573.0</ele>
        <time>2013-09-13T12:02:09Z</time>
      </trkpt>
      <trkpt lat="42.045250" lon="0.745967">
        <ele>1574.0</ele>
        <time>2013-09-13T12:02:10Z</time>
      </trkpt>
      <trkpt lat="42.045200" lon="0.745983">
        <ele>1574.0</ele>
        <time>2013-09-13T12:02:11Z</time>
      </trkpt>
      <trkpt lat="42.045150" lon="0.745983">
        <ele>1574.0</ele>
        <time>2013-09-13T12:02:12Z</time>
      </trkpt>
      <trkpt lat="42.045100" lon="0.745983">
        <ele>1576.0</ele>
        <time>2013-09-13T12:02:13Z</time>
      </trkpt>
      <trkpt lat="42.045067" lon="0.746000">
        <ele>1577.0</ele>
        <time>2013-09-13T12:02:14Z</time>
      </trkpt>
      <trkpt lat="42.045017" lon="0.746033">
        <ele>1577.0</ele>
        <time>2013-09-13T12:02:15Z</time>
      </trkpt>
      <trkpt lat="42.044967" lon="0.746067">
        <ele>1578.0</ele>
        <time>2013-09-13T12:02:16Z</time>
      </trkpt>
      <trkpt lat="42.044900" lon="0.746117">
        <ele>1576.0</ele>
        <time>2013-09-13T12:02:17Z</time>
      </trkpt>
      <trkpt lat="42.044850" lon="0.746183">
        <ele>1577.0</ele>
        <time>2013-09-13T12:02:18Z</time>
      </trkpt>
      <trkpt lat="42.044817" lon="0.746250">
        <ele>1578.0</ele>
        <time>2013-09-13T12:02:19Z</time>
      </trkpt>
      <trkpt lat="42.044767" lon="0.746300">
        <ele>1579.0</ele>
        <time>2013-09-13T12:02:20Z</time>
      </trkpt>
      <trkpt lat="42.044733" lon="0.746367">
        <ele>1580.0</ele>
        <time>2013-09-13T12:02:21Z</time>
      </trkpt>
      <trkpt lat="42.044683" lon="0.746417">
        <ele>1580.0</ele>
        <time>2013-09-13T12:02:22Z</time>
      </trkpt>
      <trkpt lat="42.044617" lon="0.746483">
        <ele>1581.0</ele>
        <time>2013-09-13T12:02:23Z</time>
      </trkpt>
      <trkpt lat="42.044567" lon="0.746533">
        <ele>1581.0</ele>
        <time>2013-09-13T12:02:24Z</time>
      </trkpt>
      <trkpt lat="42.044500" lon="0.746583">
        <ele>1582.0</ele>
        <time>2013-09-13T12:02:25Z</time>
      </trkpt>
      <trkpt lat="42.044450" lon="0.746650">
        <ele>1582.0</ele>
        <time>2013-09-13T12:02:26Z</time>
      </trkpt>
      <trkpt lat="42.044400" lon="0.746717">
        <ele>1583.0</ele>
        <time>2013-09-13T12:02:27Z</time>
      </trkpt>
      <trkpt lat="42.044350" lon="0.746767">
        <ele>1583.0</ele>
        <time>2013-09-13T12:02:28Z</time>
      </trkpt>
      <trkpt lat="42.044283" lon="0.746833">
        <ele>1584.0</ele>
        <time>2013-09-13T12:02:29Z</time>
      </trkpt>
      <trkpt lat="42.044217" lon="0.746883">
        <ele>1585.0</ele>
        <time>2013-09-13T12:02:30Z</time>
      </trkpt>
      <trkpt lat="42.044167" lon="0.746933">
        <ele>1587.0</ele>
        <time>2013-09-13T12:02:31Z</time>
      </trkpt>
      <trkpt lat="42.044100" lon="0.746950">
        <ele>1589.0</ele>
        <time>2013-09-13T12:02:32Z</time>
      </trkpt>
      <trkpt lat="42.044050" lon="0.746967">
        <ele>1591.0</ele>
        <time>2013-09-13T12:02:33Z</time>
      </trkpt>
      <trkpt lat="42.044000" lon="0.746967">
        <ele>1593.0</ele>
        <time>2013-09-13T12:02:34Z</time>
      </trkpt>
      <trkpt lat="42.043950" lon="0.746933">
        <ele>1595.0</ele>
        <time>2013-09-13T12:02:35Z</time>
      </trkpt>
      <trkpt lat="42.043917" lon="0.746883">
        <ele>1597.0</ele>
        <time>2013-09-13T12:02:36Z</time>
      </trkpt>
      <trkpt lat="42.043917" lon="0.746800">
        <ele>1599.0</ele>
        <time>2013-09-13T12:02:37Z</time>
      </trkpt>
      <trkpt lat="42.043983" lon="0.746717">
        <ele>1601.0</ele>
        <time>2013-09-13T12:02:38Z</time>
      </trkpt>
      <trkpt lat="42.044083" lon="0.746683">
        <ele>1603.0</ele>
        <time>2013-09-13T12:02:39Z</time>
      </trkpt>
      <trkpt lat="42.044183" lon="0.746700">
        <ele>1605.0</ele>
        <time>2013-09-13T12:02:40Z</time>
      </trkpt>
      <trkpt lat="42.044267" lon="0.746750">
        <ele>1608.0</ele>
        <time>2013-09-13T12:02:41Z</time>
      </trkpt>
      <trkpt lat="42.044350" lon="0.746833">
        <ele>1610.0</ele>
        <time>2013-09-13T12:02:42Z</time>
      </trkpt>
      <trkpt lat="42.044417" lon="0.746917">
        <ele>1612.0</ele>
        <time>2013-09-13T12:02:43Z</time>
      </trkpt>
      <trkpt lat="42.044483" lon="0.747000">
        <ele>1614.0</ele>
        <time>2013-09-13T12:02:44Z</time>
      </trkpt>
      <trkpt lat="42.044550" lon="0.747117">
        <ele>1616.0</ele>
        <time>2013-09-13T12:02:45Z</time>
      </trkpt>
      <trkpt lat="42.044617" lon="0.747233">
        <ele>1619.0</ele>
        <time>2013-09-13T12:02:46Z</time>
      </trkpt>
      <trkpt lat="42.044633" lon="0.747350">
        <ele>1621.0</ele>
        <time>2013-09-13T12:02:47Z</time>
      </trkpt>
      <trkpt lat="42.044633" lon="0.747467">
        <ele>1623.0</ele>
        <time>2013-09-13T12:02:48Z</time>
      </trkpt>
      <trkpt lat="42.044600" lon="0.747567">
        <ele>1625.0</ele>
        <time>2013-09-13T12:02:49Z</time>
      </trkpt>
      <trkpt lat="42.044567" lon="0.747650">
        <ele>1627.0</ele>
        <time>2013-09-13T12:02:50Z</time>
      </trkpt>
      <trkpt lat="42.044517" lon="0.747717">
        <ele>1629.0</ele>
        <time>2013-09-13T12:02:51Z</time>
      </trkpt>
      <trkpt lat="42.044467" lon="0.747767">
        <ele>1632.0</ele>
        <time>2013-09-13T12:02:52Z</time>
      </trkpt>
      <trkpt lat="42.044417" lon="0.747800">
        <ele>1635.0</ele>
        <time>2013-09-13T12:02:53Z</time>
      </trkpt>
      <trkpt lat="42.044367" lon="0.747833">
        <ele>1637.0</ele>
        <time>2013-09-13T12:02:54Z</time>
      </trkpt>
      <trkpt lat="42.044317" lon="0.747883">
        <ele>1640.0</ele>
        <time>2013-09-13T12:02:55Z</time>
      </trkpt>
      <trkpt lat="42.044283" lon="0.747983">
        <ele>1643.0</ele>
        <time>2013-09-13T12:02:56Z</time>
      </trkpt>
      <trkpt lat="42.044267" lon="0.748117">
        <ele>1646.0</ele>
        <time>2013-09-13T12:02:57Z</time>
      </trkpt>
      <trkpt lat="42.044317" lon="0.748267">
        <ele>1649.0</ele>
        <time>2013-09-13T12:02:58Z</time>
      </trkpt>
      <trkpt lat="42.044383" lon="0.748383">
        <ele>1652.0</ele>
        <time>2013-09-13T12:02:59Z</time>
      </trkpt>
      <trkpt lat="42.044483" lon="0.748483">
        <ele>1655.0</ele>
        <time>2013-09-13T12:03:00Z</time>
      </trkpt>
      <trkpt lat="42.044550" lon="0.748533">
        <ele>1660.0</ele>
        <time>2013-09-13T12:03:01Z</time>
      </trkpt>
      <trkpt lat="42.044633" lon="0.748567">
        <ele>1664.0</ele>
        <time>2013-09-13T12:03:02Z</time>
      </trkpt>
      <trkpt lat="42.044733" lon="0.748567">
        <ele>1668.0</ele>
        <time>2013-09-13T12:03:03Z</time>
      </trkpt>
      <trkpt lat="42.044833" lon="0.748550">
        <ele>1670.0</ele>
        <time>2013-09-13T12:03:04Z</time>
      </trkpt>
      <trkpt lat="42.044950" lon="0.748517">
        <ele>1671.0</ele>
        <time>2013-09-13T12:03:05Z</time>
      </trkpt>
      <trkpt lat="42.045067" lon="0.748467">
        <ele>1673.0</ele>
        <time>2013-09-13T12:03:06Z</time>
      </trkpt>
      <trkpt lat="42.045150" lon="0.748367">
        <ele>1675.0</ele>
        <time>2013-09-13T12:03:07Z</time>
      </trkpt>
      <trkpt lat="42.045200" lon="0.748233">
        <ele>1679.0</ele>
        <time>2013-09-13T12:03:08Z</time>
      </trkpt>
      <trkpt lat="42.045217" lon="0.748100">
        <ele>1681.0</ele>
        <time>2013-09-13T12:03:09Z</time>
      </trkpt>
      <trkpt lat="42.045233" lon="0.747983">
        <ele>1684.0</ele>
        <time>2013-09-13T12:03:10Z</time>
      </trkpt>
      <trkpt lat="42.045250" lon="0.747883">
        <ele>1687.0</ele>
        <time>2013-09-13T12:03:11Z</time>
      </trkpt>
      <trkpt lat="42.045267" lon="0.747800">
        <ele>1690.0</ele>
        <time>2013-09-13T12:03:12Z</time>
      </trkpt>
      <trkpt lat="42.045283" lon="0.747717">
        <ele>1691.0</ele>
        <time>2013-09-13T12:03:13Z</time>
      </trkpt>
      <trkpt lat="42.045283" lon="0.747617">
        <ele>1691.0</ele>
        <time>2013-09-13T12:03:14Z</time>
      </trkpt>
      <trkpt lat="42.045250" lon="0.747517">
        <ele>1691.0</ele>
        <time>2013-09-13T12:03:15Z</time>
      </trkpt>
      <trkpt lat="42.045200" lon="0.747450">
        <ele>1691.0</ele>
        <time>2013-09-13T12:03:16Z</time>
      </trkpt>
      <trkpt lat="42.045133" lon="0.747400">
        <ele>1692.0</ele>
        <time>2013-09-13T12:03:17Z</time>
      </trkpt>
      <trkpt lat="42.045067" lon="0.747367">
        <ele>1692.0</ele>
        <time>2013-09-13T12:03:18Z</time>
      </trkpt>
      <trkpt lat="42.045000" lon="0.747350">
        <ele>1693.0</ele>
        <time>2013-09-13T12:03:19Z</time>
      </trkpt>
      <trkpt lat="42.044933" lon="0.747317">
        <ele>1693.0</ele>
        <time>2013-09-13T12:03:20Z</time>
      </trkpt>
      <trkpt lat="42.044867" lon="0.747317">
        <ele>1694.0</ele>
        <time>2013-09-13T12:03:21Z</time>
      </trkpt>
      <trkpt lat="42.044783" lon="0.747333">
        <ele>1694.0</ele>
        <time>2013-09-13T12:03:22Z</time>
      </trkpt>
      <trkpt lat="42.044717" lon="0.747383">
        <ele>1695.0</ele>
        <time>2013-09-13T12:03:23Z</time>
      </trkpt>
      <trkpt lat="42.044650" lon="0.747450">
        <ele>1694.0</ele>
        <time>2013-09-13T12:03:24Z</time>
      </trkpt>
      <trkpt lat="42.044583" lon="0.747483">
        <ele>1695.0</ele>
        <time>2013-09-13T12:03:25Z</time>
      </trkpt>
      <trkpt lat="42.044500" lon="0.747533">
        <ele>1695.0</ele>
        <time>2013-09-13T12:03:26Z</time>
      </trkpt>
      <trkpt lat="42.044433" lon="0.747583">
        <ele>1698.0</ele>
        <time>2013-09-13T12:03:27Z</time>
      </trkpt>
      <trkpt lat="42.044367" lon="0.747667">
        <ele>1699.0</ele>
        <time>2013-09-13T12:03:28Z</time>
      </trkpt>
      <trkpt lat="42.044300" lon="0.747733">
        <ele>1701.0</ele>
        <time>2013-09-13T12:03:29Z</time>
      </trkpt>
      <trkpt lat="42.044233" lon="0.747800">
        <ele>1703.0</ele>
        <time>2013-09-13T12:03:30Z</time>
      </trkpt>
      <trkpt lat="42.044167" lon="0.747883">
        <ele>1704.0</ele>
        <time>2013-09-13T12:03:31Z</time>
      </trkpt>
      <trkpt lat="42.044100" lon="0.747950">
        <ele>1706.0</ele>
        <time>2013-09-13T12:03:32Z</time>
      </trkpt>
      <trkpt lat="42.044033" lon="0.748000">
        <ele>1708.0</ele>
        <time>2013-09-13T12:03:33Z</time>
      </trkpt>
      <trkpt lat="42.043983" lon="0.748083">
        <ele>1711.0</ele>
        <time>2013-09-13T12:03:34Z</time>
      </trkpt>
      <trkpt lat="42.043933" lon="0.748150">
        <ele>1714.0</ele>
        <time>2013-09-13T12:03:35Z</time>
      </trkpt>
      <trkpt lat="42.043883" lon="0.748217">
        <ele>1716.0</ele>
        <time>2013-09-13T12:03:36Z</time>
      </trkpt>
      <trkpt lat="42.043833" lon="0.748283">
        <ele>1719.0</ele>
        <time>2013-09-13T12:03:37Z</time>
      </trkpt>
      <trkpt lat="42.043767" lon="0.748333">
        <ele>1721.0</ele>
        <time>2013-09-13T12:03:38Z</time>
      </trkpt>
      <trkpt lat="42.043700" lon="0.748383">
        <ele>1724.0</ele>
        <time>2013-09-13T12:03:39Z</time>
      </trkpt>
      <trkpt lat="42.043633" lon="0.748417">
        <ele>1727.0</ele>
        <time>2013-09-13T12:03:40Z</time>
      </trkpt>
      <trkpt lat="42.043550" lon="0.748467">
        <ele>1731.0</ele>
        <time>2013-09-13T12:03:41Z</time>
      </trkpt>
      <trkpt lat="42.043467" lon="0.748500">
        <ele>1734.0</ele>
        <time>2013-09-13T12:03:42Z</time>
      </trkpt>
      <trkpt lat="42.043383" lon="0.748550">
        <ele>1738.0</ele>
        <time>2013-09-13T12:03:43Z</time>
      </trkpt>
      <trkpt lat="42.043317" lon="0.748600">
        <ele>1744.0</ele>
        <time>2013-09-13T12:03:44Z</time>
      </trkpt>
      <trkpt lat="42.043250" lon="0.748683">
        <ele>1748.0</ele>
        <time>2013-09-13T12:03:45Z</time>
      </trkpt>
      <trkpt lat="42.043183" lon="0.748750">
        <ele>1750.0</ele>
        <time>2013-09-13T12:03:46Z</time>
      </trkpt>
      <trkpt lat="42.043100" lon="0.748800">
        <ele>1750.0</ele>
        <time>2013-09-13T12:03:47Z</time>
      </trkpt>
      <trkpt lat="42.043000" lon="0.748850">
        <ele>1752.0</ele>
        <time>2013-09-13T12:03:48Z</time>
      </trkpt>
      <trkpt lat="42.042900" lon="0.748883">
        <ele>1753.0</ele>
        <time>2013-09-13T12:03:49Z</time>
      </trkpt>
      <trkpt lat="42.042800" lon="0.748950">
        <ele>1755.0</ele>
        <time>2013-09-13T12:03:50Z</time>
      </trkpt>
      <trkpt lat="42.042717" lon="0.749033">
        <ele>1758.0</ele>
        <time>2013-09-13T12:03:51Z</time>
      </trkpt>
      <trkpt lat="42.042633" lon="0.749100">
        <ele>1761.0</ele>
        <time>2013-09-13T12:03:52Z</time>
      </trkpt>
      <trkpt lat="42.042567" lon="0.749150">
        <ele>1764.0</ele>
        <time>2013-09-13T12:03:53Z</time>
      </trkpt>
      <trkpt lat="42.042500" lon="0.749217">
        <ele>1766.0</ele>
        <time>2013-09-13T12:03:54Z</time>
      </trkpt>
      <trkpt lat="42.042433" lon="0.749267">
        <ele>1769.0</ele>
        <time>2013-09-13T12:03:55Z</time>
      </trkpt>
      <trkpt lat="42.042350" lon="0.749333">
        <ele>1771.0</ele>
        <time>2013-09-13T12:03:56Z</time>
      </trkpt>
      <trkpt lat="42.042250" lon="0.749383">
        <ele>1773.0</ele>
        <time>2013-09-13T12:03:57Z</time>
      </trkpt>
      <trkpt lat="42.042150" lon="0.749417">
        <ele>1775.0</ele>
        <time>2013-09-13T12:03:58Z</time>
      </trkpt>
      <trkpt lat="42.042067" lon="0.749450">
        <ele>1779.0</ele>
        <time>2013-09-13T12:03:59Z</time>
      </trkpt>
      <trkpt lat="42.042000" lon="0.749483">
        <ele>1785.0</ele>
        <time>2013-09-13T12:04:00Z</time>
      </trkpt>
      <trkpt lat="42.041933" lon="0.749517">
        <ele>1789.0</ele>
        <time>2013-09-13T12:04:01Z</time>
      </trkpt>
      <trkpt lat="42.041883" lon="0.749550">
        <ele>1792.0</ele>
        <time>2013-09-13T12:04:02Z</time>
      </trkpt>
      <trkpt lat="42.041817" lon="0.749550">
        <ele>1794.0</ele>
        <time>2013-09-13T12:04:03Z</time>
      </trkpt>
      <trkpt lat="42.041750" lon="0.749533">
        <ele>1795.0</ele>
        <time>2013-09-13T12:04:04Z</time>
      </trkpt>
      <trkpt lat="42.041700" lon="0.749500">
        <ele>1795.0</ele>
        <time>2013-09-13T12:04:05Z</time>
      </trkpt>
      <trkpt lat="42.041633" lon="0.749450">
        <ele>1794.0</ele>
        <time>2013-09-13T12:04:06Z</time>
      </trkpt>
      <trkpt lat="42.041567" lon="0.749400">
        <ele>1795.0</ele>
        <time>2013-09-13T12:04:07Z</time>
      </trkpt>
      <trkpt lat="42.041517" lon="0.749350">
        <ele>1796.0</ele>
        <time>2013-09-13T12:04:08Z</time>
      </trkpt>
      <trkpt lat="42.041483" lon="0.749267">
        <ele>1797.0</ele>
        <time>2013-09-13T12:04:09Z</time>
      </trkpt>
      <trkpt lat="42.041450" lon="0.749183">
        <ele>1797.0</ele>
        <time>2013-09-13T12:04:10Z</time>
      </trkpt>
      <trkpt lat="42.041450" lon="0.749100">
        <ele>1797.0</ele>
        <time>2013-09-13T12:04:11Z</time>
      </trkpt>
      <trkpt lat="42.041467" lon="0.749017">
        <ele>1797.0</ele>
        <time>2013-09-13T12:04:12Z</time>
      </trkpt>
      <trkpt lat="42.041467" lon="0.748950">
        <ele>1796.0</ele>
        <time>2013-09-13T12:04:13Z</time>
      </trkpt>
      <trkpt lat="42.041500" lon="0.748883">
        <ele>1795.0</ele>
        <time>2013-09-13T12:04:14Z</time>
      </trkpt>
      <trkpt lat="42.041533" lon="0.748800">
        <ele>1791.0</ele>
        <time>2013-09-13T12:04:15Z</time>
      </trkpt>
      <trkpt lat="42.041583" lon="0.748733">
        <ele>1788.0</ele>
        <time>2013-09-13T12:04:16Z</time>
      </trkpt>
      <trkpt lat="42.041633" lon="0.748683">
        <ele>1784.0</ele>
        <time>2013-09-13T12:04:17Z</time>
      </trkpt>
      <trkpt lat="42.041683" lon="0.748667">
        <ele>1782.0</ele>
        <time>2013-09-13T12:04:18Z</time>
      </trkpt>
      <trkpt lat="42.041750" lon="0.748667">
        <ele>1779.0</ele>
        <time>2013-09-13T12:04:19Z</time>
      </trkpt>
      <trkpt lat="42.041800" lon="0.748683">
        <ele>1775.0</ele>
        <time>2013-09-13T12:04:20Z</time>
      </trkpt>
      <trkpt lat="42.041867" lon="0.748717">
        <ele>1770.0</ele>
        <time>2013-09-13T12:04:21Z</time>
      </trkpt>
      <trkpt lat="42.041950" lon="0.748767">
        <ele>1765.0</ele>
        <time>2013-09-13T12:04:22Z</time>
      </trkpt>
      <trkpt lat="42.042033" lon="0.748833">
        <ele>1759.0</ele>
        <time>2013-09-13T12:04:23Z</time>
      </trkpt>
      <trkpt lat="42.042100" lon="0.748933">
        <ele>1755.0</ele>
        <time>2013-09-13T12:04:24Z</time>
      </trkpt>
      <trkpt lat="42.042150" lon="0.749067">
        <ele>1750.0</ele>
        <time>2013-09-13T12:04:25Z</time>
      </trkpt>
      <trkpt lat="42.042183" lon="0.749217">
        <ele>1746.0</ele>
        <time>2013-09-13T12:04:26Z</time>
      </trkpt>
      <trkpt lat="42.042183" lon="0.749367">
        <ele>1743.0</ele>
        <time>2013-09-13T12:04:27Z</time>
      </trkpt>
      <trkpt lat="42.042167" lon="0.749517">
        <ele>1739.0</ele>
        <time>2013-09-13T12:04:28Z</time>
      </trkpt>
      <trkpt lat="42.042133" lon="0.749667">
        <ele>1736.0</ele>
        <time>2013-09-13T12:04:29Z</time>
      </trkpt>
      <trkpt lat="42.042067" lon="0.749800">
        <ele>1734.0</ele>
        <time>2013-09-13T12:04:30Z</time>
      </trkpt>
      <trkpt lat="42.041983" lon="0.749917">
        <ele>1732.0</ele>
        <time>2013-09-13T12:04:31Z</time>
      </trkpt>
      <trkpt lat="42.041917" lon="0.750017">
        <ele>1731.0</ele>
        <time>2013-09-13T12:04:32Z</time>
      </trkpt>
      <trkpt lat="42.041850" lon="0.750100">
        <ele>1733.0</ele>
        <time>2013-09-13T12:04:33Z</time>
      </trkpt>
      <trkpt lat="42.041800" lon="0.750183">
        <ele>1737.0</ele>
        <time>2013-09-13T12:04:34Z</time>
      </trkpt>
      <trkpt lat="42.041767" lon="0.750267">
        <ele>1740.0</ele>
        <time>2013-09-13T12:04:35Z</time>
      </trkpt>
      <trkpt lat="42.041700" lon="0.750350">
        <ele>1741.0</ele>
        <time>2013-09-13T12:04:36Z</time>
      </trkpt>
      <trkpt lat="42.041633" lon="0.750450">
        <ele>1740.0</ele>
        <time>2013-09-13T12:04:37Z</time>
      </trkpt>
      <trkpt lat="42.041583" lon="0.750567">
        <ele>1740.0</ele>
        <time>2013-09-13T12:04:38Z</time>
      </trkpt>
      <trkpt lat="42.041550" lon="0.750667">
        <ele>1740.0</ele>
        <time>2013-09-13T12:04:39Z</time>
      </trkpt>
      <trkpt lat="42.041533" lon="0.750750">
        <ele>1742.0</ele>
        <time>2013-09-13T12:04:40Z</time>
      </trkpt>
      <trkpt lat="42.041517" lon="0.750833">
        <ele>1743.0</ele>
        <time>2013-09-13T12:04:41Z</time>
      </trkpt>
      <trkpt lat="42.041483" lon="0.750933">
        <ele>1743.0</ele>
        <time>2013-09-13T12:04:42Z</time>
      </trkpt>
      <trkpt lat="42.041433" lon="0.751033">
        <ele>1742.0</ele>
        <time>2013-09-13T12:04:43Z</time>
      </trkpt>
      <trkpt lat="42.041367" lon="0.751117">
        <ele>1741.0</ele>
        <time>2013-09-13T12:04:44Z</time>
      </trkpt>
      <trkpt lat="42.041300" lon="0.751183">
        <ele>1743.0</ele>
        <time>2013-09-13T12:04:45Z</time>
      </trkpt>
      <trkpt lat="42.041233" lon="0.751233">
        <ele>1744.0</ele>
        <time>2013-09-13T12:04:46Z</time>
      </trkpt>
      <trkpt lat="42.041183" lon="0.751300">
        <ele>1745.0</ele>
        <time>2013-09-13T12:04:47Z</time>
      </trkpt>
      <trkpt lat="42.041133" lon="0.751367">
        <ele>1746.0</ele>
        <time>2013-09-13T12:04:48Z</time>
      </trkpt>
      <trkpt lat="42.041067" lon="0.751450">
        <ele>1745.0</ele>
        <time>2013-09-13T12:04:49Z</time>
      </trkpt>
      <trkpt lat="42.040983" lon="0.751533">
        <ele>1745.0</ele>
        <time>2013-09-13T12:04:50Z</time>
      </trkpt>
      <trkpt lat="42.040917" lon="0.751617">
        <ele>1745.0</ele>
        <time>2013-09-13T12:04:51Z</time>
      </trkpt>
      <trkpt lat="42.040867" lon="0.751683">
        <ele>1746.0</ele>
        <time>2013-09-13T12:04:52Z</time>
      </trkpt>
      <trkpt lat="42.040800" lon="0.751767">
        <ele>1746.0</ele>
        <time>2013-09-13T12:04:53Z</time>
      </trkpt>
      <trkpt lat="42.040750" lon="0.751850">
        <ele>1746.0</ele>
        <time>2013-09-13T12:04:54Z</time>
      </trkpt>
      <trkpt lat="42.040700" lon="0.751950">
        <ele>1745.0</ele>
        <time>2013-09-13T12:04:55Z</time>
      </trkpt>
      <trkpt lat="42.040650" lon="0.752050">
        <ele>1744.0</ele>
        <time>2013-09-13T12:04:56Z</time>
      </trkpt>
      <trkpt lat="42.040583" lon="0.752133">
        <ele>1743.0</ele>
        <time>2013-09-13T12:04:57Z</time>
      </trkpt>
      <trkpt lat="42.040533" lon="0.752217">
        <ele>1744.0</ele>
        <time>2013-09-13T12:04:58Z</time>
      </trkpt>
      <trkpt lat="42.040500" lon="0.752300">
        <ele>1744.0</ele>
        <time>2013-09-13T12:04:59Z</time>
      </trkpt>
      <trkpt lat="42.040450" lon="0.752367">
        <ele>1744.0</ele>
        <time>2013-09-13T12:05:00Z</time>
      </trkpt>
      <trkpt lat="42.040383" lon="0.752433">
        <ele>1743.0</ele>
        <time>2013-09-13T12:05:01Z</time>
      </trkpt>
      <trkpt lat="42.040317" lon="0.752483">
        <ele>1742.0</ele>
        <time>2013-09-13T12:05:02Z</time>
      </trkpt>
      <trkpt lat="42.040267" lon="0.752550">
        <ele>1741.0</ele>
        <time>2013-09-13T12:05:03Z</time>
      </trkpt>
      <trkpt lat="42.040200" lon="0.752617">
        <ele>1740.0</ele>
        <time>2013-09-13T12:05:04Z</time>
      </trkpt>
      <trkpt lat="42.040150" lon="0.752683">
        <ele>1739.0</ele>
        <time>2013-09-13T12:05:05Z</time>
      </trkpt>
      <trkpt lat="42.040100" lon="0.752750">
        <ele>1738.0</ele>
        <time>2013-09-13T12:05:06Z</time>
      </trkpt>
      <trkpt lat="42.040050" lon="0.752833">
        <ele>1737.0</ele>
        <time>2013-09-13T12:05:07Z</time>
      </trkpt>
      <trkpt lat="42.040000" lon="0.752933">
        <ele>1735.0</ele>
        <time>2013-09-13T12:05:08Z</time>
      </trkpt>
      <trkpt lat="42.039950" lon="0.753017">
        <ele>1734.0</ele>
        <time>2013-09-13T12:05:09Z</time>
      </trkpt>
      <trkpt lat="42.039917" lon="0.753100">
        <ele>1734.0</ele>
        <time>2013-09-13T12:05:10Z</time>
      </trkpt>
      <trkpt lat="42.039867" lon="0.753183">
        <ele>1733.0</ele>
        <time>2013-09-13T12:05:11Z</time>
      </trkpt>
      <trkpt lat="42.039817" lon="0.753283">
        <ele>1733.0</ele>
        <time>2013-09-13T12:05:12Z</time>
      </trkpt>
      <trkpt lat="42.039783" lon="0.753367">
        <ele>1733.0</ele>
        <time>2013-09-13T12:05:13Z</time>
      </trkpt>
      <trkpt lat="42.039733" lon="0.753467">
        <ele>1733.0</ele>
        <time>2013-09-13T12:05:14Z</time>
      </trkpt>
      <trkpt lat="42.039683" lon="0.753550">
        <ele>1733.0</ele>
        <time>2013-09-13T12:05:15Z</time>
      </trkpt>
      <trkpt lat="42.039650" lon="0.753633">
        <ele>1734.0</ele>
        <time>2013-09-13T12:05:16Z</time>
      </trkpt>
      <trkpt lat="42.039617" lon="0.753733">
        <ele>1734.0</ele>
        <time>2013-09-13T12:05:17Z</time>
      </trkpt>
      <trkpt lat="42.039583" lon="0.753817">
        <ele>1733.0</ele>
        <time>2013-09-13T12:05:18Z</time>
      </trkpt>
      <trkpt lat="42.039533" lon="0.753933">
        <ele>1732.0</ele>
        <time>2013-09-13T12:05:19Z</time>
      </trkpt>
      <trkpt lat="42.039500" lon="0.754033">
        <ele>1731.0</ele>
        <time>2013-09-13T12:05:20Z</time>
      </trkpt>
      <trkpt lat="42.039450" lon="0.754133">
        <ele>1730.0</ele>
        <time>2013-09-13T12:05:21Z</time>
      </trkpt>
      <trkpt lat="42.039417" lon="0.754217">
        <ele>1730.0</ele>
        <time>2013-09-13T12:05:22Z</time>
      </trkpt>
      <trkpt lat="42.039383" lon="0.754300">
        <ele>1730.0</ele>
        <time>2013-09-13T12:05:23Z</time>
      </trkpt>
      <trkpt lat="42.039350" lon="0.754383">
        <ele>1729.0</ele>
        <time>2013-09-13T12:05:24Z</time>
      </trkpt>
      <trkpt lat="42.039300" lon="0.754483">
        <ele>1729.0</ele>
        <time>2013-09-13T12:05:25Z</time>
      </trkpt>
      <trkpt lat="42.039267" lon="0.754567">
        <ele>1729.0</ele>
        <time>2013-09-13T12:05:26Z</time>
      </trkpt>
      <trkpt lat="42.039233" lon="0.754650">
        <ele>1729.0</ele>
        <time>2013-09-13T12:05:27Z</time>
      </trkpt>
      <trkpt lat="42.039200" lon="0.754750">
        <ele>1728.0</ele>
        <time>2013-09-13T12:05:28Z</time>
      </trkpt>
      <trkpt lat="42.039167" lon="0.754833">
        <ele>1727.0</ele>
        <time>2013-09-13T12:05:29Z</time>
      </trkpt>
      <trkpt lat="42.039133" lon="0.754950">
        <ele>1725.0</ele>
        <time>2013-09-13T12:05:30Z</time>
      </trkpt>
      <trkpt lat="42.039083" lon="0.755033">
        <ele>1723.0</ele>
        <time>2013-09-13T12:05:31Z</time>
      </trkpt>
      <trkpt lat="42.039033" lon="0.755117">
        <ele>1722.0</ele>
        <time>2013-09-13T12:05:32Z</time>
      </trkpt>
      <trkpt lat="42.038983" lon="0.755200">
        <ele>1721.0</ele>
        <time>2013-09-13T12:05:33Z</time>
      </trkpt>
      <trkpt lat="42.038950" lon="0.755267">
        <ele>1719.0</ele>
        <time>2013-09-13T12:05:34Z</time>
      </trkpt>
      <trkpt lat="42.038900" lon="0.755350">
        <ele>1718.0</ele>
        <time>2013-09-13T12:05:35Z</time>
      </trkpt>
      <trkpt lat="42.038850" lon="0.755450">
        <ele>1715.0</ele>
        <time>2013-09-13T12:05:36Z</time>
      </trkpt>
      <trkpt lat="42.038817" lon="0.755550">
        <ele>1713.0</ele>
        <time>2013-09-13T12:05:37Z</time>
      </trkpt>
      <trkpt lat="42.038783" lon="0.755650">
        <ele>1711.0</ele>
        <time>2013-09-13T12:05:38Z</time>
      </trkpt>
      <trkpt lat="42.038750" lon="0.755750">
        <ele>1710.0</ele>
        <time>2013-09-13T12:05:39Z</time>
      </trkpt>
      <trkpt lat="42.038733" lon="0.755850">
        <ele>1709.0</ele>
        <time>2013-09-13T12:05:40Z</time>
      </trkpt>
      <trkpt lat="42.038700" lon="0.755933">
        <ele>1709.0</ele>
        <time>2013-09-13T12:05:41Z</time>
      </trkpt>
      <trkpt lat="42.038667" lon="0.756033">
        <ele>1707.0</ele>
        <time>2013-09-13T12:05:42Z</time>
      </trkpt>
      <trkpt lat="42.038633" lon="0.756133">
        <ele>1705.0</ele>
        <time>2013-09-13T12:05:43Z</time>
      </trkpt>
      <trkpt lat="42.038617" lon="0.756250">
        <ele>1703.0</ele>
        <time>2013-09-13T12:05:44Z</time>
      </trkpt>
      <trkpt lat="42.038583" lon="0.756350">
        <ele>1702.0</ele>
        <time>2013-09-13T12:05:45Z</time>
      </trkpt>
      <trkpt lat="42.038567" lon="0.756450">
        <ele>1701.0</ele>
        <time>2013-09-13T12:05:46Z</time>
      </trkpt>
      <trkpt lat="42.038533" lon="0.756550">
        <ele>1700.0</ele>
        <time>2013-09-13T12:05:47Z</time>
      </trkpt>
      <trkpt lat="42.038500" lon="0.756650">
        <ele>1699.0</ele>
        <time>2013-09-13T12:05:48Z</time>
      </trkpt>
      <trkpt lat="42.038450" lon="0.756733">
        <ele>1697.0</ele>
        <time>2013-09-13T12:05:49Z</time>
      </trkpt>
      <trkpt lat="42.038400" lon="0.756833">
        <ele>1696.0</ele>
        <time>2013-09-13T12:05:50Z</time>
      </trkpt>
      <trkpt lat="42.038350" lon="0.756933">
        <ele>1696.0</ele>
        <time>2013-09-13T12:05:51Z</time>
      </trkpt>
      <trkpt lat="42.038333" lon="0.757000">
        <ele>1695.0</ele>
        <time>2013-09-13T12:05:52Z</time>
      </trkpt>
      <trkpt lat="42.038300" lon="0.757083">
        <ele>1695.0</ele>
        <time>2013-09-13T12:05:53Z</time>
      </trkpt>
      <trkpt lat="42.038283" lon="0.757150">
        <ele>1693.0</ele>
        <time>2013-09-13T12:05:54Z</time>
      </trkpt>
      <trkpt lat="42.038250" lon="0.757250">
        <ele>1692.0</ele>
        <time>2013-09-13T12:05:55Z</time>
      </trkpt>
      <trkpt lat="42.038217" lon="0.757350">
        <ele>1689.0</ele>
        <time>2013-09-13T12:05:56Z</time>
      </trkpt>
      <trkpt lat="42.038200" lon="0.757450">
        <ele>1688.0</ele>
        <time>2013-09-13T12:05:57Z</time>
      </trkpt>
      <trkpt lat="42.038167" lon="0.757550">
        <ele>1687.0</ele>
        <time>2013-09-13T12:05:58Z</time>
      </trkpt>
      <trkpt lat="42.038150" lon="0.757650">
        <ele>1686.0</ele>
        <time>2013-09-13T12:05:59Z</time>
      </trkpt>
      <trkpt lat="42.038133" lon="0.757750">
        <ele>1685.0</ele>
        <time>2013-09-13T12:06:00Z</time>
      </trkpt>
      <trkpt lat="42.038100" lon="0.757850">
        <ele>1684.0</ele>
        <time>2013-09-13T12:06:01Z</time>
      </trkpt>
      <trkpt lat="42.038067" lon="0.757950">
        <ele>1684.0</ele>
        <time>2013-09-13T12:06:02Z</time>
      </trkpt>
      <trkpt lat="42.038033" lon="0.758033">
        <ele>1685.0</ele>
        <time>2013-09-13T12:06:03Z</time>
      </trkpt>
      <trkpt lat="42.038000" lon="0.758117">
        <ele>1685.0</ele>
        <time>2013-09-13T12:06:04Z</time>
      </trkpt>
      <trkpt lat="42.037950" lon="0.758200">
        <ele>1686.0</ele>
        <time>2013-09-13T12:06:05Z</time>
      </trkpt>
      <trkpt lat="42.037917" lon="0.758283">
        <ele>1686.0</ele>
        <time>2013-09-13T12:06:06Z</time>
      </trkpt>
      <trkpt lat="42.037883" lon="0.758367">
        <ele>1687.0</ele>
        <time>2013-09-13T12:06:07Z</time>
      </trkpt>
      <trkpt lat="42.037833" lon="0.758433">
        <ele>1687.0</ele>
        <time>2013-09-13T12:06:08Z</time>
      </trkpt>
      <trkpt lat="42.037767" lon="0.758483">
        <ele>1687.0</ele>
        <time>2013-09-13T12:06:09Z</time>
      </trkpt>
      <trkpt lat="42.037717" lon="0.758550">
        <ele>1687.0</ele>
        <time>2013-09-13T12:06:10Z</time>
      </trkpt>
      <trkpt lat="42.037683" lon="0.758600">
        <ele>1688.0</ele>
        <time>2013-09-13T12:06:11Z</time>
      </trkpt>
      <trkpt lat="42.037650" lon="0.758667">
        <ele>1688.0</ele>
        <time>2013-09-13T12:06:12Z</time>
      </trkpt>
      <trkpt lat="42.037617" lon="0.758750">
        <ele>1688.0</ele>
        <time>2013-09-13T12:06:13Z</time>
      </trkpt>
      <trkpt lat="42.037567" lon="0.758817">
        <ele>1686.0</ele>
        <time>2013-09-13T12:06:14Z</time>
      </trkpt>
      <trkpt lat="42.037500" lon="0.758883">
        <ele>1685.0</ele>
        <time>2013-09-13T12:06:15Z</time>
      </trkpt>
      <trkpt lat="42.037433" lon="0.758933">
        <ele>1682.0</ele>
        <time>2013-09-13T12:06:16Z</time>
      </trkpt>
      <trkpt lat="42.037383" lon="0.758983">
        <ele>1681.0</ele>
        <time>2013-09-13T12:06:17Z</time>
      </trkpt>
      <trkpt lat="42.037333" lon="0.759033">
        <ele>1681.0</ele>
        <time>2013-09-13T12:06:18Z</time>
      </trkpt>
      <trkpt lat="42.037300" lon="0.759083">
        <ele>1680.0</ele>
        <time>2013-09-13T12:06:19Z</time>
      </trkpt>
      <trkpt lat="42.037267" lon="0.759150">
        <ele>1679.0</ele>
        <time>2013-09-13T12:06:20Z</time>
      </trkpt>
      <trkpt lat="42.037233" lon="0.759233">
        <ele>1676.0</ele>
        <time>2013-09-13T12:06:21Z</time>
      </trkpt>
      <trkpt lat="42.037167" lon="0.759317">
        <ele>1674.0</ele>
        <time>2013-09-13T12:06:22Z</time>
      </trkpt>
      <trkpt lat="42.037100" lon="0.759383">
        <ele>1672.0</ele>
        <time>2013-09-13T12:06:23Z</time>
      </trkpt>
      <trkpt lat="42.037033" lon="0.759450">
        <ele>1671.0</ele>
        <time>2013-09-13T12:06:24Z</time>
      </trkpt>
      <trkpt lat="42.036983" lon="0.759483">
        <ele>1673.0</ele>
        <time>2013-09-13T12:06:25Z</time>
      </trkpt>
      <trkpt lat="42.036950" lon="0.759517">
        <ele>1677.0</ele>
        <time>2013-09-13T12:06:26Z</time>
      </trkpt>
      <trkpt lat="42.036917" lon="0.759567">
        <ele>1680.0</ele>
        <time>2013-09-13T12:06:27Z</time>
      </trkpt>
      <trkpt lat="42.036883" lon="0.759617">
        <ele>1682.0</ele>
        <time>2013-09-13T12:06:28Z</time>
      </trkpt>
      <trkpt lat="42.036833" lon="0.759700">
        <ele>1684.0</ele>
        <time>2013-09-13T12:06:29Z</time>
      </trkpt>
      <trkpt lat="42.036783" lon="0.759767">
        <ele>1687.0</ele>
        <time>2013-09-13T12:06:30Z</time>
      </trkpt>
      <trkpt lat="42.036750" lon="0.759817">
        <ele>1689.0</ele>
        <time>2013-09-13T12:06:31Z</time>
      </trkpt>
      <trkpt lat="42.036717" lon="0.759883">
        <ele>1692.0</ele>
        <time>2013-09-13T12:06:32Z</time>
      </trkpt>
      <trkpt lat="42.036683" lon="0.759933">
        <ele>1695.0</ele>
        <time>2013-09-13T12:06:33Z</time>
      </trkpt>
      <trkpt lat="42.036633" lon="0.759983">
        <ele>1696.0</ele>
        <time>2013-09-13T12:06:34Z</time>
      </trkpt>
      <trkpt lat="42.036567" lon="0.760050">
        <ele>1698.0</ele>
        <time>2013-09-13T12:06:35Z</time>
      </trkpt>
      <trkpt lat="42.036517" lon="0.760117">
        <ele>1700.0</ele>
        <time>2013-09-13T12:06:36Z</time>
      </trkpt>
      <trkpt lat="42.036450" lon="0.760183">
        <ele>1703.0</ele>
        <time>2013-09-13T12:06:37Z</time>
      </trkpt>
      <trkpt lat="42.036417" lon="0.760250">
        <ele>1705.0</ele>
        <time>2013-09-13T12:06:38Z</time>
      </trkpt>
      <trkpt lat="42.036367" lon="0.760300">
        <ele>1708.0</ele>
        <time>2013-09-13T12:06:39Z</time>
      </trkpt>
      <trkpt lat="42.036300" lon="0.760367">
        <ele>1710.0</ele>
        <time>2013-09-13T12:06:40Z</time>
      </trkpt>
      <trkpt lat="42.036250" lon="0.760400">
        <ele>1711.0</ele>
        <time>2013-09-13T12:06:41Z</time>
      </trkpt>
      <trkpt lat="42.036167" lon="0.760433">
        <ele>1712.0</ele>
        <time>2013-09-13T12:06:42Z</time>
      </trkpt>
      <trkpt lat="42.036100" lon="0.760450">
        <ele>1712.0</ele>
        <time>2013-09-13T12:06:43Z</time>
      </trkpt>
      <trkpt lat="42.036033" lon="0.760450">
        <ele>1714.0</ele>
        <time>2013-09-13T12:06:44Z</time>
      </trkpt>
      <trkpt lat="42.035967" lon="0.760467">
        <ele>1715.0</ele>
        <time>2013-09-13T12:06:45Z</time>
      </trkpt>
      <trkpt lat="42.035900" lon="0.760483">
        <ele>1716.0</ele>
        <time>2013-09-13T12:06:46Z</time>
      </trkpt>
      <trkpt lat="42.035850" lon="0.760483">
        <ele>1718.0</ele>
        <time>2013-09-13T12:06:47Z</time>
      </trkpt>
      <trkpt lat="42.035800" lon="0.760483">
        <ele>1718.0</ele>
        <time>2013-09-13T12:06:48Z</time>
      </trkpt>
      <trkpt lat="42.035750" lon="0.760483">
        <ele>1719.0</ele>
        <time>2013-09-13T12:06:49Z</time>
      </trkpt>
      <trkpt lat="42.035683" lon="0.760467">
        <ele>1720.0</ele>
        <time>2013-09-13T12:06:50Z</time>
      </trkpt>
      <trkpt lat="42.035633" lon="0.760467">
        <ele>1721.0</ele>
        <time>2013-09-13T12:06:51Z</time>
      </trkpt>
      <trkpt lat="42.035567" lon="0.760450">
        <ele>1722.0</ele>
        <time>2013-09-13T12:06:52Z</time>
      </trkpt>
      <trkpt lat="42.035517" lon="0.760467">
        <ele>1722.0</ele>
        <time>2013-09-13T12:06:53Z</time>
      </trkpt>
      <trkpt lat="42.035450" lon="0.760467">
        <ele>1724.0</ele>
        <time>2013-09-13T12:06:54Z</time>
      </trkpt>
      <trkpt lat="42.035400" lon="0.760467">
        <ele>1725.0</ele>
        <time>2013-09-13T12:06:55Z</time>
      </trkpt>
      <trkpt lat="42.035350" lon="0.760467">
        <ele>1725.0</ele>
        <time>2013-09-13T12:06:56Z</time>
      </trkpt>
      <trkpt lat="42.035283" lon="0.760450">
        <ele>1725.0</ele>
        <time>2013-09-13T12:06:57Z</time>
      </trkpt>
      <trkpt lat="42.035200" lon="0.760450">
        <ele>1724.0</ele>
        <time>2013-09-13T12:06:58Z</time>
      </trkpt>
      <trkpt lat="42.035150" lon="0.760450">
        <ele>1725.0</ele>
        <time>2013-09-13T12:06:59Z</time>
      </trkpt>
      <trkpt lat="42.035083" lon="0.760433">
        <ele>1726.0</ele>
        <time>2013-09-13T12:07:00Z</time>
      </trkpt>
      <trkpt lat="42.035017" lon="0.760417">
        <ele>1727.0</ele>
        <time>2013-09-13T12:07:01Z</time>
      </trkpt>
      <trkpt lat="42.034967" lon="0.760400">
        <ele>1728.0</ele>
        <time>2013-09-13T12:07:02Z</time>
      </trkpt>
      <trkpt lat="42.034900" lon="0.760367">
        <ele>1730.0</ele>
        <time>2013-09-13T12:07:03Z</time>
      </trkpt>
      <trkpt lat="42.034850" lon="0.760367">
        <ele>1732.0</ele>
        <time>2013-09-13T12:07:04Z</time>
      </trkpt>
      <trkpt lat="42.034783" lon="0.760350">
        <ele>1735.0</ele>
        <time>2013-09-13T12:07:05Z</time>
      </trkpt>
      <trkpt lat="42.034717" lon="0.760350">
        <ele>1739.0</ele>
        <time>2013-09-13T12:07:06Z</time>
      </trkpt>
      <trkpt lat="42.034650" lon="0.760333">
        <ele>1742.0</ele>
        <time>2013-09-13T12:07:07Z</time>
      </trkpt>
      <trkpt lat="42.034583" lon="0.760333">
        <ele>1747.0</ele>
        <time>2013-09-13T12:07:08Z</time>
      </trkpt>
      <trkpt lat="42.034517" lon="0.760333">
        <ele>1751.0</ele>
        <time>2013-09-13T12:07:09Z</time>
      </trkpt>
      <trkpt lat="42.034450" lon="0.760333">
        <ele>1754.0</ele>
        <time>2013-09-13T12:07:10Z</time>
      </trkpt>
      <trkpt lat="42.034383" lon="0.760317">
        <ele>1758.0</ele>
        <time>2013-09-13T12:07:11Z</time>
      </trkpt>
      <trkpt lat="42.034317" lon="0.760300">
        <ele>1761.0</ele>
        <time>2013-09-13T12:07:12Z</time>
      </trkpt>
      <trkpt lat="42.034250" lon="0.760283">
        <ele>1765.0</ele>
        <time>2013-09-13T12:07:13Z</time>
      </trkpt>
      <trkpt lat="42.034183" lon="0.760267">
        <ele>1769.0</ele>
        <time>2013-09-13T12:07:14Z</time>
      </trkpt>
      <trkpt lat="42.034133" lon="0.760267">
        <ele>1773.0</ele>
        <time>2013-09-13T12:07:15Z</time>
      </trkpt>
      <trkpt lat="42.034083" lon="0.760283">
        <ele>1778.0</ele>
        <time>2013-09-13T12:07:16Z</time>
      </trkpt>
      <trkpt lat="42.034050" lon="0.760300">
        <ele>1783.0</ele>
        <time>2013-09-13T12:07:17Z</time>
      </trkpt>
      <trkpt lat="42.034033" lon="0.760300">
        <ele>1787.0</ele>
        <time>2013-09-13T12:07:18Z</time>
      </trkpt>
      <trkpt lat="42.034017" lon="0.760283">
        <ele>1790.0</ele>
        <time>2013-09-13T12:07:19Z</time>
      </trkpt>
      <trkpt lat="42.033983" lon="0.760267">
        <ele>1790.0</ele>
        <time>2013-09-13T12:07:20Z</time>
      </trkpt>
      <trkpt lat="42.033933" lon="0.760233">
        <ele>1791.0</ele>
        <time>2013-09-13T12:07:21Z</time>
      </trkpt>
      <trkpt lat="42.033883" lon="0.760200">
        <ele>1792.0</ele>
        <time>2013-09-13T12:07:22Z</time>
      </trkpt>
      <trkpt lat="42.033833" lon="0.760150">
        <ele>1793.0</ele>
        <time>2013-09-13T12:07:23Z</time>
      </trkpt>
      <trkpt lat="42.033800" lon="0.760100">
        <ele>1794.0</ele>
        <time>2013-09-13T12:07:24Z</time>
      </trkpt>
      <trkpt lat="42.033767" lon="0.760033">
        <ele>1796.0</ele>
        <time>2013-09-13T12:07:25Z</time>
      </trkpt>
      <trkpt lat="42.033733" lon="0.759950">
        <ele>1797.0</ele>
        <time>2013-09-13T12:07:26Z</time>
      </trkpt>
      <trkpt lat="42.033683" lon="0.759867">
        <ele>1799.0</ele>
        <time>2013-09-13T12:07:27Z</time>
      </trkpt>
      <trkpt lat="42.033633" lon="0.759800">
        <ele>1802.0</ele>
        <time>2013-09-13T12:07:28Z</time>
      </trkpt>
      <trkpt lat="42.033583" lon="0.759733">
        <ele>1806.0</ele>
        <time>2013-09-13T12:07:29Z</time>
      </trkpt>
      <trkpt lat="42.033567" lon="0.759650">
        <ele>1810.0</ele>
        <time>2013-09-13T12:07:30Z</time>
      </trkpt>
      <trkpt lat="42.033533" lon="0.759567">
        <ele>1813.0</ele>
        <time>2013-09-13T12:07:31Z</time>
      </trkpt>
      <trkpt lat="42.033517" lon="0.759450">
        <ele>1816.0</ele>
        <time>2013-09-13T12:07:32Z</time>
      </trkpt>
      <trkpt lat="42.033500" lon="0.759333">
        <ele>1818.0</ele>
        <time>2013-09-13T12:07:33Z</time>
      </trkpt>
      <trkpt lat="42.033467" lon="0.759200">
        <ele>1820.0</ele>
        <time>2013-09-13T12:07:34Z</time>
      </trkpt>
      <trkpt lat="42.033450" lon="0.759083">
        <ele>1823.0</ele>
        <time>2013-09-13T12:07:35Z</time>
      </trkpt>
      <trkpt lat="42.033433" lon="0.758983">
        <ele>1826.0</ele>
        <time>2013-09-13T12:07:36Z</time>
      </trkpt>
      <trkpt lat="42.033417" lon="0.758883">
        <ele>1828.0</ele>
        <time>2013-09-13T12:07:37Z</time>
      </trkpt>
      <trkpt lat="42.033383" lon="0.758783">
        <ele>1829.0</ele>
        <time>2013-09-13T12:07:38Z</time>
      </trkpt>
      <trkpt lat="42.033333" lon="0.758683">
        <ele>1829.0</ele>
        <time>2013-09-13T12:07:39Z</time>
      </trkpt>
      <trkpt lat="42.033267" lon="0.758567">
        <ele>1829.0</ele>
        <time>2013-09-13T12:07:40Z</time>
      </trkpt>
      <trkpt lat="42.033217" lon="0.758467">
        <ele>1830.0</ele>
        <time>2013-09-13T12:07:41Z</time>
      </trkpt>
      <trkpt lat="42.033150" lon="0.758383">
        <ele>1833.0</ele>
        <time>2013-09-13T12:07:42Z</time>
      </trkpt>
      <trkpt lat="42.033100" lon="0.758317">
        <ele>1835.0</ele>
        <time>2013-09-13T12:07:43Z</time>
      </trkpt>
      <trkpt lat="42.033050" lon="0.758267">
        <ele>1837.0</ele>
        <time>2013-09-13T12:07:44Z</time>
      </trkpt>
      <trkpt lat="42.032983" lon="0.758217">
        <ele>1838.0</ele>
        <time>2013-09-13T12:07:45Z</time>
      </trkpt>
      <trkpt lat="42.032917" lon="0.758167">
        <ele>1838.0</ele>
        <time>2013-09-13T12:07:46Z</time>
      </trkpt>
      <trkpt lat="42.032833" lon="0.758117">
        <ele>1837.0</ele>
        <time>2013-09-13T12:07:47Z</time>
      </trkpt>
      <trkpt lat="42.032767" lon="0.758067">
        <ele>1837.0</ele>
        <time>2013-09-13T12:07:48Z</time>
      </trkpt>
      <trkpt lat="42.032700" lon="0.758017">
        <ele>1838.0</ele>
        <time>2013-09-13T12:07:49Z</time>
      </trkpt>
      <trkpt lat="42.032650" lon="0.757950">
        <ele>1839.0</ele>
        <time>2013-09-13T12:07:50Z</time>
      </trkpt>
      <trkpt lat="42.032617" lon="0.757883">
        <ele>1840.0</ele>
        <time>2013-09-13T12:07:51Z</time>
      </trkpt>
      <trkpt lat="42.032567" lon="0.757833">
        <ele>1840.0</ele>
        <time>2013-09-13T12:07:52Z</time>
      </trkpt>
      <trkpt lat="42.032500" lon="0.757783">
        <ele>1839.0</ele>
        <time>2013-09-13T12:07:53Z</time>
      </trkpt>
      <trkpt lat="42.032433" lon="0.757767">
        <ele>1838.0</ele>
        <time>2013-09-13T12:07:54Z</time>
      </trkpt>
      <trkpt lat="42.032350" lon="0.757750">
        <ele>1837.0</ele>
        <time>2013-09-13T12:07:55Z</time>
      </trkpt>
      <trkpt lat="42.032267" lon="0.757750">
        <ele>1835.0</ele>
        <time>2013-09-13T12:07:56Z</time>
      </trkpt>
      <trkpt lat="42.032200" lon="0.757733">
        <ele>1834.0</ele>
        <time>2013-09-13T12:07:57Z</time>
      </trkpt>
      <trkpt lat="42.032133" lon="0.757717">
        <ele>1833.0</ele>
        <time>2013-09-13T12:07:58Z</time>
      </trkpt>
      <trkpt lat="42.032050" lon="0.757700">
        <ele>1832.0</ele>
        <time>2013-09-13T12:07:59Z</time>
      </trkpt>
      <trkpt lat="42.031967" lon="0.757700">
        <ele>1831.0</ele>
        <time>2013-09-13T12:08:00Z</time>
      </trkpt>
      <trkpt lat="42.031883" lon="0.757700">
        <ele>1830.0</ele>
        <time>2013-09-13T12:08:01Z</time>
      </trkpt>
      <trkpt lat="42.031817" lon="0.757733">
        <ele>1830.0</ele>
        <time>2013-09-13T12:08:02Z</time>
      </trkpt>
      <trkpt lat="42.031750" lon="0.757750">
        <ele>1831.0</ele>
        <time>2013-09-13T12:08:03Z</time>
      </trkpt>
      <trkpt lat="42.031683" lon="0.757767">
        <ele>1831.0</ele>
        <time>2013-09-13T12:08:04Z</time>
      </trkpt>
      <trkpt lat="42.031617" lon="0.757783">
        <ele>1832.0</ele>
        <time>2013-09-13T12:08:05Z</time>
      </trkpt>
      <trkpt lat="42.031533" lon="0.757783">
        <ele>1832.0</ele>
        <time>2013-09-13T12:08:06Z</time>
      </trkpt>
      <trkpt lat="42.031450" lon="0.757783">
        <ele>1833.0</ele>
        <time>2013-09-13T12:08:07Z</time>
      </trkpt>
      <trkpt lat="42.031383" lon="0.757783">
        <ele>1834.0</ele>
        <time>2013-09-13T12:08:08Z</time>
      </trkpt>
      <trkpt lat="42.031317" lon="0.757767">
        <ele>1836.0</ele>
        <time>2013-09-13T12:08:09Z</time>
      </trkpt>
      <trkpt lat="42.031233" lon="0.757767">
        <ele>1836.0</ele>
        <time>2013-09-13T12:08:10Z</time>
      </trkpt>
      <trkpt lat="42.031167" lon="0.757783">
        <ele>1836.0</ele>
        <time>2013-09-13T12:08:11Z</time>
      </trkpt>
      <trkpt lat="42.031067" lon="0.757783">
        <ele>1836.0</ele>
        <time>2013-09-13T12:08:12Z</time>
      </trkpt>
      <trkpt lat="42.030967" lon="0.757767">
        <ele>1836.0</ele>
        <time>2013-09-13T12:08:13Z</time>
      </trkpt>
      <trkpt lat="42.030883" lon="0.757750">
        <ele>1836.0</ele>
        <time>2013-09-13T12:08:14Z</time>
      </trkpt>
      <trkpt lat="42.030800" lon="0.757733">
        <ele>1837.0</ele>
        <time>2013-09-13T12:08:15Z</time>
      </trkpt>
      <trkpt lat="42.030733" lon="0.757717">
        <ele>1838.0</ele>
        <time>2013-09-13T12:08:16Z</time>
      </trkpt>
      <trkpt lat="42.030650" lon="0.757683">
        <ele>1838.0</ele>
        <time>2013-09-13T12:08:17Z</time>
      </trkpt>
      <trkpt lat="42.030567" lon="0.757650">
        <ele>1838.0</ele>
        <time>2013-09-13T12:08:18Z</time>
      </trkpt>
      <trkpt lat="42.030467" lon="0.757617">
        <ele>1837.0</ele>
        <time>2013-09-13T12:08:19Z</time>
      </trkpt>
      <trkpt lat="42.030400" lon="0.757583">
        <ele>1837.0</ele>
        <time>2013-09-13T12:08:20Z</time>
      </trkpt>
      <trkpt lat="42.030317" lon="0.757550">
        <ele>1837.0</ele>
        <time>2013-09-13T12:08:21Z</time>
      </trkpt>
      <trkpt lat="42.030250" lon="0.757500">
        <ele>1836.0</ele>
        <time>2013-09-13T12:08:22Z</time>
      </trkpt>
      <trkpt lat="42.030183" lon="0.757433">
        <ele>1835.0</ele>
        <time>2013-09-13T12:08:23Z</time>
      </trkpt>
      <trkpt lat="42.030133" lon="0.757350">
        <ele>1834.0</ele>
        <time>2013-09-13T12:08:24Z</time>
      </trkpt>
      <trkpt lat="42.030083" lon="0.757267">
        <ele>1833.0</ele>
        <time>2013-09-13T12:08:25Z</time>
      </trkpt>
      <trkpt lat="42.030033" lon="0.757183">
        <ele>1832.0</ele>
        <time>2013-09-13T12:08:26Z</time>
      </trkpt>
      <trkpt lat="42.030017" lon="0.757083">
        <ele>1831.0</ele>
        <time>2013-09-13T12:08:27Z</time>
      </trkpt>
      <trkpt lat="42.030017" lon="0.756983">
        <ele>1829.0</ele>
        <time>2013-09-13T12:08:28Z</time>
      </trkpt>
      <trkpt lat="42.030033" lon="0.756883">
        <ele>1827.0</ele>
        <time>2013-09-13T12:08:29Z</time>
      </trkpt>
      <trkpt lat="42.030067" lon="0.756783">
        <ele>1826.0</ele>
        <time>2013-09-13T12:08:30Z</time>
      </trkpt>
      <trkpt lat="42.030100" lon="0.756717">
        <ele>1825.0</ele>
        <time>2013-09-13T12:08:31Z</time>
      </trkpt>
      <trkpt lat="42.030150" lon="0.756667">
        <ele>1824.0</ele>
        <time>2013-09-13T12:08:32Z</time>
      </trkpt>
      <trkpt lat="42.030217" lon="0.756633">
        <ele>1822.0</ele>
        <time>2013-09-13T12:08:33Z</time>
      </trkpt>
      <trkpt lat="42.030283" lon="0.756600">
        <ele>1819.0</ele>
        <time>2013-09-13T12:08:34Z</time>
      </trkpt>
      <trkpt lat="42.030367" lon="0.756583">
        <ele>1817.0</ele>
        <time>2013-09-13T12:08:35Z</time>
      </trkpt>
      <trkpt lat="42.030450" lon="0.756583">
        <ele>1816.0</ele>
        <time>2013-09-13T12:08:36Z</time>
      </trkpt>
      <trkpt lat="42.030517" lon="0.756617">
        <ele>1815.0</ele>
        <time>2013-09-13T12:08:37Z</time>
      </trkpt>
      <trkpt lat="42.030583" lon="0.756667">
        <ele>1814.0</ele>
        <time>2013-09-13T12:08:38Z</time>
      </trkpt>
      <trkpt lat="42.030633" lon="0.756733">
        <ele>1812.0</ele>
        <time>2013-09-13T12:08:39Z</time>
      </trkpt>
      <trkpt lat="42.030700" lon="0.756817">
        <ele>1811.0</ele>
        <time>2013-09-13T12:08:40Z</time>
      </trkpt>
      <trkpt lat="42.030733" lon="0.756917">
        <ele>1809.0</ele>
        <time>2013-09-13T12:08:41Z</time>
      </trkpt>
      <trkpt lat="42.030750" lon="0.757050">
        <ele>1808.0</ele>
        <time>2013-09-13T12:08:42Z</time>
      </trkpt>
      <trkpt lat="42.030733" lon="0.757167">
        <ele>1806.0</ele>
        <time>2013-09-13T12:08:43Z</time>
      </trkpt>
      <trkpt lat="42.030717" lon="0.757283">
        <ele>1805.0</ele>
        <time>2013-09-13T12:08:44Z</time>
      </trkpt>
      <trkpt lat="42.030667" lon="0.757383">
        <ele>1805.0</ele>
        <time>2013-09-13T12:08:45Z</time>
      </trkpt>
      <trkpt lat="42.030617" lon="0.757450">
        <ele>1805.0</ele>
        <time>2013-09-13T12:08:46Z</time>
      </trkpt>
      <trkpt lat="42.030550" lon="0.757517">
        <ele>1804.0</ele>
        <time>2013-09-13T12:08:47Z</time>
      </trkpt>
      <trkpt lat="42.030483" lon="0.757600">
        <ele>1802.0</ele>
        <time>2013-09-13T12:08:48Z</time>
      </trkpt>
      <trkpt lat="42.030417" lon="0.757700">
        <ele>1801.0</ele>
        <time>2013-09-13T12:08:49Z</time>
      </trkpt>
      <trkpt lat="42.030333" lon="0.757783">
        <ele>1799.0</ele>
        <time>2013-09-13T12:08:50Z</time>
      </trkpt>
      <trkpt lat="42.030267" lon="0.757867">
        <ele>1798.0</ele>
        <time>2013-09-13T12:08:51Z</time>
      </trkpt>
      <trkpt lat="42.030200" lon="0.757950">
        <ele>1798.0</ele>
        <time>2013-09-13T12:08:52Z</time>
      </trkpt>
      <trkpt lat="42.030150" lon="0.758017">
        <ele>1798.0</ele>
        <time>2013-09-13T12:08:53Z</time>
      </trkpt>
      <trkpt lat="42.030083" lon="0.758100">
        <ele>1797.0</ele>
        <time>2013-09-13T12:08:54Z</time>
      </trkpt>
      <trkpt lat="42.030017" lon="0.758183">
        <ele>1796.0</ele>
        <time>2013-09-13T12:08:55Z</time>
      </trkpt>
      <trkpt lat="42.029950" lon="0.758250">
        <ele>1795.0</ele>
        <time>2013-09-13T12:08:56Z</time>
      </trkpt>
      <trkpt lat="42.029867" lon="0.758317">
        <ele>1794.0</ele>
        <time>2013-09-13T12:08:57Z</time>
      </trkpt>
      <trkpt lat="42.029783" lon="0.758367">
        <ele>1793.0</ele>
        <time>2013-09-13T12:08:58Z</time>
      </trkpt>
      <trkpt lat="42.029700" lon="0.758417">
        <ele>1792.0</ele>
        <time>2013-09-13T12:08:59Z</time>
      </trkpt>
      <trkpt lat="42.029617" lon="0.758467">
        <ele>1791.0</ele>
        <time>2013-09-13T12:09:00Z</time>
      </trkpt>
      <trkpt lat="42.029517" lon="0.758533">
        <ele>1790.0</ele>
        <time>2013-09-13T12:09:01Z</time>
      </trkpt>
      <trkpt lat="42.029433" lon="0.758583">
        <ele>1790.0</ele>
        <time>2013-09-13T12:09:02Z</time>
      </trkpt>
      <trkpt lat="42.029367" lon="0.758633">
        <ele>1790.0</ele>
        <time>2013-09-13T12:09:03Z</time>
      </trkpt>
      <trkpt lat="42.029283" lon="0.758683">
        <ele>1790.0</ele>
        <time>2013-09-13T12:09:04Z</time>
      </trkpt>
      <trkpt lat="42.029200" lon="0.758717">
        <ele>1789.0</ele>
        <time>2013-09-13T12:09:05Z</time>
      </trkpt>
      <trkpt lat="42.029100" lon="0.758750">
        <ele>1788.0</ele>
        <time>2013-09-13T12:09:06Z</time>
      </trkpt>
      <trkpt lat="42.029017" lon="0.758800">
        <ele>1787.0</ele>
        <time>2013-09-13T12:09:07Z</time>
      </trkpt>
      <trkpt lat="42.028933" lon="0.758850">
        <ele>1787.0</ele>
        <time>2013-09-13T12:09:08Z</time>
      </trkpt>
      <trkpt lat="42.028850" lon="0.758917">
        <ele>1787.0</ele>
        <time>2013-09-13T12:09:09Z</time>
      </trkpt>
      <trkpt lat="42.028767" lon="0.758967">
        <ele>1787.0</ele>
        <time>2013-09-13T12:09:10Z</time>
      </trkpt>
      <trkpt lat="42.028683" lon="0.759017">
        <ele>1787.0</ele>
        <time>2013-09-13T12:09:11Z</time>
      </trkpt>
      <trkpt lat="42.028600" lon="0.759083">
        <ele>1786.0</ele>
        <time>2013-09-13T12:09:12Z</time>
      </trkpt>
      <trkpt lat="42.028533" lon="0.759167">
        <ele>1787.0</ele>
        <time>2013-09-13T12:09:13Z</time>
      </trkpt>
      <trkpt lat="42.028467" lon="0.759250">
        <ele>1786.0</ele>
        <time>2013-09-13T12:09:14Z</time>
      </trkpt>
      <trkpt lat="42.028400" lon="0.759350">
        <ele>1786.0</ele>
        <time>2013-09-13T12:09:15Z</time>
      </trkpt>
      <trkpt lat="42.028333" lon="0.759450">
        <ele>1787.0</ele>
        <time>2013-09-13T12:09:16Z</time>
      </trkpt>
      <trkpt lat="42.028250" lon="0.759533">
        <ele>1787.0</ele>
        <time>2013-09-13T12:09:17Z</time>
      </trkpt>
      <trkpt lat="42.028183" lon="0.759600">
        <ele>1788.0</ele>
        <time>2013-09-13T12:09:18Z</time>
      </trkpt>
      <trkpt lat="42.028117" lon="0.759650">
        <ele>1788.0</ele>
        <time>2013-09-13T12:09:19Z</time>
      </trkpt>
      <trkpt lat="42.028033" lon="0.759700">
        <ele>1788.0</ele>
        <time>2013-09-13T12:09:20Z</time>
      </trkpt>
      <trkpt lat="42.027933" lon="0.759750">
        <ele>1788.0</ele>
        <time>2013-09-13T12:09:21Z</time>
      </trkpt>
      <trkpt lat="42.027850" lon="0.759800">
        <ele>1788.0</ele>
        <time>2013-09-13T12:09:22Z</time>
      </trkpt>
      <trkpt lat="42.027767" lon="0.759833">
        <ele>1788.0</ele>
        <time>2013-09-13T12:09:23Z</time>
      </trkpt>
      <trkpt lat="42.027683" lon="0.759867">
        <ele>1788.0</ele>
        <time>2013-09-13T12:09:24Z</time>
      </trkpt>
      <trkpt lat="42.027583" lon="0.759900">
        <ele>1788.0</ele>
        <time>2013-09-13T12:09:25Z</time>
      </trkpt>
      <trkpt lat="42.027500" lon="0.759933">
        <ele>1787.0</ele>
        <time>2013-09-13T12:09:26Z</time>
      </trkpt>
      <trkpt lat="42.027400" lon="0.759950">
        <ele>1786.0</ele>
        <time>2013-09-13T12:09:27Z</time>
      </trkpt>
      <trkpt lat="42.027317" lon="0.760000">
        <ele>1786.0</ele>
        <time>2013-09-13T12:09:28Z</time>
      </trkpt>
      <trkpt lat="42.027233" lon="0.760033">
        <ele>1785.0</ele>
        <time>2013-09-13T12:09:29Z</time>
      </trkpt>
      <trkpt lat="42.027150" lon="0.760083">
        <ele>1785.0</ele>
        <time>2013-09-13T12:09:30Z</time>
      </trkpt>
      <trkpt lat="42.027067" lon="0.760117">
        <ele>1784.0</ele>
        <time>2013-09-13T12:09:31Z</time>
      </trkpt>
      <trkpt lat="42.026983" lon="0.760167">
        <ele>1783.0</ele>
        <time>2013-09-13T12:09:32Z</time>
      </trkpt>
      <trkpt lat="42.026883" lon="0.760217">
        <ele>1782.0</ele>
        <time>2013-09-13T12:09:33Z</time>
      </trkpt>
      <trkpt lat="42.026817" lon="0.760283">
        <ele>1782.0</ele>
        <time>2013-09-13T12:09:34Z</time>
      </trkpt>
      <trkpt lat="42.026733" lon="0.760367">
        <ele>1782.0</ele>
        <time>2013-09-13T12:09:35Z</time>
      </trkpt>
      <trkpt lat="42.026683" lon="0.760467">
        <ele>1781.0</ele>
        <time>2013-09-13T12:09:36Z</time>
      </trkpt>
      <trkpt lat="42.026617" lon="0.760567">
        <ele>1781.0</ele>
        <time>2013-09-13T12:09:37Z</time>
      </trkpt>
      <trkpt lat="42.026550" lon="0.760667">
        <ele>1780.0</ele>
        <time>2013-09-13T12:09:38Z</time>
      </trkpt>
      <trkpt lat="42.026483" lon="0.760767">
        <ele>1780.0</ele>
        <time>2013-09-13T12:09:39Z</time>
      </trkpt>
      <trkpt lat="42.026417" lon="0.760850">
        <ele>1780.0</ele>
        <time>2013-09-13T12:09:40Z</time>
      </trkpt>
      <trkpt lat="42.026367" lon="0.760933">
        <ele>1779.0</ele>
        <time>2013-09-13T12:09:41Z</time>
      </trkpt>
      <trkpt lat="42.026300" lon="0.761050">
        <ele>1778.0</ele>
        <time>2013-09-13T12:09:42Z</time>
      </trkpt>
      <trkpt lat="42.026233" lon="0.761150">
        <ele>1777.0</ele>
        <time>2013-09-13T12:09:43Z</time>
      </trkpt>
      <trkpt lat="42.026167" lon="0.761267">
        <ele>1776.0</ele>
        <time>2013-09-13T12:09:44Z</time>
      </trkpt>
      <trkpt lat="42.026117" lon="0.761400">
        <ele>1775.0</ele>
        <time>2013-09-13T12:09:45Z</time>
      </trkpt>
      <trkpt lat="42.026083" lon="0.761533">
        <ele>1774.0</ele>
        <time>2013-09-13T12:09:46Z</time>
      </trkpt>
      <trkpt lat="42.026050" lon="0.761667">
        <ele>1774.0</ele>
        <time>2013-09-13T12:09:47Z</time>
      </trkpt>
      <trkpt lat="42.026017" lon="0.761817">
        <ele>1773.0</ele>
        <time>2013-09-13T12:09:48Z</time>
      </trkpt>
      <trkpt lat="42.026000" lon="0.761967">
        <ele>1772.0</ele>
        <time>2013-09-13T12:09:49Z</time>
      </trkpt>
      <trkpt lat="42.025967" lon="0.762117">
        <ele>1772.0</ele>
        <time>2013-09-13T12:09:50Z</time>
      </trkpt>
      <trkpt lat="42.025933" lon="0.762267">
        <ele>1772.0</ele>
        <time>2013-09-13T12:09:51Z</time>
      </trkpt>
      <trkpt lat="42.025883" lon="0.762400">
        <ele>1772.0</ele>
        <time>2013-09-13T12:09:52Z</time>
      </trkpt>
      <trkpt lat="42.025833" lon="0.762517">
        <ele>1772.0</ele>
        <time>2013-09-13T12:09:53Z</time>
      </trkpt>
      <trkpt lat="42.025767" lon="0.762633">
        <ele>1772.0</ele>
        <time>2013-09-13T12:09:54Z</time>
      </trkpt>
      <trkpt lat="42.025683" lon="0.762717">
        <ele>1772.0</ele>
        <time>2013-09-13T12:09:55Z</time>
      </trkpt>
      <trkpt lat="42.025617" lon="0.762783">
        <ele>1773.0</ele>
        <time>2013-09-13T12:09:56Z</time>
      </trkpt>
      <trkpt lat="42.025533" lon="0.762867">
        <ele>1773.0</ele>
        <time>2013-09-13T12:09:57Z</time>
      </trkpt>
      <trkpt lat="42.025467" lon="0.762950">
        <ele>1773.0</ele>
        <time>2013-09-13T12:09:58Z</time>
      </trkpt>
      <trkpt lat="42.025383" lon="0.763033">
        <ele>1773.0</ele>
        <time>2013-09-13T12:09:59Z</time>
      </trkpt>
      <trkpt lat="42.025317" lon="0.763133">
        <ele>1774.0</ele>
        <time>2013-09-13T12:10:00Z</time>
      </trkpt>
      <trkpt lat="42.025250" lon="0.763217">
        <ele>1774.0</ele>
        <time>2013-09-13T12:10:01Z</time>
      </trkpt>
      <trkpt lat="42.025183" lon="0.763317">
        <ele>1775.0</ele>
        <time>2013-09-13T12:10:02Z</time>
      </trkpt>
      <trkpt lat="42.025133" lon="0.763433">
        <ele>1776.0</ele>
        <time>2013-09-13T12:10:03Z</time>
      </trkpt>
      <trkpt lat="42.025067" lon="0.763550">
        <ele>1776.0</ele>
        <time>2013-09-13T12:10:04Z</time>
      </trkpt>
      <trkpt lat="42.025017" lon="0.763667">
        <ele>1776.0</ele>
        <time>2013-09-13T12:10:05Z</time>
      </trkpt>
      <trkpt lat="42.024967" lon="0.763800">
        <ele>1775.0</ele>
        <time>2013-09-13T12:10:06Z</time>
      </trkpt>
      <trkpt lat="42.024917" lon="0.763933">
        <ele>1775.0</ele>
        <time>2013-09-13T12:10:07Z</time>
      </trkpt>
      <trkpt lat="42.024867" lon="0.764050">
        <ele>1774.0</ele>
        <time>2013-09-13T12:10:08Z</time>
      </trkpt>
      <trkpt lat="42.024817" lon="0.764183">
        <ele>1774.0</ele>
        <time>2013-09-13T12:10:09Z</time>
      </trkpt>
      <trkpt lat="42.024783" lon="0.764300">
        <ele>1774.0</ele>
        <time>2013-09-13T12:10:10Z</time>
      </trkpt>
      <trkpt lat="42.024750" lon="0.764433">
        <ele>1773.0</ele>
        <time>2013-09-13T12:10:11Z</time>
      </trkpt>
      <trkpt lat="42.024683" lon="0.764550">
        <ele>1772.0</ele>
        <time>2013-09-13T12:10:12Z</time>
      </trkpt>
      <trkpt lat="42.024617" lon="0.764667">
        <ele>1772.0</ele>
        <time>2013-09-13T12:10:13Z</time>
      </trkpt>
      <trkpt lat="42.024533" lon="0.764750">
        <ele>1771.0</ele>
        <time>2013-09-13T12:10:14Z</time>
      </trkpt>
      <trkpt lat="42.024433" lon="0.764833">
        <ele>1772.0</ele>
        <time>2013-09-13T12:10:15Z</time>
      </trkpt>
      <trkpt lat="42.024350" lon="0.764883">
        <ele>1772.0</ele>
        <time>2013-09-13T12:10:16Z</time>
      </trkpt>
      <trkpt lat="42.024267" lon="0.764933">
        <ele>1773.0</ele>
        <time>2013-09-13T12:10:17Z</time>
      </trkpt>
      <trkpt lat="42.024183" lon="0.764967">
        <ele>1774.0</ele>
        <time>2013-09-13T12:10:18Z</time>
      </trkpt>
      <trkpt lat="42.024117" lon="0.764983">
        <ele>1775.0</ele>
        <time>2013-09-13T12:10:19Z</time>
      </trkpt>
      <trkpt lat="42.024033" lon="0.764983">
        <ele>1774.0</ele>
        <time>2013-09-13T12:10:20Z</time>
      </trkpt>
      <trkpt lat="42.023933" lon="0.764967">
        <ele>1771.0</ele>
        <time>2013-09-13T12:10:21Z</time>
      </trkpt>
      <trkpt lat="42.023850" lon="0.764950">
        <ele>1770.0</ele>
        <time>2013-09-13T12:10:22Z</time>
      </trkpt>
      <trkpt lat="42.023783" lon="0.764917">
        <ele>1770.0</ele>
        <time>2013-09-13T12:10:23Z</time>
      </trkpt>
      <trkpt lat="42.023733" lon="0.764867">
        <ele>1770.0</ele>
        <time>2013-09-13T12:10:24Z</time>
      </trkpt>
      <trkpt lat="42.023683" lon="0.764817">
        <ele>1769.0</ele>
        <time>2013-09-13T12:10:25Z</time>
      </trkpt>
      <trkpt lat="42.023650" lon="0.764750">
        <ele>1767.0</ele>
        <time>2013-09-13T12:10:26Z</time>
      </trkpt>
      <trkpt lat="42.023617" lon="0.764683">
        <ele>1766.0</ele>
        <time>2013-09-13T12:10:27Z</time>
      </trkpt>
      <trkpt lat="42.023600" lon="0.764600">
        <ele>1765.0</ele>
        <time>2013-09-13T12:10:28Z</time>
      </trkpt>
      <trkpt lat="42.023583" lon="0.764517">
        <ele>1764.0</ele>
        <time>2013-09-13T12:10:29Z</time>
      </trkpt>
      <trkpt lat="42.023567" lon="0.764433">
        <ele>1763.0</ele>
        <time>2013-09-13T12:10:30Z</time>
      </trkpt>
      <trkpt lat="42.023567" lon="0.764367">
        <ele>1762.0</ele>
        <time>2013-09-13T12:10:31Z</time>
      </trkpt>
      <trkpt lat="42.023567" lon="0.764283">
        <ele>1761.0</ele>
        <time>2013-09-13T12:10:32Z</time>
      </trkpt>
      <trkpt lat="42.023583" lon="0.764217">
        <ele>1760.0</ele>
        <time>2013-09-13T12:10:33Z</time>
      </trkpt>
      <trkpt lat="42.023583" lon="0.764133">
        <ele>1759.0</ele>
        <time>2013-09-13T12:10:34Z</time>
      </trkpt>
      <trkpt lat="42.023583" lon="0.764050">
        <ele>1757.0</ele>
        <time>2013-09-13T12:10:35Z</time>
      </trkpt>
      <trkpt lat="42.023583" lon="0.763983">
        <ele>1756.0</ele>
        <time>2013-09-13T12:10:36Z</time>
      </trkpt>
      <trkpt lat="42.023583" lon="0.763900">
        <ele>1754.0</ele>
        <time>2013-09-13T12:10:37Z</time>
      </trkpt>
      <trkpt lat="42.023617" lon="0.763833">
        <ele>1753.0</ele>
        <time>2013-09-13T12:10:38Z</time>
      </trkpt>
      <trkpt lat="42.023650" lon="0.763783">
        <ele>1752.0</ele>
        <time>2013-09-13T12:10:39Z</time>
      </trkpt>
      <trkpt lat="42.023700" lon="0.763733">
        <ele>1751.0</ele>
        <time>2013-09-13T12:10:40Z</time>
      </trkpt>
      <trkpt lat="42.023750" lon="0.763683">
        <ele>1750.0</ele>
        <time>2013-09-13T12:10:41Z</time>
      </trkpt>
      <trkpt lat="42.023800" lon="0.763650">
        <ele>1749.0</ele>
        <time>2013-09-13T12:10:42Z</time>
      </trkpt>
      <trkpt lat="42.023850" lon="0.763617">
        <ele>1748.0</ele>
        <time>2013-09-13T12:10:43Z</time>
      </trkpt>
      <trkpt lat="42.023917" lon="0.763583">
        <ele>1748.0</ele>
        <time>2013-09-13T12:10:44Z</time>
      </trkpt>
      <trkpt lat="42.023983" lon="0.763550">
        <ele>1747.0</ele>
        <time>2013-09-13T12:10:45Z</time>
      </trkpt>
      <trkpt lat="42.024050" lon="0.763517">
        <ele>1746.0</ele>
        <time>2013-09-13T12:10:46Z</time>
      </trkpt>
      <trkpt lat="42.024100" lon="0.763483">
        <ele>1745.0</ele>
        <time>2013-09-13T12:10:47Z</time>
      </trkpt>
      <trkpt lat="42.024167" lon="0.763467">
        <ele>1746.0</ele>
        <time>2013-09-13T12:10:48Z</time>
      </trkpt>
      <trkpt lat="42.024217" lon="0.763467">
        <ele>1747.0</ele>
        <time>2013-09-13T12:10:49Z</time>
      </trkpt>
      <trkpt lat="42.024283" lon="0.763467">
        <ele>1748.0</ele>
        <time>2013-09-13T12:10:50Z</time>
      </trkpt>
      <trkpt lat="42.024350" lon="0.763467">
        <ele>1748.0</ele>
        <time>2013-09-13T12:10:51Z</time>
      </trkpt>
      <trkpt lat="42.024417" lon="0.763467">
        <ele>1749.0</ele>
        <time>2013-09-13T12:10:52Z</time>
      </trkpt>
      <trkpt lat="42.024500" lon="0.763467">
        <ele>1749.0</ele>
        <time>2013-09-13T12:10:53Z</time>
      </trkpt>
      <trkpt lat="42.024567" lon="0.763450">
        <ele>1750.0</ele>
        <time>2013-09-13T12:10:54Z</time>
      </trkpt>
      <trkpt lat="42.024617" lon="0.763450">
        <ele>1751.0</ele>
        <time>2013-09-13T12:10:55Z</time>
      </trkpt>
      <trkpt lat="42.024683" lon="0.763450">
        <ele>1752.0</ele>
        <time>2013-09-13T12:10:56Z</time>
      </trkpt>
      <trkpt lat="42.024750" lon="0.763450">
        <ele>1752.0</ele>
        <time>2013-09-13T12:10:57Z</time>
      </trkpt>
      <trkpt lat="42.024833" lon="0.763450">
        <ele>1753.0</ele>
        <time>2013-09-13T12:10:58Z</time>
      </trkpt>
      <trkpt lat="42.025050" lon="0.763450">
        <ele>1754.0</ele>
        <time>2013-09-13T12:11:01Z</time>
      </trkpt>
      <trkpt lat="42.025117" lon="0.763450">
        <ele>1755.0</ele>
        <time>2013-09-13T12:11:02Z</time>
      </trkpt>
      <trkpt lat="42.025183" lon="0.763433">
        <ele>1755.0</ele>
        <time>2013-09-13T12:11:03Z</time>
      </trkpt>
      <trkpt lat="42.025250" lon="0.763417">
        <ele>1755.0</ele>
        <time>2013-09-13T12:11:04Z</time>
      </trkpt>
      <trkpt lat="42.025300" lon="0.763400">
        <ele>1756.0</ele>
        <time>2013-09-13T12:11:05Z</time>
      </trkpt>
      <trkpt lat="42.025367" lon="0.763367">
        <ele>1757.0</ele>
        <time>2013-09-13T12:11:06Z</time>
      </trkpt>
      <trkpt lat="42.025433" lon="0.763350">
        <ele>1757.0</ele>
        <time>2013-09-13T12:11:07Z</time>
      </trkpt>
      <trkpt lat="42.025483" lon="0.763317">
        <ele>1758.0</ele>
        <time>2013-09-13T12:11:08Z</time>
      </trkpt>
      <trkpt lat="42.025550" lon="0.763300">
        <ele>1758.0</ele>
        <time>2013-09-13T12:11:09Z</time>
      </trkpt>
      <trkpt lat="42.025617" lon="0.763283">
        <ele>1758.0</ele>
        <time>2013-09-13T12:11:10Z</time>
      </trkpt>
      <trkpt lat="42.025683" lon="0.763267">
        <ele>1757.0</ele>
        <time>2013-09-13T12:11:11Z</time>
      </trkpt>
      <trkpt lat="42.025750" lon="0.763233">
        <ele>1757.0</ele>
        <time>2013-09-13T12:11:12Z</time>
      </trkpt>
      <trkpt lat="42.025817" lon="0.763217">
        <ele>1757.0</ele>
        <time>2013-09-13T12:11:13Z</time>
      </trkpt>
      <trkpt lat="42.025900" lon="0.763200">
        <ele>1757.0</ele>
        <time>2013-09-13T12:11:14Z</time>
      </trkpt>
      <trkpt lat="42.025967" lon="0.763167">
        <ele>1757.0</ele>
        <time>2013-09-13T12:11:15Z</time>
      </trkpt>
      <trkpt lat="42.026050" lon="0.763133">
        <ele>1757.0</ele>
        <time>2013-09-13T12:11:16Z</time>
      </trkpt>
      <trkpt lat="42.026117" lon="0.763100">
        <ele>1758.0</ele>
        <time>2013-09-13T12:11:17Z</time>
      </trkpt>
      <trkpt lat="42.026183" lon="0.763067">
        <ele>1758.0</ele>
        <time>2013-09-13T12:11:18Z</time>
      </trkpt>
      <trkpt lat="42.026250" lon="0.763050">
        <ele>1759.0</ele>
        <time>2013-09-13T12:11:19Z</time>
      </trkpt>
      <trkpt lat="42.026333" lon="0.763017">
        <ele>1759.0</ele>
        <time>2013-09-13T12:11:20Z</time>
      </trkpt>
      <trkpt lat="42.026417" lon="0.762983">
        <ele>1760.0</ele>
        <time>2013-09-13T12:11:21Z</time>
      </trkpt>
      <trkpt lat="42.026483" lon="0.762967">
        <ele>1761.0</ele>
        <time>2013-09-13T12:11:22Z</time>
      </trkpt>
      <trkpt lat="42.026567" lon="0.762933">
        <ele>1762.0</ele>
        <time>2013-09-13T12:11:23Z</time>
      </trkpt>
      <trkpt lat="42.026633" lon="0.762883">
        <ele>1764.0</ele>
        <time>2013-09-13T12:11:24Z</time>
      </trkpt>
      <trkpt lat="42.026700" lon="0.762850">
        <ele>1767.0</ele>
        <time>2013-09-13T12:11:25Z</time>
      </trkpt>
      <trkpt lat="42.026767" lon="0.762800">
        <ele>1769.0</ele>
        <time>2013-09-13T12:11:26Z</time>
      </trkpt>
      <trkpt lat="42.026850" lon="0.762783">
        <ele>1772.0</ele>
        <time>2013-09-13T12:11:27Z</time>
      </trkpt>
      <trkpt lat="42.026917" lon="0.762750">
        <ele>1775.0</ele>
        <time>2013-09-13T12:11:28Z</time>
      </trkpt>
      <trkpt lat="42.026983" lon="0.762717">
        <ele>1777.0</ele>
        <time>2013-09-13T12:11:29Z</time>
      </trkpt>
      <trkpt lat="42.027050" lon="0.762700">
        <ele>1780.0</ele>
        <time>2013-09-13T12:11:30Z</time>
      </trkpt>
      <trkpt lat="42.027117" lon="0.762667">
        <ele>1784.0</ele>
        <time>2013-09-13T12:11:31Z</time>
      </trkpt>
      <trkpt lat="42.027183" lon="0.762667">
        <ele>1787.0</ele>
        <time>2013-09-13T12:11:32Z</time>
      </trkpt>
      <trkpt lat="42.027250" lon="0.762650">
        <ele>1790.0</ele>
        <time>2013-09-13T12:11:33Z</time>
      </trkpt>
      <trkpt lat="42.027317" lon="0.762650">
        <ele>1794.0</ele>
        <time>2013-09-13T12:11:34Z</time>
      </trkpt>
      <trkpt lat="42.027383" lon="0.762650">
        <ele>1797.0</ele>
        <time>2013-09-13T12:11:35Z</time>
      </trkpt>
      <trkpt lat="42.027450" lon="0.762633">
        <ele>1800.0</ele>
        <time>2013-09-13T12:11:36Z</time>
      </trkpt>
      <trkpt lat="42.027500" lon="0.762617">
        <ele>1803.0</ele>
        <time>2013-09-13T12:11:37Z</time>
      </trkpt>
      <trkpt lat="42.027567" lon="0.762567">
        <ele>1805.0</ele>
        <time>2013-09-13T12:11:38Z</time>
      </trkpt>
      <trkpt lat="42.027633" lon="0.762517">
        <ele>1806.0</ele>
        <time>2013-09-13T12:11:39Z</time>
      </trkpt>
      <trkpt lat="42.027667" lon="0.762433">
        <ele>1807.0</ele>
        <time>2013-09-13T12:11:40Z</time>
      </trkpt>
      <trkpt lat="42.027700" lon="0.762367">
        <ele>1809.0</ele>
        <time>2013-09-13T12:11:41Z</time>
      </trkpt>
      <trkpt lat="42.027717" lon="0.762283">
        <ele>1811.0</ele>
        <time>2013-09-13T12:11:42Z</time>
      </trkpt>
      <trkpt lat="42.027700" lon="0.762217">
        <ele>1813.0</ele>
        <time>2013-09-13T12:11:43Z</time>
      </trkpt>
      <trkpt lat="42.027700" lon="0.762150">
        <ele>1815.0</ele>
        <time>2013-09-13T12:11:44Z</time>
      </trkpt>
      <trkpt lat="42.027667" lon="0.762083">
        <ele>1817.0</ele>
        <time>2013-09-13T12:11:45Z</time>
      </trkpt>
      <trkpt lat="42.027633" lon="0.762000">
        <ele>1818.0</ele>
        <time>2013-09-13T12:11:46Z</time>
      </trkpt>
      <trkpt lat="42.027567" lon="0.761917">
        <ele>1819.0</ele>
        <time>2013-09-13T12:11:47Z</time>
      </trkpt>
      <trkpt lat="42.027483" lon="0.761883">
        <ele>1820.0</ele>
        <time>2013-09-13T12:11:48Z</time>
      </trkpt>
      <trkpt lat="42.027400" lon="0.761850">
        <ele>1822.0</ele>
        <time>2013-09-13T12:11:49Z</time>
      </trkpt>
      <trkpt lat="42.027317" lon="0.761850">
        <ele>1823.0</ele>
        <time>2013-09-13T12:11:50Z</time>
      </trkpt>
      <trkpt lat="42.027250" lon="0.761850">
        <ele>1826.0</ele>
        <time>2013-09-13T12:11:51Z</time>
      </trkpt>
      <trkpt lat="42.027183" lon="0.761850">
        <ele>1828.0</ele>
        <time>2013-09-13T12:11:52Z</time>
      </trkpt>
      <trkpt lat="42.027100" lon="0.761850">
        <ele>1830.0</ele>
        <time>2013-09-13T12:11:53Z</time>
      </trkpt>
      <trkpt lat="42.027000" lon="0.761883">
        <ele>1831.0</ele>
        <time>2013-09-13T12:11:54Z</time>
      </trkpt>
      <trkpt lat="42.026900" lon="0.761933">
        <ele>1833.0</ele>
        <time>2013-09-13T12:11:55Z</time>
      </trkpt>
      <trkpt lat="42.026817" lon="0.762000">
        <ele>1835.0</ele>
        <time>2013-09-13T12:11:56Z</time>
      </trkpt>
      <trkpt lat="42.026733" lon="0.762083">
        <ele>1837.0</ele>
        <time>2013-09-13T12:11:57Z</time>
      </trkpt>
      <trkpt lat="42.026650" lon="0.762183">
        <ele>1840.0</ele>
        <time>2013-09-13T12:11:58Z</time>
      </trkpt>
      <trkpt lat="42.026600" lon="0.762267">
        <ele>1842.0</ele>
        <time>2013-09-13T12:11:59Z</time>
      </trkpt>
      <trkpt lat="42.026533" lon="0.762367">
        <ele>1844.0</ele>
        <time>2013-09-13T12:12:00Z</time>
      </trkpt>
      <trkpt lat="42.026467" lon="0.762483">
        <ele>1846.0</ele>
        <time>2013-09-13T12:12:01Z</time>
      </trkpt>
      <trkpt lat="42.026433" lon="0.762617">
        <ele>1847.0</ele>
        <time>2013-09-13T12:12:02Z</time>
      </trkpt>
      <trkpt lat="42.026400" lon="0.762767">
        <ele>1849.0</ele>
        <time>2013-09-13T12:12:03Z</time>
      </trkpt>
      <trkpt lat="42.026400" lon="0.762900">
        <ele>1851.0</ele>
        <time>2013-09-13T12:12:04Z</time>
      </trkpt>
      <trkpt lat="42.026400" lon="0.763033">
        <ele>1853.0</ele>
        <time>2013-09-13T12:12:05Z</time>
      </trkpt>
      <trkpt lat="42.026417" lon="0.763167">
        <ele>1856.0</ele>
        <time>2013-09-13T12:12:06Z</time>
      </trkpt>
      <trkpt lat="42.026433" lon="0.763300">
        <ele>1858.0</ele>
        <time>2013-09-13T12:12:07Z</time>
      </trkpt>
      <trkpt lat="42.026483" lon="0.763417">
        <ele>1860.0</ele>
        <time>2013-09-13T12:12:08Z</time>
      </trkpt>
      <trkpt lat="42.026533" lon="0.763550">
        <ele>1861.0</ele>
        <time>2013-09-13T12:12:09Z</time>
      </trkpt>
      <trkpt lat="42.026617" lon="0.763650">
        <ele>1863.0</ele>
        <time>2013-09-13T12:12:10Z</time>
      </trkpt>
      <trkpt lat="42.026700" lon="0.763733">
        <ele>1865.0</ele>
        <time>2013-09-13T12:12:11Z</time>
      </trkpt>
      <trkpt lat="42.026767" lon="0.763800">
        <ele>1866.0</ele>
        <time>2013-09-13T12:12:12Z</time>
      </trkpt>
      <trkpt lat="42.026850" lon="0.763850">
        <ele>1868.0</ele>
        <time>2013-09-13T12:12:13Z</time>
      </trkpt>
      <trkpt lat="42.026950" lon="0.763883">
        <ele>1869.0</ele>
        <time>2013-09-13T12:12:14Z</time>
      </trkpt>
      <trkpt lat="42.027033" lon="0.763917">
        <ele>1871.0</ele>
        <time>2013-09-13T12:12:15Z</time>
      </trkpt>
      <trkpt lat="42.027133" lon="0.763917">
        <ele>1873.0</ele>
        <time>2013-09-13T12:12:16Z</time>
      </trkpt>
      <trkpt lat="42.027233" lon="0.763917">
        <ele>1876.0</ele>
        <time>2013-09-13T12:12:17Z</time>
      </trkpt>
      <trkpt lat="42.027317" lon="0.763917">
        <ele>1879.0</ele>
        <time>2013-09-13T12:12:18Z</time>
      </trkpt>
      <trkpt lat="42.027383" lon="0.763900">
        <ele>1882.0</ele>
        <time>2013-09-13T12:12:19Z</time>
      </trkpt>
      <trkpt lat="42.027450" lon="0.763867">
        <ele>1884.0</ele>
        <time>2013-09-13T12:12:20Z</time>
      </trkpt>
      <trkpt lat="42.027500" lon="0.763833">
        <ele>1887.0</ele>
        <time>2013-09-13T12:12:21Z</time>
      </trkpt>
      <trkpt lat="42.027567" lon="0.763800">
        <ele>1889.0</ele>
        <time>2013-09-13T12:12:22Z</time>
      </trkpt>
      <trkpt lat="42.027617" lon="0.763750">
        <ele>1891.0</ele>
        <time>2013-09-13T12:12:23Z</time>
      </trkpt>
      <trkpt lat="42.027650" lon="0.763683">
        <ele>1894.0</ele>
        <time>2013-09-13T12:12:24Z</time>
      </trkpt>
      <trkpt lat="42.027667" lon="0.763617">
        <ele>1896.0</ele>
        <time>2013-09-13T12:12:25Z</time>
      </trkpt>
      <trkpt lat="42.027683" lon="0.763550">
        <ele>1898.0</ele>
        <time>2013-09-13T12:12:26Z</time>
      </trkpt>
      <trkpt lat="42.027717" lon="0.763467">
        <ele>1899.0</ele>
        <time>2013-09-13T12:12:27Z</time>
      </trkpt>
      <trkpt lat="42.027733" lon="0.763383">
        <ele>1901.0</ele>
        <time>2013-09-13T12:12:28Z</time>
      </trkpt>
      <trkpt lat="42.027750" lon="0.763317">
        <ele>1904.0</ele>
        <time>2013-09-13T12:12:29Z</time>
      </trkpt>
      <trkpt lat="42.027750" lon="0.763233">
        <ele>1907.0</ele>
        <time>2013-09-13T12:12:30Z</time>
      </trkpt>
      <trkpt lat="42.027750" lon="0.763167">
        <ele>1909.0</ele>
        <time>2013-09-13T12:12:31Z</time>
      </trkpt>
      <trkpt lat="42.027733" lon="0.763100">
        <ele>1910.0</ele>
        <time>2013-09-13T12:12:32Z</time>
      </trkpt>
      <trkpt lat="42.027733" lon="0.763033">
        <ele>1911.0</ele>
        <time>2013-09-13T12:12:33Z</time>
      </trkpt>
      <trkpt lat="42.027733" lon="0.762983">
        <ele>1912.0</ele>
        <time>2013-09-13T12:12:34Z</time>
      </trkpt>
      <trkpt lat="42.027733" lon="0.762900">
        <ele>1910.0</ele>
        <time>2013-09-13T12:12:35Z</time>
      </trkpt>
      <trkpt lat="42.027750" lon="0.762800">
        <ele>1909.0</ele>
        <time>2013-09-13T12:12:36Z</time>
      </trkpt>
      <trkpt lat="42.027750" lon="0.762717">
        <ele>1907.0</ele>
        <time>2013-09-13T12:12:37Z</time>
      </trkpt>
      <trkpt lat="42.027750" lon="0.762633">
        <ele>1907.0</ele>
        <time>2013-09-13T12:12:38Z</time>
      </trkpt>
      <trkpt lat="42.027767" lon="0.762550">
        <ele>1907.0</ele>
        <time>2013-09-13T12:12:39Z</time>
      </trkpt>
      <trkpt lat="42.027783" lon="0.762483">
        <ele>1907.0</ele>
        <time>2013-09-13T12:12:40Z</time>
      </trkpt>
      <trkpt lat="42.027817" lon="0.762417">
        <ele>1907.0</ele>
        <time>2013-09-13T12:12:41Z</time>
      </trkpt>
      <trkpt lat="42.027867" lon="0.762350">
        <ele>1908.0</ele>
        <time>2013-09-13T12:12:42Z</time>
      </trkpt>
      <trkpt lat="42.027900" lon="0.762283">
        <ele>1908.0</ele>
        <time>2013-09-13T12:12:43Z</time>
      </trkpt>
      <trkpt lat="42.027950" lon="0.762233">
        <ele>1908.0</ele>
        <time>2013-09-13T12:12:44Z</time>
      </trkpt>
      <trkpt lat="42.028000" lon="0.762183">
        <ele>1909.0</ele>
        <time>2013-09-13T12:12:45Z</time>
      </trkpt>
      <trkpt lat="42.028067" lon="0.762133">
        <ele>1909.0</ele>
        <time>2013-09-13T12:12:46Z</time>
      </trkpt>
      <trkpt lat="42.028117" lon="0.762083">
        <ele>1910.0</ele>
        <time>2013-09-13T12:12:47Z</time>
      </trkpt>
      <trkpt lat="42.028167" lon="0.762050">
        <ele>1912.0</ele>
        <time>2013-09-13T12:12:48Z</time>
      </trkpt>
      <trkpt lat="42.028217" lon="0.762017">
        <ele>1913.0</ele>
        <time>2013-09-13T12:12:49Z</time>
      </trkpt>
      <trkpt lat="42.028267" lon="0.762000">
        <ele>1914.0</ele>
        <time>2013-09-13T12:12:50Z</time>
      </trkpt>
      <trkpt lat="42.028317" lon="0.761967">
        <ele>1915.0</ele>
        <time>2013-09-13T12:12:51Z</time>
      </trkpt>
      <trkpt lat="42.028367" lon="0.761933">
        <ele>1915.0</ele>
        <time>2013-09-13T12:12:52Z</time>
      </trkpt>
      <trkpt lat="42.028417" lon="0.761900">
        <ele>1915.0</ele>
        <time>2013-09-13T12:12:53Z</time>
      </trkpt>
      <trkpt lat="42.028533" lon="0.761850">
        <ele>1915.0</ele>
        <time>2013-09-13T12:12:55Z</time>
      </trkpt>
      <trkpt lat="42.028583" lon="0.761817">
        <ele>1916.0</ele>
        <time>2013-09-13T12:12:56Z</time>
      </trkpt>
      <trkpt lat="42.028650" lon="0.761800">
        <ele>1917.0</ele>
        <time>2013-09-13T12:12:57Z</time>
      </trkpt>
      <trkpt lat="42.028700" lon="0.761767">
        <ele>1917.0</ele>
        <time>2013-09-13T12:12:58Z</time>
      </trkpt>
      <trkpt lat="42.028750" lon="0.761733">
        <ele>1917.0</ele>
        <time>2013-09-13T12:12:59Z</time>
      </trkpt>
      <trkpt lat="42.028817" lon="0.761717">
        <ele>1917.0</ele>
        <time>2013-09-13T12:13:00Z</time>
      </trkpt>
      <trkpt lat="42.028883" lon="0.761700">
        <ele>1918.0</ele>
        <time>2013-09-13T12:13:01Z</time>
      </trkpt>
      <trkpt lat="42.028950" lon="0.761683">
        <ele>1919.0</ele>
        <time>2013-09-13T12:13:02Z</time>
      </trkpt>
      <trkpt lat="42.029050" lon="0.761650">
        <ele>1923.0</ele>
        <time>2013-09-13T12:13:04Z</time>
      </trkpt>
      <trkpt lat="42.029083" lon="0.761650">
        <ele>1924.0</ele>
        <time>2013-09-13T12:13:05Z</time>
      </trkpt>
      <trkpt lat="42.029117" lon="0.761617">
        <ele>1924.0</ele>
        <time>2013-09-13T12:13:06Z</time>
      </trkpt>
      <trkpt lat="42.029167" lon="0.761600">
        <ele>1922.0</ele>
        <time>2013-09-13T12:13:07Z</time>
      </trkpt>
      <trkpt lat="42.029317" lon="0.761550">
        <ele>1921.0</ele>
        <time>2013-09-13T12:13:09Z</time>
      </trkpt>
      <trkpt lat="42.029367" lon="0.761533">
        <ele>1923.0</ele>
        <time>2013-09-13T12:13:10Z</time>
      </trkpt>
      <trkpt lat="42.029433" lon="0.761533">
        <ele>1927.0</ele>
        <time>2013-09-13T12:13:12Z</time>
      </trkpt>
      <trkpt lat="42.029483" lon="0.761533">
        <ele>1927.0</ele>
        <time>2013-09-13T12:13:13Z</time>
      </trkpt>
      <trkpt lat="42.029550" lon="0.761517">
        <ele>1926.0</ele>
        <time>2013-09-13T12:13:14Z</time>
      </trkpt>
      <trkpt lat="42.029633" lon="0.761517">
        <ele>1925.0</ele>
        <time>2013-09-13T12:13:15Z</time>
      </trkpt>
      <trkpt lat="42.029700" lon="0.761500">
        <ele>1926.0</ele>
        <time>2013-09-13T12:13:16Z</time>
      </trkpt>
      <trkpt lat="42.029767" lon="0.761517">
        <ele>1928.0</ele>
        <time>2013-09-13T12:13:17Z</time>
      </trkpt>
      <trkpt lat="42.029817" lon="0.761517">
        <ele>1929.0</ele>
        <time>2013-09-13T12:13:18Z</time>
      </trkpt>
      <trkpt lat="42.029867" lon="0.761500">
        <ele>1931.0</ele>
        <time>2013-09-13T12:13:19Z</time>
      </trkpt>
      <trkpt lat="42.029917" lon="0.761500">
        <ele>1931.0</ele>
        <time>2013-09-13T12:13:20Z</time>
      </trkpt>
      <trkpt lat="42.029983" lon="0.761483">
        <ele>1932.0</ele>
        <time>2013-09-13T12:13:21Z</time>
      </trkpt>
      <trkpt lat="42.030067" lon="0.761483">
        <ele>1932.0</ele>
        <time>2013-09-13T12:13:22Z</time>
      </trkpt>
      <trkpt lat="42.030117" lon="0.761483">
        <ele>1934.0</ele>
        <time>2013-09-13T12:13:23Z</time>
      </trkpt>
      <trkpt lat="42.030167" lon="0.761467">
        <ele>1936.0</ele>
        <time>2013-09-13T12:13:24Z</time>
      </trkpt>
      <trkpt lat="42.030200" lon="0.761433">
        <ele>1938.0</ele>
        <time>2013-09-13T12:13:25Z</time>
      </trkpt>
      <trkpt lat="42.030233" lon="0.761400">
        <ele>1938.0</ele>
        <time>2013-09-13T12:13:26Z</time>
      </trkpt>
      <trkpt lat="42.030283" lon="0.761367">
        <ele>1937.0</ele>
        <time>2013-09-13T12:13:27Z</time>
      </trkpt>
      <trkpt lat="42.030333" lon="0.761317">
        <ele>1937.0</ele>
        <time>2013-09-13T12:13:28Z</time>
      </trkpt>
      <trkpt lat="42.030400" lon="0.761283">
        <ele>1937.0</ele>
        <time>2013-09-13T12:13:29Z</time>
      </trkpt>
      <trkpt lat="42.030450" lon="0.761233">
        <ele>1937.0</ele>
        <time>2013-09-13T12:13:30Z</time>
      </trkpt>
      <trkpt lat="42.030483" lon="0.761200">
        <ele>1937.0</ele>
        <time>2013-09-13T12:13:31Z</time>
      </trkpt>
      <trkpt lat="42.030517" lon="0.761167">
        <ele>1937.0</ele>
        <time>2013-09-13T12:13:32Z</time>
      </trkpt>
      <trkpt lat="42.030567" lon="0.761117">
        <ele>1937.0</ele>
        <time>2013-09-13T12:13:33Z</time>
      </trkpt>
      <trkpt lat="42.030633" lon="0.761083">
        <ele>1935.0</ele>
        <time>2013-09-13T12:13:34Z</time>
      </trkpt>
      <trkpt lat="42.030683" lon="0.761050">
        <ele>1934.0</ele>
        <time>2013-09-13T12:13:35Z</time>
      </trkpt>
      <trkpt lat="42.030750" lon="0.761017">
        <ele>1934.0</ele>
        <time>2013-09-13T12:13:36Z</time>
      </trkpt>
      <trkpt lat="42.030800" lon="0.760983">
        <ele>1934.0</ele>
        <time>2013-09-13T12:13:37Z</time>
      </trkpt>
      <trkpt lat="42.030850" lon="0.760933">
        <ele>1933.0</ele>
        <time>2013-09-13T12:13:38Z</time>
      </trkpt>
      <trkpt lat="42.030933" lon="0.760883">
        <ele>1931.0</ele>
        <time>2013-09-13T12:13:40Z</time>
      </trkpt>
      <trkpt lat="42.031000" lon="0.760850">
        <ele>1929.0</ele>
        <time>2013-09-13T12:13:41Z</time>
      </trkpt>
      <trkpt lat="42.031050" lon="0.760850">
        <ele>1927.0</ele>
        <time>2013-09-13T12:13:42Z</time>
      </trkpt>
      <trkpt lat="42.031267" lon="0.760850">
        <ele>1924.0</ele>
        <time>2013-09-13T12:13:46Z</time>
      </trkpt>
      <trkpt lat="42.031317" lon="0.760833">
        <ele>1923.0</ele>
        <time>2013-09-13T12:13:47Z</time>
      </trkpt>
      <trkpt lat="42.031367" lon="0.760817">
        <ele>1923.0</ele>
        <time>2013-09-13T12:13:48Z</time>
      </trkpt>
      <trkpt lat="42.031417" lon="0.760800">
        <ele>1922.0</ele>
        <time>2013-09-13T12:13:49Z</time>
      </trkpt>
      <trkpt lat="42.031467" lon="0.760783">
        <ele>1922.0</ele>
        <time>2013-09-13T12:13:50Z</time>
      </trkpt>
      <trkpt lat="42.031517" lon="0.760750">
        <ele>1922.0</ele>
        <time>2013-09-13T12:13:51Z</time>
      </trkpt>
      <trkpt lat="42.031567" lon="0.760717">
        <ele>1922.0</ele>
        <time>2013-09-13T12:13:52Z</time>
      </trkpt>
      <trkpt lat="42.031600" lon="0.760667">
        <ele>1921.0</ele>
        <time>2013-09-13T12:13:53Z</time>
      </trkpt>
      <trkpt lat="42.031650" lon="0.760633">
        <ele>1920.0</ele>
        <time>2013-09-13T12:13:54Z</time>
      </trkpt>
      <trkpt lat="42.031683" lon="0.760583">
        <ele>1919.0</ele>
        <time>2013-09-13T12:13:55Z</time>
      </trkpt>
      <trkpt lat="42.031717" lon="0.760517">
        <ele>1917.0</ele>
        <time>2013-09-13T12:13:56Z</time>
      </trkpt>
      <trkpt lat="42.031750" lon="0.760467">
        <ele>1916.0</ele>
        <time>2013-09-13T12:13:57Z</time>
      </trkpt>
      <trkpt lat="42.031767" lon="0.760417">
        <ele>1914.0</ele>
        <time>2013-09-13T12:13:58Z</time>
      </trkpt>
      <trkpt lat="42.031817" lon="0.760350">
        <ele>1912.0</ele>
        <time>2013-09-13T12:13:59Z</time>
      </trkpt>
      <trkpt lat="42.031850" lon="0.760317">
        <ele>1911.0</ele>
        <time>2013-09-13T12:14:00Z</time>
      </trkpt>
      <trkpt lat="42.031883" lon="0.760267">
        <ele>1909.0</ele>
        <time>2013-09-13T12:14:01Z</time>
      </trkpt>
      <trkpt lat="42.031917" lon="0.760217">
        <ele>1906.0</ele>
        <time>2013-09-13T12:14:02Z</time>
      </trkpt>
      <trkpt lat="42.031967" lon="0.760183">
        <ele>1904.0</ele>
        <time>2013-09-13T12:14:03Z</time>
      </trkpt>
      <trkpt lat="42.032033" lon="0.760150">
        <ele>1901.0</ele>
        <time>2013-09-13T12:14:04Z</time>
      </trkpt>
      <trkpt lat="42.032100" lon="0.760150">
        <ele>1898.0</ele>
        <time>2013-09-13T12:14:05Z</time>
      </trkpt>
      <trkpt lat="42.032183" lon="0.760150">
        <ele>1895.0</ele>
        <time>2013-09-13T12:14:06Z</time>
      </trkpt>
      <trkpt lat="42.032267" lon="0.760167">
        <ele>1892.0</ele>
        <time>2013-09-13T12:14:07Z</time>
      </trkpt>
      <trkpt lat="42.032333" lon="0.760167">
        <ele>1890.0</ele>
        <time>2013-09-13T12:14:08Z</time>
      </trkpt>
      <trkpt lat="42.032400" lon="0.760183">
        <ele>1887.0</ele>
        <time>2013-09-13T12:14:09Z</time>
      </trkpt>
      <trkpt lat="42.032467" lon="0.760183">
        <ele>1884.0</ele>
        <time>2013-09-13T12:14:10Z</time>
      </trkpt>
      <trkpt lat="42.032567" lon="0.760200">
        <ele>1880.0</ele>
        <time>2013-09-13T12:14:11Z</time>
      </trkpt>
      <trkpt lat="42.032650" lon="0.760217">
        <ele>1877.0</ele>
        <time>2013-09-13T12:14:12Z</time>
      </trkpt>
      <trkpt lat="42.032750" lon="0.760250">
        <ele>1876.0</ele>
        <time>2013-09-13T12:14:13Z</time>
      </trkpt>
      <trkpt lat="42.032900" lon="0.760300">
        <ele>1873.0</ele>
        <time>2013-09-13T12:14:15Z</time>
      </trkpt>
      <trkpt lat="42.032983" lon="0.760317">
        <ele>1871.0</ele>
        <time>2013-09-13T12:14:16Z</time>
      </trkpt>
      <trkpt lat="42.033083" lon="0.760333">
        <ele>1869.0</ele>
        <time>2013-09-13T12:14:17Z</time>
      </trkpt>
      <trkpt lat="42.033183" lon="0.760350">
        <ele>1867.0</ele>
        <time>2013-09-13T12:14:18Z</time>
      </trkpt>
      <trkpt lat="42.033267" lon="0.760350">
        <ele>1866.0</ele>
        <time>2013-09-13T12:14:19Z</time>
      </trkpt>
      <trkpt lat="42.033367" lon="0.760367">
        <ele>1865.0</ele>
        <time>2013-09-13T12:14:20Z</time>
      </trkpt>
      <trkpt lat="42.033433" lon="0.760400">
        <ele>1865.0</ele>
        <time>2013-09-13T12:14:21Z</time>
      </trkpt>
      <trkpt lat="42.033517" lon="0.760417">
        <ele>1864.0</ele>
        <time>2013-09-13T12:14:22Z</time>
      </trkpt>
      <trkpt lat="42.033600" lon="0.760433">
        <ele>1862.0</ele>
        <time>2013-09-13T12:14:23Z</time>
      </trkpt>
      <trkpt lat="42.033683" lon="0.760450">
        <ele>1860.0</ele>
        <time>2013-09-13T12:14:24Z</time>
      </trkpt>
      <trkpt lat="42.033783" lon="0.760467">
        <ele>1858.0</ele>
        <time>2013-09-13T12:14:25Z</time>
      </trkpt>
      <trkpt lat="42.033883" lon="0.760500">
        <ele>1856.0</ele>
        <time>2013-09-13T12:14:26Z</time>
      </trkpt>
      <trkpt lat="42.033983" lon="0.760517">
        <ele>1856.0</ele>
        <time>2013-09-13T12:14:27Z</time>
      </trkpt>
      <trkpt lat="42.034067" lon="0.760533">
        <ele>1855.0</ele>
        <time>2013-09-13T12:14:28Z</time>
      </trkpt>
      <trkpt lat="42.034150" lon="0.760550">
        <ele>1855.0</ele>
        <time>2013-09-13T12:14:29Z</time>
      </trkpt>
      <trkpt lat="42.034233" lon="0.760567">
        <ele>1854.0</ele>
        <time>2013-09-13T12:14:30Z</time>
      </trkpt>
      <trkpt lat="42.034333" lon="0.760567">
        <ele>1853.0</ele>
        <time>2013-09-13T12:14:31Z</time>
      </trkpt>
      <trkpt lat="42.034433" lon="0.760567">
        <ele>1852.0</ele>
        <time>2013-09-13T12:14:32Z</time>
      </trkpt>
      <trkpt lat="42.034533" lon="0.760567">
        <ele>1853.0</ele>
        <time>2013-09-13T12:14:33Z</time>
      </trkpt>
      <trkpt lat="42.034650" lon="0.760550">
        <ele>1854.0</ele>
        <time>2013-09-13T12:14:34Z</time>
      </trkpt>
      <trkpt lat="42.034733" lon="0.760550">
        <ele>1855.0</ele>
        <time>2013-09-13T12:14:35Z</time>
      </trkpt>
      <trkpt lat="42.034817" lon="0.760533">
        <ele>1858.0</ele>
        <time>2013-09-13T12:14:36Z</time>
      </trkpt>
      <trkpt lat="42.034883" lon="0.760517">
        <ele>1860.0</ele>
        <time>2013-09-13T12:14:37Z</time>
      </trkpt>
      <trkpt lat="42.034967" lon="0.760500">
        <ele>1862.0</ele>
        <time>2013-09-13T12:14:38Z</time>
      </trkpt>
      <trkpt lat="42.035033" lon="0.760483">
        <ele>1864.0</ele>
        <time>2013-09-13T12:14:39Z</time>
      </trkpt>
      <trkpt lat="42.035117" lon="0.760483">
        <ele>1866.0</ele>
        <time>2013-09-13T12:14:40Z</time>
      </trkpt>
      <trkpt lat="42.035200" lon="0.760467">
        <ele>1867.0</ele>
        <time>2013-09-13T12:14:41Z</time>
      </trkpt>
      <trkpt lat="42.035283" lon="0.760450">
        <ele>1869.0</ele>
        <time>2013-09-13T12:14:42Z</time>
      </trkpt>
      <trkpt lat="42.035367" lon="0.760433">
        <ele>1871.0</ele>
        <time>2013-09-13T12:14:43Z</time>
      </trkpt>
      <trkpt lat="42.035450" lon="0.760417">
        <ele>1872.0</ele>
        <time>2013-09-13T12:14:44Z</time>
      </trkpt>
      <trkpt lat="42.035533" lon="0.760383">
        <ele>1874.0</ele>
        <time>2013-09-13T12:14:45Z</time>
      </trkpt>
      <trkpt lat="42.035600" lon="0.760350">
        <ele>1875.0</ele>
        <time>2013-09-13T12:14:46Z</time>
      </trkpt>
      <trkpt lat="42.035667" lon="0.760317">
        <ele>1877.0</ele>
        <time>2013-09-13T12:14:47Z</time>
      </trkpt>
      <trkpt lat="42.035733" lon="0.760283">
        <ele>1878.0</ele>
        <time>2013-09-13T12:14:48Z</time>
      </trkpt>
      <trkpt lat="42.035783" lon="0.760250">
        <ele>1880.0</ele>
        <time>2013-09-13T12:14:49Z</time>
      </trkpt>
      <trkpt lat="42.035900" lon="0.760150">
        <ele>1881.0</ele>
        <time>2013-09-13T12:14:51Z</time>
      </trkpt>
      <trkpt lat="42.035950" lon="0.760083">
        <ele>1882.0</ele>
        <time>2013-09-13T12:14:52Z</time>
      </trkpt>
      <trkpt lat="42.035983" lon="0.760000">
        <ele>1883.0</ele>
        <time>2013-09-13T12:14:53Z</time>
      </trkpt>
      <trkpt lat="42.035983" lon="0.759933">
        <ele>1884.0</ele>
        <time>2013-09-13T12:14:54Z</time>
      </trkpt>
      <trkpt lat="42.035983" lon="0.759867">
        <ele>1886.0</ele>
        <time>2013-09-13T12:14:55Z</time>
      </trkpt>
      <trkpt lat="42.035950" lon="0.759800">
        <ele>1887.0</ele>
        <time>2013-09-13T12:14:56Z</time>
      </trkpt>
      <trkpt lat="42.035917" lon="0.759750">
        <ele>1888.0</ele>
        <time>2013-09-13T12:14:57Z</time>
      </trkpt>
      <trkpt lat="42.035867" lon="0.759683">
        <ele>1888.0</ele>
        <time>2013-09-13T12:14:58Z</time>
      </trkpt>
      <trkpt lat="42.035833" lon="0.759650">
        <ele>1888.0</ele>
        <time>2013-09-13T12:14:59Z</time>
      </trkpt>
      <trkpt lat="42.035783" lon="0.759617">
        <ele>1888.0</ele>
        <time>2013-09-13T12:15:00Z</time>
      </trkpt>
      <trkpt lat="42.035717" lon="0.759617">
        <ele>1888.0</ele>
        <time>2013-09-13T12:15:01Z</time>
      </trkpt>
      <trkpt lat="42.035633" lon="0.759617">
        <ele>1888.0</ele>
        <time>2013-09-13T12:15:02Z</time>
      </trkpt>
      <trkpt lat="42.035567" lon="0.759633">
        <ele>1887.0</ele>
        <time>2013-09-13T12:15:03Z</time>
      </trkpt>
      <trkpt lat="42.035500" lon="0.759650">
        <ele>1886.0</ele>
        <time>2013-09-13T12:15:04Z</time>
      </trkpt>
      <trkpt lat="42.035417" lon="0.759667">
        <ele>1885.0</ele>
        <time>2013-09-13T12:15:05Z</time>
      </trkpt>
      <trkpt lat="42.035350" lon="0.759700">
        <ele>1884.0</ele>
        <time>2013-09-13T12:15:06Z</time>
      </trkpt>
      <trkpt lat="42.035283" lon="0.759750">
        <ele>1884.0</ele>
        <time>2013-09-13T12:15:07Z</time>
      </trkpt>
      <trkpt lat="42.035217" lon="0.759817">
        <ele>1882.0</ele>
        <time>2013-09-13T12:15:08Z</time>
      </trkpt>
      <trkpt lat="42.035150" lon="0.759900">
        <ele>1879.0</ele>
        <time>2013-09-13T12:15:09Z</time>
      </trkpt>
      <trkpt lat="42.035083" lon="0.759983">
        <ele>1877.0</ele>
        <time>2013-09-13T12:15:10Z</time>
      </trkpt>
      <trkpt lat="42.035017" lon="0.760083">
        <ele>1875.0</ele>
        <time>2013-09-13T12:15:11Z</time>
      </trkpt>
      <trkpt lat="42.034950" lon="0.760183">
        <ele>1874.0</ele>
        <time>2013-09-13T12:15:12Z</time>
      </trkpt>
      <trkpt lat="42.034900" lon="0.760267">
        <ele>1873.0</ele>
        <time>2013-09-13T12:15:13Z</time>
      </trkpt>
      <trkpt lat="42.034850" lon="0.760367">
        <ele>1873.0</ele>
        <time>2013-09-13T12:15:14Z</time>
      </trkpt>
      <trkpt lat="42.034783" lon="0.760467">
        <ele>1871.0</ele>
        <time>2013-09-13T12:15:15Z</time>
      </trkpt>
      <trkpt lat="42.034717" lon="0.760567">
        <ele>1870.0</ele>
        <time>2013-09-13T12:15:16Z</time>
      </trkpt>
      <trkpt lat="42.034650" lon="0.760667">
        <ele>1869.0</ele>
        <time>2013-09-13T12:15:17Z</time>
      </trkpt>
      <trkpt lat="42.034583" lon="0.760750">
        <ele>1868.0</ele>
        <time>2013-09-13T12:15:18Z</time>
      </trkpt>
      <trkpt lat="42.034517" lon="0.760833">
        <ele>1867.0</ele>
        <time>2013-09-13T12:15:19Z</time>
      </trkpt>
      <trkpt lat="42.034450" lon="0.760933">
        <ele>1866.0</ele>
        <time>2013-09-13T12:15:20Z</time>
      </trkpt>
      <trkpt lat="42.034400" lon="0.761017">
        <ele>1866.0</ele>
        <time>2013-09-13T12:15:21Z</time>
      </trkpt>
      <trkpt lat="42.034350" lon="0.761117">
        <ele>1865.0</ele>
        <time>2013-09-13T12:15:22Z</time>
      </trkpt>
      <trkpt lat="42.034283" lon="0.761217">
        <ele>1864.0</ele>
        <time>2013-09-13T12:15:23Z</time>
      </trkpt>
      <trkpt lat="42.034233" lon="0.761300">
        <ele>1863.0</ele>
        <time>2013-09-13T12:15:24Z</time>
      </trkpt>
      <trkpt lat="42.034183" lon="0.761400">
        <ele>1862.0</ele>
        <time>2013-09-13T12:15:25Z</time>
      </trkpt>
      <trkpt lat="42.034117" lon="0.761500">
        <ele>1860.0</ele>
        <time>2013-09-13T12:15:26Z</time>
      </trkpt>
      <trkpt lat="42.034067" lon="0.761600">
        <ele>1858.0</ele>
        <time>2013-09-13T12:15:27Z</time>
      </trkpt>
      <trkpt lat="42.034000" lon="0.761700">
        <ele>1855.0</ele>
        <time>2013-09-13T12:15:28Z</time>
      </trkpt>
      <trkpt lat="42.033933" lon="0.761817">
        <ele>1853.0</ele>
        <time>2013-09-13T12:15:29Z</time>
      </trkpt>
      <trkpt lat="42.033883" lon="0.761917">
        <ele>1851.0</ele>
        <time>2013-09-13T12:15:30Z</time>
      </trkpt>
      <trkpt lat="42.033817" lon="0.762033">
        <ele>1849.0</ele>
        <time>2013-09-13T12:15:31Z</time>
      </trkpt>
      <trkpt lat="42.033750" lon="0.762133">
        <ele>1847.0</ele>
        <time>2013-09-13T12:15:32Z</time>
      </trkpt>
      <trkpt lat="42.033700" lon="0.762217">
        <ele>1845.0</ele>
        <time>2013-09-13T12:15:33Z</time>
      </trkpt>
      <trkpt lat="42.033633" lon="0.762317">
        <ele>1843.0</ele>
        <time>2013-09-13T12:15:34Z</time>
      </trkpt>
      <trkpt lat="42.033567" lon="0.762417">
        <ele>1841.0</ele>
        <time>2013-09-13T12:15:35Z</time>
      </trkpt>
      <trkpt lat="42.033500" lon="0.762517">
        <ele>1839.0</ele>
        <time>2013-09-13T12:15:36Z</time>
      </trkpt>
      <trkpt lat="42.033433" lon="0.762617">
        <ele>1837.0</ele>
        <time>2013-09-13T12:15:37Z</time>
      </trkpt>
      <trkpt lat="42.033383" lon="0.762733">
        <ele>1837.0</ele>
        <time>2013-09-13T12:15:38Z</time>
      </trkpt>
      <trkpt lat="42.033333" lon="0.762833">
        <ele>1837.0</ele>
        <time>2013-09-13T12:15:39Z</time>
      </trkpt>
      <trkpt lat="42.033283" lon="0.762933">
        <ele>1837.0</ele>
        <time>2013-09-13T12:15:40Z</time>
      </trkpt>
      <trkpt lat="42.033217" lon="0.763033">
        <ele>1838.0</ele>
        <time>2013-09-13T12:15:41Z</time>
      </trkpt>
      <trkpt lat="42.033167" lon="0.763133">
        <ele>1838.0</ele>
        <time>2013-09-13T12:15:42Z</time>
      </trkpt>
      <trkpt lat="42.033133" lon="0.763233">
        <ele>1839.0</ele>
        <time>2013-09-13T12:15:43Z</time>
      </trkpt>
      <trkpt lat="42.033067" lon="0.763333">
        <ele>1839.0</ele>
        <time>2013-09-13T12:15:44Z</time>
      </trkpt>
      <trkpt lat="42.033017" lon="0.763433">
        <ele>1838.0</ele>
        <time>2013-09-13T12:15:45Z</time>
      </trkpt>
      <trkpt lat="42.032950" lon="0.763533">
        <ele>1837.0</ele>
        <time>2013-09-13T12:15:46Z</time>
      </trkpt>
      <trkpt lat="42.032883" lon="0.763633">
        <ele>1837.0</ele>
        <time>2013-09-13T12:15:47Z</time>
      </trkpt>
      <trkpt lat="42.032800" lon="0.763733">
        <ele>1836.0</ele>
        <time>2013-09-13T12:15:48Z</time>
      </trkpt>
      <trkpt lat="42.032733" lon="0.763850">
        <ele>1835.0</ele>
        <time>2013-09-13T12:15:49Z</time>
      </trkpt>
      <trkpt lat="42.032667" lon="0.763950">
        <ele>1835.0</ele>
        <time>2013-09-13T12:15:50Z</time>
      </trkpt>
      <trkpt lat="42.032583" lon="0.764067">
        <ele>1834.0</ele>
        <time>2013-09-13T12:15:51Z</time>
      </trkpt>
      <trkpt lat="42.032500" lon="0.764167">
        <ele>1834.0</ele>
        <time>2013-09-13T12:15:52Z</time>
      </trkpt>
      <trkpt lat="42.032417" lon="0.764267">
        <ele>1835.0</ele>
        <time>2013-09-13T12:15:53Z</time>
      </trkpt>
      <trkpt lat="42.032367" lon="0.764350">
        <ele>1836.0</ele>
        <time>2013-09-13T12:15:54Z</time>
      </trkpt>
      <trkpt lat="42.032300" lon="0.764450">
        <ele>1837.0</ele>
        <time>2013-09-13T12:15:55Z</time>
      </trkpt>
      <trkpt lat="42.032250" lon="0.764550">
        <ele>1837.0</ele>
        <time>2013-09-13T12:15:56Z</time>
      </trkpt>
      <trkpt lat="42.032167" lon="0.764650">
        <ele>1835.0</ele>
        <time>2013-09-13T12:15:57Z</time>
      </trkpt>
      <trkpt lat="42.032083" lon="0.764750">
        <ele>1834.0</ele>
        <time>2013-09-13T12:15:58Z</time>
      </trkpt>
      <trkpt lat="42.032000" lon="0.764850">
        <ele>1834.0</ele>
        <time>2013-09-13T12:15:59Z</time>
      </trkpt>
      <trkpt lat="42.031933" lon="0.764950">
        <ele>1834.0</ele>
        <time>2013-09-13T12:16:00Z</time>
      </trkpt>
      <trkpt lat="42.031883" lon="0.765033">
        <ele>1835.0</ele>
        <time>2013-09-13T12:16:01Z</time>
      </trkpt>
      <trkpt lat="42.031833" lon="0.765117">
        <ele>1834.0</ele>
        <time>2013-09-13T12:16:02Z</time>
      </trkpt>
      <trkpt lat="42.031767" lon="0.765217">
        <ele>1833.0</ele>
        <time>2013-09-13T12:16:03Z</time>
      </trkpt>
      <trkpt lat="42.031683" lon="0.765317">
        <ele>1832.0</ele>
        <time>2013-09-13T12:16:04Z</time>
      </trkpt>
      <trkpt lat="42.031617" lon="0.765433">
        <ele>1831.0</ele>
        <time>2013-09-13T12:16:05Z</time>
      </trkpt>
      <trkpt lat="42.031567" lon="0.765533">
        <ele>1831.0</ele>
        <time>2013-09-13T12:16:06Z</time>
      </trkpt>
      <trkpt lat="42.031517" lon="0.765633">
        <ele>1833.0</ele>
        <time>2013-09-13T12:16:07Z</time>
      </trkpt>
      <trkpt lat="42.031483" lon="0.765733">
        <ele>1834.0</ele>
        <time>2013-09-13T12:16:08Z</time>
      </trkpt>
      <trkpt lat="42.031433" lon="0.765833">
        <ele>1834.0</ele>
        <time>2013-09-13T12:16:09Z</time>
      </trkpt>
      <trkpt lat="42.031383" lon="0.765933">
        <ele>1834.0</ele>
        <time>2013-09-13T12:16:10Z</time>
      </trkpt>
      <trkpt lat="42.031333" lon="0.766033">
        <ele>1833.0</ele>
        <time>2013-09-13T12:16:11Z</time>
      </trkpt>
      <trkpt lat="42.031283" lon="0.766133">
        <ele>1832.0</ele>
        <time>2013-09-13T12:16:12Z</time>
      </trkpt>
      <trkpt lat="42.031250" lon="0.766250">
        <ele>1832.0</ele>
        <time>2013-09-13T12:16:13Z</time>
      </trkpt>
      <trkpt lat="42.031200" lon="0.766367">
        <ele>1833.0</ele>
        <time>2013-09-13T12:16:14Z</time>
      </trkpt>
      <trkpt lat="42.031167" lon="0.766467">
        <ele>1834.0</ele>
        <time>2013-09-13T12:16:15Z</time>
      </trkpt>
      <trkpt lat="42.031117" lon="0.766533">
        <ele>1835.0</ele>
        <time>2013-09-13T12:16:16Z</time>
      </trkpt>
      <trkpt lat="42.031067" lon="0.766567">
        <ele>1836.0</ele>
        <time>2013-09-13T12:16:17Z</time>
      </trkpt>
      <trkpt lat="42.031017" lon="0.766583">
        <ele>1837.0</ele>
        <time>2013-09-13T12:16:18Z</time>
      </trkpt>
      <trkpt lat="42.030967" lon="0.766583">
        <ele>1838.0</ele>
        <time>2013-09-13T12:16:19Z</time>
      </trkpt>
      <trkpt lat="42.030933" lon="0.766550">
        <ele>1839.0</ele>
        <time>2013-09-13T12:16:20Z</time>
      </trkpt>
      <trkpt lat="42.030917" lon="0.766500">
        <ele>1840.0</ele>
        <time>2013-09-13T12:16:21Z</time>
      </trkpt>
      <trkpt lat="42.030917" lon="0.766417">
        <ele>1842.0</ele>
        <time>2013-09-13T12:16:22Z</time>
      </trkpt>
      <trkpt lat="42.030917" lon="0.766350">
        <ele>1843.0</ele>
        <time>2013-09-13T12:16:23Z</time>
      </trkpt>
      <trkpt lat="42.030933" lon="0.766300">
        <ele>1845.0</ele>
        <time>2013-09-13T12:16:24Z</time>
      </trkpt>
      <trkpt lat="42.030950" lon="0.766250">
        <ele>1846.0</ele>
        <time>2013-09-13T12:16:25Z</time>
      </trkpt>
      <trkpt lat="42.030950" lon="0.766183">
        <ele>1847.0</ele>
        <time>2013-09-13T12:16:26Z</time>
      </trkpt>
      <trkpt lat="42.030933" lon="0.766117">
        <ele>1848.0</ele>
        <time>2013-09-13T12:16:27Z</time>
      </trkpt>
      <trkpt lat="42.030917" lon="0.766050">
        <ele>1850.0</ele>
        <time>2013-09-13T12:16:28Z</time>
      </trkpt>
      <trkpt lat="42.030917" lon="0.765983">
        <ele>1853.0</ele>
        <time>2013-09-13T12:16:29Z</time>
      </trkpt>
      <trkpt lat="42.030917" lon="0.765917">
        <ele>1855.0</ele>
        <time>2013-09-13T12:16:30Z</time>
      </trkpt>
      <trkpt lat="42.030917" lon="0.765850">
        <ele>1857.0</ele>
        <time>2013-09-13T12:16:31Z</time>
      </trkpt>
      <trkpt lat="42.030917" lon="0.765767">
        <ele>1857.0</ele>
        <time>2013-09-13T12:16:32Z</time>
      </trkpt>
      <trkpt lat="42.030917" lon="0.765683">
        <ele>1859.0</ele>
        <time>2013-09-13T12:16:33Z</time>
      </trkpt>
      <trkpt lat="42.030900" lon="0.765617">
        <ele>1860.0</ele>
        <time>2013-09-13T12:16:34Z</time>
      </trkpt>
      <trkpt lat="42.030883" lon="0.765567">
        <ele>1862.0</ele>
        <time>2013-09-13T12:16:35Z</time>
      </trkpt>
      <trkpt lat="42.030867" lon="0.765517">
        <ele>1863.0</ele>
        <time>2013-09-13T12:16:36Z</time>
      </trkpt>
      <trkpt lat="42.030850" lon="0.765450">
        <ele>1864.0</ele>
        <time>2013-09-13T12:16:37Z</time>
      </trkpt>
      <trkpt lat="42.030833" lon="0.765283">
        <ele>1866.0</ele>
        <time>2013-09-13T12:16:39Z</time>
      </trkpt>
      <trkpt lat="42.030817" lon="0.765200">
        <ele>1868.0</ele>
        <time>2013-09-13T12:16:40Z</time>
      </trkpt>
      <trkpt lat="42.030817" lon="0.765133">
        <ele>1870.0</ele>
        <time>2013-09-13T12:16:41Z</time>
      </trkpt>
      <trkpt lat="42.030817" lon="0.765050">
        <ele>1872.0</ele>
        <time>2013-09-13T12:16:42Z</time>
      </trkpt>
      <trkpt lat="42.030817" lon="0.764967">
        <ele>1873.0</ele>
        <time>2013-09-13T12:16:43Z</time>
      </trkpt>
      <trkpt lat="42.030800" lon="0.764867">
        <ele>1874.0</ele>
        <time>2013-09-13T12:16:44Z</time>
      </trkpt>
      <trkpt lat="42.030783" lon="0.764767">
        <ele>1874.0</ele>
        <time>2013-09-13T12:16:45Z</time>
      </trkpt>
      <trkpt lat="42.030767" lon="0.764667">
        <ele>1877.0</ele>
        <time>2013-09-13T12:16:46Z</time>
      </trkpt>
      <trkpt lat="42.030750" lon="0.764583">
        <ele>1880.0</ele>
        <time>2013-09-13T12:16:47Z</time>
      </trkpt>
      <trkpt lat="42.030733" lon="0.764500">
        <ele>1883.0</ele>
        <time>2013-09-13T12:16:48Z</time>
      </trkpt>
      <trkpt lat="42.030700" lon="0.764417">
        <ele>1885.0</ele>
        <time>2013-09-13T12:16:49Z</time>
      </trkpt>
      <trkpt lat="42.030617" lon="0.764250">
        <ele>1890.0</ele>
        <time>2013-09-13T12:16:51Z</time>
      </trkpt>
      <trkpt lat="42.030567" lon="0.764167">
        <ele>1892.0</ele>
        <time>2013-09-13T12:16:52Z</time>
      </trkpt>
      <trkpt lat="42.030533" lon="0.764100">
        <ele>1895.0</ele>
        <time>2013-09-13T12:16:53Z</time>
      </trkpt>
      <trkpt lat="42.030517" lon="0.764017">
        <ele>1898.0</ele>
        <time>2013-09-13T12:16:54Z</time>
      </trkpt>
      <trkpt lat="42.030500" lon="0.763950">
        <ele>1900.0</ele>
        <time>2013-09-13T12:16:55Z</time>
      </trkpt>
      <trkpt lat="42.030450" lon="0.763883">
        <ele>1901.0</ele>
        <time>2013-09-13T12:16:56Z</time>
      </trkpt>
      <trkpt lat="42.030383" lon="0.763800">
        <ele>1902.0</ele>
        <time>2013-09-13T12:16:57Z</time>
      </trkpt>
      <trkpt lat="42.030317" lon="0.763750">
        <ele>1903.0</ele>
        <time>2013-09-13T12:16:58Z</time>
      </trkpt>
      <trkpt lat="42.030267" lon="0.763700">
        <ele>1905.0</ele>
        <time>2013-09-13T12:16:59Z</time>
      </trkpt>
      <trkpt lat="42.030217" lon="0.763667">
        <ele>1907.0</ele>
        <time>2013-09-13T12:17:00Z</time>
      </trkpt>
      <trkpt lat="42.030167" lon="0.763617">
        <ele>1909.0</ele>
        <time>2013-09-13T12:17:01Z</time>
      </trkpt>
      <trkpt lat="42.030117" lon="0.763567">
        <ele>1910.0</ele>
        <time>2013-09-13T12:17:02Z</time>
      </trkpt>
      <trkpt lat="42.030067" lon="0.763500">
        <ele>1911.0</ele>
        <time>2013-09-13T12:17:03Z</time>
      </trkpt>
      <trkpt lat="42.030000" lon="0.763417">
        <ele>1912.0</ele>
        <time>2013-09-13T12:17:04Z</time>
      </trkpt>
      <trkpt lat="42.029950" lon="0.763350">
        <ele>1913.0</ele>
        <time>2013-09-13T12:17:05Z</time>
      </trkpt>
      <trkpt lat="42.029917" lon="0.763300">
        <ele>1915.0</ele>
        <time>2013-09-13T12:17:06Z</time>
      </trkpt>
      <trkpt lat="42.029883" lon="0.763250">
        <ele>1916.0</ele>
        <time>2013-09-13T12:17:07Z</time>
      </trkpt>
      <trkpt lat="42.029833" lon="0.763200">
        <ele>1917.0</ele>
        <time>2013-09-13T12:17:08Z</time>
      </trkpt>
      <trkpt lat="42.029783" lon="0.763133">
        <ele>1917.0</ele>
        <time>2013-09-13T12:17:09Z</time>
      </trkpt>
      <trkpt lat="42.029700" lon="0.763083">
        <ele>1915.0</ele>
        <time>2013-09-13T12:17:10Z</time>
      </trkpt>
      <trkpt lat="42.029617" lon="0.763033">
        <ele>1914.0</ele>
        <time>2013-09-13T12:17:11Z</time>
      </trkpt>
      <trkpt lat="42.029533" lon="0.762983">
        <ele>1912.0</ele>
        <time>2013-09-13T12:17:12Z</time>
      </trkpt>
      <trkpt lat="42.029467" lon="0.762933">
        <ele>1911.0</ele>
        <time>2013-09-13T12:17:13Z</time>
      </trkpt>
      <trkpt lat="42.029383" lon="0.762867">
        <ele>1909.0</ele>
        <time>2013-09-13T12:17:14Z</time>
      </trkpt>
      <trkpt lat="42.029317" lon="0.762800">
        <ele>1907.0</ele>
        <time>2013-09-13T12:17:15Z</time>
      </trkpt>
      <trkpt lat="42.029233" lon="0.762717">
        <ele>1905.0</ele>
        <time>2013-09-13T12:17:16Z</time>
      </trkpt>
      <trkpt lat="42.029167" lon="0.762650">
        <ele>1904.0</ele>
        <time>2013-09-13T12:17:17Z</time>
      </trkpt>
      <trkpt lat="42.029100" lon="0.762567">
        <ele>1903.0</ele>
        <time>2013-09-13T12:17:18Z</time>
      </trkpt>
      <trkpt lat="42.029017" lon="0.762500">
        <ele>1901.0</ele>
        <time>2013-09-13T12:17:19Z</time>
      </trkpt>
      <trkpt lat="42.028933" lon="0.762417">
        <ele>1900.0</ele>
        <time>2013-09-13T12:17:20Z</time>
      </trkpt>
      <trkpt lat="42.028833" lon="0.762367">
        <ele>1899.0</ele>
        <time>2013-09-13T12:17:21Z</time>
      </trkpt>
      <trkpt lat="42.028750" lon="0.762317">
        <ele>1897.0</ele>
        <time>2013-09-13T12:17:22Z</time>
      </trkpt>
      <trkpt lat="42.028667" lon="0.762267">
        <ele>1896.0</ele>
        <time>2013-09-13T12:17:23Z</time>
      </trkpt>
      <trkpt lat="42.028583" lon="0.762233">
        <ele>1895.0</ele>
        <time>2013-09-13T12:17:24Z</time>
      </trkpt>
      <trkpt lat="42.028500" lon="0.762200">
        <ele>1893.0</ele>
        <time>2013-09-13T12:17:25Z</time>
      </trkpt>
      <trkpt lat="42.028383" lon="0.762167">
        <ele>1891.0</ele>
        <time>2013-09-13T12:17:26Z</time>
      </trkpt>
      <trkpt lat="42.028267" lon="0.762133">
        <ele>1889.0</ele>
        <time>2013-09-13T12:17:27Z</time>
      </trkpt>
      <trkpt lat="42.028167" lon="0.762100">
        <ele>1888.0</ele>
        <time>2013-09-13T12:17:28Z</time>
      </trkpt>
      <trkpt lat="42.028067" lon="0.762083">
        <ele>1888.0</ele>
        <time>2013-09-13T12:17:29Z</time>
      </trkpt>
      <trkpt lat="42.027983" lon="0.762067">
        <ele>1888.0</ele>
        <time>2013-09-13T12:17:30Z</time>
      </trkpt>
      <trkpt lat="42.027883" lon="0.762033">
        <ele>1889.0</ele>
        <time>2013-09-13T12:17:31Z</time>
      </trkpt>
      <trkpt lat="42.027783" lon="0.762017">
        <ele>1889.0</ele>
        <time>2013-09-13T12:17:32Z</time>
      </trkpt>
      <trkpt lat="42.027700" lon="0.762033">
        <ele>1889.0</ele>
        <time>2013-09-13T12:17:33Z</time>
      </trkpt>
      <trkpt lat="42.027600" lon="0.762050">
        <ele>1889.0</ele>
        <time>2013-09-13T12:17:34Z</time>
      </trkpt>
      <trkpt lat="42.027500" lon="0.762067">
        <ele>1888.0</ele>
        <time>2013-09-13T12:17:35Z</time>
      </trkpt>
      <trkpt lat="42.027383" lon="0.762083">
        <ele>1889.0</ele>
        <time>2013-09-13T12:17:36Z</time>
      </trkpt>
      <trkpt lat="42.027283" lon="0.762083">
        <ele>1890.0</ele>
        <time>2013-09-13T12:17:37Z</time>
      </trkpt>
      <trkpt lat="42.027183" lon="0.762083">
        <ele>1891.0</ele>
        <time>2013-09-13T12:17:38Z</time>
      </trkpt>
      <trkpt lat="42.027100" lon="0.762083">
        <ele>1893.0</ele>
        <time>2013-09-13T12:17:39Z</time>
      </trkpt>
      <trkpt lat="42.027017" lon="0.762100">
        <ele>1895.0</ele>
        <time>2013-09-13T12:17:40Z</time>
      </trkpt>
      <trkpt lat="42.026933" lon="0.762117">
        <ele>1897.0</ele>
        <time>2013-09-13T12:17:41Z</time>
      </trkpt>
      <trkpt lat="42.026850" lon="0.762133">
        <ele>1900.0</ele>
        <time>2013-09-13T12:17:42Z</time>
      </trkpt>
      <trkpt lat="42.026750" lon="0.762150">
        <ele>1901.0</ele>
        <time>2013-09-13T12:17:43Z</time>
      </trkpt>
      <trkpt lat="42.026650" lon="0.762183">
        <ele>1903.0</ele>
        <time>2013-09-13T12:17:44Z</time>
      </trkpt>
      <trkpt lat="42.026533" lon="0.762200">
        <ele>1905.0</ele>
        <time>2013-09-13T12:17:45Z</time>
      </trkpt>
      <trkpt lat="42.026417" lon="0.762217">
        <ele>1908.0</ele>
        <time>2013-09-13T12:17:46Z</time>
      </trkpt>
      <trkpt lat="42.026317" lon="0.762217">
        <ele>1911.0</ele>
        <time>2013-09-13T12:17:47Z</time>
      </trkpt>
      <trkpt lat="42.026233" lon="0.762217">
        <ele>1915.0</ele>
        <time>2013-09-13T12:17:48Z</time>
      </trkpt>
      <trkpt lat="42.026150" lon="0.762217">
        <ele>1918.0</ele>
        <time>2013-09-13T12:17:49Z</time>
      </trkpt>
      <trkpt lat="42.026067" lon="0.762200">
        <ele>1920.0</ele>
        <time>2013-09-13T12:17:50Z</time>
      </trkpt>
      <trkpt lat="42.025950" lon="0.762217">
        <ele>1921.0</ele>
        <time>2013-09-13T12:17:51Z</time>
      </trkpt>
      <trkpt lat="42.025850" lon="0.762233">
        <ele>1921.0</ele>
        <time>2013-09-13T12:17:52Z</time>
      </trkpt>
      <trkpt lat="42.025733" lon="0.762267">
        <ele>1922.0</ele>
        <time>2013-09-13T12:17:53Z</time>
      </trkpt>
      <trkpt lat="42.025533" lon="0.762333">
        <ele>1922.0</ele>
        <time>2013-09-13T12:17:55Z</time>
      </trkpt>
      <trkpt lat="42.025450" lon="0.762367">
        <ele>1922.0</ele>
        <time>2013-09-13T12:17:56Z</time>
      </trkpt>
      <trkpt lat="42.025333" lon="0.762400">
        <ele>1922.0</ele>
        <time>2013-09-13T12:17:57Z</time>
      </trkpt>
      <trkpt lat="42.025233" lon="0.762467">
        <ele>1922.0</ele>
        <time>2013-09-13T12:17:58Z</time>
      </trkpt>
      <trkpt lat="42.025133" lon="0.762550">
        <ele>1922.0</ele>
        <time>2013-09-13T12:17:59Z</time>
      </trkpt>
      <trkpt lat="42.025033" lon="0.762633">
        <ele>1922.0</ele>
        <time>2013-09-13T12:18:00Z</time>
      </trkpt>
      <trkpt lat="42.024933" lon="0.762700">
        <ele>1922.0</ele>
        <time>2013-09-13T12:18:01Z</time>
      </trkpt>
      <trkpt lat="42.024850" lon="0.762750">
        <ele>1923.0</ele>
        <time>2013-09-13T12:18:02Z</time>
      </trkpt>
      <trkpt lat="42.024750" lon="0.762817">
        <ele>1923.0</ele>
        <time>2013-09-13T12:18:03Z</time>
      </trkpt>
      <trkpt lat="42.024650" lon="0.762900">
        <ele>1923.0</ele>
        <time>2013-09-13T12:18:04Z</time>
      </trkpt>
      <trkpt lat="42.024533" lon="0.762983">
        <ele>1923.0</ele>
        <time>2013-09-13T12:18:05Z</time>
      </trkpt>
      <trkpt lat="42.024433" lon="0.763050">
        <ele>1923.0</ele>
        <time>2013-09-13T12:18:06Z</time>
      </trkpt>
      <trkpt lat="42.024333" lon="0.763133">
        <ele>1924.0</ele>
        <time>2013-09-13T12:18:07Z</time>
      </trkpt>
      <trkpt lat="42.024250" lon="0.763183">
        <ele>1926.0</ele>
        <time>2013-09-13T12:18:08Z</time>
      </trkpt>
      <trkpt lat="42.024167" lon="0.763250">
        <ele>1927.0</ele>
        <time>2013-09-13T12:18:09Z</time>
      </trkpt>
      <trkpt lat="42.024067" lon="0.763317">
        <ele>1929.0</ele>
        <time>2013-09-13T12:18:10Z</time>
      </trkpt>
      <trkpt lat="42.023967" lon="0.763400">
        <ele>1930.0</ele>
        <time>2013-09-13T12:18:11Z</time>
      </trkpt>
      <trkpt lat="42.023850" lon="0.763483">
        <ele>1930.0</ele>
        <time>2013-09-13T12:18:12Z</time>
      </trkpt>
      <trkpt lat="42.023750" lon="0.763567">
        <ele>1931.0</ele>
        <time>2013-09-13T12:18:13Z</time>
      </trkpt>
      <trkpt lat="42.023633" lon="0.763617">
        <ele>1933.0</ele>
        <time>2013-09-13T12:18:14Z</time>
      </trkpt>
      <trkpt lat="42.023533" lon="0.763650">
        <ele>1936.0</ele>
        <time>2013-09-13T12:18:15Z</time>
      </trkpt>
      <trkpt lat="42.023450" lon="0.763700">
        <ele>1938.0</ele>
        <time>2013-09-13T12:18:16Z</time>
      </trkpt>
      <trkpt lat="42.023367" lon="0.763767">
        <ele>1940.0</ele>
        <time>2013-09-13T12:18:17Z</time>
      </trkpt>
      <trkpt lat="42.023283" lon="0.763850">
        <ele>1941.0</ele>
        <time>2013-09-13T12:18:18Z</time>
      </trkpt>
      <trkpt lat="42.023200" lon="0.763917">
        <ele>1943.0</ele>
        <time>2013-09-13T12:18:19Z</time>
      </trkpt>
      <trkpt lat="42.023117" lon="0.764000">
        <ele>1944.0</ele>
        <time>2013-09-13T12:18:20Z</time>
      </trkpt>
      <trkpt lat="42.023033" lon="0.764067">
        <ele>1946.0</ele>
        <time>2013-09-13T12:18:21Z</time>
      </trkpt>
      <trkpt lat="42.022950" lon="0.764117">
        <ele>1947.0</ele>
        <time>2013-09-13T12:18:22Z</time>
      </trkpt>
      <trkpt lat="42.022867" lon="0.764167">
        <ele>1947.0</ele>
        <time>2013-09-13T12:18:23Z</time>
      </trkpt>
      <trkpt lat="42.022783" lon="0.764233">
        <ele>1948.0</ele>
        <time>2013-09-13T12:18:24Z</time>
      </trkpt>
      <trkpt lat="42.022683" lon="0.764300">
        <ele>1948.0</ele>
        <time>2013-09-13T12:18:25Z</time>
      </trkpt>
      <trkpt lat="42.022600" lon="0.764367">
        <ele>1948.0</ele>
        <time>2013-09-13T12:18:26Z</time>
      </trkpt>
      <trkpt lat="42.022517" lon="0.764417">
        <ele>1949.0</ele>
        <time>2013-09-13T12:18:27Z</time>
      </trkpt>
      <trkpt lat="42.022417" lon="0.764483">
        <ele>1949.0</ele>
        <time>2013-09-13T12:18:28Z</time>
      </trkpt>
      <trkpt lat="42.022333" lon="0.764533">
        <ele>1950.0</ele>
        <time>2013-09-13T12:18:29Z</time>
      </trkpt>
      <trkpt lat="42.022250" lon="0.764583">
        <ele>1950.0</ele>
        <time>2013-09-13T12:18:30Z</time>
      </trkpt>
      <trkpt lat="42.022150" lon="0.764617">
        <ele>1951.0</ele>
        <time>2013-09-13T12:18:31Z</time>
      </trkpt>
      <trkpt lat="42.022050" lon="0.764650">
        <ele>1951.0</ele>
        <time>2013-09-13T12:18:32Z</time>
      </trkpt>
      <trkpt lat="42.021967" lon="0.764667">
        <ele>1952.0</ele>
        <time>2013-09-13T12:18:33Z</time>
      </trkpt>
      <trkpt lat="42.021867" lon="0.764700">
        <ele>1952.0</ele>
        <time>2013-09-13T12:18:34Z</time>
      </trkpt>
      <trkpt lat="42.021767" lon="0.764717">
        <ele>1953.0</ele>
        <time>2013-09-13T12:18:35Z</time>
      </trkpt>
      <trkpt lat="42.021667" lon="0.764750">
        <ele>1953.0</ele>
        <time>2013-09-13T12:18:36Z</time>
      </trkpt>
      <trkpt lat="42.021567" lon="0.764783">
        <ele>1953.0</ele>
        <time>2013-09-13T12:18:37Z</time>
      </trkpt>
      <trkpt lat="42.021467" lon="0.764817">
        <ele>1953.0</ele>
        <time>2013-09-13T12:18:38Z</time>
      </trkpt>
      <trkpt lat="42.021367" lon="0.764867">
        <ele>1953.0</ele>
        <time>2013-09-13T12:18:39Z</time>
      </trkpt>
      <trkpt lat="42.021283" lon="0.764917">
        <ele>1953.0</ele>
        <time>2013-09-13T12:18:40Z</time>
      </trkpt>
      <trkpt lat="42.021183" lon="0.764967">
        <ele>1954.0</ele>
        <time>2013-09-13T12:18:41Z</time>
      </trkpt>
      <trkpt lat="42.021083" lon="0.765017">
        <ele>1955.0</ele>
        <time>2013-09-13T12:18:42Z</time>
      </trkpt>
      <trkpt lat="42.021000" lon="0.765067">
        <ele>1955.0</ele>
        <time>2013-09-13T12:18:43Z</time>
      </trkpt>
      <trkpt lat="42.020900" lon="0.765117">
        <ele>1955.0</ele>
        <time>2013-09-13T12:18:44Z</time>
      </trkpt>
      <trkpt lat="42.020817" lon="0.765150">
        <ele>1955.0</ele>
        <time>2013-09-13T12:18:45Z</time>
      </trkpt>
      <trkpt lat="42.020717" lon="0.765183">
        <ele>1955.0</ele>
        <time>2013-09-13T12:18:46Z</time>
      </trkpt>
      <trkpt lat="42.020617" lon="0.765250">
        <ele>1954.0</ele>
        <time>2013-09-13T12:18:47Z</time>
      </trkpt>
      <trkpt lat="42.020517" lon="0.765300">
        <ele>1953.0</ele>
        <time>2013-09-13T12:18:48Z</time>
      </trkpt>
      <trkpt lat="42.020417" lon="0.765350">
        <ele>1951.0</ele>
        <time>2013-09-13T12:18:49Z</time>
      </trkpt>
      <trkpt lat="42.020317" lon="0.765383">
        <ele>1950.0</ele>
        <time>2013-09-13T12:18:50Z</time>
      </trkpt>
      <trkpt lat="42.020217" lon="0.765417">
        <ele>1950.0</ele>
        <time>2013-09-13T12:18:51Z</time>
      </trkpt>
      <trkpt lat="42.020133" lon="0.765467">
        <ele>1949.0</ele>
        <time>2013-09-13T12:18:52Z</time>
      </trkpt>
      <trkpt lat="42.020033" lon="0.765533">
        <ele>1949.0</ele>
        <time>2013-09-13T12:18:53Z</time>
      </trkpt>
      <trkpt lat="42.019950" lon="0.765600">
        <ele>1947.0</ele>
        <time>2013-09-13T12:18:54Z</time>
      </trkpt>
      <trkpt lat="42.019850" lon="0.765667">
        <ele>1946.0</ele>
        <time>2013-09-13T12:18:55Z</time>
      </trkpt>
      <trkpt lat="42.019750" lon="0.765750">
        <ele>1945.0</ele>
        <time>2013-09-13T12:18:56Z</time>
      </trkpt>
      <trkpt lat="42.019650" lon="0.765817">
        <ele>1944.0</ele>
        <time>2013-09-13T12:18:57Z</time>
      </trkpt>
      <trkpt lat="42.019550" lon="0.765883">
        <ele>1943.0</ele>
        <time>2013-09-13T12:18:58Z</time>
      </trkpt>
      <trkpt lat="42.019467" lon="0.765933">
        <ele>1941.0</ele>
        <time>2013-09-13T12:18:59Z</time>
      </trkpt>
      <trkpt lat="42.019367" lon="0.765983">
        <ele>1940.0</ele>
        <time>2013-09-13T12:19:00Z</time>
      </trkpt>
      <trkpt lat="42.019283" lon="0.766033">
        <ele>1938.0</ele>
        <time>2013-09-13T12:19:01Z</time>
      </trkpt>
      <trkpt lat="42.019183" lon="0.766100">
        <ele>1936.0</ele>
        <time>2013-09-13T12:19:02Z</time>
      </trkpt>
      <trkpt lat="42.019083" lon="0.766167">
        <ele>1934.0</ele>
        <time>2013-09-13T12:19:03Z</time>
      </trkpt>
      <trkpt lat="42.019000" lon="0.766250">
        <ele>1932.0</ele>
        <time>2013-09-13T12:19:04Z</time>
      </trkpt>
      <trkpt lat="42.018917" lon="0.766317">
        <ele>1930.0</ele>
        <time>2013-09-13T12:19:05Z</time>
      </trkpt>
      <trkpt lat="42.018833" lon="0.766367">
        <ele>1928.0</ele>
        <time>2013-09-13T12:19:06Z</time>
      </trkpt>
      <trkpt lat="42.018750" lon="0.766450">
        <ele>1924.0</ele>
        <time>2013-09-13T12:19:07Z</time>
      </trkpt>
      <trkpt lat="42.018667" lon="0.766533">
        <ele>1921.0</ele>
        <time>2013-09-13T12:19:08Z</time>
      </trkpt>
      <trkpt lat="42.018567" lon="0.766650">
        <ele>1918.0</ele>
        <time>2013-09-13T12:19:09Z</time>
      </trkpt>
      <trkpt lat="42.018467" lon="0.766750">
        <ele>1917.0</ele>
        <time>2013-09-13T12:19:10Z</time>
      </trkpt>
      <trkpt lat="42.018400" lon="0.766850">
        <ele>1917.0</ele>
        <time>2013-09-13T12:19:11Z</time>
      </trkpt>
      <trkpt lat="42.018333" lon="0.766917">
        <ele>1919.0</ele>
        <time>2013-09-13T12:19:12Z</time>
      </trkpt>
      <trkpt lat="42.018267" lon="0.766983">
        <ele>1920.0</ele>
        <time>2013-09-13T12:19:13Z</time>
      </trkpt>
      <trkpt lat="42.018200" lon="0.767067">
        <ele>1919.0</ele>
        <time>2013-09-13T12:19:14Z</time>
      </trkpt>
      <trkpt lat="42.018117" lon="0.767167">
        <ele>1918.0</ele>
        <time>2013-09-13T12:19:15Z</time>
      </trkpt>
      <trkpt lat="42.018017" lon="0.767267">
        <ele>1916.0</ele>
        <time>2013-09-13T12:19:16Z</time>
      </trkpt>
      <trkpt lat="42.017933" lon="0.767367">
        <ele>1915.0</ele>
        <time>2013-09-13T12:19:17Z</time>
      </trkpt>
      <trkpt lat="42.017850" lon="0.767433">
        <ele>1916.0</ele>
        <time>2013-09-13T12:19:18Z</time>
      </trkpt>
      <trkpt lat="42.017783" lon="0.767517">
        <ele>1918.0</ele>
        <time>2013-09-13T12:19:19Z</time>
      </trkpt>
      <trkpt lat="42.017717" lon="0.767583">
        <ele>1918.0</ele>
        <time>2013-09-13T12:19:20Z</time>
      </trkpt>
      <trkpt lat="42.017633" lon="0.767667">
        <ele>1918.0</ele>
        <time>2013-09-13T12:19:21Z</time>
      </trkpt>
      <trkpt lat="42.017550" lon="0.767783">
        <ele>1916.0</ele>
        <time>2013-09-13T12:19:22Z</time>
      </trkpt>
      <trkpt lat="42.017450" lon="0.767883">
        <ele>1915.0</ele>
        <time>2013-09-13T12:19:23Z</time>
      </trkpt>
      <trkpt lat="42.017383" lon="0.768000">
        <ele>1915.0</ele>
        <time>2013-09-13T12:19:24Z</time>
      </trkpt>
      <trkpt lat="42.017333" lon="0.768100">
        <ele>1916.0</ele>
        <time>2013-09-13T12:19:25Z</time>
      </trkpt>
      <trkpt lat="42.017267" lon="0.768183">
        <ele>1916.0</ele>
        <time>2013-09-13T12:19:26Z</time>
      </trkpt>
      <trkpt lat="42.017217" lon="0.768283">
        <ele>1916.0</ele>
        <time>2013-09-13T12:19:27Z</time>
      </trkpt>
      <trkpt lat="42.017133" lon="0.768383">
        <ele>1915.0</ele>
        <time>2013-09-13T12:19:28Z</time>
      </trkpt>
      <trkpt lat="42.017067" lon="0.768500">
        <ele>1913.0</ele>
        <time>2013-09-13T12:19:29Z</time>
      </trkpt>
      <trkpt lat="42.016983" lon="0.768617">
        <ele>1912.0</ele>
        <time>2013-09-13T12:19:30Z</time>
      </trkpt>
      <trkpt lat="42.016917" lon="0.768717">
        <ele>1911.0</ele>
        <time>2013-09-13T12:19:31Z</time>
      </trkpt>
      <trkpt lat="42.016850" lon="0.768817">
        <ele>1912.0</ele>
        <time>2013-09-13T12:19:32Z</time>
      </trkpt>
      <trkpt lat="42.016783" lon="0.768917">
        <ele>1912.0</ele>
        <time>2013-09-13T12:19:33Z</time>
      </trkpt>
      <trkpt lat="42.016733" lon="0.769033">
        <ele>1911.0</ele>
        <time>2013-09-13T12:19:34Z</time>
      </trkpt>
      <trkpt lat="42.016667" lon="0.769150">
        <ele>1911.0</ele>
        <time>2013-09-13T12:19:35Z</time>
      </trkpt>
      <trkpt lat="42.016617" lon="0.769267">
        <ele>1910.0</ele>
        <time>2013-09-13T12:19:36Z</time>
      </trkpt>
      <trkpt lat="42.016550" lon="0.769383">
        <ele>1910.0</ele>
        <time>2013-09-13T12:19:37Z</time>
      </trkpt>
      <trkpt lat="42.016500" lon="0.769500">
        <ele>1909.0</ele>
        <time>2013-09-13T12:19:38Z</time>
      </trkpt>
      <trkpt lat="42.016433" lon="0.769583">
        <ele>1908.0</ele>
        <time>2013-09-13T12:19:39Z</time>
      </trkpt>
      <trkpt lat="42.016383" lon="0.769683">
        <ele>1908.0</ele>
        <time>2013-09-13T12:19:40Z</time>
      </trkpt>
      <trkpt lat="42.016333" lon="0.769800">
        <ele>1908.0</ele>
        <time>2013-09-13T12:19:41Z</time>
      </trkpt>
      <trkpt lat="42.016300" lon="0.769917">
        <ele>1908.0</ele>
        <time>2013-09-13T12:19:42Z</time>
      </trkpt>
      <trkpt lat="42.016233" lon="0.770017">
        <ele>1907.0</ele>
        <time>2013-09-13T12:19:43Z</time>
      </trkpt>
      <trkpt lat="42.016183" lon="0.770117">
        <ele>1906.0</ele>
        <time>2013-09-13T12:19:44Z</time>
      </trkpt>
      <trkpt lat="42.016100" lon="0.770183">
        <ele>1906.0</ele>
        <time>2013-09-13T12:19:45Z</time>
      </trkpt>
      <trkpt lat="42.016033" lon="0.770250">
        <ele>1905.0</ele>
        <time>2013-09-13T12:19:46Z</time>
      </trkpt>
      <trkpt lat="42.015950" lon="0.770317">
        <ele>1904.0</ele>
        <time>2013-09-13T12:19:47Z</time>
      </trkpt>
      <trkpt lat="42.015883" lon="0.770400">
        <ele>1902.0</ele>
        <time>2013-09-13T12:19:48Z</time>
      </trkpt>
      <trkpt lat="42.015800" lon="0.770483">
        <ele>1901.0</ele>
        <time>2013-09-13T12:19:49Z</time>
      </trkpt>
      <trkpt lat="42.015733" lon="0.770567">
        <ele>1899.0</ele>
        <time>2013-09-13T12:19:50Z</time>
      </trkpt>
      <trkpt lat="42.015633" lon="0.770650">
        <ele>1897.0</ele>
        <time>2013-09-13T12:19:51Z</time>
      </trkpt>
      <trkpt lat="42.015550" lon="0.770733">
        <ele>1895.0</ele>
        <time>2013-09-13T12:19:52Z</time>
      </trkpt>
      <trkpt lat="42.015450" lon="0.770800">
        <ele>1895.0</ele>
        <time>2013-09-13T12:19:53Z</time>
      </trkpt>
      <trkpt lat="42.015367" lon="0.770867">
        <ele>1894.0</ele>
        <time>2013-09-13T12:19:54Z</time>
      </trkpt>
      <trkpt lat="42.015283" lon="0.770950">
        <ele>1893.0</ele>
        <time>2013-09-13T12:19:55Z</time>
      </trkpt>
      <trkpt lat="42.015200" lon="0.771033">
        <ele>1893.0</ele>
        <time>2013-09-13T12:19:56Z</time>
      </trkpt>
      <trkpt lat="42.015133" lon="0.771133">
        <ele>1892.0</ele>
        <time>2013-09-13T12:19:57Z</time>
      </trkpt>
      <trkpt lat="42.015050" lon="0.771233">
        <ele>1891.0</ele>
        <time>2013-09-13T12:19:58Z</time>
      </trkpt>
      <trkpt lat="42.014983" lon="0.771317">
        <ele>1892.0</ele>
        <time>2013-09-13T12:19:59Z</time>
      </trkpt>
      <trkpt lat="42.014933" lon="0.771400">
        <ele>1893.0</ele>
        <time>2013-09-13T12:20:00Z</time>
      </trkpt>
      <trkpt lat="42.014883" lon="0.771500">
        <ele>1893.0</ele>
        <time>2013-09-13T12:20:01Z</time>
      </trkpt>
      <trkpt lat="42.014850" lon="0.771617">
        <ele>1892.0</ele>
        <time>2013-09-13T12:20:02Z</time>
      </trkpt>
      <trkpt lat="42.014800" lon="0.771717">
        <ele>1891.0</ele>
        <time>2013-09-13T12:20:03Z</time>
      </trkpt>
      <trkpt lat="42.014767" lon="0.771833">
        <ele>1890.0</ele>
        <time>2013-09-13T12:20:04Z</time>
      </trkpt>
      <trkpt lat="42.014733" lon="0.771933">
        <ele>1889.0</ele>
        <time>2013-09-13T12:20:05Z</time>
      </trkpt>
      <trkpt lat="42.014700" lon="0.772050">
        <ele>1888.0</ele>
        <time>2013-09-13T12:20:06Z</time>
      </trkpt>
      <trkpt lat="42.014700" lon="0.772167">
        <ele>1887.0</ele>
        <time>2013-09-13T12:20:07Z</time>
      </trkpt>
      <trkpt lat="42.014683" lon="0.772267">
        <ele>1885.0</ele>
        <time>2013-09-13T12:20:08Z</time>
      </trkpt>
      <trkpt lat="42.014683" lon="0.772383">
        <ele>1883.0</ele>
        <time>2013-09-13T12:20:09Z</time>
      </trkpt>
      <trkpt lat="42.014683" lon="0.772517">
        <ele>1881.0</ele>
        <time>2013-09-13T12:20:10Z</time>
      </trkpt>
      <trkpt lat="42.014683" lon="0.772650">
        <ele>1879.0</ele>
        <time>2013-09-13T12:20:11Z</time>
      </trkpt>
      <trkpt lat="42.014667" lon="0.772767">
        <ele>1878.0</ele>
        <time>2013-09-13T12:20:12Z</time>
      </trkpt>
      <trkpt lat="42.014650" lon="0.772867">
        <ele>1878.0</ele>
        <time>2013-09-13T12:20:13Z</time>
      </trkpt>
      <trkpt lat="42.014633" lon="0.772967">
        <ele>1878.0</ele>
        <time>2013-09-13T12:20:14Z</time>
      </trkpt>
      <trkpt lat="42.014617" lon="0.773083">
        <ele>1876.0</ele>
        <time>2013-09-13T12:20:15Z</time>
      </trkpt>
      <trkpt lat="42.014567" lon="0.773333">
        <ele>1874.0</ele>
        <time>2013-09-13T12:20:17Z</time>
      </trkpt>
      <trkpt lat="42.014533" lon="0.773450">
        <ele>1872.0</ele>
        <time>2013-09-13T12:20:18Z</time>
      </trkpt>
      <trkpt lat="42.014500" lon="0.773583">
        <ele>1871.0</ele>
        <time>2013-09-13T12:20:19Z</time>
      </trkpt>
      <trkpt lat="42.014467" lon="0.773717">
        <ele>1870.0</ele>
        <time>2013-09-13T12:20:20Z</time>
      </trkpt>
      <trkpt lat="42.014450" lon="0.773833">
        <ele>1869.0</ele>
        <time>2013-09-13T12:20:21Z</time>
      </trkpt>
      <trkpt lat="42.014417" lon="0.773950">
        <ele>1868.0</ele>
        <time>2013-09-13T12:20:22Z</time>
      </trkpt>
      <trkpt lat="42.014400" lon="0.774067">
        <ele>1867.0</ele>
        <time>2013-09-13T12:20:23Z</time>
      </trkpt>
      <trkpt lat="42.014367" lon="0.774183">
        <ele>1865.0</ele>
        <time>2013-09-13T12:20:24Z</time>
      </trkpt>
      <trkpt lat="42.014350" lon="0.774300">
        <ele>1863.0</ele>
        <time>2013-09-13T12:20:25Z</time>
      </trkpt>
      <trkpt lat="42.014333" lon="0.774433">
        <ele>1861.0</ele>
        <time>2013-09-13T12:20:26Z</time>
      </trkpt>
      <trkpt lat="42.014317" lon="0.774567">
        <ele>1858.0</ele>
        <time>2013-09-13T12:20:27Z</time>
      </trkpt>
      <trkpt lat="42.014283" lon="0.774917">
        <ele>1855.0</ele>
        <time>2013-09-13T12:20:30Z</time>
      </trkpt>
      <trkpt lat="42.014250" lon="0.775183">
        <ele>1851.0</ele>
        <time>2013-09-13T12:20:32Z</time>
      </trkpt>
      <trkpt lat="42.014250" lon="0.775317">
        <ele>1849.0</ele>
        <time>2013-09-13T12:20:33Z</time>
      </trkpt>
      <trkpt lat="42.014250" lon="0.775450">
        <ele>1847.0</ele>
        <time>2013-09-13T12:20:34Z</time>
      </trkpt>
      <trkpt lat="42.014233" lon="0.775567">
        <ele>1846.0</ele>
        <time>2013-09-13T12:20:35Z</time>
      </trkpt>
      <trkpt lat="42.014233" lon="0.775683">
        <ele>1845.0</ele>
        <time>2013-09-13T12:20:36Z</time>
      </trkpt>
      <trkpt lat="42.014233" lon="0.775800">
        <ele>1844.0</ele>
        <time>2013-09-13T12:20:37Z</time>
      </trkpt>
      <trkpt lat="42.014233" lon="0.775900">
        <ele>1842.0</ele>
        <time>2013-09-13T12:20:38Z</time>
      </trkpt>
      <trkpt lat="42.014217" lon="0.776017">
        <ele>1840.0</ele>
        <time>2013-09-13T12:20:39Z</time>
      </trkpt>
      <trkpt lat="42.014233" lon="0.776150">
        <ele>1838.0</ele>
        <time>2013-09-13T12:20:40Z</time>
      </trkpt>
      <trkpt lat="42.014233" lon="0.776283">
        <ele>1836.0</ele>
        <time>2013-09-13T12:20:41Z</time>
      </trkpt>
      <trkpt lat="42.014233" lon="0.776400">
        <ele>1834.0</ele>
        <time>2013-09-13T12:20:42Z</time>
      </trkpt>
      <trkpt lat="42.014250" lon="0.776517">
        <ele>1834.0</ele>
        <time>2013-09-13T12:20:43Z</time>
      </trkpt>
      <trkpt lat="42.014250" lon="0.776633">
        <ele>1833.0</ele>
        <time>2013-09-13T12:20:44Z</time>
      </trkpt>
      <trkpt lat="42.014233" lon="0.776867">
        <ele>1830.0</ele>
        <time>2013-09-13T12:20:46Z</time>
      </trkpt>
      <trkpt lat="42.014233" lon="0.777000">
        <ele>1828.0</ele>
        <time>2013-09-13T12:20:47Z</time>
      </trkpt>
      <trkpt lat="42.014233" lon="0.777350">
        <ele>1826.0</ele>
        <time>2013-09-13T12:20:50Z</time>
      </trkpt>
      <trkpt lat="42.014233" lon="0.777467">
        <ele>1825.0</ele>
        <time>2013-09-13T12:20:51Z</time>
      </trkpt>
      <trkpt lat="42.014217" lon="0.777583">
        <ele>1824.0</ele>
        <time>2013-09-13T12:20:52Z</time>
      </trkpt>
      <trkpt lat="42.014217" lon="0.777700">
        <ele>1823.0</ele>
        <time>2013-09-13T12:20:53Z</time>
      </trkpt>
      <trkpt lat="42.014200" lon="0.777817">
        <ele>1821.0</ele>
        <time>2013-09-13T12:20:54Z</time>
      </trkpt>
      <trkpt lat="42.014183" lon="0.777950">
        <ele>1820.0</ele>
        <time>2013-09-13T12:20:55Z</time>
      </trkpt>
      <trkpt lat="42.014167" lon="0.778083">
        <ele>1819.0</ele>
        <time>2013-09-13T12:20:56Z</time>
      </trkpt>
      <trkpt lat="42.014150" lon="0.778200">
        <ele>1819.0</ele>
        <time>2013-09-13T12:20:57Z</time>
      </trkpt>
      <trkpt lat="42.014133" lon="0.778317">
        <ele>1818.0</ele>
        <time>2013-09-13T12:20:58Z</time>
      </trkpt>
      <trkpt lat="42.014133" lon="0.778433">
        <ele>1817.0</ele>
        <time>2013-09-13T12:20:59Z</time>
      </trkpt>
      <trkpt lat="42.014117" lon="0.778567">
        <ele>1815.0</ele>
        <time>2013-09-13T12:21:00Z</time>
      </trkpt>
      <trkpt lat="42.014117" lon="0.778683">
        <ele>1814.0</ele>
        <time>2013-09-13T12:21:01Z</time>
      </trkpt>
      <trkpt lat="42.014117" lon="0.778800">
        <ele>1813.0</ele>
        <time>2013-09-13T12:21:02Z</time>
      </trkpt>
      <trkpt lat="42.014133" lon="0.778933">
        <ele>1812.0</ele>
        <time>2013-09-13T12:21:03Z</time>
      </trkpt>
      <trkpt lat="42.014150" lon="0.779050">
        <ele>1811.0</ele>
        <time>2013-09-13T12:21:04Z</time>
      </trkpt>
      <trkpt lat="42.014133" lon="0.779150">
        <ele>1811.0</ele>
        <time>2013-09-13T12:21:05Z</time>
      </trkpt>
      <trkpt lat="42.014117" lon="0.779267">
        <ele>1810.0</ele>
        <time>2013-09-13T12:21:06Z</time>
      </trkpt>
      <trkpt lat="42.014100" lon="0.779400">
        <ele>1808.0</ele>
        <time>2013-09-13T12:21:07Z</time>
      </trkpt>
      <trkpt lat="42.014100" lon="0.779533">
        <ele>1806.0</ele>
        <time>2013-09-13T12:21:08Z</time>
      </trkpt>
      <trkpt lat="42.014083" lon="0.779667">
        <ele>1804.0</ele>
        <time>2013-09-13T12:21:09Z</time>
      </trkpt>
      <trkpt lat="42.014083" lon="0.779817">
        <ele>1803.0</ele>
        <time>2013-09-13T12:21:10Z</time>
      </trkpt>
      <trkpt lat="42.014067" lon="0.779950">
        <ele>1801.0</ele>
        <time>2013-09-13T12:21:11Z</time>
      </trkpt>
      <trkpt lat="42.014067" lon="0.780083">
        <ele>1800.0</ele>
        <time>2013-09-13T12:21:12Z</time>
      </trkpt>
      <trkpt lat="42.014050" lon="0.780217">
        <ele>1800.0</ele>
        <time>2013-09-13T12:21:13Z</time>
      </trkpt>
      <trkpt lat="42.014050" lon="0.780333">
        <ele>1800.0</ele>
        <time>2013-09-13T12:21:14Z</time>
      </trkpt>
      <trkpt lat="42.014050" lon="0.780450">
        <ele>1800.0</ele>
        <time>2013-09-13T12:21:15Z</time>
      </trkpt>
      <trkpt lat="42.014033" lon="0.780583">
        <ele>1800.0</ele>
        <time>2013-09-13T12:21:16Z</time>
      </trkpt>
      <trkpt lat="42.014033" lon="0.780700">
        <ele>1801.0</ele>
        <time>2013-09-13T12:21:17Z</time>
      </trkpt>
      <trkpt lat="42.014017" lon="0.780800">
        <ele>1802.0</ele>
        <time>2013-09-13T12:21:18Z</time>
      </trkpt>
      <trkpt lat="42.014017" lon="0.780917">
        <ele>1802.0</ele>
        <time>2013-09-13T12:21:19Z</time>
      </trkpt>
      <trkpt lat="42.014017" lon="0.781017">
        <ele>1802.0</ele>
        <time>2013-09-13T12:21:20Z</time>
      </trkpt>
      <trkpt lat="42.014000" lon="0.781150">
        <ele>1802.0</ele>
        <time>2013-09-13T12:21:21Z</time>
      </trkpt>
      <trkpt lat="42.014000" lon="0.781267">
        <ele>1802.0</ele>
        <time>2013-09-13T12:21:22Z</time>
      </trkpt>
      <trkpt lat="42.013983" lon="0.781367">
        <ele>1802.0</ele>
        <time>2013-09-13T12:21:23Z</time>
      </trkpt>
      <trkpt lat="42.013967" lon="0.781467">
        <ele>1802.0</ele>
        <time>2013-09-13T12:21:24Z</time>
      </trkpt>
      <trkpt lat="42.013967" lon="0.781583">
        <ele>1802.0</ele>
        <time>2013-09-13T12:21:25Z</time>
      </trkpt>
      <trkpt lat="42.013950" lon="0.781683">
        <ele>1802.0</ele>
        <time>2013-09-13T12:21:26Z</time>
      </trkpt>
      <trkpt lat="42.013933" lon="0.781800">
        <ele>1801.0</ele>
        <time>2013-09-13T12:21:27Z</time>
      </trkpt>
      <trkpt lat="42.013917" lon="0.781917">
        <ele>1801.0</ele>
        <time>2013-09-13T12:21:28Z</time>
      </trkpt>
      <trkpt lat="42.013883" lon="0.782033">
        <ele>1800.0</ele>
        <time>2013-09-13T12:21:29Z</time>
      </trkpt>
      <trkpt lat="42.013867" lon="0.782150">
        <ele>1800.0</ele>
        <time>2013-09-13T12:21:30Z</time>
      </trkpt>
      <trkpt lat="42.013850" lon="0.782250">
        <ele>1799.0</ele>
        <time>2013-09-13T12:21:31Z</time>
      </trkpt>
      <trkpt lat="42.013833" lon="0.782367">
        <ele>1798.0</ele>
        <time>2013-09-13T12:21:32Z</time>
      </trkpt>
      <trkpt lat="42.013800" lon="0.782500">
        <ele>1797.0</ele>
        <time>2013-09-13T12:21:33Z</time>
      </trkpt>
      <trkpt lat="42.013783" lon="0.782617">
        <ele>1796.0</ele>
        <time>2013-09-13T12:21:34Z</time>
      </trkpt>
      <trkpt lat="42.013750" lon="0.782750">
        <ele>1795.0</ele>
        <time>2013-09-13T12:21:35Z</time>
      </trkpt>
      <trkpt lat="42.013733" lon="0.782883">
        <ele>1794.0</ele>
        <time>2013-09-13T12:21:36Z</time>
      </trkpt>
      <trkpt lat="42.013700" lon="0.783000">
        <ele>1794.0</ele>
        <time>2013-09-13T12:21:37Z</time>
      </trkpt>
      <trkpt lat="42.013683" lon="0.783117">
        <ele>1793.0</ele>
        <time>2013-09-13T12:21:38Z</time>
      </trkpt>
      <trkpt lat="42.013667" lon="0.783217">
        <ele>1792.0</ele>
        <time>2013-09-13T12:21:39Z</time>
      </trkpt>
      <trkpt lat="42.013633" lon="0.783333">
        <ele>1791.0</ele>
        <time>2013-09-13T12:21:40Z</time>
      </trkpt>
      <trkpt lat="42.013617" lon="0.783450">
        <ele>1790.0</ele>
        <time>2013-09-13T12:21:41Z</time>
      </trkpt>
      <trkpt lat="42.013600" lon="0.783567">
        <ele>1789.0</ele>
        <time>2013-09-13T12:21:42Z</time>
      </trkpt>
      <trkpt lat="42.013567" lon="0.783667">
        <ele>1788.0</ele>
        <time>2013-09-13T12:21:43Z</time>
      </trkpt>
      <trkpt lat="42.013550" lon="0.783733">
        <ele>1788.0</ele>
        <time>2013-09-13T12:21:44Z</time>
      </trkpt>
      <trkpt lat="42.013517" lon="0.783817">
        <ele>1787.0</ele>
        <time>2013-09-13T12:21:45Z</time>
      </trkpt>
      <trkpt lat="42.013500" lon="0.783917">
        <ele>1786.0</ele>
        <time>2013-09-13T12:21:46Z</time>
      </trkpt>
      <trkpt lat="42.013483" lon="0.784033">
        <ele>1783.0</ele>
        <time>2013-09-13T12:21:47Z</time>
      </trkpt>
      <trkpt lat="42.013450" lon="0.784150">
        <ele>1781.0</ele>
        <time>2013-09-13T12:21:48Z</time>
      </trkpt>
      <trkpt lat="42.013433" lon="0.784267">
        <ele>1780.0</ele>
        <time>2013-09-13T12:21:49Z</time>
      </trkpt>
      <trkpt lat="42.013417" lon="0.784383">
        <ele>1778.0</ele>
        <time>2013-09-13T12:21:50Z</time>
      </trkpt>
      <trkpt lat="42.013400" lon="0.784500">
        <ele>1777.0</ele>
        <time>2013-09-13T12:21:51Z</time>
      </trkpt>
      <trkpt lat="42.013367" lon="0.784617">
        <ele>1775.0</ele>
        <time>2013-09-13T12:21:52Z</time>
      </trkpt>
      <trkpt lat="42.013350" lon="0.784750">
        <ele>1774.0</ele>
        <time>2013-09-13T12:21:53Z</time>
      </trkpt>
      <trkpt lat="42.013333" lon="0.784867">
        <ele>1772.0</ele>
        <time>2013-09-13T12:21:54Z</time>
      </trkpt>
      <trkpt lat="42.013300" lon="0.785000">
        <ele>1771.0</ele>
        <time>2013-09-13T12:21:55Z</time>
      </trkpt>
      <trkpt lat="42.013283" lon="0.785100">
        <ele>1770.0</ele>
        <time>2013-09-13T12:21:56Z</time>
      </trkpt>
      <trkpt lat="42.013267" lon="0.785200">
        <ele>1769.0</ele>
        <time>2013-09-13T12:21:57Z</time>
      </trkpt>
      <trkpt lat="42.013250" lon="0.785300">
        <ele>1768.0</ele>
        <time>2013-09-13T12:21:58Z</time>
      </trkpt>
      <trkpt lat="42.013233" lon="0.785417">
        <ele>1766.0</ele>
        <time>2013-09-13T12:21:59Z</time>
      </trkpt>
      <trkpt lat="42.013233" lon="0.785533">
        <ele>1765.0</ele>
        <time>2013-09-13T12:22:00Z</time>
      </trkpt>
      <trkpt lat="42.013233" lon="0.785667">
        <ele>1763.0</ele>
        <time>2013-09-13T12:22:01Z</time>
      </trkpt>
      <trkpt lat="42.013217" lon="0.785783">
        <ele>1762.0</ele>
        <time>2013-09-13T12:22:02Z</time>
      </trkpt>
      <trkpt lat="42.013200" lon="0.785900">
        <ele>1762.0</ele>
        <time>2013-09-13T12:22:03Z</time>
      </trkpt>
      <trkpt lat="42.013183" lon="0.786017">
        <ele>1762.0</ele>
        <time>2013-09-13T12:22:04Z</time>
      </trkpt>
      <trkpt lat="42.013167" lon="0.786117">
        <ele>1762.0</ele>
        <time>2013-09-13T12:22:05Z</time>
      </trkpt>
      <trkpt lat="42.013100" lon="0.786467">
        <ele>1759.0</ele>
        <time>2013-09-13T12:22:08Z</time>
      </trkpt>
      <trkpt lat="42.013083" lon="0.786583">
        <ele>1759.0</ele>
        <time>2013-09-13T12:22:09Z</time>
      </trkpt>
      <trkpt lat="42.013067" lon="0.786700">
        <ele>1758.0</ele>
        <time>2013-09-13T12:22:10Z</time>
      </trkpt>
      <trkpt lat="42.013050" lon="0.786817">
        <ele>1756.0</ele>
        <time>2013-09-13T12:22:11Z</time>
      </trkpt>
      <trkpt lat="42.013033" lon="0.786933">
        <ele>1754.0</ele>
        <time>2013-09-13T12:22:12Z</time>
      </trkpt>
      <trkpt lat="42.013000" lon="0.787067">
        <ele>1753.0</ele>
        <time>2013-09-13T12:22:13Z</time>
      </trkpt>
      <trkpt lat="42.012967" lon="0.787183">
        <ele>1752.0</ele>
        <time>2013-09-13T12:22:14Z</time>
      </trkpt>
      <trkpt lat="42.012933" lon="0.787317">
        <ele>1750.0</ele>
        <time>2013-09-13T12:22:15Z</time>
      </trkpt>
      <trkpt lat="42.012900" lon="0.787433">
        <ele>1749.0</ele>
        <time>2013-09-13T12:22:16Z</time>
      </trkpt>
      <trkpt lat="42.012867" lon="0.787550">
        <ele>1748.0</ele>
        <time>2013-09-13T12:22:17Z</time>
      </trkpt>
      <trkpt lat="42.012850" lon="0.787650">
        <ele>1748.0</ele>
        <time>2013-09-13T12:22:18Z</time>
      </trkpt>
      <trkpt lat="42.012817" lon="0.787750">
        <ele>1747.0</ele>
        <time>2013-09-13T12:22:19Z</time>
      </trkpt>
      <trkpt lat="42.012800" lon="0.787850">
        <ele>1747.0</ele>
        <time>2013-09-13T12:22:20Z</time>
      </trkpt>
      <trkpt lat="42.012783" lon="0.787967">
        <ele>1746.0</ele>
        <time>2013-09-13T12:22:21Z</time>
      </trkpt>
      <trkpt lat="42.012767" lon="0.788067">
        <ele>1745.0</ele>
        <time>2013-09-13T12:22:22Z</time>
      </trkpt>
      <trkpt lat="42.012750" lon="0.788200">
        <ele>1743.0</ele>
        <time>2013-09-13T12:22:23Z</time>
      </trkpt>
      <trkpt lat="42.012750" lon="0.788317">
        <ele>1742.0</ele>
        <time>2013-09-13T12:22:24Z</time>
      </trkpt>
      <trkpt lat="42.012750" lon="0.788433">
        <ele>1742.0</ele>
        <time>2013-09-13T12:22:25Z</time>
      </trkpt>
      <trkpt lat="42.012733" lon="0.788567">
        <ele>1741.0</ele>
        <time>2013-09-13T12:22:26Z</time>
      </trkpt>
      <trkpt lat="42.012717" lon="0.788667">
        <ele>1740.0</ele>
        <time>2013-09-13T12:22:27Z</time>
      </trkpt>
      <trkpt lat="42.012683" lon="0.788783">
        <ele>1740.0</ele>
        <time>2013-09-13T12:22:28Z</time>
      </trkpt>
      <trkpt lat="42.012667" lon="0.788883">
        <ele>1738.0</ele>
        <time>2013-09-13T12:22:29Z</time>
      </trkpt>
      <trkpt lat="42.012633" lon="0.789000">
        <ele>1737.0</ele>
        <time>2013-09-13T12:22:30Z</time>
      </trkpt>
      <trkpt lat="42.012600" lon="0.789100">
        <ele>1735.0</ele>
        <time>2013-09-13T12:22:31Z</time>
      </trkpt>
      <trkpt lat="42.012567" lon="0.789333">
        <ele>1730.0</ele>
        <time>2013-09-13T12:22:33Z</time>
      </trkpt>
      <trkpt lat="42.012567" lon="0.789450">
        <ele>1729.0</ele>
        <time>2013-09-13T12:22:34Z</time>
      </trkpt>
      <trkpt lat="42.012550" lon="0.789550">
        <ele>1728.0</ele>
        <time>2013-09-13T12:22:35Z</time>
      </trkpt>
      <trkpt lat="42.012533" lon="0.789667">
        <ele>1727.0</ele>
        <time>2013-09-13T12:22:36Z</time>
      </trkpt>
      <trkpt lat="42.012500" lon="0.789767">
        <ele>1726.0</ele>
        <time>2013-09-13T12:22:37Z</time>
      </trkpt>
      <trkpt lat="42.012483" lon="0.789883">
        <ele>1724.0</ele>
        <time>2013-09-13T12:22:38Z</time>
      </trkpt>
      <trkpt lat="42.012483" lon="0.790000">
        <ele>1722.0</ele>
        <time>2013-09-13T12:22:39Z</time>
      </trkpt>
      <trkpt lat="42.012467" lon="0.790133">
        <ele>1721.0</ele>
        <time>2013-09-13T12:22:40Z</time>
      </trkpt>
      <trkpt lat="42.012467" lon="0.790233">
        <ele>1720.0</ele>
        <time>2013-09-13T12:22:41Z</time>
      </trkpt>
      <trkpt lat="42.012467" lon="0.790333">
        <ele>1721.0</ele>
        <time>2013-09-13T12:22:42Z</time>
      </trkpt>
      <trkpt lat="42.012467" lon="0.790433">
        <ele>1722.0</ele>
        <time>2013-09-13T12:22:43Z</time>
      </trkpt>
      <trkpt lat="42.012467" lon="0.790550">
        <ele>1721.0</ele>
        <time>2013-09-13T12:22:44Z</time>
      </trkpt>
      <trkpt lat="42.012467" lon="0.790667">
        <ele>1720.0</ele>
        <time>2013-09-13T12:22:45Z</time>
      </trkpt>
      <trkpt lat="42.012467" lon="0.790783">
        <ele>1719.0</ele>
        <time>2013-09-13T12:22:46Z</time>
      </trkpt>
      <trkpt lat="42.012467" lon="0.790900">
        <ele>1717.0</ele>
        <time>2013-09-13T12:22:47Z</time>
      </trkpt>
      <trkpt lat="42.012450" lon="0.791000">
        <ele>1715.0</ele>
        <time>2013-09-13T12:22:48Z</time>
      </trkpt>
      <trkpt lat="42.012433" lon="0.791100">
        <ele>1713.0</ele>
        <time>2013-09-13T12:22:49Z</time>
      </trkpt>
      <trkpt lat="42.012417" lon="0.791217">
        <ele>1711.0</ele>
        <time>2013-09-13T12:22:50Z</time>
      </trkpt>
      <trkpt lat="42.012400" lon="0.791350">
        <ele>1707.0</ele>
        <time>2013-09-13T12:22:51Z</time>
      </trkpt>
      <trkpt lat="42.012400" lon="0.791467">
        <ele>1704.0</ele>
        <time>2013-09-13T12:22:52Z</time>
      </trkpt>
      <trkpt lat="42.012383" lon="0.791600">
        <ele>1701.0</ele>
        <time>2013-09-13T12:22:53Z</time>
      </trkpt>
      <trkpt lat="42.012367" lon="0.791717">
        <ele>1699.0</ele>
        <time>2013-09-13T12:22:54Z</time>
      </trkpt>
      <trkpt lat="42.012333" lon="0.791817">
        <ele>1697.0</ele>
        <time>2013-09-13T12:22:55Z</time>
      </trkpt>
      <trkpt lat="42.012317" lon="0.791933">
        <ele>1695.0</ele>
        <time>2013-09-13T12:22:56Z</time>
      </trkpt>
      <trkpt lat="42.012300" lon="0.792050">
        <ele>1693.0</ele>
        <time>2013-09-13T12:22:57Z</time>
      </trkpt>
      <trkpt lat="42.012283" lon="0.792183">
        <ele>1692.0</ele>
        <time>2013-09-13T12:22:58Z</time>
      </trkpt>
      <trkpt lat="42.012267" lon="0.792300">
        <ele>1691.0</ele>
        <time>2013-09-13T12:22:59Z</time>
      </trkpt>
      <trkpt lat="42.012267" lon="0.792417">
        <ele>1690.0</ele>
        <time>2013-09-13T12:23:00Z</time>
      </trkpt>
      <trkpt lat="42.012217" lon="0.792783">
        <ele>1686.0</ele>
        <time>2013-09-13T12:23:03Z</time>
      </trkpt>
      <trkpt lat="42.012200" lon="0.792917">
        <ele>1684.0</ele>
        <time>2013-09-13T12:23:04Z</time>
      </trkpt>
      <trkpt lat="42.012200" lon="0.793033">
        <ele>1683.0</ele>
        <time>2013-09-13T12:23:05Z</time>
      </trkpt>
      <trkpt lat="42.012183" lon="0.793167">
        <ele>1682.0</ele>
        <time>2013-09-13T12:23:06Z</time>
      </trkpt>
      <trkpt lat="42.012183" lon="0.793300">
        <ele>1681.0</ele>
        <time>2013-09-13T12:23:07Z</time>
      </trkpt>
      <trkpt lat="42.012167" lon="0.793433">
        <ele>1680.0</ele>
        <time>2013-09-13T12:23:08Z</time>
      </trkpt>
      <trkpt lat="42.012167" lon="0.793583">
        <ele>1680.0</ele>
        <time>2013-09-13T12:23:09Z</time>
      </trkpt>
      <trkpt lat="42.012150" lon="0.793717">
        <ele>1679.0</ele>
        <time>2013-09-13T12:23:10Z</time>
      </trkpt>
      <trkpt lat="42.012150" lon="0.793850">
        <ele>1679.0</ele>
        <time>2013-09-13T12:23:11Z</time>
      </trkpt>
      <trkpt lat="42.012150" lon="0.793983">
        <ele>1679.0</ele>
        <time>2013-09-13T12:23:12Z</time>
      </trkpt>
      <trkpt lat="42.012150" lon="0.794117">
        <ele>1678.0</ele>
        <time>2013-09-13T12:23:13Z</time>
      </trkpt>
      <trkpt lat="42.012150" lon="0.794267">
        <ele>1678.0</ele>
        <time>2013-09-13T12:23:14Z</time>
      </trkpt>
      <trkpt lat="42.012167" lon="0.794417">
        <ele>1678.0</ele>
        <time>2013-09-13T12:23:15Z</time>
      </trkpt>
      <trkpt lat="42.012183" lon="0.794550">
        <ele>1679.0</ele>
        <time>2013-09-13T12:23:16Z</time>
      </trkpt>
      <trkpt lat="42.012183" lon="0.794683">
        <ele>1680.0</ele>
        <time>2013-09-13T12:23:17Z</time>
      </trkpt>
      <trkpt lat="42.012183" lon="0.794817">
        <ele>1682.0</ele>
        <time>2013-09-13T12:23:18Z</time>
      </trkpt>
      <trkpt lat="42.012200" lon="0.794967">
        <ele>1683.0</ele>
        <time>2013-09-13T12:23:19Z</time>
      </trkpt>
      <trkpt lat="42.012200" lon="0.795100">
        <ele>1684.0</ele>
        <time>2013-09-13T12:23:20Z</time>
      </trkpt>
      <trkpt lat="42.012217" lon="0.795250">
        <ele>1685.0</ele>
        <time>2013-09-13T12:23:21Z</time>
      </trkpt>
      <trkpt lat="42.012217" lon="0.795400">
        <ele>1686.0</ele>
        <time>2013-09-13T12:23:22Z</time>
      </trkpt>
      <trkpt lat="42.012217" lon="0.795550">
        <ele>1687.0</ele>
        <time>2013-09-13T12:23:23Z</time>
      </trkpt>
      <trkpt lat="42.012233" lon="0.795700">
        <ele>1688.0</ele>
        <time>2013-09-13T12:23:24Z</time>
      </trkpt>
      <trkpt lat="42.012233" lon="0.795850">
        <ele>1690.0</ele>
        <time>2013-09-13T12:23:25Z</time>
      </trkpt>
      <trkpt lat="42.012233" lon="0.796017">
        <ele>1690.0</ele>
        <time>2013-09-13T12:23:26Z</time>
      </trkpt>
      <trkpt lat="42.012233" lon="0.796167">
        <ele>1691.0</ele>
        <time>2013-09-13T12:23:27Z</time>
      </trkpt>
      <trkpt lat="42.012233" lon="0.796300">
        <ele>1693.0</ele>
        <time>2013-09-13T12:23:28Z</time>
      </trkpt>
      <trkpt lat="42.012250" lon="0.796450">
        <ele>1695.0</ele>
        <time>2013-09-13T12:23:29Z</time>
      </trkpt>
      <trkpt lat="42.012250" lon="0.796583">
        <ele>1696.0</ele>
        <time>2013-09-13T12:23:30Z</time>
      </trkpt>
      <trkpt lat="42.012250" lon="0.796733">
        <ele>1698.0</ele>
        <time>2013-09-13T12:23:31Z</time>
      </trkpt>
      <trkpt lat="42.012250" lon="0.796900">
        <ele>1699.0</ele>
        <time>2013-09-13T12:23:32Z</time>
      </trkpt>
      <trkpt lat="42.012250" lon="0.797050">
        <ele>1701.0</ele>
        <time>2013-09-13T12:23:33Z</time>
      </trkpt>
      <trkpt lat="42.012267" lon="0.797217">
        <ele>1703.0</ele>
        <time>2013-09-13T12:23:34Z</time>
      </trkpt>
      <trkpt lat="42.012283" lon="0.797383">
        <ele>1704.0</ele>
        <time>2013-09-13T12:23:35Z</time>
      </trkpt>
      <trkpt lat="42.012300" lon="0.797533">
        <ele>1705.0</ele>
        <time>2013-09-13T12:23:36Z</time>
      </trkpt>
      <trkpt lat="42.012333" lon="0.797683">
        <ele>1707.0</ele>
        <time>2013-09-13T12:23:37Z</time>
      </trkpt>
      <trkpt lat="42.012333" lon="0.797817">
        <ele>1708.0</ele>
        <time>2013-09-13T12:23:38Z</time>
      </trkpt>
      <trkpt lat="42.012350" lon="0.797950">
        <ele>1710.0</ele>
        <time>2013-09-13T12:23:39Z</time>
      </trkpt>
      <trkpt lat="42.012367" lon="0.798100">
        <ele>1711.0</ele>
        <time>2013-09-13T12:23:40Z</time>
      </trkpt>
      <trkpt lat="42.012383" lon="0.798233">
        <ele>1713.0</ele>
        <time>2013-09-13T12:23:41Z</time>
      </trkpt>
      <trkpt lat="42.012400" lon="0.798383">
        <ele>1714.0</ele>
        <time>2013-09-13T12:23:42Z</time>
      </trkpt>
      <trkpt lat="42.012417" lon="0.798517">
        <ele>1716.0</ele>
        <time>2013-09-13T12:23:43Z</time>
      </trkpt>
      <trkpt lat="42.012433" lon="0.798650">
        <ele>1717.0</ele>
        <time>2013-09-13T12:23:44Z</time>
      </trkpt>
      <trkpt lat="42.012450" lon="0.798800">
        <ele>1718.0</ele>
        <time>2013-09-13T12:23:45Z</time>
      </trkpt>
      <trkpt lat="42.012450" lon="0.798950">
        <ele>1719.0</ele>
        <time>2013-09-13T12:23:46Z</time>
      </trkpt>
      <trkpt lat="42.012467" lon="0.799100">
        <ele>1719.0</ele>
        <time>2013-09-13T12:23:47Z</time>
      </trkpt>
      <trkpt lat="42.012483" lon="0.799250">
        <ele>1720.0</ele>
        <time>2013-09-13T12:23:48Z</time>
      </trkpt>
      <trkpt lat="42.012500" lon="0.799383">
        <ele>1721.0</ele>
        <time>2013-09-13T12:23:49Z</time>
      </trkpt>
      <trkpt lat="42.012533" lon="0.799533">
        <ele>1722.0</ele>
        <time>2013-09-13T12:23:50Z</time>
      </trkpt>
      <trkpt lat="42.012550" lon="0.799667">
        <ele>1723.0</ele>
        <time>2013-09-13T12:23:51Z</time>
      </trkpt>
      <trkpt lat="42.012567" lon="0.799817">
        <ele>1724.0</ele>
        <time>2013-09-13T12:23:52Z</time>
      </trkpt>
      <trkpt lat="42.012583" lon="0.799967">
        <ele>1725.0</ele>
        <time>2013-09-13T12:23:53Z</time>
      </trkpt>
      <trkpt lat="42.012617" lon="0.800117">
        <ele>1726.0</ele>
        <time>2013-09-13T12:23:54Z</time>
      </trkpt>
      <trkpt lat="42.012633" lon="0.800267">
        <ele>1726.0</ele>
        <time>2013-09-13T12:23:55Z</time>
      </trkpt>
      <trkpt lat="42.012650" lon="0.800417">
        <ele>1727.0</ele>
        <time>2013-09-13T12:23:56Z</time>
      </trkpt>
      <trkpt lat="42.012667" lon="0.800567">
        <ele>1728.0</ele>
        <time>2013-09-13T12:23:57Z</time>
      </trkpt>
      <trkpt lat="42.012683" lon="0.800717">
        <ele>1728.0</ele>
        <time>2013-09-13T12:23:58Z</time>
      </trkpt>
      <trkpt lat="42.012700" lon="0.800883">
        <ele>1728.0</ele>
        <time>2013-09-13T12:23:59Z</time>
      </trkpt>
      <trkpt lat="42.012700" lon="0.801067">
        <ele>1727.0</ele>
        <time>2013-09-13T12:24:00Z</time>
      </trkpt>
      <trkpt lat="42.012717" lon="0.801233">
        <ele>1727.0</ele>
        <time>2013-09-13T12:24:01Z</time>
      </trkpt>
      <trkpt lat="42.012717" lon="0.801400">
        <ele>1728.0</ele>
        <time>2013-09-13T12:24:02Z</time>
      </trkpt>
      <trkpt lat="42.012733" lon="0.801550">
        <ele>1729.0</ele>
        <time>2013-09-13T12:24:03Z</time>
      </trkpt>
      <trkpt lat="42.012733" lon="0.801700">
        <ele>1730.0</ele>
        <time>2013-09-13T12:24:04Z</time>
      </trkpt>
      <trkpt lat="42.012733" lon="0.801850">
        <ele>1730.0</ele>
        <time>2013-09-13T12:24:05Z</time>
      </trkpt>
      <trkpt lat="42.012750" lon="0.802017">
        <ele>1729.0</ele>
        <time>2013-09-13T12:24:06Z</time>
      </trkpt>
      <trkpt lat="42.012750" lon="0.802183">
        <ele>1728.0</ele>
        <time>2013-09-13T12:24:07Z</time>
      </trkpt>
      <trkpt lat="42.012767" lon="0.802367">
        <ele>1727.0</ele>
        <time>2013-09-13T12:24:08Z</time>
      </trkpt>
      <trkpt lat="42.012767" lon="0.802550">
        <ele>1726.0</ele>
        <time>2013-09-13T12:24:09Z</time>
      </trkpt>
      <trkpt lat="42.012767" lon="0.802717">
        <ele>1726.0</ele>
        <time>2013-09-13T12:24:10Z</time>
      </trkpt>
      <trkpt lat="42.012767" lon="0.802883">
        <ele>1726.0</ele>
        <time>2013-09-13T12:24:11Z</time>
      </trkpt>
      <trkpt lat="42.012767" lon="0.803050">
        <ele>1726.0</ele>
        <time>2013-09-13T12:24:12Z</time>
      </trkpt>
      <trkpt lat="42.012767" lon="0.803217">
        <ele>1725.0</ele>
        <time>2013-09-13T12:24:13Z</time>
      </trkpt>
      <trkpt lat="42.012767" lon="0.803400">
        <ele>1725.0</ele>
        <time>2013-09-13T12:24:14Z</time>
      </trkpt>
      <trkpt lat="42.012767" lon="0.803567">
        <ele>1725.0</ele>
        <time>2013-09-13T12:24:15Z</time>
      </trkpt>
      <trkpt lat="42.012767" lon="0.803750">
        <ele>1724.0</ele>
        <time>2013-09-13T12:24:16Z</time>
      </trkpt>
      <trkpt lat="42.012767" lon="0.803917">
        <ele>1724.0</ele>
        <time>2013-09-13T12:24:17Z</time>
      </trkpt>
      <trkpt lat="42.012767" lon="0.804083">
        <ele>1723.0</ele>
        <time>2013-09-13T12:24:18Z</time>
      </trkpt>
      <trkpt lat="42.012767" lon="0.804267">
        <ele>1722.0</ele>
        <time>2013-09-13T12:24:19Z</time>
      </trkpt>
      <trkpt lat="42.012767" lon="0.804450">
        <ele>1721.0</ele>
        <time>2013-09-13T12:24:20Z</time>
      </trkpt>
      <trkpt lat="42.012750" lon="0.804650">
        <ele>1719.0</ele>
        <time>2013-09-13T12:24:21Z</time>
      </trkpt>
      <trkpt lat="42.012750" lon="0.804833">
        <ele>1718.0</ele>
        <time>2013-09-13T12:24:22Z</time>
      </trkpt>
      <trkpt lat="42.012750" lon="0.805000">
        <ele>1717.0</ele>
        <time>2013-09-13T12:24:23Z</time>
      </trkpt>
      <trkpt lat="42.012750" lon="0.805167">
        <ele>1717.0</ele>
        <time>2013-09-13T12:24:24Z</time>
      </trkpt>
      <trkpt lat="42.012750" lon="0.805317">
        <ele>1716.0</ele>
        <time>2013-09-13T12:24:25Z</time>
      </trkpt>
      <trkpt lat="42.012750" lon="0.805483">
        <ele>1716.0</ele>
        <time>2013-09-13T12:24:26Z</time>
      </trkpt>
      <trkpt lat="42.012733" lon="0.805667">
        <ele>1715.0</ele>
        <time>2013-09-13T12:24:27Z</time>
      </trkpt>
      <trkpt lat="42.012733" lon="0.805833">
        <ele>1715.0</ele>
        <time>2013-09-13T12:24:28Z</time>
      </trkpt>
      <trkpt lat="42.012717" lon="0.806000">
        <ele>1715.0</ele>
        <time>2013-09-13T12:24:29Z</time>
      </trkpt>
      <trkpt lat="42.012717" lon="0.806167">
        <ele>1714.0</ele>
        <time>2013-09-13T12:24:30Z</time>
      </trkpt>
      <trkpt lat="42.012700" lon="0.806333">
        <ele>1714.0</ele>
        <time>2013-09-13T12:24:31Z</time>
      </trkpt>
      <trkpt lat="42.012700" lon="0.806500">
        <ele>1712.0</ele>
        <time>2013-09-13T12:24:32Z</time>
      </trkpt>
      <trkpt lat="42.012683" lon="0.806683">
        <ele>1711.0</ele>
        <time>2013-09-13T12:24:33Z</time>
      </trkpt>
      <trkpt lat="42.012667" lon="0.806850">
        <ele>1711.0</ele>
        <time>2013-09-13T12:24:34Z</time>
      </trkpt>
      <trkpt lat="42.012650" lon="0.807017">
        <ele>1710.0</ele>
        <time>2013-09-13T12:24:35Z</time>
      </trkpt>
      <trkpt lat="42.012633" lon="0.807167">
        <ele>1711.0</ele>
        <time>2013-09-13T12:24:36Z</time>
      </trkpt>
      <trkpt lat="42.012600" lon="0.807683">
        <ele>1710.0</ele>
        <time>2013-09-13T12:24:39Z</time>
      </trkpt>
      <trkpt lat="42.012583" lon="0.807867">
        <ele>1710.0</ele>
        <time>2013-09-13T12:24:40Z</time>
      </trkpt>
      <trkpt lat="42.012583" lon="0.808033">
        <ele>1710.0</ele>
        <time>2013-09-13T12:24:41Z</time>
      </trkpt>
      <trkpt lat="42.012567" lon="0.808217">
        <ele>1711.0</ele>
        <time>2013-09-13T12:24:42Z</time>
      </trkpt>
      <trkpt lat="42.012567" lon="0.808400">
        <ele>1711.0</ele>
        <time>2013-09-13T12:24:43Z</time>
      </trkpt>
      <trkpt lat="42.012583" lon="0.808567">
        <ele>1710.0</ele>
        <time>2013-09-13T12:24:44Z</time>
      </trkpt>
      <trkpt lat="42.012600" lon="0.808717">
        <ele>1711.0</ele>
        <time>2013-09-13T12:24:45Z</time>
      </trkpt>
      <trkpt lat="42.012617" lon="0.808867">
        <ele>1710.0</ele>
        <time>2013-09-13T12:24:46Z</time>
      </trkpt>
      <trkpt lat="42.012617" lon="0.809017">
        <ele>1710.0</ele>
        <time>2013-09-13T12:24:47Z</time>
      </trkpt>
      <trkpt lat="42.012617" lon="0.809167">
        <ele>1708.0</ele>
        <time>2013-09-13T12:24:48Z</time>
      </trkpt>
      <trkpt lat="42.012617" lon="0.809317">
        <ele>1707.0</ele>
        <time>2013-09-13T12:24:49Z</time>
      </trkpt>
      <trkpt lat="42.012600" lon="0.809483">
        <ele>1705.0</ele>
        <time>2013-09-13T12:24:50Z</time>
      </trkpt>
      <trkpt lat="42.012583" lon="0.809650">
        <ele>1703.0</ele>
        <time>2013-09-13T12:24:51Z</time>
      </trkpt>
      <trkpt lat="42.012583" lon="0.809800">
        <ele>1701.0</ele>
        <time>2013-09-13T12:24:52Z</time>
      </trkpt>
      <trkpt lat="42.012583" lon="0.809950">
        <ele>1700.0</ele>
        <time>2013-09-13T12:24:53Z</time>
      </trkpt>
      <trkpt lat="42.012583" lon="0.810117">
        <ele>1698.0</ele>
        <time>2013-09-13T12:24:54Z</time>
      </trkpt>
      <trkpt lat="42.012600" lon="0.810267">
        <ele>1696.0</ele>
        <time>2013-09-13T12:24:55Z</time>
      </trkpt>
      <trkpt lat="42.012600" lon="0.810433">
        <ele>1695.0</ele>
        <time>2013-09-13T12:24:56Z</time>
      </trkpt>
      <trkpt lat="42.012600" lon="0.810583">
        <ele>1695.0</ele>
        <time>2013-09-13T12:24:57Z</time>
      </trkpt>
      <trkpt lat="42.012583" lon="0.810733">
        <ele>1695.0</ele>
        <time>2013-09-13T12:24:58Z</time>
      </trkpt>
      <trkpt lat="42.012583" lon="0.810883">
        <ele>1695.0</ele>
        <time>2013-09-13T12:24:59Z</time>
      </trkpt>
      <trkpt lat="42.012600" lon="0.811050">
        <ele>1695.0</ele>
        <time>2013-09-13T12:25:00Z</time>
      </trkpt>
      <trkpt lat="42.012600" lon="0.811217">
        <ele>1695.0</ele>
        <time>2013-09-13T12:25:01Z</time>
      </trkpt>
      <trkpt lat="42.012583" lon="0.811367">
        <ele>1694.0</ele>
        <time>2013-09-13T12:25:02Z</time>
      </trkpt>
      <trkpt lat="42.012583" lon="0.811533">
        <ele>1694.0</ele>
        <time>2013-09-13T12:25:03Z</time>
      </trkpt>
      <trkpt lat="42.012567" lon="0.811683">
        <ele>1694.0</ele>
        <time>2013-09-13T12:25:04Z</time>
      </trkpt>
      <trkpt lat="42.012550" lon="0.811867">
        <ele>1694.0</ele>
        <time>2013-09-13T12:25:05Z</time>
      </trkpt>
      <trkpt lat="42.012533" lon="0.812033">
        <ele>1693.0</ele>
        <time>2013-09-13T12:25:06Z</time>
      </trkpt>
      <trkpt lat="42.012517" lon="0.812183">
        <ele>1694.0</ele>
        <time>2013-09-13T12:25:07Z</time>
      </trkpt>
      <trkpt lat="42.012500" lon="0.812333">
        <ele>1694.0</ele>
        <time>2013-09-13T12:25:08Z</time>
      </trkpt>
      <trkpt lat="42.012500" lon="0.812483">
        <ele>1695.0</ele>
        <time>2013-09-13T12:25:09Z</time>
      </trkpt>
      <trkpt lat="42.012483" lon="0.812617">
        <ele>1696.0</ele>
        <time>2013-09-13T12:25:10Z</time>
      </trkpt>
      <trkpt lat="42.012467" lon="0.812917">
        <ele>1697.0</ele>
        <time>2013-09-13T12:25:12Z</time>
      </trkpt>
      <trkpt lat="42.012450" lon="0.813083">
        <ele>1697.0</ele>
        <time>2013-09-13T12:25:13Z</time>
      </trkpt>
      <trkpt lat="42.012433" lon="0.813233">
        <ele>1697.0</ele>
        <time>2013-09-13T12:25:14Z</time>
      </trkpt>
      <trkpt lat="42.012433" lon="0.813383">
        <ele>1698.0</ele>
        <time>2013-09-13T12:25:15Z</time>
      </trkpt>
      <trkpt lat="42.012417" lon="0.813517">
        <ele>1699.0</ele>
        <time>2013-09-13T12:25:16Z</time>
      </trkpt>
      <trkpt lat="42.012417" lon="0.813667">
        <ele>1700.0</ele>
        <time>2013-09-13T12:25:17Z</time>
      </trkpt>
      <trkpt lat="42.012417" lon="0.813833">
        <ele>1701.0</ele>
        <time>2013-09-13T12:25:18Z</time>
      </trkpt>
      <trkpt lat="42.012417" lon="0.813983">
        <ele>1702.0</ele>
        <time>2013-09-13T12:25:19Z</time>
      </trkpt>
      <trkpt lat="42.012433" lon="0.814133">
        <ele>1704.0</ele>
        <time>2013-09-13T12:25:20Z</time>
      </trkpt>
      <trkpt lat="42.012433" lon="0.814267">
        <ele>1706.0</ele>
        <time>2013-09-13T12:25:21Z</time>
      </trkpt>
      <trkpt lat="42.012433" lon="0.814400">
        <ele>1708.0</ele>
        <time>2013-09-13T12:25:22Z</time>
      </trkpt>
      <trkpt lat="42.012433" lon="0.814533">
        <ele>1709.0</ele>
        <time>2013-09-13T12:25:23Z</time>
      </trkpt>
      <trkpt lat="42.012450" lon="0.814667">
        <ele>1709.0</ele>
        <time>2013-09-13T12:25:24Z</time>
      </trkpt>
      <trkpt lat="42.012483" lon="0.814817">
        <ele>1709.0</ele>
        <time>2013-09-13T12:25:25Z</time>
      </trkpt>
      <trkpt lat="42.012533" lon="0.814933">
        <ele>1709.0</ele>
        <time>2013-09-13T12:25:26Z</time>
      </trkpt>
      <trkpt lat="42.012617" lon="0.815017">
        <ele>1709.0</ele>
        <time>2013-09-13T12:25:27Z</time>
      </trkpt>
      <trkpt lat="42.012683" lon="0.815100">
        <ele>1709.0</ele>
        <time>2013-09-13T12:25:28Z</time>
      </trkpt>
      <trkpt lat="42.012767" lon="0.815150">
        <ele>1709.0</ele>
        <time>2013-09-13T12:25:29Z</time>
      </trkpt>
      <trkpt lat="42.012850" lon="0.815183">
        <ele>1709.0</ele>
        <time>2013-09-13T12:25:30Z</time>
      </trkpt>
      <trkpt lat="42.012933" lon="0.815200">
        <ele>1710.0</ele>
        <time>2013-09-13T12:25:31Z</time>
      </trkpt>
      <trkpt lat="42.013017" lon="0.815200">
        <ele>1710.0</ele>
        <time>2013-09-13T12:25:32Z</time>
      </trkpt>
      <trkpt lat="42.013100" lon="0.815167">
        <ele>1710.0</ele>
        <time>2013-09-13T12:25:33Z</time>
      </trkpt>
      <trkpt lat="42.013183" lon="0.815133">
        <ele>1711.0</ele>
        <time>2013-09-13T12:25:34Z</time>
      </trkpt>
      <trkpt lat="42.013250" lon="0.815083">
        <ele>1712.0</ele>
        <time>2013-09-13T12:25:35Z</time>
      </trkpt>
      <trkpt lat="42.013300" lon="0.815033">
        <ele>1713.0</ele>
        <time>2013-09-13T12:25:36Z</time>
      </trkpt>
      <trkpt lat="42.013367" lon="0.814967">
        <ele>1714.0</ele>
        <time>2013-09-13T12:25:37Z</time>
      </trkpt>
      <trkpt lat="42.013417" lon="0.814917">
        <ele>1714.0</ele>
        <time>2013-09-13T12:25:38Z</time>
      </trkpt>
      <trkpt lat="42.013483" lon="0.814867">
        <ele>1715.0</ele>
        <time>2013-09-13T12:25:39Z</time>
      </trkpt>
      <trkpt lat="42.013533" lon="0.814800">
        <ele>1716.0</ele>
        <time>2013-09-13T12:25:40Z</time>
      </trkpt>
      <trkpt lat="42.013583" lon="0.814750">
        <ele>1717.0</ele>
        <time>2013-09-13T12:25:41Z</time>
      </trkpt>
      <trkpt lat="42.013633" lon="0.814700">
        <ele>1717.0</ele>
        <time>2013-09-13T12:25:42Z</time>
      </trkpt>
      <trkpt lat="42.013683" lon="0.814650">
        <ele>1718.0</ele>
        <time>2013-09-13T12:25:43Z</time>
      </trkpt>
      <trkpt lat="42.013733" lon="0.814567">
        <ele>1717.0</ele>
        <time>2013-09-13T12:25:44Z</time>
      </trkpt>
      <trkpt lat="42.013767" lon="0.814483">
        <ele>1717.0</ele>
        <time>2013-09-13T12:25:45Z</time>
      </trkpt>
      <trkpt lat="42.013817" lon="0.814400">
        <ele>1717.0</ele>
        <time>2013-09-13T12:25:46Z</time>
      </trkpt>
      <trkpt lat="42.013850" lon="0.814333">
        <ele>1719.0</ele>
        <time>2013-09-13T12:25:47Z</time>
      </trkpt>
      <trkpt lat="42.013883" lon="0.814250">
        <ele>1720.0</ele>
        <time>2013-09-13T12:25:48Z</time>
      </trkpt>
      <trkpt lat="42.013917" lon="0.814183">
        <ele>1722.0</ele>
        <time>2013-09-13T12:25:49Z</time>
      </trkpt>
      <trkpt lat="42.013950" lon="0.814100">
        <ele>1723.0</ele>
        <time>2013-09-13T12:25:50Z</time>
      </trkpt>
      <trkpt lat="42.013983" lon="0.814017">
        <ele>1724.0</ele>
        <time>2013-09-13T12:25:51Z</time>
      </trkpt>
      <trkpt lat="42.014017" lon="0.813933">
        <ele>1725.0</ele>
        <time>2013-09-13T12:25:52Z</time>
      </trkpt>
      <trkpt lat="42.014050" lon="0.813850">
        <ele>1726.0</ele>
        <time>2013-09-13T12:25:53Z</time>
      </trkpt>
      <trkpt lat="42.014083" lon="0.813750">
        <ele>1727.0</ele>
        <time>2013-09-13T12:25:54Z</time>
      </trkpt>
      <trkpt lat="42.014100" lon="0.813667">
        <ele>1728.0</ele>
        <time>2013-09-13T12:25:55Z</time>
      </trkpt>
      <trkpt lat="42.014133" lon="0.813583">
        <ele>1729.0</ele>
        <time>2013-09-13T12:25:56Z</time>
      </trkpt>
      <trkpt lat="42.014150" lon="0.813500">
        <ele>1731.0</ele>
        <time>2013-09-13T12:25:57Z</time>
      </trkpt>
      <trkpt lat="42.014167" lon="0.813417">
        <ele>1732.0</ele>
        <time>2013-09-13T12:25:58Z</time>
      </trkpt>
      <trkpt lat="42.014167" lon="0.813333">
        <ele>1733.0</ele>
        <time>2013-09-13T12:25:59Z</time>
      </trkpt>
      <trkpt lat="42.014183" lon="0.813267">
        <ele>1734.0</ele>
        <time>2013-09-13T12:26:00Z</time>
      </trkpt>
      <trkpt lat="42.014200" lon="0.813183">
        <ele>1735.0</ele>
        <time>2013-09-13T12:26:01Z</time>
      </trkpt>
      <trkpt lat="42.014233" lon="0.813100">
        <ele>1736.0</ele>
        <time>2013-09-13T12:26:02Z</time>
      </trkpt>
      <trkpt lat="42.014250" lon="0.813033">
        <ele>1737.0</ele>
        <time>2013-09-13T12:26:03Z</time>
      </trkpt>
      <trkpt lat="42.014283" lon="0.812967">
        <ele>1738.0</ele>
        <time>2013-09-13T12:26:04Z</time>
      </trkpt>
      <trkpt lat="42.014333" lon="0.812917">
        <ele>1739.0</ele>
        <time>2013-09-13T12:26:05Z</time>
      </trkpt>
      <trkpt lat="42.014383" lon="0.812867">
        <ele>1739.0</ele>
        <time>2013-09-13T12:26:06Z</time>
      </trkpt>
      <trkpt lat="42.014433" lon="0.812817">
        <ele>1739.0</ele>
        <time>2013-09-13T12:26:07Z</time>
      </trkpt>
      <trkpt lat="42.014467" lon="0.812750">
        <ele>1739.0</ele>
        <time>2013-09-13T12:26:08Z</time>
      </trkpt>
      <trkpt lat="42.014483" lon="0.812683">
        <ele>1739.0</ele>
        <time>2013-09-13T12:26:09Z</time>
      </trkpt>
      <trkpt lat="42.014500" lon="0.812600">
        <ele>1739.0</ele>
        <time>2013-09-13T12:26:10Z</time>
      </trkpt>
      <trkpt lat="42.014517" lon="0.812517">
        <ele>1738.0</ele>
        <time>2013-09-13T12:26:11Z</time>
      </trkpt>
      <trkpt lat="42.014533" lon="0.812450">
        <ele>1738.0</ele>
        <time>2013-09-13T12:26:12Z</time>
      </trkpt>
      <trkpt lat="42.014533" lon="0.812367">
        <ele>1737.0</ele>
        <time>2013-09-13T12:26:13Z</time>
      </trkpt>
      <trkpt lat="42.014533" lon="0.812283">
        <ele>1737.0</ele>
        <time>2013-09-13T12:26:14Z</time>
      </trkpt>
      <trkpt lat="42.014533" lon="0.812200">
        <ele>1736.0</ele>
        <time>2013-09-13T12:26:15Z</time>
      </trkpt>
      <trkpt lat="42.014533" lon="0.812117">
        <ele>1735.0</ele>
        <time>2013-09-13T12:26:16Z</time>
      </trkpt>
      <trkpt lat="42.014533" lon="0.812033">
        <ele>1735.0</ele>
        <time>2013-09-13T12:26:17Z</time>
      </trkpt>
      <trkpt lat="42.014533" lon="0.811950">
        <ele>1735.0</ele>
        <time>2013-09-13T12:26:18Z</time>
      </trkpt>
      <trkpt lat="42.014533" lon="0.811867">
        <ele>1735.0</ele>
        <time>2013-09-13T12:26:19Z</time>
      </trkpt>
      <trkpt lat="42.014533" lon="0.811783">
        <ele>1736.0</ele>
        <time>2013-09-13T12:26:20Z</time>
      </trkpt>
      <trkpt lat="42.014533" lon="0.811700">
        <ele>1736.0</ele>
        <time>2013-09-13T12:26:21Z</time>
      </trkpt>
      <trkpt lat="42.014533" lon="0.811617">
        <ele>1737.0</ele>
        <time>2013-09-13T12:26:22Z</time>
      </trkpt>
      <trkpt lat="42.014533" lon="0.811517">
        <ele>1737.0</ele>
        <time>2013-09-13T12:26:23Z</time>
      </trkpt>
      <trkpt lat="42.014550" lon="0.811433">
        <ele>1737.0</ele>
        <time>2013-09-13T12:26:24Z</time>
      </trkpt>
      <trkpt lat="42.014550" lon="0.811350">
        <ele>1738.0</ele>
        <time>2013-09-13T12:26:25Z</time>
      </trkpt>
      <trkpt lat="42.014550" lon="0.811267">
        <ele>1740.0</ele>
        <time>2013-09-13T12:26:26Z</time>
      </trkpt>
      <trkpt lat="42.014550" lon="0.811183">
        <ele>1741.0</ele>
        <time>2013-09-13T12:26:27Z</time>
      </trkpt>
      <trkpt lat="42.014550" lon="0.811100">
        <ele>1741.0</ele>
        <time>2013-09-13T12:26:28Z</time>
      </trkpt>
      <trkpt lat="42.014550" lon="0.811000">
        <ele>1741.0</ele>
        <time>2013-09-13T12:26:29Z</time>
      </trkpt>
      <trkpt lat="42.014550" lon="0.810917">
        <ele>1741.0</ele>
        <time>2013-09-13T12:26:30Z</time>
      </trkpt>
      <trkpt lat="42.014567" lon="0.810817">
        <ele>1741.0</ele>
        <time>2013-09-13T12:26:31Z</time>
      </trkpt>
      <trkpt lat="42.014583" lon="0.810750">
        <ele>1741.0</ele>
        <time>2013-09-13T12:26:32Z</time>
      </trkpt>
      <trkpt lat="42.014600" lon="0.810667">
        <ele>1741.0</ele>
        <time>2013-09-13T12:26:33Z</time>
      </trkpt>
      <trkpt lat="42.014633" lon="0.810583">
        <ele>1741.0</ele>
        <time>2013-09-13T12:26:34Z</time>
      </trkpt>
      <trkpt lat="42.014650" lon="0.810500">
        <ele>1740.0</ele>
        <time>2013-09-13T12:26:35Z</time>
      </trkpt>
      <trkpt lat="42.014683" lon="0.810417">
        <ele>1740.0</ele>
        <time>2013-09-13T12:26:36Z</time>
      </trkpt>
      <trkpt lat="42.014717" lon="0.810350">
        <ele>1740.0</ele>
        <time>2013-09-13T12:26:37Z</time>
      </trkpt>
      <trkpt lat="42.014750" lon="0.810283">
        <ele>1740.0</ele>
        <time>2013-09-13T12:26:38Z</time>
      </trkpt>
      <trkpt lat="42.014767" lon="0.810200">
        <ele>1740.0</ele>
        <time>2013-09-13T12:26:39Z</time>
      </trkpt>
      <trkpt lat="42.014800" lon="0.810117">
        <ele>1740.0</ele>
        <time>2013-09-13T12:26:40Z</time>
      </trkpt>
      <trkpt lat="42.014817" lon="0.810017">
        <ele>1739.0</ele>
        <time>2013-09-13T12:26:41Z</time>
      </trkpt>
      <trkpt lat="42.014850" lon="0.809917">
        <ele>1739.0</ele>
        <time>2013-09-13T12:26:42Z</time>
      </trkpt>
      <trkpt lat="42.014867" lon="0.809817">
        <ele>1740.0</ele>
        <time>2013-09-13T12:26:43Z</time>
      </trkpt>
      <trkpt lat="42.014867" lon="0.809733">
        <ele>1742.0</ele>
        <time>2013-09-13T12:26:44Z</time>
      </trkpt>
      <trkpt lat="42.014883" lon="0.809667">
        <ele>1743.0</ele>
        <time>2013-09-13T12:26:45Z</time>
      </trkpt>
      <trkpt lat="42.014883" lon="0.809583">
        <ele>1743.0</ele>
        <time>2013-09-13T12:26:46Z</time>
      </trkpt>
      <trkpt lat="42.014883" lon="0.809483">
        <ele>1743.0</ele>
        <time>2013-09-13T12:26:47Z</time>
      </trkpt>
      <trkpt lat="42.014883" lon="0.809383">
        <ele>1743.0</ele>
        <time>2013-09-13T12:26:48Z</time>
      </trkpt>
      <trkpt lat="42.014883" lon="0.809300">
        <ele>1744.0</ele>
        <time>2013-09-13T12:26:49Z</time>
      </trkpt>
      <trkpt lat="42.014867" lon="0.809217">
        <ele>1745.0</ele>
        <time>2013-09-13T12:26:50Z</time>
      </trkpt>
      <trkpt lat="42.014850" lon="0.809150">
        <ele>1746.0</ele>
        <time>2013-09-13T12:26:51Z</time>
      </trkpt>
      <trkpt lat="42.014833" lon="0.809067">
        <ele>1747.0</ele>
        <time>2013-09-13T12:26:52Z</time>
      </trkpt>
      <trkpt lat="42.014817" lon="0.808983">
        <ele>1747.0</ele>
        <time>2013-09-13T12:26:53Z</time>
      </trkpt>
      <trkpt lat="42.014817" lon="0.808867">
        <ele>1747.0</ele>
        <time>2013-09-13T12:26:54Z</time>
      </trkpt>
      <trkpt lat="42.014817" lon="0.808767">
        <ele>1747.0</ele>
        <time>2013-09-13T12:26:55Z</time>
      </trkpt>
      <trkpt lat="42.014800" lon="0.808683">
        <ele>1747.0</ele>
        <time>2013-09-13T12:26:56Z</time>
      </trkpt>
      <trkpt lat="42.014800" lon="0.808600">
        <ele>1749.0</ele>
        <time>2013-09-13T12:26:57Z</time>
      </trkpt>
      <trkpt lat="42.014800" lon="0.808517">
        <ele>1750.0</ele>
        <time>2013-09-13T12:26:58Z</time>
      </trkpt>
      <trkpt lat="42.014800" lon="0.808417">
        <ele>1750.0</ele>
        <time>2013-09-13T12:26:59Z</time>
      </trkpt>
      <trkpt lat="42.014800" lon="0.808317">
        <ele>1751.0</ele>
        <time>2013-09-13T12:27:00Z</time>
      </trkpt>
      <trkpt lat="42.014800" lon="0.808233">
        <ele>1753.0</ele>
        <time>2013-09-13T12:27:01Z</time>
      </trkpt>
      <trkpt lat="42.014800" lon="0.808150">
        <ele>1755.0</ele>
        <time>2013-09-13T12:27:02Z</time>
      </trkpt>
      <trkpt lat="42.014800" lon="0.808083">
        <ele>1756.0</ele>
        <time>2013-09-13T12:27:03Z</time>
      </trkpt>
      <trkpt lat="42.014800" lon="0.808017">
        <ele>1758.0</ele>
        <time>2013-09-13T12:27:04Z</time>
      </trkpt>
      <trkpt lat="42.014800" lon="0.807950">
        <ele>1758.0</ele>
        <time>2013-09-13T12:27:05Z</time>
      </trkpt>
      <trkpt lat="42.014800" lon="0.807850">
        <ele>1759.0</ele>
        <time>2013-09-13T12:27:06Z</time>
      </trkpt>
      <trkpt lat="42.014817" lon="0.807767">
        <ele>1759.0</ele>
        <time>2013-09-13T12:27:07Z</time>
      </trkpt>
      <trkpt lat="42.014817" lon="0.807667">
        <ele>1761.0</ele>
        <time>2013-09-13T12:27:08Z</time>
      </trkpt>
      <trkpt lat="42.014817" lon="0.807600">
        <ele>1763.0</ele>
        <time>2013-09-13T12:27:09Z</time>
      </trkpt>
      <trkpt lat="42.014817" lon="0.807533">
        <ele>1766.0</ele>
        <time>2013-09-13T12:27:10Z</time>
      </trkpt>
      <trkpt lat="42.014817" lon="0.807483">
        <ele>1768.0</ele>
        <time>2013-09-13T12:27:11Z</time>
      </trkpt>
      <trkpt lat="42.014800" lon="0.807417">
        <ele>1770.0</ele>
        <time>2013-09-13T12:27:12Z</time>
      </trkpt>
      <trkpt lat="42.014800" lon="0.807333">
        <ele>1771.0</ele>
        <time>2013-09-13T12:27:13Z</time>
      </trkpt>
      <trkpt lat="42.014817" lon="0.807267">
        <ele>1772.0</ele>
        <time>2013-09-13T12:27:14Z</time>
      </trkpt>
      <trkpt lat="42.014867" lon="0.807200">
        <ele>1773.0</ele>
        <time>2013-09-13T12:27:15Z</time>
      </trkpt>
      <trkpt lat="42.014933" lon="0.807167">
        <ele>1774.0</ele>
        <time>2013-09-13T12:27:16Z</time>
      </trkpt>
      <trkpt lat="42.015000" lon="0.807167">
        <ele>1776.0</ele>
        <time>2013-09-13T12:27:17Z</time>
      </trkpt>
      <trkpt lat="42.015067" lon="0.807200">
        <ele>1777.0</ele>
        <time>2013-09-13T12:27:18Z</time>
      </trkpt>
      <trkpt lat="42.015150" lon="0.807283">
        <ele>1779.0</ele>
        <time>2013-09-13T12:27:19Z</time>
      </trkpt>
      <trkpt lat="42.015200" lon="0.807383">
        <ele>1781.0</ele>
        <time>2013-09-13T12:27:20Z</time>
      </trkpt>
      <trkpt lat="42.015233" lon="0.807483">
        <ele>1782.0</ele>
        <time>2013-09-13T12:27:21Z</time>
      </trkpt>
      <trkpt lat="42.015250" lon="0.807617">
        <ele>1784.0</ele>
        <time>2013-09-13T12:27:22Z</time>
      </trkpt>
      <trkpt lat="42.015267" lon="0.807767">
        <ele>1785.0</ele>
        <time>2013-09-13T12:27:23Z</time>
      </trkpt>
      <trkpt lat="42.015250" lon="0.807917">
        <ele>1786.0</ele>
        <time>2013-09-13T12:27:24Z</time>
      </trkpt>
      <trkpt lat="42.015217" lon="0.808067">
        <ele>1787.0</ele>
        <time>2013-09-13T12:27:25Z</time>
      </trkpt>
      <trkpt lat="42.015167" lon="0.808200">
        <ele>1788.0</ele>
        <time>2013-09-13T12:27:26Z</time>
      </trkpt>
      <trkpt lat="42.015083" lon="0.808300">
        <ele>1788.0</ele>
        <time>2013-09-13T12:27:27Z</time>
      </trkpt>
      <trkpt lat="42.015000" lon="0.808367">
        <ele>1790.0</ele>
        <time>2013-09-13T12:27:28Z</time>
      </trkpt>
      <trkpt lat="42.014917" lon="0.808417">
        <ele>1791.0</ele>
        <time>2013-09-13T12:27:29Z</time>
      </trkpt>
      <trkpt lat="42.014833" lon="0.808450">
        <ele>1793.0</ele>
        <time>2013-09-13T12:27:30Z</time>
      </trkpt>
      <trkpt lat="42.014750" lon="0.808467">
        <ele>1795.0</ele>
        <time>2013-09-13T12:27:31Z</time>
      </trkpt>
      <trkpt lat="42.014683" lon="0.808467">
        <ele>1797.0</ele>
        <time>2013-09-13T12:27:32Z</time>
      </trkpt>
      <trkpt lat="42.014600" lon="0.808433">
        <ele>1798.0</ele>
        <time>2013-09-13T12:27:33Z</time>
      </trkpt>
      <trkpt lat="42.014533" lon="0.808367">
        <ele>1798.0</ele>
        <time>2013-09-13T12:27:34Z</time>
      </trkpt>
      <trkpt lat="42.014500" lon="0.808300">
        <ele>1799.0</ele>
        <time>2013-09-13T12:27:35Z</time>
      </trkpt>
      <trkpt lat="42.014467" lon="0.808233">
        <ele>1801.0</ele>
        <time>2013-09-13T12:27:36Z</time>
      </trkpt>
      <trkpt lat="42.014467" lon="0.808150">
        <ele>1803.0</ele>
        <time>2013-09-13T12:27:37Z</time>
      </trkpt>
      <trkpt lat="42.014467" lon="0.808083">
        <ele>1805.0</ele>
        <time>2013-09-13T12:27:38Z</time>
      </trkpt>
      <trkpt lat="42.014483" lon="0.808017">
        <ele>1806.0</ele>
        <time>2013-09-13T12:27:39Z</time>
      </trkpt>
      <trkpt lat="42.014517" lon="0.807950">
        <ele>1807.0</ele>
        <time>2013-09-13T12:27:40Z</time>
      </trkpt>
      <trkpt lat="42.014550" lon="0.807917">
        <ele>1809.0</ele>
        <time>2013-09-13T12:27:41Z</time>
      </trkpt>
      <trkpt lat="42.014617" lon="0.807883">
        <ele>1811.0</ele>
        <time>2013-09-13T12:27:42Z</time>
      </trkpt>
      <trkpt lat="42.014667" lon="0.807900">
        <ele>1812.0</ele>
        <time>2013-09-13T12:27:43Z</time>
      </trkpt>
      <trkpt lat="42.014733" lon="0.807917">
        <ele>1813.0</ele>
        <time>2013-09-13T12:27:44Z</time>
      </trkpt>
      <trkpt lat="42.014783" lon="0.807933">
        <ele>1814.0</ele>
        <time>2013-09-13T12:27:45Z</time>
      </trkpt>
      <trkpt lat="42.014900" lon="0.808017">
        <ele>1815.0</ele>
        <time>2013-09-13T12:27:47Z</time>
      </trkpt>
      <trkpt lat="42.014967" lon="0.808100">
        <ele>1815.0</ele>
        <time>2013-09-13T12:27:48Z</time>
      </trkpt>
      <trkpt lat="42.015033" lon="0.808200">
        <ele>1816.0</ele>
        <time>2013-09-13T12:27:49Z</time>
      </trkpt>
      <trkpt lat="42.015067" lon="0.808300">
        <ele>1819.0</ele>
        <time>2013-09-13T12:27:50Z</time>
      </trkpt>
      <trkpt lat="42.015083" lon="0.808417">
        <ele>1820.0</ele>
        <time>2013-09-13T12:27:51Z</time>
      </trkpt>
      <trkpt lat="42.015100" lon="0.808533">
        <ele>1822.0</ele>
        <time>2013-09-13T12:27:52Z</time>
      </trkpt>
      <trkpt lat="42.015083" lon="0.808667">
        <ele>1823.0</ele>
        <time>2013-09-13T12:27:53Z</time>
      </trkpt>
      <trkpt lat="42.015067" lon="0.808817">
        <ele>1823.0</ele>
        <time>2013-09-13T12:27:54Z</time>
      </trkpt>
      <trkpt lat="42.015017" lon="0.808967">
        <ele>1824.0</ele>
        <time>2013-09-13T12:27:55Z</time>
      </trkpt>
      <trkpt lat="42.014967" lon="0.809100">
        <ele>1825.0</ele>
        <time>2013-09-13T12:27:56Z</time>
      </trkpt>
      <trkpt lat="42.014900" lon="0.809200">
        <ele>1827.0</ele>
        <time>2013-09-13T12:27:57Z</time>
      </trkpt>
      <trkpt lat="42.014817" lon="0.809267">
        <ele>1828.0</ele>
        <time>2013-09-13T12:27:58Z</time>
      </trkpt>
      <trkpt lat="42.014733" lon="0.809333">
        <ele>1829.0</ele>
        <time>2013-09-13T12:27:59Z</time>
      </trkpt>
      <trkpt lat="42.014650" lon="0.809367">
        <ele>1830.0</ele>
        <time>2013-09-13T12:28:00Z</time>
      </trkpt>
      <trkpt lat="42.014567" lon="0.809367">
        <ele>1832.0</ele>
        <time>2013-09-13T12:28:01Z</time>
      </trkpt>
      <trkpt lat="42.014483" lon="0.809350">
        <ele>1834.0</ele>
        <time>2013-09-13T12:28:02Z</time>
      </trkpt>
      <trkpt lat="42.014417" lon="0.809300">
        <ele>1836.0</ele>
        <time>2013-09-13T12:28:03Z</time>
      </trkpt>
      <trkpt lat="42.014367" lon="0.809250">
        <ele>1838.0</ele>
        <time>2013-09-13T12:28:04Z</time>
      </trkpt>
      <trkpt lat="42.014333" lon="0.809200">
        <ele>1840.0</ele>
        <time>2013-09-13T12:28:05Z</time>
      </trkpt>
      <trkpt lat="42.014300" lon="0.809133">
        <ele>1842.0</ele>
        <time>2013-09-13T12:28:06Z</time>
      </trkpt>
      <trkpt lat="42.014267" lon="0.809050">
        <ele>1843.0</ele>
        <time>2013-09-13T12:28:07Z</time>
      </trkpt>
      <trkpt lat="42.014250" lon="0.808983">
        <ele>1845.0</ele>
        <time>2013-09-13T12:28:08Z</time>
      </trkpt>
      <trkpt lat="42.014233" lon="0.808917">
        <ele>1846.0</ele>
        <time>2013-09-13T12:28:09Z</time>
      </trkpt>
      <trkpt lat="42.014233" lon="0.808867">
        <ele>1847.0</ele>
        <time>2013-09-13T12:28:10Z</time>
      </trkpt>
      <trkpt lat="42.014250" lon="0.808800">
        <ele>1848.0</ele>
        <time>2013-09-13T12:28:11Z</time>
      </trkpt>
      <trkpt lat="42.014250" lon="0.808717">
        <ele>1847.0</ele>
        <time>2013-09-13T12:28:12Z</time>
      </trkpt>
      <trkpt lat="42.014200" lon="0.808467">
        <ele>1847.0</ele>
        <time>2013-09-13T12:28:16Z</time>
      </trkpt>
      <trkpt lat="42.014183" lon="0.808400">
        <ele>1846.0</ele>
        <time>2013-09-13T12:28:17Z</time>
      </trkpt>
      <trkpt lat="42.014167" lon="0.808317">
        <ele>1844.0</ele>
        <time>2013-09-13T12:28:18Z</time>
      </trkpt>
      <trkpt lat="42.014167" lon="0.808250">
        <ele>1843.0</ele>
        <time>2013-09-13T12:28:19Z</time>
      </trkpt>
      <trkpt lat="42.014200" lon="0.808200">
        <ele>1843.0</ele>
        <time>2013-09-13T12:28:20Z</time>
      </trkpt>
      <trkpt lat="42.014217" lon="0.808167">
        <ele>1843.0</ele>
        <time>2013-09-13T12:28:21Z</time>
      </trkpt>
      <trkpt lat="42.014367" lon="0.807900">
        <ele>1838.0</ele>
        <time>2013-09-13T12:28:26Z</time>
      </trkpt>
      <trkpt lat="42.014400" lon="0.807850">
        <ele>1836.0</ele>
        <time>2013-09-13T12:28:27Z</time>
      </trkpt>
      <trkpt lat="42.014433" lon="0.807800">
        <ele>1835.0</ele>
        <time>2013-09-13T12:28:28Z</time>
      </trkpt>
      <trkpt lat="42.014450" lon="0.807750">
        <ele>1833.0</ele>
        <time>2013-09-13T12:28:29Z</time>
      </trkpt>
      <trkpt lat="42.014467" lon="0.807683">
        <ele>1831.0</ele>
        <time>2013-09-13T12:28:30Z</time>
      </trkpt>
      <trkpt lat="42.014467" lon="0.807617">
        <ele>1828.0</ele>
        <time>2013-09-13T12:28:31Z</time>
      </trkpt>
      <trkpt lat="42.014483" lon="0.807533">
        <ele>1826.0</ele>
        <time>2013-09-13T12:28:32Z</time>
      </trkpt>
      <trkpt lat="42.014483" lon="0.807467">
        <ele>1824.0</ele>
        <time>2013-09-13T12:28:33Z</time>
      </trkpt>
      <trkpt lat="42.014483" lon="0.807400">
        <ele>1822.0</ele>
        <time>2013-09-13T12:28:34Z</time>
      </trkpt>
      <trkpt lat="42.014483" lon="0.807317">
        <ele>1820.0</ele>
        <time>2013-09-13T12:28:35Z</time>
      </trkpt>
      <trkpt lat="42.014483" lon="0.807250">
        <ele>1818.0</ele>
        <time>2013-09-13T12:28:36Z</time>
      </trkpt>
      <trkpt lat="42.014483" lon="0.807167">
        <ele>1816.0</ele>
        <time>2013-09-13T12:28:37Z</time>
      </trkpt>
      <trkpt lat="42.014483" lon="0.807117">
        <ele>1816.0</ele>
        <time>2013-09-13T12:28:38Z</time>
      </trkpt>
      <trkpt lat="42.014483" lon="0.807067">
        <ele>1815.0</ele>
        <time>2013-09-13T12:28:39Z</time>
      </trkpt>
      <trkpt lat="42.014483" lon="0.807000">
        <ele>1813.0</ele>
        <time>2013-09-13T12:28:40Z</time>
      </trkpt>
      <trkpt lat="42.014483" lon="0.806933">
        <ele>1811.0</ele>
        <time>2013-09-13T12:28:41Z</time>
      </trkpt>
      <trkpt lat="42.014500" lon="0.806850">
        <ele>1809.0</ele>
        <time>2013-09-13T12:28:42Z</time>
      </trkpt>
      <trkpt lat="42.014517" lon="0.806783">
        <ele>1808.0</ele>
        <time>2013-09-13T12:28:43Z</time>
      </trkpt>
      <trkpt lat="42.014550" lon="0.806717">
        <ele>1807.0</ele>
        <time>2013-09-13T12:28:44Z</time>
      </trkpt>
      <trkpt lat="42.014550" lon="0.806667">
        <ele>1807.0</ele>
        <time>2013-09-13T12:28:45Z</time>
      </trkpt>
      <trkpt lat="42.014550" lon="0.806617">
        <ele>1808.0</ele>
        <time>2013-09-13T12:28:46Z</time>
      </trkpt>
      <trkpt lat="42.014567" lon="0.806550">
        <ele>1807.0</ele>
        <time>2013-09-13T12:28:47Z</time>
      </trkpt>
      <trkpt lat="42.014583" lon="0.806483">
        <ele>1807.0</ele>
        <time>2013-09-13T12:28:48Z</time>
      </trkpt>
      <trkpt lat="42.014600" lon="0.806417">
        <ele>1807.0</ele>
        <time>2013-09-13T12:28:49Z</time>
      </trkpt>
      <trkpt lat="42.014617" lon="0.806350">
        <ele>1808.0</ele>
        <time>2013-09-13T12:28:50Z</time>
      </trkpt>
      <trkpt lat="42.014617" lon="0.806283">
        <ele>1808.0</ele>
        <time>2013-09-13T12:28:51Z</time>
      </trkpt>
      <trkpt lat="42.014600" lon="0.806233">
        <ele>1807.0</ele>
        <time>2013-09-13T12:28:52Z</time>
      </trkpt>
      <trkpt lat="42.014567" lon="0.806183">
        <ele>1806.0</ele>
        <time>2013-09-13T12:28:53Z</time>
      </trkpt>
      <trkpt lat="42.014567" lon="0.806117">
        <ele>1806.0</ele>
        <time>2013-09-13T12:28:54Z</time>
      </trkpt>
      <trkpt lat="42.014567" lon="0.806050">
        <ele>1806.0</ele>
        <time>2013-09-13T12:28:55Z</time>
      </trkpt>
      <trkpt lat="42.014567" lon="0.806017">
        <ele>1808.0</ele>
        <time>2013-09-13T12:28:56Z</time>
      </trkpt>
      <trkpt lat="42.014583" lon="0.805983">
        <ele>1810.0</ele>
        <time>2013-09-13T12:28:57Z</time>
      </trkpt>
      <trkpt lat="42.014583" lon="0.805950">
        <ele>1810.0</ele>
        <time>2013-09-13T12:28:58Z</time>
      </trkpt>
      <trkpt lat="42.014583" lon="0.805867">
        <ele>1809.0</ele>
        <time>2013-09-13T12:28:59Z</time>
      </trkpt>
      <trkpt lat="42.014583" lon="0.805800">
        <ele>1809.0</ele>
        <time>2013-09-13T12:29:00Z</time>
      </trkpt>
      <trkpt lat="42.014583" lon="0.805717">
        <ele>1810.0</ele>
        <time>2013-09-13T12:29:01Z</time>
      </trkpt>
      <trkpt lat="42.014567" lon="0.805650">
        <ele>1812.0</ele>
        <time>2013-09-13T12:29:02Z</time>
      </trkpt>
      <trkpt lat="42.014550" lon="0.805583">
        <ele>1814.0</ele>
        <time>2013-09-13T12:29:03Z</time>
      </trkpt>
      <trkpt lat="42.014550" lon="0.805517">
        <ele>1816.0</ele>
        <time>2013-09-13T12:29:04Z</time>
      </trkpt>
      <trkpt lat="42.014533" lon="0.805450">
        <ele>1817.0</ele>
        <time>2013-09-13T12:29:05Z</time>
      </trkpt>
      <trkpt lat="42.014533" lon="0.805383">
        <ele>1819.0</ele>
        <time>2013-09-13T12:29:06Z</time>
      </trkpt>
      <trkpt lat="42.014533" lon="0.805300">
        <ele>1821.0</ele>
        <time>2013-09-13T12:29:07Z</time>
      </trkpt>
      <trkpt lat="42.014517" lon="0.805217">
        <ele>1823.0</ele>
        <time>2013-09-13T12:29:08Z</time>
      </trkpt>
      <trkpt lat="42.014517" lon="0.805150">
        <ele>1825.0</ele>
        <time>2013-09-13T12:29:09Z</time>
      </trkpt>
      <trkpt lat="42.014517" lon="0.805100">
        <ele>1828.0</ele>
        <time>2013-09-13T12:29:10Z</time>
      </trkpt>
      <trkpt lat="42.014500" lon="0.805050">
        <ele>1831.0</ele>
        <time>2013-09-13T12:29:11Z</time>
      </trkpt>
      <trkpt lat="42.014483" lon="0.804983">
        <ele>1833.0</ele>
        <time>2013-09-13T12:29:12Z</time>
      </trkpt>
      <trkpt lat="42.014450" lon="0.804917">
        <ele>1835.0</ele>
        <time>2013-09-13T12:29:13Z</time>
      </trkpt>
      <trkpt lat="42.014417" lon="0.804833">
        <ele>1836.0</ele>
        <time>2013-09-13T12:29:14Z</time>
      </trkpt>
      <trkpt lat="42.014400" lon="0.804767">
        <ele>1838.0</ele>
        <time>2013-09-13T12:29:15Z</time>
      </trkpt>
      <trkpt lat="42.014383" lon="0.804700">
        <ele>1840.0</ele>
        <time>2013-09-13T12:29:16Z</time>
      </trkpt>
      <trkpt lat="42.014367" lon="0.804633">
        <ele>1843.0</ele>
        <time>2013-09-13T12:29:17Z</time>
      </trkpt>
      <trkpt lat="42.014367" lon="0.804567">
        <ele>1846.0</ele>
        <time>2013-09-13T12:29:18Z</time>
      </trkpt>
      <trkpt lat="42.014367" lon="0.804517">
        <ele>1847.0</ele>
        <time>2013-09-13T12:29:19Z</time>
      </trkpt>
      <trkpt lat="42.014367" lon="0.804450">
        <ele>1849.0</ele>
        <time>2013-09-13T12:29:20Z</time>
      </trkpt>
      <trkpt lat="42.014367" lon="0.804400">
        <ele>1851.0</ele>
        <time>2013-09-13T12:29:21Z</time>
      </trkpt>
      <trkpt lat="42.014350" lon="0.804333">
        <ele>1852.0</ele>
        <time>2013-09-13T12:29:22Z</time>
      </trkpt>
      <trkpt lat="42.014333" lon="0.804283">
        <ele>1854.0</ele>
        <time>2013-09-13T12:29:23Z</time>
      </trkpt>
      <trkpt lat="42.014333" lon="0.804250">
        <ele>1855.0</ele>
        <time>2013-09-13T12:29:24Z</time>
      </trkpt>
      <trkpt lat="42.014317" lon="0.804183">
        <ele>1856.0</ele>
        <time>2013-09-13T12:29:25Z</time>
      </trkpt>
      <trkpt lat="42.014283" lon="0.804117">
        <ele>1856.0</ele>
        <time>2013-09-13T12:29:26Z</time>
      </trkpt>
      <trkpt lat="42.014267" lon="0.804050">
        <ele>1856.0</ele>
        <time>2013-09-13T12:29:27Z</time>
      </trkpt>
      <trkpt lat="42.014267" lon="0.803983">
        <ele>1856.0</ele>
        <time>2013-09-13T12:29:28Z</time>
      </trkpt>
      <trkpt lat="42.014250" lon="0.803933">
        <ele>1857.0</ele>
        <time>2013-09-13T12:29:29Z</time>
      </trkpt>
      <trkpt lat="42.014250" lon="0.803850">
        <ele>1857.0</ele>
        <time>2013-09-13T12:29:30Z</time>
      </trkpt>
      <trkpt lat="42.014267" lon="0.803783">
        <ele>1857.0</ele>
        <time>2013-09-13T12:29:31Z</time>
      </trkpt>
      <trkpt lat="42.014267" lon="0.803700">
        <ele>1857.0</ele>
        <time>2013-09-13T12:29:32Z</time>
      </trkpt>
      <trkpt lat="42.014250" lon="0.803633">
        <ele>1858.0</ele>
        <time>2013-09-13T12:29:33Z</time>
      </trkpt>
      <trkpt lat="42.014250" lon="0.803583">
        <ele>1859.0</ele>
        <time>2013-09-13T12:29:34Z</time>
      </trkpt>
      <trkpt lat="42.014250" lon="0.803517">
        <ele>1860.0</ele>
        <time>2013-09-13T12:29:35Z</time>
      </trkpt>
      <trkpt lat="42.014233" lon="0.803450">
        <ele>1860.0</ele>
        <time>2013-09-13T12:29:36Z</time>
      </trkpt>
      <trkpt lat="42.014217" lon="0.803367">
        <ele>1859.0</ele>
        <time>2013-09-13T12:29:37Z</time>
      </trkpt>
      <trkpt lat="42.014217" lon="0.803267">
        <ele>1859.0</ele>
        <time>2013-09-13T12:29:38Z</time>
      </trkpt>
      <trkpt lat="42.014200" lon="0.803183">
        <ele>1859.0</ele>
        <time>2013-09-13T12:29:39Z</time>
      </trkpt>
      <trkpt lat="42.014200" lon="0.803117">
        <ele>1859.0</ele>
        <time>2013-09-13T12:29:40Z</time>
      </trkpt>
      <trkpt lat="42.014183" lon="0.803033">
        <ele>1859.0</ele>
        <time>2013-09-13T12:29:41Z</time>
      </trkpt>
      <trkpt lat="42.014183" lon="0.802933">
        <ele>1858.0</ele>
        <time>2013-09-13T12:29:42Z</time>
      </trkpt>
      <trkpt lat="42.014167" lon="0.802833">
        <ele>1858.0</ele>
        <time>2013-09-13T12:29:43Z</time>
      </trkpt>
      <trkpt lat="42.014183" lon="0.802733">
        <ele>1857.0</ele>
        <time>2013-09-13T12:29:44Z</time>
      </trkpt>
      <trkpt lat="42.014200" lon="0.802633">
        <ele>1857.0</ele>
        <time>2013-09-13T12:29:45Z</time>
      </trkpt>
      <trkpt lat="42.014200" lon="0.802517">
        <ele>1857.0</ele>
        <time>2013-09-13T12:29:46Z</time>
      </trkpt>
      <trkpt lat="42.014200" lon="0.802417">
        <ele>1858.0</ele>
        <time>2013-09-13T12:29:47Z</time>
      </trkpt>
      <trkpt lat="42.014200" lon="0.802317">
        <ele>1858.0</ele>
        <time>2013-09-13T12:29:48Z</time>
      </trkpt>
      <trkpt lat="42.014200" lon="0.802233">
        <ele>1859.0</ele>
        <time>2013-09-13T12:29:49Z</time>
      </trkpt>
      <trkpt lat="42.014200" lon="0.802133">
        <ele>1859.0</ele>
        <time>2013-09-13T12:29:50Z</time>
      </trkpt>
      <trkpt lat="42.014200" lon="0.802033">
        <ele>1859.0</ele>
        <time>2013-09-13T12:29:51Z</time>
      </trkpt>
      <trkpt lat="42.014200" lon="0.801950">
        <ele>1860.0</ele>
        <time>2013-09-13T12:29:52Z</time>
      </trkpt>
      <trkpt lat="42.014183" lon="0.801867">
        <ele>1861.0</ele>
        <time>2013-09-13T12:29:53Z</time>
      </trkpt>
      <trkpt lat="42.014183" lon="0.801783">
        <ele>1861.0</ele>
        <time>2013-09-13T12:29:54Z</time>
      </trkpt>
      <trkpt lat="42.014183" lon="0.801600">
        <ele>1862.0</ele>
        <time>2013-09-13T12:29:56Z</time>
      </trkpt>
      <trkpt lat="42.014183" lon="0.801517">
        <ele>1862.0</ele>
        <time>2013-09-13T12:29:57Z</time>
      </trkpt>
      <trkpt lat="42.014183" lon="0.801417">
        <ele>1863.0</ele>
        <time>2013-09-13T12:29:58Z</time>
      </trkpt>
      <trkpt lat="42.014183" lon="0.801317">
        <ele>1863.0</ele>
        <time>2013-09-13T12:29:59Z</time>
      </trkpt>
      <trkpt lat="42.014183" lon="0.801150">
        <ele>1864.0</ele>
        <time>2013-09-13T12:30:01Z</time>
      </trkpt>
      <trkpt lat="42.014167" lon="0.800967">
        <ele>1864.0</ele>
        <time>2013-09-13T12:30:03Z</time>
      </trkpt>
      <trkpt lat="42.014150" lon="0.800867">
        <ele>1863.0</ele>
        <time>2013-09-13T12:30:04Z</time>
      </trkpt>
      <trkpt lat="42.014133" lon="0.800783">
        <ele>1864.0</ele>
        <time>2013-09-13T12:30:05Z</time>
      </trkpt>
      <trkpt lat="42.014133" lon="0.800700">
        <ele>1864.0</ele>
        <time>2013-09-13T12:30:06Z</time>
      </trkpt>
      <trkpt lat="42.014117" lon="0.800633">
        <ele>1865.0</ele>
        <time>2013-09-13T12:30:07Z</time>
      </trkpt>
      <trkpt lat="42.014117" lon="0.800550">
        <ele>1865.0</ele>
        <time>2013-09-13T12:30:08Z</time>
      </trkpt>
      <trkpt lat="42.014100" lon="0.800467">
        <ele>1865.0</ele>
        <time>2013-09-13T12:30:09Z</time>
      </trkpt>
      <trkpt lat="42.014100" lon="0.800400">
        <ele>1866.0</ele>
        <time>2013-09-13T12:30:10Z</time>
      </trkpt>
      <trkpt lat="42.014083" lon="0.800300">
        <ele>1866.0</ele>
        <time>2013-09-13T12:30:11Z</time>
      </trkpt>
      <trkpt lat="42.014083" lon="0.800217">
        <ele>1866.0</ele>
        <time>2013-09-13T12:30:12Z</time>
      </trkpt>
      <trkpt lat="42.014083" lon="0.800133">
        <ele>1866.0</ele>
        <time>2013-09-13T12:30:13Z</time>
      </trkpt>
      <trkpt lat="42.014083" lon="0.800050">
        <ele>1866.0</ele>
        <time>2013-09-13T12:30:14Z</time>
      </trkpt>
      <trkpt lat="42.014083" lon="0.799967">
        <ele>1867.0</ele>
        <time>2013-09-13T12:30:15Z</time>
      </trkpt>
      <trkpt lat="42.014083" lon="0.799883">
        <ele>1867.0</ele>
        <time>2013-09-13T12:30:16Z</time>
      </trkpt>
      <trkpt lat="42.014100" lon="0.799800">
        <ele>1868.0</ele>
        <time>2013-09-13T12:30:17Z</time>
      </trkpt>
      <trkpt lat="42.014100" lon="0.799717">
        <ele>1869.0</ele>
        <time>2013-09-13T12:30:18Z</time>
      </trkpt>
      <trkpt lat="42.014100" lon="0.799617">
        <ele>1871.0</ele>
        <time>2013-09-13T12:30:19Z</time>
      </trkpt>
      <trkpt lat="42.014117" lon="0.799517">
        <ele>1872.0</ele>
        <time>2013-09-13T12:30:20Z</time>
      </trkpt>
      <trkpt lat="42.014117" lon="0.799417">
        <ele>1874.0</ele>
        <time>2013-09-13T12:30:21Z</time>
      </trkpt>
      <trkpt lat="42.014117" lon="0.799333">
        <ele>1875.0</ele>
        <time>2013-09-13T12:30:22Z</time>
      </trkpt>
      <trkpt lat="42.014117" lon="0.799250">
        <ele>1876.0</ele>
        <time>2013-09-13T12:30:23Z</time>
      </trkpt>
      <trkpt lat="42.014100" lon="0.799150">
        <ele>1877.0</ele>
        <time>2013-09-13T12:30:24Z</time>
      </trkpt>
      <trkpt lat="42.014067" lon="0.799050">
        <ele>1878.0</ele>
        <time>2013-09-13T12:30:25Z</time>
      </trkpt>
      <trkpt lat="42.014000" lon="0.798967">
        <ele>1879.0</ele>
        <time>2013-09-13T12:30:26Z</time>
      </trkpt>
      <trkpt lat="42.013917" lon="0.798917">
        <ele>1881.0</ele>
        <time>2013-09-13T12:30:27Z</time>
      </trkpt>
      <trkpt lat="42.013833" lon="0.798933">
        <ele>1883.0</ele>
        <time>2013-09-13T12:30:28Z</time>
      </trkpt>
      <trkpt lat="42.013750" lon="0.798967">
        <ele>1885.0</ele>
        <time>2013-09-13T12:30:29Z</time>
      </trkpt>
      <trkpt lat="42.013683" lon="0.799050">
        <ele>1888.0</ele>
        <time>2013-09-13T12:30:30Z</time>
      </trkpt>
      <trkpt lat="42.013633" lon="0.799150">
        <ele>1891.0</ele>
        <time>2013-09-13T12:30:31Z</time>
      </trkpt>
      <trkpt lat="42.013617" lon="0.799267">
        <ele>1893.0</ele>
        <time>2013-09-13T12:30:32Z</time>
      </trkpt>
      <trkpt lat="42.013617" lon="0.799383">
        <ele>1895.0</ele>
        <time>2013-09-13T12:30:33Z</time>
      </trkpt>
      <trkpt lat="42.013633" lon="0.799517">
        <ele>1896.0</ele>
        <time>2013-09-13T12:30:34Z</time>
      </trkpt>
      <trkpt lat="42.013767" lon="0.799700">
        <ele>1900.0</ele>
        <time>2013-09-13T12:30:36Z</time>
      </trkpt>
      <trkpt lat="42.013933" lon="0.799717">
        <ele>1905.0</ele>
        <time>2013-09-13T12:30:38Z</time>
      </trkpt>
      <trkpt lat="42.014000" lon="0.799667">
        <ele>1908.0</ele>
        <time>2013-09-13T12:30:39Z</time>
      </trkpt>
      <trkpt lat="42.014050" lon="0.799600">
        <ele>1911.0</ele>
        <time>2013-09-13T12:30:40Z</time>
      </trkpt>
      <trkpt lat="42.014083" lon="0.799517">
        <ele>1914.0</ele>
        <time>2013-09-13T12:30:41Z</time>
      </trkpt>
      <trkpt lat="42.014100" lon="0.799450">
        <ele>1916.0</ele>
        <time>2013-09-13T12:30:42Z</time>
      </trkpt>
      <trkpt lat="42.014117" lon="0.799350">
        <ele>1917.0</ele>
        <time>2013-09-13T12:30:43Z</time>
      </trkpt>
      <trkpt lat="42.014117" lon="0.799250">
        <ele>1918.0</ele>
        <time>2013-09-13T12:30:44Z</time>
      </trkpt>
      <trkpt lat="42.014133" lon="0.799150">
        <ele>1919.0</ele>
        <time>2013-09-13T12:30:45Z</time>
      </trkpt>
      <trkpt lat="42.014117" lon="0.799050">
        <ele>1917.0</ele>
        <time>2013-09-13T12:30:46Z</time>
      </trkpt>
      <trkpt lat="42.014100" lon="0.798933">
        <ele>1918.0</ele>
        <time>2013-09-13T12:30:47Z</time>
      </trkpt>
      <trkpt lat="42.014050" lon="0.798833">
        <ele>1919.0</ele>
        <time>2013-09-13T12:30:48Z</time>
      </trkpt>
      <trkpt lat="42.014000" lon="0.798733">
        <ele>1920.0</ele>
        <time>2013-09-13T12:30:49Z</time>
      </trkpt>
      <trkpt lat="42.013933" lon="0.798633">
        <ele>1922.0</ele>
        <time>2013-09-13T12:30:50Z</time>
      </trkpt>
      <trkpt lat="42.013883" lon="0.798533">
        <ele>1924.0</ele>
        <time>2013-09-13T12:30:51Z</time>
      </trkpt>
      <trkpt lat="42.013817" lon="0.798433">
        <ele>1926.0</ele>
        <time>2013-09-13T12:30:52Z</time>
      </trkpt>
      <trkpt lat="42.013767" lon="0.798350">
        <ele>1928.0</ele>
        <time>2013-09-13T12:30:53Z</time>
      </trkpt>
      <trkpt lat="42.013717" lon="0.798250">
        <ele>1930.0</ele>
        <time>2013-09-13T12:30:54Z</time>
      </trkpt>
      <trkpt lat="42.013667" lon="0.798133">
        <ele>1932.0</ele>
        <time>2013-09-13T12:30:55Z</time>
      </trkpt>
      <trkpt lat="42.013600" lon="0.798017">
        <ele>1933.0</ele>
        <time>2013-09-13T12:30:56Z</time>
      </trkpt>
      <trkpt lat="42.013550" lon="0.797900">
        <ele>1935.0</ele>
        <time>2013-09-13T12:30:57Z</time>
      </trkpt>
      <trkpt lat="42.013500" lon="0.797783">
        <ele>1935.0</ele>
        <time>2013-09-13T12:30:58Z</time>
      </trkpt>
      <trkpt lat="42.013450" lon="0.797667">
        <ele>1934.0</ele>
        <time>2013-09-13T12:30:59Z</time>
      </trkpt>
      <trkpt lat="42.013400" lon="0.797567">
        <ele>1934.0</ele>
        <time>2013-09-13T12:31:00Z</time>
      </trkpt>
      <trkpt lat="42.013333" lon="0.797450">
        <ele>1933.0</ele>
        <time>2013-09-13T12:31:01Z</time>
      </trkpt>
      <trkpt lat="42.013267" lon="0.797350">
        <ele>1932.0</ele>
        <time>2013-09-13T12:31:02Z</time>
      </trkpt>
      <trkpt lat="42.013183" lon="0.797250">
        <ele>1931.0</ele>
        <time>2013-09-13T12:31:03Z</time>
      </trkpt>
      <trkpt lat="42.013117" lon="0.797133">
        <ele>1931.0</ele>
        <time>2013-09-13T12:31:04Z</time>
      </trkpt>
      <trkpt lat="42.013067" lon="0.797033">
        <ele>1931.0</ele>
        <time>2013-09-13T12:31:05Z</time>
      </trkpt>
      <trkpt lat="42.013000" lon="0.796933">
        <ele>1931.0</ele>
        <time>2013-09-13T12:31:06Z</time>
      </trkpt>
      <trkpt lat="42.012950" lon="0.796833">
        <ele>1931.0</ele>
        <time>2013-09-13T12:31:07Z</time>
      </trkpt>
      <trkpt lat="42.012900" lon="0.796733">
        <ele>1931.0</ele>
        <time>2013-09-13T12:31:08Z</time>
      </trkpt>
      <trkpt lat="42.012850" lon="0.796633">
        <ele>1929.0</ele>
        <time>2013-09-13T12:31:09Z</time>
      </trkpt>
      <trkpt lat="42.012783" lon="0.796517">
        <ele>1928.0</ele>
        <time>2013-09-13T12:31:10Z</time>
      </trkpt>
      <trkpt lat="42.012733" lon="0.796400">
        <ele>1927.0</ele>
        <time>2013-09-13T12:31:11Z</time>
      </trkpt>
      <trkpt lat="42.012683" lon="0.796283">
        <ele>1927.0</ele>
        <time>2013-09-13T12:31:12Z</time>
      </trkpt>
      <trkpt lat="42.012633" lon="0.796167">
        <ele>1926.0</ele>
        <time>2013-09-13T12:31:13Z</time>
      </trkpt>
      <trkpt lat="42.012583" lon="0.796033">
        <ele>1924.0</ele>
        <time>2013-09-13T12:31:14Z</time>
      </trkpt>
      <trkpt lat="42.012533" lon="0.795917">
        <ele>1922.0</ele>
        <time>2013-09-13T12:31:15Z</time>
      </trkpt>
      <trkpt lat="42.012483" lon="0.795800">
        <ele>1921.0</ele>
        <time>2013-09-13T12:31:16Z</time>
      </trkpt>
      <trkpt lat="42.012433" lon="0.795667">
        <ele>1919.0</ele>
        <time>2013-09-13T12:31:17Z</time>
      </trkpt>
      <trkpt lat="42.012383" lon="0.795550">
        <ele>1917.0</ele>
        <time>2013-09-13T12:31:18Z</time>
      </trkpt>
      <trkpt lat="42.012350" lon="0.795417">
        <ele>1914.0</ele>
        <time>2013-09-13T12:31:19Z</time>
      </trkpt>
      <trkpt lat="42.012333" lon="0.795300">
        <ele>1912.0</ele>
        <time>2013-09-13T12:31:20Z</time>
      </trkpt>
      <trkpt lat="42.012300" lon="0.795167">
        <ele>1909.0</ele>
        <time>2013-09-13T12:31:21Z</time>
      </trkpt>
      <trkpt lat="42.012267" lon="0.795033">
        <ele>1905.0</ele>
        <time>2013-09-13T12:31:22Z</time>
      </trkpt>
      <trkpt lat="42.012250" lon="0.794900">
        <ele>1902.0</ele>
        <time>2013-09-13T12:31:23Z</time>
      </trkpt>
      <trkpt lat="42.012250" lon="0.794767">
        <ele>1899.0</ele>
        <time>2013-09-13T12:31:24Z</time>
      </trkpt>
      <trkpt lat="42.012250" lon="0.794650">
        <ele>1896.0</ele>
        <time>2013-09-13T12:31:25Z</time>
      </trkpt>
      <trkpt lat="42.012250" lon="0.794533">
        <ele>1893.0</ele>
        <time>2013-09-13T12:31:26Z</time>
      </trkpt>
      <trkpt lat="42.012233" lon="0.794417">
        <ele>1891.0</ele>
        <time>2013-09-13T12:31:27Z</time>
      </trkpt>
      <trkpt lat="42.012233" lon="0.794300">
        <ele>1888.0</ele>
        <time>2013-09-13T12:31:28Z</time>
      </trkpt>
      <trkpt lat="42.012233" lon="0.794200">
        <ele>1884.0</ele>
        <time>2013-09-13T12:31:29Z</time>
      </trkpt>
      <trkpt lat="42.012233" lon="0.794083">
        <ele>1881.0</ele>
        <time>2013-09-13T12:31:30Z</time>
      </trkpt>
      <trkpt lat="42.012250" lon="0.793967">
        <ele>1878.0</ele>
        <time>2013-09-13T12:31:31Z</time>
      </trkpt>
      <trkpt lat="42.012267" lon="0.793883">
        <ele>1875.0</ele>
        <time>2013-09-13T12:31:32Z</time>
      </trkpt>
      <trkpt lat="42.012283" lon="0.793783">
        <ele>1873.0</ele>
        <time>2013-09-13T12:31:33Z</time>
      </trkpt>
      <trkpt lat="42.012317" lon="0.793717">
        <ele>1871.0</ele>
        <time>2013-09-13T12:31:34Z</time>
      </trkpt>
      <trkpt lat="42.012333" lon="0.793650">
        <ele>1869.0</ele>
        <time>2013-09-13T12:31:35Z</time>
      </trkpt>
      <trkpt lat="42.012350" lon="0.793567">
        <ele>1867.0</ele>
        <time>2013-09-13T12:31:36Z</time>
      </trkpt>
      <trkpt lat="42.012383" lon="0.793467">
        <ele>1865.0</ele>
        <time>2013-09-13T12:31:37Z</time>
      </trkpt>
      <trkpt lat="42.012400" lon="0.793383">
        <ele>1863.0</ele>
        <time>2013-09-13T12:31:38Z</time>
      </trkpt>
      <trkpt lat="42.012433" lon="0.793317">
        <ele>1862.0</ele>
        <time>2013-09-13T12:31:39Z</time>
      </trkpt>
      <trkpt lat="42.012450" lon="0.793250">
        <ele>1860.0</ele>
        <time>2013-09-13T12:31:40Z</time>
      </trkpt>
      <trkpt lat="42.012483" lon="0.793167">
        <ele>1859.0</ele>
        <time>2013-09-13T12:31:41Z</time>
      </trkpt>
      <trkpt lat="42.012500" lon="0.793083">
        <ele>1858.0</ele>
        <time>2013-09-13T12:31:42Z</time>
      </trkpt>
      <trkpt lat="42.012533" lon="0.793000">
        <ele>1856.0</ele>
        <time>2013-09-13T12:31:43Z</time>
      </trkpt>
      <trkpt lat="42.012550" lon="0.792900">
        <ele>1854.0</ele>
        <time>2013-09-13T12:31:44Z</time>
      </trkpt>
      <trkpt lat="42.012583" lon="0.792800">
        <ele>1853.0</ele>
        <time>2013-09-13T12:31:45Z</time>
      </trkpt>
      <trkpt lat="42.012600" lon="0.792700">
        <ele>1852.0</ele>
        <time>2013-09-13T12:31:46Z</time>
      </trkpt>
      <trkpt lat="42.012633" lon="0.792617">
        <ele>1851.0</ele>
        <time>2013-09-13T12:31:47Z</time>
      </trkpt>
      <trkpt lat="42.012667" lon="0.792533">
        <ele>1850.0</ele>
        <time>2013-09-13T12:31:48Z</time>
      </trkpt>
      <trkpt lat="42.012700" lon="0.792450">
        <ele>1848.0</ele>
        <time>2013-09-13T12:31:49Z</time>
      </trkpt>
      <trkpt lat="42.012750" lon="0.792367">
        <ele>1847.0</ele>
        <time>2013-09-13T12:31:50Z</time>
      </trkpt>
      <trkpt lat="42.012783" lon="0.792283">
        <ele>1846.0</ele>
        <time>2013-09-13T12:31:51Z</time>
      </trkpt>
      <trkpt lat="42.012800" lon="0.792200">
        <ele>1845.0</ele>
        <time>2013-09-13T12:31:52Z</time>
      </trkpt>
      <trkpt lat="42.012833" lon="0.792133">
        <ele>1844.0</ele>
        <time>2013-09-13T12:31:53Z</time>
      </trkpt>
      <trkpt lat="42.012867" lon="0.792033">
        <ele>1842.0</ele>
        <time>2013-09-13T12:31:54Z</time>
      </trkpt>
      <trkpt lat="42.012917" lon="0.791950">
        <ele>1840.0</ele>
        <time>2013-09-13T12:31:55Z</time>
      </trkpt>
      <trkpt lat="42.012967" lon="0.791850">
        <ele>1837.0</ele>
        <time>2013-09-13T12:31:56Z</time>
      </trkpt>
      <trkpt lat="42.013017" lon="0.791750">
        <ele>1836.0</ele>
        <time>2013-09-13T12:31:57Z</time>
      </trkpt>
      <trkpt lat="42.013050" lon="0.791667">
        <ele>1835.0</ele>
        <time>2013-09-13T12:31:58Z</time>
      </trkpt>
      <trkpt lat="42.013083" lon="0.791583">
        <ele>1835.0</ele>
        <time>2013-09-13T12:31:59Z</time>
      </trkpt>
      <trkpt lat="42.013100" lon="0.791517">
        <ele>1835.0</ele>
        <time>2013-09-13T12:32:00Z</time>
      </trkpt>
      <trkpt lat="42.013133" lon="0.791433">
        <ele>1834.0</ele>
        <time>2013-09-13T12:32:01Z</time>
      </trkpt>
      <trkpt lat="42.013167" lon="0.791350">
        <ele>1834.0</ele>
        <time>2013-09-13T12:32:02Z</time>
      </trkpt>
      <trkpt lat="42.013200" lon="0.791267">
        <ele>1832.0</ele>
        <time>2013-09-13T12:32:03Z</time>
      </trkpt>
      <trkpt lat="42.013233" lon="0.791183">
        <ele>1830.0</ele>
        <time>2013-09-13T12:32:04Z</time>
      </trkpt>
      <trkpt lat="42.013267" lon="0.791083">
        <ele>1828.0</ele>
        <time>2013-09-13T12:32:05Z</time>
      </trkpt>
      <trkpt lat="42.013317" lon="0.791000">
        <ele>1826.0</ele>
        <time>2013-09-13T12:32:06Z</time>
      </trkpt>
      <trkpt lat="42.013350" lon="0.790917">
        <ele>1825.0</ele>
        <time>2013-09-13T12:32:07Z</time>
      </trkpt>
      <trkpt lat="42.013367" lon="0.790833">
        <ele>1824.0</ele>
        <time>2013-09-13T12:32:08Z</time>
      </trkpt>
      <trkpt lat="42.013400" lon="0.790750">
        <ele>1822.0</ele>
        <time>2013-09-13T12:32:09Z</time>
      </trkpt>
      <trkpt lat="42.013417" lon="0.790650">
        <ele>1820.0</ele>
        <time>2013-09-13T12:32:10Z</time>
      </trkpt>
      <trkpt lat="42.013450" lon="0.790567">
        <ele>1819.0</ele>
        <time>2013-09-13T12:32:11Z</time>
      </trkpt>
      <trkpt lat="42.013467" lon="0.790467">
        <ele>1817.0</ele>
        <time>2013-09-13T12:32:12Z</time>
      </trkpt>
      <trkpt lat="42.013483" lon="0.790383">
        <ele>1815.0</ele>
        <time>2013-09-13T12:32:13Z</time>
      </trkpt>
      <trkpt lat="42.013500" lon="0.790300">
        <ele>1814.0</ele>
        <time>2013-09-13T12:32:14Z</time>
      </trkpt>
      <trkpt lat="42.013500" lon="0.790217">
        <ele>1813.0</ele>
        <time>2013-09-13T12:32:15Z</time>
      </trkpt>
      <trkpt lat="42.013500" lon="0.790150">
        <ele>1811.0</ele>
        <time>2013-09-13T12:32:16Z</time>
      </trkpt>
      <trkpt lat="42.013500" lon="0.790050">
        <ele>1809.0</ele>
        <time>2013-09-13T12:32:17Z</time>
      </trkpt>
      <trkpt lat="42.013533" lon="0.789950">
        <ele>1806.0</ele>
        <time>2013-09-13T12:32:18Z</time>
      </trkpt>
      <trkpt lat="42.013567" lon="0.789850">
        <ele>1802.0</ele>
        <time>2013-09-13T12:32:19Z</time>
      </trkpt>
      <trkpt lat="42.013583" lon="0.789750">
        <ele>1800.0</ele>
        <time>2013-09-13T12:32:20Z</time>
      </trkpt>
      <trkpt lat="42.013600" lon="0.789667">
        <ele>1799.0</ele>
        <time>2013-09-13T12:32:21Z</time>
      </trkpt>
      <trkpt lat="42.013600" lon="0.789600">
        <ele>1798.0</ele>
        <time>2013-09-13T12:32:22Z</time>
      </trkpt>
      <trkpt lat="42.013600" lon="0.789517">
        <ele>1796.0</ele>
        <time>2013-09-13T12:32:23Z</time>
      </trkpt>
      <trkpt lat="42.013617" lon="0.789417">
        <ele>1793.0</ele>
        <time>2013-09-13T12:32:24Z</time>
      </trkpt>
      <trkpt lat="42.013633" lon="0.789300">
        <ele>1789.0</ele>
        <time>2013-09-13T12:32:25Z</time>
      </trkpt>
      <trkpt lat="42.013667" lon="0.789183">
        <ele>1785.0</ele>
        <time>2013-09-13T12:32:26Z</time>
      </trkpt>
      <trkpt lat="42.013667" lon="0.789083">
        <ele>1782.0</ele>
        <time>2013-09-13T12:32:27Z</time>
      </trkpt>
      <trkpt lat="42.013683" lon="0.788983">
        <ele>1781.0</ele>
        <time>2013-09-13T12:32:28Z</time>
      </trkpt>
      <trkpt lat="42.013683" lon="0.788883">
        <ele>1779.0</ele>
        <time>2013-09-13T12:32:29Z</time>
      </trkpt>
      <trkpt lat="42.013700" lon="0.788783">
        <ele>1777.0</ele>
        <time>2013-09-13T12:32:30Z</time>
      </trkpt>
      <trkpt lat="42.013717" lon="0.788667">
        <ele>1775.0</ele>
        <time>2013-09-13T12:32:31Z</time>
      </trkpt>
      <trkpt lat="42.013733" lon="0.788567">
        <ele>1775.0</ele>
        <time>2013-09-13T12:32:32Z</time>
      </trkpt>
      <trkpt lat="42.013733" lon="0.788467">
        <ele>1775.0</ele>
        <time>2013-09-13T12:32:33Z</time>
      </trkpt>
      <trkpt lat="42.013750" lon="0.788400">
        <ele>1776.0</ele>
        <time>2013-09-13T12:32:34Z</time>
      </trkpt>
      <trkpt lat="42.013767" lon="0.788300">
        <ele>1776.0</ele>
        <time>2013-09-13T12:32:35Z</time>
      </trkpt>
      <trkpt lat="42.013783" lon="0.788200">
        <ele>1775.0</ele>
        <time>2013-09-13T12:32:36Z</time>
      </trkpt>
      <trkpt lat="42.013833" lon="0.788100">
        <ele>1774.0</ele>
        <time>2013-09-13T12:32:37Z</time>
      </trkpt>
      <trkpt lat="42.013867" lon="0.788000">
        <ele>1774.0</ele>
        <time>2013-09-13T12:32:38Z</time>
      </trkpt>
      <trkpt lat="42.013900" lon="0.787917">
        <ele>1775.0</ele>
        <time>2013-09-13T12:32:39Z</time>
      </trkpt>
      <trkpt lat="42.013933" lon="0.787833">
        <ele>1776.0</ele>
        <time>2013-09-13T12:32:40Z</time>
      </trkpt>
      <trkpt lat="42.013967" lon="0.787750">
        <ele>1776.0</ele>
        <time>2013-09-13T12:32:41Z</time>
      </trkpt>
      <trkpt lat="42.014000" lon="0.787650">
        <ele>1775.0</ele>
        <time>2013-09-13T12:32:42Z</time>
      </trkpt>
      <trkpt lat="42.014050" lon="0.787550">
        <ele>1774.0</ele>
        <time>2013-09-13T12:32:43Z</time>
      </trkpt>
      <trkpt lat="42.014100" lon="0.787450">
        <ele>1774.0</ele>
        <time>2013-09-13T12:32:44Z</time>
      </trkpt>
      <trkpt lat="42.014133" lon="0.787367">
        <ele>1774.0</ele>
        <time>2013-09-13T12:32:45Z</time>
      </trkpt>
      <trkpt lat="42.014183" lon="0.787283">
        <ele>1774.0</ele>
        <time>2013-09-13T12:32:46Z</time>
      </trkpt>
      <trkpt lat="42.014233" lon="0.787200">
        <ele>1773.0</ele>
        <time>2013-09-13T12:32:47Z</time>
      </trkpt>
      <trkpt lat="42.014283" lon="0.787117">
        <ele>1773.0</ele>
        <time>2013-09-13T12:32:48Z</time>
      </trkpt>
      <trkpt lat="42.014317" lon="0.787033">
        <ele>1772.0</ele>
        <time>2013-09-13T12:32:49Z</time>
      </trkpt>
      <trkpt lat="42.014367" lon="0.786950">
        <ele>1772.0</ele>
        <time>2013-09-13T12:32:50Z</time>
      </trkpt>
      <trkpt lat="42.014400" lon="0.786883">
        <ele>1772.0</ele>
        <time>2013-09-13T12:32:51Z</time>
      </trkpt>
      <trkpt lat="42.014450" lon="0.786817">
        <ele>1771.0</ele>
        <time>2013-09-13T12:32:52Z</time>
      </trkpt>
      <trkpt lat="42.014483" lon="0.786750">
        <ele>1770.0</ele>
        <time>2013-09-13T12:32:53Z</time>
      </trkpt>
      <trkpt lat="42.014533" lon="0.786683">
        <ele>1769.0</ele>
        <time>2013-09-13T12:32:54Z</time>
      </trkpt>
      <trkpt lat="42.014583" lon="0.786617">
        <ele>1767.0</ele>
        <time>2013-09-13T12:32:55Z</time>
      </trkpt>
      <trkpt lat="42.014633" lon="0.786550">
        <ele>1765.0</ele>
        <time>2013-09-13T12:32:56Z</time>
      </trkpt>
      <trkpt lat="42.014683" lon="0.786483">
        <ele>1764.0</ele>
        <time>2013-09-13T12:32:57Z</time>
      </trkpt>
      <trkpt lat="42.014733" lon="0.786400">
        <ele>1762.0</ele>
        <time>2013-09-13T12:32:58Z</time>
      </trkpt>
      <trkpt lat="42.014833" lon="0.786250">
        <ele>1759.0</ele>
        <time>2013-09-13T12:33:00Z</time>
      </trkpt>
      <trkpt lat="42.014883" lon="0.786183">
        <ele>1758.0</ele>
        <time>2013-09-13T12:33:01Z</time>
      </trkpt>
      <trkpt lat="42.014917" lon="0.786100">
        <ele>1758.0</ele>
        <time>2013-09-13T12:33:02Z</time>
      </trkpt>
      <trkpt lat="42.014967" lon="0.786033">
        <ele>1758.0</ele>
        <time>2013-09-13T12:33:03Z</time>
      </trkpt>
      <trkpt lat="42.015000" lon="0.785967">
        <ele>1758.0</ele>
        <time>2013-09-13T12:33:04Z</time>
      </trkpt>
      <trkpt lat="42.015050" lon="0.785900">
        <ele>1757.0</ele>
        <time>2013-09-13T12:33:05Z</time>
      </trkpt>
      <trkpt lat="42.015083" lon="0.785833">
        <ele>1757.0</ele>
        <time>2013-09-13T12:33:06Z</time>
      </trkpt>
      <trkpt lat="42.015133" lon="0.785800">
        <ele>1756.0</ele>
        <time>2013-09-13T12:33:07Z</time>
      </trkpt>
      <trkpt lat="42.015167" lon="0.785767">
        <ele>1755.0</ele>
        <time>2013-09-13T12:33:08Z</time>
      </trkpt>
      <trkpt lat="42.015217" lon="0.785717">
        <ele>1754.0</ele>
        <time>2013-09-13T12:33:09Z</time>
      </trkpt>
      <trkpt lat="42.015267" lon="0.785667">
        <ele>1752.0</ele>
        <time>2013-09-13T12:33:10Z</time>
      </trkpt>
      <trkpt lat="42.015317" lon="0.785617">
        <ele>1750.0</ele>
        <time>2013-09-13T12:33:11Z</time>
      </trkpt>
      <trkpt lat="42.015367" lon="0.785583">
        <ele>1749.0</ele>
        <time>2013-09-13T12:33:12Z</time>
      </trkpt>
      <trkpt lat="42.015400" lon="0.785550">
        <ele>1748.0</ele>
        <time>2013-09-13T12:33:13Z</time>
      </trkpt>
      <trkpt lat="42.015450" lon="0.785500">
        <ele>1746.0</ele>
        <time>2013-09-13T12:33:14Z</time>
      </trkpt>
      <trkpt lat="42.015500" lon="0.785467">
        <ele>1744.0</ele>
        <time>2013-09-13T12:33:15Z</time>
      </trkpt>
      <trkpt lat="42.015550" lon="0.785433">
        <ele>1742.0</ele>
        <time>2013-09-13T12:33:16Z</time>
      </trkpt>
      <trkpt lat="42.015617" lon="0.785400">
        <ele>1740.0</ele>
        <time>2013-09-13T12:33:17Z</time>
      </trkpt>
      <trkpt lat="42.015667" lon="0.785383">
        <ele>1739.0</ele>
        <time>2013-09-13T12:33:18Z</time>
      </trkpt>
      <trkpt lat="42.015717" lon="0.785367">
        <ele>1740.0</ele>
        <time>2013-09-13T12:33:19Z</time>
      </trkpt>
      <trkpt lat="42.015767" lon="0.785367">
        <ele>1739.0</ele>
        <time>2013-09-13T12:33:20Z</time>
      </trkpt>
      <trkpt lat="42.015817" lon="0.785333">
        <ele>1738.0</ele>
        <time>2013-09-13T12:33:21Z</time>
      </trkpt>
      <trkpt lat="42.015867" lon="0.785300">
        <ele>1735.0</ele>
        <time>2013-09-13T12:33:22Z</time>
      </trkpt>
      <trkpt lat="42.015933" lon="0.785267">
        <ele>1732.0</ele>
        <time>2013-09-13T12:33:23Z</time>
      </trkpt>
      <trkpt lat="42.016000" lon="0.785233">
        <ele>1730.0</ele>
        <time>2013-09-13T12:33:24Z</time>
      </trkpt>
      <trkpt lat="42.016050" lon="0.785200">
        <ele>1729.0</ele>
        <time>2013-09-13T12:33:25Z</time>
      </trkpt>
      <trkpt lat="42.016117" lon="0.785183">
        <ele>1727.0</ele>
        <time>2013-09-13T12:33:26Z</time>
      </trkpt>
      <trkpt lat="42.016167" lon="0.785167">
        <ele>1725.0</ele>
        <time>2013-09-13T12:33:27Z</time>
      </trkpt>
      <trkpt lat="42.016233" lon="0.785133">
        <ele>1723.0</ele>
        <time>2013-09-13T12:33:28Z</time>
      </trkpt>
      <trkpt lat="42.016283" lon="0.785083">
        <ele>1720.0</ele>
        <time>2013-09-13T12:33:29Z</time>
      </trkpt>
      <trkpt lat="42.016350" lon="0.785033">
        <ele>1718.0</ele>
        <time>2013-09-13T12:33:30Z</time>
      </trkpt>
      <trkpt lat="42.016417" lon="0.785000">
        <ele>1716.0</ele>
        <time>2013-09-13T12:33:31Z</time>
      </trkpt>
      <trkpt lat="42.016467" lon="0.784950">
        <ele>1714.0</ele>
        <time>2013-09-13T12:33:32Z</time>
      </trkpt>
      <trkpt lat="42.016517" lon="0.784917">
        <ele>1712.0</ele>
        <time>2013-09-13T12:33:33Z</time>
      </trkpt>
      <trkpt lat="42.016567" lon="0.784867">
        <ele>1711.0</ele>
        <time>2013-09-13T12:33:34Z</time>
      </trkpt>
      <trkpt lat="42.016617" lon="0.784817">
        <ele>1709.0</ele>
        <time>2013-09-13T12:33:35Z</time>
      </trkpt>
      <trkpt lat="42.016683" lon="0.784767">
        <ele>1706.0</ele>
        <time>2013-09-13T12:33:36Z</time>
      </trkpt>
      <trkpt lat="42.016750" lon="0.784717">
        <ele>1705.0</ele>
        <time>2013-09-13T12:33:37Z</time>
      </trkpt>
      <trkpt lat="42.016800" lon="0.784683">
        <ele>1703.0</ele>
        <time>2013-09-13T12:33:38Z</time>
      </trkpt>
      <trkpt lat="42.016850" lon="0.784650">
        <ele>1702.0</ele>
        <time>2013-09-13T12:33:39Z</time>
      </trkpt>
      <trkpt lat="42.016883" lon="0.784600">
        <ele>1701.0</ele>
        <time>2013-09-13T12:33:40Z</time>
      </trkpt>
      <trkpt lat="42.016950" lon="0.784533">
        <ele>1699.0</ele>
        <time>2013-09-13T12:33:41Z</time>
      </trkpt>
      <trkpt lat="42.017017" lon="0.784483">
        <ele>1697.0</ele>
        <time>2013-09-13T12:33:42Z</time>
      </trkpt>
      <trkpt lat="42.017067" lon="0.784433">
        <ele>1696.0</ele>
        <time>2013-09-13T12:33:43Z</time>
      </trkpt>
      <trkpt lat="42.017133" lon="0.784400">
        <ele>1696.0</ele>
        <time>2013-09-13T12:33:44Z</time>
      </trkpt>
      <trkpt lat="42.017167" lon="0.784367">
        <ele>1695.0</ele>
        <time>2013-09-13T12:33:45Z</time>
      </trkpt>
      <trkpt lat="42.017217" lon="0.784317">
        <ele>1695.0</ele>
        <time>2013-09-13T12:33:46Z</time>
      </trkpt>
      <trkpt lat="42.017250" lon="0.784267">
        <ele>1693.0</ele>
        <time>2013-09-13T12:33:47Z</time>
      </trkpt>
      <trkpt lat="42.017300" lon="0.784200">
        <ele>1690.0</ele>
        <time>2013-09-13T12:33:48Z</time>
      </trkpt>
      <trkpt lat="42.017350" lon="0.784133">
        <ele>1688.0</ele>
        <time>2013-09-13T12:33:49Z</time>
      </trkpt>
      <trkpt lat="42.017417" lon="0.784083">
        <ele>1687.0</ele>
        <time>2013-09-13T12:33:50Z</time>
      </trkpt>
      <trkpt lat="42.017467" lon="0.784050">
        <ele>1687.0</ele>
        <time>2013-09-13T12:33:51Z</time>
      </trkpt>
      <trkpt lat="42.017500" lon="0.784017">
        <ele>1686.0</ele>
        <time>2013-09-13T12:33:52Z</time>
      </trkpt>
      <trkpt lat="42.017550" lon="0.783967">
        <ele>1684.0</ele>
        <time>2013-09-13T12:33:53Z</time>
      </trkpt>
      <trkpt lat="42.017600" lon="0.783917">
        <ele>1682.0</ele>
        <time>2013-09-13T12:33:54Z</time>
      </trkpt>
      <trkpt lat="42.017650" lon="0.783867">
        <ele>1680.0</ele>
        <time>2013-09-13T12:33:55Z</time>
      </trkpt>
      <trkpt lat="42.017700" lon="0.783817">
        <ele>1677.0</ele>
        <time>2013-09-13T12:33:56Z</time>
      </trkpt>
      <trkpt lat="42.017750" lon="0.783767">
        <ele>1675.0</ele>
        <time>2013-09-13T12:33:57Z</time>
      </trkpt>
      <trkpt lat="42.017800" lon="0.783717">
        <ele>1672.0</ele>
        <time>2013-09-13T12:33:58Z</time>
      </trkpt>
      <trkpt lat="42.017850" lon="0.783667">
        <ele>1669.0</ele>
        <time>2013-09-13T12:33:59Z</time>
      </trkpt>
      <trkpt lat="42.017900" lon="0.783600">
        <ele>1666.0</ele>
        <time>2013-09-13T12:34:00Z</time>
      </trkpt>
      <trkpt lat="42.017950" lon="0.783533">
        <ele>1663.0</ele>
        <time>2013-09-13T12:34:01Z</time>
      </trkpt>
      <trkpt lat="42.018000" lon="0.783450">
        <ele>1660.0</ele>
        <time>2013-09-13T12:34:02Z</time>
      </trkpt>
      <trkpt lat="42.018050" lon="0.783400">
        <ele>1658.0</ele>
        <time>2013-09-13T12:34:03Z</time>
      </trkpt>
      <trkpt lat="42.018133" lon="0.783300">
        <ele>1656.0</ele>
        <time>2013-09-13T12:34:05Z</time>
      </trkpt>
      <trkpt lat="42.018183" lon="0.783250">
        <ele>1655.0</ele>
        <time>2013-09-13T12:34:06Z</time>
      </trkpt>
      <trkpt lat="42.018217" lon="0.783200">
        <ele>1654.0</ele>
        <time>2013-09-13T12:34:07Z</time>
      </trkpt>
      <trkpt lat="42.018267" lon="0.783150">
        <ele>1651.0</ele>
        <time>2013-09-13T12:34:08Z</time>
      </trkpt>
      <trkpt lat="42.018317" lon="0.783100">
        <ele>1649.0</ele>
        <time>2013-09-13T12:34:09Z</time>
      </trkpt>
      <trkpt lat="42.018367" lon="0.783050">
        <ele>1648.0</ele>
        <time>2013-09-13T12:34:10Z</time>
      </trkpt>
      <trkpt lat="42.018417" lon="0.783000">
        <ele>1648.0</ele>
        <time>2013-09-13T12:34:11Z</time>
      </trkpt>
      <trkpt lat="42.018450" lon="0.782967">
        <ele>1647.0</ele>
        <time>2013-09-13T12:34:12Z</time>
      </trkpt>
      <trkpt lat="42.018500" lon="0.782900">
        <ele>1645.0</ele>
        <time>2013-09-13T12:34:13Z</time>
      </trkpt>
      <trkpt lat="42.018567" lon="0.782833">
        <ele>1644.0</ele>
        <time>2013-09-13T12:34:14Z</time>
      </trkpt>
      <trkpt lat="42.018617" lon="0.782783">
        <ele>1643.0</ele>
        <time>2013-09-13T12:34:15Z</time>
      </trkpt>
      <trkpt lat="42.018667" lon="0.782733">
        <ele>1644.0</ele>
        <time>2013-09-13T12:34:16Z</time>
      </trkpt>
      <trkpt lat="42.018717" lon="0.782700">
        <ele>1644.0</ele>
        <time>2013-09-13T12:34:17Z</time>
      </trkpt>
      <trkpt lat="42.018750" lon="0.782633">
        <ele>1643.0</ele>
        <time>2013-09-13T12:34:18Z</time>
      </trkpt>
      <trkpt lat="42.018817" lon="0.782583">
        <ele>1642.0</ele>
        <time>2013-09-13T12:34:19Z</time>
      </trkpt>
      <trkpt lat="42.018867" lon="0.782517">
        <ele>1641.0</ele>
        <time>2013-09-13T12:34:20Z</time>
      </trkpt>
      <trkpt lat="42.018917" lon="0.782467">
        <ele>1641.0</ele>
        <time>2013-09-13T12:34:21Z</time>
      </trkpt>
      <trkpt lat="42.018967" lon="0.782433">
        <ele>1641.0</ele>
        <time>2013-09-13T12:34:22Z</time>
      </trkpt>
      <trkpt lat="42.019017" lon="0.782383">
        <ele>1640.0</ele>
        <time>2013-09-13T12:34:23Z</time>
      </trkpt>
      <trkpt lat="42.019067" lon="0.782333">
        <ele>1640.0</ele>
        <time>2013-09-13T12:34:24Z</time>
      </trkpt>
      <trkpt lat="42.019100" lon="0.782283">
        <ele>1639.0</ele>
        <time>2013-09-13T12:34:25Z</time>
      </trkpt>
      <trkpt lat="42.019150" lon="0.782233">
        <ele>1639.0</ele>
        <time>2013-09-13T12:34:26Z</time>
      </trkpt>
      <trkpt lat="42.019200" lon="0.782167">
        <ele>1638.0</ele>
        <time>2013-09-13T12:34:27Z</time>
      </trkpt>
      <trkpt lat="42.019250" lon="0.782100">
        <ele>1637.0</ele>
        <time>2013-09-13T12:34:28Z</time>
      </trkpt>
      <trkpt lat="42.019300" lon="0.782050">
        <ele>1636.0</ele>
        <time>2013-09-13T12:34:29Z</time>
      </trkpt>
      <trkpt lat="42.019350" lon="0.781983">
        <ele>1637.0</ele>
        <time>2013-09-13T12:34:30Z</time>
      </trkpt>
      <trkpt lat="42.019383" lon="0.781933">
        <ele>1637.0</ele>
        <time>2013-09-13T12:34:31Z</time>
      </trkpt>
      <trkpt lat="42.019433" lon="0.781883">
        <ele>1638.0</ele>
        <time>2013-09-13T12:34:32Z</time>
      </trkpt>
      <trkpt lat="42.019483" lon="0.781817">
        <ele>1639.0</ele>
        <time>2013-09-13T12:34:33Z</time>
      </trkpt>
      <trkpt lat="42.019533" lon="0.781767">
        <ele>1639.0</ele>
        <time>2013-09-13T12:34:34Z</time>
      </trkpt>
      <trkpt lat="42.019583" lon="0.781700">
        <ele>1638.0</ele>
        <time>2013-09-13T12:34:35Z</time>
      </trkpt>
      <trkpt lat="42.019633" lon="0.781633">
        <ele>1638.0</ele>
        <time>2013-09-13T12:34:36Z</time>
      </trkpt>
      <trkpt lat="42.019700" lon="0.781567">
        <ele>1638.0</ele>
        <time>2013-09-13T12:34:37Z</time>
      </trkpt>
      <trkpt lat="42.019750" lon="0.781517">
        <ele>1638.0</ele>
        <time>2013-09-13T12:34:38Z</time>
      </trkpt>
      <trkpt lat="42.019800" lon="0.781467">
        <ele>1638.0</ele>
        <time>2013-09-13T12:34:39Z</time>
      </trkpt>
      <trkpt lat="42.019867" lon="0.781400">
        <ele>1638.0</ele>
        <time>2013-09-13T12:34:40Z</time>
      </trkpt>
      <trkpt lat="42.019933" lon="0.781333">
        <ele>1638.0</ele>
        <time>2013-09-13T12:34:41Z</time>
      </trkpt>
      <trkpt lat="42.020000" lon="0.781267">
        <ele>1637.0</ele>
        <time>2013-09-13T12:34:42Z</time>
      </trkpt>
      <trkpt lat="42.020050" lon="0.781200">
        <ele>1637.0</ele>
        <time>2013-09-13T12:34:43Z</time>
      </trkpt>
      <trkpt lat="42.020117" lon="0.781133">
        <ele>1638.0</ele>
        <time>2013-09-13T12:34:44Z</time>
      </trkpt>
      <trkpt lat="42.020233" lon="0.781000">
        <ele>1639.0</ele>
        <time>2013-09-13T12:34:46Z</time>
      </trkpt>
      <trkpt lat="42.020283" lon="0.780933">
        <ele>1639.0</ele>
        <time>2013-09-13T12:34:47Z</time>
      </trkpt>
      <trkpt lat="42.020350" lon="0.780867">
        <ele>1639.0</ele>
        <time>2013-09-13T12:34:48Z</time>
      </trkpt>
      <trkpt lat="42.020417" lon="0.780783">
        <ele>1639.0</ele>
        <time>2013-09-13T12:34:49Z</time>
      </trkpt>
      <trkpt lat="42.020467" lon="0.780717">
        <ele>1639.0</ele>
        <time>2013-09-13T12:34:50Z</time>
      </trkpt>
      <trkpt lat="42.020533" lon="0.780650">
        <ele>1641.0</ele>
        <time>2013-09-13T12:34:51Z</time>
      </trkpt>
      <trkpt lat="42.020567" lon="0.780583">
        <ele>1642.0</ele>
        <time>2013-09-13T12:34:52Z</time>
      </trkpt>
      <trkpt lat="42.020617" lon="0.780517">
        <ele>1643.0</ele>
        <time>2013-09-13T12:34:53Z</time>
      </trkpt>
      <trkpt lat="42.020683" lon="0.780450">
        <ele>1644.0</ele>
        <time>2013-09-13T12:34:54Z</time>
      </trkpt>
      <trkpt lat="42.020750" lon="0.780383">
        <ele>1644.0</ele>
        <time>2013-09-13T12:34:55Z</time>
      </trkpt>
      <trkpt lat="42.020833" lon="0.780300">
        <ele>1644.0</ele>
        <time>2013-09-13T12:34:56Z</time>
      </trkpt>
      <trkpt lat="42.020900" lon="0.780233">
        <ele>1645.0</ele>
        <time>2013-09-13T12:34:57Z</time>
      </trkpt>
      <trkpt lat="42.020983" lon="0.780167">
        <ele>1646.0</ele>
        <time>2013-09-13T12:34:58Z</time>
      </trkpt>
      <trkpt lat="42.021050" lon="0.780100">
        <ele>1646.0</ele>
        <time>2013-09-13T12:34:59Z</time>
      </trkpt>
      <trkpt lat="42.021117" lon="0.780017">
        <ele>1647.0</ele>
        <time>2013-09-13T12:35:00Z</time>
      </trkpt>
      <trkpt lat="42.021183" lon="0.779950">
        <ele>1648.0</ele>
        <time>2013-09-13T12:35:01Z</time>
      </trkpt>
      <trkpt lat="42.021233" lon="0.779867">
        <ele>1649.0</ele>
        <time>2013-09-13T12:35:02Z</time>
      </trkpt>
      <trkpt lat="42.021267" lon="0.779783">
        <ele>1650.0</ele>
        <time>2013-09-13T12:35:03Z</time>
      </trkpt>
      <trkpt lat="42.021317" lon="0.779700">
        <ele>1651.0</ele>
        <time>2013-09-13T12:35:04Z</time>
      </trkpt>
      <trkpt lat="42.021350" lon="0.779633">
        <ele>1651.0</ele>
        <time>2013-09-13T12:35:05Z</time>
      </trkpt>
      <trkpt lat="42.021400" lon="0.779550">
        <ele>1652.0</ele>
        <time>2013-09-13T12:35:06Z</time>
      </trkpt>
      <trkpt lat="42.021433" lon="0.779467">
        <ele>1652.0</ele>
        <time>2013-09-13T12:35:07Z</time>
      </trkpt>
      <trkpt lat="42.021483" lon="0.779383">
        <ele>1653.0</ele>
        <time>2013-09-13T12:35:08Z</time>
      </trkpt>
      <trkpt lat="42.021517" lon="0.779300">
        <ele>1653.0</ele>
        <time>2013-09-13T12:35:09Z</time>
      </trkpt>
      <trkpt lat="42.021550" lon="0.779217">
        <ele>1654.0</ele>
        <time>2013-09-13T12:35:10Z</time>
      </trkpt>
      <trkpt lat="42.021583" lon="0.779133">
        <ele>1655.0</ele>
        <time>2013-09-13T12:35:11Z</time>
      </trkpt>
      <trkpt lat="42.021617" lon="0.779050">
        <ele>1656.0</ele>
        <time>2013-09-13T12:35:12Z</time>
      </trkpt>
      <trkpt lat="42.021650" lon="0.778967">
        <ele>1657.0</ele>
        <time>2013-09-13T12:35:13Z</time>
      </trkpt>
      <trkpt lat="42.021683" lon="0.778883">
        <ele>1657.0</ele>
        <time>2013-09-13T12:35:14Z</time>
      </trkpt>
      <trkpt lat="42.021733" lon="0.778800">
        <ele>1658.0</ele>
        <time>2013-09-13T12:35:15Z</time>
      </trkpt>
      <trkpt lat="42.021783" lon="0.778733">
        <ele>1659.0</ele>
        <time>2013-09-13T12:35:16Z</time>
      </trkpt>
      <trkpt lat="42.021850" lon="0.778700">
        <ele>1660.0</ele>
        <time>2013-09-13T12:35:17Z</time>
      </trkpt>
      <trkpt lat="42.021933" lon="0.778717">
        <ele>1659.0</ele>
        <time>2013-09-13T12:35:18Z</time>
      </trkpt>
      <trkpt lat="42.022017" lon="0.778733">
        <ele>1657.0</ele>
        <time>2013-09-13T12:35:19Z</time>
      </trkpt>
      <trkpt lat="42.022083" lon="0.778783">
        <ele>1656.0</ele>
        <time>2013-09-13T12:35:20Z</time>
      </trkpt>
      <trkpt lat="42.022150" lon="0.778867">
        <ele>1656.0</ele>
        <time>2013-09-13T12:35:21Z</time>
      </trkpt>
      <trkpt lat="42.022200" lon="0.778967">
        <ele>1655.0</ele>
        <time>2013-09-13T12:35:22Z</time>
      </trkpt>
      <trkpt lat="42.022233" lon="0.779100">
        <ele>1655.0</ele>
        <time>2013-09-13T12:35:23Z</time>
      </trkpt>
      <trkpt lat="42.022233" lon="0.779250">
        <ele>1654.0</ele>
        <time>2013-09-13T12:35:24Z</time>
      </trkpt>
      <trkpt lat="42.022217" lon="0.779367">
        <ele>1653.0</ele>
        <time>2013-09-13T12:35:25Z</time>
      </trkpt>
      <trkpt lat="42.022167" lon="0.779483">
        <ele>1653.0</ele>
        <time>2013-09-13T12:35:26Z</time>
      </trkpt>
      <trkpt lat="42.022117" lon="0.779567">
        <ele>1653.0</ele>
        <time>2013-09-13T12:35:27Z</time>
      </trkpt>
      <trkpt lat="42.022033" lon="0.779617">
        <ele>1652.0</ele>
        <time>2013-09-13T12:35:28Z</time>
      </trkpt>
      <trkpt lat="42.021950" lon="0.779633">
        <ele>1652.0</ele>
        <time>2013-09-13T12:35:29Z</time>
      </trkpt>
      <trkpt lat="42.021883" lon="0.779617">
        <ele>1652.0</ele>
        <time>2013-09-13T12:35:30Z</time>
      </trkpt>
      <trkpt lat="42.021817" lon="0.779583">
        <ele>1652.0</ele>
        <time>2013-09-13T12:35:31Z</time>
      </trkpt>
      <trkpt lat="42.021767" lon="0.779517">
        <ele>1653.0</ele>
        <time>2013-09-13T12:35:32Z</time>
      </trkpt>
      <trkpt lat="42.021750" lon="0.779433">
        <ele>1654.0</ele>
        <time>2013-09-13T12:35:33Z</time>
      </trkpt>
      <trkpt lat="42.021733" lon="0.779350">
        <ele>1654.0</ele>
        <time>2013-09-13T12:35:34Z</time>
      </trkpt>
      <trkpt lat="42.021733" lon="0.779267">
        <ele>1655.0</ele>
        <time>2013-09-13T12:35:35Z</time>
      </trkpt>
      <trkpt lat="42.021750" lon="0.779167">
        <ele>1655.0</ele>
        <time>2013-09-13T12:35:36Z</time>
      </trkpt>
      <trkpt lat="42.021750" lon="0.779067">
        <ele>1655.0</ele>
        <time>2013-09-13T12:35:37Z</time>
      </trkpt>
      <trkpt lat="42.021750" lon="0.778967">
        <ele>1655.0</ele>
        <time>2013-09-13T12:35:38Z</time>
      </trkpt>
      <trkpt lat="42.021767" lon="0.778883">
        <ele>1654.0</ele>
        <time>2013-09-13T12:35:39Z</time>
      </trkpt>
      <trkpt lat="42.021767" lon="0.778783">
        <ele>1654.0</ele>
        <time>2013-09-13T12:35:40Z</time>
      </trkpt>
      <trkpt lat="42.021783" lon="0.778683">
        <ele>1654.0</ele>
        <time>2013-09-13T12:35:41Z</time>
      </trkpt>
      <trkpt lat="42.021783" lon="0.778583">
        <ele>1653.0</ele>
        <time>2013-09-13T12:35:42Z</time>
      </trkpt>
      <trkpt lat="42.021800" lon="0.778500">
        <ele>1654.0</ele>
        <time>2013-09-13T12:35:43Z</time>
      </trkpt>
      <trkpt lat="42.021800" lon="0.778417">
        <ele>1654.0</ele>
        <time>2013-09-13T12:35:44Z</time>
      </trkpt>
      <trkpt lat="42.021817" lon="0.778317">
        <ele>1655.0</ele>
        <time>2013-09-13T12:35:45Z</time>
      </trkpt>
      <trkpt lat="42.021833" lon="0.778233">
        <ele>1656.0</ele>
        <time>2013-09-13T12:35:46Z</time>
      </trkpt>
      <trkpt lat="42.021850" lon="0.778167">
        <ele>1657.0</ele>
        <time>2013-09-13T12:35:47Z</time>
      </trkpt>
      <trkpt lat="42.021867" lon="0.778083">
        <ele>1657.0</ele>
        <time>2013-09-13T12:35:48Z</time>
      </trkpt>
      <trkpt lat="42.021883" lon="0.778000">
        <ele>1657.0</ele>
        <time>2013-09-13T12:35:49Z</time>
      </trkpt>
      <trkpt lat="42.021900" lon="0.777900">
        <ele>1656.0</ele>
        <time>2013-09-13T12:35:50Z</time>
      </trkpt>
      <trkpt lat="42.021917" lon="0.777800">
        <ele>1656.0</ele>
        <time>2013-09-13T12:35:51Z</time>
      </trkpt>
      <trkpt lat="42.021950" lon="0.777683">
        <ele>1655.0</ele>
        <time>2013-09-13T12:35:52Z</time>
      </trkpt>
      <trkpt lat="42.021967" lon="0.777600">
        <ele>1655.0</ele>
        <time>2013-09-13T12:35:53Z</time>
      </trkpt>
      <trkpt lat="42.022000" lon="0.777517">
        <ele>1656.0</ele>
        <time>2013-09-13T12:35:54Z</time>
      </trkpt>
      <trkpt lat="42.022050" lon="0.777433">
        <ele>1655.0</ele>
        <time>2013-09-13T12:35:55Z</time>
      </trkpt>
      <trkpt lat="42.022083" lon="0.777333">
        <ele>1655.0</ele>
        <time>2013-09-13T12:35:56Z</time>
      </trkpt>
      <trkpt lat="42.022150" lon="0.777250">
        <ele>1654.0</ele>
        <time>2013-09-13T12:35:57Z</time>
      </trkpt>
      <trkpt lat="42.022183" lon="0.777167">
        <ele>1654.0</ele>
        <time>2013-09-13T12:35:58Z</time>
      </trkpt>
      <trkpt lat="42.022233" lon="0.777100">
        <ele>1656.0</ele>
        <time>2013-09-13T12:35:59Z</time>
      </trkpt>
      <trkpt lat="42.022283" lon="0.777017">
        <ele>1657.0</ele>
        <time>2013-09-13T12:36:00Z</time>
      </trkpt>
      <trkpt lat="42.022333" lon="0.776950">
        <ele>1659.0</ele>
        <time>2013-09-13T12:36:01Z</time>
      </trkpt>
      <trkpt lat="42.022367" lon="0.776883">
        <ele>1661.0</ele>
        <time>2013-09-13T12:36:02Z</time>
      </trkpt>
      <trkpt lat="42.022383" lon="0.776800">
        <ele>1663.0</ele>
        <time>2013-09-13T12:36:03Z</time>
      </trkpt>
      <trkpt lat="42.022417" lon="0.776750">
        <ele>1664.0</ele>
        <time>2013-09-13T12:36:04Z</time>
      </trkpt>
      <trkpt lat="42.022433" lon="0.776683">
        <ele>1663.0</ele>
        <time>2013-09-13T12:36:05Z</time>
      </trkpt>
      <trkpt lat="42.022467" lon="0.776583">
        <ele>1662.0</ele>
        <time>2013-09-13T12:36:06Z</time>
      </trkpt>
      <trkpt lat="42.022500" lon="0.776483">
        <ele>1661.0</ele>
        <time>2013-09-13T12:36:07Z</time>
      </trkpt>
      <trkpt lat="42.022550" lon="0.776400">
        <ele>1661.0</ele>
        <time>2013-09-13T12:36:08Z</time>
      </trkpt>
      <trkpt lat="42.022583" lon="0.776333">
        <ele>1663.0</ele>
        <time>2013-09-13T12:36:09Z</time>
      </trkpt>
      <trkpt lat="42.022617" lon="0.776267">
        <ele>1664.0</ele>
        <time>2013-09-13T12:36:10Z</time>
      </trkpt>
      <trkpt lat="42.022633" lon="0.776200">
        <ele>1665.0</ele>
        <time>2013-09-13T12:36:11Z</time>
      </trkpt>
      <trkpt lat="42.022667" lon="0.776117">
        <ele>1664.0</ele>
        <time>2013-09-13T12:36:12Z</time>
      </trkpt>
      <trkpt lat="42.022717" lon="0.776017">
        <ele>1664.0</ele>
        <time>2013-09-13T12:36:13Z</time>
      </trkpt>
      <trkpt lat="42.022767" lon="0.775917">
        <ele>1664.0</ele>
        <time>2013-09-13T12:36:14Z</time>
      </trkpt>
      <trkpt lat="42.022817" lon="0.775850">
        <ele>1665.0</ele>
        <time>2013-09-13T12:36:15Z</time>
      </trkpt>
      <trkpt lat="42.022883" lon="0.775783">
        <ele>1665.0</ele>
        <time>2013-09-13T12:36:16Z</time>
      </trkpt>
      <trkpt lat="42.022933" lon="0.775717">
        <ele>1665.0</ele>
        <time>2013-09-13T12:36:17Z</time>
      </trkpt>
      <trkpt lat="42.022983" lon="0.775633">
        <ele>1665.0</ele>
        <time>2013-09-13T12:36:18Z</time>
      </trkpt>
      <trkpt lat="42.023050" lon="0.775567">
        <ele>1664.0</ele>
        <time>2013-09-13T12:36:19Z</time>
      </trkpt>
      <trkpt lat="42.023133" lon="0.775483">
        <ele>1665.0</ele>
        <time>2013-09-13T12:36:20Z</time>
      </trkpt>
      <trkpt lat="42.023217" lon="0.775433">
        <ele>1667.0</ele>
        <time>2013-09-13T12:36:21Z</time>
      </trkpt>
      <trkpt lat="42.023283" lon="0.775400">
        <ele>1670.0</ele>
        <time>2013-09-13T12:36:22Z</time>
      </trkpt>
      <trkpt lat="42.023333" lon="0.775367">
        <ele>1673.0</ele>
        <time>2013-09-13T12:36:23Z</time>
      </trkpt>
      <trkpt lat="42.023400" lon="0.775317">
        <ele>1674.0</ele>
        <time>2013-09-13T12:36:24Z</time>
      </trkpt>
      <trkpt lat="42.023450" lon="0.775233">
        <ele>1674.0</ele>
        <time>2013-09-13T12:36:25Z</time>
      </trkpt>
      <trkpt lat="42.023533" lon="0.775083">
        <ele>1674.0</ele>
        <time>2013-09-13T12:36:27Z</time>
      </trkpt>
      <trkpt lat="42.023567" lon="0.775017">
        <ele>1674.0</ele>
        <time>2013-09-13T12:36:28Z</time>
      </trkpt>
      <trkpt lat="42.023617" lon="0.774950">
        <ele>1673.0</ele>
        <time>2013-09-13T12:36:29Z</time>
      </trkpt>
      <trkpt lat="42.023667" lon="0.774883">
        <ele>1671.0</ele>
        <time>2013-09-13T12:36:30Z</time>
      </trkpt>
      <trkpt lat="42.023733" lon="0.774783">
        <ele>1668.0</ele>
        <time>2013-09-13T12:36:31Z</time>
      </trkpt>
      <trkpt lat="42.023783" lon="0.774700">
        <ele>1665.0</ele>
        <time>2013-09-13T12:36:32Z</time>
      </trkpt>
      <trkpt lat="42.023850" lon="0.774617">
        <ele>1663.0</ele>
        <time>2013-09-13T12:36:33Z</time>
      </trkpt>
      <trkpt lat="42.023900" lon="0.774550">
        <ele>1662.0</ele>
        <time>2013-09-13T12:36:34Z</time>
      </trkpt>
      <trkpt lat="42.023950" lon="0.774483">
        <ele>1661.0</ele>
        <time>2013-09-13T12:36:35Z</time>
      </trkpt>
      <trkpt lat="42.024000" lon="0.774417">
        <ele>1659.0</ele>
        <time>2013-09-13T12:36:36Z</time>
      </trkpt>
      <trkpt lat="42.024067" lon="0.774333">
        <ele>1658.0</ele>
        <time>2013-09-13T12:36:37Z</time>
      </trkpt>
      <trkpt lat="42.024133" lon="0.774267">
        <ele>1658.0</ele>
        <time>2013-09-13T12:36:38Z</time>
      </trkpt>
      <trkpt lat="42.024200" lon="0.774233">
        <ele>1658.0</ele>
        <time>2013-09-13T12:36:39Z</time>
      </trkpt>
      <trkpt lat="42.024267" lon="0.774200">
        <ele>1658.0</ele>
        <time>2013-09-13T12:36:40Z</time>
      </trkpt>
      <trkpt lat="42.024350" lon="0.774183">
        <ele>1657.0</ele>
        <time>2013-09-13T12:36:41Z</time>
      </trkpt>
      <trkpt lat="42.024433" lon="0.774167">
        <ele>1655.0</ele>
        <time>2013-09-13T12:36:42Z</time>
      </trkpt>
      <trkpt lat="42.024533" lon="0.774150">
        <ele>1653.0</ele>
        <time>2013-09-13T12:36:43Z</time>
      </trkpt>
      <trkpt lat="42.024617" lon="0.774150">
        <ele>1652.0</ele>
        <time>2013-09-13T12:36:44Z</time>
      </trkpt>
      <trkpt lat="42.024717" lon="0.774133">
        <ele>1651.0</ele>
        <time>2013-09-13T12:36:45Z</time>
      </trkpt>
      <trkpt lat="42.024800" lon="0.774117">
        <ele>1650.0</ele>
        <time>2013-09-13T12:36:46Z</time>
      </trkpt>
      <trkpt lat="42.024900" lon="0.774117">
        <ele>1648.0</ele>
        <time>2013-09-13T12:36:47Z</time>
      </trkpt>
      <trkpt lat="42.025017" lon="0.774100">
        <ele>1646.0</ele>
        <time>2013-09-13T12:36:48Z</time>
      </trkpt>
      <trkpt lat="42.025117" lon="0.774100">
        <ele>1644.0</ele>
        <time>2013-09-13T12:36:49Z</time>
      </trkpt>
      <trkpt lat="42.025233" lon="0.774117">
        <ele>1643.0</ele>
        <time>2013-09-13T12:36:50Z</time>
      </trkpt>
      <trkpt lat="42.025333" lon="0.774133">
        <ele>1642.0</ele>
        <time>2013-09-13T12:36:51Z</time>
      </trkpt>
      <trkpt lat="42.025433" lon="0.774167">
        <ele>1642.0</ele>
        <time>2013-09-13T12:36:52Z</time>
      </trkpt>
      <trkpt lat="42.025517" lon="0.774200">
        <ele>1642.0</ele>
        <time>2013-09-13T12:36:53Z</time>
      </trkpt>
      <trkpt lat="42.025617" lon="0.774250">
        <ele>1641.0</ele>
        <time>2013-09-13T12:36:54Z</time>
      </trkpt>
      <trkpt lat="42.025700" lon="0.774333">
        <ele>1640.0</ele>
        <time>2013-09-13T12:36:55Z</time>
      </trkpt>
      <trkpt lat="42.025783" lon="0.774417">
        <ele>1639.0</ele>
        <time>2013-09-13T12:36:56Z</time>
      </trkpt>
      <trkpt lat="42.025867" lon="0.774533">
        <ele>1638.0</ele>
        <time>2013-09-13T12:36:57Z</time>
      </trkpt>
      <trkpt lat="42.025933" lon="0.774633">
        <ele>1637.0</ele>
        <time>2013-09-13T12:36:58Z</time>
      </trkpt>
      <trkpt lat="42.025983" lon="0.774750">
        <ele>1636.0</ele>
        <time>2013-09-13T12:36:59Z</time>
      </trkpt>
      <trkpt lat="42.026050" lon="0.774883">
        <ele>1634.0</ele>
        <time>2013-09-13T12:37:00Z</time>
      </trkpt>
      <trkpt lat="42.026083" lon="0.775000">
        <ele>1633.0</ele>
        <time>2013-09-13T12:37:01Z</time>
      </trkpt>
      <trkpt lat="42.026117" lon="0.775150">
        <ele>1632.0</ele>
        <time>2013-09-13T12:37:02Z</time>
      </trkpt>
      <trkpt lat="42.026133" lon="0.775283">
        <ele>1631.0</ele>
        <time>2013-09-13T12:37:03Z</time>
      </trkpt>
      <trkpt lat="42.026117" lon="0.775417">
        <ele>1630.0</ele>
        <time>2013-09-13T12:37:04Z</time>
      </trkpt>
      <trkpt lat="42.026100" lon="0.775533">
        <ele>1629.0</ele>
        <time>2013-09-13T12:37:05Z</time>
      </trkpt>
      <trkpt lat="42.026050" lon="0.775633">
        <ele>1627.0</ele>
        <time>2013-09-13T12:37:06Z</time>
      </trkpt>
      <trkpt lat="42.026000" lon="0.775717">
        <ele>1626.0</ele>
        <time>2013-09-13T12:37:07Z</time>
      </trkpt>
      <trkpt lat="42.025950" lon="0.775800">
        <ele>1624.0</ele>
        <time>2013-09-13T12:37:08Z</time>
      </trkpt>
      <trkpt lat="42.025883" lon="0.775867">
        <ele>1623.0</ele>
        <time>2013-09-13T12:37:09Z</time>
      </trkpt>
      <trkpt lat="42.025817" lon="0.775933">
        <ele>1621.0</ele>
        <time>2013-09-13T12:37:10Z</time>
      </trkpt>
      <trkpt lat="42.025750" lon="0.775983">
        <ele>1620.0</ele>
        <time>2013-09-13T12:37:11Z</time>
      </trkpt>
      <trkpt lat="42.025683" lon="0.776017">
        <ele>1618.0</ele>
        <time>2013-09-13T12:37:12Z</time>
      </trkpt>
      <trkpt lat="42.025617" lon="0.776033">
        <ele>1616.0</ele>
        <time>2013-09-13T12:37:13Z</time>
      </trkpt>
      <trkpt lat="42.025550" lon="0.776033">
        <ele>1614.0</ele>
        <time>2013-09-13T12:37:14Z</time>
      </trkpt>
      <trkpt lat="42.025500" lon="0.776033">
        <ele>1613.0</ele>
        <time>2013-09-13T12:37:15Z</time>
      </trkpt>
      <trkpt lat="42.025433" lon="0.776033">
        <ele>1612.0</ele>
        <time>2013-09-13T12:37:16Z</time>
      </trkpt>
      <trkpt lat="42.025383" lon="0.776033">
        <ele>1611.0</ele>
        <time>2013-09-13T12:37:17Z</time>
      </trkpt>
      <trkpt lat="42.025333" lon="0.776050">
        <ele>1610.0</ele>
        <time>2013-09-13T12:37:18Z</time>
      </trkpt>
      <trkpt lat="42.025283" lon="0.776050">
        <ele>1609.0</ele>
        <time>2013-09-13T12:37:19Z</time>
      </trkpt>
      <trkpt lat="42.025233" lon="0.776050">
        <ele>1609.0</ele>
        <time>2013-09-13T12:37:20Z</time>
      </trkpt>
      <trkpt lat="42.025183" lon="0.776050">
        <ele>1608.0</ele>
        <time>2013-09-13T12:37:21Z</time>
      </trkpt>
      <trkpt lat="42.025150" lon="0.776033">
        <ele>1607.0</ele>
        <time>2013-09-13T12:37:22Z</time>
      </trkpt>
      <trkpt lat="42.025117" lon="0.776033">
        <ele>1606.0</ele>
        <time>2013-09-13T12:37:23Z</time>
      </trkpt>
      <trkpt lat="42.025083" lon="0.776017">
        <ele>1604.0</ele>
        <time>2013-09-13T12:37:24Z</time>
      </trkpt>
      <trkpt lat="42.025033" lon="0.776000">
        <ele>1601.0</ele>
        <time>2013-09-13T12:37:25Z</time>
      </trkpt>
      <trkpt lat="42.024983" lon="0.775967">
        <ele>1596.0</ele>
        <time>2013-09-13T12:37:26Z</time>
      </trkpt>
      <trkpt lat="42.024917" lon="0.775950">
        <ele>1594.0</ele>
        <time>2013-09-13T12:37:27Z</time>
      </trkpt>
      <trkpt lat="42.024850" lon="0.775933">
        <ele>1593.0</ele>
        <time>2013-09-13T12:37:28Z</time>
      </trkpt>
      <trkpt lat="42.024800" lon="0.775917">
        <ele>1595.0</ele>
        <time>2013-09-13T12:37:29Z</time>
      </trkpt>
      <trkpt lat="42.024783" lon="0.775917">
        <ele>1597.0</ele>
        <time>2013-09-13T12:37:30Z</time>
      </trkpt>
      <trkpt lat="42.024750" lon="0.775900">
        <ele>1598.0</ele>
        <time>2013-09-13T12:37:31Z</time>
      </trkpt>
      <trkpt lat="42.024717" lon="0.775883">
        <ele>1599.0</ele>
        <time>2013-09-13T12:37:32Z</time>
      </trkpt>
      <trkpt lat="42.024667" lon="0.775867">
        <ele>1600.0</ele>
        <time>2013-09-13T12:37:33Z</time>
      </trkpt>
      <trkpt lat="42.024633" lon="0.775850">
        <ele>1600.0</ele>
        <time>2013-09-13T12:37:34Z</time>
      </trkpt>
      <trkpt lat="42.024600" lon="0.775833">
        <ele>1602.0</ele>
        <time>2013-09-13T12:37:35Z</time>
      </trkpt>
      <trkpt lat="42.024583" lon="0.775817">
        <ele>1603.0</ele>
        <time>2013-09-13T12:37:36Z</time>
      </trkpt>
      <trkpt lat="42.024550" lon="0.775783">
        <ele>1603.0</ele>
        <time>2013-09-13T12:37:37Z</time>
      </trkpt>
      <trkpt lat="42.024533" lon="0.775717">
        <ele>1602.0</ele>
        <time>2013-09-13T12:37:38Z</time>
      </trkpt>
      <trkpt lat="42.024500" lon="0.775650">
        <ele>1602.0</ele>
        <time>2013-09-13T12:37:39Z</time>
      </trkpt>
      <trkpt lat="42.024483" lon="0.775617">
        <ele>1603.0</ele>
        <time>2013-09-13T12:37:40Z</time>
      </trkpt>
      <trkpt lat="42.024450" lon="0.775567">
        <ele>1605.0</ele>
        <time>2013-09-13T12:37:41Z</time>
      </trkpt>
      <trkpt lat="42.024417" lon="0.775533">
        <ele>1606.0</ele>
        <time>2013-09-13T12:37:42Z</time>
      </trkpt>
      <trkpt lat="42.024400" lon="0.775483">
        <ele>1607.0</ele>
        <time>2013-09-13T12:37:43Z</time>
      </trkpt>
      <trkpt lat="42.024367" lon="0.775433">
        <ele>1608.0</ele>
        <time>2013-09-13T12:37:44Z</time>
      </trkpt>
      <trkpt lat="42.024333" lon="0.775383">
        <ele>1608.0</ele>
        <time>2013-09-13T12:37:45Z</time>
      </trkpt>
      <trkpt lat="42.024300" lon="0.775350">
        <ele>1610.0</ele>
        <time>2013-09-13T12:37:46Z</time>
      </trkpt>
      <trkpt lat="42.024283" lon="0.775317">
        <ele>1612.0</ele>
        <time>2013-09-13T12:37:47Z</time>
      </trkpt>
      <trkpt lat="42.024283" lon="0.775283">
        <ele>1614.0</ele>
        <time>2013-09-13T12:37:48Z</time>
      </trkpt>
      <trkpt lat="42.024267" lon="0.775233">
        <ele>1614.0</ele>
        <time>2013-09-13T12:37:49Z</time>
      </trkpt>
      <trkpt lat="42.024233" lon="0.775183">
        <ele>1615.0</ele>
        <time>2013-09-13T12:37:50Z</time>
      </trkpt>
      <trkpt lat="42.024217" lon="0.775117">
        <ele>1616.0</ele>
        <time>2013-09-13T12:37:51Z</time>
      </trkpt>
      <trkpt lat="42.024183" lon="0.775067">
        <ele>1618.0</ele>
        <time>2013-09-13T12:37:52Z</time>
      </trkpt>
      <trkpt lat="42.024167" lon="0.775017">
        <ele>1621.0</ele>
        <time>2013-09-13T12:37:53Z</time>
      </trkpt>
      <trkpt lat="42.024133" lon="0.774967">
        <ele>1623.0</ele>
        <time>2013-09-13T12:37:54Z</time>
      </trkpt>
      <trkpt lat="42.024100" lon="0.774917">
        <ele>1624.0</ele>
        <time>2013-09-13T12:37:55Z</time>
      </trkpt>
      <trkpt lat="42.024067" lon="0.774867">
        <ele>1626.0</ele>
        <time>2013-09-13T12:37:56Z</time>
      </trkpt>
      <trkpt lat="42.024033" lon="0.774800">
        <ele>1628.0</ele>
        <time>2013-09-13T12:37:57Z</time>
      </trkpt>
      <trkpt lat="42.024017" lon="0.774733">
        <ele>1630.0</ele>
        <time>2013-09-13T12:37:58Z</time>
      </trkpt>
      <trkpt lat="42.024017" lon="0.774667">
        <ele>1632.0</ele>
        <time>2013-09-13T12:37:59Z</time>
      </trkpt>
      <trkpt lat="42.024000" lon="0.774617">
        <ele>1635.0</ele>
        <time>2013-09-13T12:38:00Z</time>
      </trkpt>
      <trkpt lat="42.023983" lon="0.774567">
        <ele>1637.0</ele>
        <time>2013-09-13T12:38:01Z</time>
      </trkpt>
      <trkpt lat="42.023967" lon="0.774517">
        <ele>1639.0</ele>
        <time>2013-09-13T12:38:02Z</time>
      </trkpt>
      <trkpt lat="42.023950" lon="0.774467">
        <ele>1641.0</ele>
        <time>2013-09-13T12:38:03Z</time>
      </trkpt>
      <trkpt lat="42.023950" lon="0.774383">
        <ele>1643.0</ele>
        <time>2013-09-13T12:38:04Z</time>
      </trkpt>
      <trkpt lat="42.023967" lon="0.774300">
        <ele>1646.0</ele>
        <time>2013-09-13T12:38:05Z</time>
      </trkpt>
      <trkpt lat="42.024017" lon="0.774233">
        <ele>1649.0</ele>
        <time>2013-09-13T12:38:06Z</time>
      </trkpt>
      <trkpt lat="42.024083" lon="0.774167">
        <ele>1651.0</ele>
        <time>2013-09-13T12:38:07Z</time>
      </trkpt>
      <trkpt lat="42.024167" lon="0.774117">
        <ele>1654.0</ele>
        <time>2013-09-13T12:38:08Z</time>
      </trkpt>
      <trkpt lat="42.024250" lon="0.774067">
        <ele>1657.0</ele>
        <time>2013-09-13T12:38:09Z</time>
      </trkpt>
      <trkpt lat="42.024333" lon="0.774033">
        <ele>1660.0</ele>
        <time>2013-09-13T12:38:10Z</time>
      </trkpt>
      <trkpt lat="42.024417" lon="0.774017">
        <ele>1663.0</ele>
        <time>2013-09-13T12:38:11Z</time>
      </trkpt>
      <trkpt lat="42.024517" lon="0.774033">
        <ele>1666.0</ele>
        <time>2013-09-13T12:38:12Z</time>
      </trkpt>
      <trkpt lat="42.024733" lon="0.774100">
        <ele>1668.0</ele>
        <time>2013-09-13T12:38:14Z</time>
      </trkpt>
      <trkpt lat="42.024850" lon="0.774183">
        <ele>1668.0</ele>
        <time>2013-09-13T12:38:15Z</time>
      </trkpt>
      <trkpt lat="42.025033" lon="0.774400">
        <ele>1670.0</ele>
        <time>2013-09-13T12:38:17Z</time>
      </trkpt>
      <trkpt lat="42.025100" lon="0.774533">
        <ele>1672.0</ele>
        <time>2013-09-13T12:38:18Z</time>
      </trkpt>
      <trkpt lat="42.025150" lon="0.774650">
        <ele>1672.0</ele>
        <time>2013-09-13T12:38:19Z</time>
      </trkpt>
      <trkpt lat="42.025183" lon="0.774800">
        <ele>1673.0</ele>
        <time>2013-09-13T12:38:20Z</time>
      </trkpt>
      <trkpt lat="42.025217" lon="0.774933">
        <ele>1673.0</ele>
        <time>2013-09-13T12:38:21Z</time>
      </trkpt>
      <trkpt lat="42.025250" lon="0.775083">
        <ele>1673.0</ele>
        <time>2013-09-13T12:38:22Z</time>
      </trkpt>
      <trkpt lat="42.025250" lon="0.775233">
        <ele>1672.0</ele>
        <time>2013-09-13T12:38:23Z</time>
      </trkpt>
      <trkpt lat="42.025233" lon="0.775400">
        <ele>1672.0</ele>
        <time>2013-09-13T12:38:24Z</time>
      </trkpt>
      <trkpt lat="42.025217" lon="0.775533">
        <ele>1673.0</ele>
        <time>2013-09-13T12:38:25Z</time>
      </trkpt>
      <trkpt lat="42.025183" lon="0.775683">
        <ele>1674.0</ele>
        <time>2013-09-13T12:38:26Z</time>
      </trkpt>
      <trkpt lat="42.025150" lon="0.775800">
        <ele>1677.0</ele>
        <time>2013-09-13T12:38:27Z</time>
      </trkpt>
      <trkpt lat="42.025117" lon="0.775933">
        <ele>1679.0</ele>
        <time>2013-09-13T12:38:28Z</time>
      </trkpt>
      <trkpt lat="42.025083" lon="0.776033">
        <ele>1680.0</ele>
        <time>2013-09-13T12:38:29Z</time>
      </trkpt>
      <trkpt lat="42.025033" lon="0.776133">
        <ele>1681.0</ele>
        <time>2013-09-13T12:38:30Z</time>
      </trkpt>
      <trkpt lat="42.024983" lon="0.776200">
        <ele>1683.0</ele>
        <time>2013-09-13T12:38:31Z</time>
      </trkpt>
      <trkpt lat="42.024933" lon="0.776250">
        <ele>1684.0</ele>
        <time>2013-09-13T12:38:32Z</time>
      </trkpt>
      <trkpt lat="42.024867" lon="0.776283">
        <ele>1686.0</ele>
        <time>2013-09-13T12:38:33Z</time>
      </trkpt>
      <trkpt lat="42.024817" lon="0.776333">
        <ele>1688.0</ele>
        <time>2013-09-13T12:38:34Z</time>
      </trkpt>
      <trkpt lat="42.024767" lon="0.776383">
        <ele>1688.0</ele>
        <time>2013-09-13T12:38:35Z</time>
      </trkpt>
      <trkpt lat="42.024700" lon="0.776400">
        <ele>1690.0</ele>
        <time>2013-09-13T12:38:36Z</time>
      </trkpt>
      <trkpt lat="42.024650" lon="0.776383">
        <ele>1690.0</ele>
        <time>2013-09-13T12:38:37Z</time>
      </trkpt>
      <trkpt lat="42.024617" lon="0.776333">
        <ele>1690.0</ele>
        <time>2013-09-13T12:38:38Z</time>
      </trkpt>
      <trkpt lat="42.024583" lon="0.776283">
        <ele>1690.0</ele>
        <time>2013-09-13T12:38:39Z</time>
      </trkpt>
      <trkpt lat="42.024583" lon="0.776217">
        <ele>1691.0</ele>
        <time>2013-09-13T12:38:40Z</time>
      </trkpt>
      <trkpt lat="42.024567" lon="0.776167">
        <ele>1692.0</ele>
        <time>2013-09-13T12:38:41Z</time>
      </trkpt>
      <trkpt lat="42.024583" lon="0.776083">
        <ele>1693.0</ele>
        <time>2013-09-13T12:38:42Z</time>
      </trkpt>
      <trkpt lat="42.024600" lon="0.776000">
        <ele>1693.0</ele>
        <time>2013-09-13T12:38:43Z</time>
      </trkpt>
      <trkpt lat="42.024633" lon="0.775917">
        <ele>1693.0</ele>
        <time>2013-09-13T12:38:44Z</time>
      </trkpt>
      <trkpt lat="42.024700" lon="0.775833">
        <ele>1693.0</ele>
        <time>2013-09-13T12:38:45Z</time>
      </trkpt>
      <trkpt lat="42.024767" lon="0.775783">
        <ele>1694.0</ele>
        <time>2013-09-13T12:38:46Z</time>
      </trkpt>
      <trkpt lat="42.024850" lon="0.775733">
        <ele>1695.0</ele>
        <time>2013-09-13T12:38:47Z</time>
      </trkpt>
      <trkpt lat="42.024950" lon="0.775683">
        <ele>1696.0</ele>
        <time>2013-09-13T12:38:48Z</time>
      </trkpt>
      <trkpt lat="42.025050" lon="0.775667">
        <ele>1698.0</ele>
        <time>2013-09-13T12:38:49Z</time>
      </trkpt>
      <trkpt lat="42.025167" lon="0.775683">
        <ele>1700.0</ele>
        <time>2013-09-13T12:38:50Z</time>
      </trkpt>
      <trkpt lat="42.025383" lon="0.775800">
        <ele>1706.0</ele>
        <time>2013-09-13T12:38:52Z</time>
      </trkpt>
      <trkpt lat="42.025467" lon="0.775883">
        <ele>1709.0</ele>
        <time>2013-09-13T12:38:53Z</time>
      </trkpt>
      <trkpt lat="42.025550" lon="0.776000">
        <ele>1710.0</ele>
        <time>2013-09-13T12:38:54Z</time>
      </trkpt>
      <trkpt lat="42.025633" lon="0.776117">
        <ele>1712.0</ele>
        <time>2013-09-13T12:38:55Z</time>
      </trkpt>
      <trkpt lat="42.025700" lon="0.776267">
        <ele>1713.0</ele>
        <time>2013-09-13T12:38:56Z</time>
      </trkpt>
      <trkpt lat="42.025750" lon="0.776417">
        <ele>1713.0</ele>
        <time>2013-09-13T12:38:57Z</time>
      </trkpt>
      <trkpt lat="42.025783" lon="0.776550">
        <ele>1714.0</ele>
        <time>2013-09-13T12:38:58Z</time>
      </trkpt>
      <trkpt lat="42.025817" lon="0.776700">
        <ele>1715.0</ele>
        <time>2013-09-13T12:38:59Z</time>
      </trkpt>
      <trkpt lat="42.025833" lon="0.776850">
        <ele>1717.0</ele>
        <time>2013-09-13T12:39:00Z</time>
      </trkpt>
      <trkpt lat="42.025833" lon="0.777000">
        <ele>1718.0</ele>
        <time>2013-09-13T12:39:01Z</time>
      </trkpt>
      <trkpt lat="42.025800" lon="0.777133">
        <ele>1718.0</ele>
        <time>2013-09-13T12:39:02Z</time>
      </trkpt>
      <trkpt lat="42.025767" lon="0.777267">
        <ele>1720.0</ele>
        <time>2013-09-13T12:39:03Z</time>
      </trkpt>
      <trkpt lat="42.025750" lon="0.777367">
        <ele>1723.0</ele>
        <time>2013-09-13T12:39:04Z</time>
      </trkpt>
      <trkpt lat="42.025717" lon="0.777450">
        <ele>1725.0</ele>
        <time>2013-09-13T12:39:05Z</time>
      </trkpt>
      <trkpt lat="42.025683" lon="0.777533">
        <ele>1725.0</ele>
        <time>2013-09-13T12:39:06Z</time>
      </trkpt>
      <trkpt lat="42.025617" lon="0.777600">
        <ele>1726.0</ele>
        <time>2013-09-13T12:39:07Z</time>
      </trkpt>
      <trkpt lat="42.025567" lon="0.777667">
        <ele>1726.0</ele>
        <time>2013-09-13T12:39:08Z</time>
      </trkpt>
      <trkpt lat="42.025500" lon="0.777717">
        <ele>1727.0</ele>
        <time>2013-09-13T12:39:09Z</time>
      </trkpt>
      <trkpt lat="42.025450" lon="0.777750">
        <ele>1728.0</ele>
        <time>2013-09-13T12:39:10Z</time>
      </trkpt>
      <trkpt lat="42.025400" lon="0.777783">
        <ele>1729.0</ele>
        <time>2013-09-13T12:39:11Z</time>
      </trkpt>
      <trkpt lat="42.025333" lon="0.777783">
        <ele>1728.0</ele>
        <time>2013-09-13T12:39:12Z</time>
      </trkpt>
      <trkpt lat="42.025283" lon="0.777750">
        <ele>1727.0</ele>
        <time>2013-09-13T12:39:13Z</time>
      </trkpt>
      <trkpt lat="42.025233" lon="0.777700">
        <ele>1726.0</ele>
        <time>2013-09-13T12:39:14Z</time>
      </trkpt>
      <trkpt lat="42.025200" lon="0.777650">
        <ele>1726.0</ele>
        <time>2013-09-13T12:39:15Z</time>
      </trkpt>
      <trkpt lat="42.025183" lon="0.777583">
        <ele>1725.0</ele>
        <time>2013-09-13T12:39:16Z</time>
      </trkpt>
      <trkpt lat="42.025150" lon="0.777533">
        <ele>1725.0</ele>
        <time>2013-09-13T12:39:17Z</time>
      </trkpt>
      <trkpt lat="42.025133" lon="0.777467">
        <ele>1724.0</ele>
        <time>2013-09-13T12:39:18Z</time>
      </trkpt>
      <trkpt lat="42.025100" lon="0.777400">
        <ele>1723.0</ele>
        <time>2013-09-13T12:39:19Z</time>
      </trkpt>
      <trkpt lat="42.025067" lon="0.777333">
        <ele>1724.0</ele>
        <time>2013-09-13T12:39:20Z</time>
      </trkpt>
      <trkpt lat="42.025050" lon="0.777300">
        <ele>1725.0</ele>
        <time>2013-09-13T12:39:21Z</time>
      </trkpt>
      <trkpt lat="42.025033" lon="0.777250">
        <ele>1726.0</ele>
        <time>2013-09-13T12:39:22Z</time>
      </trkpt>
      <trkpt lat="42.025000" lon="0.777200">
        <ele>1726.0</ele>
        <time>2013-09-13T12:39:23Z</time>
      </trkpt>
      <trkpt lat="42.024983" lon="0.777133">
        <ele>1726.0</ele>
        <time>2013-09-13T12:39:24Z</time>
      </trkpt>
      <trkpt lat="42.024967" lon="0.777083">
        <ele>1726.0</ele>
        <time>2013-09-13T12:39:25Z</time>
      </trkpt>
      <trkpt lat="42.024933" lon="0.777033">
        <ele>1726.0</ele>
        <time>2013-09-13T12:39:26Z</time>
      </trkpt>
      <trkpt lat="42.024917" lon="0.776983">
        <ele>1727.0</ele>
        <time>2013-09-13T12:39:27Z</time>
      </trkpt>
      <trkpt lat="42.024900" lon="0.776933">
        <ele>1727.0</ele>
        <time>2013-09-13T12:39:28Z</time>
      </trkpt>
      <trkpt lat="42.024867" lon="0.776883">
        <ele>1727.0</ele>
        <time>2013-09-13T12:39:29Z</time>
      </trkpt>
      <trkpt lat="42.024850" lon="0.776817">
        <ele>1727.0</ele>
        <time>2013-09-13T12:39:30Z</time>
      </trkpt>
      <trkpt lat="42.024833" lon="0.776733">
        <ele>1726.0</ele>
        <time>2013-09-13T12:39:31Z</time>
      </trkpt>
      <trkpt lat="42.024800" lon="0.776667">
        <ele>1727.0</ele>
        <time>2013-09-13T12:39:32Z</time>
      </trkpt>
      <trkpt lat="42.024783" lon="0.776600">
        <ele>1727.0</ele>
        <time>2013-09-13T12:39:33Z</time>
      </trkpt>
      <trkpt lat="42.024750" lon="0.776533">
        <ele>1727.0</ele>
        <time>2013-09-13T12:39:34Z</time>
      </trkpt>
      <trkpt lat="42.024733" lon="0.776450">
        <ele>1728.0</ele>
        <time>2013-09-13T12:39:35Z</time>
      </trkpt>
      <trkpt lat="42.024717" lon="0.776383">
        <ele>1730.0</ele>
        <time>2013-09-13T12:39:36Z</time>
      </trkpt>
      <trkpt lat="42.024700" lon="0.776317">
        <ele>1731.0</ele>
        <time>2013-09-13T12:39:37Z</time>
      </trkpt>
      <trkpt lat="42.024683" lon="0.776250">
        <ele>1732.0</ele>
        <time>2013-09-13T12:39:38Z</time>
      </trkpt>
      <trkpt lat="42.024650" lon="0.776183">
        <ele>1732.0</ele>
        <time>2013-09-13T12:39:39Z</time>
      </trkpt>
      <trkpt lat="42.024633" lon="0.776117">
        <ele>1732.0</ele>
        <time>2013-09-13T12:39:40Z</time>
      </trkpt>
      <trkpt lat="42.024617" lon="0.776033">
        <ele>1732.0</ele>
        <time>2013-09-13T12:39:41Z</time>
      </trkpt>
      <trkpt lat="42.024600" lon="0.775950">
        <ele>1732.0</ele>
        <time>2013-09-13T12:39:42Z</time>
      </trkpt>
      <trkpt lat="42.024550" lon="0.775867">
        <ele>1733.0</ele>
        <time>2013-09-13T12:39:43Z</time>
      </trkpt>
      <trkpt lat="42.024533" lon="0.775783">
        <ele>1736.0</ele>
        <time>2013-09-13T12:39:44Z</time>
      </trkpt>
      <trkpt lat="42.024500" lon="0.775717">
        <ele>1739.0</ele>
        <time>2013-09-13T12:39:45Z</time>
      </trkpt>
      <trkpt lat="42.024483" lon="0.775650">
        <ele>1743.0</ele>
        <time>2013-09-13T12:39:46Z</time>
      </trkpt>
      <trkpt lat="42.024450" lon="0.775583">
        <ele>1745.0</ele>
        <time>2013-09-13T12:39:47Z</time>
      </trkpt>
      <trkpt lat="42.024433" lon="0.775500">
        <ele>1747.0</ele>
        <time>2013-09-13T12:39:48Z</time>
      </trkpt>
      <trkpt lat="42.024400" lon="0.775417">
        <ele>1750.0</ele>
        <time>2013-09-13T12:39:49Z</time>
      </trkpt>
      <trkpt lat="42.024367" lon="0.775333">
        <ele>1754.0</ele>
        <time>2013-09-13T12:39:50Z</time>
      </trkpt>
      <trkpt lat="42.024333" lon="0.775267">
        <ele>1759.0</ele>
        <time>2013-09-13T12:39:51Z</time>
      </trkpt>
      <trkpt lat="42.024317" lon="0.775200">
        <ele>1763.0</ele>
        <time>2013-09-13T12:39:52Z</time>
      </trkpt>
      <trkpt lat="42.024317" lon="0.775133">
        <ele>1766.0</ele>
        <time>2013-09-13T12:39:53Z</time>
      </trkpt>
      <trkpt lat="42.024300" lon="0.775050">
        <ele>1768.0</ele>
        <time>2013-09-13T12:39:54Z</time>
      </trkpt>
      <trkpt lat="42.024300" lon="0.774983">
        <ele>1770.0</ele>
        <time>2013-09-13T12:39:55Z</time>
      </trkpt>
      <trkpt lat="42.024300" lon="0.774900">
        <ele>1773.0</ele>
        <time>2013-09-13T12:39:56Z</time>
      </trkpt>
      <trkpt lat="42.024317" lon="0.774817">
        <ele>1774.0</ele>
        <time>2013-09-13T12:39:57Z</time>
      </trkpt>
      <trkpt lat="42.024333" lon="0.774717">
        <ele>1774.0</ele>
        <time>2013-09-13T12:39:58Z</time>
      </trkpt>
      <trkpt lat="42.024367" lon="0.774617">
        <ele>1774.0</ele>
        <time>2013-09-13T12:39:59Z</time>
      </trkpt>
      <trkpt lat="42.024417" lon="0.774517">
        <ele>1776.0</ele>
        <time>2013-09-13T12:40:00Z</time>
      </trkpt>
      <trkpt lat="42.024467" lon="0.774450">
        <ele>1778.0</ele>
        <time>2013-09-13T12:40:01Z</time>
      </trkpt>
      <trkpt lat="42.024550" lon="0.774400">
        <ele>1780.0</ele>
        <time>2013-09-13T12:40:02Z</time>
      </trkpt>
      <trkpt lat="42.024617" lon="0.774350">
        <ele>1781.0</ele>
        <time>2013-09-13T12:40:03Z</time>
      </trkpt>
      <trkpt lat="42.024717" lon="0.774317">
        <ele>1782.0</ele>
        <time>2013-09-13T12:40:04Z</time>
      </trkpt>
      <trkpt lat="42.024833" lon="0.774317">
        <ele>1782.0</ele>
        <time>2013-09-13T12:40:05Z</time>
      </trkpt>
      <trkpt lat="42.024950" lon="0.774333">
        <ele>1783.0</ele>
        <time>2013-09-13T12:40:06Z</time>
      </trkpt>
      <trkpt lat="42.025067" lon="0.774383">
        <ele>1785.0</ele>
        <time>2013-09-13T12:40:07Z</time>
      </trkpt>
      <trkpt lat="42.025167" lon="0.774450">
        <ele>1787.0</ele>
        <time>2013-09-13T12:40:08Z</time>
      </trkpt>
      <trkpt lat="42.025333" lon="0.774583">
        <ele>1792.0</ele>
        <time>2013-09-13T12:40:10Z</time>
      </trkpt>
      <trkpt lat="42.025417" lon="0.774683">
        <ele>1793.0</ele>
        <time>2013-09-13T12:40:11Z</time>
      </trkpt>
      <trkpt lat="42.025483" lon="0.774783">
        <ele>1795.0</ele>
        <time>2013-09-13T12:40:12Z</time>
      </trkpt>
      <trkpt lat="42.025600" lon="0.775050">
        <ele>1797.0</ele>
        <time>2013-09-13T12:40:14Z</time>
      </trkpt>
      <trkpt lat="42.025617" lon="0.775300">
        <ele>1800.0</ele>
        <time>2013-09-13T12:40:16Z</time>
      </trkpt>
      <trkpt lat="42.025600" lon="0.775550">
        <ele>1801.0</ele>
        <time>2013-09-13T12:40:18Z</time>
      </trkpt>
      <trkpt lat="42.025567" lon="0.775683">
        <ele>1801.0</ele>
        <time>2013-09-13T12:40:19Z</time>
      </trkpt>
      <trkpt lat="42.025533" lon="0.775833">
        <ele>1803.0</ele>
        <time>2013-09-13T12:40:20Z</time>
      </trkpt>
      <trkpt lat="42.025483" lon="0.775950">
        <ele>1805.0</ele>
        <time>2013-09-13T12:40:21Z</time>
      </trkpt>
      <trkpt lat="42.025433" lon="0.776067">
        <ele>1808.0</ele>
        <time>2013-09-13T12:40:22Z</time>
      </trkpt>
      <trkpt lat="42.025400" lon="0.776167">
        <ele>1812.0</ele>
        <time>2013-09-13T12:40:23Z</time>
      </trkpt>
      <trkpt lat="42.025350" lon="0.776250">
        <ele>1816.0</ele>
        <time>2013-09-13T12:40:24Z</time>
      </trkpt>
      <trkpt lat="42.025283" lon="0.776350">
        <ele>1819.0</ele>
        <time>2013-09-13T12:40:25Z</time>
      </trkpt>
      <trkpt lat="42.025233" lon="0.776433">
        <ele>1822.0</ele>
        <time>2013-09-13T12:40:26Z</time>
      </trkpt>
      <trkpt lat="42.025167" lon="0.776517">
        <ele>1825.0</ele>
        <time>2013-09-13T12:40:27Z</time>
      </trkpt>
      <trkpt lat="42.025083" lon="0.776567">
        <ele>1828.0</ele>
        <time>2013-09-13T12:40:28Z</time>
      </trkpt>
      <trkpt lat="42.025017" lon="0.776617">
        <ele>1832.0</ele>
        <time>2013-09-13T12:40:29Z</time>
      </trkpt>
      <trkpt lat="42.024950" lon="0.776650">
        <ele>1835.0</ele>
        <time>2013-09-13T12:40:30Z</time>
      </trkpt>
      <trkpt lat="42.024900" lon="0.776650">
        <ele>1839.0</ele>
        <time>2013-09-13T12:40:31Z</time>
      </trkpt>
      <trkpt lat="42.024850" lon="0.776633">
        <ele>1844.0</ele>
        <time>2013-09-13T12:40:32Z</time>
      </trkpt>
      <trkpt lat="42.024800" lon="0.776617">
        <ele>1846.0</ele>
        <time>2013-09-13T12:40:33Z</time>
      </trkpt>
      <trkpt lat="42.024750" lon="0.776583">
        <ele>1849.0</ele>
        <time>2013-09-13T12:40:34Z</time>
      </trkpt>
      <trkpt lat="42.024700" lon="0.776550">
        <ele>1850.0</ele>
        <time>2013-09-13T12:40:35Z</time>
      </trkpt>
      <trkpt lat="42.024650" lon="0.776500">
        <ele>1850.0</ele>
        <time>2013-09-13T12:40:36Z</time>
      </trkpt>
      <trkpt lat="42.024600" lon="0.776433">
        <ele>1850.0</ele>
        <time>2013-09-13T12:40:37Z</time>
      </trkpt>
      <trkpt lat="42.024583" lon="0.776350">
        <ele>1850.0</ele>
        <time>2013-09-13T12:40:38Z</time>
      </trkpt>
      <trkpt lat="42.024567" lon="0.776283">
        <ele>1852.0</ele>
        <time>2013-09-13T12:40:39Z</time>
      </trkpt>
      <trkpt lat="42.024533" lon="0.776200">
        <ele>1853.0</ele>
        <time>2013-09-13T12:40:40Z</time>
      </trkpt>
      <trkpt lat="42.024500" lon="0.776117">
        <ele>1854.0</ele>
        <time>2013-09-13T12:40:41Z</time>
      </trkpt>
      <trkpt lat="42.024467" lon="0.776033">
        <ele>1855.0</ele>
        <time>2013-09-13T12:40:42Z</time>
      </trkpt>
      <trkpt lat="42.024433" lon="0.775967">
        <ele>1857.0</ele>
        <time>2013-09-13T12:40:43Z</time>
      </trkpt>
      <trkpt lat="42.024417" lon="0.775883">
        <ele>1858.0</ele>
        <time>2013-09-13T12:40:44Z</time>
      </trkpt>
      <trkpt lat="42.024400" lon="0.775800">
        <ele>1860.0</ele>
        <time>2013-09-13T12:40:45Z</time>
      </trkpt>
      <trkpt lat="42.024400" lon="0.775717">
        <ele>1861.0</ele>
        <time>2013-09-13T12:40:46Z</time>
      </trkpt>
      <trkpt lat="42.024400" lon="0.775617">
        <ele>1862.0</ele>
        <time>2013-09-13T12:40:47Z</time>
      </trkpt>
      <trkpt lat="42.024417" lon="0.775517">
        <ele>1863.0</ele>
        <time>2013-09-13T12:40:48Z</time>
      </trkpt>
      <trkpt lat="42.024450" lon="0.775450">
        <ele>1864.0</ele>
        <time>2013-09-13T12:40:49Z</time>
      </trkpt>
      <trkpt lat="42.024483" lon="0.775383">
        <ele>1865.0</ele>
        <time>2013-09-13T12:40:50Z</time>
      </trkpt>
      <trkpt lat="42.024533" lon="0.775317">
        <ele>1865.0</ele>
        <time>2013-09-13T12:40:51Z</time>
      </trkpt>
      <trkpt lat="42.024600" lon="0.775250">
        <ele>1865.0</ele>
        <time>2013-09-13T12:40:52Z</time>
      </trkpt>
      <trkpt lat="42.024683" lon="0.775200">
        <ele>1865.0</ele>
        <time>2013-09-13T12:40:53Z</time>
      </trkpt>
      <trkpt lat="42.024783" lon="0.775167">
        <ele>1866.0</ele>
        <time>2013-09-13T12:40:54Z</time>
      </trkpt>
      <trkpt lat="42.024867" lon="0.775183">
        <ele>1867.0</ele>
        <time>2013-09-13T12:40:55Z</time>
      </trkpt>
      <trkpt lat="42.024967" lon="0.775217">
        <ele>1867.0</ele>
        <time>2013-09-13T12:40:56Z</time>
      </trkpt>
      <trkpt lat="42.025083" lon="0.775267">
        <ele>1868.0</ele>
        <time>2013-09-13T12:40:57Z</time>
      </trkpt>
      <trkpt lat="42.025183" lon="0.775350">
        <ele>1868.0</ele>
        <time>2013-09-13T12:40:58Z</time>
      </trkpt>
      <trkpt lat="42.025267" lon="0.775450">
        <ele>1868.0</ele>
        <time>2013-09-13T12:40:59Z</time>
      </trkpt>
      <trkpt lat="42.025350" lon="0.775550">
        <ele>1869.0</ele>
        <time>2013-09-13T12:41:00Z</time>
      </trkpt>
      <trkpt lat="42.025417" lon="0.775667">
        <ele>1870.0</ele>
        <time>2013-09-13T12:41:01Z</time>
      </trkpt>
      <trkpt lat="42.025467" lon="0.775800">
        <ele>1870.0</ele>
        <time>2013-09-13T12:41:02Z</time>
      </trkpt>
      <trkpt lat="42.025500" lon="0.775917">
        <ele>1871.0</ele>
        <time>2013-09-13T12:41:03Z</time>
      </trkpt>
      <trkpt lat="42.025517" lon="0.776050">
        <ele>1871.0</ele>
        <time>2013-09-13T12:41:04Z</time>
      </trkpt>
      <trkpt lat="42.025533" lon="0.776183">
        <ele>1871.0</ele>
        <time>2013-09-13T12:41:05Z</time>
      </trkpt>
      <trkpt lat="42.025517" lon="0.776317">
        <ele>1871.0</ele>
        <time>2013-09-13T12:41:06Z</time>
      </trkpt>
      <trkpt lat="42.025517" lon="0.776433">
        <ele>1872.0</ele>
        <time>2013-09-13T12:41:07Z</time>
      </trkpt>
      <trkpt lat="42.025500" lon="0.776550">
        <ele>1872.0</ele>
        <time>2013-09-13T12:41:08Z</time>
      </trkpt>
      <trkpt lat="42.025467" lon="0.776667">
        <ele>1873.0</ele>
        <time>2013-09-13T12:41:09Z</time>
      </trkpt>
      <trkpt lat="42.025450" lon="0.776783">
        <ele>1874.0</ele>
        <time>2013-09-13T12:41:10Z</time>
      </trkpt>
      <trkpt lat="42.025417" lon="0.776917">
        <ele>1874.0</ele>
        <time>2013-09-13T12:41:11Z</time>
      </trkpt>
      <trkpt lat="42.025383" lon="0.777050">
        <ele>1873.0</ele>
        <time>2013-09-13T12:41:12Z</time>
      </trkpt>
      <trkpt lat="42.025333" lon="0.777150">
        <ele>1874.0</ele>
        <time>2013-09-13T12:41:13Z</time>
      </trkpt>
      <trkpt lat="42.025267" lon="0.777217">
        <ele>1875.0</ele>
        <time>2013-09-13T12:41:14Z</time>
      </trkpt>
      <trkpt lat="42.025200" lon="0.777250">
        <ele>1876.0</ele>
        <time>2013-09-13T12:41:15Z</time>
      </trkpt>
      <trkpt lat="42.025133" lon="0.777250">
        <ele>1876.0</ele>
        <time>2013-09-13T12:41:16Z</time>
      </trkpt>
      <trkpt lat="42.025083" lon="0.777233">
        <ele>1877.0</ele>
        <time>2013-09-13T12:41:17Z</time>
      </trkpt>
      <trkpt lat="42.025017" lon="0.777233">
        <ele>1878.0</ele>
        <time>2013-09-13T12:41:18Z</time>
      </trkpt>
      <trkpt lat="42.024967" lon="0.777217">
        <ele>1879.0</ele>
        <time>2013-09-13T12:41:19Z</time>
      </trkpt>
      <trkpt lat="42.024917" lon="0.777200">
        <ele>1879.0</ele>
        <time>2013-09-13T12:41:20Z</time>
      </trkpt>
      <trkpt lat="42.024883" lon="0.777133">
        <ele>1880.0</ele>
        <time>2013-09-13T12:41:21Z</time>
      </trkpt>
      <trkpt lat="42.024833" lon="0.777067">
        <ele>1880.0</ele>
        <time>2013-09-13T12:41:22Z</time>
      </trkpt>
      <trkpt lat="42.024783" lon="0.777000">
        <ele>1881.0</ele>
        <time>2013-09-13T12:41:23Z</time>
      </trkpt>
      <trkpt lat="42.024750" lon="0.776950">
        <ele>1882.0</ele>
        <time>2013-09-13T12:41:24Z</time>
      </trkpt>
      <trkpt lat="42.024717" lon="0.776883">
        <ele>1884.0</ele>
        <time>2013-09-13T12:41:25Z</time>
      </trkpt>
      <trkpt lat="42.024683" lon="0.776817">
        <ele>1885.0</ele>
        <time>2013-09-13T12:41:26Z</time>
      </trkpt>
      <trkpt lat="42.024667" lon="0.776750">
        <ele>1885.0</ele>
        <time>2013-09-13T12:41:27Z</time>
      </trkpt>
      <trkpt lat="42.024633" lon="0.776683">
        <ele>1885.0</ele>
        <time>2013-09-13T12:41:28Z</time>
      </trkpt>
      <trkpt lat="42.024600" lon="0.776600">
        <ele>1885.0</ele>
        <time>2013-09-13T12:41:29Z</time>
      </trkpt>
      <trkpt lat="42.024567" lon="0.776517">
        <ele>1885.0</ele>
        <time>2013-09-13T12:41:30Z</time>
      </trkpt>
      <trkpt lat="42.024533" lon="0.776450">
        <ele>1886.0</ele>
        <time>2013-09-13T12:41:31Z</time>
      </trkpt>
      <trkpt lat="42.024517" lon="0.776383">
        <ele>1886.0</ele>
        <time>2013-09-13T12:41:32Z</time>
      </trkpt>
      <trkpt lat="42.024500" lon="0.776300">
        <ele>1886.0</ele>
        <time>2013-09-13T12:41:33Z</time>
      </trkpt>
      <trkpt lat="42.024483" lon="0.776217">
        <ele>1886.0</ele>
        <time>2013-09-13T12:41:34Z</time>
      </trkpt>
      <trkpt lat="42.024483" lon="0.776117">
        <ele>1886.0</ele>
        <time>2013-09-13T12:41:35Z</time>
      </trkpt>
      <trkpt lat="42.024483" lon="0.776017">
        <ele>1886.0</ele>
        <time>2013-09-13T12:41:36Z</time>
      </trkpt>
      <trkpt lat="42.024467" lon="0.775933">
        <ele>1886.0</ele>
        <time>2013-09-13T12:41:37Z</time>
      </trkpt>
      <trkpt lat="42.024467" lon="0.775850">
        <ele>1886.0</ele>
        <time>2013-09-13T12:41:38Z</time>
      </trkpt>
      <trkpt lat="42.024467" lon="0.775783">
        <ele>1886.0</ele>
        <time>2013-09-13T12:41:39Z</time>
      </trkpt>
      <trkpt lat="42.024450" lon="0.775700">
        <ele>1885.0</ele>
        <time>2013-09-13T12:41:40Z</time>
      </trkpt>
      <trkpt lat="42.024450" lon="0.775617">
        <ele>1884.0</ele>
        <time>2013-09-13T12:41:41Z</time>
      </trkpt>
      <trkpt lat="42.024450" lon="0.775517">
        <ele>1883.0</ele>
        <time>2013-09-13T12:41:42Z</time>
      </trkpt>
      <trkpt lat="42.024450" lon="0.775417">
        <ele>1882.0</ele>
        <time>2013-09-13T12:41:43Z</time>
      </trkpt>
      <trkpt lat="42.024467" lon="0.775333">
        <ele>1882.0</ele>
        <time>2013-09-13T12:41:44Z</time>
      </trkpt>
      <trkpt lat="42.024467" lon="0.775250">
        <ele>1882.0</ele>
        <time>2013-09-13T12:41:45Z</time>
      </trkpt>
      <trkpt lat="42.024467" lon="0.775167">
        <ele>1884.0</ele>
        <time>2013-09-13T12:41:46Z</time>
      </trkpt>
      <trkpt lat="42.024467" lon="0.775083">
        <ele>1886.0</ele>
        <time>2013-09-13T12:41:47Z</time>
      </trkpt>
      <trkpt lat="42.024450" lon="0.775017">
        <ele>1887.0</ele>
        <time>2013-09-13T12:41:48Z</time>
      </trkpt>
      <trkpt lat="42.024417" lon="0.774950">
        <ele>1889.0</ele>
        <time>2013-09-13T12:41:49Z</time>
      </trkpt>
      <trkpt lat="42.024400" lon="0.774883">
        <ele>1890.0</ele>
        <time>2013-09-13T12:41:50Z</time>
      </trkpt>
      <trkpt lat="42.024400" lon="0.774783">
        <ele>1892.0</ele>
        <time>2013-09-13T12:41:51Z</time>
      </trkpt>
      <trkpt lat="42.024400" lon="0.774700">
        <ele>1893.0</ele>
        <time>2013-09-13T12:41:52Z</time>
      </trkpt>
      <trkpt lat="42.024383" lon="0.774617">
        <ele>1896.0</ele>
        <time>2013-09-13T12:41:53Z</time>
      </trkpt>
      <trkpt lat="42.024383" lon="0.774533">
        <ele>1898.0</ele>
        <time>2013-09-13T12:41:54Z</time>
      </trkpt>
      <trkpt lat="42.024383" lon="0.774450">
        <ele>1901.0</ele>
        <time>2013-09-13T12:41:55Z</time>
      </trkpt>
      <trkpt lat="42.024367" lon="0.774367">
        <ele>1903.0</ele>
        <time>2013-09-13T12:41:56Z</time>
      </trkpt>
      <trkpt lat="42.024367" lon="0.774300">
        <ele>1906.0</ele>
        <time>2013-09-13T12:41:57Z</time>
      </trkpt>
      <trkpt lat="42.024367" lon="0.774233">
        <ele>1909.0</ele>
        <time>2013-09-13T12:41:58Z</time>
      </trkpt>
      <trkpt lat="42.024383" lon="0.774167">
        <ele>1912.0</ele>
        <time>2013-09-13T12:41:59Z</time>
      </trkpt>
      <trkpt lat="42.024383" lon="0.774100">
        <ele>1915.0</ele>
        <time>2013-09-13T12:42:00Z</time>
      </trkpt>
      <trkpt lat="42.024383" lon="0.774017">
        <ele>1917.0</ele>
        <time>2013-09-13T12:42:01Z</time>
      </trkpt>
      <trkpt lat="42.024367" lon="0.773950">
        <ele>1919.0</ele>
        <time>2013-09-13T12:42:02Z</time>
      </trkpt>
      <trkpt lat="42.024367" lon="0.773867">
        <ele>1922.0</ele>
        <time>2013-09-13T12:42:03Z</time>
      </trkpt>
      <trkpt lat="42.024350" lon="0.773800">
        <ele>1924.0</ele>
        <time>2013-09-13T12:42:04Z</time>
      </trkpt>
      <trkpt lat="42.024367" lon="0.773717">
        <ele>1926.0</ele>
        <time>2013-09-13T12:42:05Z</time>
      </trkpt>
      <trkpt lat="42.024383" lon="0.773633">
        <ele>1927.0</ele>
        <time>2013-09-13T12:42:06Z</time>
      </trkpt>
      <trkpt lat="42.024383" lon="0.773533">
        <ele>1928.0</ele>
        <time>2013-09-13T12:42:07Z</time>
      </trkpt>
      <trkpt lat="42.024383" lon="0.773467">
        <ele>1929.0</ele>
        <time>2013-09-13T12:42:08Z</time>
      </trkpt>
      <trkpt lat="42.024350" lon="0.773417">
        <ele>1930.0</ele>
        <time>2013-09-13T12:42:09Z</time>
      </trkpt>
      <trkpt lat="42.024317" lon="0.773367">
        <ele>1930.0</ele>
        <time>2013-09-13T12:42:10Z</time>
      </trkpt>
      <trkpt lat="42.024283" lon="0.773317">
        <ele>1929.0</ele>
        <time>2013-09-13T12:42:11Z</time>
      </trkpt>
      <trkpt lat="42.024267" lon="0.773233">
        <ele>1929.0</ele>
        <time>2013-09-13T12:42:12Z</time>
      </trkpt>
      <trkpt lat="42.024250" lon="0.773150">
        <ele>1928.0</ele>
        <time>2013-09-13T12:42:13Z</time>
      </trkpt>
      <trkpt lat="42.024233" lon="0.773050">
        <ele>1928.0</ele>
        <time>2013-09-13T12:42:14Z</time>
      </trkpt>
      <trkpt lat="42.024217" lon="0.772983">
        <ele>1929.0</ele>
        <time>2013-09-13T12:42:15Z</time>
      </trkpt>
      <trkpt lat="42.024200" lon="0.772917">
        <ele>1930.0</ele>
        <time>2013-09-13T12:42:16Z</time>
      </trkpt>
      <trkpt lat="42.024183" lon="0.772833">
        <ele>1931.0</ele>
        <time>2013-09-13T12:42:17Z</time>
      </trkpt>
      <trkpt lat="42.024167" lon="0.772750">
        <ele>1931.0</ele>
        <time>2013-09-13T12:42:18Z</time>
      </trkpt>
      <trkpt lat="42.024150" lon="0.772667">
        <ele>1931.0</ele>
        <time>2013-09-13T12:42:19Z</time>
      </trkpt>
      <trkpt lat="42.024133" lon="0.772583">
        <ele>1930.0</ele>
        <time>2013-09-13T12:42:20Z</time>
      </trkpt>
      <trkpt lat="42.024133" lon="0.772500">
        <ele>1930.0</ele>
        <time>2013-09-13T12:42:21Z</time>
      </trkpt>
      <trkpt lat="42.024100" lon="0.772417">
        <ele>1931.0</ele>
        <time>2013-09-13T12:42:22Z</time>
      </trkpt>
      <trkpt lat="42.024083" lon="0.772333">
        <ele>1931.0</ele>
        <time>2013-09-13T12:42:23Z</time>
      </trkpt>
      <trkpt lat="42.024067" lon="0.772233">
        <ele>1932.0</ele>
        <time>2013-09-13T12:42:24Z</time>
      </trkpt>
      <trkpt lat="42.024050" lon="0.772150">
        <ele>1933.0</ele>
        <time>2013-09-13T12:42:25Z</time>
      </trkpt>
      <trkpt lat="42.024033" lon="0.772067">
        <ele>1935.0</ele>
        <time>2013-09-13T12:42:26Z</time>
      </trkpt>
      <trkpt lat="42.024017" lon="0.771983">
        <ele>1936.0</ele>
        <time>2013-09-13T12:42:27Z</time>
      </trkpt>
      <trkpt lat="42.024017" lon="0.771900">
        <ele>1936.0</ele>
        <time>2013-09-13T12:42:28Z</time>
      </trkpt>
      <trkpt lat="42.024000" lon="0.771800">
        <ele>1937.0</ele>
        <time>2013-09-13T12:42:29Z</time>
      </trkpt>
      <trkpt lat="42.023983" lon="0.771717">
        <ele>1937.0</ele>
        <time>2013-09-13T12:42:30Z</time>
      </trkpt>
      <trkpt lat="42.023950" lon="0.771617">
        <ele>1938.0</ele>
        <time>2013-09-13T12:42:31Z</time>
      </trkpt>
      <trkpt lat="42.023900" lon="0.771517">
        <ele>1939.0</ele>
        <time>2013-09-13T12:42:32Z</time>
      </trkpt>
      <trkpt lat="42.023867" lon="0.771433">
        <ele>1939.0</ele>
        <time>2013-09-13T12:42:33Z</time>
      </trkpt>
      <trkpt lat="42.023817" lon="0.771350">
        <ele>1938.0</ele>
        <time>2013-09-13T12:42:34Z</time>
      </trkpt>
      <trkpt lat="42.023783" lon="0.771267">
        <ele>1938.0</ele>
        <time>2013-09-13T12:42:35Z</time>
      </trkpt>
      <trkpt lat="42.023733" lon="0.771183">
        <ele>1937.0</ele>
        <time>2013-09-13T12:42:36Z</time>
      </trkpt>
      <trkpt lat="42.023700" lon="0.771100">
        <ele>1935.0</ele>
        <time>2013-09-13T12:42:37Z</time>
      </trkpt>
      <trkpt lat="42.023650" lon="0.771033">
        <ele>1934.0</ele>
        <time>2013-09-13T12:42:38Z</time>
      </trkpt>
      <trkpt lat="42.023600" lon="0.770950">
        <ele>1933.0</ele>
        <time>2013-09-13T12:42:39Z</time>
      </trkpt>
      <trkpt lat="42.023567" lon="0.770883">
        <ele>1932.0</ele>
        <time>2013-09-13T12:42:40Z</time>
      </trkpt>
      <trkpt lat="42.023517" lon="0.770800">
        <ele>1930.0</ele>
        <time>2013-09-13T12:42:41Z</time>
      </trkpt>
      <trkpt lat="42.023483" lon="0.770700">
        <ele>1928.0</ele>
        <time>2013-09-13T12:42:42Z</time>
      </trkpt>
      <trkpt lat="42.023450" lon="0.770600">
        <ele>1926.0</ele>
        <time>2013-09-13T12:42:43Z</time>
      </trkpt>
      <trkpt lat="42.023417" lon="0.770500">
        <ele>1925.0</ele>
        <time>2013-09-13T12:42:44Z</time>
      </trkpt>
      <trkpt lat="42.023383" lon="0.770417">
        <ele>1923.0</ele>
        <time>2013-09-13T12:42:45Z</time>
      </trkpt>
      <trkpt lat="42.023350" lon="0.770333">
        <ele>1922.0</ele>
        <time>2013-09-13T12:42:46Z</time>
      </trkpt>
      <trkpt lat="42.023300" lon="0.770250">
        <ele>1920.0</ele>
        <time>2013-09-13T12:42:47Z</time>
      </trkpt>
      <trkpt lat="42.023267" lon="0.770133">
        <ele>1917.0</ele>
        <time>2013-09-13T12:42:48Z</time>
      </trkpt>
      <trkpt lat="42.023233" lon="0.770033">
        <ele>1915.0</ele>
        <time>2013-09-13T12:42:49Z</time>
      </trkpt>
      <trkpt lat="42.023200" lon="0.769917">
        <ele>1913.0</ele>
        <time>2013-09-13T12:42:50Z</time>
      </trkpt>
      <trkpt lat="42.023167" lon="0.769817">
        <ele>1911.0</ele>
        <time>2013-09-13T12:42:51Z</time>
      </trkpt>
      <trkpt lat="42.023150" lon="0.769717">
        <ele>1910.0</ele>
        <time>2013-09-13T12:42:52Z</time>
      </trkpt>
      <trkpt lat="42.023117" lon="0.769617">
        <ele>1909.0</ele>
        <time>2013-09-13T12:42:53Z</time>
      </trkpt>
      <trkpt lat="42.023100" lon="0.769500">
        <ele>1906.0</ele>
        <time>2013-09-13T12:42:54Z</time>
      </trkpt>
      <trkpt lat="42.023067" lon="0.769367">
        <ele>1904.0</ele>
        <time>2013-09-13T12:42:55Z</time>
      </trkpt>
      <trkpt lat="42.023050" lon="0.769250">
        <ele>1903.0</ele>
        <time>2013-09-13T12:42:56Z</time>
      </trkpt>
      <trkpt lat="42.023033" lon="0.769133">
        <ele>1902.0</ele>
        <time>2013-09-13T12:42:57Z</time>
      </trkpt>
      <trkpt lat="42.023017" lon="0.769033">
        <ele>1901.0</ele>
        <time>2013-09-13T12:42:58Z</time>
      </trkpt>
      <trkpt lat="42.023000" lon="0.768933">
        <ele>1900.0</ele>
        <time>2013-09-13T12:42:59Z</time>
      </trkpt>
      <trkpt lat="42.022983" lon="0.768833">
        <ele>1900.0</ele>
        <time>2013-09-13T12:43:00Z</time>
      </trkpt>
      <trkpt lat="42.022967" lon="0.768733">
        <ele>1898.0</ele>
        <time>2013-09-13T12:43:01Z</time>
      </trkpt>
      <trkpt lat="42.022950" lon="0.768617">
        <ele>1897.0</ele>
        <time>2013-09-13T12:43:02Z</time>
      </trkpt>
      <trkpt lat="42.022933" lon="0.768500">
        <ele>1897.0</ele>
        <time>2013-09-13T12:43:03Z</time>
      </trkpt>
      <trkpt lat="42.022917" lon="0.768383">
        <ele>1897.0</ele>
        <time>2013-09-13T12:43:04Z</time>
      </trkpt>
      <trkpt lat="42.022900" lon="0.768267">
        <ele>1897.0</ele>
        <time>2013-09-13T12:43:05Z</time>
      </trkpt>
      <trkpt lat="42.022883" lon="0.768167">
        <ele>1898.0</ele>
        <time>2013-09-13T12:43:06Z</time>
      </trkpt>
      <trkpt lat="42.022867" lon="0.768067">
        <ele>1898.0</ele>
        <time>2013-09-13T12:43:07Z</time>
      </trkpt>
      <trkpt lat="42.022850" lon="0.767967">
        <ele>1897.0</ele>
        <time>2013-09-13T12:43:08Z</time>
      </trkpt>
      <trkpt lat="42.022833" lon="0.767883">
        <ele>1896.0</ele>
        <time>2013-09-13T12:43:09Z</time>
      </trkpt>
      <trkpt lat="42.022833" lon="0.767783">
        <ele>1895.0</ele>
        <time>2013-09-13T12:43:10Z</time>
      </trkpt>
      <trkpt lat="42.022833" lon="0.767700">
        <ele>1894.0</ele>
        <time>2013-09-13T12:43:11Z</time>
      </trkpt>
      <trkpt lat="42.022833" lon="0.767583">
        <ele>1892.0</ele>
        <time>2013-09-13T12:43:12Z</time>
      </trkpt>
      <trkpt lat="42.022833" lon="0.767467">
        <ele>1890.0</ele>
        <time>2013-09-13T12:43:13Z</time>
      </trkpt>
      <trkpt lat="42.022833" lon="0.767350">
        <ele>1889.0</ele>
        <time>2013-09-13T12:43:14Z</time>
      </trkpt>
      <trkpt lat="42.022833" lon="0.767250">
        <ele>1888.0</ele>
        <time>2013-09-13T12:43:15Z</time>
      </trkpt>
      <trkpt lat="42.022833" lon="0.767150">
        <ele>1887.0</ele>
        <time>2013-09-13T12:43:16Z</time>
      </trkpt>
      <trkpt lat="42.022850" lon="0.767033">
        <ele>1886.0</ele>
        <time>2013-09-13T12:43:17Z</time>
      </trkpt>
      <trkpt lat="42.022850" lon="0.766917">
        <ele>1885.0</ele>
        <time>2013-09-13T12:43:18Z</time>
      </trkpt>
      <trkpt lat="42.022850" lon="0.766783">
        <ele>1883.0</ele>
        <time>2013-09-13T12:43:19Z</time>
      </trkpt>
      <trkpt lat="42.022867" lon="0.766667">
        <ele>1883.0</ele>
        <time>2013-09-13T12:43:20Z</time>
      </trkpt>
      <trkpt lat="42.022883" lon="0.766567">
        <ele>1884.0</ele>
        <time>2013-09-13T12:43:21Z</time>
      </trkpt>
      <trkpt lat="42.022883" lon="0.766483">
        <ele>1884.0</ele>
        <time>2013-09-13T12:43:22Z</time>
      </trkpt>
      <trkpt lat="42.022883" lon="0.766383">
        <ele>1882.0</ele>
        <time>2013-09-13T12:43:23Z</time>
      </trkpt>
      <trkpt lat="42.022883" lon="0.766267">
        <ele>1880.0</ele>
        <time>2013-09-13T12:43:24Z</time>
      </trkpt>
      <trkpt lat="42.022900" lon="0.766150">
        <ele>1877.0</ele>
        <time>2013-09-13T12:43:25Z</time>
      </trkpt>
      <trkpt lat="42.022917" lon="0.766017">
        <ele>1875.0</ele>
        <time>2013-09-13T12:43:26Z</time>
      </trkpt>
      <trkpt lat="42.022917" lon="0.765900">
        <ele>1874.0</ele>
        <time>2013-09-13T12:43:27Z</time>
      </trkpt>
      <trkpt lat="42.022917" lon="0.765783">
        <ele>1872.0</ele>
        <time>2013-09-13T12:43:28Z</time>
      </trkpt>
      <trkpt lat="42.022917" lon="0.765650">
        <ele>1870.0</ele>
        <time>2013-09-13T12:43:29Z</time>
      </trkpt>
      <trkpt lat="42.022917" lon="0.765517">
        <ele>1868.0</ele>
        <time>2013-09-13T12:43:30Z</time>
      </trkpt>
      <trkpt lat="42.022900" lon="0.765383">
        <ele>1867.0</ele>
        <time>2013-09-13T12:43:31Z</time>
      </trkpt>
      <trkpt lat="42.022883" lon="0.765250">
        <ele>1866.0</ele>
        <time>2013-09-13T12:43:32Z</time>
      </trkpt>
      <trkpt lat="42.022850" lon="0.765133">
        <ele>1866.0</ele>
        <time>2013-09-13T12:43:33Z</time>
      </trkpt>
      <trkpt lat="42.022833" lon="0.765033">
        <ele>1867.0</ele>
        <time>2013-09-13T12:43:34Z</time>
      </trkpt>
      <trkpt lat="42.022817" lon="0.764933">
        <ele>1867.0</ele>
        <time>2013-09-13T12:43:35Z</time>
      </trkpt>
      <trkpt lat="42.022783" lon="0.764833">
        <ele>1866.0</ele>
        <time>2013-09-13T12:43:36Z</time>
      </trkpt>
      <trkpt lat="42.022767" lon="0.764717">
        <ele>1865.0</ele>
        <time>2013-09-13T12:43:37Z</time>
      </trkpt>
      <trkpt lat="42.022733" lon="0.764600">
        <ele>1864.0</ele>
        <time>2013-09-13T12:43:38Z</time>
      </trkpt>
      <trkpt lat="42.022717" lon="0.764483">
        <ele>1863.0</ele>
        <time>2013-09-13T12:43:39Z</time>
      </trkpt>
      <trkpt lat="42.022700" lon="0.764367">
        <ele>1862.0</ele>
        <time>2013-09-13T12:43:40Z</time>
      </trkpt>
      <trkpt lat="42.022683" lon="0.764250">
        <ele>1861.0</ele>
        <time>2013-09-13T12:43:41Z</time>
      </trkpt>
      <trkpt lat="42.022667" lon="0.764150">
        <ele>1861.0</ele>
        <time>2013-09-13T12:43:42Z</time>
      </trkpt>
      <trkpt lat="42.022633" lon="0.764050">
        <ele>1860.0</ele>
        <time>2013-09-13T12:43:43Z</time>
      </trkpt>
      <trkpt lat="42.022633" lon="0.763933">
        <ele>1859.0</ele>
        <time>2013-09-13T12:43:44Z</time>
      </trkpt>
      <trkpt lat="42.022617" lon="0.763817">
        <ele>1859.0</ele>
        <time>2013-09-13T12:43:45Z</time>
      </trkpt>
      <trkpt lat="42.022617" lon="0.763717">
        <ele>1859.0</ele>
        <time>2013-09-13T12:43:46Z</time>
      </trkpt>
      <trkpt lat="42.022617" lon="0.763617">
        <ele>1858.0</ele>
        <time>2013-09-13T12:43:47Z</time>
      </trkpt>
      <trkpt lat="42.022600" lon="0.763517">
        <ele>1857.0</ele>
        <time>2013-09-13T12:43:48Z</time>
      </trkpt>
      <trkpt lat="42.022600" lon="0.763417">
        <ele>1856.0</ele>
        <time>2013-09-13T12:43:49Z</time>
      </trkpt>
      <trkpt lat="42.022583" lon="0.763317">
        <ele>1855.0</ele>
        <time>2013-09-13T12:43:50Z</time>
      </trkpt>
      <trkpt lat="42.022567" lon="0.763200">
        <ele>1854.0</ele>
        <time>2013-09-13T12:43:51Z</time>
      </trkpt>
      <trkpt lat="42.022567" lon="0.763100">
        <ele>1853.0</ele>
        <time>2013-09-13T12:43:52Z</time>
      </trkpt>
      <trkpt lat="42.022550" lon="0.763000">
        <ele>1852.0</ele>
        <time>2013-09-13T12:43:53Z</time>
      </trkpt>
      <trkpt lat="42.022550" lon="0.762917">
        <ele>1851.0</ele>
        <time>2013-09-13T12:43:54Z</time>
      </trkpt>
      <trkpt lat="42.022533" lon="0.762817">
        <ele>1849.0</ele>
        <time>2013-09-13T12:43:55Z</time>
      </trkpt>
      <trkpt lat="42.022517" lon="0.762700">
        <ele>1847.0</ele>
        <time>2013-09-13T12:43:56Z</time>
      </trkpt>
      <trkpt lat="42.022500" lon="0.762583">
        <ele>1844.0</ele>
        <time>2013-09-13T12:43:57Z</time>
      </trkpt>
      <trkpt lat="42.022483" lon="0.762467">
        <ele>1842.0</ele>
        <time>2013-09-13T12:43:58Z</time>
      </trkpt>
      <trkpt lat="42.022467" lon="0.762350">
        <ele>1839.0</ele>
        <time>2013-09-13T12:43:59Z</time>
      </trkpt>
      <trkpt lat="42.022450" lon="0.762250">
        <ele>1838.0</ele>
        <time>2013-09-13T12:44:00Z</time>
      </trkpt>
      <trkpt lat="42.022433" lon="0.762150">
        <ele>1836.0</ele>
        <time>2013-09-13T12:44:01Z</time>
      </trkpt>
      <trkpt lat="42.022417" lon="0.762050">
        <ele>1834.0</ele>
        <time>2013-09-13T12:44:02Z</time>
      </trkpt>
      <trkpt lat="42.022400" lon="0.761933">
        <ele>1831.0</ele>
        <time>2013-09-13T12:44:03Z</time>
      </trkpt>
      <trkpt lat="42.022383" lon="0.761800">
        <ele>1829.0</ele>
        <time>2013-09-13T12:44:04Z</time>
      </trkpt>
      <trkpt lat="42.022383" lon="0.761683">
        <ele>1827.0</ele>
        <time>2013-09-13T12:44:05Z</time>
      </trkpt>
      <trkpt lat="42.022350" lon="0.761567">
        <ele>1825.0</ele>
        <time>2013-09-13T12:44:06Z</time>
      </trkpt>
      <trkpt lat="42.022333" lon="0.761467">
        <ele>1825.0</ele>
        <time>2013-09-13T12:44:07Z</time>
      </trkpt>
      <trkpt lat="42.022317" lon="0.761383">
        <ele>1823.0</ele>
        <time>2013-09-13T12:44:08Z</time>
      </trkpt>
      <trkpt lat="42.022300" lon="0.761267">
        <ele>1821.0</ele>
        <time>2013-09-13T12:44:09Z</time>
      </trkpt>
      <trkpt lat="42.022283" lon="0.761150">
        <ele>1819.0</ele>
        <time>2013-09-13T12:44:10Z</time>
      </trkpt>
      <trkpt lat="42.022250" lon="0.761033">
        <ele>1816.0</ele>
        <time>2013-09-13T12:44:11Z</time>
      </trkpt>
      <trkpt lat="42.022233" lon="0.760917">
        <ele>1814.0</ele>
        <time>2013-09-13T12:44:12Z</time>
      </trkpt>
      <trkpt lat="42.022217" lon="0.760800">
        <ele>1812.0</ele>
        <time>2013-09-13T12:44:13Z</time>
      </trkpt>
      <trkpt lat="42.022217" lon="0.760683">
        <ele>1811.0</ele>
        <time>2013-09-13T12:44:14Z</time>
      </trkpt>
      <trkpt lat="42.022200" lon="0.760567">
        <ele>1809.0</ele>
        <time>2013-09-13T12:44:15Z</time>
      </trkpt>
      <trkpt lat="42.022167" lon="0.760450">
        <ele>1808.0</ele>
        <time>2013-09-13T12:44:16Z</time>
      </trkpt>
      <trkpt lat="42.022150" lon="0.760333">
        <ele>1806.0</ele>
        <time>2013-09-13T12:44:17Z</time>
      </trkpt>
      <trkpt lat="42.022133" lon="0.760117">
        <ele>1805.0</ele>
        <time>2013-09-13T12:44:19Z</time>
      </trkpt>
      <trkpt lat="42.022133" lon="0.760017">
        <ele>1804.0</ele>
        <time>2013-09-13T12:44:20Z</time>
      </trkpt>
      <trkpt lat="42.022117" lon="0.759933">
        <ele>1803.0</ele>
        <time>2013-09-13T12:44:21Z</time>
      </trkpt>
      <trkpt lat="42.022100" lon="0.759833">
        <ele>1801.0</ele>
        <time>2013-09-13T12:44:22Z</time>
      </trkpt>
      <trkpt lat="42.022083" lon="0.759717">
        <ele>1800.0</ele>
        <time>2013-09-13T12:44:23Z</time>
      </trkpt>
      <trkpt lat="42.022083" lon="0.759617">
        <ele>1798.0</ele>
        <time>2013-09-13T12:44:24Z</time>
      </trkpt>
      <trkpt lat="42.022050" lon="0.759500">
        <ele>1796.0</ele>
        <time>2013-09-13T12:44:25Z</time>
      </trkpt>
      <trkpt lat="42.022033" lon="0.759400">
        <ele>1796.0</ele>
        <time>2013-09-13T12:44:26Z</time>
      </trkpt>
      <trkpt lat="42.022000" lon="0.759317">
        <ele>1795.0</ele>
        <time>2013-09-13T12:44:27Z</time>
      </trkpt>
      <trkpt lat="42.021933" lon="0.759100">
        <ele>1791.0</ele>
        <time>2013-09-13T12:44:29Z</time>
      </trkpt>
      <trkpt lat="42.021917" lon="0.758983">
        <ele>1789.0</ele>
        <time>2013-09-13T12:44:30Z</time>
      </trkpt>
      <trkpt lat="42.021883" lon="0.758867">
        <ele>1788.0</ele>
        <time>2013-09-13T12:44:31Z</time>
      </trkpt>
      <trkpt lat="42.021867" lon="0.758750">
        <ele>1786.0</ele>
        <time>2013-09-13T12:44:32Z</time>
      </trkpt>
      <trkpt lat="42.021833" lon="0.758650">
        <ele>1786.0</ele>
        <time>2013-09-13T12:44:33Z</time>
      </trkpt>
      <trkpt lat="42.021817" lon="0.758533">
        <ele>1785.0</ele>
        <time>2013-09-13T12:44:34Z</time>
      </trkpt>
      <trkpt lat="42.021800" lon="0.758433">
        <ele>1784.0</ele>
        <time>2013-09-13T12:44:35Z</time>
      </trkpt>
      <trkpt lat="42.021767" lon="0.758333">
        <ele>1782.0</ele>
        <time>2013-09-13T12:44:36Z</time>
      </trkpt>
      <trkpt lat="42.021750" lon="0.758233">
        <ele>1781.0</ele>
        <time>2013-09-13T12:44:37Z</time>
      </trkpt>
      <trkpt lat="42.021717" lon="0.758133">
        <ele>1779.0</ele>
        <time>2013-09-13T12:44:38Z</time>
      </trkpt>
      <trkpt lat="42.021700" lon="0.758017">
        <ele>1777.0</ele>
        <time>2013-09-13T12:44:39Z</time>
      </trkpt>
      <trkpt lat="42.021683" lon="0.757917">
        <ele>1776.0</ele>
        <time>2013-09-13T12:44:40Z</time>
      </trkpt>
      <trkpt lat="42.021650" lon="0.757800">
        <ele>1774.0</ele>
        <time>2013-09-13T12:44:41Z</time>
      </trkpt>
      <trkpt lat="42.021633" lon="0.757700">
        <ele>1774.0</ele>
        <time>2013-09-13T12:44:42Z</time>
      </trkpt>
      <trkpt lat="42.021617" lon="0.757617">
        <ele>1773.0</ele>
        <time>2013-09-13T12:44:43Z</time>
      </trkpt>
      <trkpt lat="42.021600" lon="0.757500">
        <ele>1772.0</ele>
        <time>2013-09-13T12:44:44Z</time>
      </trkpt>
      <trkpt lat="42.021567" lon="0.757400">
        <ele>1772.0</ele>
        <time>2013-09-13T12:44:45Z</time>
      </trkpt>
      <trkpt lat="42.021550" lon="0.757283">
        <ele>1771.0</ele>
        <time>2013-09-13T12:44:46Z</time>
      </trkpt>
      <trkpt lat="42.021533" lon="0.757183">
        <ele>1771.0</ele>
        <time>2013-09-13T12:44:47Z</time>
      </trkpt>
      <trkpt lat="42.021517" lon="0.757083">
        <ele>1771.0</ele>
        <time>2013-09-13T12:44:48Z</time>
      </trkpt>
      <trkpt lat="42.021483" lon="0.757000">
        <ele>1771.0</ele>
        <time>2013-09-13T12:44:49Z</time>
      </trkpt>
      <trkpt lat="42.021467" lon="0.756883">
        <ele>1770.0</ele>
        <time>2013-09-13T12:44:50Z</time>
      </trkpt>
      <trkpt lat="42.021433" lon="0.756783">
        <ele>1769.0</ele>
        <time>2013-09-13T12:44:51Z</time>
      </trkpt>
      <trkpt lat="42.021417" lon="0.756683">
        <ele>1768.0</ele>
        <time>2013-09-13T12:44:52Z</time>
      </trkpt>
      <trkpt lat="42.021383" lon="0.756583">
        <ele>1768.0</ele>
        <time>2013-09-13T12:44:53Z</time>
      </trkpt>
      <trkpt lat="42.021350" lon="0.756483">
        <ele>1768.0</ele>
        <time>2013-09-13T12:44:54Z</time>
      </trkpt>
      <trkpt lat="42.021317" lon="0.756400">
        <ele>1768.0</ele>
        <time>2013-09-13T12:44:55Z</time>
      </trkpt>
      <trkpt lat="42.021250" lon="0.756200">
        <ele>1766.0</ele>
        <time>2013-09-13T12:44:57Z</time>
      </trkpt>
      <trkpt lat="42.021217" lon="0.756083">
        <ele>1765.0</ele>
        <time>2013-09-13T12:44:58Z</time>
      </trkpt>
      <trkpt lat="42.021183" lon="0.755967">
        <ele>1764.0</ele>
        <time>2013-09-13T12:44:59Z</time>
      </trkpt>
      <trkpt lat="42.021150" lon="0.755867">
        <ele>1763.0</ele>
        <time>2013-09-13T12:45:00Z</time>
      </trkpt>
      <trkpt lat="42.021117" lon="0.755750">
        <ele>1763.0</ele>
        <time>2013-09-13T12:45:01Z</time>
      </trkpt>
      <trkpt lat="42.021067" lon="0.755650">
        <ele>1762.0</ele>
        <time>2013-09-13T12:45:02Z</time>
      </trkpt>
      <trkpt lat="42.021033" lon="0.755533">
        <ele>1761.0</ele>
        <time>2013-09-13T12:45:03Z</time>
      </trkpt>
      <trkpt lat="42.021000" lon="0.755433">
        <ele>1760.0</ele>
        <time>2013-09-13T12:45:04Z</time>
      </trkpt>
      <trkpt lat="42.020950" lon="0.755333">
        <ele>1759.0</ele>
        <time>2013-09-13T12:45:05Z</time>
      </trkpt>
      <trkpt lat="42.020917" lon="0.755233">
        <ele>1758.0</ele>
        <time>2013-09-13T12:45:06Z</time>
      </trkpt>
      <trkpt lat="42.020867" lon="0.755117">
        <ele>1756.0</ele>
        <time>2013-09-13T12:45:07Z</time>
      </trkpt>
      <trkpt lat="42.020833" lon="0.755000">
        <ele>1754.0</ele>
        <time>2013-09-13T12:45:08Z</time>
      </trkpt>
      <trkpt lat="42.020783" lon="0.754883">
        <ele>1753.0</ele>
        <time>2013-09-13T12:45:09Z</time>
      </trkpt>
      <trkpt lat="42.020733" lon="0.754783">
        <ele>1751.0</ele>
        <time>2013-09-13T12:45:10Z</time>
      </trkpt>
      <trkpt lat="42.020700" lon="0.754667">
        <ele>1750.0</ele>
        <time>2013-09-13T12:45:11Z</time>
      </trkpt>
      <trkpt lat="42.020650" lon="0.754567">
        <ele>1748.0</ele>
        <time>2013-09-13T12:45:12Z</time>
      </trkpt>
      <trkpt lat="42.020600" lon="0.754450">
        <ele>1746.0</ele>
        <time>2013-09-13T12:45:13Z</time>
      </trkpt>
      <trkpt lat="42.020567" lon="0.754333">
        <ele>1745.0</ele>
        <time>2013-09-13T12:45:14Z</time>
      </trkpt>
      <trkpt lat="42.020517" lon="0.754217">
        <ele>1742.0</ele>
        <time>2013-09-13T12:45:15Z</time>
      </trkpt>
      <trkpt lat="42.020467" lon="0.754100">
        <ele>1741.0</ele>
        <time>2013-09-13T12:45:16Z</time>
      </trkpt>
      <trkpt lat="42.020433" lon="0.754000">
        <ele>1740.0</ele>
        <time>2013-09-13T12:45:17Z</time>
      </trkpt>
      <trkpt lat="42.020367" lon="0.753900">
        <ele>1739.0</ele>
        <time>2013-09-13T12:45:18Z</time>
      </trkpt>
      <trkpt lat="42.020317" lon="0.753783">
        <ele>1737.0</ele>
        <time>2013-09-13T12:45:19Z</time>
      </trkpt>
      <trkpt lat="42.020267" lon="0.753667">
        <ele>1735.0</ele>
        <time>2013-09-13T12:45:20Z</time>
      </trkpt>
      <trkpt lat="42.020217" lon="0.753550">
        <ele>1734.0</ele>
        <time>2013-09-13T12:45:21Z</time>
      </trkpt>
      <trkpt lat="42.020167" lon="0.753433">
        <ele>1732.0</ele>
        <time>2013-09-13T12:45:22Z</time>
      </trkpt>
      <trkpt lat="42.020117" lon="0.753333">
        <ele>1731.0</ele>
        <time>2013-09-13T12:45:23Z</time>
      </trkpt>
      <trkpt lat="42.020067" lon="0.753217">
        <ele>1730.0</ele>
        <time>2013-09-13T12:45:24Z</time>
      </trkpt>
      <trkpt lat="42.020017" lon="0.753117">
        <ele>1729.0</ele>
        <time>2013-09-13T12:45:25Z</time>
      </trkpt>
      <trkpt lat="42.019983" lon="0.753033">
        <ele>1727.0</ele>
        <time>2013-09-13T12:45:26Z</time>
      </trkpt>
      <trkpt lat="42.019933" lon="0.752933">
        <ele>1726.0</ele>
        <time>2013-09-13T12:45:27Z</time>
      </trkpt>
      <trkpt lat="42.019883" lon="0.752850">
        <ele>1725.0</ele>
        <time>2013-09-13T12:45:28Z</time>
      </trkpt>
      <trkpt lat="42.019833" lon="0.752767">
        <ele>1723.0</ele>
        <time>2013-09-13T12:45:29Z</time>
      </trkpt>
      <trkpt lat="42.019783" lon="0.752667">
        <ele>1721.0</ele>
        <time>2013-09-13T12:45:30Z</time>
      </trkpt>
      <trkpt lat="42.019717" lon="0.752567">
        <ele>1719.0</ele>
        <time>2013-09-13T12:45:31Z</time>
      </trkpt>
      <trkpt lat="42.019650" lon="0.752467">
        <ele>1718.0</ele>
        <time>2013-09-13T12:45:32Z</time>
      </trkpt>
      <trkpt lat="42.019600" lon="0.752383">
        <ele>1718.0</ele>
        <time>2013-09-13T12:45:33Z</time>
      </trkpt>
      <trkpt lat="42.019550" lon="0.752300">
        <ele>1718.0</ele>
        <time>2013-09-13T12:45:34Z</time>
      </trkpt>
      <trkpt lat="42.019500" lon="0.752217">
        <ele>1717.0</ele>
        <time>2013-09-13T12:45:35Z</time>
      </trkpt>
      <trkpt lat="42.019450" lon="0.752117">
        <ele>1716.0</ele>
        <time>2013-09-13T12:45:36Z</time>
      </trkpt>
      <trkpt lat="42.019383" lon="0.752017">
        <ele>1715.0</ele>
        <time>2013-09-13T12:45:37Z</time>
      </trkpt>
      <trkpt lat="42.019333" lon="0.751933">
        <ele>1714.0</ele>
        <time>2013-09-13T12:45:38Z</time>
      </trkpt>
      <trkpt lat="42.019267" lon="0.751833">
        <ele>1714.0</ele>
        <time>2013-09-13T12:45:39Z</time>
      </trkpt>
      <trkpt lat="42.019217" lon="0.751767">
        <ele>1714.0</ele>
        <time>2013-09-13T12:45:40Z</time>
      </trkpt>
      <trkpt lat="42.019167" lon="0.751683">
        <ele>1714.0</ele>
        <time>2013-09-13T12:45:41Z</time>
      </trkpt>
      <trkpt lat="42.019117" lon="0.751600">
        <ele>1713.0</ele>
        <time>2013-09-13T12:45:42Z</time>
      </trkpt>
      <trkpt lat="42.019050" lon="0.751517">
        <ele>1712.0</ele>
        <time>2013-09-13T12:45:43Z</time>
      </trkpt>
      <trkpt lat="42.019000" lon="0.751433">
        <ele>1711.0</ele>
        <time>2013-09-13T12:45:44Z</time>
      </trkpt>
      <trkpt lat="42.018950" lon="0.751333">
        <ele>1710.0</ele>
        <time>2013-09-13T12:45:45Z</time>
      </trkpt>
      <trkpt lat="42.018917" lon="0.751250">
        <ele>1709.0</ele>
        <time>2013-09-13T12:45:46Z</time>
      </trkpt>
      <trkpt lat="42.018867" lon="0.751150">
        <ele>1708.0</ele>
        <time>2013-09-13T12:45:47Z</time>
      </trkpt>
      <trkpt lat="42.018817" lon="0.751067">
        <ele>1707.0</ele>
        <time>2013-09-13T12:45:48Z</time>
      </trkpt>
      <trkpt lat="42.018767" lon="0.750967">
        <ele>1706.0</ele>
        <time>2013-09-13T12:45:49Z</time>
      </trkpt>
      <trkpt lat="42.018700" lon="0.750883">
        <ele>1705.0</ele>
        <time>2013-09-13T12:45:50Z</time>
      </trkpt>
      <trkpt lat="42.018650" lon="0.750783">
        <ele>1704.0</ele>
        <time>2013-09-13T12:45:51Z</time>
      </trkpt>
      <trkpt lat="42.018600" lon="0.750700">
        <ele>1703.0</ele>
        <time>2013-09-13T12:45:52Z</time>
      </trkpt>
      <trkpt lat="42.018550" lon="0.750583">
        <ele>1702.0</ele>
        <time>2013-09-13T12:45:53Z</time>
      </trkpt>
      <trkpt lat="42.018500" lon="0.750483">
        <ele>1701.0</ele>
        <time>2013-09-13T12:45:54Z</time>
      </trkpt>
      <trkpt lat="42.018450" lon="0.750383">
        <ele>1700.0</ele>
        <time>2013-09-13T12:45:55Z</time>
      </trkpt>
      <trkpt lat="42.018383" lon="0.750300">
        <ele>1699.0</ele>
        <time>2013-09-13T12:45:56Z</time>
      </trkpt>
      <trkpt lat="42.018333" lon="0.750200">
        <ele>1699.0</ele>
        <time>2013-09-13T12:45:57Z</time>
      </trkpt>
      <trkpt lat="42.018283" lon="0.750100">
        <ele>1698.0</ele>
        <time>2013-09-13T12:45:58Z</time>
      </trkpt>
      <trkpt lat="42.018233" lon="0.750017">
        <ele>1698.0</ele>
        <time>2013-09-13T12:45:59Z</time>
      </trkpt>
      <trkpt lat="42.018183" lon="0.749917">
        <ele>1698.0</ele>
        <time>2013-09-13T12:46:00Z</time>
      </trkpt>
      <trkpt lat="42.018133" lon="0.749817">
        <ele>1697.0</ele>
        <time>2013-09-13T12:46:01Z</time>
      </trkpt>
      <trkpt lat="42.018083" lon="0.749733">
        <ele>1697.0</ele>
        <time>2013-09-13T12:46:02Z</time>
      </trkpt>
      <trkpt lat="42.018050" lon="0.749633">
        <ele>1697.0</ele>
        <time>2013-09-13T12:46:03Z</time>
      </trkpt>
      <trkpt lat="42.018000" lon="0.749550">
        <ele>1696.0</ele>
        <time>2013-09-13T12:46:04Z</time>
      </trkpt>
      <trkpt lat="42.017950" lon="0.749450">
        <ele>1696.0</ele>
        <time>2013-09-13T12:46:05Z</time>
      </trkpt>
      <trkpt lat="42.017900" lon="0.749350">
        <ele>1695.0</ele>
        <time>2013-09-13T12:46:06Z</time>
      </trkpt>
      <trkpt lat="42.017867" lon="0.749250">
        <ele>1695.0</ele>
        <time>2013-09-13T12:46:07Z</time>
      </trkpt>
      <trkpt lat="42.017817" lon="0.749133">
        <ele>1694.0</ele>
        <time>2013-09-13T12:46:08Z</time>
      </trkpt>
      <trkpt lat="42.017767" lon="0.749033">
        <ele>1693.0</ele>
        <time>2013-09-13T12:46:09Z</time>
      </trkpt>
      <trkpt lat="42.017717" lon="0.748933">
        <ele>1693.0</ele>
        <time>2013-09-13T12:46:10Z</time>
      </trkpt>
      <trkpt lat="42.017683" lon="0.748833">
        <ele>1692.0</ele>
        <time>2013-09-13T12:46:11Z</time>
      </trkpt>
      <trkpt lat="42.017633" lon="0.748733">
        <ele>1691.0</ele>
        <time>2013-09-13T12:46:12Z</time>
      </trkpt>
      <trkpt lat="42.017600" lon="0.748633">
        <ele>1690.0</ele>
        <time>2013-09-13T12:46:13Z</time>
      </trkpt>
      <trkpt lat="42.017550" lon="0.748517">
        <ele>1689.0</ele>
        <time>2013-09-13T12:46:14Z</time>
      </trkpt>
      <trkpt lat="42.017500" lon="0.748400">
        <ele>1688.0</ele>
        <time>2013-09-13T12:46:15Z</time>
      </trkpt>
      <trkpt lat="42.017450" lon="0.748300">
        <ele>1687.0</ele>
        <time>2013-09-13T12:46:16Z</time>
      </trkpt>
      <trkpt lat="42.017417" lon="0.748183">
        <ele>1686.0</ele>
        <time>2013-09-13T12:46:17Z</time>
      </trkpt>
      <trkpt lat="42.017367" lon="0.748083">
        <ele>1686.0</ele>
        <time>2013-09-13T12:46:18Z</time>
      </trkpt>
      <trkpt lat="42.017317" lon="0.748000">
        <ele>1685.0</ele>
        <time>2013-09-13T12:46:19Z</time>
      </trkpt>
      <trkpt lat="42.017283" lon="0.747917">
        <ele>1685.0</ele>
        <time>2013-09-13T12:46:20Z</time>
      </trkpt>
      <trkpt lat="42.017233" lon="0.747817">
        <ele>1684.0</ele>
        <time>2013-09-13T12:46:21Z</time>
      </trkpt>
      <trkpt lat="42.017167" lon="0.747717">
        <ele>1684.0</ele>
        <time>2013-09-13T12:46:22Z</time>
      </trkpt>
      <trkpt lat="42.017117" lon="0.747617">
        <ele>1682.0</ele>
        <time>2013-09-13T12:46:23Z</time>
      </trkpt>
      <trkpt lat="42.017067" lon="0.747517">
        <ele>1682.0</ele>
        <time>2013-09-13T12:46:24Z</time>
      </trkpt>
      <trkpt lat="42.017033" lon="0.747417">
        <ele>1681.0</ele>
        <time>2013-09-13T12:46:25Z</time>
      </trkpt>
      <trkpt lat="42.016983" lon="0.747333">
        <ele>1680.0</ele>
        <time>2013-09-13T12:46:26Z</time>
      </trkpt>
      <trkpt lat="42.016950" lon="0.747250">
        <ele>1679.0</ele>
        <time>2013-09-13T12:46:27Z</time>
      </trkpt>
      <trkpt lat="42.016917" lon="0.747150">
        <ele>1678.0</ele>
        <time>2013-09-13T12:46:28Z</time>
      </trkpt>
      <trkpt lat="42.016883" lon="0.747067">
        <ele>1677.0</ele>
        <time>2013-09-13T12:46:29Z</time>
      </trkpt>
      <trkpt lat="42.016850" lon="0.746967">
        <ele>1676.0</ele>
        <time>2013-09-13T12:46:30Z</time>
      </trkpt>
      <trkpt lat="42.016817" lon="0.746850">
        <ele>1675.0</ele>
        <time>2013-09-13T12:46:31Z</time>
      </trkpt>
      <trkpt lat="42.016783" lon="0.746750">
        <ele>1675.0</ele>
        <time>2013-09-13T12:46:32Z</time>
      </trkpt>
      <trkpt lat="42.016750" lon="0.746650">
        <ele>1676.0</ele>
        <time>2013-09-13T12:46:33Z</time>
      </trkpt>
      <trkpt lat="42.016717" lon="0.746583">
        <ele>1678.0</ele>
        <time>2013-09-13T12:46:34Z</time>
      </trkpt>
      <trkpt lat="42.016683" lon="0.746533">
        <ele>1679.0</ele>
        <time>2013-09-13T12:46:35Z</time>
      </trkpt>
      <trkpt lat="42.016633" lon="0.746467">
        <ele>1679.0</ele>
        <time>2013-09-13T12:46:36Z</time>
      </trkpt>
      <trkpt lat="42.016583" lon="0.746417">
        <ele>1678.0</ele>
        <time>2013-09-13T12:46:37Z</time>
      </trkpt>
      <trkpt lat="42.016533" lon="0.746333">
        <ele>1678.0</ele>
        <time>2013-09-13T12:46:38Z</time>
      </trkpt>
      <trkpt lat="42.016483" lon="0.746250">
        <ele>1677.0</ele>
        <time>2013-09-13T12:46:39Z</time>
      </trkpt>
      <trkpt lat="42.016433" lon="0.746167">
        <ele>1676.0</ele>
        <time>2013-09-13T12:46:40Z</time>
      </trkpt>
      <trkpt lat="42.016400" lon="0.746067">
        <ele>1675.0</ele>
        <time>2013-09-13T12:46:41Z</time>
      </trkpt>
      <trkpt lat="42.016367" lon="0.745950">
        <ele>1674.0</ele>
        <time>2013-09-13T12:46:42Z</time>
      </trkpt>
      <trkpt lat="42.016333" lon="0.745833">
        <ele>1673.0</ele>
        <time>2013-09-13T12:46:43Z</time>
      </trkpt>
      <trkpt lat="42.016300" lon="0.745733">
        <ele>1673.0</ele>
        <time>2013-09-13T12:46:44Z</time>
      </trkpt>
      <trkpt lat="42.016250" lon="0.745633">
        <ele>1674.0</ele>
        <time>2013-09-13T12:46:45Z</time>
      </trkpt>
      <trkpt lat="42.016217" lon="0.745550">
        <ele>1675.0</ele>
        <time>2013-09-13T12:46:46Z</time>
      </trkpt>
      <trkpt lat="42.016183" lon="0.745467">
        <ele>1675.0</ele>
        <time>2013-09-13T12:46:47Z</time>
      </trkpt>
      <trkpt lat="42.016133" lon="0.745383">
        <ele>1675.0</ele>
        <time>2013-09-13T12:46:48Z</time>
      </trkpt>
      <trkpt lat="42.016083" lon="0.745283">
        <ele>1675.0</ele>
        <time>2013-09-13T12:46:49Z</time>
      </trkpt>
      <trkpt lat="42.016033" lon="0.745200">
        <ele>1676.0</ele>
        <time>2013-09-13T12:46:50Z</time>
      </trkpt>
      <trkpt lat="42.016000" lon="0.745100">
        <ele>1677.0</ele>
        <time>2013-09-13T12:46:51Z</time>
      </trkpt>
      <trkpt lat="42.015967" lon="0.745017">
        <ele>1679.0</ele>
        <time>2013-09-13T12:46:52Z</time>
      </trkpt>
      <trkpt lat="42.015950" lon="0.744917">
        <ele>1681.0</ele>
        <time>2013-09-13T12:46:53Z</time>
      </trkpt>
      <trkpt lat="42.015967" lon="0.744817">
        <ele>1682.0</ele>
        <time>2013-09-13T12:46:54Z</time>
      </trkpt>
      <trkpt lat="42.016000" lon="0.744717">
        <ele>1682.0</ele>
        <time>2013-09-13T12:46:55Z</time>
      </trkpt>
      <trkpt lat="42.016050" lon="0.744633">
        <ele>1683.0</ele>
        <time>2013-09-13T12:46:56Z</time>
      </trkpt>
      <trkpt lat="42.016100" lon="0.744567">
        <ele>1684.0</ele>
        <time>2013-09-13T12:46:57Z</time>
      </trkpt>
      <trkpt lat="42.016150" lon="0.744500">
        <ele>1684.0</ele>
        <time>2013-09-13T12:46:58Z</time>
      </trkpt>
      <trkpt lat="42.016217" lon="0.744433">
        <ele>1684.0</ele>
        <time>2013-09-13T12:46:59Z</time>
      </trkpt>
      <trkpt lat="42.016267" lon="0.744333">
        <ele>1684.0</ele>
        <time>2013-09-13T12:47:00Z</time>
      </trkpt>
      <trkpt lat="42.016283" lon="0.744217">
        <ele>1683.0</ele>
        <time>2013-09-13T12:47:01Z</time>
      </trkpt>
      <trkpt lat="42.016283" lon="0.744117">
        <ele>1683.0</ele>
        <time>2013-09-13T12:47:02Z</time>
      </trkpt>
      <trkpt lat="42.016283" lon="0.744033">
        <ele>1683.0</ele>
        <time>2013-09-13T12:47:03Z</time>
      </trkpt>
      <trkpt lat="42.016267" lon="0.743933">
        <ele>1683.0</ele>
        <time>2013-09-13T12:47:04Z</time>
      </trkpt>
      <trkpt lat="42.016250" lon="0.743833">
        <ele>1682.0</ele>
        <time>2013-09-13T12:47:05Z</time>
      </trkpt>
      <trkpt lat="42.016233" lon="0.743717">
        <ele>1681.0</ele>
        <time>2013-09-13T12:47:06Z</time>
      </trkpt>
      <trkpt lat="42.016233" lon="0.743633">
        <ele>1680.0</ele>
        <time>2013-09-13T12:47:07Z</time>
      </trkpt>
      <trkpt lat="42.016217" lon="0.743533">
        <ele>1680.0</ele>
        <time>2013-09-13T12:47:08Z</time>
      </trkpt>
      <trkpt lat="42.016200" lon="0.743467">
        <ele>1680.0</ele>
        <time>2013-09-13T12:47:09Z</time>
      </trkpt>
      <trkpt lat="42.016167" lon="0.743367">
        <ele>1678.0</ele>
        <time>2013-09-13T12:47:10Z</time>
      </trkpt>
      <trkpt lat="42.016117" lon="0.743267">
        <ele>1677.0</ele>
        <time>2013-09-13T12:47:11Z</time>
      </trkpt>
      <trkpt lat="42.016083" lon="0.743183">
        <ele>1676.0</ele>
        <time>2013-09-13T12:47:12Z</time>
      </trkpt>
      <trkpt lat="42.016050" lon="0.743083">
        <ele>1676.0</ele>
        <time>2013-09-13T12:47:13Z</time>
      </trkpt>
      <trkpt lat="42.016017" lon="0.743017">
        <ele>1676.0</ele>
        <time>2013-09-13T12:47:14Z</time>
      </trkpt>
      <trkpt lat="42.015983" lon="0.742950">
        <ele>1675.0</ele>
        <time>2013-09-13T12:47:15Z</time>
      </trkpt>
      <trkpt lat="42.015950" lon="0.742850">
        <ele>1674.0</ele>
        <time>2013-09-13T12:47:16Z</time>
      </trkpt>
      <trkpt lat="42.015900" lon="0.742767">
        <ele>1672.0</ele>
        <time>2013-09-13T12:47:17Z</time>
      </trkpt>
      <trkpt lat="42.015867" lon="0.742667">
        <ele>1671.0</ele>
        <time>2013-09-13T12:47:18Z</time>
      </trkpt>
      <trkpt lat="42.015817" lon="0.742583">
        <ele>1671.0</ele>
        <time>2013-09-13T12:47:19Z</time>
      </trkpt>
      <trkpt lat="42.015783" lon="0.742500">
        <ele>1671.0</ele>
        <time>2013-09-13T12:47:20Z</time>
      </trkpt>
      <trkpt lat="42.015750" lon="0.742433">
        <ele>1670.0</ele>
        <time>2013-09-13T12:47:21Z</time>
      </trkpt>
      <trkpt lat="42.015700" lon="0.742350">
        <ele>1669.0</ele>
        <time>2013-09-13T12:47:22Z</time>
      </trkpt>
      <trkpt lat="42.015650" lon="0.742267">
        <ele>1668.0</ele>
        <time>2013-09-13T12:47:23Z</time>
      </trkpt>
      <trkpt lat="42.015600" lon="0.742183">
        <ele>1666.0</ele>
        <time>2013-09-13T12:47:24Z</time>
      </trkpt>
      <trkpt lat="42.015567" lon="0.742100">
        <ele>1666.0</ele>
        <time>2013-09-13T12:47:25Z</time>
      </trkpt>
      <trkpt lat="42.015533" lon="0.742017">
        <ele>1665.0</ele>
        <time>2013-09-13T12:47:26Z</time>
      </trkpt>
      <trkpt lat="42.015483" lon="0.741950">
        <ele>1664.0</ele>
        <time>2013-09-13T12:47:27Z</time>
      </trkpt>
      <trkpt lat="42.015450" lon="0.741867">
        <ele>1663.0</ele>
        <time>2013-09-13T12:47:28Z</time>
      </trkpt>
      <trkpt lat="42.015400" lon="0.741783">
        <ele>1661.0</ele>
        <time>2013-09-13T12:47:29Z</time>
      </trkpt>
      <trkpt lat="42.015350" lon="0.741683">
        <ele>1660.0</ele>
        <time>2013-09-13T12:47:30Z</time>
      </trkpt>
      <trkpt lat="42.015317" lon="0.741600">
        <ele>1659.0</ele>
        <time>2013-09-13T12:47:31Z</time>
      </trkpt>
      <trkpt lat="42.015267" lon="0.741533">
        <ele>1658.0</ele>
        <time>2013-09-13T12:47:32Z</time>
      </trkpt>
      <trkpt lat="42.015233" lon="0.741467">
        <ele>1658.0</ele>
        <time>2013-09-13T12:47:33Z</time>
      </trkpt>
      <trkpt lat="42.015200" lon="0.741400">
        <ele>1657.0</ele>
        <time>2013-09-13T12:47:34Z</time>
      </trkpt>
      <trkpt lat="42.015150" lon="0.741317">
        <ele>1656.0</ele>
        <time>2013-09-13T12:47:35Z</time>
      </trkpt>
      <trkpt lat="42.015117" lon="0.741217">
        <ele>1654.0</ele>
        <time>2013-09-13T12:47:36Z</time>
      </trkpt>
      <trkpt lat="42.015083" lon="0.741117">
        <ele>1653.0</ele>
        <time>2013-09-13T12:47:37Z</time>
      </trkpt>
      <trkpt lat="42.015050" lon="0.741033">
        <ele>1652.0</ele>
        <time>2013-09-13T12:47:38Z</time>
      </trkpt>
      <trkpt lat="42.015033" lon="0.740950">
        <ele>1652.0</ele>
        <time>2013-09-13T12:47:39Z</time>
      </trkpt>
      <trkpt lat="42.015000" lon="0.740867">
        <ele>1652.0</ele>
        <time>2013-09-13T12:47:40Z</time>
      </trkpt>
      <trkpt lat="42.014967" lon="0.740783">
        <ele>1651.0</ele>
        <time>2013-09-13T12:47:41Z</time>
      </trkpt>
      <trkpt lat="42.014933" lon="0.740700">
        <ele>1650.0</ele>
        <time>2013-09-13T12:47:42Z</time>
      </trkpt>
      <trkpt lat="42.014917" lon="0.740583">
        <ele>1649.0</ele>
        <time>2013-09-13T12:47:43Z</time>
      </trkpt>
      <trkpt lat="42.014900" lon="0.740483">
        <ele>1647.0</ele>
        <time>2013-09-13T12:47:44Z</time>
      </trkpt>
      <trkpt lat="42.014867" lon="0.740400">
        <ele>1646.0</ele>
        <time>2013-09-13T12:47:45Z</time>
      </trkpt>
      <trkpt lat="42.014867" lon="0.740333">
        <ele>1646.0</ele>
        <time>2013-09-13T12:47:46Z</time>
      </trkpt>
      <trkpt lat="42.014850" lon="0.740250">
        <ele>1646.0</ele>
        <time>2013-09-13T12:47:47Z</time>
      </trkpt>
      <trkpt lat="42.014833" lon="0.740183">
        <ele>1645.0</ele>
        <time>2013-09-13T12:47:48Z</time>
      </trkpt>
      <trkpt lat="42.014800" lon="0.740083">
        <ele>1644.0</ele>
        <time>2013-09-13T12:47:49Z</time>
      </trkpt>
      <trkpt lat="42.014783" lon="0.740000">
        <ele>1643.0</ele>
        <time>2013-09-13T12:47:50Z</time>
      </trkpt>
      <trkpt lat="42.014767" lon="0.739900">
        <ele>1642.0</ele>
        <time>2013-09-13T12:47:51Z</time>
      </trkpt>
      <trkpt lat="42.014750" lon="0.739817">
        <ele>1642.0</ele>
        <time>2013-09-13T12:47:52Z</time>
      </trkpt>
      <trkpt lat="42.014733" lon="0.739750">
        <ele>1641.0</ele>
        <time>2013-09-13T12:47:53Z</time>
      </trkpt>
      <trkpt lat="42.014717" lon="0.739667">
        <ele>1641.0</ele>
        <time>2013-09-13T12:47:54Z</time>
      </trkpt>
      <trkpt lat="42.014683" lon="0.739567">
        <ele>1639.0</ele>
        <time>2013-09-13T12:47:55Z</time>
      </trkpt>
      <trkpt lat="42.014667" lon="0.739467">
        <ele>1638.0</ele>
        <time>2013-09-13T12:47:56Z</time>
      </trkpt>
      <trkpt lat="42.014650" lon="0.739367">
        <ele>1636.0</ele>
        <time>2013-09-13T12:47:57Z</time>
      </trkpt>
      <trkpt lat="42.014617" lon="0.739267">
        <ele>1636.0</ele>
        <time>2013-09-13T12:47:58Z</time>
      </trkpt>
      <trkpt lat="42.014600" lon="0.739167">
        <ele>1635.0</ele>
        <time>2013-09-13T12:47:59Z</time>
      </trkpt>
      <trkpt lat="42.014567" lon="0.739083">
        <ele>1634.0</ele>
        <time>2013-09-13T12:48:00Z</time>
      </trkpt>
      <trkpt lat="42.014533" lon="0.739000">
        <ele>1633.0</ele>
        <time>2013-09-13T12:48:01Z</time>
      </trkpt>
      <trkpt lat="42.014483" lon="0.738917">
        <ele>1632.0</ele>
        <time>2013-09-13T12:48:02Z</time>
      </trkpt>
      <trkpt lat="42.014450" lon="0.738817">
        <ele>1630.0</ele>
        <time>2013-09-13T12:48:03Z</time>
      </trkpt>
      <trkpt lat="42.014400" lon="0.738717">
        <ele>1629.0</ele>
        <time>2013-09-13T12:48:04Z</time>
      </trkpt>
      <trkpt lat="42.014350" lon="0.738633">
        <ele>1627.0</ele>
        <time>2013-09-13T12:48:05Z</time>
      </trkpt>
      <trkpt lat="42.014317" lon="0.738533">
        <ele>1626.0</ele>
        <time>2013-09-13T12:48:06Z</time>
      </trkpt>
      <trkpt lat="42.014283" lon="0.738450">
        <ele>1625.0</ele>
        <time>2013-09-13T12:48:07Z</time>
      </trkpt>
      <trkpt lat="42.014233" lon="0.738367">
        <ele>1624.0</ele>
        <time>2013-09-13T12:48:08Z</time>
      </trkpt>
      <trkpt lat="42.014183" lon="0.738283">
        <ele>1623.0</ele>
        <time>2013-09-13T12:48:09Z</time>
      </trkpt>
      <trkpt lat="42.014133" lon="0.738183">
        <ele>1621.0</ele>
        <time>2013-09-13T12:48:10Z</time>
      </trkpt>
      <trkpt lat="42.014083" lon="0.738100">
        <ele>1619.0</ele>
        <time>2013-09-13T12:48:11Z</time>
      </trkpt>
      <trkpt lat="42.014033" lon="0.738000">
        <ele>1618.0</ele>
        <time>2013-09-13T12:48:12Z</time>
      </trkpt>
      <trkpt lat="42.014000" lon="0.737917">
        <ele>1617.0</ele>
        <time>2013-09-13T12:48:13Z</time>
      </trkpt>
      <trkpt lat="42.013967" lon="0.737833">
        <ele>1616.0</ele>
        <time>2013-09-13T12:48:14Z</time>
      </trkpt>
      <trkpt lat="42.013917" lon="0.737750">
        <ele>1615.0</ele>
        <time>2013-09-13T12:48:15Z</time>
      </trkpt>
      <trkpt lat="42.013867" lon="0.737667">
        <ele>1613.0</ele>
        <time>2013-09-13T12:48:16Z</time>
      </trkpt>
      <trkpt lat="42.013817" lon="0.737567">
        <ele>1612.0</ele>
        <time>2013-09-13T12:48:17Z</time>
      </trkpt>
      <trkpt lat="42.013783" lon="0.737467">
        <ele>1610.0</ele>
        <time>2013-09-13T12:48:18Z</time>
      </trkpt>
      <trkpt lat="42.013733" lon="0.737383">
        <ele>1609.0</ele>
        <time>2013-09-13T12:48:19Z</time>
      </trkpt>
      <trkpt lat="42.013700" lon="0.737333">
        <ele>1609.0</ele>
        <time>2013-09-13T12:48:20Z</time>
      </trkpt>
      <trkpt lat="42.013667" lon="0.737267">
        <ele>1608.0</ele>
        <time>2013-09-13T12:48:21Z</time>
      </trkpt>
      <trkpt lat="42.013633" lon="0.737183">
        <ele>1607.0</ele>
        <time>2013-09-13T12:48:22Z</time>
      </trkpt>
      <trkpt lat="42.013583" lon="0.737083">
        <ele>1606.0</ele>
        <time>2013-09-13T12:48:23Z</time>
      </trkpt>
      <trkpt lat="42.013550" lon="0.736983">
        <ele>1604.0</ele>
        <time>2013-09-13T12:48:24Z</time>
      </trkpt>
      <trkpt lat="42.013533" lon="0.736883">
        <ele>1603.0</ele>
        <time>2013-09-13T12:48:25Z</time>
      </trkpt>
      <trkpt lat="42.013517" lon="0.736783">
        <ele>1602.0</ele>
        <time>2013-09-13T12:48:26Z</time>
      </trkpt>
      <trkpt lat="42.013500" lon="0.736700">
        <ele>1602.0</ele>
        <time>2013-09-13T12:48:27Z</time>
      </trkpt>
      <trkpt lat="42.013467" lon="0.736617">
        <ele>1601.0</ele>
        <time>2013-09-13T12:48:28Z</time>
      </trkpt>
      <trkpt lat="42.013450" lon="0.736533">
        <ele>1600.0</ele>
        <time>2013-09-13T12:48:29Z</time>
      </trkpt>
      <trkpt lat="42.013400" lon="0.736300">
        <ele>1598.0</ele>
        <time>2013-09-13T12:48:31Z</time>
      </trkpt>
      <trkpt lat="42.013383" lon="0.736200">
        <ele>1597.0</ele>
        <time>2013-09-13T12:48:32Z</time>
      </trkpt>
      <trkpt lat="42.013367" lon="0.736083">
        <ele>1597.0</ele>
        <time>2013-09-13T12:48:33Z</time>
      </trkpt>
      <trkpt lat="42.013350" lon="0.735983">
        <ele>1596.0</ele>
        <time>2013-09-13T12:48:34Z</time>
      </trkpt>
      <trkpt lat="42.013333" lon="0.735883">
        <ele>1596.0</ele>
        <time>2013-09-13T12:48:35Z</time>
      </trkpt>
      <trkpt lat="42.013317" lon="0.735800">
        <ele>1596.0</ele>
        <time>2013-09-13T12:48:36Z</time>
      </trkpt>
      <trkpt lat="42.013283" lon="0.735700">
        <ele>1595.0</ele>
        <time>2013-09-13T12:48:37Z</time>
      </trkpt>
      <trkpt lat="42.013250" lon="0.735483">
        <ele>1594.0</ele>
        <time>2013-09-13T12:48:39Z</time>
      </trkpt>
      <trkpt lat="42.013217" lon="0.735367">
        <ele>1593.0</ele>
        <time>2013-09-13T12:48:40Z</time>
      </trkpt>
      <trkpt lat="42.013183" lon="0.735267">
        <ele>1592.0</ele>
        <time>2013-09-13T12:48:41Z</time>
      </trkpt>
      <trkpt lat="42.013167" lon="0.735167">
        <ele>1592.0</ele>
        <time>2013-09-13T12:48:42Z</time>
      </trkpt>
      <trkpt lat="42.013133" lon="0.735067">
        <ele>1591.0</ele>
        <time>2013-09-13T12:48:43Z</time>
      </trkpt>
      <trkpt lat="42.013117" lon="0.734967">
        <ele>1590.0</ele>
        <time>2013-09-13T12:48:44Z</time>
      </trkpt>
      <trkpt lat="42.013083" lon="0.734867">
        <ele>1590.0</ele>
        <time>2013-09-13T12:48:45Z</time>
      </trkpt>
      <trkpt lat="42.013050" lon="0.734783">
        <ele>1589.0</ele>
        <time>2013-09-13T12:48:46Z</time>
      </trkpt>
      <trkpt lat="42.013017" lon="0.734683">
        <ele>1589.0</ele>
        <time>2013-09-13T12:48:47Z</time>
      </trkpt>
      <trkpt lat="42.012983" lon="0.734600">
        <ele>1589.0</ele>
        <time>2013-09-13T12:48:48Z</time>
      </trkpt>
      <trkpt lat="42.012950" lon="0.734500">
        <ele>1588.0</ele>
        <time>2013-09-13T12:48:49Z</time>
      </trkpt>
      <trkpt lat="42.012917" lon="0.734400">
        <ele>1587.0</ele>
        <time>2013-09-13T12:48:50Z</time>
      </trkpt>
      <trkpt lat="42.012900" lon="0.734283">
        <ele>1585.0</ele>
        <time>2013-09-13T12:48:51Z</time>
      </trkpt>
      <trkpt lat="42.012867" lon="0.734183">
        <ele>1585.0</ele>
        <time>2013-09-13T12:48:52Z</time>
      </trkpt>
      <trkpt lat="42.012850" lon="0.734083">
        <ele>1585.0</ele>
        <time>2013-09-13T12:48:53Z</time>
      </trkpt>
      <trkpt lat="42.012833" lon="0.734000">
        <ele>1584.0</ele>
        <time>2013-09-13T12:48:54Z</time>
      </trkpt>
      <trkpt lat="42.012817" lon="0.733900">
        <ele>1583.0</ele>
        <time>2013-09-13T12:48:55Z</time>
      </trkpt>
      <trkpt lat="42.012800" lon="0.733783">
        <ele>1581.0</ele>
        <time>2013-09-13T12:48:56Z</time>
      </trkpt>
      <trkpt lat="42.012783" lon="0.733667">
        <ele>1580.0</ele>
        <time>2013-09-13T12:48:57Z</time>
      </trkpt>
      <trkpt lat="42.012767" lon="0.733567">
        <ele>1579.0</ele>
        <time>2013-09-13T12:48:58Z</time>
      </trkpt>
      <trkpt lat="42.012750" lon="0.733467">
        <ele>1578.0</ele>
        <time>2013-09-13T12:48:59Z</time>
      </trkpt>
      <trkpt lat="42.012733" lon="0.733367">
        <ele>1578.0</ele>
        <time>2013-09-13T12:49:00Z</time>
      </trkpt>
      <trkpt lat="42.012700" lon="0.733250">
        <ele>1577.0</ele>
        <time>2013-09-13T12:49:01Z</time>
      </trkpt>
      <trkpt lat="42.012683" lon="0.733150">
        <ele>1576.0</ele>
        <time>2013-09-13T12:49:02Z</time>
      </trkpt>
      <trkpt lat="42.012650" lon="0.733033">
        <ele>1575.0</ele>
        <time>2013-09-13T12:49:03Z</time>
      </trkpt>
      <trkpt lat="42.012633" lon="0.732917">
        <ele>1574.0</ele>
        <time>2013-09-13T12:49:04Z</time>
      </trkpt>
      <trkpt lat="42.012600" lon="0.732817">
        <ele>1573.0</ele>
        <time>2013-09-13T12:49:05Z</time>
      </trkpt>
      <trkpt lat="42.012583" lon="0.732717">
        <ele>1573.0</ele>
        <time>2013-09-13T12:49:06Z</time>
      </trkpt>
      <trkpt lat="42.012550" lon="0.732617">
        <ele>1573.0</ele>
        <time>2013-09-13T12:49:07Z</time>
      </trkpt>
      <trkpt lat="42.012533" lon="0.732533">
        <ele>1574.0</ele>
        <time>2013-09-13T12:49:08Z</time>
      </trkpt>
      <trkpt lat="42.012517" lon="0.732450">
        <ele>1574.0</ele>
        <time>2013-09-13T12:49:09Z</time>
      </trkpt>
      <trkpt lat="42.012483" lon="0.732367">
        <ele>1574.0</ele>
        <time>2013-09-13T12:49:10Z</time>
      </trkpt>
      <trkpt lat="42.012450" lon="0.732283">
        <ele>1574.0</ele>
        <time>2013-09-13T12:49:11Z</time>
      </trkpt>
      <trkpt lat="42.012417" lon="0.732200">
        <ele>1573.0</ele>
        <time>2013-09-13T12:49:12Z</time>
      </trkpt>
      <trkpt lat="42.012383" lon="0.732100">
        <ele>1572.0</ele>
        <time>2013-09-13T12:49:13Z</time>
      </trkpt>
      <trkpt lat="42.012350" lon="0.732017">
        <ele>1571.0</ele>
        <time>2013-09-13T12:49:14Z</time>
      </trkpt>
      <trkpt lat="42.012333" lon="0.731917">
        <ele>1569.0</ele>
        <time>2013-09-13T12:49:15Z</time>
      </trkpt>
      <trkpt lat="42.012300" lon="0.731833">
        <ele>1568.0</ele>
        <time>2013-09-13T12:49:16Z</time>
      </trkpt>
      <trkpt lat="42.012283" lon="0.731733">
        <ele>1567.0</ele>
        <time>2013-09-13T12:49:17Z</time>
      </trkpt>
      <trkpt lat="42.012250" lon="0.731650">
        <ele>1566.0</ele>
        <time>2013-09-13T12:49:18Z</time>
      </trkpt>
      <trkpt lat="42.012217" lon="0.731567">
        <ele>1566.0</ele>
        <time>2013-09-13T12:49:19Z</time>
      </trkpt>
      <trkpt lat="42.012200" lon="0.731483">
        <ele>1565.0</ele>
        <time>2013-09-13T12:49:20Z</time>
      </trkpt>
      <trkpt lat="42.012167" lon="0.731383">
        <ele>1563.0</ele>
        <time>2013-09-13T12:49:21Z</time>
      </trkpt>
      <trkpt lat="42.012133" lon="0.731283">
        <ele>1561.0</ele>
        <time>2013-09-13T12:49:22Z</time>
      </trkpt>
      <trkpt lat="42.012117" lon="0.731200">
        <ele>1560.0</ele>
        <time>2013-09-13T12:49:23Z</time>
      </trkpt>
      <trkpt lat="42.012083" lon="0.731100">
        <ele>1558.0</ele>
        <time>2013-09-13T12:49:24Z</time>
      </trkpt>
      <trkpt lat="42.012067" lon="0.731017">
        <ele>1557.0</ele>
        <time>2013-09-13T12:49:25Z</time>
      </trkpt>
      <trkpt lat="42.012033" lon="0.730917">
        <ele>1556.0</ele>
        <time>2013-09-13T12:49:26Z</time>
      </trkpt>
      <trkpt lat="42.012000" lon="0.730817">
        <ele>1554.0</ele>
        <time>2013-09-13T12:49:27Z</time>
      </trkpt>
      <trkpt lat="42.011967" lon="0.730717">
        <ele>1551.0</ele>
        <time>2013-09-13T12:49:28Z</time>
      </trkpt>
      <trkpt lat="42.011933" lon="0.730633">
        <ele>1549.0</ele>
        <time>2013-09-13T12:49:29Z</time>
      </trkpt>
      <trkpt lat="42.011900" lon="0.730550">
        <ele>1547.0</ele>
        <time>2013-09-13T12:49:30Z</time>
      </trkpt>
      <trkpt lat="42.011867" lon="0.730467">
        <ele>1546.0</ele>
        <time>2013-09-13T12:49:31Z</time>
      </trkpt>
      <trkpt lat="42.011850" lon="0.730383">
        <ele>1543.0</ele>
        <time>2013-09-13T12:49:32Z</time>
      </trkpt>
      <trkpt lat="42.011817" lon="0.730300">
        <ele>1541.0</ele>
        <time>2013-09-13T12:49:33Z</time>
      </trkpt>
      <trkpt lat="42.011800" lon="0.730217">
        <ele>1538.0</ele>
        <time>2013-09-13T12:49:34Z</time>
      </trkpt>
      <trkpt lat="42.011800" lon="0.730117">
        <ele>1536.0</ele>
        <time>2013-09-13T12:49:35Z</time>
      </trkpt>
      <trkpt lat="42.011833" lon="0.730017">
        <ele>1534.0</ele>
        <time>2013-09-13T12:49:36Z</time>
      </trkpt>
      <trkpt lat="42.011883" lon="0.729950">
        <ele>1531.0</ele>
        <time>2013-09-13T12:49:37Z</time>
      </trkpt>
      <trkpt lat="42.011967" lon="0.729900">
        <ele>1528.0</ele>
        <time>2013-09-13T12:49:38Z</time>
      </trkpt>
      <trkpt lat="42.012067" lon="0.729883">
        <ele>1526.0</ele>
        <time>2013-09-13T12:49:39Z</time>
      </trkpt>
      <trkpt lat="42.012150" lon="0.729883">
        <ele>1524.0</ele>
        <time>2013-09-13T12:49:40Z</time>
      </trkpt>
      <trkpt lat="42.012233" lon="0.729900">
        <ele>1523.0</ele>
        <time>2013-09-13T12:49:41Z</time>
      </trkpt>
      <trkpt lat="42.012333" lon="0.729917">
        <ele>1521.0</ele>
        <time>2013-09-13T12:49:42Z</time>
      </trkpt>
      <trkpt lat="42.012417" lon="0.729967">
        <ele>1519.0</ele>
        <time>2013-09-13T12:49:43Z</time>
      </trkpt>
      <trkpt lat="42.012517" lon="0.730033">
        <ele>1515.0</ele>
        <time>2013-09-13T12:49:44Z</time>
      </trkpt>
      <trkpt lat="42.012600" lon="0.730100">
        <ele>1513.0</ele>
        <time>2013-09-13T12:49:45Z</time>
      </trkpt>
      <trkpt lat="42.012683" lon="0.730183">
        <ele>1511.0</ele>
        <time>2013-09-13T12:49:46Z</time>
      </trkpt>
      <trkpt lat="42.012750" lon="0.730250">
        <ele>1509.0</ele>
        <time>2013-09-13T12:49:47Z</time>
      </trkpt>
      <trkpt lat="42.012833" lon="0.730317">
        <ele>1508.0</ele>
        <time>2013-09-13T12:49:48Z</time>
      </trkpt>
      <trkpt lat="42.012883" lon="0.730400">
        <ele>1507.0</ele>
        <time>2013-09-13T12:49:49Z</time>
      </trkpt>
      <trkpt lat="42.012950" lon="0.730483">
        <ele>1505.0</ele>
        <time>2013-09-13T12:49:50Z</time>
      </trkpt>
      <trkpt lat="42.013017" lon="0.730567">
        <ele>1503.0</ele>
        <time>2013-09-13T12:49:51Z</time>
      </trkpt>
      <trkpt lat="42.013083" lon="0.730650">
        <ele>1501.0</ele>
        <time>2013-09-13T12:49:52Z</time>
      </trkpt>
      <trkpt lat="42.013167" lon="0.730717">
        <ele>1499.0</ele>
        <time>2013-09-13T12:49:53Z</time>
      </trkpt>
      <trkpt lat="42.013250" lon="0.730800">
        <ele>1497.0</ele>
        <time>2013-09-13T12:49:54Z</time>
      </trkpt>
      <trkpt lat="42.013317" lon="0.730883">
        <ele>1496.0</ele>
        <time>2013-09-13T12:49:55Z</time>
      </trkpt>
      <trkpt lat="42.013467" lon="0.731050">
        <ele>1494.0</ele>
        <time>2013-09-13T12:49:57Z</time>
      </trkpt>
      <trkpt lat="42.013533" lon="0.731133">
        <ele>1492.0</ele>
        <time>2013-09-13T12:49:58Z</time>
      </trkpt>
      <trkpt lat="42.013617" lon="0.731233">
        <ele>1490.0</ele>
        <time>2013-09-13T12:49:59Z</time>
      </trkpt>
      <trkpt lat="42.013683" lon="0.731317">
        <ele>1489.0</ele>
        <time>2013-09-13T12:50:00Z</time>
      </trkpt>
      <trkpt lat="42.013767" lon="0.731400">
        <ele>1488.0</ele>
        <time>2013-09-13T12:50:01Z</time>
      </trkpt>
      <trkpt lat="42.013900" lon="0.731600">
        <ele>1485.0</ele>
        <time>2013-09-13T12:50:03Z</time>
      </trkpt>
      <trkpt lat="42.013950" lon="0.731700">
        <ele>1483.0</ele>
        <time>2013-09-13T12:50:04Z</time>
      </trkpt>
      <trkpt lat="42.014017" lon="0.731800">
        <ele>1481.0</ele>
        <time>2013-09-13T12:50:05Z</time>
      </trkpt>
      <trkpt lat="42.014083" lon="0.731883">
        <ele>1479.0</ele>
        <time>2013-09-13T12:50:06Z</time>
      </trkpt>
      <trkpt lat="42.014133" lon="0.731967">
        <ele>1477.0</ele>
        <time>2013-09-13T12:50:07Z</time>
      </trkpt>
      <trkpt lat="42.014200" lon="0.732050">
        <ele>1475.0</ele>
        <time>2013-09-13T12:50:08Z</time>
      </trkpt>
      <trkpt lat="42.014333" lon="0.732233">
        <ele>1470.0</ele>
        <time>2013-09-13T12:50:10Z</time>
      </trkpt>
      <trkpt lat="42.014400" lon="0.732317">
        <ele>1467.0</ele>
        <time>2013-09-13T12:50:11Z</time>
      </trkpt>
      <trkpt lat="42.014467" lon="0.732400">
        <ele>1465.0</ele>
        <time>2013-09-13T12:50:12Z</time>
      </trkpt>
      <trkpt lat="42.014533" lon="0.732500">
        <ele>1463.0</ele>
        <time>2013-09-13T12:50:13Z</time>
      </trkpt>
      <trkpt lat="42.014600" lon="0.732567">
        <ele>1462.0</ele>
        <time>2013-09-13T12:50:14Z</time>
      </trkpt>
      <trkpt lat="42.014717" lon="0.732717">
        <ele>1458.0</ele>
        <time>2013-09-13T12:50:16Z</time>
      </trkpt>
      <trkpt lat="42.014783" lon="0.732800">
        <ele>1456.0</ele>
        <time>2013-09-13T12:50:17Z</time>
      </trkpt>
      <trkpt lat="42.014850" lon="0.732867">
        <ele>1454.0</ele>
        <time>2013-09-13T12:50:18Z</time>
      </trkpt>
      <trkpt lat="42.014917" lon="0.732967">
        <ele>1451.0</ele>
        <time>2013-09-13T12:50:19Z</time>
      </trkpt>
      <trkpt lat="42.014983" lon="0.733050">
        <ele>1449.0</ele>
        <time>2013-09-13T12:50:20Z</time>
      </trkpt>
      <trkpt lat="42.015067" lon="0.733133">
        <ele>1446.0</ele>
        <time>2013-09-13T12:50:21Z</time>
      </trkpt>
      <trkpt lat="42.015133" lon="0.733217">
        <ele>1444.0</ele>
        <time>2013-09-13T12:50:22Z</time>
      </trkpt>
      <trkpt lat="42.015200" lon="0.733300">
        <ele>1442.0</ele>
        <time>2013-09-13T12:50:23Z</time>
      </trkpt>
      <trkpt lat="42.015283" lon="0.733383">
        <ele>1440.0</ele>
        <time>2013-09-13T12:50:24Z</time>
      </trkpt>
      <trkpt lat="42.015367" lon="0.733483">
        <ele>1438.0</ele>
        <time>2013-09-13T12:50:25Z</time>
      </trkpt>
      <trkpt lat="42.015450" lon="0.733567">
        <ele>1436.0</ele>
        <time>2013-09-13T12:50:26Z</time>
      </trkpt>
      <trkpt lat="42.015517" lon="0.733633">
        <ele>1435.0</ele>
        <time>2013-09-13T12:50:27Z</time>
      </trkpt>
      <trkpt lat="42.015600" lon="0.733700">
        <ele>1434.0</ele>
        <time>2013-09-13T12:50:28Z</time>
      </trkpt>
      <trkpt lat="42.015667" lon="0.733750">
        <ele>1433.0</ele>
        <time>2013-09-13T12:50:29Z</time>
      </trkpt>
      <trkpt lat="42.015750" lon="0.733817">
        <ele>1431.0</ele>
        <time>2013-09-13T12:50:30Z</time>
      </trkpt>
      <trkpt lat="42.015833" lon="0.733883">
        <ele>1429.0</ele>
        <time>2013-09-13T12:50:31Z</time>
      </trkpt>
      <trkpt lat="42.015917" lon="0.733950">
        <ele>1427.0</ele>
        <time>2013-09-13T12:50:32Z</time>
      </trkpt>
      <trkpt lat="42.015983" lon="0.734000">
        <ele>1426.0</ele>
        <time>2013-09-13T12:50:33Z</time>
      </trkpt>
      <trkpt lat="42.016050" lon="0.734067">
        <ele>1425.0</ele>
        <time>2013-09-13T12:50:34Z</time>
      </trkpt>
      <trkpt lat="42.016117" lon="0.734117">
        <ele>1423.0</ele>
        <time>2013-09-13T12:50:35Z</time>
      </trkpt>
      <trkpt lat="42.016200" lon="0.734200">
        <ele>1421.0</ele>
        <time>2013-09-13T12:50:36Z</time>
      </trkpt>
      <trkpt lat="42.016283" lon="0.734283">
        <ele>1418.0</ele>
        <time>2013-09-13T12:50:37Z</time>
      </trkpt>
      <trkpt lat="42.016367" lon="0.734367">
        <ele>1416.0</ele>
        <time>2013-09-13T12:50:38Z</time>
      </trkpt>
      <trkpt lat="42.016450" lon="0.734450">
        <ele>1414.0</ele>
        <time>2013-09-13T12:50:39Z</time>
      </trkpt>
      <trkpt lat="42.016533" lon="0.734517">
        <ele>1412.0</ele>
        <time>2013-09-13T12:50:40Z</time>
      </trkpt>
      <trkpt lat="42.016617" lon="0.734583">
        <ele>1411.0</ele>
        <time>2013-09-13T12:50:41Z</time>
      </trkpt>
      <trkpt lat="42.016683" lon="0.734650">
        <ele>1410.0</ele>
        <time>2013-09-13T12:50:42Z</time>
      </trkpt>
      <trkpt lat="42.016767" lon="0.734717">
        <ele>1408.0</ele>
        <time>2013-09-13T12:50:43Z</time>
      </trkpt>
      <trkpt lat="42.016867" lon="0.734783">
        <ele>1405.0</ele>
        <time>2013-09-13T12:50:44Z</time>
      </trkpt>
      <trkpt lat="42.016967" lon="0.734867">
        <ele>1402.0</ele>
        <time>2013-09-13T12:50:45Z</time>
      </trkpt>
      <trkpt lat="42.017067" lon="0.734933">
        <ele>1399.0</ele>
        <time>2013-09-13T12:50:46Z</time>
      </trkpt>
      <trkpt lat="42.017167" lon="0.735017">
        <ele>1397.0</ele>
        <time>2013-09-13T12:50:47Z</time>
      </trkpt>
      <trkpt lat="42.017267" lon="0.735083">
        <ele>1396.0</ele>
        <time>2013-09-13T12:50:48Z</time>
      </trkpt>
      <trkpt lat="42.017350" lon="0.735150">
        <ele>1394.0</ele>
        <time>2013-09-13T12:50:49Z</time>
      </trkpt>
      <trkpt lat="42.017433" lon="0.735217">
        <ele>1392.0</ele>
        <time>2013-09-13T12:50:50Z</time>
      </trkpt>
      <trkpt lat="42.017633" lon="0.735367">
        <ele>1388.0</ele>
        <time>2013-09-13T12:50:52Z</time>
      </trkpt>
      <trkpt lat="42.017733" lon="0.735450">
        <ele>1386.0</ele>
        <time>2013-09-13T12:50:53Z</time>
      </trkpt>
      <trkpt lat="42.017833" lon="0.735533">
        <ele>1384.0</ele>
        <time>2013-09-13T12:50:54Z</time>
      </trkpt>
      <trkpt lat="42.017917" lon="0.735600">
        <ele>1383.0</ele>
        <time>2013-09-13T12:50:55Z</time>
      </trkpt>
      <trkpt lat="42.018000" lon="0.735650">
        <ele>1382.0</ele>
        <time>2013-09-13T12:50:56Z</time>
      </trkpt>
      <trkpt lat="42.018100" lon="0.735683">
        <ele>1380.0</ele>
        <time>2013-09-13T12:50:57Z</time>
      </trkpt>
      <trkpt lat="42.018183" lon="0.735733">
        <ele>1378.0</ele>
        <time>2013-09-13T12:50:58Z</time>
      </trkpt>
      <trkpt lat="42.018283" lon="0.735767">
        <ele>1375.0</ele>
        <time>2013-09-13T12:50:59Z</time>
      </trkpt>
      <trkpt lat="42.018467" lon="0.735867">
        <ele>1370.0</ele>
        <time>2013-09-13T12:51:01Z</time>
      </trkpt>
      <trkpt lat="42.018567" lon="0.735900">
        <ele>1367.0</ele>
        <time>2013-09-13T12:51:02Z</time>
      </trkpt>
      <trkpt lat="42.018650" lon="0.735950">
        <ele>1366.0</ele>
        <time>2013-09-13T12:51:03Z</time>
      </trkpt>
      <trkpt lat="42.018733" lon="0.736000">
        <ele>1364.0</ele>
        <time>2013-09-13T12:51:04Z</time>
      </trkpt>
      <trkpt lat="42.018817" lon="0.736033">
        <ele>1362.0</ele>
        <time>2013-09-13T12:51:05Z</time>
      </trkpt>
      <trkpt lat="42.018917" lon="0.736083">
        <ele>1360.0</ele>
        <time>2013-09-13T12:51:06Z</time>
      </trkpt>
      <trkpt lat="42.019017" lon="0.736117">
        <ele>1358.0</ele>
        <time>2013-09-13T12:51:07Z</time>
      </trkpt>
      <trkpt lat="42.019117" lon="0.736167">
        <ele>1355.0</ele>
        <time>2013-09-13T12:51:08Z</time>
      </trkpt>
      <trkpt lat="42.019217" lon="0.736217">
        <ele>1353.0</ele>
        <time>2013-09-13T12:51:09Z</time>
      </trkpt>
      <trkpt lat="42.019317" lon="0.736250">
        <ele>1352.0</ele>
        <time>2013-09-13T12:51:10Z</time>
      </trkpt>
      <trkpt lat="42.019400" lon="0.736283">
        <ele>1351.0</ele>
        <time>2013-09-13T12:51:11Z</time>
      </trkpt>
      <trkpt lat="42.019483" lon="0.736317">
        <ele>1349.0</ele>
        <time>2013-09-13T12:51:12Z</time>
      </trkpt>
      <trkpt lat="42.019583" lon="0.736350">
        <ele>1348.0</ele>
        <time>2013-09-13T12:51:13Z</time>
      </trkpt>
      <trkpt lat="42.019667" lon="0.736400">
        <ele>1347.0</ele>
        <time>2013-09-13T12:51:14Z</time>
      </trkpt>
      <trkpt lat="42.019750" lon="0.736433">
        <ele>1346.0</ele>
        <time>2013-09-13T12:51:15Z</time>
      </trkpt>
      <trkpt lat="42.019833" lon="0.736467">
        <ele>1345.0</ele>
        <time>2013-09-13T12:51:16Z</time>
      </trkpt>
      <trkpt lat="42.019933" lon="0.736517">
        <ele>1343.0</ele>
        <time>2013-09-13T12:51:17Z</time>
      </trkpt>
      <trkpt lat="42.020017" lon="0.736567">
        <ele>1341.0</ele>
        <time>2013-09-13T12:51:18Z</time>
      </trkpt>
      <trkpt lat="42.020117" lon="0.736600">
        <ele>1340.0</ele>
        <time>2013-09-13T12:51:19Z</time>
      </trkpt>
      <trkpt lat="42.020200" lon="0.736650">
        <ele>1338.0</ele>
        <time>2013-09-13T12:51:20Z</time>
      </trkpt>
      <trkpt lat="42.020300" lon="0.736700">
        <ele>1337.0</ele>
        <time>2013-09-13T12:51:21Z</time>
      </trkpt>
      <trkpt lat="42.020383" lon="0.736750">
        <ele>1336.0</ele>
        <time>2013-09-13T12:51:22Z</time>
      </trkpt>
      <trkpt lat="42.020483" lon="0.736817">
        <ele>1334.0</ele>
        <time>2013-09-13T12:51:23Z</time>
      </trkpt>
      <trkpt lat="42.020583" lon="0.736867">
        <ele>1333.0</ele>
        <time>2013-09-13T12:51:24Z</time>
      </trkpt>
      <trkpt lat="42.020667" lon="0.736933">
        <ele>1333.0</ele>
        <time>2013-09-13T12:51:25Z</time>
      </trkpt>
      <trkpt lat="42.020750" lon="0.737000">
        <ele>1333.0</ele>
        <time>2013-09-13T12:51:26Z</time>
      </trkpt>
      <trkpt lat="42.020833" lon="0.737067">
        <ele>1333.0</ele>
        <time>2013-09-13T12:51:27Z</time>
      </trkpt>
      <trkpt lat="42.020900" lon="0.737133">
        <ele>1333.0</ele>
        <time>2013-09-13T12:51:28Z</time>
      </trkpt>
      <trkpt lat="42.020983" lon="0.737217">
        <ele>1332.0</ele>
        <time>2013-09-13T12:51:29Z</time>
      </trkpt>
      <trkpt lat="42.021067" lon="0.737300">
        <ele>1332.0</ele>
        <time>2013-09-13T12:51:30Z</time>
      </trkpt>
      <trkpt lat="42.021133" lon="0.737383">
        <ele>1331.0</ele>
        <time>2013-09-13T12:51:31Z</time>
      </trkpt>
      <trkpt lat="42.021217" lon="0.737467">
        <ele>1330.0</ele>
        <time>2013-09-13T12:51:32Z</time>
      </trkpt>
      <trkpt lat="42.021283" lon="0.737550">
        <ele>1329.0</ele>
        <time>2013-09-13T12:51:33Z</time>
      </trkpt>
      <trkpt lat="42.021367" lon="0.737633">
        <ele>1328.0</ele>
        <time>2013-09-13T12:51:34Z</time>
      </trkpt>
      <trkpt lat="42.021450" lon="0.737717">
        <ele>1327.0</ele>
        <time>2013-09-13T12:51:35Z</time>
      </trkpt>
      <trkpt lat="42.021533" lon="0.737817">
        <ele>1325.0</ele>
        <time>2013-09-13T12:51:36Z</time>
      </trkpt>
      <trkpt lat="42.021600" lon="0.737917">
        <ele>1324.0</ele>
        <time>2013-09-13T12:51:37Z</time>
      </trkpt>
      <trkpt lat="42.021683" lon="0.738017">
        <ele>1323.0</ele>
        <time>2013-09-13T12:51:38Z</time>
      </trkpt>
      <trkpt lat="42.021767" lon="0.738100">
        <ele>1322.0</ele>
        <time>2013-09-13T12:51:39Z</time>
      </trkpt>
      <trkpt lat="42.021850" lon="0.738183">
        <ele>1321.0</ele>
        <time>2013-09-13T12:51:40Z</time>
      </trkpt>
      <trkpt lat="42.021917" lon="0.738267">
        <ele>1320.0</ele>
        <time>2013-09-13T12:51:41Z</time>
      </trkpt>
      <trkpt lat="42.022000" lon="0.738350">
        <ele>1318.0</ele>
        <time>2013-09-13T12:51:42Z</time>
      </trkpt>
      <trkpt lat="42.022067" lon="0.738433">
        <ele>1317.0</ele>
        <time>2013-09-13T12:51:43Z</time>
      </trkpt>
      <trkpt lat="42.022150" lon="0.738517">
        <ele>1315.0</ele>
        <time>2013-09-13T12:51:44Z</time>
      </trkpt>
      <trkpt lat="42.022217" lon="0.738583">
        <ele>1314.0</ele>
        <time>2013-09-13T12:51:45Z</time>
      </trkpt>
      <trkpt lat="42.022283" lon="0.738667">
        <ele>1313.0</ele>
        <time>2013-09-13T12:51:46Z</time>
      </trkpt>
      <trkpt lat="42.022367" lon="0.738750">
        <ele>1311.0</ele>
        <time>2013-09-13T12:51:47Z</time>
      </trkpt>
      <trkpt lat="42.022433" lon="0.738833">
        <ele>1309.0</ele>
        <time>2013-09-13T12:51:48Z</time>
      </trkpt>
      <trkpt lat="42.022517" lon="0.738933">
        <ele>1308.0</ele>
        <time>2013-09-13T12:51:49Z</time>
      </trkpt>
      <trkpt lat="42.022733" lon="0.739167">
        <ele>1305.0</ele>
        <time>2013-09-13T12:51:52Z</time>
      </trkpt>
      <trkpt lat="42.022817" lon="0.739217">
        <ele>1304.0</ele>
        <time>2013-09-13T12:51:53Z</time>
      </trkpt>
      <trkpt lat="42.022883" lon="0.739300">
        <ele>1302.0</ele>
        <time>2013-09-13T12:51:54Z</time>
      </trkpt>
      <trkpt lat="42.022967" lon="0.739367">
        <ele>1300.0</ele>
        <time>2013-09-13T12:51:55Z</time>
      </trkpt>
      <trkpt lat="42.023050" lon="0.739450">
        <ele>1299.0</ele>
        <time>2013-09-13T12:51:56Z</time>
      </trkpt>
      <trkpt lat="42.023133" lon="0.739517">
        <ele>1297.0</ele>
        <time>2013-09-13T12:51:57Z</time>
      </trkpt>
      <trkpt lat="42.023200" lon="0.739600">
        <ele>1296.0</ele>
        <time>2013-09-13T12:51:58Z</time>
      </trkpt>
      <trkpt lat="42.023267" lon="0.739683">
        <ele>1295.0</ele>
        <time>2013-09-13T12:51:59Z</time>
      </trkpt>
      <trkpt lat="42.023333" lon="0.739767">
        <ele>1293.0</ele>
        <time>2013-09-13T12:52:00Z</time>
      </trkpt>
      <trkpt lat="42.023400" lon="0.739850">
        <ele>1291.0</ele>
        <time>2013-09-13T12:52:01Z</time>
      </trkpt>
      <trkpt lat="42.023533" lon="0.740050">
        <ele>1288.0</ele>
        <time>2013-09-13T12:52:03Z</time>
      </trkpt>
      <trkpt lat="42.023600" lon="0.740150">
        <ele>1286.0</ele>
        <time>2013-09-13T12:52:04Z</time>
      </trkpt>
      <trkpt lat="42.023667" lon="0.740233">
        <ele>1285.0</ele>
        <time>2013-09-13T12:52:05Z</time>
      </trkpt>
      <trkpt lat="42.023750" lon="0.740333">
        <ele>1283.0</ele>
        <time>2013-09-13T12:52:06Z</time>
      </trkpt>
      <trkpt lat="42.023817" lon="0.740417">
        <ele>1281.0</ele>
        <time>2013-09-13T12:52:07Z</time>
      </trkpt>
      <trkpt lat="42.023883" lon="0.740517">
        <ele>1279.0</ele>
        <time>2013-09-13T12:52:08Z</time>
      </trkpt>
      <trkpt lat="42.024033" lon="0.740683">
        <ele>1275.0</ele>
        <time>2013-09-13T12:52:10Z</time>
      </trkpt>
      <trkpt lat="42.024100" lon="0.740783">
        <ele>1274.0</ele>
        <time>2013-09-13T12:52:11Z</time>
      </trkpt>
      <trkpt lat="42.024167" lon="0.740867">
        <ele>1272.0</ele>
        <time>2013-09-13T12:52:12Z</time>
      </trkpt>
      <trkpt lat="42.024250" lon="0.740967">
        <ele>1270.0</ele>
        <time>2013-09-13T12:52:13Z</time>
      </trkpt>
      <trkpt lat="42.024317" lon="0.741050">
        <ele>1269.0</ele>
        <time>2013-09-13T12:52:14Z</time>
      </trkpt>
      <trkpt lat="42.024383" lon="0.741133">
        <ele>1267.0</ele>
        <time>2013-09-13T12:52:15Z</time>
      </trkpt>
      <trkpt lat="42.024433" lon="0.741217">
        <ele>1266.0</ele>
        <time>2013-09-13T12:52:16Z</time>
      </trkpt>
      <trkpt lat="42.024500" lon="0.741317">
        <ele>1264.0</ele>
        <time>2013-09-13T12:52:17Z</time>
      </trkpt>
      <trkpt lat="42.024567" lon="0.741417">
        <ele>1263.0</ele>
        <time>2013-09-13T12:52:18Z</time>
      </trkpt>
      <trkpt lat="42.024633" lon="0.741500">
        <ele>1261.0</ele>
        <time>2013-09-13T12:52:19Z</time>
      </trkpt>
      <trkpt lat="42.024683" lon="0.741600">
        <ele>1259.0</ele>
        <time>2013-09-13T12:52:20Z</time>
      </trkpt>
      <trkpt lat="42.024750" lon="0.741700">
        <ele>1258.0</ele>
        <time>2013-09-13T12:52:21Z</time>
      </trkpt>
      <trkpt lat="42.024800" lon="0.741800">
        <ele>1256.0</ele>
        <time>2013-09-13T12:52:22Z</time>
      </trkpt>
      <trkpt lat="42.024850" lon="0.741900">
        <ele>1254.0</ele>
        <time>2013-09-13T12:52:23Z</time>
      </trkpt>
      <trkpt lat="42.024900" lon="0.742000">
        <ele>1253.0</ele>
        <time>2013-09-13T12:52:24Z</time>
      </trkpt>
      <trkpt lat="42.024950" lon="0.742083">
        <ele>1251.0</ele>
        <time>2013-09-13T12:52:25Z</time>
      </trkpt>
      <trkpt lat="42.025000" lon="0.742183">
        <ele>1250.0</ele>
        <time>2013-09-13T12:52:26Z</time>
      </trkpt>
      <trkpt lat="42.025050" lon="0.742283">
        <ele>1248.0</ele>
        <time>2013-09-13T12:52:27Z</time>
      </trkpt>
      <trkpt lat="42.025100" lon="0.742383">
        <ele>1247.0</ele>
        <time>2013-09-13T12:52:28Z</time>
      </trkpt>
      <trkpt lat="42.025150" lon="0.742483">
        <ele>1245.0</ele>
        <time>2013-09-13T12:52:29Z</time>
      </trkpt>
      <trkpt lat="42.025200" lon="0.742600">
        <ele>1243.0</ele>
        <time>2013-09-13T12:52:30Z</time>
      </trkpt>
      <trkpt lat="42.025250" lon="0.742700">
        <ele>1241.0</ele>
        <time>2013-09-13T12:52:31Z</time>
      </trkpt>
      <trkpt lat="42.025300" lon="0.742800">
        <ele>1239.0</ele>
        <time>2013-09-13T12:52:32Z</time>
      </trkpt>
      <trkpt lat="42.025350" lon="0.742900">
        <ele>1237.0</ele>
        <time>2013-09-13T12:52:33Z</time>
      </trkpt>
      <trkpt lat="42.025400" lon="0.743017">
        <ele>1235.0</ele>
        <time>2013-09-13T12:52:34Z</time>
      </trkpt>
      <trkpt lat="42.025433" lon="0.743117">
        <ele>1232.0</ele>
        <time>2013-09-13T12:52:35Z</time>
      </trkpt>
      <trkpt lat="42.025467" lon="0.743233">
        <ele>1229.0</ele>
        <time>2013-09-13T12:52:36Z</time>
      </trkpt>
      <trkpt lat="42.025500" lon="0.743367">
        <ele>1227.0</ele>
        <time>2013-09-13T12:52:37Z</time>
      </trkpt>
      <trkpt lat="42.025533" lon="0.743483">
        <ele>1224.0</ele>
        <time>2013-09-13T12:52:38Z</time>
      </trkpt>
      <trkpt lat="42.025567" lon="0.743600">
        <ele>1221.0</ele>
        <time>2013-09-13T12:52:39Z</time>
      </trkpt>
      <trkpt lat="42.025583" lon="0.743717">
        <ele>1219.0</ele>
        <time>2013-09-13T12:52:40Z</time>
      </trkpt>
      <trkpt lat="42.025617" lon="0.743817">
        <ele>1217.0</ele>
        <time>2013-09-13T12:52:41Z</time>
      </trkpt>
      <trkpt lat="42.025650" lon="0.743933">
        <ele>1215.0</ele>
        <time>2013-09-13T12:52:42Z</time>
      </trkpt>
      <trkpt lat="42.025667" lon="0.744050">
        <ele>1212.0</ele>
        <time>2013-09-13T12:52:43Z</time>
      </trkpt>
      <trkpt lat="42.025700" lon="0.744167">
        <ele>1210.0</ele>
        <time>2013-09-13T12:52:44Z</time>
      </trkpt>
      <trkpt lat="42.025733" lon="0.744283">
        <ele>1208.0</ele>
        <time>2013-09-13T12:52:45Z</time>
      </trkpt>
      <trkpt lat="42.025750" lon="0.744383">
        <ele>1206.0</ele>
        <time>2013-09-13T12:52:46Z</time>
      </trkpt>
      <trkpt lat="42.025783" lon="0.744483">
        <ele>1204.0</ele>
        <time>2013-09-13T12:52:47Z</time>
      </trkpt>
      <trkpt lat="42.025800" lon="0.744600">
        <ele>1202.0</ele>
        <time>2013-09-13T12:52:48Z</time>
      </trkpt>
      <trkpt lat="42.025817" lon="0.744733">
        <ele>1199.0</ele>
        <time>2013-09-13T12:52:49Z</time>
      </trkpt>
      <trkpt lat="42.025833" lon="0.744867">
        <ele>1197.0</ele>
        <time>2013-09-13T12:52:50Z</time>
      </trkpt>
      <trkpt lat="42.025867" lon="0.744983">
        <ele>1196.0</ele>
        <time>2013-09-13T12:52:51Z</time>
      </trkpt>
      <trkpt lat="42.025883" lon="0.745100">
        <ele>1196.0</ele>
        <time>2013-09-13T12:52:52Z</time>
      </trkpt>
      <trkpt lat="42.025917" lon="0.745217">
        <ele>1196.0</ele>
        <time>2013-09-13T12:52:53Z</time>
      </trkpt>
      <trkpt lat="42.025933" lon="0.745317">
        <ele>1195.0</ele>
        <time>2013-09-13T12:52:54Z</time>
      </trkpt>
      <trkpt lat="42.025967" lon="0.745433">
        <ele>1195.0</ele>
        <time>2013-09-13T12:52:55Z</time>
      </trkpt>
      <trkpt lat="42.026017" lon="0.745683">
        <ele>1193.0</ele>
        <time>2013-09-13T12:52:57Z</time>
      </trkpt>
      <trkpt lat="42.026067" lon="0.745817">
        <ele>1192.0</ele>
        <time>2013-09-13T12:52:58Z</time>
      </trkpt>
      <trkpt lat="42.026100" lon="0.745950">
        <ele>1192.0</ele>
        <time>2013-09-13T12:52:59Z</time>
      </trkpt>
      <trkpt lat="42.026117" lon="0.746067">
        <ele>1192.0</ele>
        <time>2013-09-13T12:53:00Z</time>
      </trkpt>
      <trkpt lat="42.026150" lon="0.746200">
        <ele>1193.0</ele>
        <time>2013-09-13T12:53:01Z</time>
      </trkpt>
      <trkpt lat="42.026167" lon="0.746317">
        <ele>1193.0</ele>
        <time>2013-09-13T12:53:02Z</time>
      </trkpt>
      <trkpt lat="42.026183" lon="0.746450">
        <ele>1193.0</ele>
        <time>2013-09-13T12:53:03Z</time>
      </trkpt>
      <trkpt lat="42.026217" lon="0.746583">
        <ele>1193.0</ele>
        <time>2013-09-13T12:53:04Z</time>
      </trkpt>
      <trkpt lat="42.026283" lon="0.746833">
        <ele>1194.0</ele>
        <time>2013-09-13T12:53:06Z</time>
      </trkpt>
      <trkpt lat="42.026317" lon="0.746950">
        <ele>1196.0</ele>
        <time>2013-09-13T12:53:07Z</time>
      </trkpt>
      <trkpt lat="42.026350" lon="0.747067">
        <ele>1196.0</ele>
        <time>2013-09-13T12:53:08Z</time>
      </trkpt>
      <trkpt lat="42.026383" lon="0.747200">
        <ele>1197.0</ele>
        <time>2013-09-13T12:53:09Z</time>
      </trkpt>
      <trkpt lat="42.026383" lon="0.747333">
        <ele>1198.0</ele>
        <time>2013-09-13T12:53:10Z</time>
      </trkpt>
      <trkpt lat="42.026383" lon="0.747467">
        <ele>1199.0</ele>
        <time>2013-09-13T12:53:11Z</time>
      </trkpt>
      <trkpt lat="42.026367" lon="0.747550">
        <ele>1199.0</ele>
        <time>2013-09-13T12:53:12Z</time>
      </trkpt>
      <trkpt lat="42.026317" lon="0.747600">
        <ele>1200.0</ele>
        <time>2013-09-13T12:53:13Z</time>
      </trkpt>
      <trkpt lat="42.026250" lon="0.747650">
        <ele>1201.0</ele>
        <time>2013-09-13T12:53:14Z</time>
      </trkpt>
      <trkpt lat="42.026167" lon="0.747700">
        <ele>1202.0</ele>
        <time>2013-09-13T12:53:15Z</time>
      </trkpt>
      <trkpt lat="42.026133" lon="0.747733">
        <ele>1204.0</ele>
        <time>2013-09-13T12:53:16Z</time>
      </trkpt>
      <trkpt lat="42.026083" lon="0.747717">
        <ele>1207.0</ele>
        <time>2013-09-13T12:53:17Z</time>
      </trkpt>
      <trkpt lat="42.026050" lon="0.747683">
        <ele>1208.0</ele>
        <time>2013-09-13T12:53:18Z</time>
      </trkpt>
      <trkpt lat="42.026017" lon="0.747617">
        <ele>1207.0</ele>
        <time>2013-09-13T12:53:19Z</time>
      </trkpt>
      <trkpt lat="42.025983" lon="0.747533">
        <ele>1206.0</ele>
        <time>2013-09-13T12:53:20Z</time>
      </trkpt>
      <trkpt lat="42.025933" lon="0.747450">
        <ele>1204.0</ele>
        <time>2013-09-13T12:53:21Z</time>
      </trkpt>
      <trkpt lat="42.025900" lon="0.747350">
        <ele>1202.0</ele>
        <time>2013-09-13T12:53:22Z</time>
      </trkpt>
      <trkpt lat="42.025883" lon="0.747233">
        <ele>1201.0</ele>
        <time>2013-09-13T12:53:23Z</time>
      </trkpt>
      <trkpt lat="42.025917" lon="0.747117">
        <ele>1200.0</ele>
        <time>2013-09-13T12:53:24Z</time>
      </trkpt>
      <trkpt lat="42.025950" lon="0.747017">
        <ele>1200.0</ele>
        <time>2013-09-13T12:53:25Z</time>
      </trkpt>
      <trkpt lat="42.026017" lon="0.746933">
        <ele>1199.0</ele>
        <time>2013-09-13T12:53:26Z</time>
      </trkpt>
      <trkpt lat="42.026067" lon="0.746867">
        <ele>1198.0</ele>
        <time>2013-09-13T12:53:27Z</time>
      </trkpt>
      <trkpt lat="42.026133" lon="0.746783">
        <ele>1198.0</ele>
        <time>2013-09-13T12:53:28Z</time>
      </trkpt>
      <trkpt lat="42.026217" lon="0.746717">
        <ele>1196.0</ele>
        <time>2013-09-13T12:53:29Z</time>
      </trkpt>
      <trkpt lat="42.026317" lon="0.746667">
        <ele>1195.0</ele>
        <time>2013-09-13T12:53:30Z</time>
      </trkpt>
      <trkpt lat="42.026417" lon="0.746633">
        <ele>1194.0</ele>
        <time>2013-09-13T12:53:31Z</time>
      </trkpt>
      <trkpt lat="42.026517" lon="0.746650">
        <ele>1193.0</ele>
        <time>2013-09-13T12:53:32Z</time>
      </trkpt>
      <trkpt lat="42.026617" lon="0.746683">
        <ele>1193.0</ele>
        <time>2013-09-13T12:53:33Z</time>
      </trkpt>
      <trkpt lat="42.026700" lon="0.746750">
        <ele>1193.0</ele>
        <time>2013-09-13T12:53:34Z</time>
      </trkpt>
      <trkpt lat="42.026767" lon="0.746833">
        <ele>1193.0</ele>
        <time>2013-09-13T12:53:35Z</time>
      </trkpt>
      <trkpt lat="42.026917" lon="0.747017">
        <ele>1191.0</ele>
        <time>2013-09-13T12:53:37Z</time>
      </trkpt>
      <trkpt lat="42.026983" lon="0.747150">
        <ele>1190.0</ele>
        <time>2013-09-13T12:53:38Z</time>
      </trkpt>
      <trkpt lat="42.027033" lon="0.747283">
        <ele>1189.0</ele>
        <time>2013-09-13T12:53:39Z</time>
      </trkpt>
      <trkpt lat="42.027100" lon="0.747417">
        <ele>1190.0</ele>
        <time>2013-09-13T12:53:40Z</time>
      </trkpt>
      <trkpt lat="42.027150" lon="0.747550">
        <ele>1190.0</ele>
        <time>2013-09-13T12:53:41Z</time>
      </trkpt>
      <trkpt lat="42.027183" lon="0.747667">
        <ele>1191.0</ele>
        <time>2013-09-13T12:53:42Z</time>
      </trkpt>
      <trkpt lat="42.027233" lon="0.747783">
        <ele>1191.0</ele>
        <time>2013-09-13T12:53:43Z</time>
      </trkpt>
      <trkpt lat="42.027267" lon="0.747917">
        <ele>1192.0</ele>
        <time>2013-09-13T12:53:44Z</time>
      </trkpt>
      <trkpt lat="42.027317" lon="0.748050">
        <ele>1193.0</ele>
        <time>2013-09-13T12:53:45Z</time>
      </trkpt>
      <trkpt lat="42.027333" lon="0.748200">
        <ele>1193.0</ele>
        <time>2013-09-13T12:53:46Z</time>
      </trkpt>
      <trkpt lat="42.027367" lon="0.748333">
        <ele>1193.0</ele>
        <time>2013-09-13T12:53:47Z</time>
      </trkpt>
      <trkpt lat="42.027400" lon="0.748483">
        <ele>1193.0</ele>
        <time>2013-09-13T12:53:48Z</time>
      </trkpt>
      <trkpt lat="42.027433" lon="0.748617">
        <ele>1194.0</ele>
        <time>2013-09-13T12:53:49Z</time>
      </trkpt>
      <trkpt lat="42.027467" lon="0.748750">
        <ele>1194.0</ele>
        <time>2013-09-13T12:53:50Z</time>
      </trkpt>
      <trkpt lat="42.027483" lon="0.748883">
        <ele>1193.0</ele>
        <time>2013-09-13T12:53:51Z</time>
      </trkpt>
      <trkpt lat="42.027500" lon="0.749017">
        <ele>1192.0</ele>
        <time>2013-09-13T12:53:52Z</time>
      </trkpt>
      <trkpt lat="42.027517" lon="0.749150">
        <ele>1191.0</ele>
        <time>2013-09-13T12:53:53Z</time>
      </trkpt>
      <trkpt lat="42.027533" lon="0.749283">
        <ele>1189.0</ele>
        <time>2013-09-13T12:53:54Z</time>
      </trkpt>
      <trkpt lat="42.027550" lon="0.749433">
        <ele>1189.0</ele>
        <time>2013-09-13T12:53:55Z</time>
      </trkpt>
      <trkpt lat="42.027567" lon="0.749583">
        <ele>1189.0</ele>
        <time>2013-09-13T12:53:56Z</time>
      </trkpt>
      <trkpt lat="42.027567" lon="0.749717">
        <ele>1188.0</ele>
        <time>2013-09-13T12:53:57Z</time>
      </trkpt>
      <trkpt lat="42.027583" lon="0.749850">
        <ele>1188.0</ele>
        <time>2013-09-13T12:53:58Z</time>
      </trkpt>
      <trkpt lat="42.027600" lon="0.750000">
        <ele>1187.0</ele>
        <time>2013-09-13T12:53:59Z</time>
      </trkpt>
      <trkpt lat="42.027600" lon="0.750150">
        <ele>1187.0</ele>
        <time>2013-09-13T12:54:00Z</time>
      </trkpt>
      <trkpt lat="42.027617" lon="0.750300">
        <ele>1186.0</ele>
        <time>2013-09-13T12:54:01Z</time>
      </trkpt>
      <trkpt lat="42.027617" lon="0.750450">
        <ele>1186.0</ele>
        <time>2013-09-13T12:54:02Z</time>
      </trkpt>
      <trkpt lat="42.027633" lon="0.750600">
        <ele>1186.0</ele>
        <time>2013-09-13T12:54:03Z</time>
      </trkpt>
      <trkpt lat="42.027633" lon="0.750717">
        <ele>1187.0</ele>
        <time>2013-09-13T12:54:04Z</time>
      </trkpt>
      <trkpt lat="42.027667" lon="0.750850">
        <ele>1188.0</ele>
        <time>2013-09-13T12:54:05Z</time>
      </trkpt>
      <trkpt lat="42.027683" lon="0.750983">
        <ele>1188.0</ele>
        <time>2013-09-13T12:54:06Z</time>
      </trkpt>
      <trkpt lat="42.027700" lon="0.751117">
        <ele>1188.0</ele>
        <time>2013-09-13T12:54:07Z</time>
      </trkpt>
      <trkpt lat="42.027700" lon="0.751250">
        <ele>1187.0</ele>
        <time>2013-09-13T12:54:08Z</time>
      </trkpt>
      <trkpt lat="42.027683" lon="0.751383">
        <ele>1187.0</ele>
        <time>2013-09-13T12:54:09Z</time>
      </trkpt>
      <trkpt lat="42.027683" lon="0.751500">
        <ele>1186.0</ele>
        <time>2013-09-13T12:54:10Z</time>
      </trkpt>
      <trkpt lat="42.027650" lon="0.751617">
        <ele>1186.0</ele>
        <time>2013-09-13T12:54:11Z</time>
      </trkpt>
      <trkpt lat="42.027617" lon="0.751733">
        <ele>1185.0</ele>
        <time>2013-09-13T12:54:12Z</time>
      </trkpt>
      <trkpt lat="42.027583" lon="0.751850">
        <ele>1184.0</ele>
        <time>2013-09-13T12:54:13Z</time>
      </trkpt>
      <trkpt lat="42.027550" lon="0.751967">
        <ele>1183.0</ele>
        <time>2013-09-13T12:54:14Z</time>
      </trkpt>
      <trkpt lat="42.027533" lon="0.752117">
        <ele>1181.0</ele>
        <time>2013-09-13T12:54:15Z</time>
      </trkpt>
      <trkpt lat="42.027517" lon="0.752267">
        <ele>1181.0</ele>
        <time>2013-09-13T12:54:16Z</time>
      </trkpt>
      <trkpt lat="42.027500" lon="0.752417">
        <ele>1180.0</ele>
        <time>2013-09-13T12:54:17Z</time>
      </trkpt>
      <trkpt lat="42.027483" lon="0.752550">
        <ele>1180.0</ele>
        <time>2013-09-13T12:54:18Z</time>
      </trkpt>
      <trkpt lat="42.027450" lon="0.752700">
        <ele>1180.0</ele>
        <time>2013-09-13T12:54:19Z</time>
      </trkpt>
      <trkpt lat="42.027417" lon="0.752833">
        <ele>1179.0</ele>
        <time>2013-09-13T12:54:20Z</time>
      </trkpt>
      <trkpt lat="42.027383" lon="0.752967">
        <ele>1179.0</ele>
        <time>2013-09-13T12:54:21Z</time>
      </trkpt>
      <trkpt lat="42.027367" lon="0.753083">
        <ele>1178.0</ele>
        <time>2013-09-13T12:54:22Z</time>
      </trkpt>
      <trkpt lat="42.027333" lon="0.753200">
        <ele>1177.0</ele>
        <time>2013-09-13T12:54:23Z</time>
      </trkpt>
      <trkpt lat="42.027300" lon="0.753333">
        <ele>1174.0</ele>
        <time>2013-09-13T12:54:24Z</time>
      </trkpt>
      <trkpt lat="42.027267" lon="0.753467">
        <ele>1172.0</ele>
        <time>2013-09-13T12:54:25Z</time>
      </trkpt>
      <trkpt lat="42.027233" lon="0.753600">
        <ele>1169.0</ele>
        <time>2013-09-13T12:54:26Z</time>
      </trkpt>
      <trkpt lat="42.027200" lon="0.753717">
        <ele>1168.0</ele>
        <time>2013-09-13T12:54:27Z</time>
      </trkpt>
      <trkpt lat="42.027167" lon="0.753833">
        <ele>1166.0</ele>
        <time>2013-09-13T12:54:28Z</time>
      </trkpt>
      <trkpt lat="42.027150" lon="0.753967">
        <ele>1163.0</ele>
        <time>2013-09-13T12:54:29Z</time>
      </trkpt>
      <trkpt lat="42.027117" lon="0.754117">
        <ele>1161.0</ele>
        <time>2013-09-13T12:54:30Z</time>
      </trkpt>
      <trkpt lat="42.027083" lon="0.754267">
        <ele>1158.0</ele>
        <time>2013-09-13T12:54:31Z</time>
      </trkpt>
      <trkpt lat="42.027050" lon="0.754400">
        <ele>1157.0</ele>
        <time>2013-09-13T12:54:32Z</time>
      </trkpt>
      <trkpt lat="42.027017" lon="0.754517">
        <ele>1156.0</ele>
        <time>2013-09-13T12:54:33Z</time>
      </trkpt>
      <trkpt lat="42.026983" lon="0.754650">
        <ele>1155.0</ele>
        <time>2013-09-13T12:54:34Z</time>
      </trkpt>
      <trkpt lat="42.026950" lon="0.754783">
        <ele>1154.0</ele>
        <time>2013-09-13T12:54:35Z</time>
      </trkpt>
      <trkpt lat="42.026933" lon="0.754917">
        <ele>1153.0</ele>
        <time>2013-09-13T12:54:36Z</time>
      </trkpt>
      <trkpt lat="42.026917" lon="0.755033">
        <ele>1153.0</ele>
        <time>2013-09-13T12:54:37Z</time>
      </trkpt>
      <trkpt lat="42.026883" lon="0.755133">
        <ele>1153.0</ele>
        <time>2013-09-13T12:54:38Z</time>
      </trkpt>
      <trkpt lat="42.026867" lon="0.755217">
        <ele>1154.0</ele>
        <time>2013-09-13T12:54:39Z</time>
      </trkpt>
      <trkpt lat="42.026850" lon="0.755300">
        <ele>1154.0</ele>
        <time>2013-09-13T12:54:40Z</time>
      </trkpt>
      <trkpt lat="42.026817" lon="0.755417">
        <ele>1153.0</ele>
        <time>2013-09-13T12:54:41Z</time>
      </trkpt>
      <trkpt lat="42.026800" lon="0.755550">
        <ele>1152.0</ele>
        <time>2013-09-13T12:54:42Z</time>
      </trkpt>
      <trkpt lat="42.026767" lon="0.755667">
        <ele>1152.0</ele>
        <time>2013-09-13T12:54:43Z</time>
      </trkpt>
      <trkpt lat="42.026750" lon="0.755783">
        <ele>1152.0</ele>
        <time>2013-09-13T12:54:44Z</time>
      </trkpt>
      <trkpt lat="42.026717" lon="0.755883">
        <ele>1153.0</ele>
        <time>2013-09-13T12:54:45Z</time>
      </trkpt>
      <trkpt lat="42.026683" lon="0.756000">
        <ele>1153.0</ele>
        <time>2013-09-13T12:54:46Z</time>
      </trkpt>
      <trkpt lat="42.026650" lon="0.756133">
        <ele>1152.0</ele>
        <time>2013-09-13T12:54:47Z</time>
      </trkpt>
      <trkpt lat="42.026600" lon="0.756250">
        <ele>1152.0</ele>
        <time>2013-09-13T12:54:48Z</time>
      </trkpt>
      <trkpt lat="42.026567" lon="0.756383">
        <ele>1152.0</ele>
        <time>2013-09-13T12:54:49Z</time>
      </trkpt>
      <trkpt lat="42.026533" lon="0.756483">
        <ele>1152.0</ele>
        <time>2013-09-13T12:54:50Z</time>
      </trkpt>
      <trkpt lat="42.026500" lon="0.756600">
        <ele>1153.0</ele>
        <time>2013-09-13T12:54:51Z</time>
      </trkpt>
      <trkpt lat="42.026483" lon="0.756700">
        <ele>1153.0</ele>
        <time>2013-09-13T12:54:52Z</time>
      </trkpt>
      <trkpt lat="42.026433" lon="0.756800">
        <ele>1153.0</ele>
        <time>2013-09-13T12:54:53Z</time>
      </trkpt>
      <trkpt lat="42.026383" lon="0.756933">
        <ele>1153.0</ele>
        <time>2013-09-13T12:54:54Z</time>
      </trkpt>
      <trkpt lat="42.026317" lon="0.757050">
        <ele>1153.0</ele>
        <time>2013-09-13T12:54:55Z</time>
      </trkpt>
      <trkpt lat="42.026250" lon="0.757167">
        <ele>1155.0</ele>
        <time>2013-09-13T12:54:56Z</time>
      </trkpt>
      <trkpt lat="42.026200" lon="0.757250">
        <ele>1156.0</ele>
        <time>2013-09-13T12:54:57Z</time>
      </trkpt>
      <trkpt lat="42.026133" lon="0.757317">
        <ele>1158.0</ele>
        <time>2013-09-13T12:54:58Z</time>
      </trkpt>
      <trkpt lat="42.026083" lon="0.757367">
        <ele>1159.0</ele>
        <time>2013-09-13T12:54:59Z</time>
      </trkpt>
      <trkpt lat="42.026033" lon="0.757433">
        <ele>1159.0</ele>
        <time>2013-09-13T12:55:00Z</time>
      </trkpt>
      <trkpt lat="42.025967" lon="0.757533">
        <ele>1159.0</ele>
        <time>2013-09-13T12:55:01Z</time>
      </trkpt>
      <trkpt lat="42.025917" lon="0.757633">
        <ele>1159.0</ele>
        <time>2013-09-13T12:55:02Z</time>
      </trkpt>
      <trkpt lat="42.025867" lon="0.757750">
        <ele>1160.0</ele>
        <time>2013-09-13T12:55:03Z</time>
      </trkpt>
      <trkpt lat="42.025817" lon="0.757850">
        <ele>1162.0</ele>
        <time>2013-09-13T12:55:04Z</time>
      </trkpt>
      <trkpt lat="42.025783" lon="0.757967">
        <ele>1164.0</ele>
        <time>2013-09-13T12:55:05Z</time>
      </trkpt>
      <trkpt lat="42.025750" lon="0.758083">
        <ele>1166.0</ele>
        <time>2013-09-13T12:55:06Z</time>
      </trkpt>
      <trkpt lat="42.025700" lon="0.758217">
        <ele>1166.0</ele>
        <time>2013-09-13T12:55:07Z</time>
      </trkpt>
      <trkpt lat="42.025650" lon="0.758350">
        <ele>1167.0</ele>
        <time>2013-09-13T12:55:08Z</time>
      </trkpt>
      <trkpt lat="42.025617" lon="0.758467">
        <ele>1169.0</ele>
        <time>2013-09-13T12:55:09Z</time>
      </trkpt>
      <trkpt lat="42.025583" lon="0.758583">
        <ele>1172.0</ele>
        <time>2013-09-13T12:55:10Z</time>
      </trkpt>
      <trkpt lat="42.025567" lon="0.758700">
        <ele>1175.0</ele>
        <time>2013-09-13T12:55:11Z</time>
      </trkpt>
      <trkpt lat="42.025533" lon="0.758800">
        <ele>1178.0</ele>
        <time>2013-09-13T12:55:12Z</time>
      </trkpt>
      <trkpt lat="42.025500" lon="0.758883">
        <ele>1181.0</ele>
        <time>2013-09-13T12:55:13Z</time>
      </trkpt>
      <trkpt lat="42.025467" lon="0.758983">
        <ele>1183.0</ele>
        <time>2013-09-13T12:55:14Z</time>
      </trkpt>
      <trkpt lat="42.025417" lon="0.759067">
        <ele>1185.0</ele>
        <time>2013-09-13T12:55:15Z</time>
      </trkpt>
      <trkpt lat="42.025350" lon="0.759133">
        <ele>1186.0</ele>
        <time>2013-09-13T12:55:16Z</time>
      </trkpt>
      <trkpt lat="42.025267" lon="0.759150">
        <ele>1188.0</ele>
        <time>2013-09-13T12:55:17Z</time>
      </trkpt>
      <trkpt lat="42.025200" lon="0.759150">
        <ele>1190.0</ele>
        <time>2013-09-13T12:55:18Z</time>
      </trkpt>
      <trkpt lat="42.025167" lon="0.759117">
        <ele>1195.0</ele>
        <time>2013-09-13T12:55:19Z</time>
      </trkpt>
      <trkpt lat="42.025133" lon="0.759067">
        <ele>1199.0</ele>
        <time>2013-09-13T12:55:20Z</time>
      </trkpt>
      <trkpt lat="42.025133" lon="0.759000">
        <ele>1203.0</ele>
        <time>2013-09-13T12:55:21Z</time>
      </trkpt>
      <trkpt lat="42.025150" lon="0.758933">
        <ele>1206.0</ele>
        <time>2013-09-13T12:55:22Z</time>
      </trkpt>
      <trkpt lat="42.025167" lon="0.758867">
        <ele>1209.0</ele>
        <time>2013-09-13T12:55:23Z</time>
      </trkpt>
      <trkpt lat="42.025200" lon="0.758800">
        <ele>1212.0</ele>
        <time>2013-09-13T12:55:24Z</time>
      </trkpt>
      <trkpt lat="42.025233" lon="0.758733">
        <ele>1215.0</ele>
        <time>2013-09-13T12:55:25Z</time>
      </trkpt>
      <trkpt lat="42.025300" lon="0.758683">
        <ele>1217.0</ele>
        <time>2013-09-13T12:55:26Z</time>
      </trkpt>
      <trkpt lat="42.025367" lon="0.758633">
        <ele>1217.0</ele>
        <time>2013-09-13T12:55:27Z</time>
      </trkpt>
      <trkpt lat="42.025467" lon="0.758600">
        <ele>1219.0</ele>
        <time>2013-09-13T12:55:28Z</time>
      </trkpt>
      <trkpt lat="42.025567" lon="0.758600">
        <ele>1220.0</ele>
        <time>2013-09-13T12:55:29Z</time>
      </trkpt>
      <trkpt lat="42.025683" lon="0.758633">
        <ele>1222.0</ele>
        <time>2013-09-13T12:55:30Z</time>
      </trkpt>
      <trkpt lat="42.025783" lon="0.758700">
        <ele>1223.0</ele>
        <time>2013-09-13T12:55:31Z</time>
      </trkpt>
      <trkpt lat="42.025867" lon="0.758783">
        <ele>1225.0</ele>
        <time>2013-09-13T12:55:32Z</time>
      </trkpt>
      <trkpt lat="42.025950" lon="0.758900">
        <ele>1227.0</ele>
        <time>2013-09-13T12:55:33Z</time>
      </trkpt>
      <trkpt lat="42.026017" lon="0.759033">
        <ele>1229.0</ele>
        <time>2013-09-13T12:55:34Z</time>
      </trkpt>
      <trkpt lat="42.026050" lon="0.759167">
        <ele>1231.0</ele>
        <time>2013-09-13T12:55:35Z</time>
      </trkpt>
      <trkpt lat="42.026083" lon="0.759283">
        <ele>1234.0</ele>
        <time>2013-09-13T12:55:36Z</time>
      </trkpt>
      <trkpt lat="42.026100" lon="0.759400">
        <ele>1237.0</ele>
        <time>2013-09-13T12:55:37Z</time>
      </trkpt>
      <trkpt lat="42.026083" lon="0.759517">
        <ele>1240.0</ele>
        <time>2013-09-13T12:55:38Z</time>
      </trkpt>
      <trkpt lat="42.026083" lon="0.759633">
        <ele>1242.0</ele>
        <time>2013-09-13T12:55:39Z</time>
      </trkpt>
      <trkpt lat="42.026050" lon="0.759750">
        <ele>1243.0</ele>
        <time>2013-09-13T12:55:40Z</time>
      </trkpt>
      <trkpt lat="42.026000" lon="0.759850">
        <ele>1245.0</ele>
        <time>2013-09-13T12:55:41Z</time>
      </trkpt>
      <trkpt lat="42.025967" lon="0.759967">
        <ele>1247.0</ele>
        <time>2013-09-13T12:55:42Z</time>
      </trkpt>
      <trkpt lat="42.025933" lon="0.760083">
        <ele>1249.0</ele>
        <time>2013-09-13T12:55:43Z</time>
      </trkpt>
      <trkpt lat="42.025900" lon="0.760200">
        <ele>1251.0</ele>
        <time>2013-09-13T12:55:44Z</time>
      </trkpt>
      <trkpt lat="42.025850" lon="0.760300">
        <ele>1253.0</ele>
        <time>2013-09-13T12:55:45Z</time>
      </trkpt>
      <trkpt lat="42.025783" lon="0.760367">
        <ele>1255.0</ele>
        <time>2013-09-13T12:55:46Z</time>
      </trkpt>
      <trkpt lat="42.025717" lon="0.760383">
        <ele>1256.0</ele>
        <time>2013-09-13T12:55:47Z</time>
      </trkpt>
      <trkpt lat="42.025667" lon="0.760383">
        <ele>1258.0</ele>
        <time>2013-09-13T12:55:48Z</time>
      </trkpt>
      <trkpt lat="42.025617" lon="0.760350">
        <ele>1261.0</ele>
        <time>2013-09-13T12:55:49Z</time>
      </trkpt>
      <trkpt lat="42.025583" lon="0.760317">
        <ele>1264.0</ele>
        <time>2013-09-13T12:55:50Z</time>
      </trkpt>
      <trkpt lat="42.025550" lon="0.760267">
        <ele>1267.0</ele>
        <time>2013-09-13T12:55:51Z</time>
      </trkpt>
      <trkpt lat="42.025533" lon="0.760217">
        <ele>1270.0</ele>
        <time>2013-09-13T12:55:52Z</time>
      </trkpt>
      <trkpt lat="42.025517" lon="0.760117">
        <ele>1272.0</ele>
        <time>2013-09-13T12:55:53Z</time>
      </trkpt>
      <trkpt lat="42.025533" lon="0.760017">
        <ele>1274.0</ele>
        <time>2013-09-13T12:55:54Z</time>
      </trkpt>
      <trkpt lat="42.025567" lon="0.759917">
        <ele>1276.0</ele>
        <time>2013-09-13T12:55:55Z</time>
      </trkpt>
      <trkpt lat="42.025650" lon="0.759850">
        <ele>1278.0</ele>
        <time>2013-09-13T12:55:56Z</time>
      </trkpt>
      <trkpt lat="42.025750" lon="0.759817">
        <ele>1281.0</ele>
        <time>2013-09-13T12:55:57Z</time>
      </trkpt>
      <trkpt lat="42.025850" lon="0.759817">
        <ele>1285.0</ele>
        <time>2013-09-13T12:55:58Z</time>
      </trkpt>
      <trkpt lat="42.025933" lon="0.759833">
        <ele>1288.0</ele>
        <time>2013-09-13T12:55:59Z</time>
      </trkpt>
      <trkpt lat="42.026033" lon="0.759833">
        <ele>1292.0</ele>
        <time>2013-09-13T12:56:00Z</time>
      </trkpt>
      <trkpt lat="42.026133" lon="0.759867">
        <ele>1296.0</ele>
        <time>2013-09-13T12:56:01Z</time>
      </trkpt>
      <trkpt lat="42.026233" lon="0.759917">
        <ele>1300.0</ele>
        <time>2013-09-13T12:56:02Z</time>
      </trkpt>
      <trkpt lat="42.026317" lon="0.760000">
        <ele>1303.0</ele>
        <time>2013-09-13T12:56:03Z</time>
      </trkpt>
      <trkpt lat="42.026383" lon="0.760117">
        <ele>1306.0</ele>
        <time>2013-09-13T12:56:04Z</time>
      </trkpt>
      <trkpt lat="42.026483" lon="0.760550">
        <ele>1314.0</ele>
        <time>2013-09-13T12:56:07Z</time>
      </trkpt>
      <trkpt lat="42.026483" lon="0.760683">
        <ele>1318.0</ele>
        <time>2013-09-13T12:56:08Z</time>
      </trkpt>
      <trkpt lat="42.026483" lon="0.760800">
        <ele>1321.0</ele>
        <time>2013-09-13T12:56:09Z</time>
      </trkpt>
      <trkpt lat="42.026483" lon="0.760917">
        <ele>1324.0</ele>
        <time>2013-09-13T12:56:10Z</time>
      </trkpt>
      <trkpt lat="42.026467" lon="0.761033">
        <ele>1327.0</ele>
        <time>2013-09-13T12:56:11Z</time>
      </trkpt>
      <trkpt lat="42.026450" lon="0.761150">
        <ele>1329.0</ele>
        <time>2013-09-13T12:56:12Z</time>
      </trkpt>
      <trkpt lat="42.026417" lon="0.761283">
        <ele>1330.0</ele>
        <time>2013-09-13T12:56:13Z</time>
      </trkpt>
      <trkpt lat="42.026383" lon="0.761417">
        <ele>1332.0</ele>
        <time>2013-09-13T12:56:14Z</time>
      </trkpt>
      <trkpt lat="42.026333" lon="0.761550">
        <ele>1334.0</ele>
        <time>2013-09-13T12:56:15Z</time>
      </trkpt>
      <trkpt lat="42.026283" lon="0.761667">
        <ele>1336.0</ele>
        <time>2013-09-13T12:56:16Z</time>
      </trkpt>
      <trkpt lat="42.026233" lon="0.761750">
        <ele>1339.0</ele>
        <time>2013-09-13T12:56:17Z</time>
      </trkpt>
      <trkpt lat="42.026167" lon="0.761800">
        <ele>1342.0</ele>
        <time>2013-09-13T12:56:18Z</time>
      </trkpt>
      <trkpt lat="42.026083" lon="0.761850">
        <ele>1345.0</ele>
        <time>2013-09-13T12:56:19Z</time>
      </trkpt>
      <trkpt lat="42.026017" lon="0.761883">
        <ele>1348.0</ele>
        <time>2013-09-13T12:56:20Z</time>
      </trkpt>
      <trkpt lat="42.025967" lon="0.761900">
        <ele>1351.0</ele>
        <time>2013-09-13T12:56:21Z</time>
      </trkpt>
      <trkpt lat="42.025917" lon="0.761917">
        <ele>1354.0</ele>
        <time>2013-09-13T12:56:22Z</time>
      </trkpt>
      <trkpt lat="42.025867" lon="0.761900">
        <ele>1357.0</ele>
        <time>2013-09-13T12:56:23Z</time>
      </trkpt>
      <trkpt lat="42.025833" lon="0.761850">
        <ele>1359.0</ele>
        <time>2013-09-13T12:56:24Z</time>
      </trkpt>
      <trkpt lat="42.025817" lon="0.761767">
        <ele>1360.0</ele>
        <time>2013-09-13T12:56:25Z</time>
      </trkpt>
      <trkpt lat="42.025833" lon="0.761667">
        <ele>1362.0</ele>
        <time>2013-09-13T12:56:26Z</time>
      </trkpt>
      <trkpt lat="42.025867" lon="0.761583">
        <ele>1363.0</ele>
        <time>2013-09-13T12:56:27Z</time>
      </trkpt>
      <trkpt lat="42.025917" lon="0.761500">
        <ele>1364.0</ele>
        <time>2013-09-13T12:56:28Z</time>
      </trkpt>
      <trkpt lat="42.025967" lon="0.761433">
        <ele>1367.0</ele>
        <time>2013-09-13T12:56:29Z</time>
      </trkpt>
      <trkpt lat="42.026017" lon="0.761383">
        <ele>1369.0</ele>
        <time>2013-09-13T12:56:30Z</time>
      </trkpt>
      <trkpt lat="42.026100" lon="0.761350">
        <ele>1372.0</ele>
        <time>2013-09-13T12:56:31Z</time>
      </trkpt>
      <trkpt lat="42.026200" lon="0.761317">
        <ele>1370.0</ele>
        <time>2013-09-13T12:56:32Z</time>
      </trkpt>
      <trkpt lat="42.026300" lon="0.761300">
        <ele>1372.0</ele>
        <time>2013-09-13T12:56:33Z</time>
      </trkpt>
      <trkpt lat="42.026400" lon="0.761317">
        <ele>1374.0</ele>
        <time>2013-09-13T12:56:34Z</time>
      </trkpt>
      <trkpt lat="42.026483" lon="0.761350">
        <ele>1376.0</ele>
        <time>2013-09-13T12:56:35Z</time>
      </trkpt>
      <trkpt lat="42.026567" lon="0.761400">
        <ele>1379.0</ele>
        <time>2013-09-13T12:56:36Z</time>
      </trkpt>
      <trkpt lat="42.026650" lon="0.761450">
        <ele>1383.0</ele>
        <time>2013-09-13T12:56:37Z</time>
      </trkpt>
      <trkpt lat="42.026750" lon="0.761533">
        <ele>1388.0</ele>
        <time>2013-09-13T12:56:38Z</time>
      </trkpt>
      <trkpt lat="42.026817" lon="0.761617">
        <ele>1393.0</ele>
        <time>2013-09-13T12:56:39Z</time>
      </trkpt>
      <trkpt lat="42.026883" lon="0.761700">
        <ele>1397.0</ele>
        <time>2013-09-13T12:56:40Z</time>
      </trkpt>
      <trkpt lat="42.026933" lon="0.761783">
        <ele>1401.0</ele>
        <time>2013-09-13T12:56:41Z</time>
      </trkpt>
      <trkpt lat="42.026967" lon="0.761900">
        <ele>1405.0</ele>
        <time>2013-09-13T12:56:42Z</time>
      </trkpt>
      <trkpt lat="42.026983" lon="0.762017">
        <ele>1408.0</ele>
        <time>2013-09-13T12:56:43Z</time>
      </trkpt>
      <trkpt lat="42.027017" lon="0.762150">
        <ele>1410.0</ele>
        <time>2013-09-13T12:56:44Z</time>
      </trkpt>
      <trkpt lat="42.027033" lon="0.762283">
        <ele>1411.0</ele>
        <time>2013-09-13T12:56:45Z</time>
      </trkpt>
      <trkpt lat="42.027050" lon="0.762433">
        <ele>1413.0</ele>
        <time>2013-09-13T12:56:46Z</time>
      </trkpt>
      <trkpt lat="42.027050" lon="0.762583">
        <ele>1415.0</ele>
        <time>2013-09-13T12:56:47Z</time>
      </trkpt>
      <trkpt lat="42.027050" lon="0.762750">
        <ele>1418.0</ele>
        <time>2013-09-13T12:56:48Z</time>
      </trkpt>
      <trkpt lat="42.027033" lon="0.762900">
        <ele>1421.0</ele>
        <time>2013-09-13T12:56:49Z</time>
      </trkpt>
      <trkpt lat="42.027017" lon="0.763033">
        <ele>1424.0</ele>
        <time>2013-09-13T12:56:50Z</time>
      </trkpt>
      <trkpt lat="42.026983" lon="0.763167">
        <ele>1427.0</ele>
        <time>2013-09-13T12:56:51Z</time>
      </trkpt>
      <trkpt lat="42.026933" lon="0.763283">
        <ele>1429.0</ele>
        <time>2013-09-13T12:56:52Z</time>
      </trkpt>
      <trkpt lat="42.026867" lon="0.763400">
        <ele>1432.0</ele>
        <time>2013-09-13T12:56:53Z</time>
      </trkpt>
      <trkpt lat="42.026817" lon="0.763517">
        <ele>1435.0</ele>
        <time>2013-09-13T12:56:54Z</time>
      </trkpt>
      <trkpt lat="42.026767" lon="0.763600">
        <ele>1438.0</ele>
        <time>2013-09-13T12:56:55Z</time>
      </trkpt>
      <trkpt lat="42.026700" lon="0.763650">
        <ele>1442.0</ele>
        <time>2013-09-13T12:56:56Z</time>
      </trkpt>
      <trkpt lat="42.026633" lon="0.763683">
        <ele>1444.0</ele>
        <time>2013-09-13T12:56:57Z</time>
      </trkpt>
      <trkpt lat="42.026583" lon="0.763683">
        <ele>1445.0</ele>
        <time>2013-09-13T12:56:58Z</time>
      </trkpt>
      <trkpt lat="42.026517" lon="0.763683">
        <ele>1446.0</ele>
        <time>2013-09-13T12:56:59Z</time>
      </trkpt>
      <trkpt lat="42.026450" lon="0.763650">
        <ele>1448.0</ele>
        <time>2013-09-13T12:57:00Z</time>
      </trkpt>
      <trkpt lat="42.026417" lon="0.763600">
        <ele>1449.0</ele>
        <time>2013-09-13T12:57:01Z</time>
      </trkpt>
      <trkpt lat="42.026400" lon="0.763533">
        <ele>1452.0</ele>
        <time>2013-09-13T12:57:02Z</time>
      </trkpt>
      <trkpt lat="42.026400" lon="0.763483">
        <ele>1454.0</ele>
        <time>2013-09-13T12:57:03Z</time>
      </trkpt>
      <trkpt lat="42.026400" lon="0.763417">
        <ele>1456.0</ele>
        <time>2013-09-13T12:57:04Z</time>
      </trkpt>
      <trkpt lat="42.026417" lon="0.763350">
        <ele>1458.0</ele>
        <time>2013-09-13T12:57:05Z</time>
      </trkpt>
      <trkpt lat="42.026433" lon="0.763283">
        <ele>1459.0</ele>
        <time>2013-09-13T12:57:06Z</time>
      </trkpt>
      <trkpt lat="42.026483" lon="0.763200">
        <ele>1460.0</ele>
        <time>2013-09-13T12:57:07Z</time>
      </trkpt>
      <trkpt lat="42.026533" lon="0.763133">
        <ele>1461.0</ele>
        <time>2013-09-13T12:57:08Z</time>
      </trkpt>
      <trkpt lat="42.026617" lon="0.763067">
        <ele>1462.0</ele>
        <time>2013-09-13T12:57:09Z</time>
      </trkpt>
      <trkpt lat="42.026717" lon="0.763033">
        <ele>1464.0</ele>
        <time>2013-09-13T12:57:10Z</time>
      </trkpt>
      <trkpt lat="42.026817" lon="0.763033">
        <ele>1466.0</ele>
        <time>2013-09-13T12:57:11Z</time>
      </trkpt>
      <trkpt lat="42.026917" lon="0.763050">
        <ele>1468.0</ele>
        <time>2013-09-13T12:57:12Z</time>
      </trkpt>
      <trkpt lat="42.027017" lon="0.763083">
        <ele>1470.0</ele>
        <time>2013-09-13T12:57:13Z</time>
      </trkpt>
      <trkpt lat="42.027117" lon="0.763150">
        <ele>1473.0</ele>
        <time>2013-09-13T12:57:14Z</time>
      </trkpt>
      <trkpt lat="42.027183" lon="0.763233">
        <ele>1476.0</ele>
        <time>2013-09-13T12:57:15Z</time>
      </trkpt>
      <trkpt lat="42.027250" lon="0.763333">
        <ele>1479.0</ele>
        <time>2013-09-13T12:57:16Z</time>
      </trkpt>
      <trkpt lat="42.027317" lon="0.763433">
        <ele>1483.0</ele>
        <time>2013-09-13T12:57:17Z</time>
      </trkpt>
      <trkpt lat="42.027383" lon="0.763550">
        <ele>1485.0</ele>
        <time>2013-09-13T12:57:18Z</time>
      </trkpt>
      <trkpt lat="42.027450" lon="0.763700">
        <ele>1488.0</ele>
        <time>2013-09-13T12:57:19Z</time>
      </trkpt>
      <trkpt lat="42.027500" lon="0.763817">
        <ele>1491.0</ele>
        <time>2013-09-13T12:57:20Z</time>
      </trkpt>
      <trkpt lat="42.027550" lon="0.763933">
        <ele>1495.0</ele>
        <time>2013-09-13T12:57:21Z</time>
      </trkpt>
      <trkpt lat="42.027583" lon="0.764050">
        <ele>1498.0</ele>
        <time>2013-09-13T12:57:22Z</time>
      </trkpt>
      <trkpt lat="42.027617" lon="0.764167">
        <ele>1502.0</ele>
        <time>2013-09-13T12:57:23Z</time>
      </trkpt>
      <trkpt lat="42.027617" lon="0.764317">
        <ele>1503.0</ele>
        <time>2013-09-13T12:57:24Z</time>
      </trkpt>
      <trkpt lat="42.027633" lon="0.764467">
        <ele>1504.0</ele>
        <time>2013-09-13T12:57:25Z</time>
      </trkpt>
      <trkpt lat="42.027633" lon="0.764600">
        <ele>1507.0</ele>
        <time>2013-09-13T12:57:26Z</time>
      </trkpt>
      <trkpt lat="42.027633" lon="0.764733">
        <ele>1510.0</ele>
        <time>2013-09-13T12:57:27Z</time>
      </trkpt>
      <trkpt lat="42.027617" lon="0.764850">
        <ele>1513.0</ele>
        <time>2013-09-13T12:57:28Z</time>
      </trkpt>
      <trkpt lat="42.027583" lon="0.764967">
        <ele>1515.0</ele>
        <time>2013-09-13T12:57:29Z</time>
      </trkpt>
      <trkpt lat="42.027533" lon="0.765067">
        <ele>1517.0</ele>
        <time>2013-09-13T12:57:30Z</time>
      </trkpt>
      <trkpt lat="42.027467" lon="0.765133">
        <ele>1519.0</ele>
        <time>2013-09-13T12:57:31Z</time>
      </trkpt>
      <trkpt lat="42.027400" lon="0.765183">
        <ele>1520.0</ele>
        <time>2013-09-13T12:57:32Z</time>
      </trkpt>
      <trkpt lat="42.027333" lon="0.765200">
        <ele>1522.0</ele>
        <time>2013-09-13T12:57:33Z</time>
      </trkpt>
      <trkpt lat="42.027283" lon="0.765200">
        <ele>1525.0</ele>
        <time>2013-09-13T12:57:34Z</time>
      </trkpt>
      <trkpt lat="42.027233" lon="0.765183">
        <ele>1526.0</ele>
        <time>2013-09-13T12:57:35Z</time>
      </trkpt>
      <trkpt lat="42.027183" lon="0.765133">
        <ele>1528.0</ele>
        <time>2013-09-13T12:57:36Z</time>
      </trkpt>
      <trkpt lat="42.027150" lon="0.765067">
        <ele>1529.0</ele>
        <time>2013-09-13T12:57:37Z</time>
      </trkpt>
      <trkpt lat="42.027133" lon="0.765000">
        <ele>1531.0</ele>
        <time>2013-09-13T12:57:38Z</time>
      </trkpt>
      <trkpt lat="42.027150" lon="0.764917">
        <ele>1532.0</ele>
        <time>2013-09-13T12:57:39Z</time>
      </trkpt>
      <trkpt lat="42.027167" lon="0.764833">
        <ele>1533.0</ele>
        <time>2013-09-13T12:57:40Z</time>
      </trkpt>
      <trkpt lat="42.027217" lon="0.764750">
        <ele>1535.0</ele>
        <time>2013-09-13T12:57:41Z</time>
      </trkpt>
      <trkpt lat="42.027267" lon="0.764700">
        <ele>1537.0</ele>
        <time>2013-09-13T12:57:42Z</time>
      </trkpt>
      <trkpt lat="42.027317" lon="0.764667">
        <ele>1541.0</ele>
        <time>2013-09-13T12:57:43Z</time>
      </trkpt>
      <trkpt lat="42.027400" lon="0.764667">
        <ele>1544.0</ele>
        <time>2013-09-13T12:57:44Z</time>
      </trkpt>
      <trkpt lat="42.027467" lon="0.764633">
        <ele>1542.0</ele>
        <time>2013-09-13T12:57:45Z</time>
      </trkpt>
      <trkpt lat="42.027567" lon="0.764617">
        <ele>1544.0</ele>
        <time>2013-09-13T12:57:46Z</time>
      </trkpt>
      <trkpt lat="42.027667" lon="0.764617">
        <ele>1546.0</ele>
        <time>2013-09-13T12:57:47Z</time>
      </trkpt>
      <trkpt lat="42.027767" lon="0.764650">
        <ele>1548.0</ele>
        <time>2013-09-13T12:57:48Z</time>
      </trkpt>
      <trkpt lat="42.027850" lon="0.764717">
        <ele>1552.0</ele>
        <time>2013-09-13T12:57:49Z</time>
      </trkpt>
      <trkpt lat="42.027933" lon="0.764800">
        <ele>1556.0</ele>
        <time>2013-09-13T12:57:50Z</time>
      </trkpt>
      <trkpt lat="42.028000" lon="0.764900">
        <ele>1560.0</ele>
        <time>2013-09-13T12:57:51Z</time>
      </trkpt>
      <trkpt lat="42.028050" lon="0.765017">
        <ele>1562.0</ele>
        <time>2013-09-13T12:57:52Z</time>
      </trkpt>
      <trkpt lat="42.028117" lon="0.765150">
        <ele>1565.0</ele>
        <time>2013-09-13T12:57:53Z</time>
      </trkpt>
      <trkpt lat="42.028167" lon="0.765283">
        <ele>1568.0</ele>
        <time>2013-09-13T12:57:54Z</time>
      </trkpt>
      <trkpt lat="42.028200" lon="0.765417">
        <ele>1571.0</ele>
        <time>2013-09-13T12:57:55Z</time>
      </trkpt>
      <trkpt lat="42.028217" lon="0.765550">
        <ele>1575.0</ele>
        <time>2013-09-13T12:57:56Z</time>
      </trkpt>
      <trkpt lat="42.028183" lon="0.765817">
        <ele>1581.0</ele>
        <time>2013-09-13T12:57:58Z</time>
      </trkpt>
      <trkpt lat="42.028150" lon="0.765950">
        <ele>1584.0</ele>
        <time>2013-09-13T12:57:59Z</time>
      </trkpt>
      <trkpt lat="42.028100" lon="0.766050">
        <ele>1588.0</ele>
        <time>2013-09-13T12:58:00Z</time>
      </trkpt>
      <trkpt lat="42.028050" lon="0.766133">
        <ele>1591.0</ele>
        <time>2013-09-13T12:58:01Z</time>
      </trkpt>
      <trkpt lat="42.028000" lon="0.766183">
        <ele>1593.0</ele>
        <time>2013-09-13T12:58:02Z</time>
      </trkpt>
      <trkpt lat="42.027933" lon="0.766217">
        <ele>1595.0</ele>
        <time>2013-09-13T12:58:03Z</time>
      </trkpt>
      <trkpt lat="42.027867" lon="0.766217">
        <ele>1597.0</ele>
        <time>2013-09-13T12:58:04Z</time>
      </trkpt>
      <trkpt lat="42.027817" lon="0.766200">
        <ele>1598.0</ele>
        <time>2013-09-13T12:58:05Z</time>
      </trkpt>
      <trkpt lat="42.027733" lon="0.766100">
        <ele>1601.0</ele>
        <time>2013-09-13T12:58:07Z</time>
      </trkpt>
      <trkpt lat="42.027733" lon="0.766050">
        <ele>1604.0</ele>
        <time>2013-09-13T12:58:08Z</time>
      </trkpt>
      <trkpt lat="42.027750" lon="0.765983">
        <ele>1606.0</ele>
        <time>2013-09-13T12:58:09Z</time>
      </trkpt>
      <trkpt lat="42.027767" lon="0.765933">
        <ele>1609.0</ele>
        <time>2013-09-13T12:58:10Z</time>
      </trkpt>
      <trkpt lat="42.027817" lon="0.765883">
        <ele>1612.0</ele>
        <time>2013-09-13T12:58:11Z</time>
      </trkpt>
      <trkpt lat="42.027867" lon="0.765850">
        <ele>1614.0</ele>
        <time>2013-09-13T12:58:12Z</time>
      </trkpt>
      <trkpt lat="42.027950" lon="0.765817">
        <ele>1616.0</ele>
        <time>2013-09-13T12:58:13Z</time>
      </trkpt>
      <trkpt lat="42.028033" lon="0.765800">
        <ele>1618.0</ele>
        <time>2013-09-13T12:58:14Z</time>
      </trkpt>
      <trkpt lat="42.028117" lon="0.765817">
        <ele>1622.0</ele>
        <time>2013-09-13T12:58:15Z</time>
      </trkpt>
      <trkpt lat="42.028200" lon="0.765867">
        <ele>1626.0</ele>
        <time>2013-09-13T12:58:16Z</time>
      </trkpt>
      <trkpt lat="42.028283" lon="0.765933">
        <ele>1630.0</ele>
        <time>2013-09-13T12:58:17Z</time>
      </trkpt>
      <trkpt lat="42.028350" lon="0.766017">
        <ele>1633.0</ele>
        <time>2013-09-13T12:58:18Z</time>
      </trkpt>
      <trkpt lat="42.028417" lon="0.766100">
        <ele>1635.0</ele>
        <time>2013-09-13T12:58:19Z</time>
      </trkpt>
      <trkpt lat="42.028550" lon="0.766300">
        <ele>1640.0</ele>
        <time>2013-09-13T12:58:21Z</time>
      </trkpt>
      <trkpt lat="42.028600" lon="0.766400">
        <ele>1642.0</ele>
        <time>2013-09-13T12:58:22Z</time>
      </trkpt>
      <trkpt lat="42.028633" lon="0.766533">
        <ele>1642.0</ele>
        <time>2013-09-13T12:58:23Z</time>
      </trkpt>
      <trkpt lat="42.028667" lon="0.766667">
        <ele>1642.0</ele>
        <time>2013-09-13T12:58:24Z</time>
      </trkpt>
      <trkpt lat="42.028700" lon="0.766983">
        <ele>1644.0</ele>
        <time>2013-09-13T12:58:26Z</time>
      </trkpt>
      <trkpt lat="42.028700" lon="0.767133">
        <ele>1646.0</ele>
        <time>2013-09-13T12:58:27Z</time>
      </trkpt>
      <trkpt lat="42.028650" lon="0.767400">
        <ele>1652.0</ele>
        <time>2013-09-13T12:58:29Z</time>
      </trkpt>
      <trkpt lat="42.028617" lon="0.767517">
        <ele>1654.0</ele>
        <time>2013-09-13T12:58:30Z</time>
      </trkpt>
      <trkpt lat="42.028583" lon="0.767633">
        <ele>1656.0</ele>
        <time>2013-09-13T12:58:31Z</time>
      </trkpt>
      <trkpt lat="42.028550" lon="0.767750">
        <ele>1658.0</ele>
        <time>2013-09-13T12:58:32Z</time>
      </trkpt>
      <trkpt lat="42.028483" lon="0.767867">
        <ele>1658.0</ele>
        <time>2013-09-13T12:58:33Z</time>
      </trkpt>
      <trkpt lat="42.028433" lon="0.767967">
        <ele>1659.0</ele>
        <time>2013-09-13T12:58:34Z</time>
      </trkpt>
      <trkpt lat="42.028367" lon="0.768067">
        <ele>1661.0</ele>
        <time>2013-09-13T12:58:35Z</time>
      </trkpt>
      <trkpt lat="42.028317" lon="0.768150">
        <ele>1663.0</ele>
        <time>2013-09-13T12:58:36Z</time>
      </trkpt>
      <trkpt lat="42.028250" lon="0.768217">
        <ele>1664.0</ele>
        <time>2013-09-13T12:58:37Z</time>
      </trkpt>
      <trkpt lat="42.028183" lon="0.768250">
        <ele>1665.0</ele>
        <time>2013-09-13T12:58:38Z</time>
      </trkpt>
      <trkpt lat="42.028100" lon="0.768267">
        <ele>1664.0</ele>
        <time>2013-09-13T12:58:39Z</time>
      </trkpt>
      <trkpt lat="42.028033" lon="0.768250">
        <ele>1664.0</ele>
        <time>2013-09-13T12:58:40Z</time>
      </trkpt>
      <trkpt lat="42.027967" lon="0.768233">
        <ele>1664.0</ele>
        <time>2013-09-13T12:58:41Z</time>
      </trkpt>
      <trkpt lat="42.027917" lon="0.768200">
        <ele>1664.0</ele>
        <time>2013-09-13T12:58:42Z</time>
      </trkpt>
      <trkpt lat="42.027867" lon="0.768167">
        <ele>1664.0</ele>
        <time>2013-09-13T12:58:43Z</time>
      </trkpt>
      <trkpt lat="42.027833" lon="0.768117">
        <ele>1665.0</ele>
        <time>2013-09-13T12:58:44Z</time>
      </trkpt>
      <trkpt lat="42.027783" lon="0.768067">
        <ele>1666.0</ele>
        <time>2013-09-13T12:58:45Z</time>
      </trkpt>
      <trkpt lat="42.027750" lon="0.768017">
        <ele>1667.0</ele>
        <time>2013-09-13T12:58:46Z</time>
      </trkpt>
      <trkpt lat="42.027717" lon="0.767967">
        <ele>1667.0</ele>
        <time>2013-09-13T12:58:47Z</time>
      </trkpt>
      <trkpt lat="42.027700" lon="0.767917">
        <ele>1668.0</ele>
        <time>2013-09-13T12:58:48Z</time>
      </trkpt>
      <trkpt lat="42.027683" lon="0.767833">
        <ele>1667.0</ele>
        <time>2013-09-13T12:58:49Z</time>
      </trkpt>
      <trkpt lat="42.027700" lon="0.767750">
        <ele>1667.0</ele>
        <time>2013-09-13T12:58:50Z</time>
      </trkpt>
      <trkpt lat="42.027717" lon="0.767650">
        <ele>1666.0</ele>
        <time>2013-09-13T12:58:51Z</time>
      </trkpt>
      <trkpt lat="42.027733" lon="0.767567">
        <ele>1666.0</ele>
        <time>2013-09-13T12:58:52Z</time>
      </trkpt>
      <trkpt lat="42.027750" lon="0.767483">
        <ele>1665.0</ele>
        <time>2013-09-13T12:58:53Z</time>
      </trkpt>
      <trkpt lat="42.027767" lon="0.767400">
        <ele>1664.0</ele>
        <time>2013-09-13T12:58:54Z</time>
      </trkpt>
      <trkpt lat="42.027783" lon="0.767300">
        <ele>1663.0</ele>
        <time>2013-09-13T12:58:55Z</time>
      </trkpt>
      <trkpt lat="42.027817" lon="0.767200">
        <ele>1661.0</ele>
        <time>2013-09-13T12:58:56Z</time>
      </trkpt>
      <trkpt lat="42.027867" lon="0.767100">
        <ele>1660.0</ele>
        <time>2013-09-13T12:58:57Z</time>
      </trkpt>
      <trkpt lat="42.027933" lon="0.767017">
        <ele>1660.0</ele>
        <time>2013-09-13T12:58:58Z</time>
      </trkpt>
      <trkpt lat="42.027983" lon="0.766933">
        <ele>1660.0</ele>
        <time>2013-09-13T12:58:59Z</time>
      </trkpt>
      <trkpt lat="42.028050" lon="0.766867">
        <ele>1661.0</ele>
        <time>2013-09-13T12:59:00Z</time>
      </trkpt>
      <trkpt lat="42.028100" lon="0.766783">
        <ele>1661.0</ele>
        <time>2013-09-13T12:59:01Z</time>
      </trkpt>
      <trkpt lat="42.028150" lon="0.766717">
        <ele>1661.0</ele>
        <time>2013-09-13T12:59:02Z</time>
      </trkpt>
      <trkpt lat="42.028183" lon="0.766633">
        <ele>1661.0</ele>
        <time>2013-09-13T12:59:03Z</time>
      </trkpt>
      <trkpt lat="42.028233" lon="0.766567">
        <ele>1661.0</ele>
        <time>2013-09-13T12:59:04Z</time>
      </trkpt>
      <trkpt lat="42.028267" lon="0.766483">
        <ele>1662.0</ele>
        <time>2013-09-13T12:59:05Z</time>
      </trkpt>
      <trkpt lat="42.028283" lon="0.766400">
        <ele>1662.0</ele>
        <time>2013-09-13T12:59:06Z</time>
      </trkpt>
      <trkpt lat="42.028300" lon="0.766317">
        <ele>1663.0</ele>
        <time>2013-09-13T12:59:07Z</time>
      </trkpt>
      <trkpt lat="42.028300" lon="0.766250">
        <ele>1664.0</ele>
        <time>2013-09-13T12:59:08Z</time>
      </trkpt>
      <trkpt lat="42.028300" lon="0.766200">
        <ele>1666.0</ele>
        <time>2013-09-13T12:59:09Z</time>
      </trkpt>
      <trkpt lat="42.028283" lon="0.766150">
        <ele>1668.0</ele>
        <time>2013-09-13T12:59:10Z</time>
      </trkpt>
      <trkpt lat="42.028267" lon="0.766067">
        <ele>1669.0</ele>
        <time>2013-09-13T12:59:11Z</time>
      </trkpt>
      <trkpt lat="42.028250" lon="0.766000">
        <ele>1671.0</ele>
        <time>2013-09-13T12:59:12Z</time>
      </trkpt>
      <trkpt lat="42.028233" lon="0.765917">
        <ele>1672.0</ele>
        <time>2013-09-13T12:59:13Z</time>
      </trkpt>
      <trkpt lat="42.028217" lon="0.765850">
        <ele>1674.0</ele>
        <time>2013-09-13T12:59:14Z</time>
      </trkpt>
      <trkpt lat="42.028217" lon="0.765800">
        <ele>1677.0</ele>
        <time>2013-09-13T12:59:15Z</time>
      </trkpt>
      <trkpt lat="42.028233" lon="0.765767">
        <ele>1681.0</ele>
        <time>2013-09-13T12:59:16Z</time>
      </trkpt>
      <trkpt lat="42.028233" lon="0.765733">
        <ele>1684.0</ele>
        <time>2013-09-13T12:59:17Z</time>
      </trkpt>
      <trkpt lat="42.028233" lon="0.765683">
        <ele>1686.0</ele>
        <time>2013-09-13T12:59:18Z</time>
      </trkpt>
      <trkpt lat="42.028233" lon="0.765617">
        <ele>1688.0</ele>
        <time>2013-09-13T12:59:19Z</time>
      </trkpt>
      <trkpt lat="42.028233" lon="0.765533">
        <ele>1689.0</ele>
        <time>2013-09-13T12:59:20Z</time>
      </trkpt>
      <trkpt lat="42.028250" lon="0.765450">
        <ele>1691.0</ele>
        <time>2013-09-13T12:59:21Z</time>
      </trkpt>
      <trkpt lat="42.028267" lon="0.765383">
        <ele>1695.0</ele>
        <time>2013-09-13T12:59:22Z</time>
      </trkpt>
      <trkpt lat="42.028317" lon="0.765333">
        <ele>1699.0</ele>
        <time>2013-09-13T12:59:23Z</time>
      </trkpt>
      <trkpt lat="42.028367" lon="0.765283">
        <ele>1703.0</ele>
        <time>2013-09-13T12:59:24Z</time>
      </trkpt>
      <trkpt lat="42.028433" lon="0.765250">
        <ele>1706.0</ele>
        <time>2013-09-13T12:59:25Z</time>
      </trkpt>
      <trkpt lat="42.028517" lon="0.765233">
        <ele>1709.0</ele>
        <time>2013-09-13T12:59:26Z</time>
      </trkpt>
      <trkpt lat="42.028617" lon="0.765233">
        <ele>1713.0</ele>
        <time>2013-09-13T12:59:27Z</time>
      </trkpt>
      <trkpt lat="42.028700" lon="0.765233">
        <ele>1717.0</ele>
        <time>2013-09-13T12:59:28Z</time>
      </trkpt>
      <trkpt lat="42.028800" lon="0.765283">
        <ele>1721.0</ele>
        <time>2013-09-13T12:59:29Z</time>
      </trkpt>
      <trkpt lat="42.028883" lon="0.765350">
        <ele>1724.0</ele>
        <time>2013-09-13T12:59:30Z</time>
      </trkpt>
      <trkpt lat="42.028967" lon="0.765433">
        <ele>1728.0</ele>
        <time>2013-09-13T12:59:31Z</time>
      </trkpt>
      <trkpt lat="42.029050" lon="0.765550">
        <ele>1732.0</ele>
        <time>2013-09-13T12:59:32Z</time>
      </trkpt>
      <trkpt lat="42.029117" lon="0.765683">
        <ele>1736.0</ele>
        <time>2013-09-13T12:59:33Z</time>
      </trkpt>
      <trkpt lat="42.029183" lon="0.765817">
        <ele>1740.0</ele>
        <time>2013-09-13T12:59:34Z</time>
      </trkpt>
      <trkpt lat="42.029250" lon="0.765950">
        <ele>1744.0</ele>
        <time>2013-09-13T12:59:35Z</time>
      </trkpt>
      <trkpt lat="42.029283" lon="0.766117">
        <ele>1748.0</ele>
        <time>2013-09-13T12:59:36Z</time>
      </trkpt>
      <trkpt lat="42.029317" lon="0.766267">
        <ele>1752.0</ele>
        <time>2013-09-13T12:59:37Z</time>
      </trkpt>
      <trkpt lat="42.029350" lon="0.766400">
        <ele>1756.0</ele>
        <time>2013-09-13T12:59:38Z</time>
      </trkpt>
      <trkpt lat="42.029367" lon="0.766533">
        <ele>1760.0</ele>
        <time>2013-09-13T12:59:39Z</time>
      </trkpt>
      <trkpt lat="42.029367" lon="0.766683">
        <ele>1763.0</ele>
        <time>2013-09-13T12:59:40Z</time>
      </trkpt>
      <trkpt lat="42.029333" lon="0.766833">
        <ele>1765.0</ele>
        <time>2013-09-13T12:59:41Z</time>
      </trkpt>
      <trkpt lat="42.029283" lon="0.767000">
        <ele>1766.0</ele>
        <time>2013-09-13T12:59:42Z</time>
      </trkpt>
      <trkpt lat="42.029217" lon="0.767117">
        <ele>1769.0</ele>
        <time>2013-09-13T12:59:43Z</time>
      </trkpt>
      <trkpt lat="42.029150" lon="0.767217">
        <ele>1772.0</ele>
        <time>2013-09-13T12:59:44Z</time>
      </trkpt>
      <trkpt lat="42.029083" lon="0.767283">
        <ele>1776.0</ele>
        <time>2013-09-13T12:59:45Z</time>
      </trkpt>
      <trkpt lat="42.029017" lon="0.767333">
        <ele>1780.0</ele>
        <time>2013-09-13T12:59:46Z</time>
      </trkpt>
      <trkpt lat="42.028950" lon="0.767367">
        <ele>1783.0</ele>
        <time>2013-09-13T12:59:47Z</time>
      </trkpt>
      <trkpt lat="42.028883" lon="0.767367">
        <ele>1786.0</ele>
        <time>2013-09-13T12:59:48Z</time>
      </trkpt>
      <trkpt lat="42.028817" lon="0.767367">
        <ele>1788.0</ele>
        <time>2013-09-13T12:59:49Z</time>
      </trkpt>
      <trkpt lat="42.028750" lon="0.767333">
        <ele>1792.0</ele>
        <time>2013-09-13T12:59:50Z</time>
      </trkpt>
      <trkpt lat="42.028717" lon="0.767300">
        <ele>1796.0</ele>
        <time>2013-09-13T12:59:51Z</time>
      </trkpt>
      <trkpt lat="42.028700" lon="0.767250">
        <ele>1799.0</ele>
        <time>2013-09-13T12:59:52Z</time>
      </trkpt>
      <trkpt lat="42.028700" lon="0.767117">
        <ele>1804.0</ele>
        <time>2013-09-13T12:59:54Z</time>
      </trkpt>
      <trkpt lat="42.028733" lon="0.767050">
        <ele>1806.0</ele>
        <time>2013-09-13T12:59:55Z</time>
      </trkpt>
      <trkpt lat="42.028800" lon="0.766983">
        <ele>1808.0</ele>
        <time>2013-09-13T12:59:56Z</time>
      </trkpt>
      <trkpt lat="42.028867" lon="0.766933">
        <ele>1811.0</ele>
        <time>2013-09-13T12:59:57Z</time>
      </trkpt>
      <trkpt lat="42.028917" lon="0.766883">
        <ele>1815.0</ele>
        <time>2013-09-13T12:59:58Z</time>
      </trkpt>
      <trkpt lat="42.028967" lon="0.766833">
        <ele>1819.0</ele>
        <time>2013-09-13T12:59:59Z</time>
      </trkpt>
      <trkpt lat="42.029017" lon="0.766767">
        <ele>1822.0</ele>
        <time>2013-09-13T13:00:00Z</time>
      </trkpt>
      <trkpt lat="42.029050" lon="0.766717">
        <ele>1825.0</ele>
        <time>2013-09-13T13:00:01Z</time>
      </trkpt>
      <trkpt lat="42.029117" lon="0.766650">
        <ele>1827.0</ele>
        <time>2013-09-13T13:00:02Z</time>
      </trkpt>
      <trkpt lat="42.029200" lon="0.766600">
        <ele>1830.0</ele>
        <time>2013-09-13T13:00:03Z</time>
      </trkpt>
      <trkpt lat="42.029300" lon="0.766583">
        <ele>1833.0</ele>
        <time>2013-09-13T13:00:04Z</time>
      </trkpt>
      <trkpt lat="42.029383" lon="0.766600">
        <ele>1837.0</ele>
        <time>2013-09-13T13:00:05Z</time>
      </trkpt>
      <trkpt lat="42.029450" lon="0.766633">
        <ele>1842.0</ele>
        <time>2013-09-13T13:00:06Z</time>
      </trkpt>
      <trkpt lat="42.029517" lon="0.766700">
        <ele>1846.0</ele>
        <time>2013-09-13T13:00:07Z</time>
      </trkpt>
      <trkpt lat="42.029600" lon="0.766767">
        <ele>1849.0</ele>
        <time>2013-09-13T13:00:08Z</time>
      </trkpt>
      <trkpt lat="42.029683" lon="0.766850">
        <ele>1852.0</ele>
        <time>2013-09-13T13:00:09Z</time>
      </trkpt>
      <trkpt lat="42.029800" lon="0.766950">
        <ele>1855.0</ele>
        <time>2013-09-13T13:00:10Z</time>
      </trkpt>
      <trkpt lat="42.029883" lon="0.767067">
        <ele>1859.0</ele>
        <time>2013-09-13T13:00:11Z</time>
      </trkpt>
      <trkpt lat="42.029950" lon="0.767183">
        <ele>1864.0</ele>
        <time>2013-09-13T13:00:12Z</time>
      </trkpt>
      <trkpt lat="42.029983" lon="0.767300">
        <ele>1868.0</ele>
        <time>2013-09-13T13:00:13Z</time>
      </trkpt>
      <trkpt lat="42.030017" lon="0.767433">
        <ele>1871.0</ele>
        <time>2013-09-13T13:00:14Z</time>
      </trkpt>
      <trkpt lat="42.030050" lon="0.767583">
        <ele>1873.0</ele>
        <time>2013-09-13T13:00:15Z</time>
      </trkpt>
      <trkpt lat="42.030083" lon="0.767733">
        <ele>1875.0</ele>
        <time>2013-09-13T13:00:16Z</time>
      </trkpt>
      <trkpt lat="42.030100" lon="0.767900">
        <ele>1877.0</ele>
        <time>2013-09-13T13:00:17Z</time>
      </trkpt>
      <trkpt lat="42.030083" lon="0.768050">
        <ele>1877.0</ele>
        <time>2013-09-13T13:00:18Z</time>
      </trkpt>
      <trkpt lat="42.030067" lon="0.768200">
        <ele>1876.0</ele>
        <time>2013-09-13T13:00:19Z</time>
      </trkpt>
      <trkpt lat="42.030017" lon="0.768333">
        <ele>1876.0</ele>
        <time>2013-09-13T13:00:20Z</time>
      </trkpt>
      <trkpt lat="42.029967" lon="0.768483">
        <ele>1877.0</ele>
        <time>2013-09-13T13:00:21Z</time>
      </trkpt>
      <trkpt lat="42.029933" lon="0.768617">
        <ele>1878.0</ele>
        <time>2013-09-13T13:00:22Z</time>
      </trkpt>
      <trkpt lat="42.029883" lon="0.768750">
        <ele>1880.0</ele>
        <time>2013-09-13T13:00:23Z</time>
      </trkpt>
      <trkpt lat="42.029833" lon="0.768867">
        <ele>1882.0</ele>
        <time>2013-09-13T13:00:24Z</time>
      </trkpt>
      <trkpt lat="42.029783" lon="0.768983">
        <ele>1885.0</ele>
        <time>2013-09-13T13:00:25Z</time>
      </trkpt>
      <trkpt lat="42.029733" lon="0.769100">
        <ele>1887.0</ele>
        <time>2013-09-13T13:00:26Z</time>
      </trkpt>
      <trkpt lat="42.029667" lon="0.769200">
        <ele>1889.0</ele>
        <time>2013-09-13T13:00:27Z</time>
      </trkpt>
      <trkpt lat="42.029617" lon="0.769317">
        <ele>1891.0</ele>
        <time>2013-09-13T13:00:28Z</time>
      </trkpt>
      <trkpt lat="42.029567" lon="0.769417">
        <ele>1893.0</ele>
        <time>2013-09-13T13:00:29Z</time>
      </trkpt>
      <trkpt lat="42.029517" lon="0.769533">
        <ele>1894.0</ele>
        <time>2013-09-13T13:00:30Z</time>
      </trkpt>
      <trkpt lat="42.029433" lon="0.769633">
        <ele>1895.0</ele>
        <time>2013-09-13T13:00:31Z</time>
      </trkpt>
      <trkpt lat="42.029350" lon="0.769717">
        <ele>1895.0</ele>
        <time>2013-09-13T13:00:32Z</time>
      </trkpt>
      <trkpt lat="42.029283" lon="0.769767">
        <ele>1897.0</ele>
        <time>2013-09-13T13:00:33Z</time>
      </trkpt>
      <trkpt lat="42.029200" lon="0.769783">
        <ele>1899.0</ele>
        <time>2013-09-13T13:00:34Z</time>
      </trkpt>
      <trkpt lat="42.029150" lon="0.769783">
        <ele>1901.0</ele>
        <time>2013-09-13T13:00:35Z</time>
      </trkpt>
      <trkpt lat="42.029100" lon="0.769767">
        <ele>1902.0</ele>
        <time>2013-09-13T13:00:36Z</time>
      </trkpt>
      <trkpt lat="42.029050" lon="0.769733">
        <ele>1902.0</ele>
        <time>2013-09-13T13:00:37Z</time>
      </trkpt>
      <trkpt lat="42.029000" lon="0.769683">
        <ele>1903.0</ele>
        <time>2013-09-13T13:00:38Z</time>
      </trkpt>
      <trkpt lat="42.028950" lon="0.769617">
        <ele>1904.0</ele>
        <time>2013-09-13T13:00:39Z</time>
      </trkpt>
      <trkpt lat="42.028917" lon="0.769550">
        <ele>1905.0</ele>
        <time>2013-09-13T13:00:40Z</time>
      </trkpt>
      <trkpt lat="42.028883" lon="0.769483">
        <ele>1908.0</ele>
        <time>2013-09-13T13:00:41Z</time>
      </trkpt>
      <trkpt lat="42.028867" lon="0.769417">
        <ele>1909.0</ele>
        <time>2013-09-13T13:00:42Z</time>
      </trkpt>
      <trkpt lat="42.028833" lon="0.769317">
        <ele>1911.0</ele>
        <time>2013-09-13T13:00:43Z</time>
      </trkpt>
      <trkpt lat="42.028817" lon="0.769217">
        <ele>1911.0</ele>
        <time>2013-09-13T13:00:44Z</time>
      </trkpt>
      <trkpt lat="42.028817" lon="0.769117">
        <ele>1912.0</ele>
        <time>2013-09-13T13:00:45Z</time>
      </trkpt>
      <trkpt lat="42.028817" lon="0.769033">
        <ele>1913.0</ele>
        <time>2013-09-13T13:00:46Z</time>
      </trkpt>
      <trkpt lat="42.028850" lon="0.768967">
        <ele>1915.0</ele>
        <time>2013-09-13T13:00:47Z</time>
      </trkpt>
      <trkpt lat="42.028900" lon="0.768900">
        <ele>1915.0</ele>
        <time>2013-09-13T13:00:48Z</time>
      </trkpt>
      <trkpt lat="42.028950" lon="0.768817">
        <ele>1915.0</ele>
        <time>2013-09-13T13:00:49Z</time>
      </trkpt>
      <trkpt lat="42.029017" lon="0.768750">
        <ele>1915.0</ele>
        <time>2013-09-13T13:00:50Z</time>
      </trkpt>
      <trkpt lat="42.029100" lon="0.768700">
        <ele>1917.0</ele>
        <time>2013-09-13T13:00:51Z</time>
      </trkpt>
      <trkpt lat="42.029167" lon="0.768683">
        <ele>1919.0</ele>
        <time>2013-09-13T13:00:52Z</time>
      </trkpt>
      <trkpt lat="42.029250" lon="0.768683">
        <ele>1921.0</ele>
        <time>2013-09-13T13:00:53Z</time>
      </trkpt>
      <trkpt lat="42.029317" lon="0.768683">
        <ele>1925.0</ele>
        <time>2013-09-13T13:00:54Z</time>
      </trkpt>
      <trkpt lat="42.029400" lon="0.768683">
        <ele>1927.0</ele>
        <time>2013-09-13T13:00:55Z</time>
      </trkpt>
      <trkpt lat="42.029483" lon="0.768683">
        <ele>1930.0</ele>
        <time>2013-09-13T13:00:56Z</time>
      </trkpt>
      <trkpt lat="42.029567" lon="0.768683">
        <ele>1932.0</ele>
        <time>2013-09-13T13:00:57Z</time>
      </trkpt>
      <trkpt lat="42.029633" lon="0.768700">
        <ele>1935.0</ele>
        <time>2013-09-13T13:00:58Z</time>
      </trkpt>
      <trkpt lat="42.029717" lon="0.768733">
        <ele>1937.0</ele>
        <time>2013-09-13T13:00:59Z</time>
      </trkpt>
      <trkpt lat="42.029783" lon="0.768767">
        <ele>1940.0</ele>
        <time>2013-09-13T13:01:00Z</time>
      </trkpt>
      <trkpt lat="42.029850" lon="0.768817">
        <ele>1942.0</ele>
        <time>2013-09-13T13:01:01Z</time>
      </trkpt>
      <trkpt lat="42.029933" lon="0.768867">
        <ele>1943.0</ele>
        <time>2013-09-13T13:01:02Z</time>
      </trkpt>
      <trkpt lat="42.030033" lon="0.768917">
        <ele>1945.0</ele>
        <time>2013-09-13T13:01:03Z</time>
      </trkpt>
      <trkpt lat="42.030117" lon="0.768983">
        <ele>1949.0</ele>
        <time>2013-09-13T13:01:04Z</time>
      </trkpt>
      <trkpt lat="42.030167" lon="0.769067">
        <ele>1954.0</ele>
        <time>2013-09-13T13:01:05Z</time>
      </trkpt>
      <trkpt lat="42.030217" lon="0.769133">
        <ele>1957.0</ele>
        <time>2013-09-13T13:01:06Z</time>
      </trkpt>
      <trkpt lat="42.030267" lon="0.769233">
        <ele>1959.0</ele>
        <time>2013-09-13T13:01:07Z</time>
      </trkpt>
      <trkpt lat="42.030317" lon="0.769333">
        <ele>1960.0</ele>
        <time>2013-09-13T13:01:08Z</time>
      </trkpt>
      <trkpt lat="42.030350" lon="0.769467">
        <ele>1957.0</ele>
        <time>2013-09-13T13:01:09Z</time>
      </trkpt>
      <trkpt lat="42.030367" lon="0.769617">
        <ele>1956.0</ele>
        <time>2013-09-13T13:01:10Z</time>
      </trkpt>
      <trkpt lat="42.030400" lon="0.769767">
        <ele>1955.0</ele>
        <time>2013-09-13T13:01:11Z</time>
      </trkpt>
      <trkpt lat="42.030450" lon="0.769917">
        <ele>1954.0</ele>
        <time>2013-09-13T13:01:12Z</time>
      </trkpt>
      <trkpt lat="42.030550" lon="0.770183">
        <ele>1954.0</ele>
        <time>2013-09-13T13:01:14Z</time>
      </trkpt>
      <trkpt lat="42.030633" lon="0.770433">
        <ele>1957.0</ele>
        <time>2013-09-13T13:01:16Z</time>
      </trkpt>
      <trkpt lat="42.030650" lon="0.770550">
        <ele>1959.0</ele>
        <time>2013-09-13T13:01:17Z</time>
      </trkpt>
      <trkpt lat="42.030683" lon="0.770650">
        <ele>1960.0</ele>
        <time>2013-09-13T13:01:18Z</time>
      </trkpt>
      <trkpt lat="42.030717" lon="0.770900">
        <ele>1961.0</ele>
        <time>2013-09-13T13:01:20Z</time>
      </trkpt>
      <trkpt lat="42.030717" lon="0.771033">
        <ele>1959.0</ele>
        <time>2013-09-13T13:01:21Z</time>
      </trkpt>
      <trkpt lat="42.030733" lon="0.771183">
        <ele>1959.0</ele>
        <time>2013-09-13T13:01:22Z</time>
      </trkpt>
      <trkpt lat="42.030800" lon="0.771467">
        <ele>1959.0</ele>
        <time>2013-09-13T13:01:24Z</time>
      </trkpt>
      <trkpt lat="42.030817" lon="0.771600">
        <ele>1959.0</ele>
        <time>2013-09-13T13:01:25Z</time>
      </trkpt>
      <trkpt lat="42.030850" lon="0.771733">
        <ele>1958.0</ele>
        <time>2013-09-13T13:01:26Z</time>
      </trkpt>
      <trkpt lat="42.030900" lon="0.771867">
        <ele>1958.0</ele>
        <time>2013-09-13T13:01:27Z</time>
      </trkpt>
      <trkpt lat="42.030917" lon="0.772033">
        <ele>1958.0</ele>
        <time>2013-09-13T13:01:28Z</time>
      </trkpt>
      <trkpt lat="42.030933" lon="0.772183">
        <ele>1959.0</ele>
        <time>2013-09-13T13:01:29Z</time>
      </trkpt>
      <trkpt lat="42.030950" lon="0.772333">
        <ele>1959.0</ele>
        <time>2013-09-13T13:01:30Z</time>
      </trkpt>
      <trkpt lat="42.030967" lon="0.772467">
        <ele>1960.0</ele>
        <time>2013-09-13T13:01:31Z</time>
      </trkpt>
      <trkpt lat="42.030983" lon="0.772617">
        <ele>1961.0</ele>
        <time>2013-09-13T13:01:32Z</time>
      </trkpt>
      <trkpt lat="42.031000" lon="0.772783">
        <ele>1961.0</ele>
        <time>2013-09-13T13:01:33Z</time>
      </trkpt>
      <trkpt lat="42.031000" lon="0.772950">
        <ele>1962.0</ele>
        <time>2013-09-13T13:01:34Z</time>
      </trkpt>
      <trkpt lat="42.031000" lon="0.773117">
        <ele>1962.0</ele>
        <time>2013-09-13T13:01:35Z</time>
      </trkpt>
      <trkpt lat="42.031000" lon="0.773267">
        <ele>1963.0</ele>
        <time>2013-09-13T13:01:36Z</time>
      </trkpt>
      <trkpt lat="42.031000" lon="0.773417">
        <ele>1964.0</ele>
        <time>2013-09-13T13:01:37Z</time>
      </trkpt>
      <trkpt lat="42.031000" lon="0.773567">
        <ele>1965.0</ele>
        <time>2013-09-13T13:01:38Z</time>
      </trkpt>
      <trkpt lat="42.031000" lon="0.773733">
        <ele>1965.0</ele>
        <time>2013-09-13T13:01:39Z</time>
      </trkpt>
      <trkpt lat="42.031000" lon="0.773883">
        <ele>1964.0</ele>
        <time>2013-09-13T13:01:40Z</time>
      </trkpt>
      <trkpt lat="42.030983" lon="0.774050">
        <ele>1964.0</ele>
        <time>2013-09-13T13:01:41Z</time>
      </trkpt>
      <trkpt lat="42.030983" lon="0.774217">
        <ele>1964.0</ele>
        <time>2013-09-13T13:01:42Z</time>
      </trkpt>
      <trkpt lat="42.030983" lon="0.774367">
        <ele>1964.0</ele>
        <time>2013-09-13T13:01:43Z</time>
      </trkpt>
      <trkpt lat="42.031000" lon="0.774500">
        <ele>1964.0</ele>
        <time>2013-09-13T13:01:44Z</time>
      </trkpt>
      <trkpt lat="42.031017" lon="0.774617">
        <ele>1965.0</ele>
        <time>2013-09-13T13:01:45Z</time>
      </trkpt>
      <trkpt lat="42.031033" lon="0.774717">
        <ele>1965.0</ele>
        <time>2013-09-13T13:01:46Z</time>
      </trkpt>
      <trkpt lat="42.031067" lon="0.774850">
        <ele>1964.0</ele>
        <time>2013-09-13T13:01:47Z</time>
      </trkpt>
      <trkpt lat="42.031083" lon="0.774983">
        <ele>1961.0</ele>
        <time>2013-09-13T13:01:48Z</time>
      </trkpt>
      <trkpt lat="42.031100" lon="0.775150">
        <ele>1958.0</ele>
        <time>2013-09-13T13:01:49Z</time>
      </trkpt>
      <trkpt lat="42.031100" lon="0.775300">
        <ele>1955.0</ele>
        <time>2013-09-13T13:01:50Z</time>
      </trkpt>
      <trkpt lat="42.031100" lon="0.775433">
        <ele>1953.0</ele>
        <time>2013-09-13T13:01:51Z</time>
      </trkpt>
      <trkpt lat="42.031100" lon="0.775567">
        <ele>1952.0</ele>
        <time>2013-09-13T13:01:52Z</time>
      </trkpt>
      <trkpt lat="42.031100" lon="0.775683">
        <ele>1949.0</ele>
        <time>2013-09-13T13:01:53Z</time>
      </trkpt>
      <trkpt lat="42.031117" lon="0.775817">
        <ele>1946.0</ele>
        <time>2013-09-13T13:01:54Z</time>
      </trkpt>
      <trkpt lat="42.031150" lon="0.775967">
        <ele>1942.0</ele>
        <time>2013-09-13T13:01:55Z</time>
      </trkpt>
      <trkpt lat="42.031183" lon="0.776117">
        <ele>1939.0</ele>
        <time>2013-09-13T13:01:56Z</time>
      </trkpt>
      <trkpt lat="42.031217" lon="0.776267">
        <ele>1937.0</ele>
        <time>2013-09-13T13:01:57Z</time>
      </trkpt>
      <trkpt lat="42.031250" lon="0.776383">
        <ele>1934.0</ele>
        <time>2013-09-13T13:01:58Z</time>
      </trkpt>
      <trkpt lat="42.031300" lon="0.776517">
        <ele>1931.0</ele>
        <time>2013-09-13T13:01:59Z</time>
      </trkpt>
      <trkpt lat="42.031350" lon="0.776650">
        <ele>1928.0</ele>
        <time>2013-09-13T13:02:00Z</time>
      </trkpt>
      <trkpt lat="42.031400" lon="0.776783">
        <ele>1925.0</ele>
        <time>2013-09-13T13:02:01Z</time>
      </trkpt>
      <trkpt lat="42.031467" lon="0.776900">
        <ele>1922.0</ele>
        <time>2013-09-13T13:02:02Z</time>
      </trkpt>
      <trkpt lat="42.031533" lon="0.777000">
        <ele>1920.0</ele>
        <time>2013-09-13T13:02:03Z</time>
      </trkpt>
      <trkpt lat="42.031600" lon="0.777100">
        <ele>1917.0</ele>
        <time>2013-09-13T13:02:04Z</time>
      </trkpt>
      <trkpt lat="42.031667" lon="0.777200">
        <ele>1915.0</ele>
        <time>2013-09-13T13:02:05Z</time>
      </trkpt>
      <trkpt lat="42.031733" lon="0.777317">
        <ele>1913.0</ele>
        <time>2013-09-13T13:02:06Z</time>
      </trkpt>
      <trkpt lat="42.031800" lon="0.777417">
        <ele>1911.0</ele>
        <time>2013-09-13T13:02:07Z</time>
      </trkpt>
      <trkpt lat="42.031850" lon="0.777533">
        <ele>1909.0</ele>
        <time>2013-09-13T13:02:08Z</time>
      </trkpt>
      <trkpt lat="42.031883" lon="0.777650">
        <ele>1908.0</ele>
        <time>2013-09-13T13:02:09Z</time>
      </trkpt>
      <trkpt lat="42.031933" lon="0.777767">
        <ele>1906.0</ele>
        <time>2013-09-13T13:02:10Z</time>
      </trkpt>
      <trkpt lat="42.031983" lon="0.777867">
        <ele>1905.0</ele>
        <time>2013-09-13T13:02:11Z</time>
      </trkpt>
      <trkpt lat="42.032017" lon="0.778000">
        <ele>1903.0</ele>
        <time>2013-09-13T13:02:12Z</time>
      </trkpt>
      <trkpt lat="42.032067" lon="0.778117">
        <ele>1901.0</ele>
        <time>2013-09-13T13:02:13Z</time>
      </trkpt>
      <trkpt lat="42.032117" lon="0.778233">
        <ele>1899.0</ele>
        <time>2013-09-13T13:02:14Z</time>
      </trkpt>
      <trkpt lat="42.032150" lon="0.778350">
        <ele>1897.0</ele>
        <time>2013-09-13T13:02:15Z</time>
      </trkpt>
      <trkpt lat="42.032183" lon="0.778483">
        <ele>1895.0</ele>
        <time>2013-09-13T13:02:16Z</time>
      </trkpt>
      <trkpt lat="42.032233" lon="0.778600">
        <ele>1892.0</ele>
        <time>2013-09-13T13:02:17Z</time>
      </trkpt>
      <trkpt lat="42.032283" lon="0.778717">
        <ele>1889.0</ele>
        <time>2013-09-13T13:02:18Z</time>
      </trkpt>
      <trkpt lat="42.032333" lon="0.778850">
        <ele>1886.0</ele>
        <time>2013-09-13T13:02:19Z</time>
      </trkpt>
      <trkpt lat="42.032383" lon="0.778967">
        <ele>1883.0</ele>
        <time>2013-09-13T13:02:20Z</time>
      </trkpt>
      <trkpt lat="42.032433" lon="0.779083">
        <ele>1880.0</ele>
        <time>2013-09-13T13:02:21Z</time>
      </trkpt>
      <trkpt lat="42.032500" lon="0.779217">
        <ele>1878.0</ele>
        <time>2013-09-13T13:02:22Z</time>
      </trkpt>
      <trkpt lat="42.032550" lon="0.779333">
        <ele>1875.0</ele>
        <time>2013-09-13T13:02:23Z</time>
      </trkpt>
      <trkpt lat="42.032617" lon="0.779467">
        <ele>1873.0</ele>
        <time>2013-09-13T13:02:24Z</time>
      </trkpt>
      <trkpt lat="42.032667" lon="0.779600">
        <ele>1870.0</ele>
        <time>2013-09-13T13:02:25Z</time>
      </trkpt>
      <trkpt lat="42.032733" lon="0.779867">
        <ele>1866.0</ele>
        <time>2013-09-13T13:02:27Z</time>
      </trkpt>
      <trkpt lat="42.032767" lon="0.780000">
        <ele>1864.0</ele>
        <time>2013-09-13T13:02:28Z</time>
      </trkpt>
      <trkpt lat="42.032800" lon="0.780133">
        <ele>1862.0</ele>
        <time>2013-09-13T13:02:29Z</time>
      </trkpt>
      <trkpt lat="42.032833" lon="0.780283">
        <ele>1859.0</ele>
        <time>2013-09-13T13:02:30Z</time>
      </trkpt>
      <trkpt lat="42.032850" lon="0.780450">
        <ele>1856.0</ele>
        <time>2013-09-13T13:02:31Z</time>
      </trkpt>
      <trkpt lat="42.032867" lon="0.780600">
        <ele>1854.0</ele>
        <time>2013-09-13T13:02:32Z</time>
      </trkpt>
      <trkpt lat="42.032883" lon="0.780750">
        <ele>1852.0</ele>
        <time>2013-09-13T13:02:33Z</time>
      </trkpt>
      <trkpt lat="42.032900" lon="0.780900">
        <ele>1850.0</ele>
        <time>2013-09-13T13:02:34Z</time>
      </trkpt>
      <trkpt lat="42.032933" lon="0.781050">
        <ele>1849.0</ele>
        <time>2013-09-13T13:02:35Z</time>
      </trkpt>
      <trkpt lat="42.032950" lon="0.781200">
        <ele>1847.0</ele>
        <time>2013-09-13T13:02:36Z</time>
      </trkpt>
      <trkpt lat="42.032967" lon="0.781350">
        <ele>1846.0</ele>
        <time>2013-09-13T13:02:37Z</time>
      </trkpt>
      <trkpt lat="42.033000" lon="0.781517">
        <ele>1844.0</ele>
        <time>2013-09-13T13:02:38Z</time>
      </trkpt>
      <trkpt lat="42.033017" lon="0.781683">
        <ele>1843.0</ele>
        <time>2013-09-13T13:02:39Z</time>
      </trkpt>
      <trkpt lat="42.033033" lon="0.781850">
        <ele>1842.0</ele>
        <time>2013-09-13T13:02:40Z</time>
      </trkpt>
      <trkpt lat="42.033067" lon="0.782017">
        <ele>1841.0</ele>
        <time>2013-09-13T13:02:41Z</time>
      </trkpt>
      <trkpt lat="42.033100" lon="0.782183">
        <ele>1841.0</ele>
        <time>2013-09-13T13:02:42Z</time>
      </trkpt>
      <trkpt lat="42.033133" lon="0.782350">
        <ele>1840.0</ele>
        <time>2013-09-13T13:02:43Z</time>
      </trkpt>
      <trkpt lat="42.033150" lon="0.782517">
        <ele>1839.0</ele>
        <time>2013-09-13T13:02:44Z</time>
      </trkpt>
      <trkpt lat="42.033183" lon="0.782683">
        <ele>1838.0</ele>
        <time>2013-09-13T13:02:45Z</time>
      </trkpt>
      <trkpt lat="42.033200" lon="0.782850">
        <ele>1837.0</ele>
        <time>2013-09-13T13:02:46Z</time>
      </trkpt>
      <trkpt lat="42.033233" lon="0.783017">
        <ele>1836.0</ele>
        <time>2013-09-13T13:02:47Z</time>
      </trkpt>
      <trkpt lat="42.033250" lon="0.783183">
        <ele>1835.0</ele>
        <time>2013-09-13T13:02:48Z</time>
      </trkpt>
      <trkpt lat="42.033283" lon="0.783333">
        <ele>1835.0</ele>
        <time>2013-09-13T13:02:49Z</time>
      </trkpt>
      <trkpt lat="42.033300" lon="0.783483">
        <ele>1835.0</ele>
        <time>2013-09-13T13:02:50Z</time>
      </trkpt>
      <trkpt lat="42.033317" lon="0.783617">
        <ele>1836.0</ele>
        <time>2013-09-13T13:02:51Z</time>
      </trkpt>
      <trkpt lat="42.033333" lon="0.783750">
        <ele>1837.0</ele>
        <time>2013-09-13T13:02:52Z</time>
      </trkpt>
      <trkpt lat="42.033350" lon="0.783867">
        <ele>1838.0</ele>
        <time>2013-09-13T13:02:53Z</time>
      </trkpt>
      <trkpt lat="42.033350" lon="0.784000">
        <ele>1838.0</ele>
        <time>2013-09-13T13:02:54Z</time>
      </trkpt>
      <trkpt lat="42.033367" lon="0.784133">
        <ele>1839.0</ele>
        <time>2013-09-13T13:02:55Z</time>
      </trkpt>
      <trkpt lat="42.033400" lon="0.784283">
        <ele>1838.0</ele>
        <time>2013-09-13T13:02:56Z</time>
      </trkpt>
      <trkpt lat="42.033417" lon="0.784417">
        <ele>1838.0</ele>
        <time>2013-09-13T13:02:57Z</time>
      </trkpt>
      <trkpt lat="42.033433" lon="0.784567">
        <ele>1838.0</ele>
        <time>2013-09-13T13:02:58Z</time>
      </trkpt>
      <trkpt lat="42.033450" lon="0.784700">
        <ele>1838.0</ele>
        <time>2013-09-13T13:02:59Z</time>
      </trkpt>
      <trkpt lat="42.033467" lon="0.784817">
        <ele>1837.0</ele>
        <time>2013-09-13T13:03:00Z</time>
      </trkpt>
      <trkpt lat="42.033483" lon="0.784950">
        <ele>1837.0</ele>
        <time>2013-09-13T13:03:01Z</time>
      </trkpt>
      <trkpt lat="42.033517" lon="0.785217">
        <ele>1835.0</ele>
        <time>2013-09-13T13:03:03Z</time>
      </trkpt>
      <trkpt lat="42.033533" lon="0.785533">
        <ele>1833.0</ele>
        <time>2013-09-13T13:03:05Z</time>
      </trkpt>
      <trkpt lat="42.033550" lon="0.785667">
        <ele>1832.0</ele>
        <time>2013-09-13T13:03:06Z</time>
      </trkpt>
      <trkpt lat="42.033583" lon="0.785967">
        <ele>1831.0</ele>
        <time>2013-09-13T13:03:08Z</time>
      </trkpt>
      <trkpt lat="42.033617" lon="0.786117">
        <ele>1830.0</ele>
        <time>2013-09-13T13:03:09Z</time>
      </trkpt>
      <trkpt lat="42.033633" lon="0.786283">
        <ele>1829.0</ele>
        <time>2013-09-13T13:03:10Z</time>
      </trkpt>
      <trkpt lat="42.033683" lon="0.786567">
        <ele>1829.0</ele>
        <time>2013-09-13T13:03:12Z</time>
      </trkpt>
      <trkpt lat="42.033700" lon="0.786700">
        <ele>1829.0</ele>
        <time>2013-09-13T13:03:13Z</time>
      </trkpt>
      <trkpt lat="42.033717" lon="0.786817">
        <ele>1829.0</ele>
        <time>2013-09-13T13:03:14Z</time>
      </trkpt>
      <trkpt lat="42.033717" lon="0.786950">
        <ele>1828.0</ele>
        <time>2013-09-13T13:03:15Z</time>
      </trkpt>
      <trkpt lat="42.033733" lon="0.787100">
        <ele>1828.0</ele>
        <time>2013-09-13T13:03:16Z</time>
      </trkpt>
      <trkpt lat="42.033750" lon="0.787233">
        <ele>1828.0</ele>
        <time>2013-09-13T13:03:17Z</time>
      </trkpt>
      <trkpt lat="42.033767" lon="0.787367">
        <ele>1827.0</ele>
        <time>2013-09-13T13:03:18Z</time>
      </trkpt>
      <trkpt lat="42.033800" lon="0.787500">
        <ele>1826.0</ele>
        <time>2013-09-13T13:03:19Z</time>
      </trkpt>
      <trkpt lat="42.033817" lon="0.787650">
        <ele>1825.0</ele>
        <time>2013-09-13T13:03:20Z</time>
      </trkpt>
      <trkpt lat="42.033833" lon="0.787783">
        <ele>1824.0</ele>
        <time>2013-09-13T13:03:21Z</time>
      </trkpt>
      <trkpt lat="42.033850" lon="0.787933">
        <ele>1823.0</ele>
        <time>2013-09-13T13:03:22Z</time>
      </trkpt>
      <trkpt lat="42.033850" lon="0.788083">
        <ele>1822.0</ele>
        <time>2013-09-13T13:03:23Z</time>
      </trkpt>
      <trkpt lat="42.033867" lon="0.788233">
        <ele>1822.0</ele>
        <time>2013-09-13T13:03:24Z</time>
      </trkpt>
      <trkpt lat="42.033883" lon="0.788517">
        <ele>1821.0</ele>
        <time>2013-09-13T13:03:26Z</time>
      </trkpt>
      <trkpt lat="42.033900" lon="0.788650">
        <ele>1822.0</ele>
        <time>2013-09-13T13:03:27Z</time>
      </trkpt>
      <trkpt lat="42.033900" lon="0.788783">
        <ele>1822.0</ele>
        <time>2013-09-13T13:03:28Z</time>
      </trkpt>
      <trkpt lat="42.033917" lon="0.788917">
        <ele>1822.0</ele>
        <time>2013-09-13T13:03:29Z</time>
      </trkpt>
      <trkpt lat="42.033933" lon="0.789050">
        <ele>1822.0</ele>
        <time>2013-09-13T13:03:30Z</time>
      </trkpt>
      <trkpt lat="42.033933" lon="0.789183">
        <ele>1823.0</ele>
        <time>2013-09-13T13:03:31Z</time>
      </trkpt>
      <trkpt lat="42.033950" lon="0.789333">
        <ele>1822.0</ele>
        <time>2013-09-13T13:03:32Z</time>
      </trkpt>
      <trkpt lat="42.033967" lon="0.789467">
        <ele>1822.0</ele>
        <time>2013-09-13T13:03:33Z</time>
      </trkpt>
      <trkpt lat="42.033983" lon="0.789617">
        <ele>1822.0</ele>
        <time>2013-09-13T13:03:34Z</time>
      </trkpt>
      <trkpt lat="42.034017" lon="0.789767">
        <ele>1822.0</ele>
        <time>2013-09-13T13:03:35Z</time>
      </trkpt>
      <trkpt lat="42.034033" lon="0.789900">
        <ele>1822.0</ele>
        <time>2013-09-13T13:03:36Z</time>
      </trkpt>
      <trkpt lat="42.034033" lon="0.790033">
        <ele>1823.0</ele>
        <time>2013-09-13T13:03:37Z</time>
      </trkpt>
      <trkpt lat="42.034050" lon="0.790150">
        <ele>1823.0</ele>
        <time>2013-09-13T13:03:38Z</time>
      </trkpt>
      <trkpt lat="42.034067" lon="0.790283">
        <ele>1823.0</ele>
        <time>2013-09-13T13:03:39Z</time>
      </trkpt>
      <trkpt lat="42.034067" lon="0.790417">
        <ele>1823.0</ele>
        <time>2013-09-13T13:03:40Z</time>
      </trkpt>
      <trkpt lat="42.034067" lon="0.790550">
        <ele>1823.0</ele>
        <time>2013-09-13T13:03:41Z</time>
      </trkpt>
      <trkpt lat="42.034067" lon="0.790683">
        <ele>1823.0</ele>
        <time>2013-09-13T13:03:42Z</time>
      </trkpt>
      <trkpt lat="42.034050" lon="0.790817">
        <ele>1823.0</ele>
        <time>2013-09-13T13:03:43Z</time>
      </trkpt>
      <trkpt lat="42.034050" lon="0.790933">
        <ele>1822.0</ele>
        <time>2013-09-13T13:03:44Z</time>
      </trkpt>
      <trkpt lat="42.034033" lon="0.791067">
        <ele>1822.0</ele>
        <time>2013-09-13T13:03:45Z</time>
      </trkpt>
      <trkpt lat="42.034017" lon="0.791333">
        <ele>1822.0</ele>
        <time>2013-09-13T13:03:47Z</time>
      </trkpt>
      <trkpt lat="42.034000" lon="0.791467">
        <ele>1821.0</ele>
        <time>2013-09-13T13:03:48Z</time>
      </trkpt>
      <trkpt lat="42.034000" lon="0.791600">
        <ele>1821.0</ele>
        <time>2013-09-13T13:03:49Z</time>
      </trkpt>
      <trkpt lat="42.033983" lon="0.791733">
        <ele>1821.0</ele>
        <time>2013-09-13T13:03:50Z</time>
      </trkpt>
      <trkpt lat="42.033983" lon="0.791900">
        <ele>1820.0</ele>
        <time>2013-09-13T13:03:51Z</time>
      </trkpt>
      <trkpt lat="42.033967" lon="0.792050">
        <ele>1819.0</ele>
        <time>2013-09-13T13:03:52Z</time>
      </trkpt>
      <trkpt lat="42.033950" lon="0.792183">
        <ele>1819.0</ele>
        <time>2013-09-13T13:03:53Z</time>
      </trkpt>
      <trkpt lat="42.033950" lon="0.792317">
        <ele>1819.0</ele>
        <time>2013-09-13T13:03:54Z</time>
      </trkpt>
      <trkpt lat="42.033933" lon="0.792450">
        <ele>1818.0</ele>
        <time>2013-09-13T13:03:55Z</time>
      </trkpt>
      <trkpt lat="42.033917" lon="0.792600">
        <ele>1818.0</ele>
        <time>2013-09-13T13:03:56Z</time>
      </trkpt>
      <trkpt lat="42.033900" lon="0.792750">
        <ele>1817.0</ele>
        <time>2013-09-13T13:03:57Z</time>
      </trkpt>
      <trkpt lat="42.033867" lon="0.792883">
        <ele>1816.0</ele>
        <time>2013-09-13T13:03:58Z</time>
      </trkpt>
      <trkpt lat="42.033850" lon="0.793017">
        <ele>1816.0</ele>
        <time>2013-09-13T13:03:59Z</time>
      </trkpt>
      <trkpt lat="42.033833" lon="0.793150">
        <ele>1815.0</ele>
        <time>2013-09-13T13:04:00Z</time>
      </trkpt>
      <trkpt lat="42.033817" lon="0.793300">
        <ele>1814.0</ele>
        <time>2013-09-13T13:04:01Z</time>
      </trkpt>
      <trkpt lat="42.033800" lon="0.793433">
        <ele>1812.0</ele>
        <time>2013-09-13T13:04:02Z</time>
      </trkpt>
      <trkpt lat="42.033800" lon="0.793583">
        <ele>1812.0</ele>
        <time>2013-09-13T13:04:03Z</time>
      </trkpt>
      <trkpt lat="42.033783" lon="0.793717">
        <ele>1810.0</ele>
        <time>2013-09-13T13:04:04Z</time>
      </trkpt>
      <trkpt lat="42.033783" lon="0.793867">
        <ele>1809.0</ele>
        <time>2013-09-13T13:04:05Z</time>
      </trkpt>
      <trkpt lat="42.033783" lon="0.794017">
        <ele>1808.0</ele>
        <time>2013-09-13T13:04:06Z</time>
      </trkpt>
      <trkpt lat="42.033767" lon="0.794150">
        <ele>1807.0</ele>
        <time>2013-09-13T13:04:07Z</time>
      </trkpt>
      <trkpt lat="42.033767" lon="0.794300">
        <ele>1805.0</ele>
        <time>2013-09-13T13:04:08Z</time>
      </trkpt>
      <trkpt lat="42.033750" lon="0.794450">
        <ele>1803.0</ele>
        <time>2013-09-13T13:04:09Z</time>
      </trkpt>
      <trkpt lat="42.033733" lon="0.794600">
        <ele>1802.0</ele>
        <time>2013-09-13T13:04:10Z</time>
      </trkpt>
      <trkpt lat="42.033733" lon="0.794733">
        <ele>1801.0</ele>
        <time>2013-09-13T13:04:11Z</time>
      </trkpt>
      <trkpt lat="42.033733" lon="0.794867">
        <ele>1800.0</ele>
        <time>2013-09-13T13:04:12Z</time>
      </trkpt>
      <trkpt lat="42.033733" lon="0.795000">
        <ele>1799.0</ele>
        <time>2013-09-13T13:04:13Z</time>
      </trkpt>
      <trkpt lat="42.033750" lon="0.795150">
        <ele>1798.0</ele>
        <time>2013-09-13T13:04:14Z</time>
      </trkpt>
      <trkpt lat="42.033750" lon="0.795300">
        <ele>1797.0</ele>
        <time>2013-09-13T13:04:15Z</time>
      </trkpt>
      <trkpt lat="42.033767" lon="0.795450">
        <ele>1795.0</ele>
        <time>2013-09-13T13:04:16Z</time>
      </trkpt>
      <trkpt lat="42.033783" lon="0.795600">
        <ele>1794.0</ele>
        <time>2013-09-13T13:04:17Z</time>
      </trkpt>
      <trkpt lat="42.033817" lon="0.795717">
        <ele>1794.0</ele>
        <time>2013-09-13T13:04:18Z</time>
      </trkpt>
      <trkpt lat="42.033833" lon="0.795817">
        <ele>1794.0</ele>
        <time>2013-09-13T13:04:19Z</time>
      </trkpt>
      <trkpt lat="42.033850" lon="0.795950">
        <ele>1792.0</ele>
        <time>2013-09-13T13:04:20Z</time>
      </trkpt>
      <trkpt lat="42.033883" lon="0.796100">
        <ele>1791.0</ele>
        <time>2013-09-13T13:04:21Z</time>
      </trkpt>
      <trkpt lat="42.033900" lon="0.796250">
        <ele>1789.0</ele>
        <time>2013-09-13T13:04:22Z</time>
      </trkpt>
      <trkpt lat="42.033950" lon="0.796417">
        <ele>1788.0</ele>
        <time>2013-09-13T13:04:23Z</time>
      </trkpt>
      <trkpt lat="42.033983" lon="0.796550">
        <ele>1787.0</ele>
        <time>2013-09-13T13:04:24Z</time>
      </trkpt>
      <trkpt lat="42.034000" lon="0.796683">
        <ele>1786.0</ele>
        <time>2013-09-13T13:04:25Z</time>
      </trkpt>
      <trkpt lat="42.034017" lon="0.796817">
        <ele>1785.0</ele>
        <time>2013-09-13T13:04:26Z</time>
      </trkpt>
      <trkpt lat="42.034033" lon="0.796967">
        <ele>1784.0</ele>
        <time>2013-09-13T13:04:27Z</time>
      </trkpt>
      <trkpt lat="42.034050" lon="0.797117">
        <ele>1783.0</ele>
        <time>2013-09-13T13:04:28Z</time>
      </trkpt>
      <trkpt lat="42.034067" lon="0.797267">
        <ele>1782.0</ele>
        <time>2013-09-13T13:04:29Z</time>
      </trkpt>
      <trkpt lat="42.034083" lon="0.797400">
        <ele>1781.0</ele>
        <time>2013-09-13T13:04:30Z</time>
      </trkpt>
      <trkpt lat="42.034083" lon="0.797517">
        <ele>1781.0</ele>
        <time>2013-09-13T13:04:31Z</time>
      </trkpt>
      <trkpt lat="42.034100" lon="0.797650">
        <ele>1781.0</ele>
        <time>2013-09-13T13:04:32Z</time>
      </trkpt>
      <trkpt lat="42.034117" lon="0.797767">
        <ele>1780.0</ele>
        <time>2013-09-13T13:04:33Z</time>
      </trkpt>
      <trkpt lat="42.034133" lon="0.797917">
        <ele>1779.0</ele>
        <time>2013-09-13T13:04:34Z</time>
      </trkpt>
      <trkpt lat="42.034133" lon="0.798067">
        <ele>1778.0</ele>
        <time>2013-09-13T13:04:35Z</time>
      </trkpt>
      <trkpt lat="42.034150" lon="0.798200">
        <ele>1778.0</ele>
        <time>2013-09-13T13:04:36Z</time>
      </trkpt>
      <trkpt lat="42.034167" lon="0.798333">
        <ele>1777.0</ele>
        <time>2013-09-13T13:04:37Z</time>
      </trkpt>
      <trkpt lat="42.034183" lon="0.798467">
        <ele>1776.0</ele>
        <time>2013-09-13T13:04:38Z</time>
      </trkpt>
      <trkpt lat="42.034200" lon="0.798617">
        <ele>1775.0</ele>
        <time>2013-09-13T13:04:39Z</time>
      </trkpt>
      <trkpt lat="42.034233" lon="0.798900">
        <ele>1773.0</ele>
        <time>2013-09-13T13:04:41Z</time>
      </trkpt>
      <trkpt lat="42.034267" lon="0.799050">
        <ele>1771.0</ele>
        <time>2013-09-13T13:04:42Z</time>
      </trkpt>
      <trkpt lat="42.034283" lon="0.799183">
        <ele>1771.0</ele>
        <time>2013-09-13T13:04:43Z</time>
      </trkpt>
      <trkpt lat="42.034300" lon="0.799317">
        <ele>1769.0</ele>
        <time>2013-09-13T13:04:44Z</time>
      </trkpt>
      <trkpt lat="42.034317" lon="0.799450">
        <ele>1768.0</ele>
        <time>2013-09-13T13:04:45Z</time>
      </trkpt>
      <trkpt lat="42.034333" lon="0.799583">
        <ele>1767.0</ele>
        <time>2013-09-13T13:04:46Z</time>
      </trkpt>
      <trkpt lat="42.034350" lon="0.799717">
        <ele>1765.0</ele>
        <time>2013-09-13T13:04:47Z</time>
      </trkpt>
      <trkpt lat="42.034383" lon="0.799867">
        <ele>1762.0</ele>
        <time>2013-09-13T13:04:48Z</time>
      </trkpt>
      <trkpt lat="42.034400" lon="0.800000">
        <ele>1760.0</ele>
        <time>2013-09-13T13:04:49Z</time>
      </trkpt>
      <trkpt lat="42.034417" lon="0.800133">
        <ele>1757.0</ele>
        <time>2013-09-13T13:04:50Z</time>
      </trkpt>
      <trkpt lat="42.034450" lon="0.800267">
        <ele>1755.0</ele>
        <time>2013-09-13T13:04:51Z</time>
      </trkpt>
      <trkpt lat="42.034467" lon="0.800400">
        <ele>1753.0</ele>
        <time>2013-09-13T13:04:52Z</time>
      </trkpt>
      <trkpt lat="42.034483" lon="0.800550">
        <ele>1751.0</ele>
        <time>2013-09-13T13:04:53Z</time>
      </trkpt>
      <trkpt lat="42.034517" lon="0.800667">
        <ele>1749.0</ele>
        <time>2013-09-13T13:04:54Z</time>
      </trkpt>
      <trkpt lat="42.034533" lon="0.800800">
        <ele>1747.0</ele>
        <time>2013-09-13T13:04:55Z</time>
      </trkpt>
      <trkpt lat="42.034567" lon="0.800933">
        <ele>1745.0</ele>
        <time>2013-09-13T13:04:56Z</time>
      </trkpt>
      <trkpt lat="42.034583" lon="0.801067">
        <ele>1743.0</ele>
        <time>2013-09-13T13:04:57Z</time>
      </trkpt>
      <trkpt lat="42.034617" lon="0.801200">
        <ele>1741.0</ele>
        <time>2013-09-13T13:04:58Z</time>
      </trkpt>
      <trkpt lat="42.034650" lon="0.801350">
        <ele>1739.0</ele>
        <time>2013-09-13T13:04:59Z</time>
      </trkpt>
      <trkpt lat="42.034683" lon="0.801483">
        <ele>1737.0</ele>
        <time>2013-09-13T13:05:00Z</time>
      </trkpt>
      <trkpt lat="42.034717" lon="0.801633">
        <ele>1736.0</ele>
        <time>2013-09-13T13:05:01Z</time>
      </trkpt>
      <trkpt lat="42.034767" lon="0.801783">
        <ele>1735.0</ele>
        <time>2013-09-13T13:05:02Z</time>
      </trkpt>
      <trkpt lat="42.034783" lon="0.801933">
        <ele>1733.0</ele>
        <time>2013-09-13T13:05:03Z</time>
      </trkpt>
      <trkpt lat="42.034817" lon="0.802083">
        <ele>1732.0</ele>
        <time>2013-09-13T13:05:04Z</time>
      </trkpt>
      <trkpt lat="42.034833" lon="0.802233">
        <ele>1732.0</ele>
        <time>2013-09-13T13:05:05Z</time>
      </trkpt>
      <trkpt lat="42.034867" lon="0.802383">
        <ele>1731.0</ele>
        <time>2013-09-13T13:05:06Z</time>
      </trkpt>
      <trkpt lat="42.034900" lon="0.802517">
        <ele>1731.0</ele>
        <time>2013-09-13T13:05:07Z</time>
      </trkpt>
      <trkpt lat="42.034917" lon="0.802650">
        <ele>1729.0</ele>
        <time>2013-09-13T13:05:08Z</time>
      </trkpt>
      <trkpt lat="42.034967" lon="0.802783">
        <ele>1728.0</ele>
        <time>2013-09-13T13:05:09Z</time>
      </trkpt>
      <trkpt lat="42.035000" lon="0.802917">
        <ele>1727.0</ele>
        <time>2013-09-13T13:05:10Z</time>
      </trkpt>
      <trkpt lat="42.035050" lon="0.803050">
        <ele>1726.0</ele>
        <time>2013-09-13T13:05:11Z</time>
      </trkpt>
      <trkpt lat="42.035083" lon="0.803183">
        <ele>1724.0</ele>
        <time>2013-09-13T13:05:12Z</time>
      </trkpt>
      <trkpt lat="42.035133" lon="0.803317">
        <ele>1723.0</ele>
        <time>2013-09-13T13:05:13Z</time>
      </trkpt>
      <trkpt lat="42.035183" lon="0.803433">
        <ele>1722.0</ele>
        <time>2013-09-13T13:05:14Z</time>
      </trkpt>
      <trkpt lat="42.035217" lon="0.803567">
        <ele>1720.0</ele>
        <time>2013-09-13T13:05:15Z</time>
      </trkpt>
      <trkpt lat="42.035267" lon="0.803700">
        <ele>1719.0</ele>
        <time>2013-09-13T13:05:16Z</time>
      </trkpt>
      <trkpt lat="42.035300" lon="0.803817">
        <ele>1718.0</ele>
        <time>2013-09-13T13:05:17Z</time>
      </trkpt>
      <trkpt lat="42.035350" lon="0.803950">
        <ele>1717.0</ele>
        <time>2013-09-13T13:05:18Z</time>
      </trkpt>
      <trkpt lat="42.035383" lon="0.804083">
        <ele>1716.0</ele>
        <time>2013-09-13T13:05:19Z</time>
      </trkpt>
      <trkpt lat="42.035433" lon="0.804217">
        <ele>1715.0</ele>
        <time>2013-09-13T13:05:20Z</time>
      </trkpt>
      <trkpt lat="42.035483" lon="0.804350">
        <ele>1715.0</ele>
        <time>2013-09-13T13:05:21Z</time>
      </trkpt>
      <trkpt lat="42.035517" lon="0.804467">
        <ele>1714.0</ele>
        <time>2013-09-13T13:05:22Z</time>
      </trkpt>
      <trkpt lat="42.035567" lon="0.804583">
        <ele>1713.0</ele>
        <time>2013-09-13T13:05:23Z</time>
      </trkpt>
      <trkpt lat="42.035600" lon="0.804717">
        <ele>1712.0</ele>
        <time>2013-09-13T13:05:24Z</time>
      </trkpt>
      <trkpt lat="42.035650" lon="0.804850">
        <ele>1710.0</ele>
        <time>2013-09-13T13:05:25Z</time>
      </trkpt>
      <trkpt lat="42.035700" lon="0.804983">
        <ele>1709.0</ele>
        <time>2013-09-13T13:05:26Z</time>
      </trkpt>
      <trkpt lat="42.035750" lon="0.805133">
        <ele>1707.0</ele>
        <time>2013-09-13T13:05:27Z</time>
      </trkpt>
      <trkpt lat="42.035783" lon="0.805267">
        <ele>1706.0</ele>
        <time>2013-09-13T13:05:28Z</time>
      </trkpt>
      <trkpt lat="42.035833" lon="0.805400">
        <ele>1705.0</ele>
        <time>2013-09-13T13:05:29Z</time>
      </trkpt>
      <trkpt lat="42.035883" lon="0.805533">
        <ele>1704.0</ele>
        <time>2013-09-13T13:05:30Z</time>
      </trkpt>
      <trkpt lat="42.035950" lon="0.805667">
        <ele>1702.0</ele>
        <time>2013-09-13T13:05:31Z</time>
      </trkpt>
      <trkpt lat="42.036017" lon="0.805800">
        <ele>1701.0</ele>
        <time>2013-09-13T13:05:32Z</time>
      </trkpt>
      <trkpt lat="42.036083" lon="0.805950">
        <ele>1700.0</ele>
        <time>2013-09-13T13:05:33Z</time>
      </trkpt>
      <trkpt lat="42.036150" lon="0.806067">
        <ele>1699.0</ele>
        <time>2013-09-13T13:05:34Z</time>
      </trkpt>
      <trkpt lat="42.036217" lon="0.806183">
        <ele>1698.0</ele>
        <time>2013-09-13T13:05:35Z</time>
      </trkpt>
      <trkpt lat="42.036267" lon="0.806317">
        <ele>1697.0</ele>
        <time>2013-09-13T13:05:36Z</time>
      </trkpt>
      <trkpt lat="42.036350" lon="0.806433">
        <ele>1696.0</ele>
        <time>2013-09-13T13:05:37Z</time>
      </trkpt>
      <trkpt lat="42.036417" lon="0.806550">
        <ele>1695.0</ele>
        <time>2013-09-13T13:05:38Z</time>
      </trkpt>
      <trkpt lat="42.036483" lon="0.806650">
        <ele>1695.0</ele>
        <time>2013-09-13T13:05:39Z</time>
      </trkpt>
      <trkpt lat="42.036550" lon="0.806750">
        <ele>1695.0</ele>
        <time>2013-09-13T13:05:40Z</time>
      </trkpt>
      <trkpt lat="42.036617" lon="0.806850">
        <ele>1695.0</ele>
        <time>2013-09-13T13:05:41Z</time>
      </trkpt>
      <trkpt lat="42.036700" lon="0.806950">
        <ele>1694.0</ele>
        <time>2013-09-13T13:05:42Z</time>
      </trkpt>
      <trkpt lat="42.036767" lon="0.807033">
        <ele>1693.0</ele>
        <time>2013-09-13T13:05:43Z</time>
      </trkpt>
      <trkpt lat="42.036867" lon="0.807117">
        <ele>1692.0</ele>
        <time>2013-09-13T13:05:44Z</time>
      </trkpt>
      <trkpt lat="42.036967" lon="0.807183">
        <ele>1691.0</ele>
        <time>2013-09-13T13:05:45Z</time>
      </trkpt>
      <trkpt lat="42.037083" lon="0.807233">
        <ele>1690.0</ele>
        <time>2013-09-13T13:05:46Z</time>
      </trkpt>
      <trkpt lat="42.037183" lon="0.807250">
        <ele>1691.0</ele>
        <time>2013-09-13T13:05:47Z</time>
      </trkpt>
      <trkpt lat="42.037267" lon="0.807250">
        <ele>1692.0</ele>
        <time>2013-09-13T13:05:48Z</time>
      </trkpt>
      <trkpt lat="42.037550" lon="0.807183">
        <ele>1691.0</ele>
        <time>2013-09-13T13:05:51Z</time>
      </trkpt>
      <trkpt lat="42.037650" lon="0.807117">
        <ele>1690.0</ele>
        <time>2013-09-13T13:05:52Z</time>
      </trkpt>
      <trkpt lat="42.037733" lon="0.807067">
        <ele>1689.0</ele>
        <time>2013-09-13T13:05:53Z</time>
      </trkpt>
      <trkpt lat="42.037800" lon="0.807017">
        <ele>1691.0</ele>
        <time>2013-09-13T13:05:54Z</time>
      </trkpt>
      <trkpt lat="42.037833" lon="0.806983">
        <ele>1692.0</ele>
        <time>2013-09-13T13:05:55Z</time>
      </trkpt>
      <trkpt lat="42.037867" lon="0.806933">
        <ele>1692.0</ele>
        <time>2013-09-13T13:05:56Z</time>
      </trkpt>
      <trkpt lat="42.037883" lon="0.806867">
        <ele>1692.0</ele>
        <time>2013-09-13T13:05:57Z</time>
      </trkpt>
      <trkpt lat="42.037933" lon="0.806800">
        <ele>1691.0</ele>
        <time>2013-09-13T13:05:58Z</time>
      </trkpt>
      <trkpt lat="42.038000" lon="0.806733">
        <ele>1689.0</ele>
        <time>2013-09-13T13:05:59Z</time>
      </trkpt>
      <trkpt lat="42.038067" lon="0.806667">
        <ele>1688.0</ele>
        <time>2013-09-13T13:06:00Z</time>
      </trkpt>
      <trkpt lat="42.038133" lon="0.806617">
        <ele>1687.0</ele>
        <time>2013-09-13T13:06:01Z</time>
      </trkpt>
      <trkpt lat="42.038183" lon="0.806567">
        <ele>1686.0</ele>
        <time>2013-09-13T13:06:02Z</time>
      </trkpt>
      <trkpt lat="42.038250" lon="0.806500">
        <ele>1685.0</ele>
        <time>2013-09-13T13:06:03Z</time>
      </trkpt>
      <trkpt lat="42.038333" lon="0.806450">
        <ele>1684.0</ele>
        <time>2013-09-13T13:06:04Z</time>
      </trkpt>
      <trkpt lat="42.038417" lon="0.806367">
        <ele>1684.0</ele>
        <time>2013-09-13T13:06:05Z</time>
      </trkpt>
      <trkpt lat="42.038500" lon="0.806300">
        <ele>1683.0</ele>
        <time>2013-09-13T13:06:06Z</time>
      </trkpt>
      <trkpt lat="42.038550" lon="0.806217">
        <ele>1684.0</ele>
        <time>2013-09-13T13:06:07Z</time>
      </trkpt>
      <trkpt lat="42.038583" lon="0.806150">
        <ele>1685.0</ele>
        <time>2013-09-13T13:06:08Z</time>
      </trkpt>
      <trkpt lat="42.038600" lon="0.806083">
        <ele>1686.0</ele>
        <time>2013-09-13T13:06:09Z</time>
      </trkpt>
      <trkpt lat="42.038633" lon="0.806000">
        <ele>1688.0</ele>
        <time>2013-09-13T13:06:10Z</time>
      </trkpt>
      <trkpt lat="42.038700" lon="0.805933">
        <ele>1690.0</ele>
        <time>2013-09-13T13:06:11Z</time>
      </trkpt>
      <trkpt lat="42.038783" lon="0.805850">
        <ele>1691.0</ele>
        <time>2013-09-13T13:06:12Z</time>
      </trkpt>
      <trkpt lat="42.038883" lon="0.805817">
        <ele>1692.0</ele>
        <time>2013-09-13T13:06:13Z</time>
      </trkpt>
      <trkpt lat="42.038983" lon="0.805817">
        <ele>1694.0</ele>
        <time>2013-09-13T13:06:14Z</time>
      </trkpt>
      <trkpt lat="42.039083" lon="0.805833">
        <ele>1695.0</ele>
        <time>2013-09-13T13:06:15Z</time>
      </trkpt>
      <trkpt lat="42.039183" lon="0.805883">
        <ele>1697.0</ele>
        <time>2013-09-13T13:06:16Z</time>
      </trkpt>
      <trkpt lat="42.039283" lon="0.805950">
        <ele>1699.0</ele>
        <time>2013-09-13T13:06:17Z</time>
      </trkpt>
      <trkpt lat="42.039367" lon="0.806033">
        <ele>1700.0</ele>
        <time>2013-09-13T13:06:18Z</time>
      </trkpt>
      <trkpt lat="42.039433" lon="0.806167">
        <ele>1701.0</ele>
        <time>2013-09-13T13:06:19Z</time>
      </trkpt>
      <trkpt lat="42.039467" lon="0.806300">
        <ele>1702.0</ele>
        <time>2013-09-13T13:06:20Z</time>
      </trkpt>
      <trkpt lat="42.039517" lon="0.806600">
        <ele>1704.0</ele>
        <time>2013-09-13T13:06:22Z</time>
      </trkpt>
      <trkpt lat="42.039517" lon="0.806750">
        <ele>1706.0</ele>
        <time>2013-09-13T13:06:23Z</time>
      </trkpt>
      <trkpt lat="42.039533" lon="0.806867">
        <ele>1708.0</ele>
        <time>2013-09-13T13:06:24Z</time>
      </trkpt>
      <trkpt lat="42.039533" lon="0.806983">
        <ele>1710.0</ele>
        <time>2013-09-13T13:06:25Z</time>
      </trkpt>
      <trkpt lat="42.039533" lon="0.807100">
        <ele>1713.0</ele>
        <time>2013-09-13T13:06:26Z</time>
      </trkpt>
      <trkpt lat="42.039500" lon="0.807333">
        <ele>1717.0</ele>
        <time>2013-09-13T13:06:28Z</time>
      </trkpt>
      <trkpt lat="42.039467" lon="0.807433">
        <ele>1720.0</ele>
        <time>2013-09-13T13:06:29Z</time>
      </trkpt>
      <trkpt lat="42.039450" lon="0.807550">
        <ele>1722.0</ele>
        <time>2013-09-13T13:06:30Z</time>
      </trkpt>
      <trkpt lat="42.039400" lon="0.807667">
        <ele>1724.0</ele>
        <time>2013-09-13T13:06:31Z</time>
      </trkpt>
      <trkpt lat="42.039367" lon="0.807783">
        <ele>1727.0</ele>
        <time>2013-09-13T13:06:32Z</time>
      </trkpt>
      <trkpt lat="42.039317" lon="0.807867">
        <ele>1731.0</ele>
        <time>2013-09-13T13:06:33Z</time>
      </trkpt>
      <trkpt lat="42.039267" lon="0.807933">
        <ele>1735.0</ele>
        <time>2013-09-13T13:06:34Z</time>
      </trkpt>
      <trkpt lat="42.039217" lon="0.807967">
        <ele>1739.0</ele>
        <time>2013-09-13T13:06:35Z</time>
      </trkpt>
      <trkpt lat="42.039167" lon="0.807983">
        <ele>1742.0</ele>
        <time>2013-09-13T13:06:36Z</time>
      </trkpt>
      <trkpt lat="42.039117" lon="0.807983">
        <ele>1745.0</ele>
        <time>2013-09-13T13:06:37Z</time>
      </trkpt>
      <trkpt lat="42.039067" lon="0.807967">
        <ele>1747.0</ele>
        <time>2013-09-13T13:06:38Z</time>
      </trkpt>
      <trkpt lat="42.039050" lon="0.807917">
        <ele>1749.0</ele>
        <time>2013-09-13T13:06:39Z</time>
      </trkpt>
      <trkpt lat="42.039033" lon="0.807867">
        <ele>1751.0</ele>
        <time>2013-09-13T13:06:40Z</time>
      </trkpt>
      <trkpt lat="42.039033" lon="0.807783">
        <ele>1752.0</ele>
        <time>2013-09-13T13:06:41Z</time>
      </trkpt>
      <trkpt lat="42.039067" lon="0.807700">
        <ele>1754.0</ele>
        <time>2013-09-13T13:06:42Z</time>
      </trkpt>
      <trkpt lat="42.039117" lon="0.807633">
        <ele>1757.0</ele>
        <time>2013-09-13T13:06:43Z</time>
      </trkpt>
      <trkpt lat="42.039167" lon="0.807567">
        <ele>1759.0</ele>
        <time>2013-09-13T13:06:44Z</time>
      </trkpt>
      <trkpt lat="42.039300" lon="0.807417">
        <ele>1764.0</ele>
        <time>2013-09-13T13:06:46Z</time>
      </trkpt>
      <trkpt lat="42.039400" lon="0.807383">
        <ele>1767.0</ele>
        <time>2013-09-13T13:06:47Z</time>
      </trkpt>
      <trkpt lat="42.039500" lon="0.807383">
        <ele>1771.0</ele>
        <time>2013-09-13T13:06:48Z</time>
      </trkpt>
      <trkpt lat="42.039583" lon="0.807417">
        <ele>1775.0</ele>
        <time>2013-09-13T13:06:49Z</time>
      </trkpt>
      <trkpt lat="42.039667" lon="0.807500">
        <ele>1779.0</ele>
        <time>2013-09-13T13:06:50Z</time>
      </trkpt>
      <trkpt lat="42.039733" lon="0.807583">
        <ele>1783.0</ele>
        <time>2013-09-13T13:06:51Z</time>
      </trkpt>
      <trkpt lat="42.039817" lon="0.807683">
        <ele>1786.0</ele>
        <time>2013-09-13T13:06:52Z</time>
      </trkpt>
      <trkpt lat="42.039883" lon="0.807783">
        <ele>1789.0</ele>
        <time>2013-09-13T13:06:53Z</time>
      </trkpt>
      <trkpt lat="42.039950" lon="0.807917">
        <ele>1792.0</ele>
        <time>2013-09-13T13:06:54Z</time>
      </trkpt>
      <trkpt lat="42.039983" lon="0.808067">
        <ele>1796.0</ele>
        <time>2013-09-13T13:06:55Z</time>
      </trkpt>
      <trkpt lat="42.040000" lon="0.808217">
        <ele>1799.0</ele>
        <time>2013-09-13T13:06:56Z</time>
      </trkpt>
      <trkpt lat="42.040000" lon="0.808350">
        <ele>1803.0</ele>
        <time>2013-09-13T13:06:57Z</time>
      </trkpt>
      <trkpt lat="42.039967" lon="0.808483">
        <ele>1806.0</ele>
        <time>2013-09-13T13:06:58Z</time>
      </trkpt>
      <trkpt lat="42.039917" lon="0.808617">
        <ele>1809.0</ele>
        <time>2013-09-13T13:06:59Z</time>
      </trkpt>
      <trkpt lat="42.039867" lon="0.808700">
        <ele>1812.0</ele>
        <time>2013-09-13T13:07:00Z</time>
      </trkpt>
      <trkpt lat="42.039817" lon="0.808783">
        <ele>1816.0</ele>
        <time>2013-09-13T13:07:01Z</time>
      </trkpt>
      <trkpt lat="42.039783" lon="0.808850">
        <ele>1820.0</ele>
        <time>2013-09-13T13:07:02Z</time>
      </trkpt>
      <trkpt lat="42.039733" lon="0.808900">
        <ele>1823.0</ele>
        <time>2013-09-13T13:07:03Z</time>
      </trkpt>
      <trkpt lat="42.039683" lon="0.808967">
        <ele>1826.0</ele>
        <time>2013-09-13T13:07:04Z</time>
      </trkpt>
      <trkpt lat="42.039617" lon="0.809017">
        <ele>1828.0</ele>
        <time>2013-09-13T13:07:05Z</time>
      </trkpt>
      <trkpt lat="42.039550" lon="0.809067">
        <ele>1830.0</ele>
        <time>2013-09-13T13:07:06Z</time>
      </trkpt>
      <trkpt lat="42.039467" lon="0.809083">
        <ele>1830.0</ele>
        <time>2013-09-13T13:07:07Z</time>
      </trkpt>
      <trkpt lat="42.039417" lon="0.809050">
        <ele>1829.0</ele>
        <time>2013-09-13T13:07:08Z</time>
      </trkpt>
      <trkpt lat="42.039383" lon="0.809000">
        <ele>1830.0</ele>
        <time>2013-09-13T13:07:09Z</time>
      </trkpt>
      <trkpt lat="42.039350" lon="0.808933">
        <ele>1831.0</ele>
        <time>2013-09-13T13:07:10Z</time>
      </trkpt>
      <trkpt lat="42.039333" lon="0.808867">
        <ele>1832.0</ele>
        <time>2013-09-13T13:07:11Z</time>
      </trkpt>
      <trkpt lat="42.039317" lon="0.808800">
        <ele>1833.0</ele>
        <time>2013-09-13T13:07:12Z</time>
      </trkpt>
      <trkpt lat="42.039350" lon="0.808667">
        <ele>1835.0</ele>
        <time>2013-09-13T13:07:14Z</time>
      </trkpt>
      <trkpt lat="42.039400" lon="0.808600">
        <ele>1835.0</ele>
        <time>2013-09-13T13:07:15Z</time>
      </trkpt>
      <trkpt lat="42.039483" lon="0.808550">
        <ele>1835.0</ele>
        <time>2013-09-13T13:07:16Z</time>
      </trkpt>
      <trkpt lat="42.039683" lon="0.808567">
        <ele>1836.0</ele>
        <time>2013-09-13T13:07:18Z</time>
      </trkpt>
      <trkpt lat="42.039783" lon="0.808650">
        <ele>1837.0</ele>
        <time>2013-09-13T13:07:19Z</time>
      </trkpt>
      <trkpt lat="42.039883" lon="0.808767">
        <ele>1838.0</ele>
        <time>2013-09-13T13:07:20Z</time>
      </trkpt>
      <trkpt lat="42.039967" lon="0.808883">
        <ele>1841.0</ele>
        <time>2013-09-13T13:07:21Z</time>
      </trkpt>
      <trkpt lat="42.040017" lon="0.809033">
        <ele>1844.0</ele>
        <time>2013-09-13T13:07:22Z</time>
      </trkpt>
      <trkpt lat="42.040067" lon="0.809167">
        <ele>1846.0</ele>
        <time>2013-09-13T13:07:23Z</time>
      </trkpt>
      <trkpt lat="42.040083" lon="0.809300">
        <ele>1848.0</ele>
        <time>2013-09-13T13:07:24Z</time>
      </trkpt>
      <trkpt lat="42.040100" lon="0.809417">
        <ele>1852.0</ele>
        <time>2013-09-13T13:07:25Z</time>
      </trkpt>
      <trkpt lat="42.040100" lon="0.809533">
        <ele>1854.0</ele>
        <time>2013-09-13T13:07:26Z</time>
      </trkpt>
      <trkpt lat="42.040083" lon="0.809667">
        <ele>1856.0</ele>
        <time>2013-09-13T13:07:27Z</time>
      </trkpt>
      <trkpt lat="42.040067" lon="0.809783">
        <ele>1857.0</ele>
        <time>2013-09-13T13:07:28Z</time>
      </trkpt>
      <trkpt lat="42.040050" lon="0.809917">
        <ele>1859.0</ele>
        <time>2013-09-13T13:07:29Z</time>
      </trkpt>
      <trkpt lat="42.040033" lon="0.810033">
        <ele>1860.0</ele>
        <time>2013-09-13T13:07:30Z</time>
      </trkpt>
      <trkpt lat="42.040000" lon="0.810150">
        <ele>1862.0</ele>
        <time>2013-09-13T13:07:31Z</time>
      </trkpt>
      <trkpt lat="42.039967" lon="0.810267">
        <ele>1863.0</ele>
        <time>2013-09-13T13:07:32Z</time>
      </trkpt>
      <trkpt lat="42.039933" lon="0.810367">
        <ele>1865.0</ele>
        <time>2013-09-13T13:07:33Z</time>
      </trkpt>
      <trkpt lat="42.039900" lon="0.810483">
        <ele>1867.0</ele>
        <time>2013-09-13T13:07:34Z</time>
      </trkpt>
      <trkpt lat="42.039867" lon="0.810583">
        <ele>1870.0</ele>
        <time>2013-09-13T13:07:35Z</time>
      </trkpt>
      <trkpt lat="42.039833" lon="0.810667">
        <ele>1871.0</ele>
        <time>2013-09-13T13:07:36Z</time>
      </trkpt>
      <trkpt lat="42.039783" lon="0.810767">
        <ele>1872.0</ele>
        <time>2013-09-13T13:07:37Z</time>
      </trkpt>
      <trkpt lat="42.039733" lon="0.810850">
        <ele>1872.0</ele>
        <time>2013-09-13T13:07:38Z</time>
      </trkpt>
      <trkpt lat="42.039683" lon="0.810950">
        <ele>1873.0</ele>
        <time>2013-09-13T13:07:39Z</time>
      </trkpt>
      <trkpt lat="42.039633" lon="0.811050">
        <ele>1874.0</ele>
        <time>2013-09-13T13:07:40Z</time>
      </trkpt>
      <trkpt lat="42.039600" lon="0.811133">
        <ele>1876.0</ele>
        <time>2013-09-13T13:07:41Z</time>
      </trkpt>
      <trkpt lat="42.039550" lon="0.811200">
        <ele>1878.0</ele>
        <time>2013-09-13T13:07:42Z</time>
      </trkpt>
      <trkpt lat="42.039517" lon="0.811250">
        <ele>1880.0</ele>
        <time>2013-09-13T13:07:43Z</time>
      </trkpt>
      <trkpt lat="42.039450" lon="0.811317">
        <ele>1881.0</ele>
        <time>2013-09-13T13:07:44Z</time>
      </trkpt>
      <trkpt lat="42.039400" lon="0.811400">
        <ele>1881.0</ele>
        <time>2013-09-13T13:07:45Z</time>
      </trkpt>
      <trkpt lat="42.039350" lon="0.811483">
        <ele>1881.0</ele>
        <time>2013-09-13T13:07:46Z</time>
      </trkpt>
      <trkpt lat="42.039283" lon="0.811567">
        <ele>1880.0</ele>
        <time>2013-09-13T13:07:47Z</time>
      </trkpt>
      <trkpt lat="42.039233" lon="0.811667">
        <ele>1880.0</ele>
        <time>2013-09-13T13:07:48Z</time>
      </trkpt>
      <trkpt lat="42.039183" lon="0.811750">
        <ele>1880.0</ele>
        <time>2013-09-13T13:07:49Z</time>
      </trkpt>
      <trkpt lat="42.039117" lon="0.811833">
        <ele>1880.0</ele>
        <time>2013-09-13T13:07:50Z</time>
      </trkpt>
      <trkpt lat="42.039067" lon="0.811933">
        <ele>1879.0</ele>
        <time>2013-09-13T13:07:51Z</time>
      </trkpt>
      <trkpt lat="42.039017" lon="0.812033">
        <ele>1879.0</ele>
        <time>2013-09-13T13:07:52Z</time>
      </trkpt>
      <trkpt lat="42.038967" lon="0.812150">
        <ele>1878.0</ele>
        <time>2013-09-13T13:07:53Z</time>
      </trkpt>
      <trkpt lat="42.038917" lon="0.812267">
        <ele>1877.0</ele>
        <time>2013-09-13T13:07:54Z</time>
      </trkpt>
      <trkpt lat="42.038867" lon="0.812400">
        <ele>1877.0</ele>
        <time>2013-09-13T13:07:55Z</time>
      </trkpt>
      <trkpt lat="42.038833" lon="0.812517">
        <ele>1877.0</ele>
        <time>2013-09-13T13:07:56Z</time>
      </trkpt>
      <trkpt lat="42.038783" lon="0.812633">
        <ele>1877.0</ele>
        <time>2013-09-13T13:07:57Z</time>
      </trkpt>
      <trkpt lat="42.038767" lon="0.812750">
        <ele>1877.0</ele>
        <time>2013-09-13T13:07:58Z</time>
      </trkpt>
      <trkpt lat="42.038733" lon="0.812850">
        <ele>1876.0</ele>
        <time>2013-09-13T13:07:59Z</time>
      </trkpt>
      <trkpt lat="42.038683" lon="0.812967">
        <ele>1875.0</ele>
        <time>2013-09-13T13:08:00Z</time>
      </trkpt>
      <trkpt lat="42.038650" lon="0.813083">
        <ele>1874.0</ele>
        <time>2013-09-13T13:08:01Z</time>
      </trkpt>
      <trkpt lat="42.038600" lon="0.813217">
        <ele>1873.0</ele>
        <time>2013-09-13T13:08:02Z</time>
      </trkpt>
      <trkpt lat="42.038567" lon="0.813333">
        <ele>1873.0</ele>
        <time>2013-09-13T13:08:03Z</time>
      </trkpt>
      <trkpt lat="42.038533" lon="0.813433">
        <ele>1872.0</ele>
        <time>2013-09-13T13:08:04Z</time>
      </trkpt>
      <trkpt lat="42.038500" lon="0.813533">
        <ele>1872.0</ele>
        <time>2013-09-13T13:08:05Z</time>
      </trkpt>
      <trkpt lat="42.038467" lon="0.813650">
        <ele>1871.0</ele>
        <time>2013-09-13T13:08:06Z</time>
      </trkpt>
      <trkpt lat="42.038433" lon="0.813767">
        <ele>1871.0</ele>
        <time>2013-09-13T13:08:07Z</time>
      </trkpt>
      <trkpt lat="42.038383" lon="0.813900">
        <ele>1871.0</ele>
        <time>2013-09-13T13:08:08Z</time>
      </trkpt>
      <trkpt lat="42.038333" lon="0.814017">
        <ele>1870.0</ele>
        <time>2013-09-13T13:08:09Z</time>
      </trkpt>
      <trkpt lat="42.038283" lon="0.814117">
        <ele>1871.0</ele>
        <time>2013-09-13T13:08:10Z</time>
      </trkpt>
      <trkpt lat="42.038250" lon="0.814217">
        <ele>1873.0</ele>
        <time>2013-09-13T13:08:11Z</time>
      </trkpt>
      <trkpt lat="42.038233" lon="0.814317">
        <ele>1876.0</ele>
        <time>2013-09-13T13:08:12Z</time>
      </trkpt>
      <trkpt lat="42.038200" lon="0.814417">
        <ele>1876.0</ele>
        <time>2013-09-13T13:08:13Z</time>
      </trkpt>
      <trkpt lat="42.038183" lon="0.814533">
        <ele>1875.0</ele>
        <time>2013-09-13T13:08:14Z</time>
      </trkpt>
      <trkpt lat="42.038133" lon="0.814650">
        <ele>1876.0</ele>
        <time>2013-09-13T13:08:15Z</time>
      </trkpt>
      <trkpt lat="42.038100" lon="0.814767">
        <ele>1877.0</ele>
        <time>2013-09-13T13:08:16Z</time>
      </trkpt>
      <trkpt lat="42.038050" lon="0.814900">
        <ele>1878.0</ele>
        <time>2013-09-13T13:08:17Z</time>
      </trkpt>
      <trkpt lat="42.038017" lon="0.815000">
        <ele>1880.0</ele>
        <time>2013-09-13T13:08:18Z</time>
      </trkpt>
      <trkpt lat="42.037983" lon="0.815117">
        <ele>1881.0</ele>
        <time>2013-09-13T13:08:19Z</time>
      </trkpt>
      <trkpt lat="42.037933" lon="0.815217">
        <ele>1883.0</ele>
        <time>2013-09-13T13:08:20Z</time>
      </trkpt>
      <trkpt lat="42.037867" lon="0.815317">
        <ele>1884.0</ele>
        <time>2013-09-13T13:08:21Z</time>
      </trkpt>
      <trkpt lat="42.037800" lon="0.815417">
        <ele>1885.0</ele>
        <time>2013-09-13T13:08:22Z</time>
      </trkpt>
      <trkpt lat="42.037750" lon="0.815517">
        <ele>1886.0</ele>
        <time>2013-09-13T13:08:23Z</time>
      </trkpt>
      <trkpt lat="42.037683" lon="0.815617">
        <ele>1887.0</ele>
        <time>2013-09-13T13:08:24Z</time>
      </trkpt>
      <trkpt lat="42.037633" lon="0.815700">
        <ele>1888.0</ele>
        <time>2013-09-13T13:08:25Z</time>
      </trkpt>
      <trkpt lat="42.037583" lon="0.815800">
        <ele>1889.0</ele>
        <time>2013-09-13T13:08:26Z</time>
      </trkpt>
      <trkpt lat="42.037517" lon="0.815900">
        <ele>1890.0</ele>
        <time>2013-09-13T13:08:27Z</time>
      </trkpt>
      <trkpt lat="42.037450" lon="0.816000">
        <ele>1890.0</ele>
        <time>2013-09-13T13:08:28Z</time>
      </trkpt>
      <trkpt lat="42.037400" lon="0.816100">
        <ele>1890.0</ele>
        <time>2013-09-13T13:08:29Z</time>
      </trkpt>
      <trkpt lat="42.037350" lon="0.816200">
        <ele>1891.0</ele>
        <time>2013-09-13T13:08:30Z</time>
      </trkpt>
      <trkpt lat="42.037317" lon="0.816300">
        <ele>1892.0</ele>
        <time>2013-09-13T13:08:31Z</time>
      </trkpt>
      <trkpt lat="42.037267" lon="0.816383">
        <ele>1893.0</ele>
        <time>2013-09-13T13:08:32Z</time>
      </trkpt>
      <trkpt lat="42.037200" lon="0.816483">
        <ele>1893.0</ele>
        <time>2013-09-13T13:08:33Z</time>
      </trkpt>
      <trkpt lat="42.037150" lon="0.816600">
        <ele>1892.0</ele>
        <time>2013-09-13T13:08:34Z</time>
      </trkpt>
      <trkpt lat="42.037100" lon="0.816733">
        <ele>1892.0</ele>
        <time>2013-09-13T13:08:35Z</time>
      </trkpt>
      <trkpt lat="42.037067" lon="0.816850">
        <ele>1892.0</ele>
        <time>2013-09-13T13:08:36Z</time>
      </trkpt>
      <trkpt lat="42.037033" lon="0.816967">
        <ele>1892.0</ele>
        <time>2013-09-13T13:08:37Z</time>
      </trkpt>
      <trkpt lat="42.036983" lon="0.817083">
        <ele>1892.0</ele>
        <time>2013-09-13T13:08:38Z</time>
      </trkpt>
      <trkpt lat="42.036950" lon="0.817183">
        <ele>1892.0</ele>
        <time>2013-09-13T13:08:39Z</time>
      </trkpt>
      <trkpt lat="42.036900" lon="0.817317">
        <ele>1892.0</ele>
        <time>2013-09-13T13:08:40Z</time>
      </trkpt>
      <trkpt lat="42.036867" lon="0.817433">
        <ele>1891.0</ele>
        <time>2013-09-13T13:08:41Z</time>
      </trkpt>
      <trkpt lat="42.036817" lon="0.817533">
        <ele>1891.0</ele>
        <time>2013-09-13T13:08:42Z</time>
      </trkpt>
      <trkpt lat="42.036767" lon="0.817633">
        <ele>1892.0</ele>
        <time>2013-09-13T13:08:43Z</time>
      </trkpt>
      <trkpt lat="42.036733" lon="0.817717">
        <ele>1892.0</ele>
        <time>2013-09-13T13:08:44Z</time>
      </trkpt>
      <trkpt lat="42.036683" lon="0.817817">
        <ele>1892.0</ele>
        <time>2013-09-13T13:08:45Z</time>
      </trkpt>
      <trkpt lat="42.036633" lon="0.817933">
        <ele>1892.0</ele>
        <time>2013-09-13T13:08:46Z</time>
      </trkpt>
      <trkpt lat="42.036583" lon="0.818050">
        <ele>1892.0</ele>
        <time>2013-09-13T13:08:47Z</time>
      </trkpt>
      <trkpt lat="42.036533" lon="0.818167">
        <ele>1891.0</ele>
        <time>2013-09-13T13:08:48Z</time>
      </trkpt>
      <trkpt lat="42.036483" lon="0.818283">
        <ele>1892.0</ele>
        <time>2013-09-13T13:08:49Z</time>
      </trkpt>
      <trkpt lat="42.036433" lon="0.818383">
        <ele>1893.0</ele>
        <time>2013-09-13T13:08:50Z</time>
      </trkpt>
      <trkpt lat="42.036400" lon="0.818500">
        <ele>1893.0</ele>
        <time>2013-09-13T13:08:51Z</time>
      </trkpt>
      <trkpt lat="42.036367" lon="0.818617">
        <ele>1893.0</ele>
        <time>2013-09-13T13:08:52Z</time>
      </trkpt>
      <trkpt lat="42.036317" lon="0.818767">
        <ele>1894.0</ele>
        <time>2013-09-13T13:08:53Z</time>
      </trkpt>
      <trkpt lat="42.036283" lon="0.818900">
        <ele>1895.0</ele>
        <time>2013-09-13T13:08:54Z</time>
      </trkpt>
      <trkpt lat="42.036250" lon="0.819050">
        <ele>1897.0</ele>
        <time>2013-09-13T13:08:55Z</time>
      </trkpt>
      <trkpt lat="42.036217" lon="0.819200">
        <ele>1899.0</ele>
        <time>2013-09-13T13:08:56Z</time>
      </trkpt>
      <trkpt lat="42.036183" lon="0.819317">
        <ele>1900.0</ele>
        <time>2013-09-13T13:08:57Z</time>
      </trkpt>
      <trkpt lat="42.036150" lon="0.819433">
        <ele>1902.0</ele>
        <time>2013-09-13T13:08:58Z</time>
      </trkpt>
      <trkpt lat="42.036100" lon="0.819517">
        <ele>1903.0</ele>
        <time>2013-09-13T13:08:59Z</time>
      </trkpt>
      <trkpt lat="42.036017" lon="0.819600">
        <ele>1904.0</ele>
        <time>2013-09-13T13:09:00Z</time>
      </trkpt>
      <trkpt lat="42.035950" lon="0.819650">
        <ele>1905.0</ele>
        <time>2013-09-13T13:09:01Z</time>
      </trkpt>
      <trkpt lat="42.035867" lon="0.819683">
        <ele>1906.0</ele>
        <time>2013-09-13T13:09:02Z</time>
      </trkpt>
      <trkpt lat="42.035800" lon="0.819683">
        <ele>1908.0</ele>
        <time>2013-09-13T13:09:03Z</time>
      </trkpt>
      <trkpt lat="42.035750" lon="0.819667">
        <ele>1910.0</ele>
        <time>2013-09-13T13:09:04Z</time>
      </trkpt>
      <trkpt lat="42.035717" lon="0.819617">
        <ele>1911.0</ele>
        <time>2013-09-13T13:09:05Z</time>
      </trkpt>
      <trkpt lat="42.035700" lon="0.819567">
        <ele>1911.0</ele>
        <time>2013-09-13T13:09:06Z</time>
      </trkpt>
      <trkpt lat="42.035700" lon="0.819517">
        <ele>1912.0</ele>
        <time>2013-09-13T13:09:07Z</time>
      </trkpt>
      <trkpt lat="42.035717" lon="0.819450">
        <ele>1912.0</ele>
        <time>2013-09-13T13:09:08Z</time>
      </trkpt>
      <trkpt lat="42.035767" lon="0.819400">
        <ele>1913.0</ele>
        <time>2013-09-13T13:09:09Z</time>
      </trkpt>
      <trkpt lat="42.035817" lon="0.819383">
        <ele>1914.0</ele>
        <time>2013-09-13T13:09:10Z</time>
      </trkpt>
      <trkpt lat="42.035883" lon="0.819383">
        <ele>1915.0</ele>
        <time>2013-09-13T13:09:11Z</time>
      </trkpt>
      <trkpt lat="42.035967" lon="0.819400">
        <ele>1915.0</ele>
        <time>2013-09-13T13:09:12Z</time>
      </trkpt>
      <trkpt lat="42.036050" lon="0.819417">
        <ele>1916.0</ele>
        <time>2013-09-13T13:09:13Z</time>
      </trkpt>
      <trkpt lat="42.036150" lon="0.819467">
        <ele>1916.0</ele>
        <time>2013-09-13T13:09:14Z</time>
      </trkpt>
      <trkpt lat="42.036233" lon="0.819567">
        <ele>1917.0</ele>
        <time>2013-09-13T13:09:15Z</time>
      </trkpt>
      <trkpt lat="42.036317" lon="0.819683">
        <ele>1918.0</ele>
        <time>2013-09-13T13:09:16Z</time>
      </trkpt>
      <trkpt lat="42.036383" lon="0.819800">
        <ele>1920.0</ele>
        <time>2013-09-13T13:09:17Z</time>
      </trkpt>
      <trkpt lat="42.036417" lon="0.819950">
        <ele>1921.0</ele>
        <time>2013-09-13T13:09:18Z</time>
      </trkpt>
      <trkpt lat="42.036450" lon="0.820083">
        <ele>1922.0</ele>
        <time>2013-09-13T13:09:19Z</time>
      </trkpt>
      <trkpt lat="42.036450" lon="0.820233">
        <ele>1923.0</ele>
        <time>2013-09-13T13:09:20Z</time>
      </trkpt>
      <trkpt lat="42.036450" lon="0.820367">
        <ele>1923.0</ele>
        <time>2013-09-13T13:09:21Z</time>
      </trkpt>
      <trkpt lat="42.036433" lon="0.820500">
        <ele>1924.0</ele>
        <time>2013-09-13T13:09:22Z</time>
      </trkpt>
      <trkpt lat="42.036383" lon="0.820633">
        <ele>1924.0</ele>
        <time>2013-09-13T13:09:23Z</time>
      </trkpt>
      <trkpt lat="42.036333" lon="0.820750">
        <ele>1923.0</ele>
        <time>2013-09-13T13:09:24Z</time>
      </trkpt>
      <trkpt lat="42.036267" lon="0.820850">
        <ele>1924.0</ele>
        <time>2013-09-13T13:09:25Z</time>
      </trkpt>
      <trkpt lat="42.036200" lon="0.820917">
        <ele>1925.0</ele>
        <time>2013-09-13T13:09:26Z</time>
      </trkpt>
      <trkpt lat="42.036117" lon="0.820950">
        <ele>1925.0</ele>
        <time>2013-09-13T13:09:27Z</time>
      </trkpt>
      <trkpt lat="42.036033" lon="0.820983">
        <ele>1926.0</ele>
        <time>2013-09-13T13:09:28Z</time>
      </trkpt>
      <trkpt lat="42.035950" lon="0.821033">
        <ele>1927.0</ele>
        <time>2013-09-13T13:09:29Z</time>
      </trkpt>
      <trkpt lat="42.035867" lon="0.821083">
        <ele>1927.0</ele>
        <time>2013-09-13T13:09:30Z</time>
      </trkpt>
      <trkpt lat="42.035783" lon="0.821167">
        <ele>1927.0</ele>
        <time>2013-09-13T13:09:31Z</time>
      </trkpt>
      <trkpt lat="42.035717" lon="0.821250">
        <ele>1928.0</ele>
        <time>2013-09-13T13:09:32Z</time>
      </trkpt>
      <trkpt lat="42.035633" lon="0.821367">
        <ele>1928.0</ele>
        <time>2013-09-13T13:09:33Z</time>
      </trkpt>
      <trkpt lat="42.035567" lon="0.821483">
        <ele>1928.0</ele>
        <time>2013-09-13T13:09:34Z</time>
      </trkpt>
      <trkpt lat="42.035500" lon="0.821617">
        <ele>1928.0</ele>
        <time>2013-09-13T13:09:35Z</time>
      </trkpt>
      <trkpt lat="42.035467" lon="0.821750">
        <ele>1927.0</ele>
        <time>2013-09-13T13:09:36Z</time>
      </trkpt>
      <trkpt lat="42.035433" lon="0.821900">
        <ele>1927.0</ele>
        <time>2013-09-13T13:09:37Z</time>
      </trkpt>
      <trkpt lat="42.035400" lon="0.822033">
        <ele>1926.0</ele>
        <time>2013-09-13T13:09:38Z</time>
      </trkpt>
      <trkpt lat="42.035367" lon="0.822200">
        <ele>1925.0</ele>
        <time>2013-09-13T13:09:39Z</time>
      </trkpt>
      <trkpt lat="42.035350" lon="0.822350">
        <ele>1924.0</ele>
        <time>2013-09-13T13:09:40Z</time>
      </trkpt>
      <trkpt lat="42.035317" lon="0.822517">
        <ele>1922.0</ele>
        <time>2013-09-13T13:09:41Z</time>
      </trkpt>
      <trkpt lat="42.035300" lon="0.822683">
        <ele>1921.0</ele>
        <time>2013-09-13T13:09:42Z</time>
      </trkpt>
      <trkpt lat="42.035283" lon="0.822833">
        <ele>1919.0</ele>
        <time>2013-09-13T13:09:43Z</time>
      </trkpt>
      <trkpt lat="42.035267" lon="0.823000">
        <ele>1918.0</ele>
        <time>2013-09-13T13:09:44Z</time>
      </trkpt>
      <trkpt lat="42.035233" lon="0.823150">
        <ele>1916.0</ele>
        <time>2013-09-13T13:09:45Z</time>
      </trkpt>
      <trkpt lat="42.035217" lon="0.823317">
        <ele>1915.0</ele>
        <time>2013-09-13T13:09:46Z</time>
      </trkpt>
      <trkpt lat="42.035183" lon="0.823467">
        <ele>1913.0</ele>
        <time>2013-09-13T13:09:47Z</time>
      </trkpt>
      <trkpt lat="42.035167" lon="0.823633">
        <ele>1911.0</ele>
        <time>2013-09-13T13:09:48Z</time>
      </trkpt>
      <trkpt lat="42.035133" lon="0.823800">
        <ele>1909.0</ele>
        <time>2013-09-13T13:09:49Z</time>
      </trkpt>
      <trkpt lat="42.035117" lon="0.823950">
        <ele>1908.0</ele>
        <time>2013-09-13T13:09:50Z</time>
      </trkpt>
      <trkpt lat="42.035100" lon="0.824117">
        <ele>1905.0</ele>
        <time>2013-09-13T13:09:51Z</time>
      </trkpt>
      <trkpt lat="42.035067" lon="0.824267">
        <ele>1904.0</ele>
        <time>2013-09-13T13:09:52Z</time>
      </trkpt>
      <trkpt lat="42.035033" lon="0.824417">
        <ele>1903.0</ele>
        <time>2013-09-13T13:09:53Z</time>
      </trkpt>
      <trkpt lat="42.035017" lon="0.824567">
        <ele>1901.0</ele>
        <time>2013-09-13T13:09:54Z</time>
      </trkpt>
      <trkpt lat="42.034967" lon="0.824717">
        <ele>1899.0</ele>
        <time>2013-09-13T13:09:55Z</time>
      </trkpt>
      <trkpt lat="42.034933" lon="0.824867">
        <ele>1897.0</ele>
        <time>2013-09-13T13:09:56Z</time>
      </trkpt>
      <trkpt lat="42.034900" lon="0.825017">
        <ele>1895.0</ele>
        <time>2013-09-13T13:09:57Z</time>
      </trkpt>
      <trkpt lat="42.034867" lon="0.825183">
        <ele>1894.0</ele>
        <time>2013-09-13T13:09:58Z</time>
      </trkpt>
      <trkpt lat="42.034833" lon="0.825317">
        <ele>1892.0</ele>
        <time>2013-09-13T13:09:59Z</time>
      </trkpt>
      <trkpt lat="42.034817" lon="0.825467">
        <ele>1891.0</ele>
        <time>2013-09-13T13:10:00Z</time>
      </trkpt>
      <trkpt lat="42.034800" lon="0.825600">
        <ele>1890.0</ele>
        <time>2013-09-13T13:10:01Z</time>
      </trkpt>
      <trkpt lat="42.034767" lon="0.825733">
        <ele>1888.0</ele>
        <time>2013-09-13T13:10:02Z</time>
      </trkpt>
      <trkpt lat="42.034750" lon="0.825867">
        <ele>1887.0</ele>
        <time>2013-09-13T13:10:03Z</time>
      </trkpt>
      <trkpt lat="42.034717" lon="0.826017">
        <ele>1885.0</ele>
        <time>2013-09-13T13:10:04Z</time>
      </trkpt>
      <trkpt lat="42.034700" lon="0.826167">
        <ele>1883.0</ele>
        <time>2013-09-13T13:10:05Z</time>
      </trkpt>
      <trkpt lat="42.034667" lon="0.826300">
        <ele>1881.0</ele>
        <time>2013-09-13T13:10:06Z</time>
      </trkpt>
      <trkpt lat="42.034617" lon="0.826567">
        <ele>1879.0</ele>
        <time>2013-09-13T13:10:08Z</time>
      </trkpt>
      <trkpt lat="42.034583" lon="0.826700">
        <ele>1877.0</ele>
        <time>2013-09-13T13:10:09Z</time>
      </trkpt>
      <trkpt lat="42.034567" lon="0.826867">
        <ele>1875.0</ele>
        <time>2013-09-13T13:10:10Z</time>
      </trkpt>
      <trkpt lat="42.034533" lon="0.827200">
        <ele>1872.0</ele>
        <time>2013-09-13T13:10:12Z</time>
      </trkpt>
      <trkpt lat="42.034500" lon="0.827350">
        <ele>1871.0</ele>
        <time>2013-09-13T13:10:13Z</time>
      </trkpt>
      <trkpt lat="42.034483" lon="0.827483">
        <ele>1871.0</ele>
        <time>2013-09-13T13:10:14Z</time>
      </trkpt>
      <trkpt lat="42.034467" lon="0.827617">
        <ele>1870.0</ele>
        <time>2013-09-13T13:10:15Z</time>
      </trkpt>
      <trkpt lat="42.034400" lon="0.827883">
        <ele>1867.0</ele>
        <time>2013-09-13T13:10:17Z</time>
      </trkpt>
      <trkpt lat="42.034367" lon="0.828033">
        <ele>1865.0</ele>
        <time>2013-09-13T13:10:18Z</time>
      </trkpt>
      <trkpt lat="42.034333" lon="0.828183">
        <ele>1863.0</ele>
        <time>2013-09-13T13:10:19Z</time>
      </trkpt>
      <trkpt lat="42.034300" lon="0.828333">
        <ele>1862.0</ele>
        <time>2013-09-13T13:10:20Z</time>
      </trkpt>
      <trkpt lat="42.034267" lon="0.828483">
        <ele>1860.0</ele>
        <time>2013-09-13T13:10:21Z</time>
      </trkpt>
      <trkpt lat="42.034233" lon="0.828617">
        <ele>1860.0</ele>
        <time>2013-09-13T13:10:22Z</time>
      </trkpt>
      <trkpt lat="42.034200" lon="0.828750">
        <ele>1859.0</ele>
        <time>2013-09-13T13:10:23Z</time>
      </trkpt>
      <trkpt lat="42.034167" lon="0.828883">
        <ele>1857.0</ele>
        <time>2013-09-13T13:10:24Z</time>
      </trkpt>
      <trkpt lat="42.034133" lon="0.829033">
        <ele>1856.0</ele>
        <time>2013-09-13T13:10:25Z</time>
      </trkpt>
      <trkpt lat="42.034100" lon="0.829183">
        <ele>1854.0</ele>
        <time>2013-09-13T13:10:26Z</time>
      </trkpt>
      <trkpt lat="42.034050" lon="0.829333">
        <ele>1852.0</ele>
        <time>2013-09-13T13:10:27Z</time>
      </trkpt>
      <trkpt lat="42.034017" lon="0.829483">
        <ele>1850.0</ele>
        <time>2013-09-13T13:10:28Z</time>
      </trkpt>
      <trkpt lat="42.033983" lon="0.829617">
        <ele>1849.0</ele>
        <time>2013-09-13T13:10:29Z</time>
      </trkpt>
      <trkpt lat="42.033950" lon="0.829767">
        <ele>1847.0</ele>
        <time>2013-09-13T13:10:30Z</time>
      </trkpt>
      <trkpt lat="42.033917" lon="0.829900">
        <ele>1846.0</ele>
        <time>2013-09-13T13:10:31Z</time>
      </trkpt>
      <trkpt lat="42.033900" lon="0.830050">
        <ele>1844.0</ele>
        <time>2013-09-13T13:10:32Z</time>
      </trkpt>
      <trkpt lat="42.033867" lon="0.830200">
        <ele>1843.0</ele>
        <time>2013-09-13T13:10:33Z</time>
      </trkpt>
      <trkpt lat="42.033850" lon="0.830350">
        <ele>1841.0</ele>
        <time>2013-09-13T13:10:34Z</time>
      </trkpt>
      <trkpt lat="42.033817" lon="0.830500">
        <ele>1839.0</ele>
        <time>2013-09-13T13:10:35Z</time>
      </trkpt>
      <trkpt lat="42.033783" lon="0.830633">
        <ele>1837.0</ele>
        <time>2013-09-13T13:10:36Z</time>
      </trkpt>
      <trkpt lat="42.033750" lon="0.830783">
        <ele>1836.0</ele>
        <time>2013-09-13T13:10:37Z</time>
      </trkpt>
      <trkpt lat="42.033700" lon="0.830917">
        <ele>1834.0</ele>
        <time>2013-09-13T13:10:38Z</time>
      </trkpt>
      <trkpt lat="42.033667" lon="0.831067">
        <ele>1833.0</ele>
        <time>2013-09-13T13:10:39Z</time>
      </trkpt>
      <trkpt lat="42.033617" lon="0.831200">
        <ele>1831.0</ele>
        <time>2013-09-13T13:10:40Z</time>
      </trkpt>
      <trkpt lat="42.033583" lon="0.831350">
        <ele>1829.0</ele>
        <time>2013-09-13T13:10:41Z</time>
      </trkpt>
      <trkpt lat="42.033533" lon="0.831483">
        <ele>1827.0</ele>
        <time>2013-09-13T13:10:42Z</time>
      </trkpt>
      <trkpt lat="42.033500" lon="0.831633">
        <ele>1825.0</ele>
        <time>2013-09-13T13:10:43Z</time>
      </trkpt>
      <trkpt lat="42.033450" lon="0.831750">
        <ele>1824.0</ele>
        <time>2013-09-13T13:10:44Z</time>
      </trkpt>
      <trkpt lat="42.033417" lon="0.831883">
        <ele>1822.0</ele>
        <time>2013-09-13T13:10:45Z</time>
      </trkpt>
      <trkpt lat="42.033367" lon="0.832017">
        <ele>1820.0</ele>
        <time>2013-09-13T13:10:46Z</time>
      </trkpt>
      <trkpt lat="42.033333" lon="0.832150">
        <ele>1819.0</ele>
        <time>2013-09-13T13:10:47Z</time>
      </trkpt>
      <trkpt lat="42.033300" lon="0.832283">
        <ele>1817.0</ele>
        <time>2013-09-13T13:10:48Z</time>
      </trkpt>
      <trkpt lat="42.033250" lon="0.832417">
        <ele>1815.0</ele>
        <time>2013-09-13T13:10:49Z</time>
      </trkpt>
      <trkpt lat="42.033217" lon="0.832567">
        <ele>1813.0</ele>
        <time>2013-09-13T13:10:50Z</time>
      </trkpt>
      <trkpt lat="42.033183" lon="0.832717">
        <ele>1812.0</ele>
        <time>2013-09-13T13:10:51Z</time>
      </trkpt>
      <trkpt lat="42.033133" lon="0.832867">
        <ele>1810.0</ele>
        <time>2013-09-13T13:10:52Z</time>
      </trkpt>
      <trkpt lat="42.033100" lon="0.833000">
        <ele>1809.0</ele>
        <time>2013-09-13T13:10:53Z</time>
      </trkpt>
      <trkpt lat="42.033083" lon="0.833150">
        <ele>1808.0</ele>
        <time>2013-09-13T13:10:54Z</time>
      </trkpt>
      <trkpt lat="42.033050" lon="0.833283">
        <ele>1807.0</ele>
        <time>2013-09-13T13:10:55Z</time>
      </trkpt>
      <trkpt lat="42.033017" lon="0.833433">
        <ele>1806.0</ele>
        <time>2013-09-13T13:10:56Z</time>
      </trkpt>
      <trkpt lat="42.032983" lon="0.833583">
        <ele>1805.0</ele>
        <time>2013-09-13T13:10:57Z</time>
      </trkpt>
      <trkpt lat="42.032950" lon="0.833733">
        <ele>1803.0</ele>
        <time>2013-09-13T13:10:58Z</time>
      </trkpt>
      <trkpt lat="42.032933" lon="0.833867">
        <ele>1802.0</ele>
        <time>2013-09-13T13:10:59Z</time>
      </trkpt>
      <trkpt lat="42.032900" lon="0.834000">
        <ele>1802.0</ele>
        <time>2013-09-13T13:11:00Z</time>
      </trkpt>
      <trkpt lat="42.032867" lon="0.834117">
        <ele>1801.0</ele>
        <time>2013-09-13T13:11:01Z</time>
      </trkpt>
      <trkpt lat="42.032850" lon="0.834250">
        <ele>1799.0</ele>
        <time>2013-09-13T13:11:02Z</time>
      </trkpt>
      <trkpt lat="42.032817" lon="0.834400">
        <ele>1797.0</ele>
        <time>2013-09-13T13:11:03Z</time>
      </trkpt>
      <trkpt lat="42.032783" lon="0.834533">
        <ele>1795.0</ele>
        <time>2013-09-13T13:11:04Z</time>
      </trkpt>
      <trkpt lat="42.032750" lon="0.834683">
        <ele>1793.0</ele>
        <time>2013-09-13T13:11:05Z</time>
      </trkpt>
      <trkpt lat="42.032717" lon="0.834817">
        <ele>1792.0</ele>
        <time>2013-09-13T13:11:06Z</time>
      </trkpt>
      <trkpt lat="42.032683" lon="0.834950">
        <ele>1791.0</ele>
        <time>2013-09-13T13:11:07Z</time>
      </trkpt>
      <trkpt lat="42.032667" lon="0.835083">
        <ele>1790.0</ele>
        <time>2013-09-13T13:11:08Z</time>
      </trkpt>
      <trkpt lat="42.032633" lon="0.835217">
        <ele>1789.0</ele>
        <time>2013-09-13T13:11:09Z</time>
      </trkpt>
      <trkpt lat="42.032600" lon="0.835350">
        <ele>1788.0</ele>
        <time>2013-09-13T13:11:10Z</time>
      </trkpt>
      <trkpt lat="42.032567" lon="0.835500">
        <ele>1786.0</ele>
        <time>2013-09-13T13:11:11Z</time>
      </trkpt>
      <trkpt lat="42.032533" lon="0.835633">
        <ele>1784.0</ele>
        <time>2013-09-13T13:11:12Z</time>
      </trkpt>
      <trkpt lat="42.032500" lon="0.835767">
        <ele>1783.0</ele>
        <time>2013-09-13T13:11:13Z</time>
      </trkpt>
      <trkpt lat="42.032483" lon="0.835900">
        <ele>1781.0</ele>
        <time>2013-09-13T13:11:14Z</time>
      </trkpt>
      <trkpt lat="42.032450" lon="0.836033">
        <ele>1780.0</ele>
        <time>2013-09-13T13:11:15Z</time>
      </trkpt>
      <trkpt lat="42.032417" lon="0.836150">
        <ele>1778.0</ele>
        <time>2013-09-13T13:11:16Z</time>
      </trkpt>
      <trkpt lat="42.032383" lon="0.836283">
        <ele>1776.0</ele>
        <time>2013-09-13T13:11:17Z</time>
      </trkpt>
      <trkpt lat="42.032350" lon="0.836417">
        <ele>1774.0</ele>
        <time>2013-09-13T13:11:18Z</time>
      </trkpt>
      <trkpt lat="42.032300" lon="0.836550">
        <ele>1773.0</ele>
        <time>2013-09-13T13:11:19Z</time>
      </trkpt>
      <trkpt lat="42.032267" lon="0.836683">
        <ele>1772.0</ele>
        <time>2013-09-13T13:11:20Z</time>
      </trkpt>
      <trkpt lat="42.032233" lon="0.836800">
        <ele>1770.0</ele>
        <time>2013-09-13T13:11:21Z</time>
      </trkpt>
      <trkpt lat="42.032200" lon="0.836933">
        <ele>1770.0</ele>
        <time>2013-09-13T13:11:22Z</time>
      </trkpt>
      <trkpt lat="42.032167" lon="0.837050">
        <ele>1768.0</ele>
        <time>2013-09-13T13:11:23Z</time>
      </trkpt>
      <trkpt lat="42.032133" lon="0.837167">
        <ele>1767.0</ele>
        <time>2013-09-13T13:11:24Z</time>
      </trkpt>
      <trkpt lat="42.032100" lon="0.837300">
        <ele>1765.0</ele>
        <time>2013-09-13T13:11:25Z</time>
      </trkpt>
      <trkpt lat="42.032050" lon="0.837433">
        <ele>1763.0</ele>
        <time>2013-09-13T13:11:26Z</time>
      </trkpt>
      <trkpt lat="42.032017" lon="0.837567">
        <ele>1762.0</ele>
        <time>2013-09-13T13:11:27Z</time>
      </trkpt>
      <trkpt lat="42.032000" lon="0.837700">
        <ele>1761.0</ele>
        <time>2013-09-13T13:11:28Z</time>
      </trkpt>
      <trkpt lat="42.031967" lon="0.837833">
        <ele>1760.0</ele>
        <time>2013-09-13T13:11:29Z</time>
      </trkpt>
      <trkpt lat="42.031933" lon="0.837967">
        <ele>1759.0</ele>
        <time>2013-09-13T13:11:30Z</time>
      </trkpt>
      <trkpt lat="42.031900" lon="0.838100">
        <ele>1757.0</ele>
        <time>2013-09-13T13:11:31Z</time>
      </trkpt>
      <trkpt lat="42.031883" lon="0.838233">
        <ele>1756.0</ele>
        <time>2013-09-13T13:11:32Z</time>
      </trkpt>
      <trkpt lat="42.031850" lon="0.838367">
        <ele>1755.0</ele>
        <time>2013-09-13T13:11:33Z</time>
      </trkpt>
      <trkpt lat="42.031817" lon="0.838517">
        <ele>1753.0</ele>
        <time>2013-09-13T13:11:34Z</time>
      </trkpt>
      <trkpt lat="42.031800" lon="0.838650">
        <ele>1752.0</ele>
        <time>2013-09-13T13:11:35Z</time>
      </trkpt>
      <trkpt lat="42.031767" lon="0.838783">
        <ele>1751.0</ele>
        <time>2013-09-13T13:11:36Z</time>
      </trkpt>
      <trkpt lat="42.031750" lon="0.838917">
        <ele>1750.0</ele>
        <time>2013-09-13T13:11:37Z</time>
      </trkpt>
      <trkpt lat="42.031717" lon="0.839050">
        <ele>1749.0</ele>
        <time>2013-09-13T13:11:38Z</time>
      </trkpt>
      <trkpt lat="42.031683" lon="0.839183">
        <ele>1747.0</ele>
        <time>2013-09-13T13:11:39Z</time>
      </trkpt>
      <trkpt lat="42.031667" lon="0.839317">
        <ele>1745.0</ele>
        <time>2013-09-13T13:11:40Z</time>
      </trkpt>
      <trkpt lat="42.031633" lon="0.839450">
        <ele>1744.0</ele>
        <time>2013-09-13T13:11:41Z</time>
      </trkpt>
      <trkpt lat="42.031617" lon="0.839583">
        <ele>1742.0</ele>
        <time>2013-09-13T13:11:42Z</time>
      </trkpt>
      <trkpt lat="42.031583" lon="0.839733">
        <ele>1740.0</ele>
        <time>2013-09-13T13:11:43Z</time>
      </trkpt>
      <trkpt lat="42.031567" lon="0.839883">
        <ele>1738.0</ele>
        <time>2013-09-13T13:11:44Z</time>
      </trkpt>
      <trkpt lat="42.031533" lon="0.840033">
        <ele>1737.0</ele>
        <time>2013-09-13T13:11:45Z</time>
      </trkpt>
      <trkpt lat="42.031500" lon="0.840167">
        <ele>1735.0</ele>
        <time>2013-09-13T13:11:46Z</time>
      </trkpt>
      <trkpt lat="42.031483" lon="0.840300">
        <ele>1734.0</ele>
        <time>2013-09-13T13:11:47Z</time>
      </trkpt>
      <trkpt lat="42.031450" lon="0.840433">
        <ele>1733.0</ele>
        <time>2013-09-13T13:11:48Z</time>
      </trkpt>
      <trkpt lat="42.031433" lon="0.840583">
        <ele>1732.0</ele>
        <time>2013-09-13T13:11:49Z</time>
      </trkpt>
      <trkpt lat="42.031400" lon="0.840717">
        <ele>1730.0</ele>
        <time>2013-09-13T13:11:50Z</time>
      </trkpt>
      <trkpt lat="42.031383" lon="0.840867">
        <ele>1729.0</ele>
        <time>2013-09-13T13:11:51Z</time>
      </trkpt>
      <trkpt lat="42.031367" lon="0.841017">
        <ele>1727.0</ele>
        <time>2013-09-13T13:11:52Z</time>
      </trkpt>
      <trkpt lat="42.031333" lon="0.841150">
        <ele>1726.0</ele>
        <time>2013-09-13T13:11:53Z</time>
      </trkpt>
      <trkpt lat="42.031317" lon="0.841283">
        <ele>1724.0</ele>
        <time>2013-09-13T13:11:54Z</time>
      </trkpt>
      <trkpt lat="42.031300" lon="0.841433">
        <ele>1722.0</ele>
        <time>2013-09-13T13:11:55Z</time>
      </trkpt>
      <trkpt lat="42.031267" lon="0.841567">
        <ele>1721.0</ele>
        <time>2013-09-13T13:11:56Z</time>
      </trkpt>
      <trkpt lat="42.031250" lon="0.841700">
        <ele>1720.0</ele>
        <time>2013-09-13T13:11:57Z</time>
      </trkpt>
      <trkpt lat="42.031217" lon="0.841850">
        <ele>1718.0</ele>
        <time>2013-09-13T13:11:58Z</time>
      </trkpt>
      <trkpt lat="42.031183" lon="0.841983">
        <ele>1717.0</ele>
        <time>2013-09-13T13:11:59Z</time>
      </trkpt>
      <trkpt lat="42.031150" lon="0.842117">
        <ele>1715.0</ele>
        <time>2013-09-13T13:12:00Z</time>
      </trkpt>
      <trkpt lat="42.031117" lon="0.842250">
        <ele>1714.0</ele>
        <time>2013-09-13T13:12:01Z</time>
      </trkpt>
      <trkpt lat="42.031083" lon="0.842383">
        <ele>1712.0</ele>
        <time>2013-09-13T13:12:02Z</time>
      </trkpt>
      <trkpt lat="42.031050" lon="0.842517">
        <ele>1711.0</ele>
        <time>2013-09-13T13:12:03Z</time>
      </trkpt>
      <trkpt lat="42.031017" lon="0.842650">
        <ele>1709.0</ele>
        <time>2013-09-13T13:12:04Z</time>
      </trkpt>
      <trkpt lat="42.030983" lon="0.842800">
        <ele>1708.0</ele>
        <time>2013-09-13T13:12:05Z</time>
      </trkpt>
      <trkpt lat="42.030950" lon="0.842933">
        <ele>1706.0</ele>
        <time>2013-09-13T13:12:06Z</time>
      </trkpt>
      <trkpt lat="42.030917" lon="0.843067">
        <ele>1704.0</ele>
        <time>2013-09-13T13:12:07Z</time>
      </trkpt>
      <trkpt lat="42.030883" lon="0.843217">
        <ele>1702.0</ele>
        <time>2013-09-13T13:12:08Z</time>
      </trkpt>
      <trkpt lat="42.030850" lon="0.843350">
        <ele>1700.0</ele>
        <time>2013-09-13T13:12:09Z</time>
      </trkpt>
      <trkpt lat="42.030817" lon="0.843483">
        <ele>1699.0</ele>
        <time>2013-09-13T13:12:10Z</time>
      </trkpt>
      <trkpt lat="42.030783" lon="0.843617">
        <ele>1698.0</ele>
        <time>2013-09-13T13:12:11Z</time>
      </trkpt>
      <trkpt lat="42.030750" lon="0.843750">
        <ele>1698.0</ele>
        <time>2013-09-13T13:12:12Z</time>
      </trkpt>
      <trkpt lat="42.030700" lon="0.843867">
        <ele>1696.0</ele>
        <time>2013-09-13T13:12:13Z</time>
      </trkpt>
      <trkpt lat="42.030667" lon="0.844000">
        <ele>1695.0</ele>
        <time>2013-09-13T13:12:14Z</time>
      </trkpt>
      <trkpt lat="42.030633" lon="0.844150">
        <ele>1694.0</ele>
        <time>2013-09-13T13:12:15Z</time>
      </trkpt>
      <trkpt lat="42.030600" lon="0.844283">
        <ele>1692.0</ele>
        <time>2013-09-13T13:12:16Z</time>
      </trkpt>
      <trkpt lat="42.030567" lon="0.844417">
        <ele>1691.0</ele>
        <time>2013-09-13T13:12:17Z</time>
      </trkpt>
      <trkpt lat="42.030517" lon="0.844550">
        <ele>1690.0</ele>
        <time>2013-09-13T13:12:18Z</time>
      </trkpt>
      <trkpt lat="42.030483" lon="0.844667">
        <ele>1689.0</ele>
        <time>2013-09-13T13:12:19Z</time>
      </trkpt>
      <trkpt lat="42.030467" lon="0.844800">
        <ele>1688.0</ele>
        <time>2013-09-13T13:12:20Z</time>
      </trkpt>
      <trkpt lat="42.030433" lon="0.844917">
        <ele>1688.0</ele>
        <time>2013-09-13T13:12:21Z</time>
      </trkpt>
      <trkpt lat="42.030400" lon="0.845050">
        <ele>1686.0</ele>
        <time>2013-09-13T13:12:22Z</time>
      </trkpt>
      <trkpt lat="42.030367" lon="0.845183">
        <ele>1685.0</ele>
        <time>2013-09-13T13:12:23Z</time>
      </trkpt>
      <trkpt lat="42.030350" lon="0.845317">
        <ele>1684.0</ele>
        <time>2013-09-13T13:12:24Z</time>
      </trkpt>
      <trkpt lat="42.030317" lon="0.845450">
        <ele>1683.0</ele>
        <time>2013-09-13T13:12:25Z</time>
      </trkpt>
      <trkpt lat="42.030283" lon="0.845583">
        <ele>1682.0</ele>
        <time>2013-09-13T13:12:26Z</time>
      </trkpt>
      <trkpt lat="42.030250" lon="0.845717">
        <ele>1681.0</ele>
        <time>2013-09-13T13:12:27Z</time>
      </trkpt>
      <trkpt lat="42.030233" lon="0.845850">
        <ele>1680.0</ele>
        <time>2013-09-13T13:12:28Z</time>
      </trkpt>
      <trkpt lat="42.030200" lon="0.845983">
        <ele>1679.0</ele>
        <time>2013-09-13T13:12:29Z</time>
      </trkpt>
      <trkpt lat="42.030167" lon="0.846117">
        <ele>1678.0</ele>
        <time>2013-09-13T13:12:30Z</time>
      </trkpt>
      <trkpt lat="42.030133" lon="0.846250">
        <ele>1677.0</ele>
        <time>2013-09-13T13:12:31Z</time>
      </trkpt>
      <trkpt lat="42.030100" lon="0.846400">
        <ele>1676.0</ele>
        <time>2013-09-13T13:12:32Z</time>
      </trkpt>
      <trkpt lat="42.030083" lon="0.846533">
        <ele>1675.0</ele>
        <time>2013-09-13T13:12:33Z</time>
      </trkpt>
      <trkpt lat="42.030050" lon="0.846667">
        <ele>1674.0</ele>
        <time>2013-09-13T13:12:34Z</time>
      </trkpt>
      <trkpt lat="42.030033" lon="0.846800">
        <ele>1673.0</ele>
        <time>2013-09-13T13:12:35Z</time>
      </trkpt>
      <trkpt lat="42.030000" lon="0.846950">
        <ele>1671.0</ele>
        <time>2013-09-13T13:12:36Z</time>
      </trkpt>
      <trkpt lat="42.029983" lon="0.847083">
        <ele>1670.0</ele>
        <time>2013-09-13T13:12:37Z</time>
      </trkpt>
      <trkpt lat="42.029950" lon="0.847233">
        <ele>1669.0</ele>
        <time>2013-09-13T13:12:38Z</time>
      </trkpt>
      <trkpt lat="42.029917" lon="0.847350">
        <ele>1668.0</ele>
        <time>2013-09-13T13:12:39Z</time>
      </trkpt>
      <trkpt lat="42.029900" lon="0.847483">
        <ele>1667.0</ele>
        <time>2013-09-13T13:12:40Z</time>
      </trkpt>
      <trkpt lat="42.029867" lon="0.847617">
        <ele>1666.0</ele>
        <time>2013-09-13T13:12:41Z</time>
      </trkpt>
      <trkpt lat="42.029800" lon="0.847883">
        <ele>1664.0</ele>
        <time>2013-09-13T13:12:43Z</time>
      </trkpt>
      <trkpt lat="42.029767" lon="0.848017">
        <ele>1662.0</ele>
        <time>2013-09-13T13:12:44Z</time>
      </trkpt>
      <trkpt lat="42.029733" lon="0.848150">
        <ele>1662.0</ele>
        <time>2013-09-13T13:12:45Z</time>
      </trkpt>
      <trkpt lat="42.029717" lon="0.848283">
        <ele>1661.0</ele>
        <time>2013-09-13T13:12:46Z</time>
      </trkpt>
      <trkpt lat="42.029683" lon="0.848417">
        <ele>1661.0</ele>
        <time>2013-09-13T13:12:47Z</time>
      </trkpt>
      <trkpt lat="42.029650" lon="0.848567">
        <ele>1660.0</ele>
        <time>2013-09-13T13:12:48Z</time>
      </trkpt>
      <trkpt lat="42.029633" lon="0.848700">
        <ele>1659.0</ele>
        <time>2013-09-13T13:12:49Z</time>
      </trkpt>
      <trkpt lat="42.029600" lon="0.848850">
        <ele>1658.0</ele>
        <time>2013-09-13T13:12:50Z</time>
      </trkpt>
      <trkpt lat="42.029567" lon="0.848983">
        <ele>1657.0</ele>
        <time>2013-09-13T13:12:51Z</time>
      </trkpt>
      <trkpt lat="42.029533" lon="0.849117">
        <ele>1656.0</ele>
        <time>2013-09-13T13:12:52Z</time>
      </trkpt>
      <trkpt lat="42.029517" lon="0.849250">
        <ele>1655.0</ele>
        <time>2013-09-13T13:12:53Z</time>
      </trkpt>
      <trkpt lat="42.029483" lon="0.849383">
        <ele>1654.0</ele>
        <time>2013-09-13T13:12:54Z</time>
      </trkpt>
      <trkpt lat="42.029450" lon="0.849517">
        <ele>1653.0</ele>
        <time>2013-09-13T13:12:55Z</time>
      </trkpt>
      <trkpt lat="42.029417" lon="0.849633">
        <ele>1652.0</ele>
        <time>2013-09-13T13:12:56Z</time>
      </trkpt>
      <trkpt lat="42.029383" lon="0.849767">
        <ele>1650.0</ele>
        <time>2013-09-13T13:12:57Z</time>
      </trkpt>
      <trkpt lat="42.029350" lon="0.849900">
        <ele>1649.0</ele>
        <time>2013-09-13T13:12:58Z</time>
      </trkpt>
      <trkpt lat="42.029317" lon="0.850017">
        <ele>1647.0</ele>
        <time>2013-09-13T13:12:59Z</time>
      </trkpt>
      <trkpt lat="42.029283" lon="0.850150">
        <ele>1645.0</ele>
        <time>2013-09-13T13:13:00Z</time>
      </trkpt>
      <trkpt lat="42.029250" lon="0.850283">
        <ele>1643.0</ele>
        <time>2013-09-13T13:13:01Z</time>
      </trkpt>
      <trkpt lat="42.029217" lon="0.850433">
        <ele>1642.0</ele>
        <time>2013-09-13T13:13:02Z</time>
      </trkpt>
      <trkpt lat="42.029183" lon="0.850567">
        <ele>1640.0</ele>
        <time>2013-09-13T13:13:03Z</time>
      </trkpt>
      <trkpt lat="42.029167" lon="0.850717">
        <ele>1638.0</ele>
        <time>2013-09-13T13:13:04Z</time>
      </trkpt>
      <trkpt lat="42.029133" lon="0.850833">
        <ele>1637.0</ele>
        <time>2013-09-13T13:13:05Z</time>
      </trkpt>
      <trkpt lat="42.029083" lon="0.850950">
        <ele>1635.0</ele>
        <time>2013-09-13T13:13:06Z</time>
      </trkpt>
      <trkpt lat="42.029050" lon="0.851083">
        <ele>1633.0</ele>
        <time>2013-09-13T13:13:07Z</time>
      </trkpt>
      <trkpt lat="42.029000" lon="0.851217">
        <ele>1631.0</ele>
        <time>2013-09-13T13:13:08Z</time>
      </trkpt>
      <trkpt lat="42.028967" lon="0.851350">
        <ele>1629.0</ele>
        <time>2013-09-13T13:13:09Z</time>
      </trkpt>
      <trkpt lat="42.028933" lon="0.851483">
        <ele>1627.0</ele>
        <time>2013-09-13T13:13:10Z</time>
      </trkpt>
      <trkpt lat="42.028883" lon="0.851617">
        <ele>1626.0</ele>
        <time>2013-09-13T13:13:11Z</time>
      </trkpt>
      <trkpt lat="42.028850" lon="0.851733">
        <ele>1625.0</ele>
        <time>2013-09-13T13:13:12Z</time>
      </trkpt>
      <trkpt lat="42.028817" lon="0.851867">
        <ele>1623.0</ele>
        <time>2013-09-13T13:13:13Z</time>
      </trkpt>
      <trkpt lat="42.028783" lon="0.852000">
        <ele>1621.0</ele>
        <time>2013-09-13T13:13:14Z</time>
      </trkpt>
      <trkpt lat="42.028750" lon="0.852133">
        <ele>1619.0</ele>
        <time>2013-09-13T13:13:15Z</time>
      </trkpt>
      <trkpt lat="42.028700" lon="0.852250">
        <ele>1618.0</ele>
        <time>2013-09-13T13:13:16Z</time>
      </trkpt>
      <trkpt lat="42.028667" lon="0.852367">
        <ele>1617.0</ele>
        <time>2013-09-13T13:13:17Z</time>
      </trkpt>
      <trkpt lat="42.028617" lon="0.852467">
        <ele>1615.0</ele>
        <time>2013-09-13T13:13:18Z</time>
      </trkpt>
      <trkpt lat="42.028583" lon="0.852583">
        <ele>1613.0</ele>
        <time>2013-09-13T13:13:19Z</time>
      </trkpt>
      <trkpt lat="42.028550" lon="0.852717">
        <ele>1610.0</ele>
        <time>2013-09-13T13:13:20Z</time>
      </trkpt>
      <trkpt lat="42.028500" lon="0.852850">
        <ele>1608.0</ele>
        <time>2013-09-13T13:13:21Z</time>
      </trkpt>
      <trkpt lat="42.028467" lon="0.852967">
        <ele>1607.0</ele>
        <time>2013-09-13T13:13:22Z</time>
      </trkpt>
      <trkpt lat="42.028433" lon="0.853083">
        <ele>1606.0</ele>
        <time>2013-09-13T13:13:23Z</time>
      </trkpt>
      <trkpt lat="42.028383" lon="0.853200">
        <ele>1604.0</ele>
        <time>2013-09-13T13:13:24Z</time>
      </trkpt>
      <trkpt lat="42.028350" lon="0.853317">
        <ele>1603.0</ele>
        <time>2013-09-13T13:13:25Z</time>
      </trkpt>
      <trkpt lat="42.028317" lon="0.853417">
        <ele>1602.0</ele>
        <time>2013-09-13T13:13:26Z</time>
      </trkpt>
      <trkpt lat="42.028267" lon="0.853533">
        <ele>1600.0</ele>
        <time>2013-09-13T13:13:27Z</time>
      </trkpt>
      <trkpt lat="42.028233" lon="0.853667">
        <ele>1598.0</ele>
        <time>2013-09-13T13:13:28Z</time>
      </trkpt>
      <trkpt lat="42.028200" lon="0.853783">
        <ele>1597.0</ele>
        <time>2013-09-13T13:13:29Z</time>
      </trkpt>
      <trkpt lat="42.028150" lon="0.853900">
        <ele>1596.0</ele>
        <time>2013-09-13T13:13:30Z</time>
      </trkpt>
      <trkpt lat="42.028117" lon="0.854017">
        <ele>1594.0</ele>
        <time>2013-09-13T13:13:31Z</time>
      </trkpt>
      <trkpt lat="42.028083" lon="0.854150">
        <ele>1592.0</ele>
        <time>2013-09-13T13:13:32Z</time>
      </trkpt>
      <trkpt lat="42.028050" lon="0.854283">
        <ele>1590.0</ele>
        <time>2013-09-13T13:13:33Z</time>
      </trkpt>
      <trkpt lat="42.028017" lon="0.854417">
        <ele>1588.0</ele>
        <time>2013-09-13T13:13:34Z</time>
      </trkpt>
      <trkpt lat="42.027983" lon="0.854550">
        <ele>1586.0</ele>
        <time>2013-09-13T13:13:35Z</time>
      </trkpt>
      <trkpt lat="42.027950" lon="0.854667">
        <ele>1584.0</ele>
        <time>2013-09-13T13:13:36Z</time>
      </trkpt>
      <trkpt lat="42.027900" lon="0.854800">
        <ele>1583.0</ele>
        <time>2013-09-13T13:13:37Z</time>
      </trkpt>
      <trkpt lat="42.027867" lon="0.854917">
        <ele>1582.0</ele>
        <time>2013-09-13T13:13:38Z</time>
      </trkpt>
      <trkpt lat="42.027833" lon="0.855033">
        <ele>1580.0</ele>
        <time>2013-09-13T13:13:39Z</time>
      </trkpt>
      <trkpt lat="42.027800" lon="0.855167">
        <ele>1579.0</ele>
        <time>2013-09-13T13:13:40Z</time>
      </trkpt>
      <trkpt lat="42.027767" lon="0.855300">
        <ele>1577.0</ele>
        <time>2013-09-13T13:13:41Z</time>
      </trkpt>
      <trkpt lat="42.027733" lon="0.855417">
        <ele>1575.0</ele>
        <time>2013-09-13T13:13:42Z</time>
      </trkpt>
      <trkpt lat="42.027700" lon="0.855550">
        <ele>1574.0</ele>
        <time>2013-09-13T13:13:43Z</time>
      </trkpt>
      <trkpt lat="42.027667" lon="0.855683">
        <ele>1573.0</ele>
        <time>2013-09-13T13:13:44Z</time>
      </trkpt>
      <trkpt lat="42.027633" lon="0.855800">
        <ele>1572.0</ele>
        <time>2013-09-13T13:13:45Z</time>
      </trkpt>
      <trkpt lat="42.027600" lon="0.855933">
        <ele>1570.0</ele>
        <time>2013-09-13T13:13:46Z</time>
      </trkpt>
      <trkpt lat="42.027550" lon="0.856067">
        <ele>1569.0</ele>
        <time>2013-09-13T13:13:47Z</time>
      </trkpt>
      <trkpt lat="42.027517" lon="0.856200">
        <ele>1567.0</ele>
        <time>2013-09-13T13:13:48Z</time>
      </trkpt>
      <trkpt lat="42.027483" lon="0.856333">
        <ele>1565.0</ele>
        <time>2013-09-13T13:13:49Z</time>
      </trkpt>
      <trkpt lat="42.027450" lon="0.856450">
        <ele>1563.0</ele>
        <time>2013-09-13T13:13:50Z</time>
      </trkpt>
      <trkpt lat="42.027417" lon="0.856583">
        <ele>1562.0</ele>
        <time>2013-09-13T13:13:51Z</time>
      </trkpt>
      <trkpt lat="42.027383" lon="0.856700">
        <ele>1560.0</ele>
        <time>2013-09-13T13:13:52Z</time>
      </trkpt>
      <trkpt lat="42.027333" lon="0.856833">
        <ele>1558.0</ele>
        <time>2013-09-13T13:13:53Z</time>
      </trkpt>
      <trkpt lat="42.027300" lon="0.856950">
        <ele>1556.0</ele>
        <time>2013-09-13T13:13:54Z</time>
      </trkpt>
      <trkpt lat="42.027250" lon="0.857083">
        <ele>1554.0</ele>
        <time>2013-09-13T13:13:55Z</time>
      </trkpt>
      <trkpt lat="42.027200" lon="0.857200">
        <ele>1552.0</ele>
        <time>2013-09-13T13:13:56Z</time>
      </trkpt>
      <trkpt lat="42.027167" lon="0.857333">
        <ele>1551.0</ele>
        <time>2013-09-13T13:13:57Z</time>
      </trkpt>
      <trkpt lat="42.027117" lon="0.857467">
        <ele>1548.0</ele>
        <time>2013-09-13T13:13:58Z</time>
      </trkpt>
      <trkpt lat="42.027067" lon="0.857583">
        <ele>1547.0</ele>
        <time>2013-09-13T13:13:59Z</time>
      </trkpt>
      <trkpt lat="42.027017" lon="0.857717">
        <ele>1545.0</ele>
        <time>2013-09-13T13:14:00Z</time>
      </trkpt>
      <trkpt lat="42.026983" lon="0.857833">
        <ele>1544.0</ele>
        <time>2013-09-13T13:14:01Z</time>
      </trkpt>
      <trkpt lat="42.026950" lon="0.857950">
        <ele>1543.0</ele>
        <time>2013-09-13T13:14:02Z</time>
      </trkpt>
      <trkpt lat="42.026917" lon="0.858067">
        <ele>1541.0</ele>
        <time>2013-09-13T13:14:03Z</time>
      </trkpt>
      <trkpt lat="42.026867" lon="0.858183">
        <ele>1539.0</ele>
        <time>2013-09-13T13:14:04Z</time>
      </trkpt>
      <trkpt lat="42.026833" lon="0.858317">
        <ele>1536.0</ele>
        <time>2013-09-13T13:14:05Z</time>
      </trkpt>
      <trkpt lat="42.026800" lon="0.858450">
        <ele>1534.0</ele>
        <time>2013-09-13T13:14:06Z</time>
      </trkpt>
      <trkpt lat="42.026767" lon="0.858567">
        <ele>1532.0</ele>
        <time>2013-09-13T13:14:07Z</time>
      </trkpt>
      <trkpt lat="42.026733" lon="0.858700">
        <ele>1530.0</ele>
        <time>2013-09-13T13:14:08Z</time>
      </trkpt>
      <trkpt lat="42.026700" lon="0.858817">
        <ele>1527.0</ele>
        <time>2013-09-13T13:14:09Z</time>
      </trkpt>
      <trkpt lat="42.026650" lon="0.858950">
        <ele>1524.0</ele>
        <time>2013-09-13T13:14:10Z</time>
      </trkpt>
      <trkpt lat="42.026600" lon="0.859083">
        <ele>1522.0</ele>
        <time>2013-09-13T13:14:11Z</time>
      </trkpt>
      <trkpt lat="42.026550" lon="0.859217">
        <ele>1520.0</ele>
        <time>2013-09-13T13:14:12Z</time>
      </trkpt>
      <trkpt lat="42.026517" lon="0.859350">
        <ele>1518.0</ele>
        <time>2013-09-13T13:14:13Z</time>
      </trkpt>
      <trkpt lat="42.026500" lon="0.859467">
        <ele>1516.0</ele>
        <time>2013-09-13T13:14:14Z</time>
      </trkpt>
      <trkpt lat="42.026483" lon="0.859583">
        <ele>1514.0</ele>
        <time>2013-09-13T13:14:15Z</time>
      </trkpt>
      <trkpt lat="42.026450" lon="0.859700">
        <ele>1512.0</ele>
        <time>2013-09-13T13:14:16Z</time>
      </trkpt>
      <trkpt lat="42.026417" lon="0.859817">
        <ele>1509.0</ele>
        <time>2013-09-13T13:14:17Z</time>
      </trkpt>
      <trkpt lat="42.026383" lon="0.859950">
        <ele>1507.0</ele>
        <time>2013-09-13T13:14:18Z</time>
      </trkpt>
      <trkpt lat="42.026350" lon="0.860067">
        <ele>1505.0</ele>
        <time>2013-09-13T13:14:19Z</time>
      </trkpt>
      <trkpt lat="42.026317" lon="0.860200">
        <ele>1503.0</ele>
        <time>2013-09-13T13:14:20Z</time>
      </trkpt>
      <trkpt lat="42.026300" lon="0.860333">
        <ele>1500.0</ele>
        <time>2013-09-13T13:14:21Z</time>
      </trkpt>
      <trkpt lat="42.026283" lon="0.860450">
        <ele>1498.0</ele>
        <time>2013-09-13T13:14:22Z</time>
      </trkpt>
      <trkpt lat="42.026267" lon="0.860583">
        <ele>1495.0</ele>
        <time>2013-09-13T13:14:23Z</time>
      </trkpt>
      <trkpt lat="42.026233" lon="0.860717">
        <ele>1492.0</ele>
        <time>2013-09-13T13:14:24Z</time>
      </trkpt>
      <trkpt lat="42.026217" lon="0.860850">
        <ele>1489.0</ele>
        <time>2013-09-13T13:14:25Z</time>
      </trkpt>
      <trkpt lat="42.026200" lon="0.860983">
        <ele>1486.0</ele>
        <time>2013-09-13T13:14:26Z</time>
      </trkpt>
      <trkpt lat="42.026167" lon="0.861117">
        <ele>1484.0</ele>
        <time>2013-09-13T13:14:27Z</time>
      </trkpt>
      <trkpt lat="42.026150" lon="0.861250">
        <ele>1481.0</ele>
        <time>2013-09-13T13:14:28Z</time>
      </trkpt>
      <trkpt lat="42.026133" lon="0.861367">
        <ele>1479.0</ele>
        <time>2013-09-13T13:14:29Z</time>
      </trkpt>
      <trkpt lat="42.026083" lon="0.861483">
        <ele>1477.0</ele>
        <time>2013-09-13T13:14:30Z</time>
      </trkpt>
      <trkpt lat="42.026050" lon="0.861600">
        <ele>1475.0</ele>
        <time>2013-09-13T13:14:31Z</time>
      </trkpt>
      <trkpt lat="42.026000" lon="0.861733">
        <ele>1473.0</ele>
        <time>2013-09-13T13:14:32Z</time>
      </trkpt>
      <trkpt lat="42.025967" lon="0.861833">
        <ele>1471.0</ele>
        <time>2013-09-13T13:14:33Z</time>
      </trkpt>
      <trkpt lat="42.025917" lon="0.861950">
        <ele>1469.0</ele>
        <time>2013-09-13T13:14:34Z</time>
      </trkpt>
      <trkpt lat="42.025883" lon="0.862067">
        <ele>1467.0</ele>
        <time>2013-09-13T13:14:35Z</time>
      </trkpt>
      <trkpt lat="42.025833" lon="0.862183">
        <ele>1464.0</ele>
        <time>2013-09-13T13:14:36Z</time>
      </trkpt>
      <trkpt lat="42.025783" lon="0.862300">
        <ele>1462.0</ele>
        <time>2013-09-13T13:14:37Z</time>
      </trkpt>
      <trkpt lat="42.025733" lon="0.862417">
        <ele>1460.0</ele>
        <time>2013-09-13T13:14:38Z</time>
      </trkpt>
      <trkpt lat="42.025683" lon="0.862533">
        <ele>1459.0</ele>
        <time>2013-09-13T13:14:39Z</time>
      </trkpt>
      <trkpt lat="42.025650" lon="0.862650">
        <ele>1457.0</ele>
        <time>2013-09-13T13:14:40Z</time>
      </trkpt>
      <trkpt lat="42.025617" lon="0.862767">
        <ele>1454.0</ele>
        <time>2013-09-13T13:14:41Z</time>
      </trkpt>
      <trkpt lat="42.025583" lon="0.862883">
        <ele>1452.0</ele>
        <time>2013-09-13T13:14:42Z</time>
      </trkpt>
      <trkpt lat="42.025533" lon="0.863017">
        <ele>1450.0</ele>
        <time>2013-09-13T13:14:43Z</time>
      </trkpt>
      <trkpt lat="42.025517" lon="0.863133">
        <ele>1447.0</ele>
        <time>2013-09-13T13:14:44Z</time>
      </trkpt>
      <trkpt lat="42.025483" lon="0.863233">
        <ele>1445.0</ele>
        <time>2013-09-13T13:14:45Z</time>
      </trkpt>
      <trkpt lat="42.025450" lon="0.863350">
        <ele>1443.0</ele>
        <time>2013-09-13T13:14:46Z</time>
      </trkpt>
      <trkpt lat="42.025417" lon="0.863467">
        <ele>1441.0</ele>
        <time>2013-09-13T13:14:47Z</time>
      </trkpt>
      <trkpt lat="42.025400" lon="0.863600">
        <ele>1438.0</ele>
        <time>2013-09-13T13:14:48Z</time>
      </trkpt>
      <trkpt lat="42.025367" lon="0.863717">
        <ele>1436.0</ele>
        <time>2013-09-13T13:14:49Z</time>
      </trkpt>
      <trkpt lat="42.025333" lon="0.863833">
        <ele>1433.0</ele>
        <time>2013-09-13T13:14:50Z</time>
      </trkpt>
      <trkpt lat="42.025300" lon="0.863950">
        <ele>1430.0</ele>
        <time>2013-09-13T13:14:51Z</time>
      </trkpt>
      <trkpt lat="42.025267" lon="0.864067">
        <ele>1427.0</ele>
        <time>2013-09-13T13:14:52Z</time>
      </trkpt>
      <trkpt lat="42.025217" lon="0.864183">
        <ele>1424.0</ele>
        <time>2013-09-13T13:14:53Z</time>
      </trkpt>
      <trkpt lat="42.025183" lon="0.864300">
        <ele>1422.0</ele>
        <time>2013-09-13T13:14:54Z</time>
      </trkpt>
      <trkpt lat="42.025150" lon="0.864400">
        <ele>1420.0</ele>
        <time>2013-09-13T13:14:55Z</time>
      </trkpt>
      <trkpt lat="42.025117" lon="0.864517">
        <ele>1418.0</ele>
        <time>2013-09-13T13:14:56Z</time>
      </trkpt>
      <trkpt lat="42.025083" lon="0.864633">
        <ele>1416.0</ele>
        <time>2013-09-13T13:14:57Z</time>
      </trkpt>
      <trkpt lat="42.025067" lon="0.864767">
        <ele>1414.0</ele>
        <time>2013-09-13T13:14:58Z</time>
      </trkpt>
      <trkpt lat="42.025033" lon="0.864883">
        <ele>1412.0</ele>
        <time>2013-09-13T13:14:59Z</time>
      </trkpt>
      <trkpt lat="42.025017" lon="0.865017">
        <ele>1409.0</ele>
        <time>2013-09-13T13:15:00Z</time>
      </trkpt>
      <trkpt lat="42.024983" lon="0.865150">
        <ele>1408.0</ele>
        <time>2013-09-13T13:15:01Z</time>
      </trkpt>
      <trkpt lat="42.024950" lon="0.865400">
        <ele>1406.0</ele>
        <time>2013-09-13T13:15:03Z</time>
      </trkpt>
      <trkpt lat="42.024917" lon="0.865517">
        <ele>1406.0</ele>
        <time>2013-09-13T13:15:04Z</time>
      </trkpt>
      <trkpt lat="42.024900" lon="0.865633">
        <ele>1405.0</ele>
        <time>2013-09-13T13:15:05Z</time>
      </trkpt>
      <trkpt lat="42.024883" lon="0.865767">
        <ele>1404.0</ele>
        <time>2013-09-13T13:15:06Z</time>
      </trkpt>
      <trkpt lat="42.024850" lon="0.865900">
        <ele>1402.0</ele>
        <time>2013-09-13T13:15:07Z</time>
      </trkpt>
      <trkpt lat="42.024833" lon="0.866033">
        <ele>1401.0</ele>
        <time>2013-09-13T13:15:08Z</time>
      </trkpt>
      <trkpt lat="42.024800" lon="0.866167">
        <ele>1400.0</ele>
        <time>2013-09-13T13:15:09Z</time>
      </trkpt>
      <trkpt lat="42.024783" lon="0.866300">
        <ele>1399.0</ele>
        <time>2013-09-13T13:15:10Z</time>
      </trkpt>
      <trkpt lat="42.024750" lon="0.866450">
        <ele>1398.0</ele>
        <time>2013-09-13T13:15:11Z</time>
      </trkpt>
      <trkpt lat="42.024733" lon="0.866583">
        <ele>1397.0</ele>
        <time>2013-09-13T13:15:12Z</time>
      </trkpt>
      <trkpt lat="42.024700" lon="0.866717">
        <ele>1396.0</ele>
        <time>2013-09-13T13:15:13Z</time>
      </trkpt>
      <trkpt lat="42.024667" lon="0.866850">
        <ele>1395.0</ele>
        <time>2013-09-13T13:15:14Z</time>
      </trkpt>
      <trkpt lat="42.024633" lon="0.867000">
        <ele>1394.0</ele>
        <time>2013-09-13T13:15:15Z</time>
      </trkpt>
      <trkpt lat="42.024617" lon="0.867133">
        <ele>1393.0</ele>
        <time>2013-09-13T13:15:16Z</time>
      </trkpt>
      <trkpt lat="42.024600" lon="0.867283">
        <ele>1394.0</ele>
        <time>2013-09-13T13:15:17Z</time>
      </trkpt>
      <trkpt lat="42.024583" lon="0.867417">
        <ele>1395.0</ele>
        <time>2013-09-13T13:15:18Z</time>
      </trkpt>
      <trkpt lat="42.024583" lon="0.867550">
        <ele>1395.0</ele>
        <time>2013-09-13T13:15:19Z</time>
      </trkpt>
      <trkpt lat="42.024567" lon="0.867683">
        <ele>1396.0</ele>
        <time>2013-09-13T13:15:20Z</time>
      </trkpt>
      <trkpt lat="42.024567" lon="0.867817">
        <ele>1398.0</ele>
        <time>2013-09-13T13:15:21Z</time>
      </trkpt>
      <trkpt lat="42.024567" lon="0.867950">
        <ele>1401.0</ele>
        <time>2013-09-13T13:15:22Z</time>
      </trkpt>
      <trkpt lat="42.024567" lon="0.868067">
        <ele>1404.0</ele>
        <time>2013-09-13T13:15:23Z</time>
      </trkpt>
      <trkpt lat="42.024567" lon="0.868183">
        <ele>1410.0</ele>
        <time>2013-09-13T13:15:24Z</time>
      </trkpt>
      <trkpt lat="42.024550" lon="0.868300">
        <ele>1415.0</ele>
        <time>2013-09-13T13:15:25Z</time>
      </trkpt>
      <trkpt lat="42.024533" lon="0.868417">
        <ele>1419.0</ele>
        <time>2013-09-13T13:15:26Z</time>
      </trkpt>
      <trkpt lat="42.024483" lon="0.868517">
        <ele>1422.0</ele>
        <time>2013-09-13T13:15:27Z</time>
      </trkpt>
      <trkpt lat="42.024433" lon="0.868633">
        <ele>1425.0</ele>
        <time>2013-09-13T13:15:28Z</time>
      </trkpt>
      <trkpt lat="42.024383" lon="0.868717">
        <ele>1428.0</ele>
        <time>2013-09-13T13:15:29Z</time>
      </trkpt>
      <trkpt lat="42.024317" lon="0.868767">
        <ele>1430.0</ele>
        <time>2013-09-13T13:15:30Z</time>
      </trkpt>
      <trkpt lat="42.024250" lon="0.868783">
        <ele>1433.0</ele>
        <time>2013-09-13T13:15:31Z</time>
      </trkpt>
      <trkpt lat="42.024167" lon="0.868783">
        <ele>1435.0</ele>
        <time>2013-09-13T13:15:32Z</time>
      </trkpt>
      <trkpt lat="42.024117" lon="0.868750">
        <ele>1437.0</ele>
        <time>2013-09-13T13:15:33Z</time>
      </trkpt>
      <trkpt lat="42.024067" lon="0.868700">
        <ele>1439.0</ele>
        <time>2013-09-13T13:15:34Z</time>
      </trkpt>
      <trkpt lat="42.024050" lon="0.868650">
        <ele>1442.0</ele>
        <time>2013-09-13T13:15:35Z</time>
      </trkpt>
      <trkpt lat="42.024033" lon="0.868567">
        <ele>1444.0</ele>
        <time>2013-09-13T13:15:36Z</time>
      </trkpt>
      <trkpt lat="42.024033" lon="0.868500">
        <ele>1446.0</ele>
        <time>2013-09-13T13:15:37Z</time>
      </trkpt>
      <trkpt lat="42.024050" lon="0.868433">
        <ele>1448.0</ele>
        <time>2013-09-13T13:15:38Z</time>
      </trkpt>
      <trkpt lat="42.024067" lon="0.868367">
        <ele>1449.0</ele>
        <time>2013-09-13T13:15:39Z</time>
      </trkpt>
      <trkpt lat="42.024100" lon="0.868300">
        <ele>1450.0</ele>
        <time>2013-09-13T13:15:40Z</time>
      </trkpt>
      <trkpt lat="42.024133" lon="0.868250">
        <ele>1451.0</ele>
        <time>2013-09-13T13:15:41Z</time>
      </trkpt>
      <trkpt lat="42.024183" lon="0.868200">
        <ele>1453.0</ele>
        <time>2013-09-13T13:15:42Z</time>
      </trkpt>
      <trkpt lat="42.024250" lon="0.868167">
        <ele>1454.0</ele>
        <time>2013-09-13T13:15:43Z</time>
      </trkpt>
      <trkpt lat="42.024333" lon="0.868133">
        <ele>1455.0</ele>
        <time>2013-09-13T13:15:44Z</time>
      </trkpt>
      <trkpt lat="42.024400" lon="0.868117">
        <ele>1457.0</ele>
        <time>2013-09-13T13:15:45Z</time>
      </trkpt>
      <trkpt lat="42.024483" lon="0.868117">
        <ele>1460.0</ele>
        <time>2013-09-13T13:15:46Z</time>
      </trkpt>
      <trkpt lat="42.024550" lon="0.868150">
        <ele>1463.0</ele>
        <time>2013-09-13T13:15:47Z</time>
      </trkpt>
      <trkpt lat="42.024633" lon="0.868200">
        <ele>1465.0</ele>
        <time>2013-09-13T13:15:48Z</time>
      </trkpt>
      <trkpt lat="42.024800" lon="0.868350">
        <ele>1467.0</ele>
        <time>2013-09-13T13:15:50Z</time>
      </trkpt>
      <trkpt lat="42.024883" lon="0.868450">
        <ele>1467.0</ele>
        <time>2013-09-13T13:15:51Z</time>
      </trkpt>
      <trkpt lat="42.024950" lon="0.868567">
        <ele>1468.0</ele>
        <time>2013-09-13T13:15:52Z</time>
      </trkpt>
      <trkpt lat="42.025183" lon="0.869117">
        <ele>1474.0</ele>
        <time>2013-09-13T13:15:56Z</time>
      </trkpt>
      <trkpt lat="42.025200" lon="0.869267">
        <ele>1477.0</ele>
        <time>2013-09-13T13:15:57Z</time>
      </trkpt>
      <trkpt lat="42.025200" lon="0.869417">
        <ele>1480.0</ele>
        <time>2013-09-13T13:15:58Z</time>
      </trkpt>
      <trkpt lat="42.025183" lon="0.869567">
        <ele>1482.0</ele>
        <time>2013-09-13T13:15:59Z</time>
      </trkpt>
      <trkpt lat="42.025167" lon="0.869717">
        <ele>1485.0</ele>
        <time>2013-09-13T13:16:00Z</time>
      </trkpt>
      <trkpt lat="42.025133" lon="0.869850">
        <ele>1488.0</ele>
        <time>2013-09-13T13:16:01Z</time>
      </trkpt>
      <trkpt lat="42.025117" lon="0.869967">
        <ele>1491.0</ele>
        <time>2013-09-13T13:16:02Z</time>
      </trkpt>
      <trkpt lat="42.025083" lon="0.870083">
        <ele>1495.0</ele>
        <time>2013-09-13T13:16:03Z</time>
      </trkpt>
      <trkpt lat="42.025050" lon="0.870183">
        <ele>1498.0</ele>
        <time>2013-09-13T13:16:04Z</time>
      </trkpt>
      <trkpt lat="42.025017" lon="0.870283">
        <ele>1501.0</ele>
        <time>2013-09-13T13:16:05Z</time>
      </trkpt>
      <trkpt lat="42.024950" lon="0.870383">
        <ele>1504.0</ele>
        <time>2013-09-13T13:16:06Z</time>
      </trkpt>
      <trkpt lat="42.024900" lon="0.870483">
        <ele>1506.0</ele>
        <time>2013-09-13T13:16:07Z</time>
      </trkpt>
      <trkpt lat="42.024850" lon="0.870550">
        <ele>1509.0</ele>
        <time>2013-09-13T13:16:08Z</time>
      </trkpt>
      <trkpt lat="42.024800" lon="0.870600">
        <ele>1512.0</ele>
        <time>2013-09-13T13:16:09Z</time>
      </trkpt>
      <trkpt lat="42.024750" lon="0.870617">
        <ele>1514.0</ele>
        <time>2013-09-13T13:16:10Z</time>
      </trkpt>
      <trkpt lat="42.024700" lon="0.870617">
        <ele>1515.0</ele>
        <time>2013-09-13T13:16:11Z</time>
      </trkpt>
      <trkpt lat="42.024650" lon="0.870583">
        <ele>1517.0</ele>
        <time>2013-09-13T13:16:12Z</time>
      </trkpt>
      <trkpt lat="42.024633" lon="0.870517">
        <ele>1518.0</ele>
        <time>2013-09-13T13:16:13Z</time>
      </trkpt>
      <trkpt lat="42.024617" lon="0.870450">
        <ele>1520.0</ele>
        <time>2013-09-13T13:16:14Z</time>
      </trkpt>
      <trkpt lat="42.024650" lon="0.870383">
        <ele>1524.0</ele>
        <time>2013-09-13T13:16:15Z</time>
      </trkpt>
      <trkpt lat="42.024683" lon="0.870333">
        <ele>1527.0</ele>
        <time>2013-09-13T13:16:16Z</time>
      </trkpt>
      <trkpt lat="42.024733" lon="0.870300">
        <ele>1530.0</ele>
        <time>2013-09-13T13:16:17Z</time>
      </trkpt>
      <trkpt lat="42.024817" lon="0.870267">
        <ele>1532.0</ele>
        <time>2013-09-13T13:16:18Z</time>
      </trkpt>
      <trkpt lat="42.024900" lon="0.870250">
        <ele>1533.0</ele>
        <time>2013-09-13T13:16:19Z</time>
      </trkpt>
      <trkpt lat="42.025000" lon="0.870283">
        <ele>1536.0</ele>
        <time>2013-09-13T13:16:20Z</time>
      </trkpt>
      <trkpt lat="42.025100" lon="0.870350">
        <ele>1538.0</ele>
        <time>2013-09-13T13:16:21Z</time>
      </trkpt>
      <trkpt lat="42.025183" lon="0.870450">
        <ele>1540.0</ele>
        <time>2013-09-13T13:16:22Z</time>
      </trkpt>
      <trkpt lat="42.025250" lon="0.870567">
        <ele>1543.0</ele>
        <time>2013-09-13T13:16:23Z</time>
      </trkpt>
      <trkpt lat="42.025300" lon="0.870683">
        <ele>1546.0</ele>
        <time>2013-09-13T13:16:24Z</time>
      </trkpt>
      <trkpt lat="42.025367" lon="0.870967">
        <ele>1551.0</ele>
        <time>2013-09-13T13:16:26Z</time>
      </trkpt>
      <trkpt lat="42.025383" lon="0.871117">
        <ele>1554.0</ele>
        <time>2013-09-13T13:16:27Z</time>
      </trkpt>
      <trkpt lat="42.025383" lon="0.871267">
        <ele>1557.0</ele>
        <time>2013-09-13T13:16:28Z</time>
      </trkpt>
      <trkpt lat="42.025383" lon="0.871400">
        <ele>1560.0</ele>
        <time>2013-09-13T13:16:29Z</time>
      </trkpt>
      <trkpt lat="42.025333" lon="0.871667">
        <ele>1566.0</ele>
        <time>2013-09-13T13:16:31Z</time>
      </trkpt>
      <trkpt lat="42.025300" lon="0.871800">
        <ele>1569.0</ele>
        <time>2013-09-13T13:16:32Z</time>
      </trkpt>
      <trkpt lat="42.025267" lon="0.871917">
        <ele>1572.0</ele>
        <time>2013-09-13T13:16:33Z</time>
      </trkpt>
      <trkpt lat="42.025233" lon="0.872033">
        <ele>1576.0</ele>
        <time>2013-09-13T13:16:34Z</time>
      </trkpt>
      <trkpt lat="42.025183" lon="0.872117">
        <ele>1580.0</ele>
        <time>2013-09-13T13:16:35Z</time>
      </trkpt>
      <trkpt lat="42.025117" lon="0.872167">
        <ele>1582.0</ele>
        <time>2013-09-13T13:16:36Z</time>
      </trkpt>
      <trkpt lat="42.025050" lon="0.872200">
        <ele>1585.0</ele>
        <time>2013-09-13T13:16:37Z</time>
      </trkpt>
      <trkpt lat="42.025000" lon="0.872200">
        <ele>1587.0</ele>
        <time>2013-09-13T13:16:38Z</time>
      </trkpt>
      <trkpt lat="42.024950" lon="0.872183">
        <ele>1590.0</ele>
        <time>2013-09-13T13:16:39Z</time>
      </trkpt>
      <trkpt lat="42.024917" lon="0.872133">
        <ele>1594.0</ele>
        <time>2013-09-13T13:16:40Z</time>
      </trkpt>
      <trkpt lat="42.024900" lon="0.872083">
        <ele>1598.0</ele>
        <time>2013-09-13T13:16:41Z</time>
      </trkpt>
      <trkpt lat="42.024917" lon="0.872033">
        <ele>1601.0</ele>
        <time>2013-09-13T13:16:42Z</time>
      </trkpt>
      <trkpt lat="42.024933" lon="0.871950">
        <ele>1605.0</ele>
        <time>2013-09-13T13:16:43Z</time>
      </trkpt>
      <trkpt lat="42.024967" lon="0.871900">
        <ele>1608.0</ele>
        <time>2013-09-13T13:16:44Z</time>
      </trkpt>
      <trkpt lat="42.025017" lon="0.871850">
        <ele>1611.0</ele>
        <time>2013-09-13T13:16:45Z</time>
      </trkpt>
      <trkpt lat="42.025100" lon="0.871833">
        <ele>1615.0</ele>
        <time>2013-09-13T13:16:46Z</time>
      </trkpt>
      <trkpt lat="42.025167" lon="0.871850">
        <ele>1618.0</ele>
        <time>2013-09-13T13:16:47Z</time>
      </trkpt>
      <trkpt lat="42.025250" lon="0.871883">
        <ele>1621.0</ele>
        <time>2013-09-13T13:16:48Z</time>
      </trkpt>
      <trkpt lat="42.025333" lon="0.871933">
        <ele>1622.0</ele>
        <time>2013-09-13T13:16:49Z</time>
      </trkpt>
      <trkpt lat="42.025433" lon="0.871983">
        <ele>1624.0</ele>
        <time>2013-09-13T13:16:50Z</time>
      </trkpt>
      <trkpt lat="42.025533" lon="0.872083">
        <ele>1626.0</ele>
        <time>2013-09-13T13:16:51Z</time>
      </trkpt>
      <trkpt lat="42.025617" lon="0.872200">
        <ele>1629.0</ele>
        <time>2013-09-13T13:16:52Z</time>
      </trkpt>
      <trkpt lat="42.025717" lon="0.872450">
        <ele>1635.0</ele>
        <time>2013-09-13T13:16:54Z</time>
      </trkpt>
      <trkpt lat="42.025733" lon="0.872567">
        <ele>1638.0</ele>
        <time>2013-09-13T13:16:55Z</time>
      </trkpt>
      <trkpt lat="42.025733" lon="0.872717">
        <ele>1640.0</ele>
        <time>2013-09-13T13:16:56Z</time>
      </trkpt>
      <trkpt lat="42.025750" lon="0.872850">
        <ele>1643.0</ele>
        <time>2013-09-13T13:16:57Z</time>
      </trkpt>
      <trkpt lat="42.025733" lon="0.873000">
        <ele>1645.0</ele>
        <time>2013-09-13T13:16:58Z</time>
      </trkpt>
      <trkpt lat="42.025717" lon="0.873117">
        <ele>1648.0</ele>
        <time>2013-09-13T13:16:59Z</time>
      </trkpt>
      <trkpt lat="42.025683" lon="0.873217">
        <ele>1651.0</ele>
        <time>2013-09-13T13:17:00Z</time>
      </trkpt>
      <trkpt lat="42.025633" lon="0.873317">
        <ele>1653.0</ele>
        <time>2013-09-13T13:17:01Z</time>
      </trkpt>
      <trkpt lat="42.025567" lon="0.873400">
        <ele>1653.0</ele>
        <time>2013-09-13T13:17:02Z</time>
      </trkpt>
      <trkpt lat="42.025500" lon="0.873467">
        <ele>1655.0</ele>
        <time>2013-09-13T13:17:03Z</time>
      </trkpt>
      <trkpt lat="42.025433" lon="0.873533">
        <ele>1656.0</ele>
        <time>2013-09-13T13:17:04Z</time>
      </trkpt>
      <trkpt lat="42.025350" lon="0.873583">
        <ele>1657.0</ele>
        <time>2013-09-13T13:17:05Z</time>
      </trkpt>
      <trkpt lat="42.025217" lon="0.873650">
        <ele>1659.0</ele>
        <time>2013-09-13T13:17:07Z</time>
      </trkpt>
      <trkpt lat="42.025150" lon="0.873683">
        <ele>1660.0</ele>
        <time>2013-09-13T13:17:08Z</time>
      </trkpt>
      <trkpt lat="42.025067" lon="0.873733">
        <ele>1661.0</ele>
        <time>2013-09-13T13:17:09Z</time>
      </trkpt>
      <trkpt lat="42.025000" lon="0.873767">
        <ele>1662.0</ele>
        <time>2013-09-13T13:17:10Z</time>
      </trkpt>
      <trkpt lat="42.024867" lon="0.873833">
        <ele>1664.0</ele>
        <time>2013-09-13T13:17:12Z</time>
      </trkpt>
      <trkpt lat="42.024817" lon="0.873833">
        <ele>1667.0</ele>
        <time>2013-09-13T13:17:13Z</time>
      </trkpt>
      <trkpt lat="42.024767" lon="0.873817">
        <ele>1668.0</ele>
        <time>2013-09-13T13:17:14Z</time>
      </trkpt>
      <trkpt lat="42.024733" lon="0.873783">
        <ele>1667.0</ele>
        <time>2013-09-13T13:17:15Z</time>
      </trkpt>
      <trkpt lat="42.024717" lon="0.873717">
        <ele>1667.0</ele>
        <time>2013-09-13T13:17:16Z</time>
      </trkpt>
      <trkpt lat="42.024700" lon="0.873617">
        <ele>1667.0</ele>
        <time>2013-09-13T13:17:17Z</time>
      </trkpt>
      <trkpt lat="42.024683" lon="0.873533">
        <ele>1670.0</ele>
        <time>2013-09-13T13:17:18Z</time>
      </trkpt>
      <trkpt lat="42.024700" lon="0.873467">
        <ele>1673.0</ele>
        <time>2013-09-13T13:17:19Z</time>
      </trkpt>
      <trkpt lat="42.024700" lon="0.873417">
        <ele>1676.0</ele>
        <time>2013-09-13T13:17:20Z</time>
      </trkpt>
      <trkpt lat="42.024717" lon="0.873350">
        <ele>1679.0</ele>
        <time>2013-09-13T13:17:21Z</time>
      </trkpt>
      <trkpt lat="42.024750" lon="0.873333">
        <ele>1681.0</ele>
        <time>2013-09-13T13:17:22Z</time>
      </trkpt>
      <trkpt lat="42.024783" lon="0.873267">
        <ele>1678.0</ele>
        <time>2013-09-13T13:17:23Z</time>
      </trkpt>
      <trkpt lat="42.024783" lon="0.873183">
        <ele>1678.0</ele>
        <time>2013-09-13T13:17:24Z</time>
      </trkpt>
      <trkpt lat="42.024783" lon="0.873100">
        <ele>1678.0</ele>
        <time>2013-09-13T13:17:25Z</time>
      </trkpt>
      <trkpt lat="42.024783" lon="0.873050">
        <ele>1679.0</ele>
        <time>2013-09-13T13:17:26Z</time>
      </trkpt>
      <trkpt lat="42.024767" lon="0.873017">
        <ele>1681.0</ele>
        <time>2013-09-13T13:17:27Z</time>
      </trkpt>
      <trkpt lat="42.024700" lon="0.872967">
        <ele>1684.0</ele>
        <time>2013-09-13T13:17:29Z</time>
      </trkpt>
      <trkpt lat="42.024633" lon="0.872950">
        <ele>1683.0</ele>
        <time>2013-09-13T13:17:30Z</time>
      </trkpt>
      <trkpt lat="42.024567" lon="0.872917">
        <ele>1683.0</ele>
        <time>2013-09-13T13:17:31Z</time>
      </trkpt>
      <trkpt lat="42.024500" lon="0.872950">
        <ele>1684.0</ele>
        <time>2013-09-13T13:17:32Z</time>
      </trkpt>
      <trkpt lat="42.024433" lon="0.873000">
        <ele>1685.0</ele>
        <time>2013-09-13T13:17:33Z</time>
      </trkpt>
      <trkpt lat="42.024367" lon="0.873100">
        <ele>1685.0</ele>
        <time>2013-09-13T13:17:34Z</time>
      </trkpt>
      <trkpt lat="42.024317" lon="0.873200">
        <ele>1685.0</ele>
        <time>2013-09-13T13:17:35Z</time>
      </trkpt>
      <trkpt lat="42.024267" lon="0.873300">
        <ele>1687.0</ele>
        <time>2013-09-13T13:17:36Z</time>
      </trkpt>
      <trkpt lat="42.024217" lon="0.873383">
        <ele>1689.0</ele>
        <time>2013-09-13T13:17:37Z</time>
      </trkpt>
      <trkpt lat="42.024150" lon="0.873450">
        <ele>1691.0</ele>
        <time>2013-09-13T13:17:38Z</time>
      </trkpt>
      <trkpt lat="42.024083" lon="0.873483">
        <ele>1694.0</ele>
        <time>2013-09-13T13:17:39Z</time>
      </trkpt>
      <trkpt lat="42.024000" lon="0.873500">
        <ele>1697.0</ele>
        <time>2013-09-13T13:17:40Z</time>
      </trkpt>
      <trkpt lat="42.023933" lon="0.873500">
        <ele>1701.0</ele>
        <time>2013-09-13T13:17:41Z</time>
      </trkpt>
      <trkpt lat="42.023867" lon="0.873517">
        <ele>1704.0</ele>
        <time>2013-09-13T13:17:42Z</time>
      </trkpt>
      <trkpt lat="42.023817" lon="0.873517">
        <ele>1707.0</ele>
        <time>2013-09-13T13:17:43Z</time>
      </trkpt>
      <trkpt lat="42.023750" lon="0.873500">
        <ele>1710.0</ele>
        <time>2013-09-13T13:17:44Z</time>
      </trkpt>
      <trkpt lat="42.023700" lon="0.873483">
        <ele>1713.0</ele>
        <time>2013-09-13T13:17:45Z</time>
      </trkpt>
      <trkpt lat="42.023633" lon="0.873467">
        <ele>1716.0</ele>
        <time>2013-09-13T13:17:46Z</time>
      </trkpt>
      <trkpt lat="42.023600" lon="0.873417">
        <ele>1719.0</ele>
        <time>2013-09-13T13:17:47Z</time>
      </trkpt>
      <trkpt lat="42.023583" lon="0.873367">
        <ele>1722.0</ele>
        <time>2013-09-13T13:17:48Z</time>
      </trkpt>
      <trkpt lat="42.023600" lon="0.873300">
        <ele>1724.0</ele>
        <time>2013-09-13T13:17:49Z</time>
      </trkpt>
      <trkpt lat="42.023633" lon="0.873250">
        <ele>1726.0</ele>
        <time>2013-09-13T13:17:50Z</time>
      </trkpt>
      <trkpt lat="42.023683" lon="0.873200">
        <ele>1726.0</ele>
        <time>2013-09-13T13:17:51Z</time>
      </trkpt>
      <trkpt lat="42.023750" lon="0.873183">
        <ele>1727.0</ele>
        <time>2013-09-13T13:17:52Z</time>
      </trkpt>
      <trkpt lat="42.023817" lon="0.873183">
        <ele>1729.0</ele>
        <time>2013-09-13T13:17:53Z</time>
      </trkpt>
      <trkpt lat="42.023900" lon="0.873217">
        <ele>1730.0</ele>
        <time>2013-09-13T13:17:54Z</time>
      </trkpt>
      <trkpt lat="42.023983" lon="0.873283">
        <ele>1730.0</ele>
        <time>2013-09-13T13:17:55Z</time>
      </trkpt>
      <trkpt lat="42.024083" lon="0.873367">
        <ele>1730.0</ele>
        <time>2013-09-13T13:17:56Z</time>
      </trkpt>
      <trkpt lat="42.024167" lon="0.873467">
        <ele>1730.0</ele>
        <time>2013-09-13T13:17:57Z</time>
      </trkpt>
      <trkpt lat="42.024233" lon="0.873600">
        <ele>1731.0</ele>
        <time>2013-09-13T13:17:58Z</time>
      </trkpt>
      <trkpt lat="42.024267" lon="0.873750">
        <ele>1732.0</ele>
        <time>2013-09-13T13:17:59Z</time>
      </trkpt>
      <trkpt lat="42.024300" lon="0.873900">
        <ele>1732.0</ele>
        <time>2013-09-13T13:18:00Z</time>
      </trkpt>
      <trkpt lat="42.024317" lon="0.874050">
        <ele>1733.0</ele>
        <time>2013-09-13T13:18:01Z</time>
      </trkpt>
      <trkpt lat="42.024333" lon="0.874200">
        <ele>1733.0</ele>
        <time>2013-09-13T13:18:02Z</time>
      </trkpt>
      <trkpt lat="42.024350" lon="0.874383">
        <ele>1733.0</ele>
        <time>2013-09-13T13:18:03Z</time>
      </trkpt>
      <trkpt lat="42.024350" lon="0.874550">
        <ele>1734.0</ele>
        <time>2013-09-13T13:18:04Z</time>
      </trkpt>
      <trkpt lat="42.024333" lon="0.874717">
        <ele>1734.0</ele>
        <time>2013-09-13T13:18:05Z</time>
      </trkpt>
      <trkpt lat="42.024333" lon="0.874867">
        <ele>1735.0</ele>
        <time>2013-09-13T13:18:06Z</time>
      </trkpt>
      <trkpt lat="42.024317" lon="0.875017">
        <ele>1736.0</ele>
        <time>2013-09-13T13:18:07Z</time>
      </trkpt>
      <trkpt lat="42.024317" lon="0.875167">
        <ele>1738.0</ele>
        <time>2013-09-13T13:18:08Z</time>
      </trkpt>
      <trkpt lat="42.024300" lon="0.875300">
        <ele>1739.0</ele>
        <time>2013-09-13T13:18:09Z</time>
      </trkpt>
      <trkpt lat="42.024283" lon="0.875433">
        <ele>1741.0</ele>
        <time>2013-09-13T13:18:10Z</time>
      </trkpt>
      <trkpt lat="42.024250" lon="0.875550">
        <ele>1744.0</ele>
        <time>2013-09-13T13:18:11Z</time>
      </trkpt>
      <trkpt lat="42.024233" lon="0.875667">
        <ele>1745.0</ele>
        <time>2013-09-13T13:18:12Z</time>
      </trkpt>
      <trkpt lat="42.024200" lon="0.875767">
        <ele>1747.0</ele>
        <time>2013-09-13T13:18:13Z</time>
      </trkpt>
      <trkpt lat="42.024150" lon="0.875867">
        <ele>1749.0</ele>
        <time>2013-09-13T13:18:14Z</time>
      </trkpt>
      <trkpt lat="42.024083" lon="0.875950">
        <ele>1750.0</ele>
        <time>2013-09-13T13:18:15Z</time>
      </trkpt>
      <trkpt lat="42.024017" lon="0.876000">
        <ele>1751.0</ele>
        <time>2013-09-13T13:18:16Z</time>
      </trkpt>
      <trkpt lat="42.023950" lon="0.876033">
        <ele>1752.0</ele>
        <time>2013-09-13T13:18:17Z</time>
      </trkpt>
      <trkpt lat="42.023900" lon="0.876017">
        <ele>1753.0</ele>
        <time>2013-09-13T13:18:18Z</time>
      </trkpt>
      <trkpt lat="42.023850" lon="0.875983">
        <ele>1755.0</ele>
        <time>2013-09-13T13:18:19Z</time>
      </trkpt>
      <trkpt lat="42.023800" lon="0.875950">
        <ele>1756.0</ele>
        <time>2013-09-13T13:18:20Z</time>
      </trkpt>
      <trkpt lat="42.023767" lon="0.875900">
        <ele>1757.0</ele>
        <time>2013-09-13T13:18:21Z</time>
      </trkpt>
      <trkpt lat="42.023750" lon="0.875833">
        <ele>1758.0</ele>
        <time>2013-09-13T13:18:22Z</time>
      </trkpt>
      <trkpt lat="42.023733" lon="0.875767">
        <ele>1758.0</ele>
        <time>2013-09-13T13:18:23Z</time>
      </trkpt>
      <trkpt lat="42.023733" lon="0.875683">
        <ele>1758.0</ele>
        <time>2013-09-13T13:18:24Z</time>
      </trkpt>
      <trkpt lat="42.023750" lon="0.875600">
        <ele>1758.0</ele>
        <time>2013-09-13T13:18:25Z</time>
      </trkpt>
      <trkpt lat="42.023800" lon="0.875550">
        <ele>1759.0</ele>
        <time>2013-09-13T13:18:26Z</time>
      </trkpt>
      <trkpt lat="42.023867" lon="0.875500">
        <ele>1759.0</ele>
        <time>2013-09-13T13:18:27Z</time>
      </trkpt>
      <trkpt lat="42.023950" lon="0.875483">
        <ele>1759.0</ele>
        <time>2013-09-13T13:18:28Z</time>
      </trkpt>
      <trkpt lat="42.024033" lon="0.875500">
        <ele>1759.0</ele>
        <time>2013-09-13T13:18:29Z</time>
      </trkpt>
      <trkpt lat="42.024117" lon="0.875550">
        <ele>1760.0</ele>
        <time>2013-09-13T13:18:30Z</time>
      </trkpt>
      <trkpt lat="42.024200" lon="0.875633">
        <ele>1762.0</ele>
        <time>2013-09-13T13:18:31Z</time>
      </trkpt>
      <trkpt lat="42.024250" lon="0.875733">
        <ele>1763.0</ele>
        <time>2013-09-13T13:18:32Z</time>
      </trkpt>
      <trkpt lat="42.024317" lon="0.875867">
        <ele>1764.0</ele>
        <time>2013-09-13T13:18:33Z</time>
      </trkpt>
      <trkpt lat="42.024367" lon="0.876150">
        <ele>1766.0</ele>
        <time>2013-09-13T13:18:35Z</time>
      </trkpt>
      <trkpt lat="42.024367" lon="0.876283">
        <ele>1766.0</ele>
        <time>2013-09-13T13:18:36Z</time>
      </trkpt>
      <trkpt lat="42.024350" lon="0.876433">
        <ele>1767.0</ele>
        <time>2013-09-13T13:18:37Z</time>
      </trkpt>
      <trkpt lat="42.024350" lon="0.876567">
        <ele>1768.0</ele>
        <time>2013-09-13T13:18:38Z</time>
      </trkpt>
      <trkpt lat="42.024317" lon="0.876817">
        <ele>1769.0</ele>
        <time>2013-09-13T13:18:40Z</time>
      </trkpt>
      <trkpt lat="42.024283" lon="0.876950">
        <ele>1770.0</ele>
        <time>2013-09-13T13:18:41Z</time>
      </trkpt>
      <trkpt lat="42.024250" lon="0.877083">
        <ele>1770.0</ele>
        <time>2013-09-13T13:18:42Z</time>
      </trkpt>
      <trkpt lat="42.024217" lon="0.877200">
        <ele>1771.0</ele>
        <time>2013-09-13T13:18:43Z</time>
      </trkpt>
      <trkpt lat="42.024183" lon="0.877317">
        <ele>1772.0</ele>
        <time>2013-09-13T13:18:44Z</time>
      </trkpt>
      <trkpt lat="42.024167" lon="0.877417">
        <ele>1773.0</ele>
        <time>2013-09-13T13:18:45Z</time>
      </trkpt>
      <trkpt lat="42.024117" lon="0.877517">
        <ele>1773.0</ele>
        <time>2013-09-13T13:18:46Z</time>
      </trkpt>
      <trkpt lat="42.024050" lon="0.877583">
        <ele>1773.0</ele>
        <time>2013-09-13T13:18:47Z</time>
      </trkpt>
      <trkpt lat="42.023983" lon="0.877633">
        <ele>1774.0</ele>
        <time>2013-09-13T13:18:48Z</time>
      </trkpt>
      <trkpt lat="42.023917" lon="0.877617">
        <ele>1774.0</ele>
        <time>2013-09-13T13:18:49Z</time>
      </trkpt>
      <trkpt lat="42.023883" lon="0.877600">
        <ele>1776.0</ele>
        <time>2013-09-13T13:18:50Z</time>
      </trkpt>
      <trkpt lat="42.023833" lon="0.877483">
        <ele>1776.0</ele>
        <time>2013-09-13T13:18:52Z</time>
      </trkpt>
      <trkpt lat="42.023817" lon="0.877417">
        <ele>1776.0</ele>
        <time>2013-09-13T13:18:53Z</time>
      </trkpt>
      <trkpt lat="42.023833" lon="0.877333">
        <ele>1776.0</ele>
        <time>2013-09-13T13:18:54Z</time>
      </trkpt>
      <trkpt lat="42.023867" lon="0.877267">
        <ele>1776.0</ele>
        <time>2013-09-13T13:18:55Z</time>
      </trkpt>
      <trkpt lat="42.023917" lon="0.877200">
        <ele>1777.0</ele>
        <time>2013-09-13T13:18:56Z</time>
      </trkpt>
      <trkpt lat="42.023967" lon="0.877150">
        <ele>1777.0</ele>
        <time>2013-09-13T13:18:57Z</time>
      </trkpt>
      <trkpt lat="42.024033" lon="0.877117">
        <ele>1777.0</ele>
        <time>2013-09-13T13:18:58Z</time>
      </trkpt>
      <trkpt lat="42.024117" lon="0.877100">
        <ele>1776.0</ele>
        <time>2013-09-13T13:18:59Z</time>
      </trkpt>
      <trkpt lat="42.024200" lon="0.877100">
        <ele>1775.0</ele>
        <time>2013-09-13T13:19:00Z</time>
      </trkpt>
      <trkpt lat="42.024300" lon="0.877133">
        <ele>1775.0</ele>
        <time>2013-09-13T13:19:01Z</time>
      </trkpt>
      <trkpt lat="42.024367" lon="0.877217">
        <ele>1775.0</ele>
        <time>2013-09-13T13:19:02Z</time>
      </trkpt>
      <trkpt lat="42.024500" lon="0.877400">
        <ele>1775.0</ele>
        <time>2013-09-13T13:19:04Z</time>
      </trkpt>
      <trkpt lat="42.024550" lon="0.877500">
        <ele>1775.0</ele>
        <time>2013-09-13T13:19:05Z</time>
      </trkpt>
      <trkpt lat="42.024617" lon="0.877800">
        <ele>1773.0</ele>
        <time>2013-09-13T13:19:07Z</time>
      </trkpt>
      <trkpt lat="42.024567" lon="0.878083">
        <ele>1773.0</ele>
        <time>2013-09-13T13:19:09Z</time>
      </trkpt>
      <trkpt lat="42.024533" lon="0.878200">
        <ele>1773.0</ele>
        <time>2013-09-13T13:19:10Z</time>
      </trkpt>
      <trkpt lat="42.024483" lon="0.878300">
        <ele>1773.0</ele>
        <time>2013-09-13T13:19:11Z</time>
      </trkpt>
      <trkpt lat="42.024433" lon="0.878417">
        <ele>1772.0</ele>
        <time>2013-09-13T13:19:12Z</time>
      </trkpt>
      <trkpt lat="42.024383" lon="0.878517">
        <ele>1772.0</ele>
        <time>2013-09-13T13:19:13Z</time>
      </trkpt>
      <trkpt lat="42.024317" lon="0.878617">
        <ele>1772.0</ele>
        <time>2013-09-13T13:19:14Z</time>
      </trkpt>
      <trkpt lat="42.024267" lon="0.878700">
        <ele>1772.0</ele>
        <time>2013-09-13T13:19:15Z</time>
      </trkpt>
      <trkpt lat="42.024217" lon="0.878783">
        <ele>1772.0</ele>
        <time>2013-09-13T13:19:16Z</time>
      </trkpt>
      <trkpt lat="42.024167" lon="0.878867">
        <ele>1772.0</ele>
        <time>2013-09-13T13:19:17Z</time>
      </trkpt>
      <trkpt lat="42.024117" lon="0.878950">
        <ele>1771.0</ele>
        <time>2013-09-13T13:19:18Z</time>
      </trkpt>
      <trkpt lat="42.024067" lon="0.879033">
        <ele>1770.0</ele>
        <time>2013-09-13T13:19:19Z</time>
      </trkpt>
      <trkpt lat="42.024017" lon="0.879100">
        <ele>1768.0</ele>
        <time>2013-09-13T13:19:20Z</time>
      </trkpt>
      <trkpt lat="42.023950" lon="0.879200">
        <ele>1766.0</ele>
        <time>2013-09-13T13:19:21Z</time>
      </trkpt>
      <trkpt lat="42.023900" lon="0.879300">
        <ele>1764.0</ele>
        <time>2013-09-13T13:19:22Z</time>
      </trkpt>
      <trkpt lat="42.023833" lon="0.879417">
        <ele>1762.0</ele>
        <time>2013-09-13T13:19:23Z</time>
      </trkpt>
      <trkpt lat="42.023800" lon="0.879517">
        <ele>1761.0</ele>
        <time>2013-09-13T13:19:24Z</time>
      </trkpt>
      <trkpt lat="42.023750" lon="0.879633">
        <ele>1760.0</ele>
        <time>2013-09-13T13:19:25Z</time>
      </trkpt>
      <trkpt lat="42.023700" lon="0.879717">
        <ele>1759.0</ele>
        <time>2013-09-13T13:19:26Z</time>
      </trkpt>
      <trkpt lat="42.023633" lon="0.879817">
        <ele>1758.0</ele>
        <time>2013-09-13T13:19:27Z</time>
      </trkpt>
      <trkpt lat="42.023583" lon="0.879917">
        <ele>1757.0</ele>
        <time>2013-09-13T13:19:28Z</time>
      </trkpt>
      <trkpt lat="42.023533" lon="0.880033">
        <ele>1755.0</ele>
        <time>2013-09-13T13:19:29Z</time>
      </trkpt>
      <trkpt lat="42.023467" lon="0.880150">
        <ele>1754.0</ele>
        <time>2013-09-13T13:19:30Z</time>
      </trkpt>
      <trkpt lat="42.023400" lon="0.880250">
        <ele>1753.0</ele>
        <time>2013-09-13T13:19:31Z</time>
      </trkpt>
      <trkpt lat="42.023333" lon="0.880333">
        <ele>1751.0</ele>
        <time>2013-09-13T13:19:32Z</time>
      </trkpt>
      <trkpt lat="42.023250" lon="0.880417">
        <ele>1749.0</ele>
        <time>2013-09-13T13:19:33Z</time>
      </trkpt>
      <trkpt lat="42.023167" lon="0.880500">
        <ele>1748.0</ele>
        <time>2013-09-13T13:19:34Z</time>
      </trkpt>
      <trkpt lat="42.023083" lon="0.880567">
        <ele>1747.0</ele>
        <time>2013-09-13T13:19:35Z</time>
      </trkpt>
      <trkpt lat="42.022983" lon="0.880633">
        <ele>1746.0</ele>
        <time>2013-09-13T13:19:36Z</time>
      </trkpt>
      <trkpt lat="42.022900" lon="0.880700">
        <ele>1745.0</ele>
        <time>2013-09-13T13:19:37Z</time>
      </trkpt>
      <trkpt lat="42.022800" lon="0.880783">
        <ele>1743.0</ele>
        <time>2013-09-13T13:19:38Z</time>
      </trkpt>
      <trkpt lat="42.022717" lon="0.880850">
        <ele>1742.0</ele>
        <time>2013-09-13T13:19:39Z</time>
      </trkpt>
      <trkpt lat="42.022617" lon="0.880900">
        <ele>1740.0</ele>
        <time>2013-09-13T13:19:40Z</time>
      </trkpt>
      <trkpt lat="42.022533" lon="0.880967">
        <ele>1738.0</ele>
        <time>2013-09-13T13:19:41Z</time>
      </trkpt>
      <trkpt lat="42.022450" lon="0.881050">
        <ele>1736.0</ele>
        <time>2013-09-13T13:19:42Z</time>
      </trkpt>
      <trkpt lat="42.022367" lon="0.881133">
        <ele>1735.0</ele>
        <time>2013-09-13T13:19:43Z</time>
      </trkpt>
      <trkpt lat="42.022283" lon="0.881217">
        <ele>1732.0</ele>
        <time>2013-09-13T13:19:44Z</time>
      </trkpt>
      <trkpt lat="42.022200" lon="0.881300">
        <ele>1730.0</ele>
        <time>2013-09-13T13:19:45Z</time>
      </trkpt>
      <trkpt lat="42.022117" lon="0.881367">
        <ele>1728.0</ele>
        <time>2013-09-13T13:19:46Z</time>
      </trkpt>
      <trkpt lat="42.022050" lon="0.881433">
        <ele>1726.0</ele>
        <time>2013-09-13T13:19:47Z</time>
      </trkpt>
      <trkpt lat="42.021983" lon="0.881500">
        <ele>1724.0</ele>
        <time>2013-09-13T13:19:48Z</time>
      </trkpt>
      <trkpt lat="42.021900" lon="0.881567">
        <ele>1721.0</ele>
        <time>2013-09-13T13:19:49Z</time>
      </trkpt>
      <trkpt lat="42.021833" lon="0.881633">
        <ele>1718.0</ele>
        <time>2013-09-13T13:19:50Z</time>
      </trkpt>
      <trkpt lat="42.021750" lon="0.881733">
        <ele>1715.0</ele>
        <time>2013-09-13T13:19:51Z</time>
      </trkpt>
      <trkpt lat="42.021683" lon="0.881817">
        <ele>1713.0</ele>
        <time>2013-09-13T13:19:52Z</time>
      </trkpt>
      <trkpt lat="42.021617" lon="0.881917">
        <ele>1711.0</ele>
        <time>2013-09-13T13:19:53Z</time>
      </trkpt>
      <trkpt lat="42.021567" lon="0.882017">
        <ele>1710.0</ele>
        <time>2013-09-13T13:19:54Z</time>
      </trkpt>
      <trkpt lat="42.021500" lon="0.882100">
        <ele>1708.0</ele>
        <time>2013-09-13T13:19:55Z</time>
      </trkpt>
      <trkpt lat="42.021450" lon="0.882200">
        <ele>1706.0</ele>
        <time>2013-09-13T13:19:56Z</time>
      </trkpt>
      <trkpt lat="42.021383" lon="0.882317">
        <ele>1704.0</ele>
        <time>2013-09-13T13:19:57Z</time>
      </trkpt>
      <trkpt lat="42.021333" lon="0.882433">
        <ele>1702.0</ele>
        <time>2013-09-13T13:19:58Z</time>
      </trkpt>
      <trkpt lat="42.021267" lon="0.882550">
        <ele>1699.0</ele>
        <time>2013-09-13T13:19:59Z</time>
      </trkpt>
      <trkpt lat="42.021200" lon="0.882667">
        <ele>1697.0</ele>
        <time>2013-09-13T13:20:00Z</time>
      </trkpt>
      <trkpt lat="42.021150" lon="0.882783">
        <ele>1695.0</ele>
        <time>2013-09-13T13:20:01Z</time>
      </trkpt>
      <trkpt lat="42.021100" lon="0.882900">
        <ele>1694.0</ele>
        <time>2013-09-13T13:20:02Z</time>
      </trkpt>
      <trkpt lat="42.021033" lon="0.883017">
        <ele>1693.0</ele>
        <time>2013-09-13T13:20:03Z</time>
      </trkpt>
      <trkpt lat="42.020967" lon="0.883133">
        <ele>1690.0</ele>
        <time>2013-09-13T13:20:04Z</time>
      </trkpt>
      <trkpt lat="42.020900" lon="0.883250">
        <ele>1689.0</ele>
        <time>2013-09-13T13:20:05Z</time>
      </trkpt>
      <trkpt lat="42.020833" lon="0.883383">
        <ele>1689.0</ele>
        <time>2013-09-13T13:20:06Z</time>
      </trkpt>
      <trkpt lat="42.020783" lon="0.883500">
        <ele>1687.0</ele>
        <time>2013-09-13T13:20:07Z</time>
      </trkpt>
      <trkpt lat="42.020717" lon="0.883617">
        <ele>1686.0</ele>
        <time>2013-09-13T13:20:08Z</time>
      </trkpt>
      <trkpt lat="42.020667" lon="0.883717">
        <ele>1685.0</ele>
        <time>2013-09-13T13:20:09Z</time>
      </trkpt>
      <trkpt lat="42.020617" lon="0.883833">
        <ele>1683.0</ele>
        <time>2013-09-13T13:20:10Z</time>
      </trkpt>
      <trkpt lat="42.020550" lon="0.883950">
        <ele>1681.0</ele>
        <time>2013-09-13T13:20:11Z</time>
      </trkpt>
      <trkpt lat="42.020483" lon="0.884067">
        <ele>1680.0</ele>
        <time>2013-09-13T13:20:12Z</time>
      </trkpt>
      <trkpt lat="42.020433" lon="0.884183">
        <ele>1679.0</ele>
        <time>2013-09-13T13:20:13Z</time>
      </trkpt>
      <trkpt lat="42.020367" lon="0.884283">
        <ele>1678.0</ele>
        <time>2013-09-13T13:20:14Z</time>
      </trkpt>
      <trkpt lat="42.020317" lon="0.884400">
        <ele>1677.0</ele>
        <time>2013-09-13T13:20:15Z</time>
      </trkpt>
      <trkpt lat="42.020250" lon="0.884500">
        <ele>1675.0</ele>
        <time>2013-09-13T13:20:16Z</time>
      </trkpt>
      <trkpt lat="42.020183" lon="0.884617">
        <ele>1674.0</ele>
        <time>2013-09-13T13:20:17Z</time>
      </trkpt>
      <trkpt lat="42.020133" lon="0.884717">
        <ele>1673.0</ele>
        <time>2013-09-13T13:20:18Z</time>
      </trkpt>
      <trkpt lat="42.020083" lon="0.884833">
        <ele>1672.0</ele>
        <time>2013-09-13T13:20:19Z</time>
      </trkpt>
      <trkpt lat="42.020017" lon="0.884917">
        <ele>1671.0</ele>
        <time>2013-09-13T13:20:20Z</time>
      </trkpt>
      <trkpt lat="42.019967" lon="0.885033">
        <ele>1670.0</ele>
        <time>2013-09-13T13:20:21Z</time>
      </trkpt>
      <trkpt lat="42.019917" lon="0.885133">
        <ele>1668.0</ele>
        <time>2013-09-13T13:20:22Z</time>
      </trkpt>
      <trkpt lat="42.019850" lon="0.885250">
        <ele>1666.0</ele>
        <time>2013-09-13T13:20:23Z</time>
      </trkpt>
      <trkpt lat="42.019800" lon="0.885367">
        <ele>1664.0</ele>
        <time>2013-09-13T13:20:24Z</time>
      </trkpt>
      <trkpt lat="42.019750" lon="0.885483">
        <ele>1662.0</ele>
        <time>2013-09-13T13:20:25Z</time>
      </trkpt>
      <trkpt lat="42.019700" lon="0.885600">
        <ele>1660.0</ele>
        <time>2013-09-13T13:20:26Z</time>
      </trkpt>
      <trkpt lat="42.019633" lon="0.885717">
        <ele>1658.0</ele>
        <time>2013-09-13T13:20:27Z</time>
      </trkpt>
      <trkpt lat="42.019583" lon="0.885833">
        <ele>1656.0</ele>
        <time>2013-09-13T13:20:28Z</time>
      </trkpt>
      <trkpt lat="42.019517" lon="0.885950">
        <ele>1654.0</ele>
        <time>2013-09-13T13:20:29Z</time>
      </trkpt>
      <trkpt lat="42.019467" lon="0.886050">
        <ele>1651.0</ele>
        <time>2013-09-13T13:20:30Z</time>
      </trkpt>
      <trkpt lat="42.019400" lon="0.886167">
        <ele>1648.0</ele>
        <time>2013-09-13T13:20:31Z</time>
      </trkpt>
      <trkpt lat="42.019333" lon="0.886283">
        <ele>1645.0</ele>
        <time>2013-09-13T13:20:32Z</time>
      </trkpt>
      <trkpt lat="42.019267" lon="0.886417">
        <ele>1643.0</ele>
        <time>2013-09-13T13:20:33Z</time>
      </trkpt>
      <trkpt lat="42.019200" lon="0.886533">
        <ele>1641.0</ele>
        <time>2013-09-13T13:20:34Z</time>
      </trkpt>
      <trkpt lat="42.019150" lon="0.886633">
        <ele>1640.0</ele>
        <time>2013-09-13T13:20:35Z</time>
      </trkpt>
      <trkpt lat="42.019100" lon="0.886750">
        <ele>1638.0</ele>
        <time>2013-09-13T13:20:36Z</time>
      </trkpt>
      <trkpt lat="42.019033" lon="0.886867">
        <ele>1636.0</ele>
        <time>2013-09-13T13:20:37Z</time>
      </trkpt>
      <trkpt lat="42.018983" lon="0.887000">
        <ele>1633.0</ele>
        <time>2013-09-13T13:20:38Z</time>
      </trkpt>
      <trkpt lat="42.018917" lon="0.887133">
        <ele>1631.0</ele>
        <time>2013-09-13T13:20:39Z</time>
      </trkpt>
      <trkpt lat="42.018867" lon="0.887267">
        <ele>1629.0</ele>
        <time>2013-09-13T13:20:40Z</time>
      </trkpt>
      <trkpt lat="42.018817" lon="0.887367">
        <ele>1628.0</ele>
        <time>2013-09-13T13:20:41Z</time>
      </trkpt>
      <trkpt lat="42.018767" lon="0.887483">
        <ele>1626.0</ele>
        <time>2013-09-13T13:20:42Z</time>
      </trkpt>
      <trkpt lat="42.018700" lon="0.887583">
        <ele>1625.0</ele>
        <time>2013-09-13T13:20:43Z</time>
      </trkpt>
      <trkpt lat="42.018633" lon="0.887700">
        <ele>1622.0</ele>
        <time>2013-09-13T13:20:44Z</time>
      </trkpt>
      <trkpt lat="42.018567" lon="0.887817">
        <ele>1619.0</ele>
        <time>2013-09-13T13:20:45Z</time>
      </trkpt>
      <trkpt lat="42.018517" lon="0.887933">
        <ele>1617.0</ele>
        <time>2013-09-13T13:20:46Z</time>
      </trkpt>
      <trkpt lat="42.018450" lon="0.888050">
        <ele>1616.0</ele>
        <time>2013-09-13T13:20:47Z</time>
      </trkpt>
      <trkpt lat="42.018400" lon="0.888150">
        <ele>1615.0</ele>
        <time>2013-09-13T13:20:48Z</time>
      </trkpt>
      <trkpt lat="42.018350" lon="0.888267">
        <ele>1613.0</ele>
        <time>2013-09-13T13:20:49Z</time>
      </trkpt>
      <trkpt lat="42.018300" lon="0.888400">
        <ele>1611.0</ele>
        <time>2013-09-13T13:20:50Z</time>
      </trkpt>
      <trkpt lat="42.018250" lon="0.888517">
        <ele>1609.0</ele>
        <time>2013-09-13T13:20:51Z</time>
      </trkpt>
      <trkpt lat="42.018200" lon="0.888650">
        <ele>1608.0</ele>
        <time>2013-09-13T13:20:52Z</time>
      </trkpt>
      <trkpt lat="42.018150" lon="0.888767">
        <ele>1606.0</ele>
        <time>2013-09-13T13:20:53Z</time>
      </trkpt>
      <trkpt lat="42.018083" lon="0.888900">
        <ele>1604.0</ele>
        <time>2013-09-13T13:20:54Z</time>
      </trkpt>
      <trkpt lat="42.018033" lon="0.889017">
        <ele>1602.0</ele>
        <time>2013-09-13T13:20:55Z</time>
      </trkpt>
      <trkpt lat="42.017983" lon="0.889150">
        <ele>1601.0</ele>
        <time>2013-09-13T13:20:56Z</time>
      </trkpt>
      <trkpt lat="42.017917" lon="0.889283">
        <ele>1599.0</ele>
        <time>2013-09-13T13:20:57Z</time>
      </trkpt>
      <trkpt lat="42.017850" lon="0.889417">
        <ele>1597.0</ele>
        <time>2013-09-13T13:20:58Z</time>
      </trkpt>
      <trkpt lat="42.017800" lon="0.889533">
        <ele>1596.0</ele>
        <time>2013-09-13T13:20:59Z</time>
      </trkpt>
      <trkpt lat="42.017733" lon="0.889650">
        <ele>1595.0</ele>
        <time>2013-09-13T13:21:00Z</time>
      </trkpt>
      <trkpt lat="42.017683" lon="0.889767">
        <ele>1593.0</ele>
        <time>2013-09-13T13:21:01Z</time>
      </trkpt>
      <trkpt lat="42.017633" lon="0.889900">
        <ele>1590.0</ele>
        <time>2013-09-13T13:21:02Z</time>
      </trkpt>
      <trkpt lat="42.017583" lon="0.890017">
        <ele>1588.0</ele>
        <time>2013-09-13T13:21:03Z</time>
      </trkpt>
      <trkpt lat="42.017533" lon="0.890133">
        <ele>1586.0</ele>
        <time>2013-09-13T13:21:04Z</time>
      </trkpt>
      <trkpt lat="42.017483" lon="0.890250">
        <ele>1584.0</ele>
        <time>2013-09-13T13:21:05Z</time>
      </trkpt>
      <trkpt lat="42.017433" lon="0.890367">
        <ele>1583.0</ele>
        <time>2013-09-13T13:21:06Z</time>
      </trkpt>
      <trkpt lat="42.017383" lon="0.890483">
        <ele>1581.0</ele>
        <time>2013-09-13T13:21:07Z</time>
      </trkpt>
      <trkpt lat="42.017333" lon="0.890583">
        <ele>1580.0</ele>
        <time>2013-09-13T13:21:08Z</time>
      </trkpt>
      <trkpt lat="42.017283" lon="0.890667">
        <ele>1579.0</ele>
        <time>2013-09-13T13:21:09Z</time>
      </trkpt>
      <trkpt lat="42.017233" lon="0.890767">
        <ele>1577.0</ele>
        <time>2013-09-13T13:21:10Z</time>
      </trkpt>
      <trkpt lat="42.017167" lon="0.890883">
        <ele>1575.0</ele>
        <time>2013-09-13T13:21:11Z</time>
      </trkpt>
      <trkpt lat="42.017100" lon="0.891000">
        <ele>1573.0</ele>
        <time>2013-09-13T13:21:12Z</time>
      </trkpt>
      <trkpt lat="42.017050" lon="0.891117">
        <ele>1570.0</ele>
        <time>2013-09-13T13:21:13Z</time>
      </trkpt>
      <trkpt lat="42.017000" lon="0.891250">
        <ele>1569.0</ele>
        <time>2013-09-13T13:21:14Z</time>
      </trkpt>
      <trkpt lat="42.016950" lon="0.891367">
        <ele>1569.0</ele>
        <time>2013-09-13T13:21:15Z</time>
      </trkpt>
      <trkpt lat="42.016900" lon="0.891483">
        <ele>1568.0</ele>
        <time>2013-09-13T13:21:16Z</time>
      </trkpt>
      <trkpt lat="42.016867" lon="0.891600">
        <ele>1567.0</ele>
        <time>2013-09-13T13:21:17Z</time>
      </trkpt>
      <trkpt lat="42.016817" lon="0.891717">
        <ele>1566.0</ele>
        <time>2013-09-13T13:21:18Z</time>
      </trkpt>
      <trkpt lat="42.016767" lon="0.891833">
        <ele>1564.0</ele>
        <time>2013-09-13T13:21:19Z</time>
      </trkpt>
      <trkpt lat="42.016700" lon="0.891967">
        <ele>1562.0</ele>
        <time>2013-09-13T13:21:20Z</time>
      </trkpt>
      <trkpt lat="42.016650" lon="0.892117">
        <ele>1561.0</ele>
        <time>2013-09-13T13:21:21Z</time>
      </trkpt>
      <trkpt lat="42.016617" lon="0.892233">
        <ele>1561.0</ele>
        <time>2013-09-13T13:21:22Z</time>
      </trkpt>
      <trkpt lat="42.016567" lon="0.892367">
        <ele>1561.0</ele>
        <time>2013-09-13T13:21:23Z</time>
      </trkpt>
      <trkpt lat="42.016533" lon="0.892483">
        <ele>1562.0</ele>
        <time>2013-09-13T13:21:24Z</time>
      </trkpt>
      <trkpt lat="42.016483" lon="0.892600">
        <ele>1561.0</ele>
        <time>2013-09-13T13:21:25Z</time>
      </trkpt>
      <trkpt lat="42.016450" lon="0.892717">
        <ele>1561.0</ele>
        <time>2013-09-13T13:21:26Z</time>
      </trkpt>
      <trkpt lat="42.016417" lon="0.892833">
        <ele>1561.0</ele>
        <time>2013-09-13T13:21:27Z</time>
      </trkpt>
      <trkpt lat="42.016367" lon="0.892967">
        <ele>1561.0</ele>
        <time>2013-09-13T13:21:28Z</time>
      </trkpt>
      <trkpt lat="42.016333" lon="0.893083">
        <ele>1561.0</ele>
        <time>2013-09-13T13:21:29Z</time>
      </trkpt>
      <trkpt lat="42.016300" lon="0.893183">
        <ele>1561.0</ele>
        <time>2013-09-13T13:21:30Z</time>
      </trkpt>
      <trkpt lat="42.016267" lon="0.893300">
        <ele>1561.0</ele>
        <time>2013-09-13T13:21:31Z</time>
      </trkpt>
      <trkpt lat="42.016233" lon="0.893433">
        <ele>1560.0</ele>
        <time>2013-09-13T13:21:32Z</time>
      </trkpt>
      <trkpt lat="42.016183" lon="0.893567">
        <ele>1560.0</ele>
        <time>2013-09-13T13:21:33Z</time>
      </trkpt>
      <trkpt lat="42.016150" lon="0.893683">
        <ele>1560.0</ele>
        <time>2013-09-13T13:21:34Z</time>
      </trkpt>
      <trkpt lat="42.016117" lon="0.893817">
        <ele>1560.0</ele>
        <time>2013-09-13T13:21:35Z</time>
      </trkpt>
      <trkpt lat="42.016083" lon="0.893917">
        <ele>1560.0</ele>
        <time>2013-09-13T13:21:36Z</time>
      </trkpt>
      <trkpt lat="42.016050" lon="0.894050">
        <ele>1560.0</ele>
        <time>2013-09-13T13:21:37Z</time>
      </trkpt>
      <trkpt lat="42.016017" lon="0.894167">
        <ele>1559.0</ele>
        <time>2013-09-13T13:21:38Z</time>
      </trkpt>
      <trkpt lat="42.015983" lon="0.894300">
        <ele>1558.0</ele>
        <time>2013-09-13T13:21:39Z</time>
      </trkpt>
      <trkpt lat="42.015950" lon="0.894417">
        <ele>1558.0</ele>
        <time>2013-09-13T13:21:40Z</time>
      </trkpt>
      <trkpt lat="42.015900" lon="0.894550">
        <ele>1557.0</ele>
        <time>2013-09-13T13:21:41Z</time>
      </trkpt>
      <trkpt lat="42.015867" lon="0.894667">
        <ele>1557.0</ele>
        <time>2013-09-13T13:21:42Z</time>
      </trkpt>
      <trkpt lat="42.015833" lon="0.894783">
        <ele>1557.0</ele>
        <time>2013-09-13T13:21:43Z</time>
      </trkpt>
      <trkpt lat="42.015800" lon="0.894900">
        <ele>1556.0</ele>
        <time>2013-09-13T13:21:44Z</time>
      </trkpt>
      <trkpt lat="42.015767" lon="0.895017">
        <ele>1556.0</ele>
        <time>2013-09-13T13:21:45Z</time>
      </trkpt>
      <trkpt lat="42.015717" lon="0.895267">
        <ele>1554.0</ele>
        <time>2013-09-13T13:21:47Z</time>
      </trkpt>
      <trkpt lat="42.015683" lon="0.895383">
        <ele>1553.0</ele>
        <time>2013-09-13T13:21:48Z</time>
      </trkpt>
      <trkpt lat="42.015650" lon="0.895483">
        <ele>1552.0</ele>
        <time>2013-09-13T13:21:49Z</time>
      </trkpt>
      <trkpt lat="42.015617" lon="0.895600">
        <ele>1551.0</ele>
        <time>2013-09-13T13:21:50Z</time>
      </trkpt>
      <trkpt lat="42.015583" lon="0.895717">
        <ele>1549.0</ele>
        <time>2013-09-13T13:21:51Z</time>
      </trkpt>
      <trkpt lat="42.015550" lon="0.895833">
        <ele>1548.0</ele>
        <time>2013-09-13T13:21:52Z</time>
      </trkpt>
      <trkpt lat="42.015517" lon="0.895950">
        <ele>1546.0</ele>
        <time>2013-09-13T13:21:53Z</time>
      </trkpt>
      <trkpt lat="42.015500" lon="0.896067">
        <ele>1545.0</ele>
        <time>2013-09-13T13:21:54Z</time>
      </trkpt>
      <trkpt lat="42.015467" lon="0.896183">
        <ele>1543.0</ele>
        <time>2013-09-13T13:21:55Z</time>
      </trkpt>
      <trkpt lat="42.015433" lon="0.896317">
        <ele>1541.0</ele>
        <time>2013-09-13T13:21:56Z</time>
      </trkpt>
      <trkpt lat="42.015417" lon="0.896433">
        <ele>1539.0</ele>
        <time>2013-09-13T13:21:57Z</time>
      </trkpt>
      <trkpt lat="42.015400" lon="0.896567">
        <ele>1537.0</ele>
        <time>2013-09-13T13:21:58Z</time>
      </trkpt>
      <trkpt lat="42.015367" lon="0.896683">
        <ele>1535.0</ele>
        <time>2013-09-13T13:21:59Z</time>
      </trkpt>
      <trkpt lat="42.015350" lon="0.896817">
        <ele>1532.0</ele>
        <time>2013-09-13T13:22:00Z</time>
      </trkpt>
      <trkpt lat="42.015317" lon="0.896950">
        <ele>1530.0</ele>
        <time>2013-09-13T13:22:01Z</time>
      </trkpt>
      <trkpt lat="42.015300" lon="0.897083">
        <ele>1528.0</ele>
        <time>2013-09-13T13:22:02Z</time>
      </trkpt>
      <trkpt lat="42.015283" lon="0.897200">
        <ele>1526.0</ele>
        <time>2013-09-13T13:22:03Z</time>
      </trkpt>
      <trkpt lat="42.015267" lon="0.897317">
        <ele>1524.0</ele>
        <time>2013-09-13T13:22:04Z</time>
      </trkpt>
      <trkpt lat="42.015250" lon="0.897450">
        <ele>1522.0</ele>
        <time>2013-09-13T13:22:05Z</time>
      </trkpt>
      <trkpt lat="42.015233" lon="0.897567">
        <ele>1519.0</ele>
        <time>2013-09-13T13:22:06Z</time>
      </trkpt>
      <trkpt lat="42.015200" lon="0.897667">
        <ele>1517.0</ele>
        <time>2013-09-13T13:22:07Z</time>
      </trkpt>
      <trkpt lat="42.015150" lon="0.897900">
        <ele>1514.0</ele>
        <time>2013-09-13T13:22:09Z</time>
      </trkpt>
      <trkpt lat="42.015133" lon="0.898017">
        <ele>1512.0</ele>
        <time>2013-09-13T13:22:10Z</time>
      </trkpt>
      <trkpt lat="42.015133" lon="0.898133">
        <ele>1511.0</ele>
        <time>2013-09-13T13:22:11Z</time>
      </trkpt>
      <trkpt lat="42.015117" lon="0.898233">
        <ele>1509.0</ele>
        <time>2013-09-13T13:22:12Z</time>
      </trkpt>
      <trkpt lat="42.015100" lon="0.898350">
        <ele>1507.0</ele>
        <time>2013-09-13T13:22:13Z</time>
      </trkpt>
      <trkpt lat="42.015083" lon="0.898467">
        <ele>1507.0</ele>
        <time>2013-09-13T13:22:14Z</time>
      </trkpt>
      <trkpt lat="42.015050" lon="0.898567">
        <ele>1506.0</ele>
        <time>2013-09-13T13:22:15Z</time>
      </trkpt>
      <trkpt lat="42.015033" lon="0.898683">
        <ele>1505.0</ele>
        <time>2013-09-13T13:22:16Z</time>
      </trkpt>
      <trkpt lat="42.015017" lon="0.898800">
        <ele>1504.0</ele>
        <time>2013-09-13T13:22:17Z</time>
      </trkpt>
      <trkpt lat="42.015017" lon="0.898917">
        <ele>1504.0</ele>
        <time>2013-09-13T13:22:18Z</time>
      </trkpt>
      <trkpt lat="42.015000" lon="0.899033">
        <ele>1504.0</ele>
        <time>2013-09-13T13:22:19Z</time>
      </trkpt>
      <trkpt lat="42.015000" lon="0.899133">
        <ele>1504.0</ele>
        <time>2013-09-13T13:22:20Z</time>
      </trkpt>
      <trkpt lat="42.014983" lon="0.899233">
        <ele>1504.0</ele>
        <time>2013-09-13T13:22:21Z</time>
      </trkpt>
      <trkpt lat="42.014967" lon="0.899500">
        <ele>1504.0</ele>
        <time>2013-09-13T13:22:23Z</time>
      </trkpt>
      <trkpt lat="42.014967" lon="0.899650">
        <ele>1505.0</ele>
        <time>2013-09-13T13:22:24Z</time>
      </trkpt>
      <trkpt lat="42.014983" lon="0.899783">
        <ele>1506.0</ele>
        <time>2013-09-13T13:22:25Z</time>
      </trkpt>
      <trkpt lat="42.014983" lon="0.899900">
        <ele>1508.0</ele>
        <time>2013-09-13T13:22:26Z</time>
      </trkpt>
      <trkpt lat="42.015017" lon="0.900033">
        <ele>1510.0</ele>
        <time>2013-09-13T13:22:27Z</time>
      </trkpt>
      <trkpt lat="42.015033" lon="0.900167">
        <ele>1511.0</ele>
        <time>2013-09-13T13:22:28Z</time>
      </trkpt>
      <trkpt lat="42.015050" lon="0.900300">
        <ele>1512.0</ele>
        <time>2013-09-13T13:22:29Z</time>
      </trkpt>
      <trkpt lat="42.015067" lon="0.900433">
        <ele>1514.0</ele>
        <time>2013-09-13T13:22:30Z</time>
      </trkpt>
      <trkpt lat="42.015067" lon="0.900550">
        <ele>1517.0</ele>
        <time>2013-09-13T13:22:31Z</time>
      </trkpt>
      <trkpt lat="42.015067" lon="0.900633">
        <ele>1519.0</ele>
        <time>2013-09-13T13:22:32Z</time>
      </trkpt>
      <trkpt lat="42.015033" lon="0.900733">
        <ele>1519.0</ele>
        <time>2013-09-13T13:22:33Z</time>
      </trkpt>
      <trkpt lat="42.015033" lon="0.900833">
        <ele>1519.0</ele>
        <time>2013-09-13T13:22:34Z</time>
      </trkpt>
      <trkpt lat="42.015033" lon="0.900967">
        <ele>1519.0</ele>
        <time>2013-09-13T13:22:35Z</time>
      </trkpt>
      <trkpt lat="42.015050" lon="0.901100">
        <ele>1517.0</ele>
        <time>2013-09-13T13:22:36Z</time>
      </trkpt>
      <trkpt lat="42.015083" lon="0.901450">
        <ele>1515.0</ele>
        <time>2013-09-13T13:22:39Z</time>
      </trkpt>
      <trkpt lat="42.015100" lon="0.901567">
        <ele>1514.0</ele>
        <time>2013-09-13T13:22:40Z</time>
      </trkpt>
      <trkpt lat="42.015117" lon="0.901700">
        <ele>1512.0</ele>
        <time>2013-09-13T13:22:41Z</time>
      </trkpt>
      <trkpt lat="42.015133" lon="0.901817">
        <ele>1510.0</ele>
        <time>2013-09-13T13:22:42Z</time>
      </trkpt>
      <trkpt lat="42.015150" lon="0.901967">
        <ele>1508.0</ele>
        <time>2013-09-13T13:22:43Z</time>
      </trkpt>
      <trkpt lat="42.015167" lon="0.902100">
        <ele>1507.0</ele>
        <time>2013-09-13T13:22:44Z</time>
      </trkpt>
      <trkpt lat="42.015200" lon="0.902267">
        <ele>1506.0</ele>
        <time>2013-09-13T13:22:45Z</time>
      </trkpt>
      <trkpt lat="42.015217" lon="0.902400">
        <ele>1507.0</ele>
        <time>2013-09-13T13:22:46Z</time>
      </trkpt>
      <trkpt lat="42.015250" lon="0.902517">
        <ele>1509.0</ele>
        <time>2013-09-13T13:22:47Z</time>
      </trkpt>
      <trkpt lat="42.015267" lon="0.902633">
        <ele>1511.0</ele>
        <time>2013-09-13T13:22:48Z</time>
      </trkpt>
      <trkpt lat="42.015283" lon="0.902767">
        <ele>1511.0</ele>
        <time>2013-09-13T13:22:49Z</time>
      </trkpt>
      <trkpt lat="42.015317" lon="0.902900">
        <ele>1512.0</ele>
        <time>2013-09-13T13:22:50Z</time>
      </trkpt>
      <trkpt lat="42.015317" lon="0.903067">
        <ele>1511.0</ele>
        <time>2013-09-13T13:22:51Z</time>
      </trkpt>
      <trkpt lat="42.015317" lon="0.903233">
        <ele>1512.0</ele>
        <time>2013-09-13T13:22:52Z</time>
      </trkpt>
      <trkpt lat="42.015317" lon="0.903383">
        <ele>1514.0</ele>
        <time>2013-09-13T13:22:53Z</time>
      </trkpt>
      <trkpt lat="42.015367" lon="0.903767">
        <ele>1525.0</ele>
        <time>2013-09-13T13:22:56Z</time>
      </trkpt>
      <trkpt lat="42.015383" lon="0.903917">
        <ele>1529.0</ele>
        <time>2013-09-13T13:22:57Z</time>
      </trkpt>
      <trkpt lat="42.015367" lon="0.904050">
        <ele>1533.0</ele>
        <time>2013-09-13T13:22:58Z</time>
      </trkpt>
      <trkpt lat="42.015333" lon="0.904167">
        <ele>1536.0</ele>
        <time>2013-09-13T13:22:59Z</time>
      </trkpt>
      <trkpt lat="42.015283" lon="0.904267">
        <ele>1540.0</ele>
        <time>2013-09-13T13:23:00Z</time>
      </trkpt>
      <trkpt lat="42.015233" lon="0.904333">
        <ele>1546.0</ele>
        <time>2013-09-13T13:23:01Z</time>
      </trkpt>
      <trkpt lat="42.015200" lon="0.904400">
        <ele>1551.0</ele>
        <time>2013-09-13T13:23:02Z</time>
      </trkpt>
      <trkpt lat="42.015150" lon="0.904450">
        <ele>1555.0</ele>
        <time>2013-09-13T13:23:03Z</time>
      </trkpt>
      <trkpt lat="42.015100" lon="0.904517">
        <ele>1558.0</ele>
        <time>2013-09-13T13:23:04Z</time>
      </trkpt>
      <trkpt lat="42.015033" lon="0.904550">
        <ele>1560.0</ele>
        <time>2013-09-13T13:23:05Z</time>
      </trkpt>
      <trkpt lat="42.014950" lon="0.904567">
        <ele>1562.0</ele>
        <time>2013-09-13T13:23:06Z</time>
      </trkpt>
      <trkpt lat="42.014883" lon="0.904533">
        <ele>1563.0</ele>
        <time>2013-09-13T13:23:07Z</time>
      </trkpt>
      <trkpt lat="42.014833" lon="0.904500">
        <ele>1567.0</ele>
        <time>2013-09-13T13:23:08Z</time>
      </trkpt>
      <trkpt lat="42.014800" lon="0.904450">
        <ele>1570.0</ele>
        <time>2013-09-13T13:23:09Z</time>
      </trkpt>
      <trkpt lat="42.014767" lon="0.904400">
        <ele>1573.0</ele>
        <time>2013-09-13T13:23:10Z</time>
      </trkpt>
      <trkpt lat="42.014750" lon="0.904333">
        <ele>1576.0</ele>
        <time>2013-09-13T13:23:11Z</time>
      </trkpt>
      <trkpt lat="42.014733" lon="0.904250">
        <ele>1578.0</ele>
        <time>2013-09-13T13:23:12Z</time>
      </trkpt>
      <trkpt lat="42.014733" lon="0.904150">
        <ele>1580.0</ele>
        <time>2013-09-13T13:23:13Z</time>
      </trkpt>
      <trkpt lat="42.014733" lon="0.904067">
        <ele>1583.0</ele>
        <time>2013-09-13T13:23:14Z</time>
      </trkpt>
      <trkpt lat="42.014733" lon="0.903983">
        <ele>1586.0</ele>
        <time>2013-09-13T13:23:15Z</time>
      </trkpt>
      <trkpt lat="42.014750" lon="0.903917">
        <ele>1592.0</ele>
        <time>2013-09-13T13:23:16Z</time>
      </trkpt>
      <trkpt lat="42.014767" lon="0.903850">
        <ele>1596.0</ele>
        <time>2013-09-13T13:23:17Z</time>
      </trkpt>
      <trkpt lat="42.014817" lon="0.903783">
        <ele>1599.0</ele>
        <time>2013-09-13T13:23:18Z</time>
      </trkpt>
      <trkpt lat="42.014883" lon="0.903733">
        <ele>1601.0</ele>
        <time>2013-09-13T13:23:19Z</time>
      </trkpt>
      <trkpt lat="42.014967" lon="0.903700">
        <ele>1604.0</ele>
        <time>2013-09-13T13:23:20Z</time>
      </trkpt>
      <trkpt lat="42.015050" lon="0.903683">
        <ele>1606.0</ele>
        <time>2013-09-13T13:23:21Z</time>
      </trkpt>
      <trkpt lat="42.015150" lon="0.903717">
        <ele>1608.0</ele>
        <time>2013-09-13T13:23:22Z</time>
      </trkpt>
      <trkpt lat="42.015233" lon="0.903750">
        <ele>1609.0</ele>
        <time>2013-09-13T13:23:23Z</time>
      </trkpt>
      <trkpt lat="42.015333" lon="0.903817">
        <ele>1611.0</ele>
        <time>2013-09-13T13:23:24Z</time>
      </trkpt>
      <trkpt lat="42.015417" lon="0.903883">
        <ele>1613.0</ele>
        <time>2013-09-13T13:23:25Z</time>
      </trkpt>
      <trkpt lat="42.015483" lon="0.903967">
        <ele>1615.0</ele>
        <time>2013-09-13T13:23:26Z</time>
      </trkpt>
      <trkpt lat="42.015550" lon="0.904083">
        <ele>1617.0</ele>
        <time>2013-09-13T13:23:27Z</time>
      </trkpt>
      <trkpt lat="42.015633" lon="0.904200">
        <ele>1619.0</ele>
        <time>2013-09-13T13:23:28Z</time>
      </trkpt>
      <trkpt lat="42.015683" lon="0.904333">
        <ele>1621.0</ele>
        <time>2013-09-13T13:23:29Z</time>
      </trkpt>
      <trkpt lat="42.015717" lon="0.904450">
        <ele>1624.0</ele>
        <time>2013-09-13T13:23:30Z</time>
      </trkpt>
      <trkpt lat="42.015750" lon="0.904550">
        <ele>1627.0</ele>
        <time>2013-09-13T13:23:31Z</time>
      </trkpt>
      <trkpt lat="42.015783" lon="0.904800">
        <ele>1632.0</ele>
        <time>2013-09-13T13:23:33Z</time>
      </trkpt>
      <trkpt lat="42.015800" lon="0.904933">
        <ele>1634.0</ele>
        <time>2013-09-13T13:23:34Z</time>
      </trkpt>
      <trkpt lat="42.015783" lon="0.905067">
        <ele>1636.0</ele>
        <time>2013-09-13T13:23:35Z</time>
      </trkpt>
      <trkpt lat="42.015767" lon="0.905183">
        <ele>1639.0</ele>
        <time>2013-09-13T13:23:36Z</time>
      </trkpt>
      <trkpt lat="42.015733" lon="0.905300">
        <ele>1643.0</ele>
        <time>2013-09-13T13:23:37Z</time>
      </trkpt>
      <trkpt lat="42.015700" lon="0.905383">
        <ele>1647.0</ele>
        <time>2013-09-13T13:23:38Z</time>
      </trkpt>
      <trkpt lat="42.015667" lon="0.905483">
        <ele>1650.0</ele>
        <time>2013-09-13T13:23:39Z</time>
      </trkpt>
      <trkpt lat="42.015600" lon="0.905567">
        <ele>1652.0</ele>
        <time>2013-09-13T13:23:40Z</time>
      </trkpt>
      <trkpt lat="42.015533" lon="0.905633">
        <ele>1655.0</ele>
        <time>2013-09-13T13:23:41Z</time>
      </trkpt>
      <trkpt lat="42.015450" lon="0.905683">
        <ele>1658.0</ele>
        <time>2013-09-13T13:23:42Z</time>
      </trkpt>
      <trkpt lat="42.015400" lon="0.905683">
        <ele>1662.0</ele>
        <time>2013-09-13T13:23:43Z</time>
      </trkpt>
      <trkpt lat="42.015333" lon="0.905667">
        <ele>1666.0</ele>
        <time>2013-09-13T13:23:44Z</time>
      </trkpt>
      <trkpt lat="42.015283" lon="0.905650">
        <ele>1669.0</ele>
        <time>2013-09-13T13:23:45Z</time>
      </trkpt>
      <trkpt lat="42.015233" lon="0.905600">
        <ele>1672.0</ele>
        <time>2013-09-13T13:23:46Z</time>
      </trkpt>
      <trkpt lat="42.015183" lon="0.905550">
        <ele>1675.0</ele>
        <time>2013-09-13T13:23:47Z</time>
      </trkpt>
      <trkpt lat="42.015150" lon="0.905483">
        <ele>1680.0</ele>
        <time>2013-09-13T13:23:48Z</time>
      </trkpt>
      <trkpt lat="42.015150" lon="0.905417">
        <ele>1683.0</ele>
        <time>2013-09-13T13:23:49Z</time>
      </trkpt>
      <trkpt lat="42.015150" lon="0.905333">
        <ele>1686.0</ele>
        <time>2013-09-13T13:23:50Z</time>
      </trkpt>
      <trkpt lat="42.015167" lon="0.905250">
        <ele>1688.0</ele>
        <time>2013-09-13T13:23:51Z</time>
      </trkpt>
      <trkpt lat="42.015200" lon="0.905183">
        <ele>1691.0</ele>
        <time>2013-09-13T13:23:52Z</time>
      </trkpt>
      <trkpt lat="42.015267" lon="0.905150">
        <ele>1695.0</ele>
        <time>2013-09-13T13:23:53Z</time>
      </trkpt>
      <trkpt lat="42.015333" lon="0.905117">
        <ele>1699.0</ele>
        <time>2013-09-13T13:23:54Z</time>
      </trkpt>
      <trkpt lat="42.015400" lon="0.905117">
        <ele>1702.0</ele>
        <time>2013-09-13T13:23:55Z</time>
      </trkpt>
      <trkpt lat="42.015567" lon="0.905167">
        <ele>1706.0</ele>
        <time>2013-09-13T13:23:57Z</time>
      </trkpt>
      <trkpt lat="42.015683" lon="0.905233">
        <ele>1706.0</ele>
        <time>2013-09-13T13:23:58Z</time>
      </trkpt>
      <trkpt lat="42.015783" lon="0.905317">
        <ele>1707.0</ele>
        <time>2013-09-13T13:23:59Z</time>
      </trkpt>
      <trkpt lat="42.015850" lon="0.905400">
        <ele>1709.0</ele>
        <time>2013-09-13T13:24:00Z</time>
      </trkpt>
      <trkpt lat="42.015917" lon="0.905517">
        <ele>1712.0</ele>
        <time>2013-09-13T13:24:01Z</time>
      </trkpt>
      <trkpt lat="42.015967" lon="0.905617">
        <ele>1713.0</ele>
        <time>2013-09-13T13:24:02Z</time>
      </trkpt>
      <trkpt lat="42.016017" lon="0.905750">
        <ele>1716.0</ele>
        <time>2013-09-13T13:24:03Z</time>
      </trkpt>
      <trkpt lat="42.016067" lon="0.905883">
        <ele>1718.0</ele>
        <time>2013-09-13T13:24:04Z</time>
      </trkpt>
      <trkpt lat="42.016117" lon="0.906017">
        <ele>1720.0</ele>
        <time>2013-09-13T13:24:05Z</time>
      </trkpt>
      <trkpt lat="42.016150" lon="0.906167">
        <ele>1723.0</ele>
        <time>2013-09-13T13:24:06Z</time>
      </trkpt>
      <trkpt lat="42.016167" lon="0.906300">
        <ele>1725.0</ele>
        <time>2013-09-13T13:24:07Z</time>
      </trkpt>
      <trkpt lat="42.016167" lon="0.906417">
        <ele>1729.0</ele>
        <time>2013-09-13T13:24:08Z</time>
      </trkpt>
      <trkpt lat="42.016150" lon="0.906533">
        <ele>1732.0</ele>
        <time>2013-09-13T13:24:09Z</time>
      </trkpt>
      <trkpt lat="42.016133" lon="0.906650">
        <ele>1735.0</ele>
        <time>2013-09-13T13:24:10Z</time>
      </trkpt>
      <trkpt lat="42.016100" lon="0.906767">
        <ele>1738.0</ele>
        <time>2013-09-13T13:24:11Z</time>
      </trkpt>
      <trkpt lat="42.016067" lon="0.906900">
        <ele>1740.0</ele>
        <time>2013-09-13T13:24:12Z</time>
      </trkpt>
      <trkpt lat="42.016033" lon="0.907033">
        <ele>1743.0</ele>
        <time>2013-09-13T13:24:13Z</time>
      </trkpt>
      <trkpt lat="42.015983" lon="0.907150">
        <ele>1745.0</ele>
        <time>2013-09-13T13:24:14Z</time>
      </trkpt>
      <trkpt lat="42.015950" lon="0.907267">
        <ele>1748.0</ele>
        <time>2013-09-13T13:24:15Z</time>
      </trkpt>
      <trkpt lat="42.015900" lon="0.907350">
        <ele>1751.0</ele>
        <time>2013-09-13T13:24:16Z</time>
      </trkpt>
      <trkpt lat="42.015833" lon="0.907417">
        <ele>1754.0</ele>
        <time>2013-09-13T13:24:17Z</time>
      </trkpt>
      <trkpt lat="42.015767" lon="0.907483">
        <ele>1757.0</ele>
        <time>2013-09-13T13:24:18Z</time>
      </trkpt>
      <trkpt lat="42.015717" lon="0.907550">
        <ele>1761.0</ele>
        <time>2013-09-13T13:24:19Z</time>
      </trkpt>
      <trkpt lat="42.015667" lon="0.907600">
        <ele>1765.0</ele>
        <time>2013-09-13T13:24:20Z</time>
      </trkpt>
      <trkpt lat="42.015600" lon="0.907617">
        <ele>1769.0</ele>
        <time>2013-09-13T13:24:21Z</time>
      </trkpt>
      <trkpt lat="42.015550" lon="0.907600">
        <ele>1772.0</ele>
        <time>2013-09-13T13:24:22Z</time>
      </trkpt>
      <trkpt lat="42.015483" lon="0.907567">
        <ele>1774.0</ele>
        <time>2013-09-13T13:24:23Z</time>
      </trkpt>
      <trkpt lat="42.015417" lon="0.907500">
        <ele>1777.0</ele>
        <time>2013-09-13T13:24:24Z</time>
      </trkpt>
      <trkpt lat="42.015367" lon="0.907450">
        <ele>1779.0</ele>
        <time>2013-09-13T13:24:25Z</time>
      </trkpt>
      <trkpt lat="42.015333" lon="0.907383">
        <ele>1781.0</ele>
        <time>2013-09-13T13:24:26Z</time>
      </trkpt>
      <trkpt lat="42.015317" lon="0.907300">
        <ele>1784.0</ele>
        <time>2013-09-13T13:24:27Z</time>
      </trkpt>
      <trkpt lat="42.015317" lon="0.907217">
        <ele>1786.0</ele>
        <time>2013-09-13T13:24:28Z</time>
      </trkpt>
      <trkpt lat="42.015350" lon="0.907117">
        <ele>1787.0</ele>
        <time>2013-09-13T13:24:29Z</time>
      </trkpt>
      <trkpt lat="42.015383" lon="0.907050">
        <ele>1790.0</ele>
        <time>2013-09-13T13:24:30Z</time>
      </trkpt>
      <trkpt lat="42.015433" lon="0.906983">
        <ele>1793.0</ele>
        <time>2013-09-13T13:24:31Z</time>
      </trkpt>
      <trkpt lat="42.015517" lon="0.906967">
        <ele>1796.0</ele>
        <time>2013-09-13T13:24:32Z</time>
      </trkpt>
      <trkpt lat="42.015583" lon="0.906983">
        <ele>1799.0</ele>
        <time>2013-09-13T13:24:33Z</time>
      </trkpt>
      <trkpt lat="42.015667" lon="0.907017">
        <ele>1803.0</ele>
        <time>2013-09-13T13:24:34Z</time>
      </trkpt>
      <trkpt lat="42.015750" lon="0.907050">
        <ele>1806.0</ele>
        <time>2013-09-13T13:24:35Z</time>
      </trkpt>
      <trkpt lat="42.015833" lon="0.907117">
        <ele>1809.0</ele>
        <time>2013-09-13T13:24:36Z</time>
      </trkpt>
      <trkpt lat="42.015900" lon="0.907200">
        <ele>1812.0</ele>
        <time>2013-09-13T13:24:37Z</time>
      </trkpt>
      <trkpt lat="42.015983" lon="0.907300">
        <ele>1815.0</ele>
        <time>2013-09-13T13:24:38Z</time>
      </trkpt>
      <trkpt lat="42.016067" lon="0.907417">
        <ele>1817.0</ele>
        <time>2013-09-13T13:24:39Z</time>
      </trkpt>
      <trkpt lat="42.016133" lon="0.907550">
        <ele>1820.0</ele>
        <time>2013-09-13T13:24:40Z</time>
      </trkpt>
      <trkpt lat="42.016183" lon="0.907683">
        <ele>1823.0</ele>
        <time>2013-09-13T13:24:41Z</time>
      </trkpt>
      <trkpt lat="42.016217" lon="0.907833">
        <ele>1825.0</ele>
        <time>2013-09-13T13:24:42Z</time>
      </trkpt>
      <trkpt lat="42.016233" lon="0.907967">
        <ele>1828.0</ele>
        <time>2013-09-13T13:24:43Z</time>
      </trkpt>
      <trkpt lat="42.016250" lon="0.908117">
        <ele>1831.0</ele>
        <time>2013-09-13T13:24:44Z</time>
      </trkpt>
      <trkpt lat="42.016267" lon="0.908250">
        <ele>1834.0</ele>
        <time>2013-09-13T13:24:45Z</time>
      </trkpt>
      <trkpt lat="42.016250" lon="0.908500">
        <ele>1840.0</ele>
        <time>2013-09-13T13:24:47Z</time>
      </trkpt>
      <trkpt lat="42.016217" lon="0.908633">
        <ele>1842.0</ele>
        <time>2013-09-13T13:24:48Z</time>
      </trkpt>
      <trkpt lat="42.016183" lon="0.908750">
        <ele>1845.0</ele>
        <time>2013-09-13T13:24:49Z</time>
      </trkpt>
      <trkpt lat="42.016150" lon="0.908867">
        <ele>1848.0</ele>
        <time>2013-09-13T13:24:50Z</time>
      </trkpt>
      <trkpt lat="42.016117" lon="0.908967">
        <ele>1852.0</ele>
        <time>2013-09-13T13:24:51Z</time>
      </trkpt>
      <trkpt lat="42.016083" lon="0.909067">
        <ele>1855.0</ele>
        <time>2013-09-13T13:24:52Z</time>
      </trkpt>
      <trkpt lat="42.016050" lon="0.909167">
        <ele>1858.0</ele>
        <time>2013-09-13T13:24:53Z</time>
      </trkpt>
      <trkpt lat="42.016000" lon="0.909250">
        <ele>1861.0</ele>
        <time>2013-09-13T13:24:54Z</time>
      </trkpt>
      <trkpt lat="42.015933" lon="0.909317">
        <ele>1864.0</ele>
        <time>2013-09-13T13:24:55Z</time>
      </trkpt>
      <trkpt lat="42.015883" lon="0.909333">
        <ele>1867.0</ele>
        <time>2013-09-13T13:24:56Z</time>
      </trkpt>
      <trkpt lat="42.015817" lon="0.909333">
        <ele>1870.0</ele>
        <time>2013-09-13T13:24:57Z</time>
      </trkpt>
      <trkpt lat="42.015767" lon="0.909300">
        <ele>1871.0</ele>
        <time>2013-09-13T13:24:58Z</time>
      </trkpt>
      <trkpt lat="42.015717" lon="0.909267">
        <ele>1873.0</ele>
        <time>2013-09-13T13:24:59Z</time>
      </trkpt>
      <trkpt lat="42.015667" lon="0.909217">
        <ele>1875.0</ele>
        <time>2013-09-13T13:25:00Z</time>
      </trkpt>
      <trkpt lat="42.015650" lon="0.909167">
        <ele>1877.0</ele>
        <time>2013-09-13T13:25:01Z</time>
      </trkpt>
      <trkpt lat="42.015650" lon="0.909067">
        <ele>1877.0</ele>
        <time>2013-09-13T13:25:02Z</time>
      </trkpt>
      <trkpt lat="42.015667" lon="0.908983">
        <ele>1878.0</ele>
        <time>2013-09-13T13:25:03Z</time>
      </trkpt>
      <trkpt lat="42.015700" lon="0.908883">
        <ele>1879.0</ele>
        <time>2013-09-13T13:25:04Z</time>
      </trkpt>
      <trkpt lat="42.015767" lon="0.908817">
        <ele>1880.0</ele>
        <time>2013-09-13T13:25:05Z</time>
      </trkpt>
      <trkpt lat="42.015867" lon="0.908767">
        <ele>1881.0</ele>
        <time>2013-09-13T13:25:06Z</time>
      </trkpt>
      <trkpt lat="42.015950" lon="0.908767">
        <ele>1882.0</ele>
        <time>2013-09-13T13:25:07Z</time>
      </trkpt>
      <trkpt lat="42.016050" lon="0.908800">
        <ele>1885.0</ele>
        <time>2013-09-13T13:25:08Z</time>
      </trkpt>
      <trkpt lat="42.016133" lon="0.908867">
        <ele>1887.0</ele>
        <time>2013-09-13T13:25:09Z</time>
      </trkpt>
      <trkpt lat="42.016217" lon="0.908967">
        <ele>1891.0</ele>
        <time>2013-09-13T13:25:10Z</time>
      </trkpt>
      <trkpt lat="42.016267" lon="0.909067">
        <ele>1894.0</ele>
        <time>2013-09-13T13:25:11Z</time>
      </trkpt>
      <trkpt lat="42.016300" lon="0.909183">
        <ele>1897.0</ele>
        <time>2013-09-13T13:25:12Z</time>
      </trkpt>
      <trkpt lat="42.016333" lon="0.909333">
        <ele>1900.0</ele>
        <time>2013-09-13T13:25:13Z</time>
      </trkpt>
      <trkpt lat="42.016333" lon="0.909467">
        <ele>1902.0</ele>
        <time>2013-09-13T13:25:14Z</time>
      </trkpt>
      <trkpt lat="42.016317" lon="0.909600">
        <ele>1905.0</ele>
        <time>2013-09-13T13:25:15Z</time>
      </trkpt>
      <trkpt lat="42.016300" lon="0.909717">
        <ele>1907.0</ele>
        <time>2013-09-13T13:25:16Z</time>
      </trkpt>
      <trkpt lat="42.016283" lon="0.909850">
        <ele>1909.0</ele>
        <time>2013-09-13T13:25:17Z</time>
      </trkpt>
      <trkpt lat="42.016267" lon="0.909983">
        <ele>1912.0</ele>
        <time>2013-09-13T13:25:18Z</time>
      </trkpt>
      <trkpt lat="42.016200" lon="0.910250">
        <ele>1916.0</ele>
        <time>2013-09-13T13:25:20Z</time>
      </trkpt>
      <trkpt lat="42.016100" lon="0.910500">
        <ele>1920.0</ele>
        <time>2013-09-13T13:25:22Z</time>
      </trkpt>
      <trkpt lat="42.016067" lon="0.910617">
        <ele>1923.0</ele>
        <time>2013-09-13T13:25:23Z</time>
      </trkpt>
      <trkpt lat="42.016033" lon="0.910700">
        <ele>1925.0</ele>
        <time>2013-09-13T13:25:24Z</time>
      </trkpt>
      <trkpt lat="42.016000" lon="0.910800">
        <ele>1915.0</ele>
        <time>2013-09-13T13:25:25Z</time>
      </trkpt>
      <trkpt lat="42.015950" lon="0.910917">
        <ele>1914.0</ele>
        <time>2013-09-13T13:25:26Z</time>
      </trkpt>
      <trkpt lat="42.015917" lon="0.911017">
        <ele>1914.0</ele>
        <time>2013-09-13T13:25:27Z</time>
      </trkpt>
      <trkpt lat="42.015867" lon="0.911117">
        <ele>1915.0</ele>
        <time>2013-09-13T13:25:28Z</time>
      </trkpt>
      <trkpt lat="42.015817" lon="0.911200">
        <ele>1915.0</ele>
        <time>2013-09-13T13:25:29Z</time>
      </trkpt>
      <trkpt lat="42.015767" lon="0.911267">
        <ele>1916.0</ele>
        <time>2013-09-13T13:25:30Z</time>
      </trkpt>
      <trkpt lat="42.015717" lon="0.911333">
        <ele>1916.0</ele>
        <time>2013-09-13T13:25:31Z</time>
      </trkpt>
      <trkpt lat="42.015633" lon="0.911417">
        <ele>1917.0</ele>
        <time>2013-09-13T13:25:32Z</time>
      </trkpt>
      <trkpt lat="42.015567" lon="0.911500">
        <ele>1917.0</ele>
        <time>2013-09-13T13:25:33Z</time>
      </trkpt>
      <trkpt lat="42.015500" lon="0.911600">
        <ele>1917.0</ele>
        <time>2013-09-13T13:25:34Z</time>
      </trkpt>
      <trkpt lat="42.015433" lon="0.911683">
        <ele>1918.0</ele>
        <time>2013-09-13T13:25:35Z</time>
      </trkpt>
      <trkpt lat="42.015367" lon="0.911783">
        <ele>1918.0</ele>
        <time>2013-09-13T13:25:36Z</time>
      </trkpt>
      <trkpt lat="42.015283" lon="0.911867">
        <ele>1918.0</ele>
        <time>2013-09-13T13:25:37Z</time>
      </trkpt>
      <trkpt lat="42.015217" lon="0.911950">
        <ele>1918.0</ele>
        <time>2013-09-13T13:25:38Z</time>
      </trkpt>
      <trkpt lat="42.015150" lon="0.912033">
        <ele>1919.0</ele>
        <time>2013-09-13T13:25:39Z</time>
      </trkpt>
      <trkpt lat="42.015067" lon="0.912117">
        <ele>1920.0</ele>
        <time>2013-09-13T13:25:40Z</time>
      </trkpt>
      <trkpt lat="42.015000" lon="0.912183">
        <ele>1920.0</ele>
        <time>2013-09-13T13:25:41Z</time>
      </trkpt>
      <trkpt lat="42.014917" lon="0.912267">
        <ele>1920.0</ele>
        <time>2013-09-13T13:25:42Z</time>
      </trkpt>
      <trkpt lat="42.014833" lon="0.912367">
        <ele>1920.0</ele>
        <time>2013-09-13T13:25:43Z</time>
      </trkpt>
      <trkpt lat="42.014750" lon="0.912433">
        <ele>1920.0</ele>
        <time>2013-09-13T13:25:44Z</time>
      </trkpt>
      <trkpt lat="42.014700" lon="0.912500">
        <ele>1921.0</ele>
        <time>2013-09-13T13:25:45Z</time>
      </trkpt>
      <trkpt lat="42.014650" lon="0.912567">
        <ele>1923.0</ele>
        <time>2013-09-13T13:25:46Z</time>
      </trkpt>
      <trkpt lat="42.014583" lon="0.912633">
        <ele>1923.0</ele>
        <time>2013-09-13T13:25:47Z</time>
      </trkpt>
      <trkpt lat="42.014517" lon="0.912717">
        <ele>1924.0</ele>
        <time>2013-09-13T13:25:48Z</time>
      </trkpt>
      <trkpt lat="42.014433" lon="0.912800">
        <ele>1923.0</ele>
        <time>2013-09-13T13:25:49Z</time>
      </trkpt>
      <trkpt lat="42.014367" lon="0.912917">
        <ele>1923.0</ele>
        <time>2013-09-13T13:25:50Z</time>
      </trkpt>
      <trkpt lat="42.014317" lon="0.913033">
        <ele>1924.0</ele>
        <time>2013-09-13T13:25:51Z</time>
      </trkpt>
      <trkpt lat="42.014267" lon="0.913150">
        <ele>1924.0</ele>
        <time>2013-09-13T13:25:52Z</time>
      </trkpt>
      <trkpt lat="42.014217" lon="0.913250">
        <ele>1924.0</ele>
        <time>2013-09-13T13:25:53Z</time>
      </trkpt>
      <trkpt lat="42.014183" lon="0.913350">
        <ele>1924.0</ele>
        <time>2013-09-13T13:25:54Z</time>
      </trkpt>
      <trkpt lat="42.014150" lon="0.913450">
        <ele>1923.0</ele>
        <time>2013-09-13T13:25:55Z</time>
      </trkpt>
      <trkpt lat="42.014100" lon="0.913583">
        <ele>1922.0</ele>
        <time>2013-09-13T13:25:56Z</time>
      </trkpt>
      <trkpt lat="42.014050" lon="0.913750">
        <ele>1924.0</ele>
        <time>2013-09-13T13:25:57Z</time>
      </trkpt>
      <trkpt lat="42.014017" lon="0.913900">
        <ele>1923.0</ele>
        <time>2013-09-13T13:25:58Z</time>
      </trkpt>
      <trkpt lat="42.014000" lon="0.914017">
        <ele>1923.0</ele>
        <time>2013-09-13T13:25:59Z</time>
      </trkpt>
      <trkpt lat="42.013983" lon="0.914133">
        <ele>1923.0</ele>
        <time>2013-09-13T13:26:00Z</time>
      </trkpt>
      <trkpt lat="42.013950" lon="0.914233">
        <ele>1923.0</ele>
        <time>2013-09-13T13:26:01Z</time>
      </trkpt>
      <trkpt lat="42.013933" lon="0.914350">
        <ele>1923.0</ele>
        <time>2013-09-13T13:26:02Z</time>
      </trkpt>
      <trkpt lat="42.013883" lon="0.914467">
        <ele>1923.0</ele>
        <time>2013-09-13T13:26:03Z</time>
      </trkpt>
      <trkpt lat="42.013833" lon="0.914567">
        <ele>1922.0</ele>
        <time>2013-09-13T13:26:04Z</time>
      </trkpt>
      <trkpt lat="42.013783" lon="0.914650">
        <ele>1922.0</ele>
        <time>2013-09-13T13:26:05Z</time>
      </trkpt>
      <trkpt lat="42.013733" lon="0.914717">
        <ele>1922.0</ele>
        <time>2013-09-13T13:26:06Z</time>
      </trkpt>
      <trkpt lat="42.013700" lon="0.914800">
        <ele>1922.0</ele>
        <time>2013-09-13T13:26:07Z</time>
      </trkpt>
      <trkpt lat="42.013650" lon="0.914883">
        <ele>1922.0</ele>
        <time>2013-09-13T13:26:08Z</time>
      </trkpt>
      <trkpt lat="42.013600" lon="0.914983">
        <ele>1921.0</ele>
        <time>2013-09-13T13:26:09Z</time>
      </trkpt>
      <trkpt lat="42.013567" lon="0.915100">
        <ele>1920.0</ele>
        <time>2013-09-13T13:26:10Z</time>
      </trkpt>
      <trkpt lat="42.013517" lon="0.915183">
        <ele>1920.0</ele>
        <time>2013-09-13T13:26:11Z</time>
      </trkpt>
      <trkpt lat="42.013483" lon="0.915267">
        <ele>1920.0</ele>
        <time>2013-09-13T13:26:12Z</time>
      </trkpt>
      <trkpt lat="42.013450" lon="0.915350">
        <ele>1920.0</ele>
        <time>2013-09-13T13:26:13Z</time>
      </trkpt>
      <trkpt lat="42.013400" lon="0.915450">
        <ele>1920.0</ele>
        <time>2013-09-13T13:26:14Z</time>
      </trkpt>
      <trkpt lat="42.013350" lon="0.915533">
        <ele>1920.0</ele>
        <time>2013-09-13T13:26:15Z</time>
      </trkpt>
      <trkpt lat="42.013283" lon="0.915633">
        <ele>1919.0</ele>
        <time>2013-09-13T13:26:16Z</time>
      </trkpt>
      <trkpt lat="42.013217" lon="0.915717">
        <ele>1918.0</ele>
        <time>2013-09-13T13:26:17Z</time>
      </trkpt>
      <trkpt lat="42.013150" lon="0.915817">
        <ele>1917.0</ele>
        <time>2013-09-13T13:26:18Z</time>
      </trkpt>
      <trkpt lat="42.013083" lon="0.915917">
        <ele>1916.0</ele>
        <time>2013-09-13T13:26:19Z</time>
      </trkpt>
      <trkpt lat="42.013017" lon="0.916017">
        <ele>1914.0</ele>
        <time>2013-09-13T13:26:20Z</time>
      </trkpt>
      <trkpt lat="42.012950" lon="0.916117">
        <ele>1912.0</ele>
        <time>2013-09-13T13:26:21Z</time>
      </trkpt>
      <trkpt lat="42.012883" lon="0.916233">
        <ele>1908.0</ele>
        <time>2013-09-13T13:26:22Z</time>
      </trkpt>
      <trkpt lat="42.012800" lon="0.916367">
        <ele>1905.0</ele>
        <time>2013-09-13T13:26:23Z</time>
      </trkpt>
      <trkpt lat="42.012733" lon="0.916467">
        <ele>1902.0</ele>
        <time>2013-09-13T13:26:24Z</time>
      </trkpt>
      <trkpt lat="42.012667" lon="0.916583">
        <ele>1900.0</ele>
        <time>2013-09-13T13:26:25Z</time>
      </trkpt>
      <trkpt lat="42.012600" lon="0.916667">
        <ele>1898.0</ele>
        <time>2013-09-13T13:26:26Z</time>
      </trkpt>
      <trkpt lat="42.012533" lon="0.916767">
        <ele>1896.0</ele>
        <time>2013-09-13T13:26:27Z</time>
      </trkpt>
      <trkpt lat="42.012450" lon="0.916883">
        <ele>1893.0</ele>
        <time>2013-09-13T13:26:28Z</time>
      </trkpt>
      <trkpt lat="42.012367" lon="0.916983">
        <ele>1891.0</ele>
        <time>2013-09-13T13:26:29Z</time>
      </trkpt>
      <trkpt lat="42.012300" lon="0.917083">
        <ele>1889.0</ele>
        <time>2013-09-13T13:26:30Z</time>
      </trkpt>
      <trkpt lat="42.012233" lon="0.917183">
        <ele>1888.0</ele>
        <time>2013-09-13T13:26:31Z</time>
      </trkpt>
      <trkpt lat="42.012150" lon="0.917283">
        <ele>1886.0</ele>
        <time>2013-09-13T13:26:32Z</time>
      </trkpt>
      <trkpt lat="42.012100" lon="0.917400">
        <ele>1883.0</ele>
        <time>2013-09-13T13:26:33Z</time>
      </trkpt>
      <trkpt lat="42.012033" lon="0.917533">
        <ele>1881.0</ele>
        <time>2013-09-13T13:26:34Z</time>
      </trkpt>
      <trkpt lat="42.011983" lon="0.917650">
        <ele>1879.0</ele>
        <time>2013-09-13T13:26:35Z</time>
      </trkpt>
      <trkpt lat="42.011933" lon="0.917783">
        <ele>1877.0</ele>
        <time>2013-09-13T13:26:36Z</time>
      </trkpt>
      <trkpt lat="42.011883" lon="0.917917">
        <ele>1875.0</ele>
        <time>2013-09-13T13:26:37Z</time>
      </trkpt>
      <trkpt lat="42.011833" lon="0.918050">
        <ele>1873.0</ele>
        <time>2013-09-13T13:26:38Z</time>
      </trkpt>
      <trkpt lat="42.011783" lon="0.918183">
        <ele>1872.0</ele>
        <time>2013-09-13T13:26:39Z</time>
      </trkpt>
      <trkpt lat="42.011750" lon="0.918300">
        <ele>1872.0</ele>
        <time>2013-09-13T13:26:40Z</time>
      </trkpt>
      <trkpt lat="42.011700" lon="0.918400">
        <ele>1872.0</ele>
        <time>2013-09-13T13:26:41Z</time>
      </trkpt>
      <trkpt lat="42.011667" lon="0.918517">
        <ele>1870.0</ele>
        <time>2013-09-13T13:26:42Z</time>
      </trkpt>
      <trkpt lat="42.011617" lon="0.918633">
        <ele>1869.0</ele>
        <time>2013-09-13T13:26:43Z</time>
      </trkpt>
      <trkpt lat="42.011567" lon="0.918767">
        <ele>1868.0</ele>
        <time>2013-09-13T13:26:44Z</time>
      </trkpt>
      <trkpt lat="42.011517" lon="0.918900">
        <ele>1866.0</ele>
        <time>2013-09-13T13:26:45Z</time>
      </trkpt>
      <trkpt lat="42.011483" lon="0.919017">
        <ele>1865.0</ele>
        <time>2013-09-13T13:26:46Z</time>
      </trkpt>
      <trkpt lat="42.011433" lon="0.919150">
        <ele>1864.0</ele>
        <time>2013-09-13T13:26:47Z</time>
      </trkpt>
      <trkpt lat="42.011383" lon="0.919283">
        <ele>1863.0</ele>
        <time>2013-09-13T13:26:48Z</time>
      </trkpt>
      <trkpt lat="42.011333" lon="0.919433">
        <ele>1860.0</ele>
        <time>2013-09-13T13:26:49Z</time>
      </trkpt>
      <trkpt lat="42.011300" lon="0.919600">
        <ele>1858.0</ele>
        <time>2013-09-13T13:26:50Z</time>
      </trkpt>
      <trkpt lat="42.011267" lon="0.919750">
        <ele>1856.0</ele>
        <time>2013-09-13T13:26:51Z</time>
      </trkpt>
      <trkpt lat="42.011217" lon="0.919867">
        <ele>1855.0</ele>
        <time>2013-09-13T13:26:52Z</time>
      </trkpt>
      <trkpt lat="42.011183" lon="0.920000">
        <ele>1853.0</ele>
        <time>2013-09-13T13:26:53Z</time>
      </trkpt>
      <trkpt lat="42.011150" lon="0.920133">
        <ele>1851.0</ele>
        <time>2013-09-13T13:26:54Z</time>
      </trkpt>
      <trkpt lat="42.011100" lon="0.920267">
        <ele>1849.0</ele>
        <time>2013-09-13T13:26:55Z</time>
      </trkpt>
      <trkpt lat="42.011067" lon="0.920417">
        <ele>1847.0</ele>
        <time>2013-09-13T13:26:56Z</time>
      </trkpt>
      <trkpt lat="42.011017" lon="0.920567">
        <ele>1844.0</ele>
        <time>2013-09-13T13:26:57Z</time>
      </trkpt>
      <trkpt lat="42.010983" lon="0.920717">
        <ele>1842.0</ele>
        <time>2013-09-13T13:26:58Z</time>
      </trkpt>
      <trkpt lat="42.010950" lon="0.920850">
        <ele>1840.0</ele>
        <time>2013-09-13T13:26:59Z</time>
      </trkpt>
      <trkpt lat="42.010933" lon="0.921000">
        <ele>1838.0</ele>
        <time>2013-09-13T13:27:00Z</time>
      </trkpt>
      <trkpt lat="42.010900" lon="0.921150">
        <ele>1836.0</ele>
        <time>2013-09-13T13:27:01Z</time>
      </trkpt>
      <trkpt lat="42.010867" lon="0.921283">
        <ele>1834.0</ele>
        <time>2013-09-13T13:27:02Z</time>
      </trkpt>
      <trkpt lat="42.010833" lon="0.921417">
        <ele>1833.0</ele>
        <time>2013-09-13T13:27:03Z</time>
      </trkpt>
      <trkpt lat="42.010800" lon="0.921567">
        <ele>1831.0</ele>
        <time>2013-09-13T13:27:04Z</time>
      </trkpt>
      <trkpt lat="42.010767" lon="0.921700">
        <ele>1829.0</ele>
        <time>2013-09-13T13:27:05Z</time>
      </trkpt>
      <trkpt lat="42.010733" lon="0.921850">
        <ele>1827.0</ele>
        <time>2013-09-13T13:27:06Z</time>
      </trkpt>
      <trkpt lat="42.010700" lon="0.921983">
        <ele>1825.0</ele>
        <time>2013-09-13T13:27:07Z</time>
      </trkpt>
      <trkpt lat="42.010667" lon="0.922133">
        <ele>1823.0</ele>
        <time>2013-09-13T13:27:08Z</time>
      </trkpt>
      <trkpt lat="42.010650" lon="0.922267">
        <ele>1821.0</ele>
        <time>2013-09-13T13:27:09Z</time>
      </trkpt>
      <trkpt lat="42.010617" lon="0.922400">
        <ele>1820.0</ele>
        <time>2013-09-13T13:27:10Z</time>
      </trkpt>
      <trkpt lat="42.010600" lon="0.922550">
        <ele>1818.0</ele>
        <time>2013-09-13T13:27:11Z</time>
      </trkpt>
      <trkpt lat="42.010583" lon="0.922683">
        <ele>1816.0</ele>
        <time>2013-09-13T13:27:12Z</time>
      </trkpt>
      <trkpt lat="42.010567" lon="0.922833">
        <ele>1814.0</ele>
        <time>2013-09-13T13:27:13Z</time>
      </trkpt>
      <trkpt lat="42.010550" lon="0.922967">
        <ele>1813.0</ele>
        <time>2013-09-13T13:27:14Z</time>
      </trkpt>
      <trkpt lat="42.010517" lon="0.923100">
        <ele>1811.0</ele>
        <time>2013-09-13T13:27:15Z</time>
      </trkpt>
      <trkpt lat="42.010500" lon="0.923233">
        <ele>1810.0</ele>
        <time>2013-09-13T13:27:16Z</time>
      </trkpt>
      <trkpt lat="42.010483" lon="0.923367">
        <ele>1808.0</ele>
        <time>2013-09-13T13:27:17Z</time>
      </trkpt>
      <trkpt lat="42.010467" lon="0.923500">
        <ele>1806.0</ele>
        <time>2013-09-13T13:27:18Z</time>
      </trkpt>
      <trkpt lat="42.010450" lon="0.923650">
        <ele>1804.0</ele>
        <time>2013-09-13T13:27:19Z</time>
      </trkpt>
      <trkpt lat="42.010450" lon="0.923800">
        <ele>1802.0</ele>
        <time>2013-09-13T13:27:20Z</time>
      </trkpt>
      <trkpt lat="42.010433" lon="0.923917">
        <ele>1801.0</ele>
        <time>2013-09-13T13:27:21Z</time>
      </trkpt>
      <trkpt lat="42.010433" lon="0.924050">
        <ele>1800.0</ele>
        <time>2013-09-13T13:27:22Z</time>
      </trkpt>
      <trkpt lat="42.010400" lon="0.924167">
        <ele>1799.0</ele>
        <time>2013-09-13T13:27:23Z</time>
      </trkpt>
      <trkpt lat="42.010383" lon="0.924283">
        <ele>1797.0</ele>
        <time>2013-09-13T13:27:24Z</time>
      </trkpt>
      <trkpt lat="42.010367" lon="0.924417">
        <ele>1794.0</ele>
        <time>2013-09-13T13:27:25Z</time>
      </trkpt>
      <trkpt lat="42.010333" lon="0.924550">
        <ele>1792.0</ele>
        <time>2013-09-13T13:27:26Z</time>
      </trkpt>
      <trkpt lat="42.010317" lon="0.924683">
        <ele>1790.0</ele>
        <time>2013-09-13T13:27:27Z</time>
      </trkpt>
      <trkpt lat="42.010300" lon="0.924800">
        <ele>1787.0</ele>
        <time>2013-09-13T13:27:28Z</time>
      </trkpt>
      <trkpt lat="42.010267" lon="0.924917">
        <ele>1785.0</ele>
        <time>2013-09-13T13:27:29Z</time>
      </trkpt>
      <trkpt lat="42.010250" lon="0.925050">
        <ele>1782.0</ele>
        <time>2013-09-13T13:27:30Z</time>
      </trkpt>
      <trkpt lat="42.010217" lon="0.925333">
        <ele>1776.0</ele>
        <time>2013-09-13T13:27:32Z</time>
      </trkpt>
      <trkpt lat="42.010183" lon="0.925467">
        <ele>1775.0</ele>
        <time>2013-09-13T13:27:33Z</time>
      </trkpt>
      <trkpt lat="42.010167" lon="0.925600">
        <ele>1774.0</ele>
        <time>2013-09-13T13:27:34Z</time>
      </trkpt>
      <trkpt lat="42.010133" lon="0.925717">
        <ele>1772.0</ele>
        <time>2013-09-13T13:27:35Z</time>
      </trkpt>
      <trkpt lat="42.010117" lon="0.925867">
        <ele>1771.0</ele>
        <time>2013-09-13T13:27:36Z</time>
      </trkpt>
      <trkpt lat="42.010100" lon="0.926000">
        <ele>1770.0</ele>
        <time>2013-09-13T13:27:37Z</time>
      </trkpt>
      <trkpt lat="42.010067" lon="0.926150">
        <ele>1769.0</ele>
        <time>2013-09-13T13:27:38Z</time>
      </trkpt>
      <trkpt lat="42.010000" lon="0.926400">
        <ele>1767.0</ele>
        <time>2013-09-13T13:27:40Z</time>
      </trkpt>
      <trkpt lat="42.009967" lon="0.926533">
        <ele>1766.0</ele>
        <time>2013-09-13T13:27:41Z</time>
      </trkpt>
      <trkpt lat="42.009933" lon="0.926667">
        <ele>1765.0</ele>
        <time>2013-09-13T13:27:42Z</time>
      </trkpt>
      <trkpt lat="42.009917" lon="0.926783">
        <ele>1764.0</ele>
        <time>2013-09-13T13:27:43Z</time>
      </trkpt>
      <trkpt lat="42.009883" lon="0.926900">
        <ele>1764.0</ele>
        <time>2013-09-13T13:27:44Z</time>
      </trkpt>
      <trkpt lat="42.009867" lon="0.927000">
        <ele>1763.0</ele>
        <time>2013-09-13T13:27:45Z</time>
      </trkpt>
      <trkpt lat="42.009833" lon="0.927133">
        <ele>1763.0</ele>
        <time>2013-09-13T13:27:46Z</time>
      </trkpt>
      <trkpt lat="42.009817" lon="0.927267">
        <ele>1761.0</ele>
        <time>2013-09-13T13:27:47Z</time>
      </trkpt>
      <trkpt lat="42.009800" lon="0.927400">
        <ele>1759.0</ele>
        <time>2013-09-13T13:27:48Z</time>
      </trkpt>
      <trkpt lat="42.009783" lon="0.927533">
        <ele>1758.0</ele>
        <time>2013-09-13T13:27:49Z</time>
      </trkpt>
      <trkpt lat="42.009767" lon="0.927667">
        <ele>1757.0</ele>
        <time>2013-09-13T13:27:50Z</time>
      </trkpt>
      <trkpt lat="42.009750" lon="0.927800">
        <ele>1756.0</ele>
        <time>2013-09-13T13:27:51Z</time>
      </trkpt>
      <trkpt lat="42.009750" lon="0.927900">
        <ele>1755.0</ele>
        <time>2013-09-13T13:27:52Z</time>
      </trkpt>
      <trkpt lat="42.009733" lon="0.928033">
        <ele>1754.0</ele>
        <time>2013-09-13T13:27:53Z</time>
      </trkpt>
      <trkpt lat="42.009717" lon="0.928150">
        <ele>1752.0</ele>
        <time>2013-09-13T13:27:54Z</time>
      </trkpt>
      <trkpt lat="42.009717" lon="0.928283">
        <ele>1749.0</ele>
        <time>2013-09-13T13:27:55Z</time>
      </trkpt>
      <trkpt lat="42.009700" lon="0.928433">
        <ele>1747.0</ele>
        <time>2013-09-13T13:27:56Z</time>
      </trkpt>
      <trkpt lat="42.009683" lon="0.928567">
        <ele>1746.0</ele>
        <time>2013-09-13T13:27:57Z</time>
      </trkpt>
      <trkpt lat="42.009683" lon="0.928683">
        <ele>1745.0</ele>
        <time>2013-09-13T13:27:58Z</time>
      </trkpt>
      <trkpt lat="42.009667" lon="0.928800">
        <ele>1743.0</ele>
        <time>2013-09-13T13:27:59Z</time>
      </trkpt>
      <trkpt lat="42.009667" lon="0.928933">
        <ele>1742.0</ele>
        <time>2013-09-13T13:28:00Z</time>
      </trkpt>
      <trkpt lat="42.009667" lon="0.929067">
        <ele>1740.0</ele>
        <time>2013-09-13T13:28:01Z</time>
      </trkpt>
      <trkpt lat="42.009650" lon="0.929217">
        <ele>1738.0</ele>
        <time>2013-09-13T13:28:02Z</time>
      </trkpt>
      <trkpt lat="42.009650" lon="0.929333">
        <ele>1737.0</ele>
        <time>2013-09-13T13:28:03Z</time>
      </trkpt>
      <trkpt lat="42.009650" lon="0.929467">
        <ele>1735.0</ele>
        <time>2013-09-13T13:28:04Z</time>
      </trkpt>
      <trkpt lat="42.009650" lon="0.929583">
        <ele>1734.0</ele>
        <time>2013-09-13T13:28:05Z</time>
      </trkpt>
      <trkpt lat="42.009650" lon="0.929717">
        <ele>1733.0</ele>
        <time>2013-09-13T13:28:06Z</time>
      </trkpt>
      <trkpt lat="42.009650" lon="0.929850">
        <ele>1731.0</ele>
        <time>2013-09-13T13:28:07Z</time>
      </trkpt>
      <trkpt lat="42.009650" lon="0.930000">
        <ele>1729.0</ele>
        <time>2013-09-13T13:28:08Z</time>
      </trkpt>
      <trkpt lat="42.009650" lon="0.930117">
        <ele>1728.0</ele>
        <time>2013-09-13T13:28:09Z</time>
      </trkpt>
      <trkpt lat="42.009650" lon="0.930250">
        <ele>1726.0</ele>
        <time>2013-09-13T13:28:10Z</time>
      </trkpt>
      <trkpt lat="42.009650" lon="0.930383">
        <ele>1724.0</ele>
        <time>2013-09-13T13:28:11Z</time>
      </trkpt>
      <trkpt lat="42.009650" lon="0.930533">
        <ele>1722.0</ele>
        <time>2013-09-13T13:28:12Z</time>
      </trkpt>
      <trkpt lat="42.009650" lon="0.930667">
        <ele>1720.0</ele>
        <time>2013-09-13T13:28:13Z</time>
      </trkpt>
      <trkpt lat="42.009633" lon="0.930800">
        <ele>1718.0</ele>
        <time>2013-09-13T13:28:14Z</time>
      </trkpt>
      <trkpt lat="42.009633" lon="0.930933">
        <ele>1716.0</ele>
        <time>2013-09-13T13:28:15Z</time>
      </trkpt>
      <trkpt lat="42.009633" lon="0.931067">
        <ele>1715.0</ele>
        <time>2013-09-13T13:28:16Z</time>
      </trkpt>
      <trkpt lat="42.009633" lon="0.931200">
        <ele>1713.0</ele>
        <time>2013-09-13T13:28:17Z</time>
      </trkpt>
      <trkpt lat="42.009617" lon="0.931333">
        <ele>1712.0</ele>
        <time>2013-09-13T13:28:18Z</time>
      </trkpt>
      <trkpt lat="42.009617" lon="0.931450">
        <ele>1711.0</ele>
        <time>2013-09-13T13:28:19Z</time>
      </trkpt>
      <trkpt lat="42.009617" lon="0.931583">
        <ele>1710.0</ele>
        <time>2013-09-13T13:28:20Z</time>
      </trkpt>
      <trkpt lat="42.009600" lon="0.931700">
        <ele>1709.0</ele>
        <time>2013-09-13T13:28:21Z</time>
      </trkpt>
      <trkpt lat="42.009600" lon="0.931817">
        <ele>1707.0</ele>
        <time>2013-09-13T13:28:22Z</time>
      </trkpt>
      <trkpt lat="42.009583" lon="0.931967">
        <ele>1706.0</ele>
        <time>2013-09-13T13:28:23Z</time>
      </trkpt>
      <trkpt lat="42.009583" lon="0.932117">
        <ele>1705.0</ele>
        <time>2013-09-13T13:28:24Z</time>
      </trkpt>
      <trkpt lat="42.009583" lon="0.932250">
        <ele>1705.0</ele>
        <time>2013-09-13T13:28:25Z</time>
      </trkpt>
      <trkpt lat="42.009583" lon="0.932350">
        <ele>1707.0</ele>
        <time>2013-09-13T13:28:26Z</time>
      </trkpt>
      <trkpt lat="42.009567" lon="0.932450">
        <ele>1708.0</ele>
        <time>2013-09-13T13:28:27Z</time>
      </trkpt>
      <trkpt lat="42.009567" lon="0.932550">
        <ele>1708.0</ele>
        <time>2013-09-13T13:28:28Z</time>
      </trkpt>
      <trkpt lat="42.009550" lon="0.932683">
        <ele>1708.0</ele>
        <time>2013-09-13T13:28:29Z</time>
      </trkpt>
      <trkpt lat="42.009550" lon="0.932800">
        <ele>1708.0</ele>
        <time>2013-09-13T13:28:30Z</time>
      </trkpt>
      <trkpt lat="42.009550" lon="0.932933">
        <ele>1709.0</ele>
        <time>2013-09-13T13:28:31Z</time>
      </trkpt>
      <trkpt lat="42.009550" lon="0.933067">
        <ele>1710.0</ele>
        <time>2013-09-13T13:28:32Z</time>
      </trkpt>
      <trkpt lat="42.009550" lon="0.933183">
        <ele>1712.0</ele>
        <time>2013-09-13T13:28:33Z</time>
      </trkpt>
      <trkpt lat="42.009550" lon="0.933300">
        <ele>1715.0</ele>
        <time>2013-09-13T13:28:34Z</time>
      </trkpt>
      <trkpt lat="42.009550" lon="0.933433">
        <ele>1717.0</ele>
        <time>2013-09-13T13:28:35Z</time>
      </trkpt>
      <trkpt lat="42.009533" lon="0.933567">
        <ele>1718.0</ele>
        <time>2013-09-13T13:28:36Z</time>
      </trkpt>
      <trkpt lat="42.009517" lon="0.933683">
        <ele>1719.0</ele>
        <time>2013-09-13T13:28:37Z</time>
      </trkpt>
      <trkpt lat="42.009500" lon="0.933817">
        <ele>1721.0</ele>
        <time>2013-09-13T13:28:38Z</time>
      </trkpt>
      <trkpt lat="42.009483" lon="0.933933">
        <ele>1724.0</ele>
        <time>2013-09-13T13:28:39Z</time>
      </trkpt>
      <trkpt lat="42.009467" lon="0.934033">
        <ele>1726.0</ele>
        <time>2013-09-13T13:28:40Z</time>
      </trkpt>
      <trkpt lat="42.009417" lon="0.934150">
        <ele>1727.0</ele>
        <time>2013-09-13T13:28:41Z</time>
      </trkpt>
      <trkpt lat="42.009367" lon="0.934250">
        <ele>1728.0</ele>
        <time>2013-09-13T13:28:42Z</time>
      </trkpt>
      <trkpt lat="42.009300" lon="0.934333">
        <ele>1728.0</ele>
        <time>2013-09-13T13:28:43Z</time>
      </trkpt>
      <trkpt lat="42.009217" lon="0.934383">
        <ele>1729.0</ele>
        <time>2013-09-13T13:28:44Z</time>
      </trkpt>
      <trkpt lat="42.009150" lon="0.934417">
        <ele>1730.0</ele>
        <time>2013-09-13T13:28:45Z</time>
      </trkpt>
      <trkpt lat="42.009083" lon="0.934433">
        <ele>1730.0</ele>
        <time>2013-09-13T13:28:46Z</time>
      </trkpt>
      <trkpt lat="42.009017" lon="0.934433">
        <ele>1730.0</ele>
        <time>2013-09-13T13:28:47Z</time>
      </trkpt>
      <trkpt lat="42.008950" lon="0.934417">
        <ele>1729.0</ele>
        <time>2013-09-13T13:28:48Z</time>
      </trkpt>
      <trkpt lat="42.008883" lon="0.934400">
        <ele>1728.0</ele>
        <time>2013-09-13T13:28:49Z</time>
      </trkpt>
      <trkpt lat="42.008800" lon="0.934417">
        <ele>1728.0</ele>
        <time>2013-09-13T13:28:50Z</time>
      </trkpt>
      <trkpt lat="42.008717" lon="0.934450">
        <ele>1729.0</ele>
        <time>2013-09-13T13:28:51Z</time>
      </trkpt>
      <trkpt lat="42.008650" lon="0.934517">
        <ele>1729.0</ele>
        <time>2013-09-13T13:28:52Z</time>
      </trkpt>
      <trkpt lat="42.008583" lon="0.934617">
        <ele>1730.0</ele>
        <time>2013-09-13T13:28:53Z</time>
      </trkpt>
      <trkpt lat="42.008533" lon="0.934717">
        <ele>1730.0</ele>
        <time>2013-09-13T13:28:54Z</time>
      </trkpt>
      <trkpt lat="42.008500" lon="0.934850">
        <ele>1731.0</ele>
        <time>2013-09-13T13:28:55Z</time>
      </trkpt>
      <trkpt lat="42.008450" lon="0.934983">
        <ele>1730.0</ele>
        <time>2013-09-13T13:28:56Z</time>
      </trkpt>
      <trkpt lat="42.008400" lon="0.935133">
        <ele>1731.0</ele>
        <time>2013-09-13T13:28:57Z</time>
      </trkpt>
      <trkpt lat="42.008367" lon="0.935283">
        <ele>1731.0</ele>
        <time>2013-09-13T13:28:58Z</time>
      </trkpt>
      <trkpt lat="42.008350" lon="0.935417">
        <ele>1732.0</ele>
        <time>2013-09-13T13:28:59Z</time>
      </trkpt>
      <trkpt lat="42.008317" lon="0.935550">
        <ele>1733.0</ele>
        <time>2013-09-13T13:29:00Z</time>
      </trkpt>
      <trkpt lat="42.008300" lon="0.935700">
        <ele>1733.0</ele>
        <time>2013-09-13T13:29:01Z</time>
      </trkpt>
      <trkpt lat="42.008267" lon="0.935850">
        <ele>1734.0</ele>
        <time>2013-09-13T13:29:02Z</time>
      </trkpt>
      <trkpt lat="42.008233" lon="0.936000">
        <ele>1734.0</ele>
        <time>2013-09-13T13:29:03Z</time>
      </trkpt>
      <trkpt lat="42.008200" lon="0.936133">
        <ele>1734.0</ele>
        <time>2013-09-13T13:29:04Z</time>
      </trkpt>
      <trkpt lat="42.008183" lon="0.936300">
        <ele>1734.0</ele>
        <time>2013-09-13T13:29:05Z</time>
      </trkpt>
      <trkpt lat="42.008183" lon="0.936450">
        <ele>1733.0</ele>
        <time>2013-09-13T13:29:06Z</time>
      </trkpt>
      <trkpt lat="42.008167" lon="0.936633">
        <ele>1730.0</ele>
        <time>2013-09-13T13:29:07Z</time>
      </trkpt>
      <trkpt lat="42.008167" lon="0.936800">
        <ele>1729.0</ele>
        <time>2013-09-13T13:29:08Z</time>
      </trkpt>
      <trkpt lat="42.008167" lon="0.936983">
        <ele>1728.0</ele>
        <time>2013-09-13T13:29:09Z</time>
      </trkpt>
      <trkpt lat="42.008183" lon="0.937167">
        <ele>1727.0</ele>
        <time>2013-09-13T13:29:10Z</time>
      </trkpt>
      <trkpt lat="42.008200" lon="0.937350">
        <ele>1726.0</ele>
        <time>2013-09-13T13:29:11Z</time>
      </trkpt>
      <trkpt lat="42.008200" lon="0.937533">
        <ele>1726.0</ele>
        <time>2013-09-13T13:29:12Z</time>
      </trkpt>
      <trkpt lat="42.008200" lon="0.937700">
        <ele>1726.0</ele>
        <time>2013-09-13T13:29:13Z</time>
      </trkpt>
      <trkpt lat="42.008183" lon="0.937867">
        <ele>1726.0</ele>
        <time>2013-09-13T13:29:14Z</time>
      </trkpt>
      <trkpt lat="42.008183" lon="0.938017">
        <ele>1726.0</ele>
        <time>2013-09-13T13:29:15Z</time>
      </trkpt>
      <trkpt lat="42.008183" lon="0.938167">
        <ele>1725.0</ele>
        <time>2013-09-13T13:29:16Z</time>
      </trkpt>
      <trkpt lat="42.008183" lon="0.938333">
        <ele>1725.0</ele>
        <time>2013-09-13T13:29:17Z</time>
      </trkpt>
      <trkpt lat="42.008183" lon="0.938517">
        <ele>1724.0</ele>
        <time>2013-09-13T13:29:18Z</time>
      </trkpt>
      <trkpt lat="42.008200" lon="0.938683">
        <ele>1724.0</ele>
        <time>2013-09-13T13:29:19Z</time>
      </trkpt>
      <trkpt lat="42.008217" lon="0.938833">
        <ele>1724.0</ele>
        <time>2013-09-13T13:29:20Z</time>
      </trkpt>
      <trkpt lat="42.008233" lon="0.938983">
        <ele>1723.0</ele>
        <time>2013-09-13T13:29:21Z</time>
      </trkpt>
      <trkpt lat="42.008250" lon="0.939133">
        <ele>1723.0</ele>
        <time>2013-09-13T13:29:22Z</time>
      </trkpt>
      <trkpt lat="42.008267" lon="0.939283">
        <ele>1722.0</ele>
        <time>2013-09-13T13:29:23Z</time>
      </trkpt>
      <trkpt lat="42.008283" lon="0.939450">
        <ele>1721.0</ele>
        <time>2013-09-13T13:29:24Z</time>
      </trkpt>
      <trkpt lat="42.008300" lon="0.939617">
        <ele>1720.0</ele>
        <time>2013-09-13T13:29:25Z</time>
      </trkpt>
      <trkpt lat="42.008333" lon="0.939767">
        <ele>1719.0</ele>
        <time>2013-09-13T13:29:26Z</time>
      </trkpt>
      <trkpt lat="42.008350" lon="0.939917">
        <ele>1718.0</ele>
        <time>2013-09-13T13:29:27Z</time>
      </trkpt>
      <trkpt lat="42.008383" lon="0.940067">
        <ele>1717.0</ele>
        <time>2013-09-13T13:29:28Z</time>
      </trkpt>
      <trkpt lat="42.008400" lon="0.940200">
        <ele>1717.0</ele>
        <time>2013-09-13T13:29:29Z</time>
      </trkpt>
      <trkpt lat="42.008433" lon="0.940367">
        <ele>1716.0</ele>
        <time>2013-09-13T13:29:30Z</time>
      </trkpt>
      <trkpt lat="42.008467" lon="0.940517">
        <ele>1715.0</ele>
        <time>2013-09-13T13:29:31Z</time>
      </trkpt>
      <trkpt lat="42.008483" lon="0.940667">
        <ele>1715.0</ele>
        <time>2013-09-13T13:29:32Z</time>
      </trkpt>
      <trkpt lat="42.008500" lon="0.940817">
        <ele>1714.0</ele>
        <time>2013-09-13T13:29:33Z</time>
      </trkpt>
      <trkpt lat="42.008517" lon="0.940950">
        <ele>1714.0</ele>
        <time>2013-09-13T13:29:34Z</time>
      </trkpt>
      <trkpt lat="42.008533" lon="0.941100">
        <ele>1713.0</ele>
        <time>2013-09-13T13:29:35Z</time>
      </trkpt>
      <trkpt lat="42.008567" lon="0.941250">
        <ele>1712.0</ele>
        <time>2013-09-13T13:29:36Z</time>
      </trkpt>
      <trkpt lat="42.008583" lon="0.941400">
        <ele>1711.0</ele>
        <time>2013-09-13T13:29:37Z</time>
      </trkpt>
      <trkpt lat="42.008600" lon="0.941550">
        <ele>1710.0</ele>
        <time>2013-09-13T13:29:38Z</time>
      </trkpt>
      <trkpt lat="42.008617" lon="0.941717">
        <ele>1709.0</ele>
        <time>2013-09-13T13:29:39Z</time>
      </trkpt>
      <trkpt lat="42.008633" lon="0.941883">
        <ele>1708.0</ele>
        <time>2013-09-13T13:29:40Z</time>
      </trkpt>
      <trkpt lat="42.008633" lon="0.942033">
        <ele>1707.0</ele>
        <time>2013-09-13T13:29:41Z</time>
      </trkpt>
      <trkpt lat="42.008650" lon="0.942183">
        <ele>1706.0</ele>
        <time>2013-09-13T13:29:42Z</time>
      </trkpt>
      <trkpt lat="42.008667" lon="0.942350">
        <ele>1704.0</ele>
        <time>2013-09-13T13:29:43Z</time>
      </trkpt>
      <trkpt lat="42.008667" lon="0.942500">
        <ele>1702.0</ele>
        <time>2013-09-13T13:29:44Z</time>
      </trkpt>
      <trkpt lat="42.008667" lon="0.942667">
        <ele>1701.0</ele>
        <time>2013-09-13T13:29:45Z</time>
      </trkpt>
      <trkpt lat="42.008683" lon="0.942833">
        <ele>1699.0</ele>
        <time>2013-09-13T13:29:46Z</time>
      </trkpt>
      <trkpt lat="42.008683" lon="0.942983">
        <ele>1698.0</ele>
        <time>2013-09-13T13:29:47Z</time>
      </trkpt>
      <trkpt lat="42.008667" lon="0.943133">
        <ele>1698.0</ele>
        <time>2013-09-13T13:29:48Z</time>
      </trkpt>
      <trkpt lat="42.008683" lon="0.943267">
        <ele>1697.0</ele>
        <time>2013-09-13T13:29:49Z</time>
      </trkpt>
      <trkpt lat="42.008683" lon="0.943417">
        <ele>1696.0</ele>
        <time>2013-09-13T13:29:50Z</time>
      </trkpt>
      <trkpt lat="42.008683" lon="0.943583">
        <ele>1695.0</ele>
        <time>2013-09-13T13:29:51Z</time>
      </trkpt>
      <trkpt lat="42.008700" lon="0.943767">
        <ele>1693.0</ele>
        <time>2013-09-13T13:29:52Z</time>
      </trkpt>
      <trkpt lat="42.008700" lon="0.943933">
        <ele>1692.0</ele>
        <time>2013-09-13T13:29:53Z</time>
      </trkpt>
      <trkpt lat="42.008683" lon="0.944267">
        <ele>1690.0</ele>
        <time>2013-09-13T13:29:55Z</time>
      </trkpt>
      <trkpt lat="42.008683" lon="0.944417">
        <ele>1688.0</ele>
        <time>2013-09-13T13:29:56Z</time>
      </trkpt>
      <trkpt lat="42.008683" lon="0.944567">
        <ele>1687.0</ele>
        <time>2013-09-13T13:29:57Z</time>
      </trkpt>
      <trkpt lat="42.008700" lon="0.944717">
        <ele>1685.0</ele>
        <time>2013-09-13T13:29:58Z</time>
      </trkpt>
      <trkpt lat="42.008700" lon="0.944850">
        <ele>1684.0</ele>
        <time>2013-09-13T13:29:59Z</time>
      </trkpt>
      <trkpt lat="42.008700" lon="0.944983">
        <ele>1683.0</ele>
        <time>2013-09-13T13:30:00Z</time>
      </trkpt>
      <trkpt lat="42.008717" lon="0.945117">
        <ele>1681.0</ele>
        <time>2013-09-13T13:30:01Z</time>
      </trkpt>
      <trkpt lat="42.008733" lon="0.945250">
        <ele>1679.0</ele>
        <time>2013-09-13T13:30:02Z</time>
      </trkpt>
      <trkpt lat="42.008733" lon="0.945383">
        <ele>1678.0</ele>
        <time>2013-09-13T13:30:03Z</time>
      </trkpt>
      <trkpt lat="42.008750" lon="0.945517">
        <ele>1676.0</ele>
        <time>2013-09-13T13:30:04Z</time>
      </trkpt>
      <trkpt lat="42.008750" lon="0.945667">
        <ele>1674.0</ele>
        <time>2013-09-13T13:30:05Z</time>
      </trkpt>
      <trkpt lat="42.008767" lon="0.945783">
        <ele>1673.0</ele>
        <time>2013-09-13T13:30:06Z</time>
      </trkpt>
      <trkpt lat="42.008783" lon="0.945917">
        <ele>1672.0</ele>
        <time>2013-09-13T13:30:07Z</time>
      </trkpt>
      <trkpt lat="42.008800" lon="0.946083">
        <ele>1670.0</ele>
        <time>2013-09-13T13:30:08Z</time>
      </trkpt>
      <trkpt lat="42.008800" lon="0.946233">
        <ele>1669.0</ele>
        <time>2013-09-13T13:30:09Z</time>
      </trkpt>
      <trkpt lat="42.008817" lon="0.946383">
        <ele>1668.0</ele>
        <time>2013-09-13T13:30:10Z</time>
      </trkpt>
      <trkpt lat="42.008817" lon="0.946500">
        <ele>1668.0</ele>
        <time>2013-09-13T13:30:11Z</time>
      </trkpt>
      <trkpt lat="42.008817" lon="0.946633">
        <ele>1669.0</ele>
        <time>2013-09-13T13:30:12Z</time>
      </trkpt>
      <trkpt lat="42.008833" lon="0.946750">
        <ele>1669.0</ele>
        <time>2013-09-13T13:30:13Z</time>
      </trkpt>
      <trkpt lat="42.008833" lon="0.946900">
        <ele>1668.0</ele>
        <time>2013-09-13T13:30:14Z</time>
      </trkpt>
      <trkpt lat="42.008850" lon="0.947050">
        <ele>1667.0</ele>
        <time>2013-09-13T13:30:15Z</time>
      </trkpt>
      <trkpt lat="42.008850" lon="0.947217">
        <ele>1666.0</ele>
        <time>2013-09-13T13:30:16Z</time>
      </trkpt>
      <trkpt lat="42.008867" lon="0.947483">
        <ele>1666.0</ele>
        <time>2013-09-13T13:30:18Z</time>
      </trkpt>
      <trkpt lat="42.008883" lon="0.947617">
        <ele>1667.0</ele>
        <time>2013-09-13T13:30:19Z</time>
      </trkpt>
      <trkpt lat="42.008900" lon="0.947750">
        <ele>1667.0</ele>
        <time>2013-09-13T13:30:20Z</time>
      </trkpt>
      <trkpt lat="42.008917" lon="0.947883">
        <ele>1666.0</ele>
        <time>2013-09-13T13:30:21Z</time>
      </trkpt>
      <trkpt lat="42.008950" lon="0.948017">
        <ele>1666.0</ele>
        <time>2013-09-13T13:30:22Z</time>
      </trkpt>
      <trkpt lat="42.008967" lon="0.948150">
        <ele>1667.0</ele>
        <time>2013-09-13T13:30:23Z</time>
      </trkpt>
      <trkpt lat="42.009000" lon="0.948283">
        <ele>1668.0</ele>
        <time>2013-09-13T13:30:24Z</time>
      </trkpt>
      <trkpt lat="42.009017" lon="0.948400">
        <ele>1669.0</ele>
        <time>2013-09-13T13:30:25Z</time>
      </trkpt>
      <trkpt lat="42.009050" lon="0.948517">
        <ele>1669.0</ele>
        <time>2013-09-13T13:30:26Z</time>
      </trkpt>
      <trkpt lat="42.009050" lon="0.948650">
        <ele>1670.0</ele>
        <time>2013-09-13T13:30:27Z</time>
      </trkpt>
      <trkpt lat="42.009050" lon="0.948767">
        <ele>1670.0</ele>
        <time>2013-09-13T13:30:28Z</time>
      </trkpt>
      <trkpt lat="42.009017" lon="0.948883">
        <ele>1670.0</ele>
        <time>2013-09-13T13:30:29Z</time>
      </trkpt>
      <trkpt lat="42.008950" lon="0.948983">
        <ele>1670.0</ele>
        <time>2013-09-13T13:30:30Z</time>
      </trkpt>
      <trkpt lat="42.008900" lon="0.949067">
        <ele>1670.0</ele>
        <time>2013-09-13T13:30:31Z</time>
      </trkpt>
      <trkpt lat="42.008850" lon="0.949133">
        <ele>1669.0</ele>
        <time>2013-09-13T13:30:32Z</time>
      </trkpt>
      <trkpt lat="42.008783" lon="0.949250">
        <ele>1669.0</ele>
        <time>2013-09-13T13:30:33Z</time>
      </trkpt>
      <trkpt lat="42.008750" lon="0.949383">
        <ele>1668.0</ele>
        <time>2013-09-13T13:30:34Z</time>
      </trkpt>
      <trkpt lat="42.008717" lon="0.949517">
        <ele>1667.0</ele>
        <time>2013-09-13T13:30:35Z</time>
      </trkpt>
      <trkpt lat="42.008683" lon="0.949667">
        <ele>1666.0</ele>
        <time>2013-09-13T13:30:36Z</time>
      </trkpt>
      <trkpt lat="42.008667" lon="0.949933">
        <ele>1663.0</ele>
        <time>2013-09-13T13:30:38Z</time>
      </trkpt>
      <trkpt lat="42.008650" lon="0.950067">
        <ele>1662.0</ele>
        <time>2013-09-13T13:30:39Z</time>
      </trkpt>
      <trkpt lat="42.008650" lon="0.950200">
        <ele>1660.0</ele>
        <time>2013-09-13T13:30:40Z</time>
      </trkpt>
      <trkpt lat="42.008633" lon="0.950350">
        <ele>1658.0</ele>
        <time>2013-09-13T13:30:41Z</time>
      </trkpt>
      <trkpt lat="42.008617" lon="0.950500">
        <ele>1655.0</ele>
        <time>2013-09-13T13:30:42Z</time>
      </trkpt>
      <trkpt lat="42.008617" lon="0.950633">
        <ele>1652.0</ele>
        <time>2013-09-13T13:30:43Z</time>
      </trkpt>
      <trkpt lat="42.008600" lon="0.950783">
        <ele>1650.0</ele>
        <time>2013-09-13T13:30:44Z</time>
      </trkpt>
      <trkpt lat="42.008583" lon="0.950917">
        <ele>1647.0</ele>
        <time>2013-09-13T13:30:45Z</time>
      </trkpt>
      <trkpt lat="42.008567" lon="0.951050">
        <ele>1644.0</ele>
        <time>2013-09-13T13:30:46Z</time>
      </trkpt>
      <trkpt lat="42.008583" lon="0.951183">
        <ele>1642.0</ele>
        <time>2013-09-13T13:30:47Z</time>
      </trkpt>
      <trkpt lat="42.008583" lon="0.951317">
        <ele>1639.0</ele>
        <time>2013-09-13T13:30:48Z</time>
      </trkpt>
      <trkpt lat="42.008583" lon="0.951450">
        <ele>1637.0</ele>
        <time>2013-09-13T13:30:49Z</time>
      </trkpt>
      <trkpt lat="42.008567" lon="0.951583">
        <ele>1635.0</ele>
        <time>2013-09-13T13:30:50Z</time>
      </trkpt>
      <trkpt lat="42.008567" lon="0.951717">
        <ele>1633.0</ele>
        <time>2013-09-13T13:30:51Z</time>
      </trkpt>
      <trkpt lat="42.008567" lon="0.951833">
        <ele>1632.0</ele>
        <time>2013-09-13T13:30:52Z</time>
      </trkpt>
      <trkpt lat="42.008583" lon="0.951967">
        <ele>1631.0</ele>
        <time>2013-09-13T13:30:53Z</time>
      </trkpt>
      <trkpt lat="42.008583" lon="0.952100">
        <ele>1630.0</ele>
        <time>2013-09-13T13:30:54Z</time>
      </trkpt>
      <trkpt lat="42.008600" lon="0.952233">
        <ele>1628.0</ele>
        <time>2013-09-13T13:30:55Z</time>
      </trkpt>
      <trkpt lat="42.008600" lon="0.952383">
        <ele>1626.0</ele>
        <time>2013-09-13T13:30:56Z</time>
      </trkpt>
      <trkpt lat="42.008617" lon="0.952533">
        <ele>1625.0</ele>
        <time>2013-09-13T13:30:57Z</time>
      </trkpt>
      <trkpt lat="42.008650" lon="0.952667">
        <ele>1624.0</ele>
        <time>2013-09-13T13:30:58Z</time>
      </trkpt>
      <trkpt lat="42.008667" lon="0.952817">
        <ele>1623.0</ele>
        <time>2013-09-13T13:30:59Z</time>
      </trkpt>
      <trkpt lat="42.008700" lon="0.952967">
        <ele>1622.0</ele>
        <time>2013-09-13T13:31:00Z</time>
      </trkpt>
      <trkpt lat="42.008700" lon="0.953117">
        <ele>1621.0</ele>
        <time>2013-09-13T13:31:01Z</time>
      </trkpt>
      <trkpt lat="42.008717" lon="0.953250">
        <ele>1620.0</ele>
        <time>2013-09-13T13:31:02Z</time>
      </trkpt>
      <trkpt lat="42.008733" lon="0.953400">
        <ele>1620.0</ele>
        <time>2013-09-13T13:31:03Z</time>
      </trkpt>
      <trkpt lat="42.008750" lon="0.953550">
        <ele>1619.0</ele>
        <time>2013-09-13T13:31:04Z</time>
      </trkpt>
      <trkpt lat="42.008750" lon="0.953683">
        <ele>1618.0</ele>
        <time>2013-09-13T13:31:05Z</time>
      </trkpt>
      <trkpt lat="42.008767" lon="0.953833">
        <ele>1617.0</ele>
        <time>2013-09-13T13:31:06Z</time>
      </trkpt>
      <trkpt lat="42.008767" lon="0.953967">
        <ele>1616.0</ele>
        <time>2013-09-13T13:31:07Z</time>
      </trkpt>
      <trkpt lat="42.008767" lon="0.954083">
        <ele>1616.0</ele>
        <time>2013-09-13T13:31:08Z</time>
      </trkpt>
      <trkpt lat="42.008767" lon="0.954217">
        <ele>1614.0</ele>
        <time>2013-09-13T13:31:09Z</time>
      </trkpt>
      <trkpt lat="42.008783" lon="0.954350">
        <ele>1612.0</ele>
        <time>2013-09-13T13:31:10Z</time>
      </trkpt>
      <trkpt lat="42.008800" lon="0.954500">
        <ele>1610.0</ele>
        <time>2013-09-13T13:31:11Z</time>
      </trkpt>
      <trkpt lat="42.008817" lon="0.954650">
        <ele>1608.0</ele>
        <time>2013-09-13T13:31:12Z</time>
      </trkpt>
      <trkpt lat="42.008833" lon="0.954800">
        <ele>1606.0</ele>
        <time>2013-09-13T13:31:13Z</time>
      </trkpt>
      <trkpt lat="42.008850" lon="0.954933">
        <ele>1605.0</ele>
        <time>2013-09-13T13:31:14Z</time>
      </trkpt>
      <trkpt lat="42.008867" lon="0.955067">
        <ele>1603.0</ele>
        <time>2013-09-13T13:31:15Z</time>
      </trkpt>
      <trkpt lat="42.008883" lon="0.955217">
        <ele>1601.0</ele>
        <time>2013-09-13T13:31:16Z</time>
      </trkpt>
      <trkpt lat="42.008917" lon="0.955367">
        <ele>1600.0</ele>
        <time>2013-09-13T13:31:17Z</time>
      </trkpt>
      <trkpt lat="42.008917" lon="0.955500">
        <ele>1599.0</ele>
        <time>2013-09-13T13:31:18Z</time>
      </trkpt>
      <trkpt lat="42.008933" lon="0.955633">
        <ele>1598.0</ele>
        <time>2013-09-13T13:31:19Z</time>
      </trkpt>
      <trkpt lat="42.008950" lon="0.955767">
        <ele>1598.0</ele>
        <time>2013-09-13T13:31:20Z</time>
      </trkpt>
      <trkpt lat="42.008967" lon="0.955883">
        <ele>1597.0</ele>
        <time>2013-09-13T13:31:21Z</time>
      </trkpt>
      <trkpt lat="42.008967" lon="0.956017">
        <ele>1595.0</ele>
        <time>2013-09-13T13:31:22Z</time>
      </trkpt>
      <trkpt lat="42.008967" lon="0.956333">
        <ele>1592.0</ele>
        <time>2013-09-13T13:31:24Z</time>
      </trkpt>
      <trkpt lat="42.009017" lon="0.956717">
        <ele>1589.0</ele>
        <time>2013-09-13T13:31:27Z</time>
      </trkpt>
      <trkpt lat="42.009033" lon="0.956850">
        <ele>1588.0</ele>
        <time>2013-09-13T13:31:28Z</time>
      </trkpt>
      <trkpt lat="42.009050" lon="0.957133">
        <ele>1585.0</ele>
        <time>2013-09-13T13:31:30Z</time>
      </trkpt>
      <trkpt lat="42.009067" lon="0.957267">
        <ele>1583.0</ele>
        <time>2013-09-13T13:31:31Z</time>
      </trkpt>
      <trkpt lat="42.009067" lon="0.957400">
        <ele>1582.0</ele>
        <time>2013-09-13T13:31:32Z</time>
      </trkpt>
      <trkpt lat="42.009083" lon="0.957517">
        <ele>1581.0</ele>
        <time>2013-09-13T13:31:33Z</time>
      </trkpt>
      <trkpt lat="42.009083" lon="0.957650">
        <ele>1580.0</ele>
        <time>2013-09-13T13:31:34Z</time>
      </trkpt>
      <trkpt lat="42.009083" lon="0.957800">
        <ele>1579.0</ele>
        <time>2013-09-13T13:31:35Z</time>
      </trkpt>
      <trkpt lat="42.009067" lon="0.957933">
        <ele>1578.0</ele>
        <time>2013-09-13T13:31:36Z</time>
      </trkpt>
      <trkpt lat="42.009067" lon="0.958067">
        <ele>1577.0</ele>
        <time>2013-09-13T13:31:37Z</time>
      </trkpt>
      <trkpt lat="42.009067" lon="0.958183">
        <ele>1576.0</ele>
        <time>2013-09-13T13:31:38Z</time>
      </trkpt>
      <trkpt lat="42.009050" lon="0.958317">
        <ele>1575.0</ele>
        <time>2013-09-13T13:31:39Z</time>
      </trkpt>
      <trkpt lat="42.009050" lon="0.958450">
        <ele>1573.0</ele>
        <time>2013-09-13T13:31:40Z</time>
      </trkpt>
      <trkpt lat="42.009017" lon="0.958583">
        <ele>1572.0</ele>
        <time>2013-09-13T13:31:41Z</time>
      </trkpt>
      <trkpt lat="42.009000" lon="0.958733">
        <ele>1571.0</ele>
        <time>2013-09-13T13:31:42Z</time>
      </trkpt>
      <trkpt lat="42.008983" lon="0.958867">
        <ele>1569.0</ele>
        <time>2013-09-13T13:31:43Z</time>
      </trkpt>
      <trkpt lat="42.008983" lon="0.959000">
        <ele>1569.0</ele>
        <time>2013-09-13T13:31:44Z</time>
      </trkpt>
      <trkpt lat="42.008967" lon="0.959133">
        <ele>1568.0</ele>
        <time>2013-09-13T13:31:45Z</time>
      </trkpt>
      <trkpt lat="42.008950" lon="0.959267">
        <ele>1567.0</ele>
        <time>2013-09-13T13:31:46Z</time>
      </trkpt>
      <trkpt lat="42.008950" lon="0.959400">
        <ele>1567.0</ele>
        <time>2013-09-13T13:31:47Z</time>
      </trkpt>
      <trkpt lat="42.008950" lon="0.959533">
        <ele>1566.0</ele>
        <time>2013-09-13T13:31:48Z</time>
      </trkpt>
      <trkpt lat="42.008933" lon="0.959667">
        <ele>1565.0</ele>
        <time>2013-09-13T13:31:49Z</time>
      </trkpt>
      <trkpt lat="42.008933" lon="0.959800">
        <ele>1564.0</ele>
        <time>2013-09-13T13:31:50Z</time>
      </trkpt>
      <trkpt lat="42.008933" lon="0.959933">
        <ele>1563.0</ele>
        <time>2013-09-13T13:31:51Z</time>
      </trkpt>
      <trkpt lat="42.008917" lon="0.960067">
        <ele>1563.0</ele>
        <time>2013-09-13T13:31:52Z</time>
      </trkpt>
      <trkpt lat="42.008917" lon="0.960200">
        <ele>1562.0</ele>
        <time>2013-09-13T13:31:53Z</time>
      </trkpt>
      <trkpt lat="42.008900" lon="0.960333">
        <ele>1561.0</ele>
        <time>2013-09-13T13:31:54Z</time>
      </trkpt>
      <trkpt lat="42.008883" lon="0.960467">
        <ele>1561.0</ele>
        <time>2013-09-13T13:31:55Z</time>
      </trkpt>
      <trkpt lat="42.008883" lon="0.960600">
        <ele>1561.0</ele>
        <time>2013-09-13T13:31:56Z</time>
      </trkpt>
      <trkpt lat="42.008867" lon="0.960717">
        <ele>1561.0</ele>
        <time>2013-09-13T13:31:57Z</time>
      </trkpt>
      <trkpt lat="42.008850" lon="0.960850">
        <ele>1561.0</ele>
        <time>2013-09-13T13:31:58Z</time>
      </trkpt>
      <trkpt lat="42.008833" lon="0.961000">
        <ele>1561.0</ele>
        <time>2013-09-13T13:31:59Z</time>
      </trkpt>
      <trkpt lat="42.008817" lon="0.961133">
        <ele>1560.0</ele>
        <time>2013-09-13T13:32:00Z</time>
      </trkpt>
      <trkpt lat="42.008800" lon="0.961267">
        <ele>1560.0</ele>
        <time>2013-09-13T13:32:01Z</time>
      </trkpt>
      <trkpt lat="42.008783" lon="0.961400">
        <ele>1559.0</ele>
        <time>2013-09-13T13:32:02Z</time>
      </trkpt>
      <trkpt lat="42.008767" lon="0.961533">
        <ele>1559.0</ele>
        <time>2013-09-13T13:32:03Z</time>
      </trkpt>
      <trkpt lat="42.008750" lon="0.961667">
        <ele>1559.0</ele>
        <time>2013-09-13T13:32:04Z</time>
      </trkpt>
      <trkpt lat="42.008717" lon="0.961800">
        <ele>1558.0</ele>
        <time>2013-09-13T13:32:05Z</time>
      </trkpt>
      <trkpt lat="42.008700" lon="0.961917">
        <ele>1558.0</ele>
        <time>2013-09-13T13:32:06Z</time>
      </trkpt>
      <trkpt lat="42.008683" lon="0.962033">
        <ele>1557.0</ele>
        <time>2013-09-13T13:32:07Z</time>
      </trkpt>
      <trkpt lat="42.008650" lon="0.962150">
        <ele>1557.0</ele>
        <time>2013-09-13T13:32:08Z</time>
      </trkpt>
      <trkpt lat="42.008633" lon="0.962267">
        <ele>1556.0</ele>
        <time>2013-09-13T13:32:09Z</time>
      </trkpt>
      <trkpt lat="42.008633" lon="0.962400">
        <ele>1555.0</ele>
        <time>2013-09-13T13:32:10Z</time>
      </trkpt>
      <trkpt lat="42.008600" lon="0.962517">
        <ele>1554.0</ele>
        <time>2013-09-13T13:32:11Z</time>
      </trkpt>
      <trkpt lat="42.008600" lon="0.962650">
        <ele>1553.0</ele>
        <time>2013-09-13T13:32:12Z</time>
      </trkpt>
      <trkpt lat="42.008583" lon="0.962783">
        <ele>1552.0</ele>
        <time>2013-09-13T13:32:13Z</time>
      </trkpt>
      <trkpt lat="42.008567" lon="0.962917">
        <ele>1552.0</ele>
        <time>2013-09-13T13:32:14Z</time>
      </trkpt>
      <trkpt lat="42.008550" lon="0.963033">
        <ele>1551.0</ele>
        <time>2013-09-13T13:32:15Z</time>
      </trkpt>
      <trkpt lat="42.008517" lon="0.963150">
        <ele>1551.0</ele>
        <time>2013-09-13T13:32:16Z</time>
      </trkpt>
      <trkpt lat="42.008500" lon="0.963267">
        <ele>1550.0</ele>
        <time>2013-09-13T13:32:17Z</time>
      </trkpt>
      <trkpt lat="42.008500" lon="0.963400">
        <ele>1550.0</ele>
        <time>2013-09-13T13:32:18Z</time>
      </trkpt>
      <trkpt lat="42.008483" lon="0.963517">
        <ele>1549.0</ele>
        <time>2013-09-13T13:32:19Z</time>
      </trkpt>
      <trkpt lat="42.008467" lon="0.963650">
        <ele>1549.0</ele>
        <time>2013-09-13T13:32:20Z</time>
      </trkpt>
      <trkpt lat="42.008433" lon="0.963767">
        <ele>1549.0</ele>
        <time>2013-09-13T13:32:21Z</time>
      </trkpt>
      <trkpt lat="42.008417" lon="0.963867">
        <ele>1550.0</ele>
        <time>2013-09-13T13:32:22Z</time>
      </trkpt>
      <trkpt lat="42.008400" lon="0.963983">
        <ele>1549.0</ele>
        <time>2013-09-13T13:32:23Z</time>
      </trkpt>
      <trkpt lat="42.008383" lon="0.964100">
        <ele>1549.0</ele>
        <time>2013-09-13T13:32:24Z</time>
      </trkpt>
      <trkpt lat="42.008367" lon="0.964217">
        <ele>1549.0</ele>
        <time>2013-09-13T13:32:25Z</time>
      </trkpt>
      <trkpt lat="42.008350" lon="0.964317">
        <ele>1549.0</ele>
        <time>2013-09-13T13:32:26Z</time>
      </trkpt>
      <trkpt lat="42.008333" lon="0.964433">
        <ele>1549.0</ele>
        <time>2013-09-13T13:32:27Z</time>
      </trkpt>
      <trkpt lat="42.008317" lon="0.964550">
        <ele>1549.0</ele>
        <time>2013-09-13T13:32:28Z</time>
      </trkpt>
      <trkpt lat="42.008317" lon="0.964667">
        <ele>1550.0</ele>
        <time>2013-09-13T13:32:29Z</time>
      </trkpt>
      <trkpt lat="42.008300" lon="0.964767">
        <ele>1551.0</ele>
        <time>2013-09-13T13:32:30Z</time>
      </trkpt>
      <trkpt lat="42.008300" lon="0.964850">
        <ele>1552.0</ele>
        <time>2013-09-13T13:32:31Z</time>
      </trkpt>
      <trkpt lat="42.008283" lon="0.964950">
        <ele>1552.0</ele>
        <time>2013-09-13T13:32:32Z</time>
      </trkpt>
      <trkpt lat="42.008267" lon="0.965067">
        <ele>1552.0</ele>
        <time>2013-09-13T13:32:33Z</time>
      </trkpt>
      <trkpt lat="42.008250" lon="0.965217">
        <ele>1552.0</ele>
        <time>2013-09-13T13:32:34Z</time>
      </trkpt>
      <trkpt lat="42.008233" lon="0.965350">
        <ele>1552.0</ele>
        <time>2013-09-13T13:32:35Z</time>
      </trkpt>
      <trkpt lat="42.008233" lon="0.965467">
        <ele>1552.0</ele>
        <time>2013-09-13T13:32:36Z</time>
      </trkpt>
      <trkpt lat="42.008217" lon="0.965567">
        <ele>1552.0</ele>
        <time>2013-09-13T13:32:37Z</time>
      </trkpt>
      <trkpt lat="42.008217" lon="0.965667">
        <ele>1552.0</ele>
        <time>2013-09-13T13:32:38Z</time>
      </trkpt>
      <trkpt lat="42.008200" lon="0.965783">
        <ele>1551.0</ele>
        <time>2013-09-13T13:32:39Z</time>
      </trkpt>
      <trkpt lat="42.008183" lon="0.965917">
        <ele>1551.0</ele>
        <time>2013-09-13T13:32:40Z</time>
      </trkpt>
      <trkpt lat="42.008167" lon="0.966033">
        <ele>1549.0</ele>
        <time>2013-09-13T13:32:41Z</time>
      </trkpt>
      <trkpt lat="42.008167" lon="0.966150">
        <ele>1549.0</ele>
        <time>2013-09-13T13:32:42Z</time>
      </trkpt>
      <trkpt lat="42.008167" lon="0.966267">
        <ele>1549.0</ele>
        <time>2013-09-13T13:32:43Z</time>
      </trkpt>
      <trkpt lat="42.008167" lon="0.966400">
        <ele>1549.0</ele>
        <time>2013-09-13T13:32:44Z</time>
      </trkpt>
      <trkpt lat="42.008167" lon="0.966517">
        <ele>1548.0</ele>
        <time>2013-09-13T13:32:45Z</time>
      </trkpt>
      <trkpt lat="42.008167" lon="0.966650">
        <ele>1547.0</ele>
        <time>2013-09-13T13:32:46Z</time>
      </trkpt>
      <trkpt lat="42.008167" lon="0.966767">
        <ele>1546.0</ele>
        <time>2013-09-13T13:32:47Z</time>
      </trkpt>
      <trkpt lat="42.008167" lon="0.966900">
        <ele>1545.0</ele>
        <time>2013-09-13T13:32:48Z</time>
      </trkpt>
      <trkpt lat="42.008167" lon="0.967017">
        <ele>1544.0</ele>
        <time>2013-09-13T13:32:49Z</time>
      </trkpt>
      <trkpt lat="42.008167" lon="0.967150">
        <ele>1542.0</ele>
        <time>2013-09-13T13:32:50Z</time>
      </trkpt>
      <trkpt lat="42.008150" lon="0.967283">
        <ele>1541.0</ele>
        <time>2013-09-13T13:32:51Z</time>
      </trkpt>
      <trkpt lat="42.008133" lon="0.967417">
        <ele>1542.0</ele>
        <time>2013-09-13T13:32:52Z</time>
      </trkpt>
      <trkpt lat="42.008117" lon="0.967517">
        <ele>1544.0</ele>
        <time>2013-09-13T13:32:53Z</time>
      </trkpt>
      <trkpt lat="42.008100" lon="0.967617">
        <ele>1547.0</ele>
        <time>2013-09-13T13:32:54Z</time>
      </trkpt>
      <trkpt lat="42.008100" lon="0.967717">
        <ele>1549.0</ele>
        <time>2013-09-13T13:32:55Z</time>
      </trkpt>
      <trkpt lat="42.008067" lon="0.967817">
        <ele>1550.0</ele>
        <time>2013-09-13T13:32:56Z</time>
      </trkpt>
      <trkpt lat="42.008050" lon="0.967933">
        <ele>1553.0</ele>
        <time>2013-09-13T13:32:57Z</time>
      </trkpt>
      <trkpt lat="42.008050" lon="0.968033">
        <ele>1558.0</ele>
        <time>2013-09-13T13:32:58Z</time>
      </trkpt>
      <trkpt lat="42.008017" lon="0.968100">
        <ele>1564.0</ele>
        <time>2013-09-13T13:32:59Z</time>
      </trkpt>
      <trkpt lat="42.007983" lon="0.968150">
        <ele>1568.0</ele>
        <time>2013-09-13T13:33:00Z</time>
      </trkpt>
      <trkpt lat="42.007933" lon="0.968167">
        <ele>1570.0</ele>
        <time>2013-09-13T13:33:01Z</time>
      </trkpt>
      <trkpt lat="42.007867" lon="0.968167">
        <ele>1573.0</ele>
        <time>2013-09-13T13:33:02Z</time>
      </trkpt>
      <trkpt lat="42.007833" lon="0.968133">
        <ele>1577.0</ele>
        <time>2013-09-13T13:33:03Z</time>
      </trkpt>
      <trkpt lat="42.007817" lon="0.968083">
        <ele>1584.0</ele>
        <time>2013-09-13T13:33:04Z</time>
      </trkpt>
      <trkpt lat="42.007817" lon="0.968017">
        <ele>1587.0</ele>
        <time>2013-09-13T13:33:05Z</time>
      </trkpt>
      <trkpt lat="42.007833" lon="0.967950">
        <ele>1589.0</ele>
        <time>2013-09-13T13:33:06Z</time>
      </trkpt>
      <trkpt lat="42.007833" lon="0.967833">
        <ele>1589.0</ele>
        <time>2013-09-13T13:33:07Z</time>
      </trkpt>
      <trkpt lat="42.007833" lon="0.967750">
        <ele>1591.0</ele>
        <time>2013-09-13T13:33:08Z</time>
      </trkpt>
      <trkpt lat="42.007833" lon="0.967667">
        <ele>1592.0</ele>
        <time>2013-09-13T13:33:09Z</time>
      </trkpt>
      <trkpt lat="42.007850" lon="0.967617">
        <ele>1594.0</ele>
        <time>2013-09-13T13:33:10Z</time>
      </trkpt>
      <trkpt lat="42.007867" lon="0.967567">
        <ele>1597.0</ele>
        <time>2013-09-13T13:33:11Z</time>
      </trkpt>
      <trkpt lat="42.007917" lon="0.967517">
        <ele>1599.0</ele>
        <time>2013-09-13T13:33:12Z</time>
      </trkpt>
      <trkpt lat="42.007967" lon="0.967467">
        <ele>1600.0</ele>
        <time>2013-09-13T13:33:13Z</time>
      </trkpt>
      <trkpt lat="42.008050" lon="0.967417">
        <ele>1601.0</ele>
        <time>2013-09-13T13:33:14Z</time>
      </trkpt>
      <trkpt lat="42.008133" lon="0.967400">
        <ele>1602.0</ele>
        <time>2013-09-13T13:33:15Z</time>
      </trkpt>
      <trkpt lat="42.008217" lon="0.967417">
        <ele>1604.0</ele>
        <time>2013-09-13T13:33:16Z</time>
      </trkpt>
      <trkpt lat="42.008300" lon="0.967467">
        <ele>1605.0</ele>
        <time>2013-09-13T13:33:17Z</time>
      </trkpt>
      <trkpt lat="42.008383" lon="0.967533">
        <ele>1607.0</ele>
        <time>2013-09-13T13:33:18Z</time>
      </trkpt>
      <trkpt lat="42.008467" lon="0.967600">
        <ele>1608.0</ele>
        <time>2013-09-13T13:33:19Z</time>
      </trkpt>
      <trkpt lat="42.008533" lon="0.967683">
        <ele>1610.0</ele>
        <time>2013-09-13T13:33:20Z</time>
      </trkpt>
      <trkpt lat="42.008583" lon="0.967767">
        <ele>1612.0</ele>
        <time>2013-09-13T13:33:21Z</time>
      </trkpt>
      <trkpt lat="42.008617" lon="0.967867">
        <ele>1613.0</ele>
        <time>2013-09-13T13:33:22Z</time>
      </trkpt>
      <trkpt lat="42.008650" lon="0.967967">
        <ele>1615.0</ele>
        <time>2013-09-13T13:33:23Z</time>
      </trkpt>
      <trkpt lat="42.008683" lon="0.968067">
        <ele>1616.0</ele>
        <time>2013-09-13T13:33:24Z</time>
      </trkpt>
      <trkpt lat="42.008700" lon="0.968167">
        <ele>1617.0</ele>
        <time>2013-09-13T13:33:25Z</time>
      </trkpt>
      <trkpt lat="42.008717" lon="0.968267">
        <ele>1617.0</ele>
        <time>2013-09-13T13:33:26Z</time>
      </trkpt>
      <trkpt lat="42.008733" lon="0.968400">
        <ele>1618.0</ele>
        <time>2013-09-13T13:33:27Z</time>
      </trkpt>
      <trkpt lat="42.008733" lon="0.968533">
        <ele>1618.0</ele>
        <time>2013-09-13T13:33:28Z</time>
      </trkpt>
      <trkpt lat="42.008717" lon="0.968667">
        <ele>1619.0</ele>
        <time>2013-09-13T13:33:29Z</time>
      </trkpt>
      <trkpt lat="42.008667" lon="0.968900">
        <ele>1624.0</ele>
        <time>2013-09-13T13:33:31Z</time>
      </trkpt>
      <trkpt lat="42.008633" lon="0.968983">
        <ele>1626.0</ele>
        <time>2013-09-13T13:33:32Z</time>
      </trkpt>
      <trkpt lat="42.008600" lon="0.969067">
        <ele>1629.0</ele>
        <time>2013-09-13T13:33:33Z</time>
      </trkpt>
      <trkpt lat="42.008567" lon="0.969133">
        <ele>1631.0</ele>
        <time>2013-09-13T13:33:34Z</time>
      </trkpt>
      <trkpt lat="42.008517" lon="0.969183">
        <ele>1632.0</ele>
        <time>2013-09-13T13:33:35Z</time>
      </trkpt>
      <trkpt lat="42.008450" lon="0.969200">
        <ele>1634.0</ele>
        <time>2013-09-13T13:33:36Z</time>
      </trkpt>
      <trkpt lat="42.008400" lon="0.969217">
        <ele>1636.0</ele>
        <time>2013-09-13T13:33:37Z</time>
      </trkpt>
      <trkpt lat="42.008350" lon="0.969217">
        <ele>1638.0</ele>
        <time>2013-09-13T13:33:38Z</time>
      </trkpt>
      <trkpt lat="42.008300" lon="0.969183">
        <ele>1640.0</ele>
        <time>2013-09-13T13:33:39Z</time>
      </trkpt>
      <trkpt lat="42.008267" lon="0.969150">
        <ele>1642.0</ele>
        <time>2013-09-13T13:33:40Z</time>
      </trkpt>
      <trkpt lat="42.008233" lon="0.969100">
        <ele>1646.0</ele>
        <time>2013-09-13T13:33:41Z</time>
      </trkpt>
      <trkpt lat="42.008233" lon="0.969050">
        <ele>1649.0</ele>
        <time>2013-09-13T13:33:42Z</time>
      </trkpt>
      <trkpt lat="42.008217" lon="0.968983">
        <ele>1651.0</ele>
        <time>2013-09-13T13:33:43Z</time>
      </trkpt>
      <trkpt lat="42.008233" lon="0.968917">
        <ele>1653.0</ele>
        <time>2013-09-13T13:33:44Z</time>
      </trkpt>
      <trkpt lat="42.008267" lon="0.968833">
        <ele>1654.0</ele>
        <time>2013-09-13T13:33:45Z</time>
      </trkpt>
      <trkpt lat="42.008333" lon="0.968767">
        <ele>1655.0</ele>
        <time>2013-09-13T13:33:46Z</time>
      </trkpt>
      <trkpt lat="42.008417" lon="0.968717">
        <ele>1656.0</ele>
        <time>2013-09-13T13:33:47Z</time>
      </trkpt>
      <trkpt lat="42.008500" lon="0.968717">
        <ele>1658.0</ele>
        <time>2013-09-13T13:33:48Z</time>
      </trkpt>
      <trkpt lat="42.008600" lon="0.968733">
        <ele>1660.0</ele>
        <time>2013-09-13T13:33:49Z</time>
      </trkpt>
      <trkpt lat="42.008683" lon="0.968783">
        <ele>1662.0</ele>
        <time>2013-09-13T13:33:50Z</time>
      </trkpt>
      <trkpt lat="42.008767" lon="0.968817">
        <ele>1664.0</ele>
        <time>2013-09-13T13:33:51Z</time>
      </trkpt>
      <trkpt lat="42.008850" lon="0.968883">
        <ele>1666.0</ele>
        <time>2013-09-13T13:33:52Z</time>
      </trkpt>
      <trkpt lat="42.008933" lon="0.968967">
        <ele>1668.0</ele>
        <time>2013-09-13T13:33:53Z</time>
      </trkpt>
      <trkpt lat="42.009000" lon="0.969050">
        <ele>1669.0</ele>
        <time>2013-09-13T13:33:54Z</time>
      </trkpt>
      <trkpt lat="42.009133" lon="0.969250">
        <ele>1672.0</ele>
        <time>2013-09-13T13:33:56Z</time>
      </trkpt>
      <trkpt lat="42.009200" lon="0.969350">
        <ele>1673.0</ele>
        <time>2013-09-13T13:33:57Z</time>
      </trkpt>
      <trkpt lat="42.009317" lon="0.969633">
        <ele>1674.0</ele>
        <time>2013-09-13T13:33:59Z</time>
      </trkpt>
      <trkpt lat="42.009367" lon="0.969800">
        <ele>1675.0</ele>
        <time>2013-09-13T13:34:00Z</time>
      </trkpt>
      <trkpt lat="42.009417" lon="0.970067">
        <ele>1680.0</ele>
        <time>2013-09-13T13:34:02Z</time>
      </trkpt>
      <trkpt lat="42.009433" lon="0.970150">
        <ele>1685.0</ele>
        <time>2013-09-13T13:34:03Z</time>
      </trkpt>
      <trkpt lat="42.009483" lon="0.970233">
        <ele>1678.0</ele>
        <time>2013-09-13T13:34:04Z</time>
      </trkpt>
      <trkpt lat="42.009517" lon="0.970317">
        <ele>1680.0</ele>
        <time>2013-09-13T13:34:05Z</time>
      </trkpt>
      <trkpt lat="42.009533" lon="0.970433">
        <ele>1681.0</ele>
        <time>2013-09-13T13:34:06Z</time>
      </trkpt>
      <trkpt lat="42.009517" lon="0.970667">
        <ele>1684.0</ele>
        <time>2013-09-13T13:34:08Z</time>
      </trkpt>
      <trkpt lat="42.009500" lon="0.970783">
        <ele>1686.0</ele>
        <time>2013-09-13T13:34:09Z</time>
      </trkpt>
      <trkpt lat="42.009500" lon="0.970867">
        <ele>1689.0</ele>
        <time>2013-09-13T13:34:10Z</time>
      </trkpt>
      <trkpt lat="42.009467" lon="0.970983">
        <ele>1691.0</ele>
        <time>2013-09-13T13:34:11Z</time>
      </trkpt>
      <trkpt lat="42.009450" lon="0.971100">
        <ele>1693.0</ele>
        <time>2013-09-13T13:34:12Z</time>
      </trkpt>
      <trkpt lat="42.009417" lon="0.971233">
        <ele>1695.0</ele>
        <time>2013-09-13T13:34:13Z</time>
      </trkpt>
      <trkpt lat="42.009400" lon="0.971367">
        <ele>1697.0</ele>
        <time>2013-09-13T13:34:14Z</time>
      </trkpt>
      <trkpt lat="42.009350" lon="0.971600">
        <ele>1705.0</ele>
        <time>2013-09-13T13:34:16Z</time>
      </trkpt>
      <trkpt lat="42.009317" lon="0.971717">
        <ele>1708.0</ele>
        <time>2013-09-13T13:34:17Z</time>
      </trkpt>
      <trkpt lat="42.009267" lon="0.971817">
        <ele>1711.0</ele>
        <time>2013-09-13T13:34:18Z</time>
      </trkpt>
      <trkpt lat="42.009200" lon="0.971933">
        <ele>1714.0</ele>
        <time>2013-09-13T13:34:19Z</time>
      </trkpt>
      <trkpt lat="42.009133" lon="0.972017">
        <ele>1717.0</ele>
        <time>2013-09-13T13:34:20Z</time>
      </trkpt>
      <trkpt lat="42.009067" lon="0.972067">
        <ele>1719.0</ele>
        <time>2013-09-13T13:34:21Z</time>
      </trkpt>
      <trkpt lat="42.009000" lon="0.972117">
        <ele>1721.0</ele>
        <time>2013-09-13T13:34:22Z</time>
      </trkpt>
      <trkpt lat="42.008950" lon="0.972150">
        <ele>1723.0</ele>
        <time>2013-09-13T13:34:23Z</time>
      </trkpt>
      <trkpt lat="42.008883" lon="0.972200">
        <ele>1724.0</ele>
        <time>2013-09-13T13:34:24Z</time>
      </trkpt>
      <trkpt lat="42.008817" lon="0.972233">
        <ele>1725.0</ele>
        <time>2013-09-13T13:34:25Z</time>
      </trkpt>
      <trkpt lat="42.008750" lon="0.972233">
        <ele>1727.0</ele>
        <time>2013-09-13T13:34:26Z</time>
      </trkpt>
      <trkpt lat="42.008700" lon="0.972217">
        <ele>1727.0</ele>
        <time>2013-09-13T13:34:27Z</time>
      </trkpt>
      <trkpt lat="42.008650" lon="0.972200">
        <ele>1727.0</ele>
        <time>2013-09-13T13:34:28Z</time>
      </trkpt>
      <trkpt lat="42.008600" lon="0.972183">
        <ele>1728.0</ele>
        <time>2013-09-13T13:34:29Z</time>
      </trkpt>
      <trkpt lat="42.008567" lon="0.972167">
        <ele>1729.0</ele>
        <time>2013-09-13T13:34:30Z</time>
      </trkpt>
      <trkpt lat="42.008517" lon="0.972133">
        <ele>1731.0</ele>
        <time>2013-09-13T13:34:31Z</time>
      </trkpt>
      <trkpt lat="42.008450" lon="0.972100">
        <ele>1732.0</ele>
        <time>2013-09-13T13:34:32Z</time>
      </trkpt>
      <trkpt lat="42.008400" lon="0.972083">
        <ele>1733.0</ele>
        <time>2013-09-13T13:34:33Z</time>
      </trkpt>
      <trkpt lat="42.008350" lon="0.972050">
        <ele>1735.0</ele>
        <time>2013-09-13T13:34:34Z</time>
      </trkpt>
      <trkpt lat="42.008300" lon="0.972033">
        <ele>1737.0</ele>
        <time>2013-09-13T13:34:35Z</time>
      </trkpt>
      <trkpt lat="42.008250" lon="0.972000">
        <ele>1739.0</ele>
        <time>2013-09-13T13:34:36Z</time>
      </trkpt>
      <trkpt lat="42.008200" lon="0.971950">
        <ele>1741.0</ele>
        <time>2013-09-13T13:34:37Z</time>
      </trkpt>
      <trkpt lat="42.008167" lon="0.971900">
        <ele>1743.0</ele>
        <time>2013-09-13T13:34:38Z</time>
      </trkpt>
      <trkpt lat="42.008133" lon="0.971867">
        <ele>1745.0</ele>
        <time>2013-09-13T13:34:39Z</time>
      </trkpt>
      <trkpt lat="42.008083" lon="0.971833">
        <ele>1747.0</ele>
        <time>2013-09-13T13:34:40Z</time>
      </trkpt>
      <trkpt lat="42.008050" lon="0.971800">
        <ele>1749.0</ele>
        <time>2013-09-13T13:34:41Z</time>
      </trkpt>
      <trkpt lat="42.008000" lon="0.971750">
        <ele>1751.0</ele>
        <time>2013-09-13T13:34:42Z</time>
      </trkpt>
      <trkpt lat="42.007967" lon="0.971717">
        <ele>1754.0</ele>
        <time>2013-09-13T13:34:43Z</time>
      </trkpt>
      <trkpt lat="42.007933" lon="0.971700">
        <ele>1756.0</ele>
        <time>2013-09-13T13:34:44Z</time>
      </trkpt>
      <trkpt lat="42.007883" lon="0.971667">
        <ele>1758.0</ele>
        <time>2013-09-13T13:34:45Z</time>
      </trkpt>
      <trkpt lat="42.007850" lon="0.971617">
        <ele>1760.0</ele>
        <time>2013-09-13T13:34:46Z</time>
      </trkpt>
      <trkpt lat="42.007833" lon="0.971567">
        <ele>1762.0</ele>
        <time>2013-09-13T13:34:47Z</time>
      </trkpt>
      <trkpt lat="42.007817" lon="0.971517">
        <ele>1765.0</ele>
        <time>2013-09-13T13:34:48Z</time>
      </trkpt>
      <trkpt lat="42.007817" lon="0.971467">
        <ele>1767.0</ele>
        <time>2013-09-13T13:34:49Z</time>
      </trkpt>
      <trkpt lat="42.007833" lon="0.971400">
        <ele>1768.0</ele>
        <time>2013-09-13T13:34:50Z</time>
      </trkpt>
      <trkpt lat="42.007850" lon="0.971317">
        <ele>1769.0</ele>
        <time>2013-09-13T13:34:51Z</time>
      </trkpt>
      <trkpt lat="42.007883" lon="0.971250">
        <ele>1772.0</ele>
        <time>2013-09-13T13:34:52Z</time>
      </trkpt>
      <trkpt lat="42.007933" lon="0.971183">
        <ele>1775.0</ele>
        <time>2013-09-13T13:34:53Z</time>
      </trkpt>
      <trkpt lat="42.008000" lon="0.971117">
        <ele>1778.0</ele>
        <time>2013-09-13T13:34:54Z</time>
      </trkpt>
      <trkpt lat="42.008067" lon="0.971067">
        <ele>1780.0</ele>
        <time>2013-09-13T13:34:55Z</time>
      </trkpt>
      <trkpt lat="42.008150" lon="0.971000">
        <ele>1782.0</ele>
        <time>2013-09-13T13:34:56Z</time>
      </trkpt>
      <trkpt lat="42.008233" lon="0.970933">
        <ele>1784.0</ele>
        <time>2013-09-13T13:34:57Z</time>
      </trkpt>
      <trkpt lat="42.008333" lon="0.970883">
        <ele>1787.0</ele>
        <time>2013-09-13T13:34:58Z</time>
      </trkpt>
      <trkpt lat="42.008433" lon="0.970850">
        <ele>1789.0</ele>
        <time>2013-09-13T13:34:59Z</time>
      </trkpt>
      <trkpt lat="42.008533" lon="0.970833">
        <ele>1791.0</ele>
        <time>2013-09-13T13:35:00Z</time>
      </trkpt>
      <trkpt lat="42.008650" lon="0.970833">
        <ele>1794.0</ele>
        <time>2013-09-13T13:35:01Z</time>
      </trkpt>
      <trkpt lat="42.008750" lon="0.970850">
        <ele>1796.0</ele>
        <time>2013-09-13T13:35:02Z</time>
      </trkpt>
      <trkpt lat="42.008850" lon="0.970900">
        <ele>1800.0</ele>
        <time>2013-09-13T13:35:03Z</time>
      </trkpt>
      <trkpt lat="42.008917" lon="0.970983">
        <ele>1803.0</ele>
        <time>2013-09-13T13:35:04Z</time>
      </trkpt>
      <trkpt lat="42.008983" lon="0.971067">
        <ele>1806.0</ele>
        <time>2013-09-13T13:35:05Z</time>
      </trkpt>
      <trkpt lat="42.009067" lon="0.971150">
        <ele>1807.0</ele>
        <time>2013-09-13T13:35:06Z</time>
      </trkpt>
      <trkpt lat="42.009133" lon="0.971250">
        <ele>1807.0</ele>
        <time>2013-09-13T13:35:07Z</time>
      </trkpt>
      <trkpt lat="42.009200" lon="0.971383">
        <ele>1808.0</ele>
        <time>2013-09-13T13:35:08Z</time>
      </trkpt>
      <trkpt lat="42.009250" lon="0.971517">
        <ele>1810.0</ele>
        <time>2013-09-13T13:35:09Z</time>
      </trkpt>
      <trkpt lat="42.009283" lon="0.971667">
        <ele>1811.0</ele>
        <time>2013-09-13T13:35:10Z</time>
      </trkpt>
      <trkpt lat="42.009300" lon="0.971817">
        <ele>1812.0</ele>
        <time>2013-09-13T13:35:11Z</time>
      </trkpt>
      <trkpt lat="42.009283" lon="0.971983">
        <ele>1813.0</ele>
        <time>2013-09-13T13:35:12Z</time>
      </trkpt>
      <trkpt lat="42.009267" lon="0.972117">
        <ele>1815.0</ele>
        <time>2013-09-13T13:35:13Z</time>
      </trkpt>
      <trkpt lat="42.009250" lon="0.972233">
        <ele>1817.0</ele>
        <time>2013-09-13T13:35:14Z</time>
      </trkpt>
      <trkpt lat="42.009200" lon="0.972333">
        <ele>1819.0</ele>
        <time>2013-09-13T13:35:15Z</time>
      </trkpt>
      <trkpt lat="42.009167" lon="0.972450">
        <ele>1820.0</ele>
        <time>2013-09-13T13:35:16Z</time>
      </trkpt>
      <trkpt lat="42.009117" lon="0.972550">
        <ele>1822.0</ele>
        <time>2013-09-13T13:35:17Z</time>
      </trkpt>
      <trkpt lat="42.009067" lon="0.972633">
        <ele>1824.0</ele>
        <time>2013-09-13T13:35:18Z</time>
      </trkpt>
      <trkpt lat="42.009017" lon="0.972683">
        <ele>1826.0</ele>
        <time>2013-09-13T13:35:19Z</time>
      </trkpt>
      <trkpt lat="42.008967" lon="0.972717">
        <ele>1829.0</ele>
        <time>2013-09-13T13:35:20Z</time>
      </trkpt>
      <trkpt lat="42.008900" lon="0.972717">
        <ele>1831.0</ele>
        <time>2013-09-13T13:35:21Z</time>
      </trkpt>
      <trkpt lat="42.008850" lon="0.972717">
        <ele>1832.0</ele>
        <time>2013-09-13T13:35:22Z</time>
      </trkpt>
      <trkpt lat="42.008783" lon="0.972700">
        <ele>1836.0</ele>
        <time>2013-09-13T13:35:23Z</time>
      </trkpt>
      <trkpt lat="42.008750" lon="0.972667">
        <ele>1840.0</ele>
        <time>2013-09-13T13:35:24Z</time>
      </trkpt>
      <trkpt lat="42.008717" lon="0.972600">
        <ele>1843.0</ele>
        <time>2013-09-13T13:35:25Z</time>
      </trkpt>
      <trkpt lat="42.008700" lon="0.972550">
        <ele>1846.0</ele>
        <time>2013-09-13T13:35:26Z</time>
      </trkpt>
      <trkpt lat="42.008700" lon="0.972483">
        <ele>1849.0</ele>
        <time>2013-09-13T13:35:27Z</time>
      </trkpt>
      <trkpt lat="42.008717" lon="0.972417">
        <ele>1853.0</ele>
        <time>2013-09-13T13:35:28Z</time>
      </trkpt>
      <trkpt lat="42.008733" lon="0.972367">
        <ele>1857.0</ele>
        <time>2013-09-13T13:35:29Z</time>
      </trkpt>
      <trkpt lat="42.008750" lon="0.972317">
        <ele>1861.0</ele>
        <time>2013-09-13T13:35:30Z</time>
      </trkpt>
      <trkpt lat="42.008800" lon="0.972283">
        <ele>1864.0</ele>
        <time>2013-09-13T13:35:31Z</time>
      </trkpt>
      <trkpt lat="42.008867" lon="0.972233">
        <ele>1867.0</ele>
        <time>2013-09-13T13:35:32Z</time>
      </trkpt>
      <trkpt lat="42.008933" lon="0.972183">
        <ele>1870.0</ele>
        <time>2013-09-13T13:35:33Z</time>
      </trkpt>
      <trkpt lat="42.009017" lon="0.972150">
        <ele>1875.0</ele>
        <time>2013-09-13T13:35:34Z</time>
      </trkpt>
      <trkpt lat="42.009083" lon="0.972133">
        <ele>1879.0</ele>
        <time>2013-09-13T13:35:35Z</time>
      </trkpt>
      <trkpt lat="42.009150" lon="0.972133">
        <ele>1883.0</ele>
        <time>2013-09-13T13:35:36Z</time>
      </trkpt>
      <trkpt lat="42.009233" lon="0.972117">
        <ele>1886.0</ele>
        <time>2013-09-13T13:35:37Z</time>
      </trkpt>
      <trkpt lat="42.009333" lon="0.972117">
        <ele>1890.0</ele>
        <time>2013-09-13T13:35:38Z</time>
      </trkpt>
      <trkpt lat="42.009433" lon="0.972133">
        <ele>1893.0</ele>
        <time>2013-09-13T13:35:39Z</time>
      </trkpt>
      <trkpt lat="42.009517" lon="0.972183">
        <ele>1896.0</ele>
        <time>2013-09-13T13:35:40Z</time>
      </trkpt>
      <trkpt lat="42.009583" lon="0.972233">
        <ele>1900.0</ele>
        <time>2013-09-13T13:35:41Z</time>
      </trkpt>
      <trkpt lat="42.009667" lon="0.972317">
        <ele>1903.0</ele>
        <time>2013-09-13T13:35:42Z</time>
      </trkpt>
      <trkpt lat="42.009750" lon="0.972417">
        <ele>1905.0</ele>
        <time>2013-09-13T13:35:43Z</time>
      </trkpt>
      <trkpt lat="42.009833" lon="0.972533">
        <ele>1906.0</ele>
        <time>2013-09-13T13:35:44Z</time>
      </trkpt>
      <trkpt lat="42.009900" lon="0.972650">
        <ele>1908.0</ele>
        <time>2013-09-13T13:35:45Z</time>
      </trkpt>
      <trkpt lat="42.009967" lon="0.972783">
        <ele>1909.0</ele>
        <time>2013-09-13T13:35:46Z</time>
      </trkpt>
      <trkpt lat="42.010017" lon="0.972917">
        <ele>1912.0</ele>
        <time>2013-09-13T13:35:47Z</time>
      </trkpt>
      <trkpt lat="42.010050" lon="0.973050">
        <ele>1914.0</ele>
        <time>2013-09-13T13:35:48Z</time>
      </trkpt>
      <trkpt lat="42.010067" lon="0.973200">
        <ele>1915.0</ele>
        <time>2013-09-13T13:35:49Z</time>
      </trkpt>
      <trkpt lat="42.010083" lon="0.973350">
        <ele>1916.0</ele>
        <time>2013-09-13T13:35:50Z</time>
      </trkpt>
      <trkpt lat="42.010083" lon="0.973500">
        <ele>1918.0</ele>
        <time>2013-09-13T13:35:51Z</time>
      </trkpt>
      <trkpt lat="42.010100" lon="0.973767">
        <ele>1922.0</ele>
        <time>2013-09-13T13:35:53Z</time>
      </trkpt>
      <trkpt lat="42.010100" lon="0.973900">
        <ele>1924.0</ele>
        <time>2013-09-13T13:35:54Z</time>
      </trkpt>
      <trkpt lat="42.010100" lon="0.974017">
        <ele>1926.0</ele>
        <time>2013-09-13T13:35:55Z</time>
      </trkpt>
      <trkpt lat="42.010100" lon="0.974150">
        <ele>1927.0</ele>
        <time>2013-09-13T13:35:56Z</time>
      </trkpt>
      <trkpt lat="42.010083" lon="0.974250">
        <ele>1929.0</ele>
        <time>2013-09-13T13:35:57Z</time>
      </trkpt>
      <trkpt lat="42.010050" lon="0.974367">
        <ele>1930.0</ele>
        <time>2013-09-13T13:35:58Z</time>
      </trkpt>
      <trkpt lat="42.010017" lon="0.974450">
        <ele>1931.0</ele>
        <time>2013-09-13T13:35:59Z</time>
      </trkpt>
      <trkpt lat="42.009967" lon="0.974550">
        <ele>1933.0</ele>
        <time>2013-09-13T13:36:00Z</time>
      </trkpt>
      <trkpt lat="42.009917" lon="0.974633">
        <ele>1935.0</ele>
        <time>2013-09-13T13:36:01Z</time>
      </trkpt>
      <trkpt lat="42.009883" lon="0.974733">
        <ele>1937.0</ele>
        <time>2013-09-13T13:36:02Z</time>
      </trkpt>
      <trkpt lat="42.009833" lon="0.974817">
        <ele>1939.0</ele>
        <time>2013-09-13T13:36:03Z</time>
      </trkpt>
      <trkpt lat="42.009800" lon="0.974917">
        <ele>1941.0</ele>
        <time>2013-09-13T13:36:04Z</time>
      </trkpt>
      <trkpt lat="42.009767" lon="0.975017">
        <ele>1943.0</ele>
        <time>2013-09-13T13:36:05Z</time>
      </trkpt>
      <trkpt lat="42.009733" lon="0.975150">
        <ele>1945.0</ele>
        <time>2013-09-13T13:36:06Z</time>
      </trkpt>
      <trkpt lat="42.009700" lon="0.975283">
        <ele>1947.0</ele>
        <time>2013-09-13T13:36:07Z</time>
      </trkpt>
      <trkpt lat="42.009700" lon="0.975433">
        <ele>1948.0</ele>
        <time>2013-09-13T13:36:08Z</time>
      </trkpt>
      <trkpt lat="42.009700" lon="0.975567">
        <ele>1950.0</ele>
        <time>2013-09-13T13:36:09Z</time>
      </trkpt>
      <trkpt lat="42.009717" lon="0.975700">
        <ele>1952.0</ele>
        <time>2013-09-13T13:36:10Z</time>
      </trkpt>
      <trkpt lat="42.009733" lon="0.975833">
        <ele>1953.0</ele>
        <time>2013-09-13T13:36:11Z</time>
      </trkpt>
      <trkpt lat="42.009767" lon="0.975967">
        <ele>1952.0</ele>
        <time>2013-09-13T13:36:12Z</time>
      </trkpt>
      <trkpt lat="42.009783" lon="0.976117">
        <ele>1951.0</ele>
        <time>2013-09-13T13:36:13Z</time>
      </trkpt>
      <trkpt lat="42.009800" lon="0.976267">
        <ele>1952.0</ele>
        <time>2013-09-13T13:36:14Z</time>
      </trkpt>
      <trkpt lat="42.009800" lon="0.976400">
        <ele>1953.0</ele>
        <time>2013-09-13T13:36:15Z</time>
      </trkpt>
      <trkpt lat="42.009767" lon="0.976517">
        <ele>1953.0</ele>
        <time>2013-09-13T13:36:16Z</time>
      </trkpt>
      <trkpt lat="42.009733" lon="0.976633">
        <ele>1953.0</ele>
        <time>2013-09-13T13:36:17Z</time>
      </trkpt>
      <trkpt lat="42.009667" lon="0.976750">
        <ele>1951.0</ele>
        <time>2013-09-13T13:36:18Z</time>
      </trkpt>
      <trkpt lat="42.009600" lon="0.976850">
        <ele>1950.0</ele>
        <time>2013-09-13T13:36:19Z</time>
      </trkpt>
      <trkpt lat="42.009517" lon="0.976933">
        <ele>1950.0</ele>
        <time>2013-09-13T13:36:20Z</time>
      </trkpt>
      <trkpt lat="42.009450" lon="0.977000">
        <ele>1950.0</ele>
        <time>2013-09-13T13:36:21Z</time>
      </trkpt>
      <trkpt lat="42.009383" lon="0.977050">
        <ele>1949.0</ele>
        <time>2013-09-13T13:36:22Z</time>
      </trkpt>
      <trkpt lat="42.009300" lon="0.977100">
        <ele>1949.0</ele>
        <time>2013-09-13T13:36:23Z</time>
      </trkpt>
      <trkpt lat="42.009217" lon="0.977133">
        <ele>1948.0</ele>
        <time>2013-09-13T13:36:24Z</time>
      </trkpt>
      <trkpt lat="42.009133" lon="0.977167">
        <ele>1947.0</ele>
        <time>2013-09-13T13:36:25Z</time>
      </trkpt>
      <trkpt lat="42.009050" lon="0.977167">
        <ele>1945.0</ele>
        <time>2013-09-13T13:36:26Z</time>
      </trkpt>
      <trkpt lat="42.008967" lon="0.977167">
        <ele>1944.0</ele>
        <time>2013-09-13T13:36:27Z</time>
      </trkpt>
      <trkpt lat="42.008900" lon="0.977167">
        <ele>1943.0</ele>
        <time>2013-09-13T13:36:28Z</time>
      </trkpt>
      <trkpt lat="42.008833" lon="0.977150">
        <ele>1942.0</ele>
        <time>2013-09-13T13:36:29Z</time>
      </trkpt>
      <trkpt lat="42.008750" lon="0.977117">
        <ele>1939.0</ele>
        <time>2013-09-13T13:36:30Z</time>
      </trkpt>
      <trkpt lat="42.008683" lon="0.977067">
        <ele>1938.0</ele>
        <time>2013-09-13T13:36:31Z</time>
      </trkpt>
      <trkpt lat="42.008583" lon="0.977017">
        <ele>1936.0</ele>
        <time>2013-09-13T13:36:32Z</time>
      </trkpt>
      <trkpt lat="42.008500" lon="0.976967">
        <ele>1935.0</ele>
        <time>2013-09-13T13:36:33Z</time>
      </trkpt>
      <trkpt lat="42.008433" lon="0.976950">
        <ele>1935.0</ele>
        <time>2013-09-13T13:36:34Z</time>
      </trkpt>
      <trkpt lat="42.008383" lon="0.976933">
        <ele>1937.0</ele>
        <time>2013-09-13T13:36:35Z</time>
      </trkpt>
      <trkpt lat="42.008350" lon="0.976917">
        <ele>1938.0</ele>
        <time>2013-09-13T13:36:36Z</time>
      </trkpt>
      <trkpt lat="42.008283" lon="0.976883">
        <ele>1938.0</ele>
        <time>2013-09-13T13:36:37Z</time>
      </trkpt>
      <trkpt lat="42.008233" lon="0.976833">
        <ele>1938.0</ele>
        <time>2013-09-13T13:36:38Z</time>
      </trkpt>
      <trkpt lat="42.008200" lon="0.976783">
        <ele>1939.0</ele>
        <time>2013-09-13T13:36:39Z</time>
      </trkpt>
      <trkpt lat="42.008200" lon="0.976717">
        <ele>1941.0</ele>
        <time>2013-09-13T13:36:40Z</time>
      </trkpt>
      <trkpt lat="42.008200" lon="0.976633">
        <ele>1942.0</ele>
        <time>2013-09-13T13:36:41Z</time>
      </trkpt>
      <trkpt lat="42.008233" lon="0.976567">
        <ele>1943.0</ele>
        <time>2013-09-13T13:36:42Z</time>
      </trkpt>
      <trkpt lat="42.008267" lon="0.976500">
        <ele>1944.0</ele>
        <time>2013-09-13T13:36:43Z</time>
      </trkpt>
      <trkpt lat="42.008333" lon="0.976450">
        <ele>1944.0</ele>
        <time>2013-09-13T13:36:44Z</time>
      </trkpt>
      <trkpt lat="42.008400" lon="0.976383">
        <ele>1945.0</ele>
        <time>2013-09-13T13:36:45Z</time>
      </trkpt>
      <trkpt lat="42.008500" lon="0.976350">
        <ele>1945.0</ele>
        <time>2013-09-13T13:36:46Z</time>
      </trkpt>
      <trkpt lat="42.008600" lon="0.976367">
        <ele>1946.0</ele>
        <time>2013-09-13T13:36:47Z</time>
      </trkpt>
      <trkpt lat="42.008683" lon="0.976400">
        <ele>1947.0</ele>
        <time>2013-09-13T13:36:48Z</time>
      </trkpt>
      <trkpt lat="42.008750" lon="0.976467">
        <ele>1949.0</ele>
        <time>2013-09-13T13:36:49Z</time>
      </trkpt>
      <trkpt lat="42.008817" lon="0.976550">
        <ele>1951.0</ele>
        <time>2013-09-13T13:36:50Z</time>
      </trkpt>
      <trkpt lat="42.008883" lon="0.976617">
        <ele>1954.0</ele>
        <time>2013-09-13T13:36:51Z</time>
      </trkpt>
      <trkpt lat="42.008950" lon="0.976700">
        <ele>1956.0</ele>
        <time>2013-09-13T13:36:52Z</time>
      </trkpt>
      <trkpt lat="42.009017" lon="0.976933">
        <ele>1960.0</ele>
        <time>2013-09-13T13:36:54Z</time>
      </trkpt>
      <trkpt lat="42.009017" lon="0.977067">
        <ele>1961.0</ele>
        <time>2013-09-13T13:36:55Z</time>
      </trkpt>
      <trkpt lat="42.009017" lon="0.977200">
        <ele>1962.0</ele>
        <time>2013-09-13T13:36:56Z</time>
      </trkpt>
      <trkpt lat="42.008983" lon="0.977317">
        <ele>1964.0</ele>
        <time>2013-09-13T13:36:57Z</time>
      </trkpt>
      <trkpt lat="42.008950" lon="0.977433">
        <ele>1965.0</ele>
        <time>2013-09-13T13:36:58Z</time>
      </trkpt>
      <trkpt lat="42.008900" lon="0.977533">
        <ele>1967.0</ele>
        <time>2013-09-13T13:36:59Z</time>
      </trkpt>
      <trkpt lat="42.008850" lon="0.977617">
        <ele>1968.0</ele>
        <time>2013-09-13T13:37:00Z</time>
      </trkpt>
      <trkpt lat="42.008767" lon="0.977683">
        <ele>1969.0</ele>
        <time>2013-09-13T13:37:01Z</time>
      </trkpt>
      <trkpt lat="42.008700" lon="0.977750">
        <ele>1970.0</ele>
        <time>2013-09-13T13:37:02Z</time>
      </trkpt>
      <trkpt lat="42.008617" lon="0.977800">
        <ele>1971.0</ele>
        <time>2013-09-13T13:37:03Z</time>
      </trkpt>
      <trkpt lat="42.008483" lon="0.977850">
        <ele>1974.0</ele>
        <time>2013-09-13T13:37:05Z</time>
      </trkpt>
      <trkpt lat="42.008433" lon="0.977833">
        <ele>1974.0</ele>
        <time>2013-09-13T13:37:06Z</time>
      </trkpt>
      <trkpt lat="42.008367" lon="0.977817">
        <ele>1972.0</ele>
        <time>2013-09-13T13:37:07Z</time>
      </trkpt>
      <trkpt lat="42.008317" lon="0.977767">
        <ele>1972.0</ele>
        <time>2013-09-13T13:37:08Z</time>
      </trkpt>
      <trkpt lat="42.008267" lon="0.977700">
        <ele>1972.0</ele>
        <time>2013-09-13T13:37:09Z</time>
      </trkpt>
      <trkpt lat="42.008250" lon="0.977650">
        <ele>1973.0</ele>
        <time>2013-09-13T13:37:10Z</time>
      </trkpt>
      <trkpt lat="42.008233" lon="0.977583">
        <ele>1974.0</ele>
        <time>2013-09-13T13:37:11Z</time>
      </trkpt>
      <trkpt lat="42.008233" lon="0.977500">
        <ele>1975.0</ele>
        <time>2013-09-13T13:37:12Z</time>
      </trkpt>
      <trkpt lat="42.008250" lon="0.977417">
        <ele>1975.0</ele>
        <time>2013-09-13T13:37:13Z</time>
      </trkpt>
      <trkpt lat="42.008283" lon="0.977333">
        <ele>1976.0</ele>
        <time>2013-09-13T13:37:14Z</time>
      </trkpt>
      <trkpt lat="42.008333" lon="0.977267">
        <ele>1977.0</ele>
        <time>2013-09-13T13:37:15Z</time>
      </trkpt>
      <trkpt lat="42.008417" lon="0.977233">
        <ele>1978.0</ele>
        <time>2013-09-13T13:37:16Z</time>
      </trkpt>
      <trkpt lat="42.008500" lon="0.977217">
        <ele>1979.0</ele>
        <time>2013-09-13T13:37:17Z</time>
      </trkpt>
      <trkpt lat="42.008583" lon="0.977233">
        <ele>1980.0</ele>
        <time>2013-09-13T13:37:18Z</time>
      </trkpt>
      <trkpt lat="42.008667" lon="0.977267">
        <ele>1983.0</ele>
        <time>2013-09-13T13:37:19Z</time>
      </trkpt>
      <trkpt lat="42.008750" lon="0.977333">
        <ele>1985.0</ele>
        <time>2013-09-13T13:37:20Z</time>
      </trkpt>
      <trkpt lat="42.008817" lon="0.977417">
        <ele>1988.0</ele>
        <time>2013-09-13T13:37:21Z</time>
      </trkpt>
      <trkpt lat="42.008867" lon="0.977517">
        <ele>1990.0</ele>
        <time>2013-09-13T13:37:22Z</time>
      </trkpt>
      <trkpt lat="42.008900" lon="0.977650">
        <ele>1992.0</ele>
        <time>2013-09-13T13:37:23Z</time>
      </trkpt>
      <trkpt lat="42.008917" lon="0.977783">
        <ele>1993.0</ele>
        <time>2013-09-13T13:37:24Z</time>
      </trkpt>
      <trkpt lat="42.008917" lon="0.978067">
        <ele>1996.0</ele>
        <time>2013-09-13T13:37:26Z</time>
      </trkpt>
      <trkpt lat="42.008917" lon="0.978200">
        <ele>1998.0</ele>
        <time>2013-09-13T13:37:27Z</time>
      </trkpt>
      <trkpt lat="42.008917" lon="0.978333">
        <ele>1999.0</ele>
        <time>2013-09-13T13:37:28Z</time>
      </trkpt>
      <trkpt lat="42.008917" lon="0.978450">
        <ele>2000.0</ele>
        <time>2013-09-13T13:37:29Z</time>
      </trkpt>
      <trkpt lat="42.008900" lon="0.978733">
        <ele>2001.0</ele>
        <time>2013-09-13T13:37:31Z</time>
      </trkpt>
      <trkpt lat="42.008883" lon="0.978900">
        <ele>2001.0</ele>
        <time>2013-09-13T13:37:32Z</time>
      </trkpt>
      <trkpt lat="42.008883" lon="0.979050">
        <ele>2001.0</ele>
        <time>2013-09-13T13:37:33Z</time>
      </trkpt>
      <trkpt lat="42.008867" lon="0.979183">
        <ele>2001.0</ele>
        <time>2013-09-13T13:37:34Z</time>
      </trkpt>
      <trkpt lat="42.008867" lon="0.979333">
        <ele>2000.0</ele>
        <time>2013-09-13T13:37:35Z</time>
      </trkpt>
      <trkpt lat="42.008867" lon="0.979500">
        <ele>1998.0</ele>
        <time>2013-09-13T13:37:36Z</time>
      </trkpt>
      <trkpt lat="42.008867" lon="0.979650">
        <ele>1996.0</ele>
        <time>2013-09-13T13:37:37Z</time>
      </trkpt>
      <trkpt lat="42.008850" lon="0.979817">
        <ele>1994.0</ele>
        <time>2013-09-13T13:37:38Z</time>
      </trkpt>
      <trkpt lat="42.008850" lon="0.979950">
        <ele>1993.0</ele>
        <time>2013-09-13T13:37:39Z</time>
      </trkpt>
      <trkpt lat="42.008850" lon="0.980083">
        <ele>1991.0</ele>
        <time>2013-09-13T13:37:40Z</time>
      </trkpt>
      <trkpt lat="42.008867" lon="0.980217">
        <ele>1989.0</ele>
        <time>2013-09-13T13:37:41Z</time>
      </trkpt>
      <trkpt lat="42.008883" lon="0.980333">
        <ele>1987.0</ele>
        <time>2013-09-13T13:37:42Z</time>
      </trkpt>
      <trkpt lat="42.008900" lon="0.980483">
        <ele>1984.0</ele>
        <time>2013-09-13T13:37:43Z</time>
      </trkpt>
      <trkpt lat="42.008933" lon="0.980617">
        <ele>1980.0</ele>
        <time>2013-09-13T13:37:44Z</time>
      </trkpt>
      <trkpt lat="42.008967" lon="0.980767">
        <ele>1977.0</ele>
        <time>2013-09-13T13:37:45Z</time>
      </trkpt>
      <trkpt lat="42.009017" lon="0.980900">
        <ele>1975.0</ele>
        <time>2013-09-13T13:37:46Z</time>
      </trkpt>
      <trkpt lat="42.009067" lon="0.981017">
        <ele>1973.0</ele>
        <time>2013-09-13T13:37:47Z</time>
      </trkpt>
      <trkpt lat="42.009100" lon="0.981150">
        <ele>1972.0</ele>
        <time>2013-09-13T13:37:48Z</time>
      </trkpt>
      <trkpt lat="42.009150" lon="0.981267">
        <ele>1970.0</ele>
        <time>2013-09-13T13:37:49Z</time>
      </trkpt>
      <trkpt lat="42.009183" lon="0.981400">
        <ele>1969.0</ele>
        <time>2013-09-13T13:37:50Z</time>
      </trkpt>
      <trkpt lat="42.009233" lon="0.981533">
        <ele>1967.0</ele>
        <time>2013-09-13T13:37:51Z</time>
      </trkpt>
      <trkpt lat="42.009283" lon="0.981650">
        <ele>1966.0</ele>
        <time>2013-09-13T13:37:52Z</time>
      </trkpt>
      <trkpt lat="42.009333" lon="0.981783">
        <ele>1964.0</ele>
        <time>2013-09-13T13:37:53Z</time>
      </trkpt>
      <trkpt lat="42.009383" lon="0.981917">
        <ele>1962.0</ele>
        <time>2013-09-13T13:37:54Z</time>
      </trkpt>
      <trkpt lat="42.009417" lon="0.982033">
        <ele>1961.0</ele>
        <time>2013-09-13T13:37:55Z</time>
      </trkpt>
      <trkpt lat="42.009450" lon="0.982150">
        <ele>1961.0</ele>
        <time>2013-09-13T13:37:56Z</time>
      </trkpt>
      <trkpt lat="42.009483" lon="0.982267">
        <ele>1960.0</ele>
        <time>2013-09-13T13:37:57Z</time>
      </trkpt>
      <trkpt lat="42.009517" lon="0.982400">
        <ele>1959.0</ele>
        <time>2013-09-13T13:37:58Z</time>
      </trkpt>
      <trkpt lat="42.009550" lon="0.982517">
        <ele>1957.0</ele>
        <time>2013-09-13T13:37:59Z</time>
      </trkpt>
      <trkpt lat="42.009583" lon="0.982650">
        <ele>1955.0</ele>
        <time>2013-09-13T13:38:00Z</time>
      </trkpt>
      <trkpt lat="42.009633" lon="0.982767">
        <ele>1953.0</ele>
        <time>2013-09-13T13:38:01Z</time>
      </trkpt>
      <trkpt lat="42.009667" lon="0.982900">
        <ele>1951.0</ele>
        <time>2013-09-13T13:38:02Z</time>
      </trkpt>
      <trkpt lat="42.009717" lon="0.983017">
        <ele>1949.0</ele>
        <time>2013-09-13T13:38:03Z</time>
      </trkpt>
      <trkpt lat="42.009767" lon="0.983150">
        <ele>1947.0</ele>
        <time>2013-09-13T13:38:04Z</time>
      </trkpt>
      <trkpt lat="42.009800" lon="0.983267">
        <ele>1944.0</ele>
        <time>2013-09-13T13:38:05Z</time>
      </trkpt>
      <trkpt lat="42.009833" lon="0.983383">
        <ele>1942.0</ele>
        <time>2013-09-13T13:38:06Z</time>
      </trkpt>
      <trkpt lat="42.009883" lon="0.983500">
        <ele>1941.0</ele>
        <time>2013-09-13T13:38:07Z</time>
      </trkpt>
      <trkpt lat="42.009917" lon="0.983617">
        <ele>1938.0</ele>
        <time>2013-09-13T13:38:08Z</time>
      </trkpt>
      <trkpt lat="42.009967" lon="0.983750">
        <ele>1936.0</ele>
        <time>2013-09-13T13:38:09Z</time>
      </trkpt>
      <trkpt lat="42.010033" lon="0.983867">
        <ele>1934.0</ele>
        <time>2013-09-13T13:38:10Z</time>
      </trkpt>
      <trkpt lat="42.010083" lon="0.983983">
        <ele>1931.0</ele>
        <time>2013-09-13T13:38:11Z</time>
      </trkpt>
      <trkpt lat="42.010150" lon="0.984083">
        <ele>1929.0</ele>
        <time>2013-09-13T13:38:12Z</time>
      </trkpt>
      <trkpt lat="42.010217" lon="0.984183">
        <ele>1926.0</ele>
        <time>2013-09-13T13:38:13Z</time>
      </trkpt>
      <trkpt lat="42.010300" lon="0.984283">
        <ele>1924.0</ele>
        <time>2013-09-13T13:38:14Z</time>
      </trkpt>
      <trkpt lat="42.010367" lon="0.984383">
        <ele>1923.0</ele>
        <time>2013-09-13T13:38:15Z</time>
      </trkpt>
      <trkpt lat="42.010433" lon="0.984467">
        <ele>1922.0</ele>
        <time>2013-09-13T13:38:16Z</time>
      </trkpt>
      <trkpt lat="42.010500" lon="0.984567">
        <ele>1922.0</ele>
        <time>2013-09-13T13:38:17Z</time>
      </trkpt>
      <trkpt lat="42.010567" lon="0.984633">
        <ele>1921.0</ele>
        <time>2013-09-13T13:38:18Z</time>
      </trkpt>
      <trkpt lat="42.010633" lon="0.984717">
        <ele>1920.0</ele>
        <time>2013-09-13T13:38:19Z</time>
      </trkpt>
      <trkpt lat="42.010717" lon="0.984817">
        <ele>1918.0</ele>
        <time>2013-09-13T13:38:20Z</time>
      </trkpt>
      <trkpt lat="42.010783" lon="0.984917">
        <ele>1916.0</ele>
        <time>2013-09-13T13:38:21Z</time>
      </trkpt>
      <trkpt lat="42.010850" lon="0.985033">
        <ele>1915.0</ele>
        <time>2013-09-13T13:38:22Z</time>
      </trkpt>
      <trkpt lat="42.010917" lon="0.985133">
        <ele>1913.0</ele>
        <time>2013-09-13T13:38:23Z</time>
      </trkpt>
      <trkpt lat="42.010983" lon="0.985217">
        <ele>1912.0</ele>
        <time>2013-09-13T13:38:24Z</time>
      </trkpt>
      <trkpt lat="42.011067" lon="0.985300">
        <ele>1910.0</ele>
        <time>2013-09-13T13:38:25Z</time>
      </trkpt>
      <trkpt lat="42.011150" lon="0.985400">
        <ele>1909.0</ele>
        <time>2013-09-13T13:38:26Z</time>
      </trkpt>
      <trkpt lat="42.011217" lon="0.985483">
        <ele>1907.0</ele>
        <time>2013-09-13T13:38:27Z</time>
      </trkpt>
      <trkpt lat="42.011300" lon="0.985567">
        <ele>1906.0</ele>
        <time>2013-09-13T13:38:28Z</time>
      </trkpt>
      <trkpt lat="42.011383" lon="0.985633">
        <ele>1905.0</ele>
        <time>2013-09-13T13:38:29Z</time>
      </trkpt>
      <trkpt lat="42.011450" lon="0.985717">
        <ele>1904.0</ele>
        <time>2013-09-13T13:38:30Z</time>
      </trkpt>
      <trkpt lat="42.011533" lon="0.985783">
        <ele>1903.0</ele>
        <time>2013-09-13T13:38:31Z</time>
      </trkpt>
      <trkpt lat="42.011617" lon="0.985850">
        <ele>1902.0</ele>
        <time>2013-09-13T13:38:32Z</time>
      </trkpt>
      <trkpt lat="42.011717" lon="0.985917">
        <ele>1900.0</ele>
        <time>2013-09-13T13:38:33Z</time>
      </trkpt>
      <trkpt lat="42.011800" lon="0.985983">
        <ele>1899.0</ele>
        <time>2013-09-13T13:38:34Z</time>
      </trkpt>
      <trkpt lat="42.011883" lon="0.986050">
        <ele>1898.0</ele>
        <time>2013-09-13T13:38:35Z</time>
      </trkpt>
      <trkpt lat="42.011967" lon="0.986100">
        <ele>1897.0</ele>
        <time>2013-09-13T13:38:36Z</time>
      </trkpt>
      <trkpt lat="42.012050" lon="0.986167">
        <ele>1897.0</ele>
        <time>2013-09-13T13:38:37Z</time>
      </trkpt>
      <trkpt lat="42.012117" lon="0.986217">
        <ele>1896.0</ele>
        <time>2013-09-13T13:38:38Z</time>
      </trkpt>
      <trkpt lat="42.012200" lon="0.986283">
        <ele>1895.0</ele>
        <time>2013-09-13T13:38:39Z</time>
      </trkpt>
      <trkpt lat="42.012283" lon="0.986367">
        <ele>1894.0</ele>
        <time>2013-09-13T13:38:40Z</time>
      </trkpt>
      <trkpt lat="42.012367" lon="0.986450">
        <ele>1892.0</ele>
        <time>2013-09-13T13:38:41Z</time>
      </trkpt>
      <trkpt lat="42.012467" lon="0.986517">
        <ele>1891.0</ele>
        <time>2013-09-13T13:38:42Z</time>
      </trkpt>
      <trkpt lat="42.012550" lon="0.986600">
        <ele>1891.0</ele>
        <time>2013-09-13T13:38:43Z</time>
      </trkpt>
      <trkpt lat="42.012633" lon="0.986683">
        <ele>1891.0</ele>
        <time>2013-09-13T13:38:44Z</time>
      </trkpt>
      <trkpt lat="42.012733" lon="0.986767">
        <ele>1890.0</ele>
        <time>2013-09-13T13:38:45Z</time>
      </trkpt>
      <trkpt lat="42.012817" lon="0.986833">
        <ele>1889.0</ele>
        <time>2013-09-13T13:38:46Z</time>
      </trkpt>
      <trkpt lat="42.012900" lon="0.986917">
        <ele>1888.0</ele>
        <time>2013-09-13T13:38:47Z</time>
      </trkpt>
      <trkpt lat="42.012983" lon="0.986983">
        <ele>1888.0</ele>
        <time>2013-09-13T13:38:48Z</time>
      </trkpt>
      <trkpt lat="42.013067" lon="0.987067">
        <ele>1888.0</ele>
        <time>2013-09-13T13:38:49Z</time>
      </trkpt>
      <trkpt lat="42.013150" lon="0.987133">
        <ele>1888.0</ele>
        <time>2013-09-13T13:38:50Z</time>
      </trkpt>
      <trkpt lat="42.013233" lon="0.987200">
        <ele>1888.0</ele>
        <time>2013-09-13T13:38:51Z</time>
      </trkpt>
      <trkpt lat="42.013300" lon="0.987267">
        <ele>1890.0</ele>
        <time>2013-09-13T13:38:52Z</time>
      </trkpt>
      <trkpt lat="42.013383" lon="0.987333">
        <ele>1890.0</ele>
        <time>2013-09-13T13:38:53Z</time>
      </trkpt>
      <trkpt lat="42.013467" lon="0.987400">
        <ele>1892.0</ele>
        <time>2013-09-13T13:38:54Z</time>
      </trkpt>
      <trkpt lat="42.013533" lon="0.987483">
        <ele>1893.0</ele>
        <time>2013-09-13T13:38:55Z</time>
      </trkpt>
      <trkpt lat="42.013617" lon="0.987567">
        <ele>1894.0</ele>
        <time>2013-09-13T13:38:56Z</time>
      </trkpt>
      <trkpt lat="42.013717" lon="0.987650">
        <ele>1894.0</ele>
        <time>2013-09-13T13:38:57Z</time>
      </trkpt>
      <trkpt lat="42.013800" lon="0.987733">
        <ele>1895.0</ele>
        <time>2013-09-13T13:38:58Z</time>
      </trkpt>
      <trkpt lat="42.013900" lon="0.987800">
        <ele>1896.0</ele>
        <time>2013-09-13T13:38:59Z</time>
      </trkpt>
      <trkpt lat="42.013983" lon="0.987883">
        <ele>1897.0</ele>
        <time>2013-09-13T13:39:00Z</time>
      </trkpt>
      <trkpt lat="42.014067" lon="0.987967">
        <ele>1899.0</ele>
        <time>2013-09-13T13:39:01Z</time>
      </trkpt>
      <trkpt lat="42.014150" lon="0.988033">
        <ele>1901.0</ele>
        <time>2013-09-13T13:39:02Z</time>
      </trkpt>
      <trkpt lat="42.014233" lon="0.988117">
        <ele>1903.0</ele>
        <time>2013-09-13T13:39:03Z</time>
      </trkpt>
      <trkpt lat="42.014300" lon="0.988183">
        <ele>1905.0</ele>
        <time>2013-09-13T13:39:04Z</time>
      </trkpt>
      <trkpt lat="42.014383" lon="0.988283">
        <ele>1906.0</ele>
        <time>2013-09-13T13:39:05Z</time>
      </trkpt>
      <trkpt lat="42.014450" lon="0.988417">
        <ele>1906.0</ele>
        <time>2013-09-13T13:39:06Z</time>
      </trkpt>
      <trkpt lat="42.014500" lon="0.988567">
        <ele>1907.0</ele>
        <time>2013-09-13T13:39:07Z</time>
      </trkpt>
      <trkpt lat="42.014517" lon="0.988717">
        <ele>1907.0</ele>
        <time>2013-09-13T13:39:08Z</time>
      </trkpt>
      <trkpt lat="42.014517" lon="0.988867">
        <ele>1908.0</ele>
        <time>2013-09-13T13:39:09Z</time>
      </trkpt>
      <trkpt lat="42.014483" lon="0.989000">
        <ele>1909.0</ele>
        <time>2013-09-13T13:39:10Z</time>
      </trkpt>
      <trkpt lat="42.014450" lon="0.989117">
        <ele>1909.0</ele>
        <time>2013-09-13T13:39:11Z</time>
      </trkpt>
      <trkpt lat="42.014417" lon="0.989200">
        <ele>1909.0</ele>
        <time>2013-09-13T13:39:12Z</time>
      </trkpt>
      <trkpt lat="42.014367" lon="0.989283">
        <ele>1909.0</ele>
        <time>2013-09-13T13:39:13Z</time>
      </trkpt>
      <trkpt lat="42.014317" lon="0.989350">
        <ele>1909.0</ele>
        <time>2013-09-13T13:39:14Z</time>
      </trkpt>
      <trkpt lat="42.014250" lon="0.989383">
        <ele>1908.0</ele>
        <time>2013-09-13T13:39:15Z</time>
      </trkpt>
      <trkpt lat="42.014183" lon="0.989383">
        <ele>1907.0</ele>
        <time>2013-09-13T13:39:16Z</time>
      </trkpt>
      <trkpt lat="42.014133" lon="0.989350">
        <ele>1907.0</ele>
        <time>2013-09-13T13:39:17Z</time>
      </trkpt>
      <trkpt lat="42.014117" lon="0.989283">
        <ele>1907.0</ele>
        <time>2013-09-13T13:39:18Z</time>
      </trkpt>
      <trkpt lat="42.014100" lon="0.989233">
        <ele>1907.0</ele>
        <time>2013-09-13T13:39:19Z</time>
      </trkpt>
      <trkpt lat="42.014117" lon="0.989183">
        <ele>1907.0</ele>
        <time>2013-09-13T13:39:20Z</time>
      </trkpt>
      <trkpt lat="42.014133" lon="0.989133">
        <ele>1908.0</ele>
        <time>2013-09-13T13:39:21Z</time>
      </trkpt>
      <trkpt lat="42.014150" lon="0.989067">
        <ele>1908.0</ele>
        <time>2013-09-13T13:39:22Z</time>
      </trkpt>
      <trkpt lat="42.014183" lon="0.989017">
        <ele>1908.0</ele>
        <time>2013-09-13T13:39:23Z</time>
      </trkpt>
      <trkpt lat="42.014233" lon="0.988950">
        <ele>1909.0</ele>
        <time>2013-09-13T13:39:24Z</time>
      </trkpt>
      <trkpt lat="42.014267" lon="0.988883">
        <ele>1910.0</ele>
        <time>2013-09-13T13:39:25Z</time>
      </trkpt>
      <trkpt lat="42.014317" lon="0.988833">
        <ele>1911.0</ele>
        <time>2013-09-13T13:39:26Z</time>
      </trkpt>
      <trkpt lat="42.014367" lon="0.988783">
        <ele>1912.0</ele>
        <time>2013-09-13T13:39:27Z</time>
      </trkpt>
      <trkpt lat="42.014433" lon="0.988733">
        <ele>1913.0</ele>
        <time>2013-09-13T13:39:28Z</time>
      </trkpt>
      <trkpt lat="42.014500" lon="0.988683">
        <ele>1914.0</ele>
        <time>2013-09-13T13:39:29Z</time>
      </trkpt>
      <trkpt lat="42.014567" lon="0.988633">
        <ele>1917.0</ele>
        <time>2013-09-13T13:39:30Z</time>
      </trkpt>
      <trkpt lat="42.014617" lon="0.988617">
        <ele>1920.0</ele>
        <time>2013-09-13T13:39:31Z</time>
      </trkpt>
      <trkpt lat="42.014667" lon="0.988617">
        <ele>1923.0</ele>
        <time>2013-09-13T13:39:32Z</time>
      </trkpt>
      <trkpt lat="42.014717" lon="0.988617">
        <ele>1925.0</ele>
        <time>2013-09-13T13:39:33Z</time>
      </trkpt>
      <trkpt lat="42.014783" lon="0.988617">
        <ele>1926.0</ele>
        <time>2013-09-13T13:39:34Z</time>
      </trkpt>
      <trkpt lat="42.014867" lon="0.988617">
        <ele>1925.0</ele>
        <time>2013-09-13T13:39:35Z</time>
      </trkpt>
      <trkpt lat="42.015100" lon="0.988633">
        <ele>1925.0</ele>
        <time>2013-09-13T13:39:38Z</time>
      </trkpt>
      <trkpt lat="42.015167" lon="0.988633">
        <ele>1925.0</ele>
        <time>2013-09-13T13:39:39Z</time>
      </trkpt>
      <trkpt lat="42.015233" lon="0.988650">
        <ele>1925.0</ele>
        <time>2013-09-13T13:39:40Z</time>
      </trkpt>
      <trkpt lat="42.015317" lon="0.988667">
        <ele>1924.0</ele>
        <time>2013-09-13T13:39:41Z</time>
      </trkpt>
      <trkpt lat="42.015383" lon="0.988717">
        <ele>1923.0</ele>
        <time>2013-09-13T13:39:42Z</time>
      </trkpt>
      <trkpt lat="42.015483" lon="0.988783">
        <ele>1921.0</ele>
        <time>2013-09-13T13:39:43Z</time>
      </trkpt>
      <trkpt lat="42.015583" lon="0.988850">
        <ele>1920.0</ele>
        <time>2013-09-13T13:39:44Z</time>
      </trkpt>
      <trkpt lat="42.015650" lon="0.988933">
        <ele>1919.0</ele>
        <time>2013-09-13T13:39:45Z</time>
      </trkpt>
      <trkpt lat="42.015733" lon="0.989017">
        <ele>1918.0</ele>
        <time>2013-09-13T13:39:46Z</time>
      </trkpt>
      <trkpt lat="42.015833" lon="0.989100">
        <ele>1916.0</ele>
        <time>2013-09-13T13:39:47Z</time>
      </trkpt>
      <trkpt lat="42.015917" lon="0.989200">
        <ele>1914.0</ele>
        <time>2013-09-13T13:39:48Z</time>
      </trkpt>
      <trkpt lat="42.016017" lon="0.989283">
        <ele>1913.0</ele>
        <time>2013-09-13T13:39:49Z</time>
      </trkpt>
      <trkpt lat="42.016117" lon="0.989367">
        <ele>1911.0</ele>
        <time>2013-09-13T13:39:50Z</time>
      </trkpt>
      <trkpt lat="42.016217" lon="0.989450">
        <ele>1910.0</ele>
        <time>2013-09-13T13:39:51Z</time>
      </trkpt>
      <trkpt lat="42.016317" lon="0.989500">
        <ele>1909.0</ele>
        <time>2013-09-13T13:39:52Z</time>
      </trkpt>
      <trkpt lat="42.016417" lon="0.989550">
        <ele>1908.0</ele>
        <time>2013-09-13T13:39:53Z</time>
      </trkpt>
      <trkpt lat="42.016517" lon="0.989600">
        <ele>1906.0</ele>
        <time>2013-09-13T13:39:54Z</time>
      </trkpt>
      <trkpt lat="42.016633" lon="0.989617">
        <ele>1905.0</ele>
        <time>2013-09-13T13:39:55Z</time>
      </trkpt>
      <trkpt lat="42.016733" lon="0.989650">
        <ele>1904.0</ele>
        <time>2013-09-13T13:39:56Z</time>
      </trkpt>
      <trkpt lat="42.016833" lon="0.989667">
        <ele>1903.0</ele>
        <time>2013-09-13T13:39:57Z</time>
      </trkpt>
      <trkpt lat="42.016933" lon="0.989683">
        <ele>1903.0</ele>
        <time>2013-09-13T13:39:58Z</time>
      </trkpt>
      <trkpt lat="42.017033" lon="0.989683">
        <ele>1904.0</ele>
        <time>2013-09-13T13:39:59Z</time>
      </trkpt>
      <trkpt lat="42.017133" lon="0.989683">
        <ele>1904.0</ele>
        <time>2013-09-13T13:40:00Z</time>
      </trkpt>
      <trkpt lat="42.017233" lon="0.989667">
        <ele>1904.0</ele>
        <time>2013-09-13T13:40:01Z</time>
      </trkpt>
      <trkpt lat="42.017333" lon="0.989667">
        <ele>1904.0</ele>
        <time>2013-09-13T13:40:02Z</time>
      </trkpt>
      <trkpt lat="42.017433" lon="0.989633">
        <ele>1903.0</ele>
        <time>2013-09-13T13:40:03Z</time>
      </trkpt>
      <trkpt lat="42.017517" lon="0.989617">
        <ele>1904.0</ele>
        <time>2013-09-13T13:40:04Z</time>
      </trkpt>
      <trkpt lat="42.017617" lon="0.989567">
        <ele>1904.0</ele>
        <time>2013-09-13T13:40:05Z</time>
      </trkpt>
      <trkpt lat="42.017700" lon="0.989533">
        <ele>1905.0</ele>
        <time>2013-09-13T13:40:06Z</time>
      </trkpt>
      <trkpt lat="42.017767" lon="0.989500">
        <ele>1906.0</ele>
        <time>2013-09-13T13:40:07Z</time>
      </trkpt>
      <trkpt lat="42.017833" lon="0.989467">
        <ele>1907.0</ele>
        <time>2013-09-13T13:40:08Z</time>
      </trkpt>
      <trkpt lat="42.017917" lon="0.989417">
        <ele>1908.0</ele>
        <time>2013-09-13T13:40:09Z</time>
      </trkpt>
      <trkpt lat="42.017983" lon="0.989367">
        <ele>1909.0</ele>
        <time>2013-09-13T13:40:10Z</time>
      </trkpt>
      <trkpt lat="42.018033" lon="0.989300">
        <ele>1910.0</ele>
        <time>2013-09-13T13:40:11Z</time>
      </trkpt>
      <trkpt lat="42.018067" lon="0.989233">
        <ele>1911.0</ele>
        <time>2013-09-13T13:40:12Z</time>
      </trkpt>
      <trkpt lat="42.018083" lon="0.989150">
        <ele>1913.0</ele>
        <time>2013-09-13T13:40:13Z</time>
      </trkpt>
      <trkpt lat="42.018083" lon="0.989083">
        <ele>1913.0</ele>
        <time>2013-09-13T13:40:14Z</time>
      </trkpt>
      <trkpt lat="42.018100" lon="0.989017">
        <ele>1913.0</ele>
        <time>2013-09-13T13:40:15Z</time>
      </trkpt>
      <trkpt lat="42.018100" lon="0.988950">
        <ele>1912.0</ele>
        <time>2013-09-13T13:40:16Z</time>
      </trkpt>
      <trkpt lat="42.018100" lon="0.988867">
        <ele>1912.0</ele>
        <time>2013-09-13T13:40:17Z</time>
      </trkpt>
      <trkpt lat="42.018083" lon="0.988800">
        <ele>1911.0</ele>
        <time>2013-09-13T13:40:18Z</time>
      </trkpt>
      <trkpt lat="42.018067" lon="0.988717">
        <ele>1910.0</ele>
        <time>2013-09-13T13:40:19Z</time>
      </trkpt>
      <trkpt lat="42.018050" lon="0.988650">
        <ele>1909.0</ele>
        <time>2013-09-13T13:40:20Z</time>
      </trkpt>
      <trkpt lat="42.018017" lon="0.988583">
        <ele>1908.0</ele>
        <time>2013-09-13T13:40:21Z</time>
      </trkpt>
      <trkpt lat="42.017967" lon="0.988533">
        <ele>1907.0</ele>
        <time>2013-09-13T13:40:22Z</time>
      </trkpt>
      <trkpt lat="42.017917" lon="0.988500">
        <ele>1905.0</ele>
        <time>2013-09-13T13:40:23Z</time>
      </trkpt>
      <trkpt lat="42.017833" lon="0.988483">
        <ele>1904.0</ele>
        <time>2013-09-13T13:40:24Z</time>
      </trkpt>
      <trkpt lat="42.017750" lon="0.988483">
        <ele>1902.0</ele>
        <time>2013-09-13T13:40:25Z</time>
      </trkpt>
      <trkpt lat="42.017667" lon="0.988517">
        <ele>1901.0</ele>
        <time>2013-09-13T13:40:26Z</time>
      </trkpt>
      <trkpt lat="42.017583" lon="0.988583">
        <ele>1900.0</ele>
        <time>2013-09-13T13:40:27Z</time>
      </trkpt>
      <trkpt lat="42.017533" lon="0.988700">
        <ele>1900.0</ele>
        <time>2013-09-13T13:40:28Z</time>
      </trkpt>
      <trkpt lat="42.017500" lon="0.988833">
        <ele>1899.0</ele>
        <time>2013-09-13T13:40:29Z</time>
      </trkpt>
      <trkpt lat="42.017483" lon="0.988950">
        <ele>1899.0</ele>
        <time>2013-09-13T13:40:30Z</time>
      </trkpt>
      <trkpt lat="42.017483" lon="0.989100">
        <ele>1899.0</ele>
        <time>2013-09-13T13:40:31Z</time>
      </trkpt>
      <trkpt lat="42.017483" lon="0.989233">
        <ele>1899.0</ele>
        <time>2013-09-13T13:40:32Z</time>
      </trkpt>
      <trkpt lat="42.017500" lon="0.989383">
        <ele>1898.0</ele>
        <time>2013-09-13T13:40:33Z</time>
      </trkpt>
      <trkpt lat="42.017550" lon="0.989517">
        <ele>1898.0</ele>
        <time>2013-09-13T13:40:34Z</time>
      </trkpt>
      <trkpt lat="42.017617" lon="0.989617">
        <ele>1897.0</ele>
        <time>2013-09-13T13:40:35Z</time>
      </trkpt>
      <trkpt lat="42.017700" lon="0.989717">
        <ele>1897.0</ele>
        <time>2013-09-13T13:40:36Z</time>
      </trkpt>
      <trkpt lat="42.017783" lon="0.989800">
        <ele>1897.0</ele>
        <time>2013-09-13T13:40:37Z</time>
      </trkpt>
      <trkpt lat="42.017867" lon="0.989850">
        <ele>1897.0</ele>
        <time>2013-09-13T13:40:38Z</time>
      </trkpt>
      <trkpt lat="42.017950" lon="0.989900">
        <ele>1898.0</ele>
        <time>2013-09-13T13:40:39Z</time>
      </trkpt>
      <trkpt lat="42.018017" lon="0.989933">
        <ele>1898.0</ele>
        <time>2013-09-13T13:40:40Z</time>
      </trkpt>
      <trkpt lat="42.018083" lon="0.989967">
        <ele>1898.0</ele>
        <time>2013-09-13T13:40:41Z</time>
      </trkpt>
      <trkpt lat="42.018167" lon="0.989983">
        <ele>1897.0</ele>
        <time>2013-09-13T13:40:42Z</time>
      </trkpt>
      <trkpt lat="42.018250" lon="0.990000">
        <ele>1896.0</ele>
        <time>2013-09-13T13:40:43Z</time>
      </trkpt>
      <trkpt lat="42.018350" lon="0.990017">
        <ele>1894.0</ele>
        <time>2013-09-13T13:40:44Z</time>
      </trkpt>
      <trkpt lat="42.018433" lon="0.990017">
        <ele>1893.0</ele>
        <time>2013-09-13T13:40:45Z</time>
      </trkpt>
      <trkpt lat="42.018500" lon="0.990017">
        <ele>1893.0</ele>
        <time>2013-09-13T13:40:46Z</time>
      </trkpt>
      <trkpt lat="42.018567" lon="0.990017">
        <ele>1892.0</ele>
        <time>2013-09-13T13:40:47Z</time>
      </trkpt>
      <trkpt lat="42.018650" lon="0.990000">
        <ele>1891.0</ele>
        <time>2013-09-13T13:40:48Z</time>
      </trkpt>
      <trkpt lat="42.018733" lon="0.990000">
        <ele>1889.0</ele>
        <time>2013-09-13T13:40:49Z</time>
      </trkpt>
      <trkpt lat="42.018817" lon="0.989983">
        <ele>1888.0</ele>
        <time>2013-09-13T13:40:50Z</time>
      </trkpt>
      <trkpt lat="42.018883" lon="0.989967">
        <ele>1886.0</ele>
        <time>2013-09-13T13:40:51Z</time>
      </trkpt>
      <trkpt lat="42.018983" lon="0.989950">
        <ele>1885.0</ele>
        <time>2013-09-13T13:40:52Z</time>
      </trkpt>
      <trkpt lat="42.019067" lon="0.989933">
        <ele>1883.0</ele>
        <time>2013-09-13T13:40:53Z</time>
      </trkpt>
      <trkpt lat="42.019150" lon="0.989900">
        <ele>1882.0</ele>
        <time>2013-09-13T13:40:54Z</time>
      </trkpt>
      <trkpt lat="42.019217" lon="0.989867">
        <ele>1882.0</ele>
        <time>2013-09-13T13:40:55Z</time>
      </trkpt>
      <trkpt lat="42.019300" lon="0.989850">
        <ele>1881.0</ele>
        <time>2013-09-13T13:40:56Z</time>
      </trkpt>
      <trkpt lat="42.019367" lon="0.989833">
        <ele>1880.0</ele>
        <time>2013-09-13T13:40:57Z</time>
      </trkpt>
      <trkpt lat="42.019450" lon="0.989817">
        <ele>1879.0</ele>
        <time>2013-09-13T13:40:58Z</time>
      </trkpt>
      <trkpt lat="42.019550" lon="0.989800">
        <ele>1878.0</ele>
        <time>2013-09-13T13:40:59Z</time>
      </trkpt>
      <trkpt lat="42.019633" lon="0.989800">
        <ele>1876.0</ele>
        <time>2013-09-13T13:41:00Z</time>
      </trkpt>
      <trkpt lat="42.019700" lon="0.989783">
        <ele>1875.0</ele>
        <time>2013-09-13T13:41:01Z</time>
      </trkpt>
      <trkpt lat="42.019783" lon="0.989767">
        <ele>1874.0</ele>
        <time>2013-09-13T13:41:02Z</time>
      </trkpt>
      <trkpt lat="42.019850" lon="0.989767">
        <ele>1873.0</ele>
        <time>2013-09-13T13:41:03Z</time>
      </trkpt>
      <trkpt lat="42.019933" lon="0.989750">
        <ele>1872.0</ele>
        <time>2013-09-13T13:41:04Z</time>
      </trkpt>
      <trkpt lat="42.020000" lon="0.989733">
        <ele>1871.0</ele>
        <time>2013-09-13T13:41:05Z</time>
      </trkpt>
      <trkpt lat="42.020067" lon="0.989700">
        <ele>1869.0</ele>
        <time>2013-09-13T13:41:06Z</time>
      </trkpt>
      <trkpt lat="42.020150" lon="0.989667">
        <ele>1867.0</ele>
        <time>2013-09-13T13:41:07Z</time>
      </trkpt>
      <trkpt lat="42.020233" lon="0.989633">
        <ele>1866.0</ele>
        <time>2013-09-13T13:41:08Z</time>
      </trkpt>
      <trkpt lat="42.020300" lon="0.989600">
        <ele>1864.0</ele>
        <time>2013-09-13T13:41:09Z</time>
      </trkpt>
      <trkpt lat="42.020367" lon="0.989567">
        <ele>1863.0</ele>
        <time>2013-09-13T13:41:10Z</time>
      </trkpt>
      <trkpt lat="42.020450" lon="0.989533">
        <ele>1862.0</ele>
        <time>2013-09-13T13:41:11Z</time>
      </trkpt>
      <trkpt lat="42.020517" lon="0.989517">
        <ele>1861.0</ele>
        <time>2013-09-13T13:41:12Z</time>
      </trkpt>
      <trkpt lat="42.020600" lon="0.989500">
        <ele>1860.0</ele>
        <time>2013-09-13T13:41:13Z</time>
      </trkpt>
      <trkpt lat="42.020667" lon="0.989483">
        <ele>1858.0</ele>
        <time>2013-09-13T13:41:14Z</time>
      </trkpt>
      <trkpt lat="42.020750" lon="0.989467">
        <ele>1857.0</ele>
        <time>2013-09-13T13:41:15Z</time>
      </trkpt>
      <trkpt lat="42.020833" lon="0.989433">
        <ele>1856.0</ele>
        <time>2013-09-13T13:41:16Z</time>
      </trkpt>
      <trkpt lat="42.020917" lon="0.989417">
        <ele>1855.0</ele>
        <time>2013-09-13T13:41:17Z</time>
      </trkpt>
      <trkpt lat="42.020983" lon="0.989400">
        <ele>1855.0</ele>
        <time>2013-09-13T13:41:18Z</time>
      </trkpt>
      <trkpt lat="42.021067" lon="0.989383">
        <ele>1853.0</ele>
        <time>2013-09-13T13:41:19Z</time>
      </trkpt>
      <trkpt lat="42.021167" lon="0.989367">
        <ele>1852.0</ele>
        <time>2013-09-13T13:41:20Z</time>
      </trkpt>
      <trkpt lat="42.021233" lon="0.989350">
        <ele>1851.0</ele>
        <time>2013-09-13T13:41:21Z</time>
      </trkpt>
      <trkpt lat="42.021317" lon="0.989350">
        <ele>1850.0</ele>
        <time>2013-09-13T13:41:22Z</time>
      </trkpt>
      <trkpt lat="42.021400" lon="0.989333">
        <ele>1849.0</ele>
        <time>2013-09-13T13:41:23Z</time>
      </trkpt>
      <trkpt lat="42.021483" lon="0.989333">
        <ele>1847.0</ele>
        <time>2013-09-13T13:41:24Z</time>
      </trkpt>
      <trkpt lat="42.021567" lon="0.989333">
        <ele>1845.0</ele>
        <time>2013-09-13T13:41:25Z</time>
      </trkpt>
      <trkpt lat="42.021667" lon="0.989317">
        <ele>1842.0</ele>
        <time>2013-09-13T13:41:26Z</time>
      </trkpt>
      <trkpt lat="42.021750" lon="0.989317">
        <ele>1839.0</ele>
        <time>2013-09-13T13:41:27Z</time>
      </trkpt>
      <trkpt lat="42.021850" lon="0.989300">
        <ele>1837.0</ele>
        <time>2013-09-13T13:41:28Z</time>
      </trkpt>
      <trkpt lat="42.021933" lon="0.989283">
        <ele>1835.0</ele>
        <time>2013-09-13T13:41:29Z</time>
      </trkpt>
      <trkpt lat="42.022017" lon="0.989283">
        <ele>1834.0</ele>
        <time>2013-09-13T13:41:30Z</time>
      </trkpt>
      <trkpt lat="42.022083" lon="0.989267">
        <ele>1833.0</ele>
        <time>2013-09-13T13:41:31Z</time>
      </trkpt>
      <trkpt lat="42.022167" lon="0.989267">
        <ele>1832.0</ele>
        <time>2013-09-13T13:41:32Z</time>
      </trkpt>
      <trkpt lat="42.022233" lon="0.989267">
        <ele>1830.0</ele>
        <time>2013-09-13T13:41:33Z</time>
      </trkpt>
      <trkpt lat="42.022317" lon="0.989267">
        <ele>1828.0</ele>
        <time>2013-09-13T13:41:34Z</time>
      </trkpt>
      <trkpt lat="42.022417" lon="0.989267">
        <ele>1825.0</ele>
        <time>2013-09-13T13:41:35Z</time>
      </trkpt>
      <trkpt lat="42.022583" lon="0.989267">
        <ele>1821.0</ele>
        <time>2013-09-13T13:41:37Z</time>
      </trkpt>
      <trkpt lat="42.022683" lon="0.989283">
        <ele>1821.0</ele>
        <time>2013-09-13T13:41:38Z</time>
      </trkpt>
      <trkpt lat="42.022767" lon="0.989300">
        <ele>1821.0</ele>
        <time>2013-09-13T13:41:39Z</time>
      </trkpt>
      <trkpt lat="42.022833" lon="0.989317">
        <ele>1821.0</ele>
        <time>2013-09-13T13:41:40Z</time>
      </trkpt>
      <trkpt lat="42.022917" lon="0.989317">
        <ele>1821.0</ele>
        <time>2013-09-13T13:41:41Z</time>
      </trkpt>
      <trkpt lat="42.022983" lon="0.989300">
        <ele>1820.0</ele>
        <time>2013-09-13T13:41:42Z</time>
      </trkpt>
      <trkpt lat="42.023067" lon="0.989317">
        <ele>1820.0</ele>
        <time>2013-09-13T13:41:43Z</time>
      </trkpt>
      <trkpt lat="42.023150" lon="0.989333">
        <ele>1820.0</ele>
        <time>2013-09-13T13:41:44Z</time>
      </trkpt>
      <trkpt lat="42.023217" lon="0.989350">
        <ele>1821.0</ele>
        <time>2013-09-13T13:41:45Z</time>
      </trkpt>
      <trkpt lat="42.023283" lon="0.989367">
        <ele>1822.0</ele>
        <time>2013-09-13T13:41:46Z</time>
      </trkpt>
      <trkpt lat="42.023350" lon="0.989367">
        <ele>1822.0</ele>
        <time>2013-09-13T13:41:47Z</time>
      </trkpt>
      <trkpt lat="42.023433" lon="0.989367">
        <ele>1821.0</ele>
        <time>2013-09-13T13:41:48Z</time>
      </trkpt>
      <trkpt lat="42.023517" lon="0.989383">
        <ele>1821.0</ele>
        <time>2013-09-13T13:41:49Z</time>
      </trkpt>
      <trkpt lat="42.023600" lon="0.989417">
        <ele>1821.0</ele>
        <time>2013-09-13T13:41:50Z</time>
      </trkpt>
      <trkpt lat="42.023650" lon="0.989450">
        <ele>1822.0</ele>
        <time>2013-09-13T13:41:51Z</time>
      </trkpt>
      <trkpt lat="42.023717" lon="0.989483">
        <ele>1824.0</ele>
        <time>2013-09-13T13:41:52Z</time>
      </trkpt>
      <trkpt lat="42.023767" lon="0.989517">
        <ele>1824.0</ele>
        <time>2013-09-13T13:41:53Z</time>
      </trkpt>
      <trkpt lat="42.023850" lon="0.989550">
        <ele>1824.0</ele>
        <time>2013-09-13T13:41:54Z</time>
      </trkpt>
      <trkpt lat="42.023933" lon="0.989567">
        <ele>1823.0</ele>
        <time>2013-09-13T13:41:55Z</time>
      </trkpt>
      <trkpt lat="42.024017" lon="0.989600">
        <ele>1824.0</ele>
        <time>2013-09-13T13:41:56Z</time>
      </trkpt>
      <trkpt lat="42.024083" lon="0.989650">
        <ele>1825.0</ele>
        <time>2013-09-13T13:41:57Z</time>
      </trkpt>
      <trkpt lat="42.024150" lon="0.989683">
        <ele>1826.0</ele>
        <time>2013-09-13T13:41:58Z</time>
      </trkpt>
      <trkpt lat="42.024200" lon="0.989700">
        <ele>1826.0</ele>
        <time>2013-09-13T13:41:59Z</time>
      </trkpt>
      <trkpt lat="42.024283" lon="0.989717">
        <ele>1826.0</ele>
        <time>2013-09-13T13:42:00Z</time>
      </trkpt>
      <trkpt lat="42.024367" lon="0.989733">
        <ele>1824.0</ele>
        <time>2013-09-13T13:42:01Z</time>
      </trkpt>
      <trkpt lat="42.024433" lon="0.989733">
        <ele>1824.0</ele>
        <time>2013-09-13T13:42:02Z</time>
      </trkpt>
      <trkpt lat="42.024500" lon="0.989750">
        <ele>1823.0</ele>
        <time>2013-09-13T13:42:03Z</time>
      </trkpt>
      <trkpt lat="42.024567" lon="0.989750">
        <ele>1823.0</ele>
        <time>2013-09-13T13:42:04Z</time>
      </trkpt>
      <trkpt lat="42.024633" lon="0.989733">
        <ele>1823.0</ele>
        <time>2013-09-13T13:42:05Z</time>
      </trkpt>
      <trkpt lat="42.024700" lon="0.989733">
        <ele>1822.0</ele>
        <time>2013-09-13T13:42:06Z</time>
      </trkpt>
      <trkpt lat="42.024767" lon="0.989717">
        <ele>1821.0</ele>
        <time>2013-09-13T13:42:07Z</time>
      </trkpt>
      <trkpt lat="42.024850" lon="0.989717">
        <ele>1821.0</ele>
        <time>2013-09-13T13:42:08Z</time>
      </trkpt>
      <trkpt lat="42.024917" lon="0.989717">
        <ele>1820.0</ele>
        <time>2013-09-13T13:42:09Z</time>
      </trkpt>
      <trkpt lat="42.024967" lon="0.989733">
        <ele>1819.0</ele>
        <time>2013-09-13T13:42:10Z</time>
      </trkpt>
      <trkpt lat="42.025117" lon="0.989750">
        <ele>1818.0</ele>
        <time>2013-09-13T13:42:12Z</time>
      </trkpt>
      <trkpt lat="42.025183" lon="0.989767">
        <ele>1817.0</ele>
        <time>2013-09-13T13:42:13Z</time>
      </trkpt>
      <trkpt lat="42.025267" lon="0.989767">
        <ele>1815.0</ele>
        <time>2013-09-13T13:42:14Z</time>
      </trkpt>
      <trkpt lat="42.025350" lon="0.989767">
        <ele>1814.0</ele>
        <time>2013-09-13T13:42:15Z</time>
      </trkpt>
      <trkpt lat="42.025417" lon="0.989750">
        <ele>1813.0</ele>
        <time>2013-09-13T13:42:16Z</time>
      </trkpt>
      <trkpt lat="42.025483" lon="0.989733">
        <ele>1812.0</ele>
        <time>2013-09-13T13:42:17Z</time>
      </trkpt>
      <trkpt lat="42.025567" lon="0.989717">
        <ele>1811.0</ele>
        <time>2013-09-13T13:42:18Z</time>
      </trkpt>
      <trkpt lat="42.025633" lon="0.989700">
        <ele>1810.0</ele>
        <time>2013-09-13T13:42:19Z</time>
      </trkpt>
      <trkpt lat="42.025717" lon="0.989683">
        <ele>1809.0</ele>
        <time>2013-09-13T13:42:20Z</time>
      </trkpt>
      <trkpt lat="42.025783" lon="0.989667">
        <ele>1808.0</ele>
        <time>2013-09-13T13:42:21Z</time>
      </trkpt>
      <trkpt lat="42.025850" lon="0.989650">
        <ele>1807.0</ele>
        <time>2013-09-13T13:42:22Z</time>
      </trkpt>
      <trkpt lat="42.025917" lon="0.989650">
        <ele>1807.0</ele>
        <time>2013-09-13T13:42:23Z</time>
      </trkpt>
      <trkpt lat="42.025983" lon="0.989633">
        <ele>1806.0</ele>
        <time>2013-09-13T13:42:24Z</time>
      </trkpt>
      <trkpt lat="42.026067" lon="0.989633">
        <ele>1804.0</ele>
        <time>2013-09-13T13:42:25Z</time>
      </trkpt>
      <trkpt lat="42.026133" lon="0.989633">
        <ele>1803.0</ele>
        <time>2013-09-13T13:42:26Z</time>
      </trkpt>
      <trkpt lat="42.026200" lon="0.989633">
        <ele>1802.0</ele>
        <time>2013-09-13T13:42:27Z</time>
      </trkpt>
      <trkpt lat="42.026283" lon="0.989617">
        <ele>1801.0</ele>
        <time>2013-09-13T13:42:28Z</time>
      </trkpt>
      <trkpt lat="42.026350" lon="0.989617">
        <ele>1800.0</ele>
        <time>2013-09-13T13:42:29Z</time>
      </trkpt>
      <trkpt lat="42.026433" lon="0.989600">
        <ele>1799.0</ele>
        <time>2013-09-13T13:42:30Z</time>
      </trkpt>
      <trkpt lat="42.026517" lon="0.989583">
        <ele>1797.0</ele>
        <time>2013-09-13T13:42:31Z</time>
      </trkpt>
      <trkpt lat="42.026600" lon="0.989567">
        <ele>1796.0</ele>
        <time>2013-09-13T13:42:32Z</time>
      </trkpt>
      <trkpt lat="42.026683" lon="0.989550">
        <ele>1796.0</ele>
        <time>2013-09-13T13:42:33Z</time>
      </trkpt>
      <trkpt lat="42.026750" lon="0.989550">
        <ele>1796.0</ele>
        <time>2013-09-13T13:42:34Z</time>
      </trkpt>
      <trkpt lat="42.026817" lon="0.989533">
        <ele>1798.0</ele>
        <time>2013-09-13T13:42:35Z</time>
      </trkpt>
      <trkpt lat="42.026867" lon="0.989533">
        <ele>1799.0</ele>
        <time>2013-09-13T13:42:36Z</time>
      </trkpt>
      <trkpt lat="42.026933" lon="0.989533">
        <ele>1800.0</ele>
        <time>2013-09-13T13:42:37Z</time>
      </trkpt>
      <trkpt lat="42.027000" lon="0.989517">
        <ele>1800.0</ele>
        <time>2013-09-13T13:42:38Z</time>
      </trkpt>
      <trkpt lat="42.027067" lon="0.989517">
        <ele>1800.0</ele>
        <time>2013-09-13T13:42:39Z</time>
      </trkpt>
      <trkpt lat="42.027150" lon="0.989533">
        <ele>1801.0</ele>
        <time>2013-09-13T13:42:40Z</time>
      </trkpt>
      <trkpt lat="42.027217" lon="0.989550">
        <ele>1801.0</ele>
        <time>2013-09-13T13:42:41Z</time>
      </trkpt>
      <trkpt lat="42.027283" lon="0.989567">
        <ele>1801.0</ele>
        <time>2013-09-13T13:42:42Z</time>
      </trkpt>
      <trkpt lat="42.027350" lon="0.989567">
        <ele>1801.0</ele>
        <time>2013-09-13T13:42:43Z</time>
      </trkpt>
      <trkpt lat="42.027417" lon="0.989567">
        <ele>1801.0</ele>
        <time>2013-09-13T13:42:44Z</time>
      </trkpt>
      <trkpt lat="42.027483" lon="0.989567">
        <ele>1800.0</ele>
        <time>2013-09-13T13:42:45Z</time>
      </trkpt>
      <trkpt lat="42.027567" lon="0.989583">
        <ele>1799.0</ele>
        <time>2013-09-13T13:42:46Z</time>
      </trkpt>
      <trkpt lat="42.027650" lon="0.989600">
        <ele>1798.0</ele>
        <time>2013-09-13T13:42:47Z</time>
      </trkpt>
      <trkpt lat="42.027800" lon="0.989617">
        <ele>1795.0</ele>
        <time>2013-09-13T13:42:49Z</time>
      </trkpt>
      <trkpt lat="42.027883" lon="0.989633">
        <ele>1794.0</ele>
        <time>2013-09-13T13:42:50Z</time>
      </trkpt>
      <trkpt lat="42.027950" lon="0.989617">
        <ele>1792.0</ele>
        <time>2013-09-13T13:42:51Z</time>
      </trkpt>
      <trkpt lat="42.028033" lon="0.989617">
        <ele>1790.0</ele>
        <time>2013-09-13T13:42:52Z</time>
      </trkpt>
      <trkpt lat="42.028117" lon="0.989600">
        <ele>1789.0</ele>
        <time>2013-09-13T13:42:53Z</time>
      </trkpt>
      <trkpt lat="42.028183" lon="0.989600">
        <ele>1788.0</ele>
        <time>2013-09-13T13:42:54Z</time>
      </trkpt>
      <trkpt lat="42.028267" lon="0.989583">
        <ele>1786.0</ele>
        <time>2013-09-13T13:42:55Z</time>
      </trkpt>
      <trkpt lat="42.028333" lon="0.989567">
        <ele>1785.0</ele>
        <time>2013-09-13T13:42:56Z</time>
      </trkpt>
      <trkpt lat="42.028417" lon="0.989550">
        <ele>1783.0</ele>
        <time>2013-09-13T13:42:57Z</time>
      </trkpt>
      <trkpt lat="42.028483" lon="0.989517">
        <ele>1782.0</ele>
        <time>2013-09-13T13:42:58Z</time>
      </trkpt>
      <trkpt lat="42.028567" lon="0.989500">
        <ele>1780.0</ele>
        <time>2013-09-13T13:42:59Z</time>
      </trkpt>
      <trkpt lat="42.028633" lon="0.989483">
        <ele>1779.0</ele>
        <time>2013-09-13T13:43:00Z</time>
      </trkpt>
      <trkpt lat="42.028700" lon="0.989467">
        <ele>1778.0</ele>
        <time>2013-09-13T13:43:01Z</time>
      </trkpt>
      <trkpt lat="42.028767" lon="0.989450">
        <ele>1777.0</ele>
        <time>2013-09-13T13:43:02Z</time>
      </trkpt>
      <trkpt lat="42.028833" lon="0.989450">
        <ele>1774.0</ele>
        <time>2013-09-13T13:43:03Z</time>
      </trkpt>
      <trkpt lat="42.028917" lon="0.989433">
        <ele>1772.0</ele>
        <time>2013-09-13T13:43:04Z</time>
      </trkpt>
      <trkpt lat="42.029017" lon="0.989433">
        <ele>1769.0</ele>
        <time>2013-09-13T13:43:05Z</time>
      </trkpt>
      <trkpt lat="42.029100" lon="0.989417">
        <ele>1767.0</ele>
        <time>2013-09-13T13:43:06Z</time>
      </trkpt>
      <trkpt lat="42.029167" lon="0.989417">
        <ele>1765.0</ele>
        <time>2013-09-13T13:43:07Z</time>
      </trkpt>
      <trkpt lat="42.029250" lon="0.989417">
        <ele>1763.0</ele>
        <time>2013-09-13T13:43:08Z</time>
      </trkpt>
      <trkpt lat="42.029333" lon="0.989417">
        <ele>1762.0</ele>
        <time>2013-09-13T13:43:09Z</time>
      </trkpt>
      <trkpt lat="42.029417" lon="0.989400">
        <ele>1760.0</ele>
        <time>2013-09-13T13:43:10Z</time>
      </trkpt>
      <trkpt lat="42.029500" lon="0.989400">
        <ele>1758.0</ele>
        <time>2013-09-13T13:43:11Z</time>
      </trkpt>
      <trkpt lat="42.029583" lon="0.989400">
        <ele>1756.0</ele>
        <time>2013-09-13T13:43:12Z</time>
      </trkpt>
      <trkpt lat="42.029667" lon="0.989400">
        <ele>1753.0</ele>
        <time>2013-09-13T13:43:13Z</time>
      </trkpt>
      <trkpt lat="42.029750" lon="0.989400">
        <ele>1751.0</ele>
        <time>2013-09-13T13:43:14Z</time>
      </trkpt>
      <trkpt lat="42.029833" lon="0.989383">
        <ele>1749.0</ele>
        <time>2013-09-13T13:43:15Z</time>
      </trkpt>
      <trkpt lat="42.029917" lon="0.989383">
        <ele>1748.0</ele>
        <time>2013-09-13T13:43:16Z</time>
      </trkpt>
      <trkpt lat="42.030000" lon="0.989383">
        <ele>1747.0</ele>
        <time>2013-09-13T13:43:17Z</time>
      </trkpt>
      <trkpt lat="42.030167" lon="0.989383">
        <ele>1745.0</ele>
        <time>2013-09-13T13:43:19Z</time>
      </trkpt>
      <trkpt lat="42.030250" lon="0.989400">
        <ele>1744.0</ele>
        <time>2013-09-13T13:43:20Z</time>
      </trkpt>
      <trkpt lat="42.030333" lon="0.989400">
        <ele>1743.0</ele>
        <time>2013-09-13T13:43:21Z</time>
      </trkpt>
      <trkpt lat="42.030417" lon="0.989433">
        <ele>1742.0</ele>
        <time>2013-09-13T13:43:22Z</time>
      </trkpt>
      <trkpt lat="42.030500" lon="0.989450">
        <ele>1740.0</ele>
        <time>2013-09-13T13:43:23Z</time>
      </trkpt>
      <trkpt lat="42.030583" lon="0.989483">
        <ele>1738.0</ele>
        <time>2013-09-13T13:43:24Z</time>
      </trkpt>
      <trkpt lat="42.030683" lon="0.989517">
        <ele>1736.0</ele>
        <time>2013-09-13T13:43:25Z</time>
      </trkpt>
      <trkpt lat="42.030767" lon="0.989550">
        <ele>1734.0</ele>
        <time>2013-09-13T13:43:26Z</time>
      </trkpt>
      <trkpt lat="42.030833" lon="0.989567">
        <ele>1733.0</ele>
        <time>2013-09-13T13:43:27Z</time>
      </trkpt>
      <trkpt lat="42.030900" lon="0.989583">
        <ele>1732.0</ele>
        <time>2013-09-13T13:43:28Z</time>
      </trkpt>
      <trkpt lat="42.030983" lon="0.989617">
        <ele>1730.0</ele>
        <time>2013-09-13T13:43:29Z</time>
      </trkpt>
      <trkpt lat="42.031067" lon="0.989633">
        <ele>1727.0</ele>
        <time>2013-09-13T13:43:30Z</time>
      </trkpt>
      <trkpt lat="42.031250" lon="0.989683">
        <ele>1722.0</ele>
        <time>2013-09-13T13:43:32Z</time>
      </trkpt>
      <trkpt lat="42.031333" lon="0.989700">
        <ele>1720.0</ele>
        <time>2013-09-13T13:43:33Z</time>
      </trkpt>
      <trkpt lat="42.031417" lon="0.989733">
        <ele>1718.0</ele>
        <time>2013-09-13T13:43:34Z</time>
      </trkpt>
      <trkpt lat="42.031500" lon="0.989750">
        <ele>1718.0</ele>
        <time>2013-09-13T13:43:35Z</time>
      </trkpt>
      <trkpt lat="42.031567" lon="0.989767">
        <ele>1716.0</ele>
        <time>2013-09-13T13:43:36Z</time>
      </trkpt>
      <trkpt lat="42.031833" lon="0.989817">
        <ele>1713.0</ele>
        <time>2013-09-13T13:43:39Z</time>
      </trkpt>
      <trkpt lat="42.031917" lon="0.989833">
        <ele>1712.0</ele>
        <time>2013-09-13T13:43:40Z</time>
      </trkpt>
      <trkpt lat="42.032000" lon="0.989850">
        <ele>1710.0</ele>
        <time>2013-09-13T13:43:41Z</time>
      </trkpt>
      <trkpt lat="42.032183" lon="0.989883">
        <ele>1707.0</ele>
        <time>2013-09-13T13:43:43Z</time>
      </trkpt>
      <trkpt lat="42.032267" lon="0.989900">
        <ele>1705.0</ele>
        <time>2013-09-13T13:43:44Z</time>
      </trkpt>
      <trkpt lat="42.032367" lon="0.989917">
        <ele>1703.0</ele>
        <time>2013-09-13T13:43:45Z</time>
      </trkpt>
      <trkpt lat="42.032450" lon="0.989933">
        <ele>1701.0</ele>
        <time>2013-09-13T13:43:46Z</time>
      </trkpt>
      <trkpt lat="42.032550" lon="0.989950">
        <ele>1700.0</ele>
        <time>2013-09-13T13:43:47Z</time>
      </trkpt>
      <trkpt lat="42.032650" lon="0.989967">
        <ele>1700.0</ele>
        <time>2013-09-13T13:43:48Z</time>
      </trkpt>
      <trkpt lat="42.032750" lon="0.989967">
        <ele>1698.0</ele>
        <time>2013-09-13T13:43:49Z</time>
      </trkpt>
      <trkpt lat="42.032850" lon="0.989967">
        <ele>1697.0</ele>
        <time>2013-09-13T13:43:50Z</time>
      </trkpt>
      <trkpt lat="42.032950" lon="0.989983">
        <ele>1696.0</ele>
        <time>2013-09-13T13:43:51Z</time>
      </trkpt>
      <trkpt lat="42.033050" lon="0.989983">
        <ele>1695.0</ele>
        <time>2013-09-13T13:43:52Z</time>
      </trkpt>
      <trkpt lat="42.033333" lon="0.990017">
        <ele>1695.0</ele>
        <time>2013-09-13T13:43:55Z</time>
      </trkpt>
      <trkpt lat="42.033517" lon="0.990033">
        <ele>1693.0</ele>
        <time>2013-09-13T13:43:57Z</time>
      </trkpt>
      <trkpt lat="42.033617" lon="0.990050">
        <ele>1692.0</ele>
        <time>2013-09-13T13:43:58Z</time>
      </trkpt>
      <trkpt lat="42.033700" lon="0.990083">
        <ele>1692.0</ele>
        <time>2013-09-13T13:43:59Z</time>
      </trkpt>
      <trkpt lat="42.033800" lon="0.990117">
        <ele>1691.0</ele>
        <time>2013-09-13T13:44:00Z</time>
      </trkpt>
      <trkpt lat="42.033883" lon="0.990150">
        <ele>1690.0</ele>
        <time>2013-09-13T13:44:01Z</time>
      </trkpt>
      <trkpt lat="42.033983" lon="0.990167">
        <ele>1690.0</ele>
        <time>2013-09-13T13:44:02Z</time>
      </trkpt>
      <trkpt lat="42.034067" lon="0.990200">
        <ele>1690.0</ele>
        <time>2013-09-13T13:44:03Z</time>
      </trkpt>
      <trkpt lat="42.034150" lon="0.990233">
        <ele>1689.0</ele>
        <time>2013-09-13T13:44:04Z</time>
      </trkpt>
      <trkpt lat="42.034233" lon="0.990283">
        <ele>1689.0</ele>
        <time>2013-09-13T13:44:05Z</time>
      </trkpt>
      <trkpt lat="42.034333" lon="0.990317">
        <ele>1688.0</ele>
        <time>2013-09-13T13:44:06Z</time>
      </trkpt>
      <trkpt lat="42.034433" lon="0.990367">
        <ele>1687.0</ele>
        <time>2013-09-13T13:44:07Z</time>
      </trkpt>
      <trkpt lat="42.034517" lon="0.990417">
        <ele>1686.0</ele>
        <time>2013-09-13T13:44:08Z</time>
      </trkpt>
      <trkpt lat="42.034617" lon="0.990450">
        <ele>1686.0</ele>
        <time>2013-09-13T13:44:09Z</time>
      </trkpt>
      <trkpt lat="42.034700" lon="0.990500">
        <ele>1685.0</ele>
        <time>2013-09-13T13:44:10Z</time>
      </trkpt>
      <trkpt lat="42.034783" lon="0.990533">
        <ele>1684.0</ele>
        <time>2013-09-13T13:44:11Z</time>
      </trkpt>
      <trkpt lat="42.034867" lon="0.990583">
        <ele>1683.0</ele>
        <time>2013-09-13T13:44:12Z</time>
      </trkpt>
      <trkpt lat="42.034950" lon="0.990650">
        <ele>1682.0</ele>
        <time>2013-09-13T13:44:13Z</time>
      </trkpt>
      <trkpt lat="42.035050" lon="0.990700">
        <ele>1682.0</ele>
        <time>2013-09-13T13:44:14Z</time>
      </trkpt>
      <trkpt lat="42.035133" lon="0.990750">
        <ele>1682.0</ele>
        <time>2013-09-13T13:44:15Z</time>
      </trkpt>
      <trkpt lat="42.035217" lon="0.990817">
        <ele>1681.0</ele>
        <time>2013-09-13T13:44:16Z</time>
      </trkpt>
      <trkpt lat="42.035317" lon="0.990867">
        <ele>1680.0</ele>
        <time>2013-09-13T13:44:17Z</time>
      </trkpt>
      <trkpt lat="42.035400" lon="0.990933">
        <ele>1680.0</ele>
        <time>2013-09-13T13:44:18Z</time>
      </trkpt>
      <trkpt lat="42.035500" lon="0.991000">
        <ele>1680.0</ele>
        <time>2013-09-13T13:44:19Z</time>
      </trkpt>
      <trkpt lat="42.035567" lon="0.991067">
        <ele>1681.0</ele>
        <time>2013-09-13T13:44:20Z</time>
      </trkpt>
      <trkpt lat="42.035650" lon="0.991133">
        <ele>1682.0</ele>
        <time>2013-09-13T13:44:21Z</time>
      </trkpt>
      <trkpt lat="42.035733" lon="0.991200">
        <ele>1681.0</ele>
        <time>2013-09-13T13:44:22Z</time>
      </trkpt>
      <trkpt lat="42.035817" lon="0.991250">
        <ele>1679.0</ele>
        <time>2013-09-13T13:44:23Z</time>
      </trkpt>
      <trkpt lat="42.035900" lon="0.991317">
        <ele>1677.0</ele>
        <time>2013-09-13T13:44:24Z</time>
      </trkpt>
      <trkpt lat="42.035967" lon="0.991383">
        <ele>1676.0</ele>
        <time>2013-09-13T13:44:25Z</time>
      </trkpt>
      <trkpt lat="42.036033" lon="0.991467">
        <ele>1675.0</ele>
        <time>2013-09-13T13:44:26Z</time>
      </trkpt>
      <trkpt lat="42.036083" lon="0.991533">
        <ele>1674.0</ele>
        <time>2013-09-13T13:44:27Z</time>
      </trkpt>
      <trkpt lat="42.036150" lon="0.991583">
        <ele>1672.0</ele>
        <time>2013-09-13T13:44:28Z</time>
      </trkpt>
      <trkpt lat="42.036233" lon="0.991650">
        <ele>1670.0</ele>
        <time>2013-09-13T13:44:29Z</time>
      </trkpt>
      <trkpt lat="42.036333" lon="0.991717">
        <ele>1667.0</ele>
        <time>2013-09-13T13:44:30Z</time>
      </trkpt>
      <trkpt lat="42.036417" lon="0.991800">
        <ele>1665.0</ele>
        <time>2013-09-13T13:44:31Z</time>
      </trkpt>
      <trkpt lat="42.036500" lon="0.991867">
        <ele>1663.0</ele>
        <time>2013-09-13T13:44:32Z</time>
      </trkpt>
      <trkpt lat="42.036550" lon="0.991933">
        <ele>1662.0</ele>
        <time>2013-09-13T13:44:33Z</time>
      </trkpt>
      <trkpt lat="42.036600" lon="0.992000">
        <ele>1662.0</ele>
        <time>2013-09-13T13:44:34Z</time>
      </trkpt>
      <trkpt lat="42.036650" lon="0.992067">
        <ele>1660.0</ele>
        <time>2013-09-13T13:44:35Z</time>
      </trkpt>
      <trkpt lat="42.036717" lon="0.992150">
        <ele>1658.0</ele>
        <time>2013-09-13T13:44:36Z</time>
      </trkpt>
      <trkpt lat="42.036783" lon="0.992233">
        <ele>1655.0</ele>
        <time>2013-09-13T13:44:37Z</time>
      </trkpt>
      <trkpt lat="42.036867" lon="0.992333">
        <ele>1652.0</ele>
        <time>2013-09-13T13:44:38Z</time>
      </trkpt>
      <trkpt lat="42.036933" lon="0.992417">
        <ele>1650.0</ele>
        <time>2013-09-13T13:44:39Z</time>
      </trkpt>
      <trkpt lat="42.037000" lon="0.992500">
        <ele>1649.0</ele>
        <time>2013-09-13T13:44:40Z</time>
      </trkpt>
      <trkpt lat="42.037067" lon="0.992600">
        <ele>1647.0</ele>
        <time>2013-09-13T13:44:41Z</time>
      </trkpt>
      <trkpt lat="42.037117" lon="0.992667">
        <ele>1646.0</ele>
        <time>2013-09-13T13:44:42Z</time>
      </trkpt>
      <trkpt lat="42.037183" lon="0.992750">
        <ele>1644.0</ele>
        <time>2013-09-13T13:44:43Z</time>
      </trkpt>
      <trkpt lat="42.037267" lon="0.992817">
        <ele>1642.0</ele>
        <time>2013-09-13T13:44:44Z</time>
      </trkpt>
      <trkpt lat="42.037350" lon="0.992883">
        <ele>1639.0</ele>
        <time>2013-09-13T13:44:45Z</time>
      </trkpt>
      <trkpt lat="42.037433" lon="0.992967">
        <ele>1637.0</ele>
        <time>2013-09-13T13:44:46Z</time>
      </trkpt>
      <trkpt lat="42.037500" lon="0.993017">
        <ele>1636.0</ele>
        <time>2013-09-13T13:44:47Z</time>
      </trkpt>
      <trkpt lat="42.037567" lon="0.993083">
        <ele>1636.0</ele>
        <time>2013-09-13T13:44:48Z</time>
      </trkpt>
      <trkpt lat="42.037633" lon="0.993133">
        <ele>1636.0</ele>
        <time>2013-09-13T13:44:49Z</time>
      </trkpt>
      <trkpt lat="42.037700" lon="0.993183">
        <ele>1635.0</ele>
        <time>2013-09-13T13:44:50Z</time>
      </trkpt>
      <trkpt lat="42.037767" lon="0.993250">
        <ele>1634.0</ele>
        <time>2013-09-13T13:44:51Z</time>
      </trkpt>
      <trkpt lat="42.037850" lon="0.993300">
        <ele>1633.0</ele>
        <time>2013-09-13T13:44:52Z</time>
      </trkpt>
      <trkpt lat="42.037933" lon="0.993367">
        <ele>1632.0</ele>
        <time>2013-09-13T13:44:53Z</time>
      </trkpt>
      <trkpt lat="42.038017" lon="0.993433">
        <ele>1631.0</ele>
        <time>2013-09-13T13:44:54Z</time>
      </trkpt>
      <trkpt lat="42.038083" lon="0.993500">
        <ele>1630.0</ele>
        <time>2013-09-13T13:44:55Z</time>
      </trkpt>
      <trkpt lat="42.038167" lon="0.993567">
        <ele>1630.0</ele>
        <time>2013-09-13T13:44:56Z</time>
      </trkpt>
      <trkpt lat="42.038250" lon="0.993633">
        <ele>1629.0</ele>
        <time>2013-09-13T13:44:57Z</time>
      </trkpt>
      <trkpt lat="42.038333" lon="0.993700">
        <ele>1629.0</ele>
        <time>2013-09-13T13:44:58Z</time>
      </trkpt>
      <trkpt lat="42.038417" lon="0.993750">
        <ele>1629.0</ele>
        <time>2013-09-13T13:44:59Z</time>
      </trkpt>
      <trkpt lat="42.038483" lon="0.993800">
        <ele>1629.0</ele>
        <time>2013-09-13T13:45:00Z</time>
      </trkpt>
      <trkpt lat="42.038550" lon="0.993867">
        <ele>1630.0</ele>
        <time>2013-09-13T13:45:01Z</time>
      </trkpt>
      <trkpt lat="42.038633" lon="0.993917">
        <ele>1631.0</ele>
        <time>2013-09-13T13:45:02Z</time>
      </trkpt>
      <trkpt lat="42.038700" lon="0.993983">
        <ele>1631.0</ele>
        <time>2013-09-13T13:45:03Z</time>
      </trkpt>
      <trkpt lat="42.038783" lon="0.994033">
        <ele>1632.0</ele>
        <time>2013-09-13T13:45:04Z</time>
      </trkpt>
      <trkpt lat="42.038867" lon="0.994067">
        <ele>1633.0</ele>
        <time>2013-09-13T13:45:05Z</time>
      </trkpt>
      <trkpt lat="42.038950" lon="0.994117">
        <ele>1634.0</ele>
        <time>2013-09-13T13:45:06Z</time>
      </trkpt>
      <trkpt lat="42.039033" lon="0.994167">
        <ele>1636.0</ele>
        <time>2013-09-13T13:45:07Z</time>
      </trkpt>
      <trkpt lat="42.039117" lon="0.994217">
        <ele>1637.0</ele>
        <time>2013-09-13T13:45:08Z</time>
      </trkpt>
      <trkpt lat="42.039200" lon="0.994300">
        <ele>1638.0</ele>
        <time>2013-09-13T13:45:09Z</time>
      </trkpt>
      <trkpt lat="42.039283" lon="0.994367">
        <ele>1640.0</ele>
        <time>2013-09-13T13:45:10Z</time>
      </trkpt>
      <trkpt lat="42.039350" lon="0.994450">
        <ele>1642.0</ele>
        <time>2013-09-13T13:45:11Z</time>
      </trkpt>
      <trkpt lat="42.039417" lon="0.994517">
        <ele>1645.0</ele>
        <time>2013-09-13T13:45:12Z</time>
      </trkpt>
      <trkpt lat="42.039500" lon="0.994583">
        <ele>1647.0</ele>
        <time>2013-09-13T13:45:13Z</time>
      </trkpt>
      <trkpt lat="42.039583" lon="0.994667">
        <ele>1649.0</ele>
        <time>2013-09-13T13:45:14Z</time>
      </trkpt>
      <trkpt lat="42.039667" lon="0.994750">
        <ele>1650.0</ele>
        <time>2013-09-13T13:45:15Z</time>
      </trkpt>
      <trkpt lat="42.039733" lon="0.994850">
        <ele>1652.0</ele>
        <time>2013-09-13T13:45:16Z</time>
      </trkpt>
      <trkpt lat="42.039800" lon="0.994950">
        <ele>1654.0</ele>
        <time>2013-09-13T13:45:17Z</time>
      </trkpt>
      <trkpt lat="42.039867" lon="0.995067">
        <ele>1655.0</ele>
        <time>2013-09-13T13:45:18Z</time>
      </trkpt>
      <trkpt lat="42.039917" lon="0.995200">
        <ele>1657.0</ele>
        <time>2013-09-13T13:45:19Z</time>
      </trkpt>
      <trkpt lat="42.039983" lon="0.995333">
        <ele>1658.0</ele>
        <time>2013-09-13T13:45:20Z</time>
      </trkpt>
      <trkpt lat="42.040017" lon="0.995467">
        <ele>1660.0</ele>
        <time>2013-09-13T13:45:21Z</time>
      </trkpt>
      <trkpt lat="42.040050" lon="0.995600">
        <ele>1662.0</ele>
        <time>2013-09-13T13:45:22Z</time>
      </trkpt>
      <trkpt lat="42.040067" lon="0.995750">
        <ele>1663.0</ele>
        <time>2013-09-13T13:45:23Z</time>
      </trkpt>
      <trkpt lat="42.040050" lon="0.995900">
        <ele>1664.0</ele>
        <time>2013-09-13T13:45:24Z</time>
      </trkpt>
      <trkpt lat="42.040017" lon="0.996050">
        <ele>1666.0</ele>
        <time>2013-09-13T13:45:25Z</time>
      </trkpt>
      <trkpt lat="42.039967" lon="0.996200">
        <ele>1668.0</ele>
        <time>2013-09-13T13:45:26Z</time>
      </trkpt>
      <trkpt lat="42.039900" lon="0.996317">
        <ele>1670.0</ele>
        <time>2013-09-13T13:45:27Z</time>
      </trkpt>
      <trkpt lat="42.039833" lon="0.996400">
        <ele>1673.0</ele>
        <time>2013-09-13T13:45:28Z</time>
      </trkpt>
      <trkpt lat="42.039767" lon="0.996483">
        <ele>1676.0</ele>
        <time>2013-09-13T13:45:29Z</time>
      </trkpt>
      <trkpt lat="42.039683" lon="0.996550">
        <ele>1677.0</ele>
        <time>2013-09-13T13:45:30Z</time>
      </trkpt>
      <trkpt lat="42.039600" lon="0.996617">
        <ele>1678.0</ele>
        <time>2013-09-13T13:45:31Z</time>
      </trkpt>
      <trkpt lat="42.039500" lon="0.996633">
        <ele>1679.0</ele>
        <time>2013-09-13T13:45:32Z</time>
      </trkpt>
      <trkpt lat="42.039417" lon="0.996633">
        <ele>1681.0</ele>
        <time>2013-09-13T13:45:33Z</time>
      </trkpt>
      <trkpt lat="42.039350" lon="0.996617">
        <ele>1682.0</ele>
        <time>2013-09-13T13:45:34Z</time>
      </trkpt>
      <trkpt lat="42.039300" lon="0.996567">
        <ele>1683.0</ele>
        <time>2013-09-13T13:45:35Z</time>
      </trkpt>
      <trkpt lat="42.039267" lon="0.996517">
        <ele>1683.0</ele>
        <time>2013-09-13T13:45:36Z</time>
      </trkpt>
      <trkpt lat="42.039233" lon="0.996433">
        <ele>1683.0</ele>
        <time>2013-09-13T13:45:37Z</time>
      </trkpt>
      <trkpt lat="42.039200" lon="0.996367">
        <ele>1684.0</ele>
        <time>2013-09-13T13:45:38Z</time>
      </trkpt>
      <trkpt lat="42.039183" lon="0.996283">
        <ele>1685.0</ele>
        <time>2013-09-13T13:45:39Z</time>
      </trkpt>
      <trkpt lat="42.039167" lon="0.996217">
        <ele>1686.0</ele>
        <time>2013-09-13T13:45:40Z</time>
      </trkpt>
      <trkpt lat="42.039167" lon="0.996133">
        <ele>1688.0</ele>
        <time>2013-09-13T13:45:41Z</time>
      </trkpt>
      <trkpt lat="42.039200" lon="0.996067">
        <ele>1690.0</ele>
        <time>2013-09-13T13:45:42Z</time>
      </trkpt>
      <trkpt lat="42.039233" lon="0.996000">
        <ele>1692.0</ele>
        <time>2013-09-13T13:45:43Z</time>
      </trkpt>
      <trkpt lat="42.039267" lon="0.995933">
        <ele>1692.0</ele>
        <time>2013-09-13T13:45:44Z</time>
      </trkpt>
      <trkpt lat="42.039317" lon="0.995867">
        <ele>1692.0</ele>
        <time>2013-09-13T13:45:45Z</time>
      </trkpt>
      <trkpt lat="42.039367" lon="0.995800">
        <ele>1692.0</ele>
        <time>2013-09-13T13:45:46Z</time>
      </trkpt>
      <trkpt lat="42.039433" lon="0.995767">
        <ele>1692.0</ele>
        <time>2013-09-13T13:45:47Z</time>
      </trkpt>
      <trkpt lat="42.039500" lon="0.995733">
        <ele>1692.0</ele>
        <time>2013-09-13T13:45:48Z</time>
      </trkpt>
      <trkpt lat="42.039583" lon="0.995717">
        <ele>1691.0</ele>
        <time>2013-09-13T13:45:49Z</time>
      </trkpt>
      <trkpt lat="42.039667" lon="0.995717">
        <ele>1691.0</ele>
        <time>2013-09-13T13:45:50Z</time>
      </trkpt>
      <trkpt lat="42.039750" lon="0.995700">
        <ele>1690.0</ele>
        <time>2013-09-13T13:45:51Z</time>
      </trkpt>
      <trkpt lat="42.039833" lon="0.995717">
        <ele>1690.0</ele>
        <time>2013-09-13T13:45:52Z</time>
      </trkpt>
      <trkpt lat="42.039900" lon="0.995717">
        <ele>1690.0</ele>
        <time>2013-09-13T13:45:53Z</time>
      </trkpt>
      <trkpt lat="42.040000" lon="0.995733">
        <ele>1690.0</ele>
        <time>2013-09-13T13:45:54Z</time>
      </trkpt>
      <trkpt lat="42.040100" lon="0.995767">
        <ele>1689.0</ele>
        <time>2013-09-13T13:45:55Z</time>
      </trkpt>
      <trkpt lat="42.040200" lon="0.995800">
        <ele>1688.0</ele>
        <time>2013-09-13T13:45:56Z</time>
      </trkpt>
      <trkpt lat="42.040300" lon="0.995867">
        <ele>1688.0</ele>
        <time>2013-09-13T13:45:57Z</time>
      </trkpt>
      <trkpt lat="42.040400" lon="0.995933">
        <ele>1689.0</ele>
        <time>2013-09-13T13:45:58Z</time>
      </trkpt>
      <trkpt lat="42.040483" lon="0.995983">
        <ele>1690.0</ele>
        <time>2013-09-13T13:45:59Z</time>
      </trkpt>
      <trkpt lat="42.040550" lon="0.996033">
        <ele>1692.0</ele>
        <time>2013-09-13T13:46:00Z</time>
      </trkpt>
      <trkpt lat="42.040617" lon="0.996100">
        <ele>1692.0</ele>
        <time>2013-09-13T13:46:01Z</time>
      </trkpt>
      <trkpt lat="42.040700" lon="0.996183">
        <ele>1692.0</ele>
        <time>2013-09-13T13:46:02Z</time>
      </trkpt>
      <trkpt lat="42.040783" lon="0.996283">
        <ele>1693.0</ele>
        <time>2013-09-13T13:46:03Z</time>
      </trkpt>
      <trkpt lat="42.040833" lon="0.996417">
        <ele>1693.0</ele>
        <time>2013-09-13T13:46:04Z</time>
      </trkpt>
      <trkpt lat="42.040883" lon="0.996550">
        <ele>1694.0</ele>
        <time>2013-09-13T13:46:05Z</time>
      </trkpt>
      <trkpt lat="42.040900" lon="0.996683">
        <ele>1695.0</ele>
        <time>2013-09-13T13:46:06Z</time>
      </trkpt>
      <trkpt lat="42.040900" lon="0.996817">
        <ele>1697.0</ele>
        <time>2013-09-13T13:46:07Z</time>
      </trkpt>
      <trkpt lat="42.040867" lon="0.996950">
        <ele>1699.0</ele>
        <time>2013-09-13T13:46:08Z</time>
      </trkpt>
      <trkpt lat="42.040817" lon="0.997050">
        <ele>1701.0</ele>
        <time>2013-09-13T13:46:09Z</time>
      </trkpt>
      <trkpt lat="42.040750" lon="0.997150">
        <ele>1704.0</ele>
        <time>2013-09-13T13:46:10Z</time>
      </trkpt>
      <trkpt lat="42.040683" lon="0.997217">
        <ele>1707.0</ele>
        <time>2013-09-13T13:46:11Z</time>
      </trkpt>
      <trkpt lat="42.040583" lon="0.997267">
        <ele>1709.0</ele>
        <time>2013-09-13T13:46:12Z</time>
      </trkpt>
      <trkpt lat="42.040500" lon="0.997300">
        <ele>1711.0</ele>
        <time>2013-09-13T13:46:13Z</time>
      </trkpt>
      <trkpt lat="42.040417" lon="0.997300">
        <ele>1713.0</ele>
        <time>2013-09-13T13:46:14Z</time>
      </trkpt>
      <trkpt lat="42.040333" lon="0.997283">
        <ele>1716.0</ele>
        <time>2013-09-13T13:46:15Z</time>
      </trkpt>
      <trkpt lat="42.040267" lon="0.997250">
        <ele>1719.0</ele>
        <time>2013-09-13T13:46:16Z</time>
      </trkpt>
      <trkpt lat="42.040217" lon="0.997200">
        <ele>1722.0</ele>
        <time>2013-09-13T13:46:17Z</time>
      </trkpt>
      <trkpt lat="42.040167" lon="0.997133">
        <ele>1724.0</ele>
        <time>2013-09-13T13:46:18Z</time>
      </trkpt>
      <trkpt lat="42.040133" lon="0.997050">
        <ele>1725.0</ele>
        <time>2013-09-13T13:46:19Z</time>
      </trkpt>
      <trkpt lat="42.040133" lon="0.996983">
        <ele>1727.0</ele>
        <time>2013-09-13T13:46:20Z</time>
      </trkpt>
      <trkpt lat="42.040167" lon="0.996917">
        <ele>1728.0</ele>
        <time>2013-09-13T13:46:21Z</time>
      </trkpt>
      <trkpt lat="42.040217" lon="0.996850">
        <ele>1729.0</ele>
        <time>2013-09-13T13:46:22Z</time>
      </trkpt>
      <trkpt lat="42.040283" lon="0.996800">
        <ele>1730.0</ele>
        <time>2013-09-13T13:46:23Z</time>
      </trkpt>
      <trkpt lat="42.040367" lon="0.996783">
        <ele>1731.0</ele>
        <time>2013-09-13T13:46:24Z</time>
      </trkpt>
      <trkpt lat="42.040450" lon="0.996767">
        <ele>1731.0</ele>
        <time>2013-09-13T13:46:25Z</time>
      </trkpt>
      <trkpt lat="42.040533" lon="0.996767">
        <ele>1732.0</ele>
        <time>2013-09-13T13:46:26Z</time>
      </trkpt>
      <trkpt lat="42.040633" lon="0.996800">
        <ele>1732.0</ele>
        <time>2013-09-13T13:46:27Z</time>
      </trkpt>
      <trkpt lat="42.040717" lon="0.996867">
        <ele>1733.0</ele>
        <time>2013-09-13T13:46:28Z</time>
      </trkpt>
      <trkpt lat="42.040783" lon="0.996950">
        <ele>1734.0</ele>
        <time>2013-09-13T13:46:29Z</time>
      </trkpt>
      <trkpt lat="42.040850" lon="0.997067">
        <ele>1734.0</ele>
        <time>2013-09-13T13:46:30Z</time>
      </trkpt>
      <trkpt lat="42.040917" lon="0.997183">
        <ele>1734.0</ele>
        <time>2013-09-13T13:46:31Z</time>
      </trkpt>
      <trkpt lat="42.040983" lon="0.997333">
        <ele>1735.0</ele>
        <time>2013-09-13T13:46:32Z</time>
      </trkpt>
      <trkpt lat="42.041017" lon="0.997483">
        <ele>1736.0</ele>
        <time>2013-09-13T13:46:33Z</time>
      </trkpt>
      <trkpt lat="42.041033" lon="0.997617">
        <ele>1737.0</ele>
        <time>2013-09-13T13:46:34Z</time>
      </trkpt>
      <trkpt lat="42.041017" lon="0.997767">
        <ele>1738.0</ele>
        <time>2013-09-13T13:46:35Z</time>
      </trkpt>
      <trkpt lat="42.041000" lon="0.997917">
        <ele>1740.0</ele>
        <time>2013-09-13T13:46:36Z</time>
      </trkpt>
      <trkpt lat="42.040950" lon="0.998050">
        <ele>1741.0</ele>
        <time>2013-09-13T13:46:37Z</time>
      </trkpt>
      <trkpt lat="42.040883" lon="0.998167">
        <ele>1743.0</ele>
        <time>2013-09-13T13:46:38Z</time>
      </trkpt>
      <trkpt lat="42.040817" lon="0.998267">
        <ele>1745.0</ele>
        <time>2013-09-13T13:46:39Z</time>
      </trkpt>
      <trkpt lat="42.040733" lon="0.998350">
        <ele>1747.0</ele>
        <time>2013-09-13T13:46:40Z</time>
      </trkpt>
      <trkpt lat="42.040650" lon="0.998400">
        <ele>1748.0</ele>
        <time>2013-09-13T13:46:41Z</time>
      </trkpt>
      <trkpt lat="42.040567" lon="0.998433">
        <ele>1750.0</ele>
        <time>2013-09-13T13:46:42Z</time>
      </trkpt>
      <trkpt lat="42.040483" lon="0.998433">
        <ele>1751.0</ele>
        <time>2013-09-13T13:46:43Z</time>
      </trkpt>
      <trkpt lat="42.040400" lon="0.998433">
        <ele>1753.0</ele>
        <time>2013-09-13T13:46:44Z</time>
      </trkpt>
      <trkpt lat="42.040317" lon="0.998417">
        <ele>1754.0</ele>
        <time>2013-09-13T13:46:45Z</time>
      </trkpt>
      <trkpt lat="42.040250" lon="0.998367">
        <ele>1756.0</ele>
        <time>2013-09-13T13:46:46Z</time>
      </trkpt>
      <trkpt lat="42.040200" lon="0.998317">
        <ele>1757.0</ele>
        <time>2013-09-13T13:46:47Z</time>
      </trkpt>
      <trkpt lat="42.040133" lon="0.998250">
        <ele>1758.0</ele>
        <time>2013-09-13T13:46:48Z</time>
      </trkpt>
      <trkpt lat="42.040100" lon="0.998183">
        <ele>1760.0</ele>
        <time>2013-09-13T13:46:49Z</time>
      </trkpt>
      <trkpt lat="42.040067" lon="0.998117">
        <ele>1762.0</ele>
        <time>2013-09-13T13:46:50Z</time>
      </trkpt>
      <trkpt lat="42.040067" lon="0.998050">
        <ele>1764.0</ele>
        <time>2013-09-13T13:46:51Z</time>
      </trkpt>
      <trkpt lat="42.040083" lon="0.997983">
        <ele>1764.0</ele>
        <time>2013-09-13T13:46:52Z</time>
      </trkpt>
      <trkpt lat="42.040083" lon="0.997900">
        <ele>1765.0</ele>
        <time>2013-09-13T13:46:53Z</time>
      </trkpt>
      <trkpt lat="42.040100" lon="0.997817">
        <ele>1766.0</ele>
        <time>2013-09-13T13:46:54Z</time>
      </trkpt>
      <trkpt lat="42.040117" lon="0.997750">
        <ele>1767.0</ele>
        <time>2013-09-13T13:46:55Z</time>
      </trkpt>
      <trkpt lat="42.040150" lon="0.997700">
        <ele>1768.0</ele>
        <time>2013-09-13T13:46:56Z</time>
      </trkpt>
      <trkpt lat="42.040200" lon="0.997633">
        <ele>1768.0</ele>
        <time>2013-09-13T13:46:57Z</time>
      </trkpt>
      <trkpt lat="42.040267" lon="0.997583">
        <ele>1768.0</ele>
        <time>2013-09-13T13:46:58Z</time>
      </trkpt>
      <trkpt lat="42.040350" lon="0.997533">
        <ele>1767.0</ele>
        <time>2013-09-13T13:46:59Z</time>
      </trkpt>
      <trkpt lat="42.040433" lon="0.997500">
        <ele>1767.0</ele>
        <time>2013-09-13T13:47:00Z</time>
      </trkpt>
      <trkpt lat="42.040500" lon="0.997483">
        <ele>1769.0</ele>
        <time>2013-09-13T13:47:01Z</time>
      </trkpt>
      <trkpt lat="42.040550" lon="0.997450">
        <ele>1771.0</ele>
        <time>2013-09-13T13:47:02Z</time>
      </trkpt>
      <trkpt lat="42.040633" lon="0.997433">
        <ele>1773.0</ele>
        <time>2013-09-13T13:47:03Z</time>
      </trkpt>
      <trkpt lat="42.040717" lon="0.997433">
        <ele>1774.0</ele>
        <time>2013-09-13T13:47:04Z</time>
      </trkpt>
      <trkpt lat="42.040817" lon="0.997450">
        <ele>1776.0</ele>
        <time>2013-09-13T13:47:05Z</time>
      </trkpt>
      <trkpt lat="42.040917" lon="0.997467">
        <ele>1777.0</ele>
        <time>2013-09-13T13:47:06Z</time>
      </trkpt>
      <trkpt lat="42.041000" lon="0.997517">
        <ele>1779.0</ele>
        <time>2013-09-13T13:47:07Z</time>
      </trkpt>
      <trkpt lat="42.041083" lon="0.997567">
        <ele>1781.0</ele>
        <time>2013-09-13T13:47:08Z</time>
      </trkpt>
      <trkpt lat="42.041150" lon="0.997650">
        <ele>1782.0</ele>
        <time>2013-09-13T13:47:09Z</time>
      </trkpt>
      <trkpt lat="42.041217" lon="0.997767">
        <ele>1783.0</ele>
        <time>2013-09-13T13:47:10Z</time>
      </trkpt>
      <trkpt lat="42.041283" lon="0.997883">
        <ele>1784.0</ele>
        <time>2013-09-13T13:47:11Z</time>
      </trkpt>
      <trkpt lat="42.041333" lon="0.998000">
        <ele>1786.0</ele>
        <time>2013-09-13T13:47:12Z</time>
      </trkpt>
      <trkpt lat="42.041350" lon="0.998100">
        <ele>1788.0</ele>
        <time>2013-09-13T13:47:13Z</time>
      </trkpt>
      <trkpt lat="42.041383" lon="0.998217">
        <ele>1790.0</ele>
        <time>2013-09-13T13:47:14Z</time>
      </trkpt>
      <trkpt lat="42.041400" lon="0.998333">
        <ele>1792.0</ele>
        <time>2013-09-13T13:47:15Z</time>
      </trkpt>
      <trkpt lat="42.041433" lon="0.998483">
        <ele>1794.0</ele>
        <time>2013-09-13T13:47:16Z</time>
      </trkpt>
      <trkpt lat="42.041433" lon="0.998617">
        <ele>1795.0</ele>
        <time>2013-09-13T13:47:17Z</time>
      </trkpt>
      <trkpt lat="42.041433" lon="0.998767">
        <ele>1797.0</ele>
        <time>2013-09-13T13:47:18Z</time>
      </trkpt>
      <trkpt lat="42.041417" lon="0.998883">
        <ele>1799.0</ele>
        <time>2013-09-13T13:47:19Z</time>
      </trkpt>
      <trkpt lat="42.041400" lon="0.999017">
        <ele>1801.0</ele>
        <time>2013-09-13T13:47:20Z</time>
      </trkpt>
      <trkpt lat="42.041350" lon="0.999300">
        <ele>1804.0</ele>
        <time>2013-09-13T13:47:22Z</time>
      </trkpt>
      <trkpt lat="42.041283" lon="0.999450">
        <ele>1807.0</ele>
        <time>2013-09-13T13:47:23Z</time>
      </trkpt>
      <trkpt lat="42.041217" lon="0.999567">
        <ele>1811.0</ele>
        <time>2013-09-13T13:47:24Z</time>
      </trkpt>
      <trkpt lat="42.041150" lon="0.999650">
        <ele>1815.0</ele>
        <time>2013-09-13T13:47:25Z</time>
      </trkpt>
      <trkpt lat="42.041083" lon="0.999717">
        <ele>1819.0</ele>
        <time>2013-09-13T13:47:26Z</time>
      </trkpt>
      <trkpt lat="42.041000" lon="0.999733">
        <ele>1821.0</ele>
        <time>2013-09-13T13:47:27Z</time>
      </trkpt>
      <trkpt lat="42.040917" lon="0.999750">
        <ele>1823.0</ele>
        <time>2013-09-13T13:47:28Z</time>
      </trkpt>
      <trkpt lat="42.040833" lon="0.999750">
        <ele>1824.0</ele>
        <time>2013-09-13T13:47:29Z</time>
      </trkpt>
      <trkpt lat="42.040750" lon="0.999717">
        <ele>1824.0</ele>
        <time>2013-09-13T13:47:30Z</time>
      </trkpt>
      <trkpt lat="42.040683" lon="0.999667">
        <ele>1823.0</ele>
        <time>2013-09-13T13:47:31Z</time>
      </trkpt>
      <trkpt lat="42.040633" lon="0.999617">
        <ele>1824.0</ele>
        <time>2013-09-13T13:47:32Z</time>
      </trkpt>
      <trkpt lat="42.040600" lon="0.999533">
        <ele>1824.0</ele>
        <time>2013-09-13T13:47:33Z</time>
      </trkpt>
      <trkpt lat="42.040600" lon="0.999450">
        <ele>1824.0</ele>
        <time>2013-09-13T13:47:34Z</time>
      </trkpt>
      <trkpt lat="42.040583" lon="0.999350">
        <ele>1825.0</ele>
        <time>2013-09-13T13:47:35Z</time>
      </trkpt>
      <trkpt lat="42.040583" lon="0.999267">
        <ele>1827.0</ele>
        <time>2013-09-13T13:47:36Z</time>
      </trkpt>
      <trkpt lat="42.040600" lon="0.999183">
        <ele>1829.0</ele>
        <time>2013-09-13T13:47:37Z</time>
      </trkpt>
      <trkpt lat="42.040633" lon="0.999117">
        <ele>1830.0</ele>
        <time>2013-09-13T13:47:38Z</time>
      </trkpt>
      <trkpt lat="42.040800" lon="0.998933">
        <ele>1834.0</ele>
        <time>2013-09-13T13:47:41Z</time>
      </trkpt>
      <trkpt lat="42.040867" lon="0.998883">
        <ele>1837.0</ele>
        <time>2013-09-13T13:47:42Z</time>
      </trkpt>
      <trkpt lat="42.040933" lon="0.998833">
        <ele>1839.0</ele>
        <time>2013-09-13T13:47:43Z</time>
      </trkpt>
      <trkpt lat="42.041000" lon="0.998800">
        <ele>1841.0</ele>
        <time>2013-09-13T13:47:44Z</time>
      </trkpt>
      <trkpt lat="42.041083" lon="0.998767">
        <ele>1842.0</ele>
        <time>2013-09-13T13:47:45Z</time>
      </trkpt>
      <trkpt lat="42.041167" lon="0.998767">
        <ele>1844.0</ele>
        <time>2013-09-13T13:47:46Z</time>
      </trkpt>
      <trkpt lat="42.041250" lon="0.998767">
        <ele>1846.0</ele>
        <time>2013-09-13T13:47:47Z</time>
      </trkpt>
      <trkpt lat="42.041333" lon="0.998800">
        <ele>1847.0</ele>
        <time>2013-09-13T13:47:48Z</time>
      </trkpt>
      <trkpt lat="42.041433" lon="0.998850">
        <ele>1848.0</ele>
        <time>2013-09-13T13:47:49Z</time>
      </trkpt>
      <trkpt lat="42.041517" lon="0.998917">
        <ele>1848.0</ele>
        <time>2013-09-13T13:47:50Z</time>
      </trkpt>
      <trkpt lat="42.041583" lon="0.999000">
        <ele>1848.0</ele>
        <time>2013-09-13T13:47:51Z</time>
      </trkpt>
      <trkpt lat="42.041650" lon="0.999100">
        <ele>1849.0</ele>
        <time>2013-09-13T13:47:52Z</time>
      </trkpt>
      <trkpt lat="42.041717" lon="0.999200">
        <ele>1850.0</ele>
        <time>2013-09-13T13:47:53Z</time>
      </trkpt>
      <trkpt lat="42.041750" lon="0.999300">
        <ele>1851.0</ele>
        <time>2013-09-13T13:47:54Z</time>
      </trkpt>
      <trkpt lat="42.041767" lon="0.999417">
        <ele>1853.0</ele>
        <time>2013-09-13T13:47:55Z</time>
      </trkpt>
      <trkpt lat="42.041800" lon="0.999550">
        <ele>1854.0</ele>
        <time>2013-09-13T13:47:56Z</time>
      </trkpt>
      <trkpt lat="42.041817" lon="0.999700">
        <ele>1855.0</ele>
        <time>2013-09-13T13:47:57Z</time>
      </trkpt>
      <trkpt lat="42.041833" lon="0.999983">
        <ele>1858.0</ele>
        <time>2013-09-13T13:47:59Z</time>
      </trkpt>
      <trkpt lat="42.041800" lon="1.000117">
        <ele>1860.0</ele>
        <time>2013-09-13T13:48:00Z</time>
      </trkpt>
      <trkpt lat="42.041750" lon="1.000233">
        <ele>1862.0</ele>
        <time>2013-09-13T13:48:01Z</time>
      </trkpt>
      <trkpt lat="42.041667" lon="1.000350">
        <ele>1864.0</ele>
        <time>2013-09-13T13:48:02Z</time>
      </trkpt>
      <trkpt lat="42.041600" lon="1.000450">
        <ele>1865.0</ele>
        <time>2013-09-13T13:48:03Z</time>
      </trkpt>
      <trkpt lat="42.041517" lon="1.000517">
        <ele>1867.0</ele>
        <time>2013-09-13T13:48:04Z</time>
      </trkpt>
      <trkpt lat="42.041433" lon="1.000550">
        <ele>1870.0</ele>
        <time>2013-09-13T13:48:05Z</time>
      </trkpt>
      <trkpt lat="42.041367" lon="1.000567">
        <ele>1872.0</ele>
        <time>2013-09-13T13:48:06Z</time>
      </trkpt>
      <trkpt lat="42.041300" lon="1.000550">
        <ele>1873.0</ele>
        <time>2013-09-13T13:48:07Z</time>
      </trkpt>
      <trkpt lat="42.041250" lon="1.000517">
        <ele>1874.0</ele>
        <time>2013-09-13T13:48:08Z</time>
      </trkpt>
      <trkpt lat="42.041183" lon="1.000483">
        <ele>1874.0</ele>
        <time>2013-09-13T13:48:09Z</time>
      </trkpt>
      <trkpt lat="42.041133" lon="1.000417">
        <ele>1873.0</ele>
        <time>2013-09-13T13:48:10Z</time>
      </trkpt>
      <trkpt lat="42.041083" lon="1.000333">
        <ele>1874.0</ele>
        <time>2013-09-13T13:48:11Z</time>
      </trkpt>
      <trkpt lat="42.041033" lon="1.000250">
        <ele>1875.0</ele>
        <time>2013-09-13T13:48:12Z</time>
      </trkpt>
      <trkpt lat="42.041017" lon="1.000167">
        <ele>1877.0</ele>
        <time>2013-09-13T13:48:13Z</time>
      </trkpt>
      <trkpt lat="42.041000" lon="1.000100">
        <ele>1881.0</ele>
        <time>2013-09-13T13:48:14Z</time>
      </trkpt>
      <trkpt lat="42.040983" lon="1.000033">
        <ele>1884.0</ele>
        <time>2013-09-13T13:48:15Z</time>
      </trkpt>
      <trkpt lat="42.040983" lon="0.999967">
        <ele>1886.0</ele>
        <time>2013-09-13T13:48:16Z</time>
      </trkpt>
      <trkpt lat="42.041000" lon="0.999900">
        <ele>1887.0</ele>
        <time>2013-09-13T13:48:17Z</time>
      </trkpt>
      <trkpt lat="42.041050" lon="0.999833">
        <ele>1888.0</ele>
        <time>2013-09-13T13:48:18Z</time>
      </trkpt>
      <trkpt lat="42.041100" lon="0.999750">
        <ele>1889.0</ele>
        <time>2013-09-13T13:48:19Z</time>
      </trkpt>
      <trkpt lat="42.041183" lon="0.999700">
        <ele>1891.0</ele>
        <time>2013-09-13T13:48:20Z</time>
      </trkpt>
      <trkpt lat="42.041233" lon="0.999683">
        <ele>1894.0</ele>
        <time>2013-09-13T13:48:21Z</time>
      </trkpt>
      <trkpt lat="42.041300" lon="0.999667">
        <ele>1896.0</ele>
        <time>2013-09-13T13:48:22Z</time>
      </trkpt>
      <trkpt lat="42.041367" lon="0.999667">
        <ele>1898.0</ele>
        <time>2013-09-13T13:48:23Z</time>
      </trkpt>
      <trkpt lat="42.041450" lon="0.999667">
        <ele>1899.0</ele>
        <time>2013-09-13T13:48:24Z</time>
      </trkpt>
      <trkpt lat="42.041550" lon="0.999700">
        <ele>1898.0</ele>
        <time>2013-09-13T13:48:25Z</time>
      </trkpt>
      <trkpt lat="42.041633" lon="0.999750">
        <ele>1898.0</ele>
        <time>2013-09-13T13:48:26Z</time>
      </trkpt>
      <trkpt lat="42.041717" lon="0.999817">
        <ele>1898.0</ele>
        <time>2013-09-13T13:48:27Z</time>
      </trkpt>
      <trkpt lat="42.041783" lon="0.999883">
        <ele>1899.0</ele>
        <time>2013-09-13T13:48:28Z</time>
      </trkpt>
      <trkpt lat="42.041850" lon="0.999967">
        <ele>1900.0</ele>
        <time>2013-09-13T13:48:29Z</time>
      </trkpt>
      <trkpt lat="42.041900" lon="1.000067">
        <ele>1901.0</ele>
        <time>2013-09-13T13:48:30Z</time>
      </trkpt>
      <trkpt lat="42.041933" lon="1.000200">
        <ele>1902.0</ele>
        <time>2013-09-13T13:48:31Z</time>
      </trkpt>
      <trkpt lat="42.041967" lon="1.000350">
        <ele>1902.0</ele>
        <time>2013-09-13T13:48:32Z</time>
      </trkpt>
      <trkpt lat="42.041983" lon="1.000517">
        <ele>1903.0</ele>
        <time>2013-09-13T13:48:33Z</time>
      </trkpt>
      <trkpt lat="42.041967" lon="1.000650">
        <ele>1904.0</ele>
        <time>2013-09-13T13:48:34Z</time>
      </trkpt>
      <trkpt lat="42.041967" lon="1.000783">
        <ele>1905.0</ele>
        <time>2013-09-13T13:48:35Z</time>
      </trkpt>
      <trkpt lat="42.041933" lon="1.000900">
        <ele>1906.0</ele>
        <time>2013-09-13T13:48:36Z</time>
      </trkpt>
      <trkpt lat="42.041900" lon="1.001017">
        <ele>1906.0</ele>
        <time>2013-09-13T13:48:37Z</time>
      </trkpt>
      <trkpt lat="42.041833" lon="1.001133">
        <ele>1906.0</ele>
        <time>2013-09-13T13:48:38Z</time>
      </trkpt>
      <trkpt lat="42.041750" lon="1.001217">
        <ele>1906.0</ele>
        <time>2013-09-13T13:48:39Z</time>
      </trkpt>
      <trkpt lat="42.041650" lon="1.001283">
        <ele>1907.0</ele>
        <time>2013-09-13T13:48:40Z</time>
      </trkpt>
      <trkpt lat="42.041567" lon="1.001317">
        <ele>1910.0</ele>
        <time>2013-09-13T13:48:41Z</time>
      </trkpt>
      <trkpt lat="42.041500" lon="1.001317">
        <ele>1911.0</ele>
        <time>2013-09-13T13:48:42Z</time>
      </trkpt>
      <trkpt lat="42.041450" lon="1.001300">
        <ele>1911.0</ele>
        <time>2013-09-13T13:48:43Z</time>
      </trkpt>
      <trkpt lat="42.041383" lon="1.001267">
        <ele>1911.0</ele>
        <time>2013-09-13T13:48:44Z</time>
      </trkpt>
      <trkpt lat="42.041317" lon="1.001217">
        <ele>1911.0</ele>
        <time>2013-09-13T13:48:45Z</time>
      </trkpt>
      <trkpt lat="42.041267" lon="1.001183">
        <ele>1911.0</ele>
        <time>2013-09-13T13:48:46Z</time>
      </trkpt>
      <trkpt lat="42.041233" lon="1.001133">
        <ele>1912.0</ele>
        <time>2013-09-13T13:48:47Z</time>
      </trkpt>
      <trkpt lat="42.041200" lon="1.001083">
        <ele>1913.0</ele>
        <time>2013-09-13T13:48:48Z</time>
      </trkpt>
      <trkpt lat="42.041183" lon="1.001033">
        <ele>1913.0</ele>
        <time>2013-09-13T13:48:49Z</time>
      </trkpt>
      <trkpt lat="42.041167" lon="1.000950">
        <ele>1913.0</ele>
        <time>2013-09-13T13:48:50Z</time>
      </trkpt>
      <trkpt lat="42.041167" lon="1.000867">
        <ele>1912.0</ele>
        <time>2013-09-13T13:48:51Z</time>
      </trkpt>
      <trkpt lat="42.041217" lon="1.000783">
        <ele>1912.0</ele>
        <time>2013-09-13T13:48:52Z</time>
      </trkpt>
      <trkpt lat="42.041267" lon="1.000733">
        <ele>1911.0</ele>
        <time>2013-09-13T13:48:53Z</time>
      </trkpt>
      <trkpt lat="42.041333" lon="1.000700">
        <ele>1911.0</ele>
        <time>2013-09-13T13:48:54Z</time>
      </trkpt>
      <trkpt lat="42.041400" lon="1.000667">
        <ele>1911.0</ele>
        <time>2013-09-13T13:48:55Z</time>
      </trkpt>
      <trkpt lat="42.041467" lon="1.000650">
        <ele>1912.0</ele>
        <time>2013-09-13T13:48:56Z</time>
      </trkpt>
      <trkpt lat="42.041533" lon="1.000633">
        <ele>1911.0</ele>
        <time>2013-09-13T13:48:57Z</time>
      </trkpt>
      <trkpt lat="42.041617" lon="1.000633">
        <ele>1910.0</ele>
        <time>2013-09-13T13:48:58Z</time>
      </trkpt>
      <trkpt lat="42.041700" lon="1.000617">
        <ele>1908.0</ele>
        <time>2013-09-13T13:48:59Z</time>
      </trkpt>
      <trkpt lat="42.041783" lon="1.000600">
        <ele>1908.0</ele>
        <time>2013-09-13T13:49:00Z</time>
      </trkpt>
      <trkpt lat="42.041850" lon="1.000600">
        <ele>1908.0</ele>
        <time>2013-09-13T13:49:01Z</time>
      </trkpt>
      <trkpt lat="42.041917" lon="1.000600">
        <ele>1909.0</ele>
        <time>2013-09-13T13:49:02Z</time>
      </trkpt>
      <trkpt lat="42.041983" lon="1.000600">
        <ele>1910.0</ele>
        <time>2013-09-13T13:49:03Z</time>
      </trkpt>
      <trkpt lat="42.042050" lon="1.000600">
        <ele>1910.0</ele>
        <time>2013-09-13T13:49:04Z</time>
      </trkpt>
      <trkpt lat="42.042150" lon="1.000600">
        <ele>1909.0</ele>
        <time>2013-09-13T13:49:05Z</time>
      </trkpt>
      <trkpt lat="42.042250" lon="1.000600">
        <ele>1909.0</ele>
        <time>2013-09-13T13:49:06Z</time>
      </trkpt>
      <trkpt lat="42.042333" lon="1.000617">
        <ele>1910.0</ele>
        <time>2013-09-13T13:49:07Z</time>
      </trkpt>
      <trkpt lat="42.042433" lon="1.000633">
        <ele>1912.0</ele>
        <time>2013-09-13T13:49:08Z</time>
      </trkpt>
      <trkpt lat="42.042500" lon="1.000667">
        <ele>1917.0</ele>
        <time>2013-09-13T13:49:09Z</time>
      </trkpt>
      <trkpt lat="42.042567" lon="1.000700">
        <ele>1920.0</ele>
        <time>2013-09-13T13:49:10Z</time>
      </trkpt>
      <trkpt lat="42.042633" lon="1.000750">
        <ele>1922.0</ele>
        <time>2013-09-13T13:49:11Z</time>
      </trkpt>
      <trkpt lat="42.042717" lon="1.000817">
        <ele>1922.0</ele>
        <time>2013-09-13T13:49:12Z</time>
      </trkpt>
      <trkpt lat="42.042800" lon="1.000917">
        <ele>1922.0</ele>
        <time>2013-09-13T13:49:13Z</time>
      </trkpt>
      <trkpt lat="42.042850" lon="1.001017">
        <ele>1922.0</ele>
        <time>2013-09-13T13:49:14Z</time>
      </trkpt>
      <trkpt lat="42.042883" lon="1.001133">
        <ele>1923.0</ele>
        <time>2013-09-13T13:49:15Z</time>
      </trkpt>
      <trkpt lat="42.042917" lon="1.001250">
        <ele>1923.0</ele>
        <time>2013-09-13T13:49:16Z</time>
      </trkpt>
      <trkpt lat="42.042917" lon="1.001517">
        <ele>1923.0</ele>
        <time>2013-09-13T13:49:18Z</time>
      </trkpt>
      <trkpt lat="42.042900" lon="1.001767">
        <ele>1924.0</ele>
        <time>2013-09-13T13:49:20Z</time>
      </trkpt>
      <trkpt lat="42.042850" lon="1.001883">
        <ele>1924.0</ele>
        <time>2013-09-13T13:49:21Z</time>
      </trkpt>
      <trkpt lat="42.042800" lon="1.001983">
        <ele>1924.0</ele>
        <time>2013-09-13T13:49:22Z</time>
      </trkpt>
      <trkpt lat="42.042717" lon="1.002067">
        <ele>1924.0</ele>
        <time>2013-09-13T13:49:23Z</time>
      </trkpt>
      <trkpt lat="42.042633" lon="1.002117">
        <ele>1923.0</ele>
        <time>2013-09-13T13:49:24Z</time>
      </trkpt>
      <trkpt lat="42.042550" lon="1.002150">
        <ele>1923.0</ele>
        <time>2013-09-13T13:49:25Z</time>
      </trkpt>
      <trkpt lat="42.042450" lon="1.002133">
        <ele>1923.0</ele>
        <time>2013-09-13T13:49:26Z</time>
      </trkpt>
      <trkpt lat="42.042367" lon="1.002100">
        <ele>1921.0</ele>
        <time>2013-09-13T13:49:27Z</time>
      </trkpt>
      <trkpt lat="42.042283" lon="1.002050">
        <ele>1921.0</ele>
        <time>2013-09-13T13:49:28Z</time>
      </trkpt>
      <trkpt lat="42.042233" lon="1.001983">
        <ele>1921.0</ele>
        <time>2013-09-13T13:49:29Z</time>
      </trkpt>
      <trkpt lat="42.042183" lon="1.001900">
        <ele>1922.0</ele>
        <time>2013-09-13T13:49:30Z</time>
      </trkpt>
      <trkpt lat="42.042150" lon="1.001817">
        <ele>1923.0</ele>
        <time>2013-09-13T13:49:31Z</time>
      </trkpt>
      <trkpt lat="42.042133" lon="1.001733">
        <ele>1923.0</ele>
        <time>2013-09-13T13:49:32Z</time>
      </trkpt>
      <trkpt lat="42.042150" lon="1.001667">
        <ele>1923.0</ele>
        <time>2013-09-13T13:49:33Z</time>
      </trkpt>
      <trkpt lat="42.042183" lon="1.001567">
        <ele>1922.0</ele>
        <time>2013-09-13T13:49:34Z</time>
      </trkpt>
      <trkpt lat="42.042233" lon="1.001483">
        <ele>1922.0</ele>
        <time>2013-09-13T13:49:35Z</time>
      </trkpt>
      <trkpt lat="42.042283" lon="1.001417">
        <ele>1921.0</ele>
        <time>2013-09-13T13:49:36Z</time>
      </trkpt>
      <trkpt lat="42.042333" lon="1.001383">
        <ele>1922.0</ele>
        <time>2013-09-13T13:49:37Z</time>
      </trkpt>
      <trkpt lat="42.042383" lon="1.001333">
        <ele>1922.0</ele>
        <time>2013-09-13T13:49:38Z</time>
      </trkpt>
      <trkpt lat="42.042450" lon="1.001283">
        <ele>1922.0</ele>
        <time>2013-09-13T13:49:39Z</time>
      </trkpt>
      <trkpt lat="42.042517" lon="1.001250">
        <ele>1923.0</ele>
        <time>2013-09-13T13:49:40Z</time>
      </trkpt>
      <trkpt lat="42.042600" lon="1.001217">
        <ele>1923.0</ele>
        <time>2013-09-13T13:49:41Z</time>
      </trkpt>
      <trkpt lat="42.042667" lon="1.001183">
        <ele>1923.0</ele>
        <time>2013-09-13T13:49:42Z</time>
      </trkpt>
      <trkpt lat="42.042750" lon="1.001150">
        <ele>1924.0</ele>
        <time>2013-09-13T13:49:43Z</time>
      </trkpt>
      <trkpt lat="42.042833" lon="1.001133">
        <ele>1924.0</ele>
        <time>2013-09-13T13:49:44Z</time>
      </trkpt>
      <trkpt lat="42.042900" lon="1.001133">
        <ele>1925.0</ele>
        <time>2013-09-13T13:49:45Z</time>
      </trkpt>
      <trkpt lat="42.042983" lon="1.001133">
        <ele>1927.0</ele>
        <time>2013-09-13T13:49:46Z</time>
      </trkpt>
      <trkpt lat="42.043050" lon="1.001150">
        <ele>1928.0</ele>
        <time>2013-09-13T13:49:47Z</time>
      </trkpt>
      <trkpt lat="42.043133" lon="1.001167">
        <ele>1930.0</ele>
        <time>2013-09-13T13:49:48Z</time>
      </trkpt>
      <trkpt lat="42.043217" lon="1.001183">
        <ele>1932.0</ele>
        <time>2013-09-13T13:49:49Z</time>
      </trkpt>
      <trkpt lat="42.043283" lon="1.001200">
        <ele>1934.0</ele>
        <time>2013-09-13T13:49:50Z</time>
      </trkpt>
      <trkpt lat="42.043367" lon="1.001233">
        <ele>1936.0</ele>
        <time>2013-09-13T13:49:51Z</time>
      </trkpt>
      <trkpt lat="42.043433" lon="1.001267">
        <ele>1938.0</ele>
        <time>2013-09-13T13:49:52Z</time>
      </trkpt>
      <trkpt lat="42.043483" lon="1.001333">
        <ele>1940.0</ele>
        <time>2013-09-13T13:49:53Z</time>
      </trkpt>
      <trkpt lat="42.043533" lon="1.001433">
        <ele>1942.0</ele>
        <time>2013-09-13T13:49:54Z</time>
      </trkpt>
      <trkpt lat="42.043567" lon="1.001550">
        <ele>1943.0</ele>
        <time>2013-09-13T13:49:55Z</time>
      </trkpt>
      <trkpt lat="42.043583" lon="1.001667">
        <ele>1944.0</ele>
        <time>2013-09-13T13:49:56Z</time>
      </trkpt>
      <trkpt lat="42.043567" lon="1.001783">
        <ele>1946.0</ele>
        <time>2013-09-13T13:49:57Z</time>
      </trkpt>
      <trkpt lat="42.043517" lon="1.001900">
        <ele>1947.0</ele>
        <time>2013-09-13T13:49:58Z</time>
      </trkpt>
      <trkpt lat="42.043450" lon="1.001967">
        <ele>1948.0</ele>
        <time>2013-09-13T13:49:59Z</time>
      </trkpt>
      <trkpt lat="42.043383" lon="1.002017">
        <ele>1949.0</ele>
        <time>2013-09-13T13:50:00Z</time>
      </trkpt>
      <trkpt lat="42.043300" lon="1.002000">
        <ele>1950.0</ele>
        <time>2013-09-13T13:50:01Z</time>
      </trkpt>
      <trkpt lat="42.043233" lon="1.001950">
        <ele>1951.0</ele>
        <time>2013-09-13T13:50:02Z</time>
      </trkpt>
      <trkpt lat="42.043183" lon="1.001900">
        <ele>1951.0</ele>
        <time>2013-09-13T13:50:03Z</time>
      </trkpt>
      <trkpt lat="42.043133" lon="1.001817">
        <ele>1951.0</ele>
        <time>2013-09-13T13:50:04Z</time>
      </trkpt>
      <trkpt lat="42.043100" lon="1.001717">
        <ele>1952.0</ele>
        <time>2013-09-13T13:50:05Z</time>
      </trkpt>
      <trkpt lat="42.043100" lon="1.001617">
        <ele>1953.0</ele>
        <time>2013-09-13T13:50:06Z</time>
      </trkpt>
      <trkpt lat="42.043100" lon="1.001533">
        <ele>1955.0</ele>
        <time>2013-09-13T13:50:07Z</time>
      </trkpt>
      <trkpt lat="42.043133" lon="1.001483">
        <ele>1957.0</ele>
        <time>2013-09-13T13:50:08Z</time>
      </trkpt>
      <trkpt lat="42.043183" lon="1.001433">
        <ele>1960.0</ele>
        <time>2013-09-13T13:50:09Z</time>
      </trkpt>
      <trkpt lat="42.043217" lon="1.001383">
        <ele>1962.0</ele>
        <time>2013-09-13T13:50:10Z</time>
      </trkpt>
      <trkpt lat="42.043283" lon="1.001350">
        <ele>1963.0</ele>
        <time>2013-09-13T13:50:11Z</time>
      </trkpt>
      <trkpt lat="42.043350" lon="1.001300">
        <ele>1964.0</ele>
        <time>2013-09-13T13:50:12Z</time>
      </trkpt>
      <trkpt lat="42.043417" lon="1.001267">
        <ele>1965.0</ele>
        <time>2013-09-13T13:50:13Z</time>
      </trkpt>
      <trkpt lat="42.043500" lon="1.001250">
        <ele>1966.0</ele>
        <time>2013-09-13T13:50:14Z</time>
      </trkpt>
      <trkpt lat="42.043567" lon="1.001233">
        <ele>1969.0</ele>
        <time>2013-09-13T13:50:15Z</time>
      </trkpt>
      <trkpt lat="42.043633" lon="1.001233">
        <ele>1972.0</ele>
        <time>2013-09-13T13:50:16Z</time>
      </trkpt>
      <trkpt lat="42.043700" lon="1.001233">
        <ele>1974.0</ele>
        <time>2013-09-13T13:50:17Z</time>
      </trkpt>
      <trkpt lat="42.043767" lon="1.001250">
        <ele>1975.0</ele>
        <time>2013-09-13T13:50:18Z</time>
      </trkpt>
      <trkpt lat="42.043850" lon="1.001300">
        <ele>1976.0</ele>
        <time>2013-09-13T13:50:19Z</time>
      </trkpt>
      <trkpt lat="42.043933" lon="1.001367">
        <ele>1976.0</ele>
        <time>2013-09-13T13:50:20Z</time>
      </trkpt>
      <trkpt lat="42.044000" lon="1.001450">
        <ele>1977.0</ele>
        <time>2013-09-13T13:50:21Z</time>
      </trkpt>
      <trkpt lat="42.044050" lon="1.001567">
        <ele>1978.0</ele>
        <time>2013-09-13T13:50:22Z</time>
      </trkpt>
      <trkpt lat="42.044083" lon="1.001667">
        <ele>1979.0</ele>
        <time>2013-09-13T13:50:23Z</time>
      </trkpt>
      <trkpt lat="42.044100" lon="1.001767">
        <ele>1980.0</ele>
        <time>2013-09-13T13:50:24Z</time>
      </trkpt>
      <trkpt lat="42.044083" lon="1.002017">
        <ele>1982.0</ele>
        <time>2013-09-13T13:50:26Z</time>
      </trkpt>
      <trkpt lat="42.044050" lon="1.002133">
        <ele>1983.0</ele>
        <time>2013-09-13T13:50:27Z</time>
      </trkpt>
      <trkpt lat="42.044000" lon="1.002217">
        <ele>1984.0</ele>
        <time>2013-09-13T13:50:28Z</time>
      </trkpt>
      <trkpt lat="42.043933" lon="1.002300">
        <ele>1986.0</ele>
        <time>2013-09-13T13:50:29Z</time>
      </trkpt>
      <trkpt lat="42.043867" lon="1.002350">
        <ele>1987.0</ele>
        <time>2013-09-13T13:50:30Z</time>
      </trkpt>
      <trkpt lat="42.043800" lon="1.002383">
        <ele>1989.0</ele>
        <time>2013-09-13T13:50:31Z</time>
      </trkpt>
      <trkpt lat="42.043733" lon="1.002400">
        <ele>1990.0</ele>
        <time>2013-09-13T13:50:32Z</time>
      </trkpt>
      <trkpt lat="42.043667" lon="1.002383">
        <ele>1990.0</ele>
        <time>2013-09-13T13:50:33Z</time>
      </trkpt>
      <trkpt lat="42.043600" lon="1.002333">
        <ele>1990.0</ele>
        <time>2013-09-13T13:50:34Z</time>
      </trkpt>
      <trkpt lat="42.043533" lon="1.002267">
        <ele>1990.0</ele>
        <time>2013-09-13T13:50:35Z</time>
      </trkpt>
      <trkpt lat="42.043483" lon="1.002183">
        <ele>1992.0</ele>
        <time>2013-09-13T13:50:36Z</time>
      </trkpt>
      <trkpt lat="42.043467" lon="1.002100">
        <ele>1994.0</ele>
        <time>2013-09-13T13:50:37Z</time>
      </trkpt>
      <trkpt lat="42.043450" lon="1.002050">
        <ele>1997.0</ele>
        <time>2013-09-13T13:50:38Z</time>
      </trkpt>
      <trkpt lat="42.043433" lon="1.001983">
        <ele>1999.0</ele>
        <time>2013-09-13T13:50:39Z</time>
      </trkpt>
      <trkpt lat="42.043433" lon="1.001883">
        <ele>2000.0</ele>
        <time>2013-09-13T13:50:40Z</time>
      </trkpt>
      <trkpt lat="42.043450" lon="1.001783">
        <ele>2001.0</ele>
        <time>2013-09-13T13:50:41Z</time>
      </trkpt>
      <trkpt lat="42.043467" lon="1.001700">
        <ele>2002.0</ele>
        <time>2013-09-13T13:50:42Z</time>
      </trkpt>
      <trkpt lat="42.043500" lon="1.001633">
        <ele>2004.0</ele>
        <time>2013-09-13T13:50:43Z</time>
      </trkpt>
      <trkpt lat="42.043533" lon="1.001583">
        <ele>2007.0</ele>
        <time>2013-09-13T13:50:44Z</time>
      </trkpt>
      <trkpt lat="42.043583" lon="1.001533">
        <ele>2009.0</ele>
        <time>2013-09-13T13:50:45Z</time>
      </trkpt>
      <trkpt lat="42.043633" lon="1.001483">
        <ele>2011.0</ele>
        <time>2013-09-13T13:50:46Z</time>
      </trkpt>
      <trkpt lat="42.043700" lon="1.001417">
        <ele>2012.0</ele>
        <time>2013-09-13T13:50:47Z</time>
      </trkpt>
      <trkpt lat="42.043750" lon="1.001367">
        <ele>2013.0</ele>
        <time>2013-09-13T13:50:48Z</time>
      </trkpt>
      <trkpt lat="42.043817" lon="1.001317">
        <ele>2015.0</ele>
        <time>2013-09-13T13:50:49Z</time>
      </trkpt>
      <trkpt lat="42.043883" lon="1.001283">
        <ele>2016.0</ele>
        <time>2013-09-13T13:50:50Z</time>
      </trkpt>
      <trkpt lat="42.043950" lon="1.001267">
        <ele>2017.0</ele>
        <time>2013-09-13T13:50:51Z</time>
      </trkpt>
      <trkpt lat="42.044017" lon="1.001250">
        <ele>2018.0</ele>
        <time>2013-09-13T13:50:52Z</time>
      </trkpt>
      <trkpt lat="42.044083" lon="1.001267">
        <ele>2018.0</ele>
        <time>2013-09-13T13:50:53Z</time>
      </trkpt>
      <trkpt lat="42.044183" lon="1.001267">
        <ele>2018.0</ele>
        <time>2013-09-13T13:50:54Z</time>
      </trkpt>
      <trkpt lat="42.044267" lon="1.001283">
        <ele>2018.0</ele>
        <time>2013-09-13T13:50:55Z</time>
      </trkpt>
      <trkpt lat="42.044350" lon="1.001267">
        <ele>2019.0</ele>
        <time>2013-09-13T13:50:56Z</time>
      </trkpt>
      <trkpt lat="42.044433" lon="1.001267">
        <ele>2020.0</ele>
        <time>2013-09-13T13:50:57Z</time>
      </trkpt>
      <trkpt lat="42.044517" lon="1.001267">
        <ele>2023.0</ele>
        <time>2013-09-13T13:50:58Z</time>
      </trkpt>
      <trkpt lat="42.044700" lon="1.001300">
        <ele>2026.0</ele>
        <time>2013-09-13T13:51:00Z</time>
      </trkpt>
      <trkpt lat="42.044783" lon="1.001350">
        <ele>2027.0</ele>
        <time>2013-09-13T13:51:01Z</time>
      </trkpt>
      <trkpt lat="42.044867" lon="1.001417">
        <ele>2028.0</ele>
        <time>2013-09-13T13:51:02Z</time>
      </trkpt>
      <trkpt lat="42.044933" lon="1.001483">
        <ele>2029.0</ele>
        <time>2013-09-13T13:51:03Z</time>
      </trkpt>
      <trkpt lat="42.045017" lon="1.001550">
        <ele>2031.0</ele>
        <time>2013-09-13T13:51:04Z</time>
      </trkpt>
      <trkpt lat="42.045083" lon="1.001650">
        <ele>2032.0</ele>
        <time>2013-09-13T13:51:05Z</time>
      </trkpt>
      <trkpt lat="42.045133" lon="1.001767">
        <ele>2033.0</ele>
        <time>2013-09-13T13:51:06Z</time>
      </trkpt>
      <trkpt lat="42.045183" lon="1.001883">
        <ele>2033.0</ele>
        <time>2013-09-13T13:51:07Z</time>
      </trkpt>
      <trkpt lat="42.045200" lon="1.002017">
        <ele>2034.0</ele>
        <time>2013-09-13T13:51:08Z</time>
      </trkpt>
      <trkpt lat="42.045217" lon="1.002150">
        <ele>2034.0</ele>
        <time>2013-09-13T13:51:09Z</time>
      </trkpt>
      <trkpt lat="42.045200" lon="1.002300">
        <ele>2034.0</ele>
        <time>2013-09-13T13:51:10Z</time>
      </trkpt>
      <trkpt lat="42.045167" lon="1.002417">
        <ele>2034.0</ele>
        <time>2013-09-13T13:51:11Z</time>
      </trkpt>
      <trkpt lat="42.045117" lon="1.002517">
        <ele>2034.0</ele>
        <time>2013-09-13T13:51:12Z</time>
      </trkpt>
      <trkpt lat="42.045067" lon="1.002583">
        <ele>2035.0</ele>
        <time>2013-09-13T13:51:13Z</time>
      </trkpt>
      <trkpt lat="42.045000" lon="1.002617">
        <ele>2035.0</ele>
        <time>2013-09-13T13:51:14Z</time>
      </trkpt>
      <trkpt lat="42.044950" lon="1.002667">
        <ele>2036.0</ele>
        <time>2013-09-13T13:51:15Z</time>
      </trkpt>
      <trkpt lat="42.044883" lon="1.002700">
        <ele>2036.0</ele>
        <time>2013-09-13T13:51:16Z</time>
      </trkpt>
      <trkpt lat="42.044717" lon="1.002767">
        <ele>2035.0</ele>
        <time>2013-09-13T13:51:18Z</time>
      </trkpt>
      <trkpt lat="42.044633" lon="1.002783">
        <ele>2037.0</ele>
        <time>2013-09-13T13:51:19Z</time>
      </trkpt>
      <trkpt lat="42.044567" lon="1.002800">
        <ele>2038.0</ele>
        <time>2013-09-13T13:51:20Z</time>
      </trkpt>
      <trkpt lat="42.044500" lon="1.002817">
        <ele>2039.0</ele>
        <time>2013-09-13T13:51:21Z</time>
      </trkpt>
      <trkpt lat="42.044433" lon="1.002833">
        <ele>2040.0</ele>
        <time>2013-09-13T13:51:22Z</time>
      </trkpt>
      <trkpt lat="42.044367" lon="1.002850">
        <ele>2040.0</ele>
        <time>2013-09-13T13:51:23Z</time>
      </trkpt>
      <trkpt lat="42.044283" lon="1.002867">
        <ele>2040.0</ele>
        <time>2013-09-13T13:51:24Z</time>
      </trkpt>
      <trkpt lat="42.044200" lon="1.002867">
        <ele>2041.0</ele>
        <time>2013-09-13T13:51:25Z</time>
      </trkpt>
      <trkpt lat="42.044133" lon="1.002867">
        <ele>2042.0</ele>
        <time>2013-09-13T13:51:26Z</time>
      </trkpt>
      <trkpt lat="42.044050" lon="1.002867">
        <ele>2043.0</ele>
        <time>2013-09-13T13:51:27Z</time>
      </trkpt>
      <trkpt lat="42.043983" lon="1.002833">
        <ele>2043.0</ele>
        <time>2013-09-13T13:51:28Z</time>
      </trkpt>
      <trkpt lat="42.043917" lon="1.002783">
        <ele>2043.0</ele>
        <time>2013-09-13T13:51:29Z</time>
      </trkpt>
      <trkpt lat="42.043850" lon="1.002700">
        <ele>2044.0</ele>
        <time>2013-09-13T13:51:30Z</time>
      </trkpt>
      <trkpt lat="42.043817" lon="1.002617">
        <ele>2048.0</ele>
        <time>2013-09-13T13:51:31Z</time>
      </trkpt>
      <trkpt lat="42.043783" lon="1.002533">
        <ele>2054.0</ele>
        <time>2013-09-13T13:51:32Z</time>
      </trkpt>
      <trkpt lat="42.043783" lon="1.002467">
        <ele>2058.0</ele>
        <time>2013-09-13T13:51:33Z</time>
      </trkpt>
      <trkpt lat="42.043817" lon="1.002383">
        <ele>2061.0</ele>
        <time>2013-09-13T13:51:34Z</time>
      </trkpt>
      <trkpt lat="42.043833" lon="1.002317">
        <ele>2062.0</ele>
        <time>2013-09-13T13:51:35Z</time>
      </trkpt>
      <trkpt lat="42.043883" lon="1.002217">
        <ele>2063.0</ele>
        <time>2013-09-13T13:51:36Z</time>
      </trkpt>
      <trkpt lat="42.043933" lon="1.002150">
        <ele>2064.0</ele>
        <time>2013-09-13T13:51:37Z</time>
      </trkpt>
      <trkpt lat="42.043983" lon="1.002100">
        <ele>2065.0</ele>
        <time>2013-09-13T13:51:38Z</time>
      </trkpt>
      <trkpt lat="42.044033" lon="1.002050">
        <ele>2067.0</ele>
        <time>2013-09-13T13:51:39Z</time>
      </trkpt>
      <trkpt lat="42.044100" lon="1.002017">
        <ele>2068.0</ele>
        <time>2013-09-13T13:51:40Z</time>
      </trkpt>
      <trkpt lat="42.044183" lon="1.002017">
        <ele>2068.0</ele>
        <time>2013-09-13T13:51:41Z</time>
      </trkpt>
      <trkpt lat="42.044267" lon="1.002033">
        <ele>2068.0</ele>
        <time>2013-09-13T13:51:42Z</time>
      </trkpt>
      <trkpt lat="42.044367" lon="1.002067">
        <ele>2069.0</ele>
        <time>2013-09-13T13:51:43Z</time>
      </trkpt>
      <trkpt lat="42.044450" lon="1.002133">
        <ele>2069.0</ele>
        <time>2013-09-13T13:51:44Z</time>
      </trkpt>
      <trkpt lat="42.044517" lon="1.002200">
        <ele>2069.0</ele>
        <time>2013-09-13T13:51:45Z</time>
      </trkpt>
      <trkpt lat="42.044600" lon="1.002267">
        <ele>2069.0</ele>
        <time>2013-09-13T13:51:46Z</time>
      </trkpt>
      <trkpt lat="42.044683" lon="1.002333">
        <ele>2070.0</ele>
        <time>2013-09-13T13:51:47Z</time>
      </trkpt>
      <trkpt lat="42.044767" lon="1.002400">
        <ele>2072.0</ele>
        <time>2013-09-13T13:51:48Z</time>
      </trkpt>
      <trkpt lat="42.044833" lon="1.002450">
        <ele>2073.0</ele>
        <time>2013-09-13T13:51:49Z</time>
      </trkpt>
      <trkpt lat="42.044917" lon="1.002500">
        <ele>2074.0</ele>
        <time>2013-09-13T13:51:50Z</time>
      </trkpt>
      <trkpt lat="42.044983" lon="1.002550">
        <ele>2074.0</ele>
        <time>2013-09-13T13:51:51Z</time>
      </trkpt>
      <trkpt lat="42.045083" lon="1.002600">
        <ele>2074.0</ele>
        <time>2013-09-13T13:51:52Z</time>
      </trkpt>
      <trkpt lat="42.045167" lon="1.002650">
        <ele>2074.0</ele>
        <time>2013-09-13T13:51:53Z</time>
      </trkpt>
      <trkpt lat="42.045250" lon="1.002717">
        <ele>2074.0</ele>
        <time>2013-09-13T13:51:54Z</time>
      </trkpt>
      <trkpt lat="42.045350" lon="1.002767">
        <ele>2074.0</ele>
        <time>2013-09-13T13:51:55Z</time>
      </trkpt>
      <trkpt lat="42.045433" lon="1.002817">
        <ele>2075.0</ele>
        <time>2013-09-13T13:51:56Z</time>
      </trkpt>
      <trkpt lat="42.045517" lon="1.002867">
        <ele>2076.0</ele>
        <time>2013-09-13T13:51:57Z</time>
      </trkpt>
      <trkpt lat="42.045583" lon="1.002933">
        <ele>2076.0</ele>
        <time>2013-09-13T13:51:58Z</time>
      </trkpt>
      <trkpt lat="42.045650" lon="1.003033">
        <ele>2077.0</ele>
        <time>2013-09-13T13:51:59Z</time>
      </trkpt>
      <trkpt lat="42.045717" lon="1.003133">
        <ele>2076.0</ele>
        <time>2013-09-13T13:52:00Z</time>
      </trkpt>
      <trkpt lat="42.045783" lon="1.003233">
        <ele>2076.0</ele>
        <time>2013-09-13T13:52:01Z</time>
      </trkpt>
      <trkpt lat="42.045850" lon="1.003300">
        <ele>2075.0</ele>
        <time>2013-09-13T13:52:02Z</time>
      </trkpt>
      <trkpt lat="42.045933" lon="1.003367">
        <ele>2075.0</ele>
        <time>2013-09-13T13:52:03Z</time>
      </trkpt>
      <trkpt lat="42.046017" lon="1.003433">
        <ele>2073.0</ele>
        <time>2013-09-13T13:52:04Z</time>
      </trkpt>
      <trkpt lat="42.046100" lon="1.003517">
        <ele>2072.0</ele>
        <time>2013-09-13T13:52:05Z</time>
      </trkpt>
      <trkpt lat="42.046183" lon="1.003583">
        <ele>2072.0</ele>
        <time>2013-09-13T13:52:06Z</time>
      </trkpt>
      <trkpt lat="42.046267" lon="1.003650">
        <ele>2071.0</ele>
        <time>2013-09-13T13:52:07Z</time>
      </trkpt>
      <trkpt lat="42.046350" lon="1.003717">
        <ele>2070.0</ele>
        <time>2013-09-13T13:52:08Z</time>
      </trkpt>
      <trkpt lat="42.046433" lon="1.003783">
        <ele>2070.0</ele>
        <time>2013-09-13T13:52:09Z</time>
      </trkpt>
      <trkpt lat="42.046533" lon="1.003850">
        <ele>2069.0</ele>
        <time>2013-09-13T13:52:10Z</time>
      </trkpt>
      <trkpt lat="42.046617" lon="1.003900">
        <ele>2068.0</ele>
        <time>2013-09-13T13:52:11Z</time>
      </trkpt>
      <trkpt lat="42.046717" lon="1.003967">
        <ele>2067.0</ele>
        <time>2013-09-13T13:52:12Z</time>
      </trkpt>
      <trkpt lat="42.046900" lon="1.004067">
        <ele>2066.0</ele>
        <time>2013-09-13T13:52:14Z</time>
      </trkpt>
      <trkpt lat="42.047000" lon="1.004117">
        <ele>2066.0</ele>
        <time>2013-09-13T13:52:15Z</time>
      </trkpt>
      <trkpt lat="42.047083" lon="1.004167">
        <ele>2066.0</ele>
        <time>2013-09-13T13:52:16Z</time>
      </trkpt>
      <trkpt lat="42.047267" lon="1.004267">
        <ele>2067.0</ele>
        <time>2013-09-13T13:52:18Z</time>
      </trkpt>
      <trkpt lat="42.047350" lon="1.004317">
        <ele>2067.0</ele>
        <time>2013-09-13T13:52:19Z</time>
      </trkpt>
      <trkpt lat="42.047433" lon="1.004350">
        <ele>2067.0</ele>
        <time>2013-09-13T13:52:20Z</time>
      </trkpt>
      <trkpt lat="42.047533" lon="1.004400">
        <ele>2066.0</ele>
        <time>2013-09-13T13:52:21Z</time>
      </trkpt>
      <trkpt lat="42.047633" lon="1.004450">
        <ele>2065.0</ele>
        <time>2013-09-13T13:52:22Z</time>
      </trkpt>
      <trkpt lat="42.047817" lon="1.004517">
        <ele>2066.0</ele>
        <time>2013-09-13T13:52:24Z</time>
      </trkpt>
      <trkpt lat="42.047883" lon="1.004550">
        <ele>2067.0</ele>
        <time>2013-09-13T13:52:25Z</time>
      </trkpt>
      <trkpt lat="42.047967" lon="1.004583">
        <ele>2068.0</ele>
        <time>2013-09-13T13:52:26Z</time>
      </trkpt>
      <trkpt lat="42.048033" lon="1.004617">
        <ele>2069.0</ele>
        <time>2013-09-13T13:52:27Z</time>
      </trkpt>
      <trkpt lat="42.048183" lon="1.004700">
        <ele>2068.0</ele>
        <time>2013-09-13T13:52:29Z</time>
      </trkpt>
      <trkpt lat="42.048267" lon="1.004767">
        <ele>2067.0</ele>
        <time>2013-09-13T13:52:30Z</time>
      </trkpt>
      <trkpt lat="42.048350" lon="1.004817">
        <ele>2066.0</ele>
        <time>2013-09-13T13:52:31Z</time>
      </trkpt>
      <trkpt lat="42.048433" lon="1.004850">
        <ele>2066.0</ele>
        <time>2013-09-13T13:52:32Z</time>
      </trkpt>
      <trkpt lat="42.048500" lon="1.004900">
        <ele>2065.0</ele>
        <time>2013-09-13T13:52:33Z</time>
      </trkpt>
      <trkpt lat="42.048583" lon="1.004933">
        <ele>2065.0</ele>
        <time>2013-09-13T13:52:34Z</time>
      </trkpt>
      <trkpt lat="42.048667" lon="1.004967">
        <ele>2065.0</ele>
        <time>2013-09-13T13:52:35Z</time>
      </trkpt>
      <trkpt lat="42.048750" lon="1.005000">
        <ele>2065.0</ele>
        <time>2013-09-13T13:52:36Z</time>
      </trkpt>
      <trkpt lat="42.048833" lon="1.005033">
        <ele>2064.0</ele>
        <time>2013-09-13T13:52:37Z</time>
      </trkpt>
      <trkpt lat="42.048917" lon="1.005083">
        <ele>2063.0</ele>
        <time>2013-09-13T13:52:38Z</time>
      </trkpt>
      <trkpt lat="42.049017" lon="1.005117">
        <ele>2062.0</ele>
        <time>2013-09-13T13:52:39Z</time>
      </trkpt>
      <trkpt lat="42.049100" lon="1.005150">
        <ele>2062.0</ele>
        <time>2013-09-13T13:52:40Z</time>
      </trkpt>
      <trkpt lat="42.049183" lon="1.005183">
        <ele>2061.0</ele>
        <time>2013-09-13T13:52:41Z</time>
      </trkpt>
      <trkpt lat="42.049283" lon="1.005217">
        <ele>2061.0</ele>
        <time>2013-09-13T13:52:42Z</time>
      </trkpt>
      <trkpt lat="42.049367" lon="1.005250">
        <ele>2061.0</ele>
        <time>2013-09-13T13:52:43Z</time>
      </trkpt>
      <trkpt lat="42.049450" lon="1.005283">
        <ele>2062.0</ele>
        <time>2013-09-13T13:52:44Z</time>
      </trkpt>
      <trkpt lat="42.049533" lon="1.005317">
        <ele>2062.0</ele>
        <time>2013-09-13T13:52:45Z</time>
      </trkpt>
      <trkpt lat="42.049617" lon="1.005333">
        <ele>2062.0</ele>
        <time>2013-09-13T13:52:46Z</time>
      </trkpt>
      <trkpt lat="42.049700" lon="1.005367">
        <ele>2062.0</ele>
        <time>2013-09-13T13:52:47Z</time>
      </trkpt>
      <trkpt lat="42.049783" lon="1.005400">
        <ele>2062.0</ele>
        <time>2013-09-13T13:52:48Z</time>
      </trkpt>
      <trkpt lat="42.049850" lon="1.005433">
        <ele>2063.0</ele>
        <time>2013-09-13T13:52:49Z</time>
      </trkpt>
      <trkpt lat="42.049933" lon="1.005450">
        <ele>2063.0</ele>
        <time>2013-09-13T13:52:50Z</time>
      </trkpt>
      <trkpt lat="42.050017" lon="1.005483">
        <ele>2063.0</ele>
        <time>2013-09-13T13:52:51Z</time>
      </trkpt>
      <trkpt lat="42.050117" lon="1.005500">
        <ele>2063.0</ele>
        <time>2013-09-13T13:52:52Z</time>
      </trkpt>
      <trkpt lat="42.050200" lon="1.005533">
        <ele>2063.0</ele>
        <time>2013-09-13T13:52:53Z</time>
      </trkpt>
      <trkpt lat="42.050283" lon="1.005567">
        <ele>2064.0</ele>
        <time>2013-09-13T13:52:54Z</time>
      </trkpt>
      <trkpt lat="42.050350" lon="1.005583">
        <ele>2065.0</ele>
        <time>2013-09-13T13:52:55Z</time>
      </trkpt>
      <trkpt lat="42.050433" lon="1.005617">
        <ele>2065.0</ele>
        <time>2013-09-13T13:52:56Z</time>
      </trkpt>
      <trkpt lat="42.050533" lon="1.005650">
        <ele>2065.0</ele>
        <time>2013-09-13T13:52:57Z</time>
      </trkpt>
      <trkpt lat="42.050633" lon="1.005700">
        <ele>2066.0</ele>
        <time>2013-09-13T13:52:58Z</time>
      </trkpt>
      <trkpt lat="42.050717" lon="1.005750">
        <ele>2067.0</ele>
        <time>2013-09-13T13:52:59Z</time>
      </trkpt>
      <trkpt lat="42.050800" lon="1.005800">
        <ele>2069.0</ele>
        <time>2013-09-13T13:53:00Z</time>
      </trkpt>
      <trkpt lat="42.050867" lon="1.005833">
        <ele>2071.0</ele>
        <time>2013-09-13T13:53:01Z</time>
      </trkpt>
      <trkpt lat="42.050933" lon="1.005850">
        <ele>2073.0</ele>
        <time>2013-09-13T13:53:02Z</time>
      </trkpt>
      <trkpt lat="42.051000" lon="1.005883">
        <ele>2073.0</ele>
        <time>2013-09-13T13:53:03Z</time>
      </trkpt>
      <trkpt lat="42.051083" lon="1.005950">
        <ele>2073.0</ele>
        <time>2013-09-13T13:53:04Z</time>
      </trkpt>
      <trkpt lat="42.051133" lon="1.006050">
        <ele>2073.0</ele>
        <time>2013-09-13T13:53:05Z</time>
      </trkpt>
      <trkpt lat="42.051183" lon="1.006167">
        <ele>2073.0</ele>
        <time>2013-09-13T13:53:06Z</time>
      </trkpt>
      <trkpt lat="42.051217" lon="1.006267">
        <ele>2075.0</ele>
        <time>2013-09-13T13:53:07Z</time>
      </trkpt>
      <trkpt lat="42.051233" lon="1.006350">
        <ele>2076.0</ele>
        <time>2013-09-13T13:53:08Z</time>
      </trkpt>
      <trkpt lat="42.051233" lon="1.006450">
        <ele>2078.0</ele>
        <time>2013-09-13T13:53:09Z</time>
      </trkpt>
      <trkpt lat="42.051250" lon="1.006550">
        <ele>2079.0</ele>
        <time>2013-09-13T13:53:10Z</time>
      </trkpt>
      <trkpt lat="42.051217" lon="1.006783">
        <ele>2083.0</ele>
        <time>2013-09-13T13:53:12Z</time>
      </trkpt>
      <trkpt lat="42.051200" lon="1.006883">
        <ele>2086.0</ele>
        <time>2013-09-13T13:53:13Z</time>
      </trkpt>
      <trkpt lat="42.051183" lon="1.006983">
        <ele>2089.0</ele>
        <time>2013-09-13T13:53:14Z</time>
      </trkpt>
      <trkpt lat="42.051167" lon="1.007067">
        <ele>2091.0</ele>
        <time>2013-09-13T13:53:15Z</time>
      </trkpt>
      <trkpt lat="42.051150" lon="1.007183">
        <ele>2094.0</ele>
        <time>2013-09-13T13:53:16Z</time>
      </trkpt>
      <trkpt lat="42.051117" lon="1.007300">
        <ele>2096.0</ele>
        <time>2013-09-13T13:53:17Z</time>
      </trkpt>
      <trkpt lat="42.051067" lon="1.007400">
        <ele>2099.0</ele>
        <time>2013-09-13T13:53:18Z</time>
      </trkpt>
      <trkpt lat="42.051017" lon="1.007483">
        <ele>2103.0</ele>
        <time>2013-09-13T13:53:19Z</time>
      </trkpt>
      <trkpt lat="42.050950" lon="1.007533">
        <ele>2107.0</ele>
        <time>2013-09-13T13:53:20Z</time>
      </trkpt>
      <trkpt lat="42.050900" lon="1.007583">
        <ele>2111.0</ele>
        <time>2013-09-13T13:53:21Z</time>
      </trkpt>
      <trkpt lat="42.050817" lon="1.007617">
        <ele>2113.0</ele>
        <time>2013-09-13T13:53:22Z</time>
      </trkpt>
      <trkpt lat="42.050733" lon="1.007617">
        <ele>2116.0</ele>
        <time>2013-09-13T13:53:23Z</time>
      </trkpt>
      <trkpt lat="42.050650" lon="1.007617">
        <ele>2119.0</ele>
        <time>2013-09-13T13:53:24Z</time>
      </trkpt>
      <trkpt lat="42.050583" lon="1.007600">
        <ele>2121.0</ele>
        <time>2013-09-13T13:53:25Z</time>
      </trkpt>
      <trkpt lat="42.050517" lon="1.007567">
        <ele>2124.0</ele>
        <time>2013-09-13T13:53:26Z</time>
      </trkpt>
      <trkpt lat="42.050450" lon="1.007533">
        <ele>2126.0</ele>
        <time>2013-09-13T13:53:27Z</time>
      </trkpt>
      <trkpt lat="42.050400" lon="1.007517">
        <ele>2128.0</ele>
        <time>2013-09-13T13:53:28Z</time>
      </trkpt>
      <trkpt lat="42.050350" lon="1.007467">
        <ele>2130.0</ele>
        <time>2013-09-13T13:53:29Z</time>
      </trkpt>
      <trkpt lat="42.050300" lon="1.007417">
        <ele>2130.0</ele>
        <time>2013-09-13T13:53:30Z</time>
      </trkpt>
      <trkpt lat="42.050250" lon="1.007367">
        <ele>2130.0</ele>
        <time>2013-09-13T13:53:31Z</time>
      </trkpt>
      <trkpt lat="42.050200" lon="1.007300">
        <ele>2131.0</ele>
        <time>2013-09-13T13:53:32Z</time>
      </trkpt>
      <trkpt lat="42.050167" lon="1.007233">
        <ele>2131.0</ele>
        <time>2013-09-13T13:53:33Z</time>
      </trkpt>
      <trkpt lat="42.050133" lon="1.007167">
        <ele>2133.0</ele>
        <time>2013-09-13T13:53:34Z</time>
      </trkpt>
      <trkpt lat="42.050117" lon="1.007083">
        <ele>2133.0</ele>
        <time>2013-09-13T13:53:35Z</time>
      </trkpt>
      <trkpt lat="42.050100" lon="1.007000">
        <ele>2134.0</ele>
        <time>2013-09-13T13:53:36Z</time>
      </trkpt>
      <trkpt lat="42.050117" lon="1.006933">
        <ele>2135.0</ele>
        <time>2013-09-13T13:53:37Z</time>
      </trkpt>
      <trkpt lat="42.050117" lon="1.006850">
        <ele>2135.0</ele>
        <time>2013-09-13T13:53:38Z</time>
      </trkpt>
      <trkpt lat="42.050133" lon="1.006767">
        <ele>2136.0</ele>
        <time>2013-09-13T13:53:39Z</time>
      </trkpt>
      <trkpt lat="42.050150" lon="1.006700">
        <ele>2136.0</ele>
        <time>2013-09-13T13:53:40Z</time>
      </trkpt>
      <trkpt lat="42.050183" lon="1.006617">
        <ele>2136.0</ele>
        <time>2013-09-13T13:53:41Z</time>
      </trkpt>
      <trkpt lat="42.050200" lon="1.006533">
        <ele>2136.0</ele>
        <time>2013-09-13T13:53:42Z</time>
      </trkpt>
      <trkpt lat="42.050250" lon="1.006467">
        <ele>2137.0</ele>
        <time>2013-09-13T13:53:43Z</time>
      </trkpt>
      <trkpt lat="42.050300" lon="1.006383">
        <ele>2137.0</ele>
        <time>2013-09-13T13:53:44Z</time>
      </trkpt>
      <trkpt lat="42.050367" lon="1.006333">
        <ele>2138.0</ele>
        <time>2013-09-13T13:53:45Z</time>
      </trkpt>
      <trkpt lat="42.050433" lon="1.006300">
        <ele>2138.0</ele>
        <time>2013-09-13T13:53:46Z</time>
      </trkpt>
      <trkpt lat="42.050500" lon="1.006267">
        <ele>2139.0</ele>
        <time>2013-09-13T13:53:47Z</time>
      </trkpt>
      <trkpt lat="42.050583" lon="1.006250">
        <ele>2140.0</ele>
        <time>2013-09-13T13:53:48Z</time>
      </trkpt>
      <trkpt lat="42.050667" lon="1.006233">
        <ele>2141.0</ele>
        <time>2013-09-13T13:53:49Z</time>
      </trkpt>
      <trkpt lat="42.050750" lon="1.006233">
        <ele>2141.0</ele>
        <time>2013-09-13T13:53:50Z</time>
      </trkpt>
      <trkpt lat="42.050833" lon="1.006250">
        <ele>2141.0</ele>
        <time>2013-09-13T13:53:51Z</time>
      </trkpt>
      <trkpt lat="42.050917" lon="1.006267">
        <ele>2142.0</ele>
        <time>2013-09-13T13:53:52Z</time>
      </trkpt>
      <trkpt lat="42.051000" lon="1.006333">
        <ele>2142.0</ele>
        <time>2013-09-13T13:53:53Z</time>
      </trkpt>
      <trkpt lat="42.051067" lon="1.006400">
        <ele>2143.0</ele>
        <time>2013-09-13T13:53:54Z</time>
      </trkpt>
      <trkpt lat="42.051133" lon="1.006483">
        <ele>2144.0</ele>
        <time>2013-09-13T13:53:55Z</time>
      </trkpt>
      <trkpt lat="42.051183" lon="1.006583">
        <ele>2146.0</ele>
        <time>2013-09-13T13:53:56Z</time>
      </trkpt>
      <trkpt lat="42.051233" lon="1.006667">
        <ele>2148.0</ele>
        <time>2013-09-13T13:53:57Z</time>
      </trkpt>
      <trkpt lat="42.051250" lon="1.006767">
        <ele>2150.0</ele>
        <time>2013-09-13T13:53:58Z</time>
      </trkpt>
      <trkpt lat="42.051283" lon="1.006867">
        <ele>2151.0</ele>
        <time>2013-09-13T13:53:59Z</time>
      </trkpt>
      <trkpt lat="42.051283" lon="1.006967">
        <ele>2152.0</ele>
        <time>2013-09-13T13:54:00Z</time>
      </trkpt>
      <trkpt lat="42.051283" lon="1.007083">
        <ele>2153.0</ele>
        <time>2013-09-13T13:54:01Z</time>
      </trkpt>
      <trkpt lat="42.051250" lon="1.007217">
        <ele>2155.0</ele>
        <time>2013-09-13T13:54:02Z</time>
      </trkpt>
      <trkpt lat="42.051217" lon="1.007317">
        <ele>2157.0</ele>
        <time>2013-09-13T13:54:03Z</time>
      </trkpt>
      <trkpt lat="42.051167" lon="1.007400">
        <ele>2159.0</ele>
        <time>2013-09-13T13:54:04Z</time>
      </trkpt>
      <trkpt lat="42.051100" lon="1.007483">
        <ele>2162.0</ele>
        <time>2013-09-13T13:54:05Z</time>
      </trkpt>
      <trkpt lat="42.051033" lon="1.007533">
        <ele>2164.0</ele>
        <time>2013-09-13T13:54:06Z</time>
      </trkpt>
      <trkpt lat="42.050950" lon="1.007583">
        <ele>2166.0</ele>
        <time>2013-09-13T13:54:07Z</time>
      </trkpt>
      <trkpt lat="42.050867" lon="1.007617">
        <ele>2168.0</ele>
        <time>2013-09-13T13:54:08Z</time>
      </trkpt>
      <trkpt lat="42.050767" lon="1.007650">
        <ele>2170.0</ele>
        <time>2013-09-13T13:54:09Z</time>
      </trkpt>
      <trkpt lat="42.050667" lon="1.007650">
        <ele>2172.0</ele>
        <time>2013-09-13T13:54:10Z</time>
      </trkpt>
      <trkpt lat="42.050583" lon="1.007617">
        <ele>2173.0</ele>
        <time>2013-09-13T13:54:11Z</time>
      </trkpt>
      <trkpt lat="42.050483" lon="1.007567">
        <ele>2175.0</ele>
        <time>2013-09-13T13:54:12Z</time>
      </trkpt>
      <trkpt lat="42.050417" lon="1.007483">
        <ele>2177.0</ele>
        <time>2013-09-13T13:54:13Z</time>
      </trkpt>
      <trkpt lat="42.050350" lon="1.007400">
        <ele>2179.0</ele>
        <time>2013-09-13T13:54:14Z</time>
      </trkpt>
      <trkpt lat="42.050300" lon="1.007300">
        <ele>2180.0</ele>
        <time>2013-09-13T13:54:15Z</time>
      </trkpt>
      <trkpt lat="42.050267" lon="1.007200">
        <ele>2181.0</ele>
        <time>2013-09-13T13:54:16Z</time>
      </trkpt>
      <trkpt lat="42.050250" lon="1.007117">
        <ele>2183.0</ele>
        <time>2013-09-13T13:54:17Z</time>
      </trkpt>
      <trkpt lat="42.050233" lon="1.007033">
        <ele>2184.0</ele>
        <time>2013-09-13T13:54:18Z</time>
      </trkpt>
      <trkpt lat="42.050233" lon="1.006950">
        <ele>2185.0</ele>
        <time>2013-09-13T13:54:19Z</time>
      </trkpt>
      <trkpt lat="42.050233" lon="1.006867">
        <ele>2185.0</ele>
        <time>2013-09-13T13:54:20Z</time>
      </trkpt>
      <trkpt lat="42.050250" lon="1.006750">
        <ele>2185.0</ele>
        <time>2013-09-13T13:54:21Z</time>
      </trkpt>
      <trkpt lat="42.050283" lon="1.006650">
        <ele>2185.0</ele>
        <time>2013-09-13T13:54:22Z</time>
      </trkpt>
      <trkpt lat="42.050317" lon="1.006567">
        <ele>2186.0</ele>
        <time>2013-09-13T13:54:23Z</time>
      </trkpt>
      <trkpt lat="42.050350" lon="1.006483">
        <ele>2187.0</ele>
        <time>2013-09-13T13:54:24Z</time>
      </trkpt>
      <trkpt lat="42.050383" lon="1.006417">
        <ele>2188.0</ele>
        <time>2013-09-13T13:54:25Z</time>
      </trkpt>
      <trkpt lat="42.050417" lon="1.006367">
        <ele>2189.0</ele>
        <time>2013-09-13T13:54:26Z</time>
      </trkpt>
      <trkpt lat="42.050467" lon="1.006300">
        <ele>2187.0</ele>
        <time>2013-09-13T13:54:27Z</time>
      </trkpt>
      <trkpt lat="42.050533" lon="1.006233">
        <ele>2185.0</ele>
        <time>2013-09-13T13:54:28Z</time>
      </trkpt>
      <trkpt lat="42.050600" lon="1.006200">
        <ele>2184.0</ele>
        <time>2013-09-13T13:54:29Z</time>
      </trkpt>
      <trkpt lat="42.050683" lon="1.006200">
        <ele>2183.0</ele>
        <time>2013-09-13T13:54:30Z</time>
      </trkpt>
      <trkpt lat="42.050767" lon="1.006200">
        <ele>2182.0</ele>
        <time>2013-09-13T13:54:31Z</time>
      </trkpt>
      <trkpt lat="42.050850" lon="1.006200">
        <ele>2182.0</ele>
        <time>2013-09-13T13:54:32Z</time>
      </trkpt>
      <trkpt lat="42.050950" lon="1.006183">
        <ele>2182.0</ele>
        <time>2013-09-13T13:54:33Z</time>
      </trkpt>
      <trkpt lat="42.051033" lon="1.006167">
        <ele>2182.0</ele>
        <time>2013-09-13T13:54:34Z</time>
      </trkpt>
      <trkpt lat="42.051117" lon="1.006183">
        <ele>2183.0</ele>
        <time>2013-09-13T13:54:35Z</time>
      </trkpt>
      <trkpt lat="42.051183" lon="1.006217">
        <ele>2185.0</ele>
        <time>2013-09-13T13:54:36Z</time>
      </trkpt>
      <trkpt lat="42.051250" lon="1.006250">
        <ele>2186.0</ele>
        <time>2013-09-13T13:54:37Z</time>
      </trkpt>
      <trkpt lat="42.051317" lon="1.006283">
        <ele>2187.0</ele>
        <time>2013-09-13T13:54:38Z</time>
      </trkpt>
      <trkpt lat="42.051483" lon="1.006317">
        <ele>2188.0</ele>
        <time>2013-09-13T13:54:40Z</time>
      </trkpt>
      <trkpt lat="42.051567" lon="1.006333">
        <ele>2188.0</ele>
        <time>2013-09-13T13:54:41Z</time>
      </trkpt>
      <trkpt lat="42.051650" lon="1.006350">
        <ele>2190.0</ele>
        <time>2013-09-13T13:54:42Z</time>
      </trkpt>
      <trkpt lat="42.051717" lon="1.006383">
        <ele>2192.0</ele>
        <time>2013-09-13T13:54:43Z</time>
      </trkpt>
      <trkpt lat="42.051783" lon="1.006400">
        <ele>2194.0</ele>
        <time>2013-09-13T13:54:44Z</time>
      </trkpt>
      <trkpt lat="42.051850" lon="1.006433">
        <ele>2195.0</ele>
        <time>2013-09-13T13:54:45Z</time>
      </trkpt>
      <trkpt lat="42.051900" lon="1.006483">
        <ele>2196.0</ele>
        <time>2013-09-13T13:54:46Z</time>
      </trkpt>
      <trkpt lat="42.051967" lon="1.006583">
        <ele>2196.0</ele>
        <time>2013-09-13T13:54:47Z</time>
      </trkpt>
      <trkpt lat="42.052000" lon="1.006683">
        <ele>2197.0</ele>
        <time>2013-09-13T13:54:48Z</time>
      </trkpt>
      <trkpt lat="42.052017" lon="1.006783">
        <ele>2197.0</ele>
        <time>2013-09-13T13:54:49Z</time>
      </trkpt>
      <trkpt lat="42.052017" lon="1.006883">
        <ele>2198.0</ele>
        <time>2013-09-13T13:54:50Z</time>
      </trkpt>
      <trkpt lat="42.052000" lon="1.006983">
        <ele>2199.0</ele>
        <time>2013-09-13T13:54:51Z</time>
      </trkpt>
      <trkpt lat="42.051983" lon="1.007083">
        <ele>2200.0</ele>
        <time>2013-09-13T13:54:52Z</time>
      </trkpt>
      <trkpt lat="42.051933" lon="1.007200">
        <ele>2200.0</ele>
        <time>2013-09-13T13:54:53Z</time>
      </trkpt>
      <trkpt lat="42.051883" lon="1.007300">
        <ele>2200.0</ele>
        <time>2013-09-13T13:54:54Z</time>
      </trkpt>
      <trkpt lat="42.051800" lon="1.007383">
        <ele>2200.0</ele>
        <time>2013-09-13T13:54:55Z</time>
      </trkpt>
      <trkpt lat="42.051733" lon="1.007433">
        <ele>2201.0</ele>
        <time>2013-09-13T13:54:56Z</time>
      </trkpt>
      <trkpt lat="42.051667" lon="1.007483">
        <ele>2202.0</ele>
        <time>2013-09-13T13:54:57Z</time>
      </trkpt>
      <trkpt lat="42.051567" lon="1.007533">
        <ele>2202.0</ele>
        <time>2013-09-13T13:54:58Z</time>
      </trkpt>
      <trkpt lat="42.051467" lon="1.007567">
        <ele>2202.0</ele>
        <time>2013-09-13T13:54:59Z</time>
      </trkpt>
      <trkpt lat="42.051383" lon="1.007567">
        <ele>2204.0</ele>
        <time>2013-09-13T13:55:00Z</time>
      </trkpt>
      <trkpt lat="42.051317" lon="1.007533">
        <ele>2206.0</ele>
        <time>2013-09-13T13:55:01Z</time>
      </trkpt>
      <trkpt lat="42.051250" lon="1.007500">
        <ele>2208.0</ele>
        <time>2013-09-13T13:55:02Z</time>
      </trkpt>
      <trkpt lat="42.051183" lon="1.007433">
        <ele>2209.0</ele>
        <time>2013-09-13T13:55:03Z</time>
      </trkpt>
      <trkpt lat="42.051133" lon="1.007367">
        <ele>2209.0</ele>
        <time>2013-09-13T13:55:04Z</time>
      </trkpt>
      <trkpt lat="42.051083" lon="1.007267">
        <ele>2209.0</ele>
        <time>2013-09-13T13:55:05Z</time>
      </trkpt>
      <trkpt lat="42.051033" lon="1.007167">
        <ele>2209.0</ele>
        <time>2013-09-13T13:55:06Z</time>
      </trkpt>
      <trkpt lat="42.051017" lon="1.007050">
        <ele>2210.0</ele>
        <time>2013-09-13T13:55:07Z</time>
      </trkpt>
      <trkpt lat="42.051000" lon="1.006950">
        <ele>2211.0</ele>
        <time>2013-09-13T13:55:08Z</time>
      </trkpt>
      <trkpt lat="42.051000" lon="1.006850">
        <ele>2213.0</ele>
        <time>2013-09-13T13:55:09Z</time>
      </trkpt>
      <trkpt lat="42.051017" lon="1.006767">
        <ele>2214.0</ele>
        <time>2013-09-13T13:55:10Z</time>
      </trkpt>
      <trkpt lat="42.051050" lon="1.006683">
        <ele>2215.0</ele>
        <time>2013-09-13T13:55:11Z</time>
      </trkpt>
      <trkpt lat="42.051083" lon="1.006600">
        <ele>2216.0</ele>
        <time>2013-09-13T13:55:12Z</time>
      </trkpt>
      <trkpt lat="42.051117" lon="1.006500">
        <ele>2216.0</ele>
        <time>2013-09-13T13:55:13Z</time>
      </trkpt>
      <trkpt lat="42.051183" lon="1.006433">
        <ele>2215.0</ele>
        <time>2013-09-13T13:55:14Z</time>
      </trkpt>
      <trkpt lat="42.051250" lon="1.006367">
        <ele>2215.0</ele>
        <time>2013-09-13T13:55:15Z</time>
      </trkpt>
      <trkpt lat="42.051317" lon="1.006333">
        <ele>2216.0</ele>
        <time>2013-09-13T13:55:16Z</time>
      </trkpt>
      <trkpt lat="42.051400" lon="1.006317">
        <ele>2216.0</ele>
        <time>2013-09-13T13:55:17Z</time>
      </trkpt>
      <trkpt lat="42.051467" lon="1.006300">
        <ele>2216.0</ele>
        <time>2013-09-13T13:55:18Z</time>
      </trkpt>
      <trkpt lat="42.051550" lon="1.006283">
        <ele>2217.0</ele>
        <time>2013-09-13T13:55:19Z</time>
      </trkpt>
      <trkpt lat="42.051633" lon="1.006267">
        <ele>2217.0</ele>
        <time>2013-09-13T13:55:20Z</time>
      </trkpt>
      <trkpt lat="42.051717" lon="1.006283">
        <ele>2218.0</ele>
        <time>2013-09-13T13:55:21Z</time>
      </trkpt>
      <trkpt lat="42.051783" lon="1.006317">
        <ele>2219.0</ele>
        <time>2013-09-13T13:55:22Z</time>
      </trkpt>
      <trkpt lat="42.051850" lon="1.006350">
        <ele>2220.0</ele>
        <time>2013-09-13T13:55:23Z</time>
      </trkpt>
      <trkpt lat="42.051917" lon="1.006400">
        <ele>2220.0</ele>
        <time>2013-09-13T13:55:24Z</time>
      </trkpt>
      <trkpt lat="42.051983" lon="1.006433">
        <ele>2220.0</ele>
        <time>2013-09-13T13:55:25Z</time>
      </trkpt>
      <trkpt lat="42.052067" lon="1.006467">
        <ele>2221.0</ele>
        <time>2013-09-13T13:55:26Z</time>
      </trkpt>
      <trkpt lat="42.052133" lon="1.006500">
        <ele>2221.0</ele>
        <time>2013-09-13T13:55:27Z</time>
      </trkpt>
      <trkpt lat="42.052217" lon="1.006517">
        <ele>2221.0</ele>
        <time>2013-09-13T13:55:28Z</time>
      </trkpt>
      <trkpt lat="42.052300" lon="1.006533">
        <ele>2222.0</ele>
        <time>2013-09-13T13:55:29Z</time>
      </trkpt>
      <trkpt lat="42.052400" lon="1.006567">
        <ele>2221.0</ele>
        <time>2013-09-13T13:55:30Z</time>
      </trkpt>
      <trkpt lat="42.052483" lon="1.006600">
        <ele>2222.0</ele>
        <time>2013-09-13T13:55:31Z</time>
      </trkpt>
      <trkpt lat="42.052567" lon="1.006650">
        <ele>2223.0</ele>
        <time>2013-09-13T13:55:32Z</time>
      </trkpt>
      <trkpt lat="42.052633" lon="1.006683">
        <ele>2224.0</ele>
        <time>2013-09-13T13:55:33Z</time>
      </trkpt>
      <trkpt lat="42.052717" lon="1.006733">
        <ele>2224.0</ele>
        <time>2013-09-13T13:55:34Z</time>
      </trkpt>
      <trkpt lat="42.052800" lon="1.006783">
        <ele>2224.0</ele>
        <time>2013-09-13T13:55:35Z</time>
      </trkpt>
      <trkpt lat="42.052900" lon="1.006850">
        <ele>2224.0</ele>
        <time>2013-09-13T13:55:36Z</time>
      </trkpt>
      <trkpt lat="42.053000" lon="1.006917">
        <ele>2223.0</ele>
        <time>2013-09-13T13:55:37Z</time>
      </trkpt>
      <trkpt lat="42.053100" lon="1.006967">
        <ele>2225.0</ele>
        <time>2013-09-13T13:55:38Z</time>
      </trkpt>
      <trkpt lat="42.053183" lon="1.007017">
        <ele>2227.0</ele>
        <time>2013-09-13T13:55:39Z</time>
      </trkpt>
      <trkpt lat="42.053250" lon="1.007067">
        <ele>2228.0</ele>
        <time>2013-09-13T13:55:40Z</time>
      </trkpt>
      <trkpt lat="42.053333" lon="1.007117">
        <ele>2228.0</ele>
        <time>2013-09-13T13:55:41Z</time>
      </trkpt>
      <trkpt lat="42.053417" lon="1.007183">
        <ele>2228.0</ele>
        <time>2013-09-13T13:55:42Z</time>
      </trkpt>
      <trkpt lat="42.053500" lon="1.007250">
        <ele>2228.0</ele>
        <time>2013-09-13T13:55:43Z</time>
      </trkpt>
      <trkpt lat="42.053583" lon="1.007300">
        <ele>2228.0</ele>
        <time>2013-09-13T13:55:44Z</time>
      </trkpt>
      <trkpt lat="42.053650" lon="1.007350">
        <ele>2229.0</ele>
        <time>2013-09-13T13:55:45Z</time>
      </trkpt>
      <trkpt lat="42.053700" lon="1.007400">
        <ele>2230.0</ele>
        <time>2013-09-13T13:55:46Z</time>
      </trkpt>
      <trkpt lat="42.053767" lon="1.007433">
        <ele>2231.0</ele>
        <time>2013-09-13T13:55:47Z</time>
      </trkpt>
      <trkpt lat="42.053833" lon="1.007483">
        <ele>2231.0</ele>
        <time>2013-09-13T13:55:48Z</time>
      </trkpt>
      <trkpt lat="42.053917" lon="1.007533">
        <ele>2230.0</ele>
        <time>2013-09-13T13:55:49Z</time>
      </trkpt>
      <trkpt lat="42.054000" lon="1.007583">
        <ele>2229.0</ele>
        <time>2013-09-13T13:55:50Z</time>
      </trkpt>
      <trkpt lat="42.054067" lon="1.007633">
        <ele>2227.0</ele>
        <time>2013-09-13T13:55:51Z</time>
      </trkpt>
      <trkpt lat="42.054117" lon="1.007683">
        <ele>2225.0</ele>
        <time>2013-09-13T13:55:52Z</time>
      </trkpt>
      <trkpt lat="42.054183" lon="1.007750">
        <ele>2222.0</ele>
        <time>2013-09-13T13:55:53Z</time>
      </trkpt>
      <trkpt lat="42.054250" lon="1.007800">
        <ele>2219.0</ele>
        <time>2013-09-13T13:55:54Z</time>
      </trkpt>
      <trkpt lat="42.054333" lon="1.007867">
        <ele>2216.0</ele>
        <time>2013-09-13T13:55:55Z</time>
      </trkpt>
      <trkpt lat="42.054433" lon="1.007900">
        <ele>2214.0</ele>
        <time>2013-09-13T13:55:56Z</time>
      </trkpt>
      <trkpt lat="42.054517" lon="1.007950">
        <ele>2212.0</ele>
        <time>2013-09-13T13:55:57Z</time>
      </trkpt>
      <trkpt lat="42.054600" lon="1.007967">
        <ele>2212.0</ele>
        <time>2013-09-13T13:55:58Z</time>
      </trkpt>
      <trkpt lat="42.054683" lon="1.008000">
        <ele>2212.0</ele>
        <time>2013-09-13T13:55:59Z</time>
      </trkpt>
      <trkpt lat="42.054767" lon="1.008000">
        <ele>2213.0</ele>
        <time>2013-09-13T13:56:00Z</time>
      </trkpt>
      <trkpt lat="42.054850" lon="1.008000">
        <ele>2214.0</ele>
        <time>2013-09-13T13:56:01Z</time>
      </trkpt>
      <trkpt lat="42.054950" lon="1.008000">
        <ele>2213.0</ele>
        <time>2013-09-13T13:56:02Z</time>
      </trkpt>
      <trkpt lat="42.055050" lon="1.008017">
        <ele>2213.0</ele>
        <time>2013-09-13T13:56:03Z</time>
      </trkpt>
      <trkpt lat="42.055133" lon="1.008033">
        <ele>2213.0</ele>
        <time>2013-09-13T13:56:04Z</time>
      </trkpt>
      <trkpt lat="42.055200" lon="1.008083">
        <ele>2214.0</ele>
        <time>2013-09-13T13:56:05Z</time>
      </trkpt>
      <trkpt lat="42.055267" lon="1.008117">
        <ele>2215.0</ele>
        <time>2013-09-13T13:56:06Z</time>
      </trkpt>
      <trkpt lat="42.055333" lon="1.008150">
        <ele>2215.0</ele>
        <time>2013-09-13T13:56:07Z</time>
      </trkpt>
      <trkpt lat="42.055400" lon="1.008167">
        <ele>2214.0</ele>
        <time>2013-09-13T13:56:08Z</time>
      </trkpt>
      <trkpt lat="42.055483" lon="1.008200">
        <ele>2213.0</ele>
        <time>2013-09-13T13:56:09Z</time>
      </trkpt>
      <trkpt lat="42.055567" lon="1.008217">
        <ele>2212.0</ele>
        <time>2013-09-13T13:56:10Z</time>
      </trkpt>
      <trkpt lat="42.055650" lon="1.008233">
        <ele>2214.0</ele>
        <time>2013-09-13T13:56:11Z</time>
      </trkpt>
      <trkpt lat="42.055717" lon="1.008250">
        <ele>2217.0</ele>
        <time>2013-09-13T13:56:12Z</time>
      </trkpt>
      <trkpt lat="42.055767" lon="1.008250">
        <ele>2219.0</ele>
        <time>2013-09-13T13:56:13Z</time>
      </trkpt>
      <trkpt lat="42.055817" lon="1.008267">
        <ele>2220.0</ele>
        <time>2013-09-13T13:56:14Z</time>
      </trkpt>
      <trkpt lat="42.055883" lon="1.008267">
        <ele>2221.0</ele>
        <time>2013-09-13T13:56:15Z</time>
      </trkpt>
      <trkpt lat="42.055983" lon="1.008283">
        <ele>2220.0</ele>
        <time>2013-09-13T13:56:16Z</time>
      </trkpt>
      <trkpt lat="42.056067" lon="1.008300">
        <ele>2219.0</ele>
        <time>2013-09-13T13:56:17Z</time>
      </trkpt>
      <trkpt lat="42.056150" lon="1.008300">
        <ele>2219.0</ele>
        <time>2013-09-13T13:56:18Z</time>
      </trkpt>
      <trkpt lat="42.056217" lon="1.008317">
        <ele>2219.0</ele>
        <time>2013-09-13T13:56:19Z</time>
      </trkpt>
      <trkpt lat="42.056283" lon="1.008333">
        <ele>2219.0</ele>
        <time>2013-09-13T13:56:20Z</time>
      </trkpt>
      <trkpt lat="42.056367" lon="1.008350">
        <ele>2218.0</ele>
        <time>2013-09-13T13:56:21Z</time>
      </trkpt>
      <trkpt lat="42.056450" lon="1.008383">
        <ele>2216.0</ele>
        <time>2013-09-13T13:56:22Z</time>
      </trkpt>
      <trkpt lat="42.056550" lon="1.008417">
        <ele>2215.0</ele>
        <time>2013-09-13T13:56:23Z</time>
      </trkpt>
      <trkpt lat="42.056650" lon="1.008450">
        <ele>2214.0</ele>
        <time>2013-09-13T13:56:24Z</time>
      </trkpt>
      <trkpt lat="42.056733" lon="1.008500">
        <ele>2215.0</ele>
        <time>2013-09-13T13:56:25Z</time>
      </trkpt>
      <trkpt lat="42.056817" lon="1.008533">
        <ele>2217.0</ele>
        <time>2013-09-13T13:56:26Z</time>
      </trkpt>
      <trkpt lat="42.056883" lon="1.008583">
        <ele>2217.0</ele>
        <time>2013-09-13T13:56:27Z</time>
      </trkpt>
      <trkpt lat="42.056967" lon="1.008617">
        <ele>2216.0</ele>
        <time>2013-09-13T13:56:28Z</time>
      </trkpt>
      <trkpt lat="42.057067" lon="1.008650">
        <ele>2215.0</ele>
        <time>2013-09-13T13:56:29Z</time>
      </trkpt>
      <trkpt lat="42.057167" lon="1.008700">
        <ele>2213.0</ele>
        <time>2013-09-13T13:56:30Z</time>
      </trkpt>
      <trkpt lat="42.057267" lon="1.008767">
        <ele>2210.0</ele>
        <time>2013-09-13T13:56:31Z</time>
      </trkpt>
      <trkpt lat="42.057367" lon="1.008833">
        <ele>2209.0</ele>
        <time>2013-09-13T13:56:32Z</time>
      </trkpt>
      <trkpt lat="42.057467" lon="1.008883">
        <ele>2208.0</ele>
        <time>2013-09-13T13:56:33Z</time>
      </trkpt>
      <trkpt lat="42.057550" lon="1.008917">
        <ele>2207.0</ele>
        <time>2013-09-13T13:56:34Z</time>
      </trkpt>
      <trkpt lat="42.057633" lon="1.008950">
        <ele>2205.0</ele>
        <time>2013-09-13T13:56:35Z</time>
      </trkpt>
      <trkpt lat="42.057733" lon="1.008983">
        <ele>2202.0</ele>
        <time>2013-09-13T13:56:36Z</time>
      </trkpt>
      <trkpt lat="42.057850" lon="1.009017">
        <ele>2197.0</ele>
        <time>2013-09-13T13:56:37Z</time>
      </trkpt>
      <trkpt lat="42.057967" lon="1.009083">
        <ele>2193.0</ele>
        <time>2013-09-13T13:56:38Z</time>
      </trkpt>
      <trkpt lat="42.058067" lon="1.009133">
        <ele>2189.0</ele>
        <time>2013-09-13T13:56:39Z</time>
      </trkpt>
      <trkpt lat="42.058150" lon="1.009183">
        <ele>2187.0</ele>
        <time>2013-09-13T13:56:40Z</time>
      </trkpt>
      <trkpt lat="42.058217" lon="1.009217">
        <ele>2186.0</ele>
        <time>2013-09-13T13:56:41Z</time>
      </trkpt>
      <trkpt lat="42.058300" lon="1.009267">
        <ele>2183.0</ele>
        <time>2013-09-13T13:56:42Z</time>
      </trkpt>
      <trkpt lat="42.058400" lon="1.009317">
        <ele>2179.0</ele>
        <time>2013-09-13T13:56:43Z</time>
      </trkpt>
      <trkpt lat="42.058517" lon="1.009383">
        <ele>2175.0</ele>
        <time>2013-09-13T13:56:44Z</time>
      </trkpt>
      <trkpt lat="42.058617" lon="1.009450">
        <ele>2172.0</ele>
        <time>2013-09-13T13:56:45Z</time>
      </trkpt>
      <trkpt lat="42.058717" lon="1.009500">
        <ele>2169.0</ele>
        <time>2013-09-13T13:56:46Z</time>
      </trkpt>
      <trkpt lat="42.058817" lon="1.009533">
        <ele>2168.0</ele>
        <time>2013-09-13T13:56:47Z</time>
      </trkpt>
      <trkpt lat="42.058917" lon="1.009567">
        <ele>2165.0</ele>
        <time>2013-09-13T13:56:48Z</time>
      </trkpt>
      <trkpt lat="42.059017" lon="1.009600">
        <ele>2163.0</ele>
        <time>2013-09-13T13:56:49Z</time>
      </trkpt>
      <trkpt lat="42.059117" lon="1.009633">
        <ele>2160.0</ele>
        <time>2013-09-13T13:56:50Z</time>
      </trkpt>
      <trkpt lat="42.059233" lon="1.009683">
        <ele>2157.0</ele>
        <time>2013-09-13T13:56:51Z</time>
      </trkpt>
      <trkpt lat="42.059350" lon="1.009733">
        <ele>2156.0</ele>
        <time>2013-09-13T13:56:52Z</time>
      </trkpt>
      <trkpt lat="42.059433" lon="1.009783">
        <ele>2156.0</ele>
        <time>2013-09-13T13:56:53Z</time>
      </trkpt>
      <trkpt lat="42.059517" lon="1.009833">
        <ele>2157.0</ele>
        <time>2013-09-13T13:56:54Z</time>
      </trkpt>
      <trkpt lat="42.059583" lon="1.009867">
        <ele>2157.0</ele>
        <time>2013-09-13T13:56:55Z</time>
      </trkpt>
      <trkpt lat="42.059667" lon="1.009900">
        <ele>2155.0</ele>
        <time>2013-09-13T13:56:56Z</time>
      </trkpt>
      <trkpt lat="42.059750" lon="1.009933">
        <ele>2153.0</ele>
        <time>2013-09-13T13:56:57Z</time>
      </trkpt>
      <trkpt lat="42.059850" lon="1.009983">
        <ele>2150.0</ele>
        <time>2013-09-13T13:56:58Z</time>
      </trkpt>
      <trkpt lat="42.059967" lon="1.010017">
        <ele>2147.0</ele>
        <time>2013-09-13T13:56:59Z</time>
      </trkpt>
      <trkpt lat="42.060067" lon="1.010067">
        <ele>2145.0</ele>
        <time>2013-09-13T13:57:00Z</time>
      </trkpt>
      <trkpt lat="42.060150" lon="1.010100">
        <ele>2145.0</ele>
        <time>2013-09-13T13:57:01Z</time>
      </trkpt>
      <trkpt lat="42.060233" lon="1.010150">
        <ele>2144.0</ele>
        <time>2013-09-13T13:57:02Z</time>
      </trkpt>
      <trkpt lat="42.060333" lon="1.010200">
        <ele>2143.0</ele>
        <time>2013-09-13T13:57:03Z</time>
      </trkpt>
      <trkpt lat="42.060433" lon="1.010250">
        <ele>2140.0</ele>
        <time>2013-09-13T13:57:04Z</time>
      </trkpt>
      <trkpt lat="42.060533" lon="1.010317">
        <ele>2138.0</ele>
        <time>2013-09-13T13:57:05Z</time>
      </trkpt>
      <trkpt lat="42.060650" lon="1.010383">
        <ele>2136.0</ele>
        <time>2013-09-13T13:57:06Z</time>
      </trkpt>
      <trkpt lat="42.060750" lon="1.010433">
        <ele>2136.0</ele>
        <time>2013-09-13T13:57:07Z</time>
      </trkpt>
      <trkpt lat="42.060833" lon="1.010483">
        <ele>2137.0</ele>
        <time>2013-09-13T13:57:08Z</time>
      </trkpt>
      <trkpt lat="42.060900" lon="1.010533">
        <ele>2137.0</ele>
        <time>2013-09-13T13:57:09Z</time>
      </trkpt>
      <trkpt lat="42.061000" lon="1.010600">
        <ele>2136.0</ele>
        <time>2013-09-13T13:57:10Z</time>
      </trkpt>
      <trkpt lat="42.061100" lon="1.010650">
        <ele>2134.0</ele>
        <time>2013-09-13T13:57:11Z</time>
      </trkpt>
      <trkpt lat="42.061317" lon="1.010817">
        <ele>2132.0</ele>
        <time>2013-09-13T13:57:13Z</time>
      </trkpt>
      <trkpt lat="42.061400" lon="1.010883">
        <ele>2133.0</ele>
        <time>2013-09-13T13:57:14Z</time>
      </trkpt>
      <trkpt lat="42.061500" lon="1.010933">
        <ele>2132.0</ele>
        <time>2013-09-13T13:57:15Z</time>
      </trkpt>
      <trkpt lat="42.061600" lon="1.011000">
        <ele>2132.0</ele>
        <time>2013-09-13T13:57:16Z</time>
      </trkpt>
      <trkpt lat="42.061700" lon="1.011067">
        <ele>2130.0</ele>
        <time>2013-09-13T13:57:17Z</time>
      </trkpt>
      <trkpt lat="42.061800" lon="1.011133">
        <ele>2129.0</ele>
        <time>2013-09-13T13:57:18Z</time>
      </trkpt>
      <trkpt lat="42.061900" lon="1.011200">
        <ele>2128.0</ele>
        <time>2013-09-13T13:57:19Z</time>
      </trkpt>
      <trkpt lat="42.062100" lon="1.011317">
        <ele>2126.0</ele>
        <time>2013-09-13T13:57:21Z</time>
      </trkpt>
      <trkpt lat="42.062200" lon="1.011367">
        <ele>2124.0</ele>
        <time>2013-09-13T13:57:22Z</time>
      </trkpt>
      <trkpt lat="42.062317" lon="1.011433">
        <ele>2122.0</ele>
        <time>2013-09-13T13:57:23Z</time>
      </trkpt>
      <trkpt lat="42.062433" lon="1.011483">
        <ele>2120.0</ele>
        <time>2013-09-13T13:57:24Z</time>
      </trkpt>
      <trkpt lat="42.062533" lon="1.011550">
        <ele>2119.0</ele>
        <time>2013-09-13T13:57:25Z</time>
      </trkpt>
      <trkpt lat="42.062633" lon="1.011600">
        <ele>2118.0</ele>
        <time>2013-09-13T13:57:26Z</time>
      </trkpt>
      <trkpt lat="42.062733" lon="1.011683">
        <ele>2116.0</ele>
        <time>2013-09-13T13:57:27Z</time>
      </trkpt>
      <trkpt lat="42.062833" lon="1.011733">
        <ele>2112.0</ele>
        <time>2013-09-13T13:57:28Z</time>
      </trkpt>
      <trkpt lat="42.062933" lon="1.011817">
        <ele>2109.0</ele>
        <time>2013-09-13T13:57:29Z</time>
      </trkpt>
      <trkpt lat="42.063050" lon="1.011883">
        <ele>2105.0</ele>
        <time>2013-09-13T13:57:30Z</time>
      </trkpt>
      <trkpt lat="42.063167" lon="1.011967">
        <ele>2102.0</ele>
        <time>2013-09-13T13:57:31Z</time>
      </trkpt>
      <trkpt lat="42.063267" lon="1.012050">
        <ele>2099.0</ele>
        <time>2013-09-13T13:57:32Z</time>
      </trkpt>
      <trkpt lat="42.063367" lon="1.012133">
        <ele>2097.0</ele>
        <time>2013-09-13T13:57:33Z</time>
      </trkpt>
      <trkpt lat="42.063483" lon="1.012200">
        <ele>2095.0</ele>
        <time>2013-09-13T13:57:34Z</time>
      </trkpt>
      <trkpt lat="42.063583" lon="1.012283">
        <ele>2094.0</ele>
        <time>2013-09-13T13:57:35Z</time>
      </trkpt>
      <trkpt lat="42.063667" lon="1.012350">
        <ele>2093.0</ele>
        <time>2013-09-13T13:57:36Z</time>
      </trkpt>
      <trkpt lat="42.063767" lon="1.012433">
        <ele>2091.0</ele>
        <time>2013-09-13T13:57:37Z</time>
      </trkpt>
      <trkpt lat="42.063867" lon="1.012517">
        <ele>2089.0</ele>
        <time>2013-09-13T13:57:38Z</time>
      </trkpt>
      <trkpt lat="42.063983" lon="1.012583">
        <ele>2086.0</ele>
        <time>2013-09-13T13:57:39Z</time>
      </trkpt>
      <trkpt lat="42.064083" lon="1.012650">
        <ele>2084.0</ele>
        <time>2013-09-13T13:57:40Z</time>
      </trkpt>
      <trkpt lat="42.064183" lon="1.012717">
        <ele>2082.0</ele>
        <time>2013-09-13T13:57:41Z</time>
      </trkpt>
      <trkpt lat="42.064267" lon="1.012783">
        <ele>2080.0</ele>
        <time>2013-09-13T13:57:42Z</time>
      </trkpt>
      <trkpt lat="42.064367" lon="1.012850">
        <ele>2078.0</ele>
        <time>2013-09-13T13:57:43Z</time>
      </trkpt>
      <trkpt lat="42.064450" lon="1.012917">
        <ele>2076.0</ele>
        <time>2013-09-13T13:57:44Z</time>
      </trkpt>
      <trkpt lat="42.064533" lon="1.013000">
        <ele>2074.0</ele>
        <time>2013-09-13T13:57:45Z</time>
      </trkpt>
      <trkpt lat="42.064617" lon="1.013067">
        <ele>2071.0</ele>
        <time>2013-09-13T13:57:46Z</time>
      </trkpt>
      <trkpt lat="42.064700" lon="1.013150">
        <ele>2069.0</ele>
        <time>2013-09-13T13:57:47Z</time>
      </trkpt>
      <trkpt lat="42.064783" lon="1.013233">
        <ele>2066.0</ele>
        <time>2013-09-13T13:57:48Z</time>
      </trkpt>
      <trkpt lat="42.064867" lon="1.013333">
        <ele>2063.0</ele>
        <time>2013-09-13T13:57:49Z</time>
      </trkpt>
      <trkpt lat="42.064967" lon="1.013433">
        <ele>2060.0</ele>
        <time>2013-09-13T13:57:50Z</time>
      </trkpt>
      <trkpt lat="42.065050" lon="1.013517">
        <ele>2057.0</ele>
        <time>2013-09-13T13:57:51Z</time>
      </trkpt>
      <trkpt lat="42.065133" lon="1.013600">
        <ele>2055.0</ele>
        <time>2013-09-13T13:57:52Z</time>
      </trkpt>
      <trkpt lat="42.065200" lon="1.013667">
        <ele>2055.0</ele>
        <time>2013-09-13T13:57:53Z</time>
      </trkpt>
      <trkpt lat="42.065283" lon="1.013750">
        <ele>2053.0</ele>
        <time>2013-09-13T13:57:54Z</time>
      </trkpt>
      <trkpt lat="42.065367" lon="1.013833">
        <ele>2051.0</ele>
        <time>2013-09-13T13:57:55Z</time>
      </trkpt>
      <trkpt lat="42.065467" lon="1.013933">
        <ele>2049.0</ele>
        <time>2013-09-13T13:57:56Z</time>
      </trkpt>
      <trkpt lat="42.065550" lon="1.014017">
        <ele>2046.0</ele>
        <time>2013-09-13T13:57:57Z</time>
      </trkpt>
      <trkpt lat="42.065633" lon="1.014100">
        <ele>2045.0</ele>
        <time>2013-09-13T13:57:58Z</time>
      </trkpt>
      <trkpt lat="42.065717" lon="1.014200">
        <ele>2044.0</ele>
        <time>2013-09-13T13:57:59Z</time>
      </trkpt>
      <trkpt lat="42.065800" lon="1.014300">
        <ele>2042.0</ele>
        <time>2013-09-13T13:58:00Z</time>
      </trkpt>
      <trkpt lat="42.065883" lon="1.014400">
        <ele>2040.0</ele>
        <time>2013-09-13T13:58:01Z</time>
      </trkpt>
      <trkpt lat="42.065967" lon="1.014483">
        <ele>2037.0</ele>
        <time>2013-09-13T13:58:02Z</time>
      </trkpt>
      <trkpt lat="42.066050" lon="1.014583">
        <ele>2035.0</ele>
        <time>2013-09-13T13:58:03Z</time>
      </trkpt>
      <trkpt lat="42.066133" lon="1.014667">
        <ele>2034.0</ele>
        <time>2013-09-13T13:58:04Z</time>
      </trkpt>
      <trkpt lat="42.066217" lon="1.014750">
        <ele>2033.0</ele>
        <time>2013-09-13T13:58:05Z</time>
      </trkpt>
      <trkpt lat="42.066300" lon="1.014817">
        <ele>2032.0</ele>
        <time>2013-09-13T13:58:06Z</time>
      </trkpt>
      <trkpt lat="42.066383" lon="1.014883">
        <ele>2031.0</ele>
        <time>2013-09-13T13:58:07Z</time>
      </trkpt>
      <trkpt lat="42.066467" lon="1.014950">
        <ele>2031.0</ele>
        <time>2013-09-13T13:58:08Z</time>
      </trkpt>
      <trkpt lat="42.066550" lon="1.015017">
        <ele>2030.0</ele>
        <time>2013-09-13T13:58:09Z</time>
      </trkpt>
      <trkpt lat="42.066633" lon="1.015083">
        <ele>2029.0</ele>
        <time>2013-09-13T13:58:10Z</time>
      </trkpt>
      <trkpt lat="42.066733" lon="1.015150">
        <ele>2027.0</ele>
        <time>2013-09-13T13:58:11Z</time>
      </trkpt>
      <trkpt lat="42.066917" lon="1.015283">
        <ele>2024.0</ele>
        <time>2013-09-13T13:58:13Z</time>
      </trkpt>
      <trkpt lat="42.067017" lon="1.015333">
        <ele>2023.0</ele>
        <time>2013-09-13T13:58:14Z</time>
      </trkpt>
      <trkpt lat="42.067200" lon="1.015450">
        <ele>2022.0</ele>
        <time>2013-09-13T13:58:16Z</time>
      </trkpt>
      <trkpt lat="42.067300" lon="1.015500">
        <ele>2021.0</ele>
        <time>2013-09-13T13:58:17Z</time>
      </trkpt>
      <trkpt lat="42.067400" lon="1.015550">
        <ele>2020.0</ele>
        <time>2013-09-13T13:58:18Z</time>
      </trkpt>
      <trkpt lat="42.067500" lon="1.015600">
        <ele>2020.0</ele>
        <time>2013-09-13T13:58:19Z</time>
      </trkpt>
      <trkpt lat="42.067583" lon="1.015667">
        <ele>2019.0</ele>
        <time>2013-09-13T13:58:20Z</time>
      </trkpt>
      <trkpt lat="42.067683" lon="1.015717">
        <ele>2018.0</ele>
        <time>2013-09-13T13:58:21Z</time>
      </trkpt>
      <trkpt lat="42.067767" lon="1.015767">
        <ele>2017.0</ele>
        <time>2013-09-13T13:58:22Z</time>
      </trkpt>
      <trkpt lat="42.067867" lon="1.015833">
        <ele>2015.0</ele>
        <time>2013-09-13T13:58:23Z</time>
      </trkpt>
      <trkpt lat="42.067967" lon="1.015917">
        <ele>2013.0</ele>
        <time>2013-09-13T13:58:24Z</time>
      </trkpt>
      <trkpt lat="42.068050" lon="1.015983">
        <ele>2011.0</ele>
        <time>2013-09-13T13:58:25Z</time>
      </trkpt>
      <trkpt lat="42.068150" lon="1.016050">
        <ele>2010.0</ele>
        <time>2013-09-13T13:58:26Z</time>
      </trkpt>
      <trkpt lat="42.068250" lon="1.016083">
        <ele>2009.0</ele>
        <time>2013-09-13T13:58:27Z</time>
      </trkpt>
      <trkpt lat="42.068350" lon="1.016133">
        <ele>2008.0</ele>
        <time>2013-09-13T13:58:28Z</time>
      </trkpt>
      <trkpt lat="42.068433" lon="1.016167">
        <ele>2007.0</ele>
        <time>2013-09-13T13:58:29Z</time>
      </trkpt>
      <trkpt lat="42.068533" lon="1.016217">
        <ele>2005.0</ele>
        <time>2013-09-13T13:58:30Z</time>
      </trkpt>
      <trkpt lat="42.068633" lon="1.016267">
        <ele>2004.0</ele>
        <time>2013-09-13T13:58:31Z</time>
      </trkpt>
      <trkpt lat="42.068717" lon="1.016317">
        <ele>2004.0</ele>
        <time>2013-09-13T13:58:32Z</time>
      </trkpt>
      <trkpt lat="42.068800" lon="1.016367">
        <ele>2003.0</ele>
        <time>2013-09-13T13:58:33Z</time>
      </trkpt>
      <trkpt lat="42.068900" lon="1.016417">
        <ele>2003.0</ele>
        <time>2013-09-13T13:58:34Z</time>
      </trkpt>
      <trkpt lat="42.068983" lon="1.016467">
        <ele>2002.0</ele>
        <time>2013-09-13T13:58:35Z</time>
      </trkpt>
      <trkpt lat="42.069150" lon="1.016583">
        <ele>1999.0</ele>
        <time>2013-09-13T13:58:37Z</time>
      </trkpt>
      <trkpt lat="42.069233" lon="1.016650">
        <ele>1997.0</ele>
        <time>2013-09-13T13:58:38Z</time>
      </trkpt>
      <trkpt lat="42.069317" lon="1.016717">
        <ele>1995.0</ele>
        <time>2013-09-13T13:58:39Z</time>
      </trkpt>
      <trkpt lat="42.069417" lon="1.016767">
        <ele>1994.0</ele>
        <time>2013-09-13T13:58:40Z</time>
      </trkpt>
      <trkpt lat="42.069500" lon="1.016800">
        <ele>1992.0</ele>
        <time>2013-09-13T13:58:41Z</time>
      </trkpt>
      <trkpt lat="42.069583" lon="1.016833">
        <ele>1990.0</ele>
        <time>2013-09-13T13:58:42Z</time>
      </trkpt>
      <trkpt lat="42.069683" lon="1.016867">
        <ele>1989.0</ele>
        <time>2013-09-13T13:58:43Z</time>
      </trkpt>
      <trkpt lat="42.069767" lon="1.016900">
        <ele>1987.0</ele>
        <time>2013-09-13T13:58:44Z</time>
      </trkpt>
      <trkpt lat="42.069850" lon="1.016950">
        <ele>1986.0</ele>
        <time>2013-09-13T13:58:45Z</time>
      </trkpt>
      <trkpt lat="42.069917" lon="1.016983">
        <ele>1984.0</ele>
        <time>2013-09-13T13:58:46Z</time>
      </trkpt>
      <trkpt lat="42.070000" lon="1.017033">
        <ele>1982.0</ele>
        <time>2013-09-13T13:58:47Z</time>
      </trkpt>
      <trkpt lat="42.070083" lon="1.017083">
        <ele>1980.0</ele>
        <time>2013-09-13T13:58:48Z</time>
      </trkpt>
      <trkpt lat="42.070167" lon="1.017117">
        <ele>1977.0</ele>
        <time>2013-09-13T13:58:49Z</time>
      </trkpt>
      <trkpt lat="42.070250" lon="1.017133">
        <ele>1975.0</ele>
        <time>2013-09-13T13:58:50Z</time>
      </trkpt>
      <trkpt lat="42.070333" lon="1.017167">
        <ele>1973.0</ele>
        <time>2013-09-13T13:58:51Z</time>
      </trkpt>
      <trkpt lat="42.070417" lon="1.017217">
        <ele>1970.0</ele>
        <time>2013-09-13T13:58:52Z</time>
      </trkpt>
      <trkpt lat="42.070500" lon="1.017250">
        <ele>1967.0</ele>
        <time>2013-09-13T13:58:53Z</time>
      </trkpt>
      <trkpt lat="42.070600" lon="1.017300">
        <ele>1965.0</ele>
        <time>2013-09-13T13:58:54Z</time>
      </trkpt>
      <trkpt lat="42.070683" lon="1.017367">
        <ele>1962.0</ele>
        <time>2013-09-13T13:58:55Z</time>
      </trkpt>
      <trkpt lat="42.070767" lon="1.017417">
        <ele>1961.0</ele>
        <time>2013-09-13T13:58:56Z</time>
      </trkpt>
      <trkpt lat="42.070850" lon="1.017467">
        <ele>1960.0</ele>
        <time>2013-09-13T13:58:57Z</time>
      </trkpt>
      <trkpt lat="42.070933" lon="1.017517">
        <ele>1959.0</ele>
        <time>2013-09-13T13:58:58Z</time>
      </trkpt>
      <trkpt lat="42.071017" lon="1.017550">
        <ele>1957.0</ele>
        <time>2013-09-13T13:58:59Z</time>
      </trkpt>
      <trkpt lat="42.071100" lon="1.017617">
        <ele>1954.0</ele>
        <time>2013-09-13T13:59:00Z</time>
      </trkpt>
      <trkpt lat="42.071200" lon="1.017667">
        <ele>1952.0</ele>
        <time>2013-09-13T13:59:01Z</time>
      </trkpt>
      <trkpt lat="42.071300" lon="1.017733">
        <ele>1951.0</ele>
        <time>2013-09-13T13:59:02Z</time>
      </trkpt>
      <trkpt lat="42.071383" lon="1.017783">
        <ele>1951.0</ele>
        <time>2013-09-13T13:59:03Z</time>
      </trkpt>
      <trkpt lat="42.071450" lon="1.017817">
        <ele>1951.0</ele>
        <time>2013-09-13T13:59:04Z</time>
      </trkpt>
      <trkpt lat="42.071533" lon="1.017850">
        <ele>1950.0</ele>
        <time>2013-09-13T13:59:05Z</time>
      </trkpt>
      <trkpt lat="42.071617" lon="1.017900">
        <ele>1948.0</ele>
        <time>2013-09-13T13:59:06Z</time>
      </trkpt>
      <trkpt lat="42.071717" lon="1.017950">
        <ele>1946.0</ele>
        <time>2013-09-13T13:59:07Z</time>
      </trkpt>
      <trkpt lat="42.071817" lon="1.018017">
        <ele>1943.0</ele>
        <time>2013-09-13T13:59:08Z</time>
      </trkpt>
      <trkpt lat="42.071917" lon="1.018067">
        <ele>1941.0</ele>
        <time>2013-09-13T13:59:09Z</time>
      </trkpt>
      <trkpt lat="42.072000" lon="1.018117">
        <ele>1941.0</ele>
        <time>2013-09-13T13:59:10Z</time>
      </trkpt>
      <trkpt lat="42.072067" lon="1.018167">
        <ele>1941.0</ele>
        <time>2013-09-13T13:59:11Z</time>
      </trkpt>
      <trkpt lat="42.072150" lon="1.018217">
        <ele>1940.0</ele>
        <time>2013-09-13T13:59:12Z</time>
      </trkpt>
      <trkpt lat="42.072233" lon="1.018267">
        <ele>1939.0</ele>
        <time>2013-09-13T13:59:13Z</time>
      </trkpt>
      <trkpt lat="42.072317" lon="1.018333">
        <ele>1936.0</ele>
        <time>2013-09-13T13:59:14Z</time>
      </trkpt>
      <trkpt lat="42.072400" lon="1.018400">
        <ele>1934.0</ele>
        <time>2013-09-13T13:59:15Z</time>
      </trkpt>
      <trkpt lat="42.072483" lon="1.018467">
        <ele>1933.0</ele>
        <time>2013-09-13T13:59:16Z</time>
      </trkpt>
      <trkpt lat="42.072550" lon="1.018533">
        <ele>1933.0</ele>
        <time>2013-09-13T13:59:17Z</time>
      </trkpt>
      <trkpt lat="42.072617" lon="1.018583">
        <ele>1932.0</ele>
        <time>2013-09-13T13:59:18Z</time>
      </trkpt>
      <trkpt lat="42.072700" lon="1.018633">
        <ele>1931.0</ele>
        <time>2013-09-13T13:59:19Z</time>
      </trkpt>
      <trkpt lat="42.072783" lon="1.018700">
        <ele>1928.0</ele>
        <time>2013-09-13T13:59:20Z</time>
      </trkpt>
      <trkpt lat="42.072967" lon="1.018867">
        <ele>1925.0</ele>
        <time>2013-09-13T13:59:22Z</time>
      </trkpt>
      <trkpt lat="42.073050" lon="1.018950">
        <ele>1924.0</ele>
        <time>2013-09-13T13:59:23Z</time>
      </trkpt>
      <trkpt lat="42.073133" lon="1.019033">
        <ele>1925.0</ele>
        <time>2013-09-13T13:59:24Z</time>
      </trkpt>
      <trkpt lat="42.073217" lon="1.019117">
        <ele>1925.0</ele>
        <time>2013-09-13T13:59:25Z</time>
      </trkpt>
      <trkpt lat="42.073317" lon="1.019200">
        <ele>1925.0</ele>
        <time>2013-09-13T13:59:26Z</time>
      </trkpt>
      <trkpt lat="42.073400" lon="1.019283">
        <ele>1925.0</ele>
        <time>2013-09-13T13:59:27Z</time>
      </trkpt>
      <trkpt lat="42.073500" lon="1.019350">
        <ele>1927.0</ele>
        <time>2013-09-13T13:59:28Z</time>
      </trkpt>
      <trkpt lat="42.073567" lon="1.019400">
        <ele>1929.0</ele>
        <time>2013-09-13T13:59:29Z</time>
      </trkpt>
      <trkpt lat="42.073633" lon="1.019417">
        <ele>1930.0</ele>
        <time>2013-09-13T13:59:30Z</time>
      </trkpt>
      <trkpt lat="42.073700" lon="1.019450">
        <ele>1932.0</ele>
        <time>2013-09-13T13:59:31Z</time>
      </trkpt>
      <trkpt lat="42.073767" lon="1.019500">
        <ele>1932.0</ele>
        <time>2013-09-13T13:59:32Z</time>
      </trkpt>
      <trkpt lat="42.073833" lon="1.019533">
        <ele>1932.0</ele>
        <time>2013-09-13T13:59:33Z</time>
      </trkpt>
      <trkpt lat="42.073917" lon="1.019583">
        <ele>1931.0</ele>
        <time>2013-09-13T13:59:34Z</time>
      </trkpt>
      <trkpt lat="42.074000" lon="1.019617">
        <ele>1931.0</ele>
        <time>2013-09-13T13:59:35Z</time>
      </trkpt>
      <trkpt lat="42.074067" lon="1.019650">
        <ele>1932.0</ele>
        <time>2013-09-13T13:59:36Z</time>
      </trkpt>
      <trkpt lat="42.074133" lon="1.019683">
        <ele>1932.0</ele>
        <time>2013-09-13T13:59:37Z</time>
      </trkpt>
      <trkpt lat="42.074200" lon="1.019717">
        <ele>1931.0</ele>
        <time>2013-09-13T13:59:38Z</time>
      </trkpt>
      <trkpt lat="42.074267" lon="1.019767">
        <ele>1930.0</ele>
        <time>2013-09-13T13:59:39Z</time>
      </trkpt>
      <trkpt lat="42.074350" lon="1.019817">
        <ele>1928.0</ele>
        <time>2013-09-13T13:59:40Z</time>
      </trkpt>
      <trkpt lat="42.074433" lon="1.019883">
        <ele>1927.0</ele>
        <time>2013-09-13T13:59:41Z</time>
      </trkpt>
      <trkpt lat="42.074500" lon="1.019933">
        <ele>1927.0</ele>
        <time>2013-09-13T13:59:42Z</time>
      </trkpt>
      <trkpt lat="42.074550" lon="1.019983">
        <ele>1926.0</ele>
        <time>2013-09-13T13:59:43Z</time>
      </trkpt>
      <trkpt lat="42.074617" lon="1.020050">
        <ele>1925.0</ele>
        <time>2013-09-13T13:59:44Z</time>
      </trkpt>
      <trkpt lat="42.074700" lon="1.020117">
        <ele>1924.0</ele>
        <time>2013-09-13T13:59:45Z</time>
      </trkpt>
      <trkpt lat="42.074767" lon="1.020200">
        <ele>1922.0</ele>
        <time>2013-09-13T13:59:46Z</time>
      </trkpt>
      <trkpt lat="42.074833" lon="1.020283">
        <ele>1921.0</ele>
        <time>2013-09-13T13:59:47Z</time>
      </trkpt>
      <trkpt lat="42.074883" lon="1.020350">
        <ele>1920.0</ele>
        <time>2013-09-13T13:59:48Z</time>
      </trkpt>
      <trkpt lat="42.074950" lon="1.020417">
        <ele>1920.0</ele>
        <time>2013-09-13T13:59:49Z</time>
      </trkpt>
      <trkpt lat="42.075000" lon="1.020500">
        <ele>1919.0</ele>
        <time>2013-09-13T13:59:50Z</time>
      </trkpt>
      <trkpt lat="42.075067" lon="1.020567">
        <ele>1918.0</ele>
        <time>2013-09-13T13:59:51Z</time>
      </trkpt>
      <trkpt lat="42.075117" lon="1.020650">
        <ele>1917.0</ele>
        <time>2013-09-13T13:59:52Z</time>
      </trkpt>
      <trkpt lat="42.075183" lon="1.020733">
        <ele>1916.0</ele>
        <time>2013-09-13T13:59:53Z</time>
      </trkpt>
      <trkpt lat="42.075250" lon="1.020800">
        <ele>1915.0</ele>
        <time>2013-09-13T13:59:54Z</time>
      </trkpt>
      <trkpt lat="42.075317" lon="1.020850">
        <ele>1914.0</ele>
        <time>2013-09-13T13:59:55Z</time>
      </trkpt>
      <trkpt lat="42.075383" lon="1.020900">
        <ele>1914.0</ele>
        <time>2013-09-13T13:59:56Z</time>
      </trkpt>
      <trkpt lat="42.075450" lon="1.020950">
        <ele>1912.0</ele>
        <time>2013-09-13T13:59:57Z</time>
      </trkpt>
      <trkpt lat="42.075517" lon="1.020983">
        <ele>1910.0</ele>
        <time>2013-09-13T13:59:58Z</time>
      </trkpt>
      <trkpt lat="42.075600" lon="1.021033">
        <ele>1907.0</ele>
        <time>2013-09-13T13:59:59Z</time>
      </trkpt>
      <trkpt lat="42.075700" lon="1.021050">
        <ele>1904.0</ele>
        <time>2013-09-13T14:00:00Z</time>
      </trkpt>
      <trkpt lat="42.075783" lon="1.021050">
        <ele>1902.0</ele>
        <time>2013-09-13T14:00:01Z</time>
      </trkpt>
      <trkpt lat="42.075883" lon="1.021067">
        <ele>1900.0</ele>
        <time>2013-09-13T14:00:02Z</time>
      </trkpt>
      <trkpt lat="42.075967" lon="1.021067">
        <ele>1899.0</ele>
        <time>2013-09-13T14:00:03Z</time>
      </trkpt>
      <trkpt lat="42.076050" lon="1.021083">
        <ele>1897.0</ele>
        <time>2013-09-13T14:00:04Z</time>
      </trkpt>
      <trkpt lat="42.076133" lon="1.021083">
        <ele>1896.0</ele>
        <time>2013-09-13T14:00:05Z</time>
      </trkpt>
      <trkpt lat="42.076217" lon="1.021100">
        <ele>1894.0</ele>
        <time>2013-09-13T14:00:06Z</time>
      </trkpt>
      <trkpt lat="42.076317" lon="1.021100">
        <ele>1893.0</ele>
        <time>2013-09-13T14:00:07Z</time>
      </trkpt>
      <trkpt lat="42.076400" lon="1.021117">
        <ele>1892.0</ele>
        <time>2013-09-13T14:00:08Z</time>
      </trkpt>
      <trkpt lat="42.076467" lon="1.021133">
        <ele>1891.0</ele>
        <time>2013-09-13T14:00:09Z</time>
      </trkpt>
      <trkpt lat="42.076550" lon="1.021150">
        <ele>1890.0</ele>
        <time>2013-09-13T14:00:10Z</time>
      </trkpt>
      <trkpt lat="42.076633" lon="1.021167">
        <ele>1888.0</ele>
        <time>2013-09-13T14:00:11Z</time>
      </trkpt>
      <trkpt lat="42.076717" lon="1.021183">
        <ele>1886.0</ele>
        <time>2013-09-13T14:00:12Z</time>
      </trkpt>
      <trkpt lat="42.076800" lon="1.021200">
        <ele>1883.0</ele>
        <time>2013-09-13T14:00:13Z</time>
      </trkpt>
      <trkpt lat="42.076900" lon="1.021233">
        <ele>1881.0</ele>
        <time>2013-09-13T14:00:14Z</time>
      </trkpt>
      <trkpt lat="42.076983" lon="1.021250">
        <ele>1879.0</ele>
        <time>2013-09-13T14:00:15Z</time>
      </trkpt>
      <trkpt lat="42.077067" lon="1.021267">
        <ele>1877.0</ele>
        <time>2013-09-13T14:00:16Z</time>
      </trkpt>
      <trkpt lat="42.077167" lon="1.021300">
        <ele>1875.0</ele>
        <time>2013-09-13T14:00:17Z</time>
      </trkpt>
      <trkpt lat="42.077250" lon="1.021317">
        <ele>1873.0</ele>
        <time>2013-09-13T14:00:18Z</time>
      </trkpt>
      <trkpt lat="42.077333" lon="1.021333">
        <ele>1871.0</ele>
        <time>2013-09-13T14:00:19Z</time>
      </trkpt>
      <trkpt lat="42.077433" lon="1.021367">
        <ele>1869.0</ele>
        <time>2013-09-13T14:00:20Z</time>
      </trkpt>
      <trkpt lat="42.077517" lon="1.021383">
        <ele>1866.0</ele>
        <time>2013-09-13T14:00:21Z</time>
      </trkpt>
      <trkpt lat="42.077617" lon="1.021400">
        <ele>1865.0</ele>
        <time>2013-09-13T14:00:22Z</time>
      </trkpt>
      <trkpt lat="42.077700" lon="1.021417">
        <ele>1863.0</ele>
        <time>2013-09-13T14:00:23Z</time>
      </trkpt>
      <trkpt lat="42.077783" lon="1.021433">
        <ele>1861.0</ele>
        <time>2013-09-13T14:00:24Z</time>
      </trkpt>
      <trkpt lat="42.077883" lon="1.021417">
        <ele>1860.0</ele>
        <time>2013-09-13T14:00:25Z</time>
      </trkpt>
      <trkpt lat="42.077983" lon="1.021417">
        <ele>1858.0</ele>
        <time>2013-09-13T14:00:26Z</time>
      </trkpt>
      <trkpt lat="42.078067" lon="1.021417">
        <ele>1856.0</ele>
        <time>2013-09-13T14:00:27Z</time>
      </trkpt>
      <trkpt lat="42.078167" lon="1.021417">
        <ele>1854.0</ele>
        <time>2013-09-13T14:00:28Z</time>
      </trkpt>
      <trkpt lat="42.078350" lon="1.021417">
        <ele>1851.0</ele>
        <time>2013-09-13T14:00:30Z</time>
      </trkpt>
      <trkpt lat="42.078450" lon="1.021417">
        <ele>1849.0</ele>
        <time>2013-09-13T14:00:31Z</time>
      </trkpt>
      <trkpt lat="42.078733" lon="1.021467">
        <ele>1843.0</ele>
        <time>2013-09-13T14:00:34Z</time>
      </trkpt>
      <trkpt lat="42.078833" lon="1.021483">
        <ele>1841.0</ele>
        <time>2013-09-13T14:00:35Z</time>
      </trkpt>
      <trkpt lat="42.078933" lon="1.021500">
        <ele>1840.0</ele>
        <time>2013-09-13T14:00:36Z</time>
      </trkpt>
      <trkpt lat="42.079033" lon="1.021500">
        <ele>1839.0</ele>
        <time>2013-09-13T14:00:37Z</time>
      </trkpt>
      <trkpt lat="42.079133" lon="1.021533">
        <ele>1837.0</ele>
        <time>2013-09-13T14:00:38Z</time>
      </trkpt>
      <trkpt lat="42.079233" lon="1.021550">
        <ele>1834.0</ele>
        <time>2013-09-13T14:00:39Z</time>
      </trkpt>
      <trkpt lat="42.079333" lon="1.021583">
        <ele>1831.0</ele>
        <time>2013-09-13T14:00:40Z</time>
      </trkpt>
      <trkpt lat="42.079433" lon="1.021617">
        <ele>1829.0</ele>
        <time>2013-09-13T14:00:41Z</time>
      </trkpt>
      <trkpt lat="42.079533" lon="1.021667">
        <ele>1826.0</ele>
        <time>2013-09-13T14:00:42Z</time>
      </trkpt>
      <trkpt lat="42.079633" lon="1.021700">
        <ele>1824.0</ele>
        <time>2013-09-13T14:00:43Z</time>
      </trkpt>
      <trkpt lat="42.079733" lon="1.021717">
        <ele>1822.0</ele>
        <time>2013-09-13T14:00:44Z</time>
      </trkpt>
      <trkpt lat="42.079833" lon="1.021750">
        <ele>1820.0</ele>
        <time>2013-09-13T14:00:45Z</time>
      </trkpt>
      <trkpt lat="42.079933" lon="1.021783">
        <ele>1817.0</ele>
        <time>2013-09-13T14:00:46Z</time>
      </trkpt>
      <trkpt lat="42.080050" lon="1.021817">
        <ele>1815.0</ele>
        <time>2013-09-13T14:00:47Z</time>
      </trkpt>
      <trkpt lat="42.080150" lon="1.021850">
        <ele>1813.0</ele>
        <time>2013-09-13T14:00:48Z</time>
      </trkpt>
      <trkpt lat="42.080267" lon="1.021883">
        <ele>1811.0</ele>
        <time>2013-09-13T14:00:49Z</time>
      </trkpt>
      <trkpt lat="42.080383" lon="1.021917">
        <ele>1810.0</ele>
        <time>2013-09-13T14:00:50Z</time>
      </trkpt>
      <trkpt lat="42.080483" lon="1.021950">
        <ele>1809.0</ele>
        <time>2013-09-13T14:00:51Z</time>
      </trkpt>
      <trkpt lat="42.080583" lon="1.021983">
        <ele>1809.0</ele>
        <time>2013-09-13T14:00:52Z</time>
      </trkpt>
      <trkpt lat="42.080700" lon="1.022017">
        <ele>1808.0</ele>
        <time>2013-09-13T14:00:53Z</time>
      </trkpt>
      <trkpt lat="42.080817" lon="1.022033">
        <ele>1808.0</ele>
        <time>2013-09-13T14:00:54Z</time>
      </trkpt>
      <trkpt lat="42.080917" lon="1.022050">
        <ele>1807.0</ele>
        <time>2013-09-13T14:00:55Z</time>
      </trkpt>
      <trkpt lat="42.081017" lon="1.022083">
        <ele>1807.0</ele>
        <time>2013-09-13T14:00:56Z</time>
      </trkpt>
      <trkpt lat="42.081117" lon="1.022133">
        <ele>1806.0</ele>
        <time>2013-09-13T14:00:57Z</time>
      </trkpt>
      <trkpt lat="42.081217" lon="1.022167">
        <ele>1805.0</ele>
        <time>2013-09-13T14:00:58Z</time>
      </trkpt>
      <trkpt lat="42.081333" lon="1.022217">
        <ele>1803.0</ele>
        <time>2013-09-13T14:00:59Z</time>
      </trkpt>
      <trkpt lat="42.081433" lon="1.022250">
        <ele>1802.0</ele>
        <time>2013-09-13T14:01:00Z</time>
      </trkpt>
      <trkpt lat="42.081533" lon="1.022300">
        <ele>1802.0</ele>
        <time>2013-09-13T14:01:01Z</time>
      </trkpt>
      <trkpt lat="42.081633" lon="1.022333">
        <ele>1802.0</ele>
        <time>2013-09-13T14:01:02Z</time>
      </trkpt>
      <trkpt lat="42.081733" lon="1.022383">
        <ele>1802.0</ele>
        <time>2013-09-13T14:01:03Z</time>
      </trkpt>
      <trkpt lat="42.081817" lon="1.022417">
        <ele>1801.0</ele>
        <time>2013-09-13T14:01:04Z</time>
      </trkpt>
      <trkpt lat="42.081900" lon="1.022450">
        <ele>1800.0</ele>
        <time>2013-09-13T14:01:05Z</time>
      </trkpt>
      <trkpt lat="42.082000" lon="1.022500">
        <ele>1798.0</ele>
        <time>2013-09-13T14:01:06Z</time>
      </trkpt>
      <trkpt lat="42.082100" lon="1.022550">
        <ele>1796.0</ele>
        <time>2013-09-13T14:01:07Z</time>
      </trkpt>
      <trkpt lat="42.082200" lon="1.022600">
        <ele>1794.0</ele>
        <time>2013-09-13T14:01:08Z</time>
      </trkpt>
      <trkpt lat="42.082300" lon="1.022650">
        <ele>1792.0</ele>
        <time>2013-09-13T14:01:09Z</time>
      </trkpt>
      <trkpt lat="42.082400" lon="1.022683">
        <ele>1791.0</ele>
        <time>2013-09-13T14:01:10Z</time>
      </trkpt>
      <trkpt lat="42.082483" lon="1.022717">
        <ele>1790.0</ele>
        <time>2013-09-13T14:01:11Z</time>
      </trkpt>
      <trkpt lat="42.082567" lon="1.022750">
        <ele>1787.0</ele>
        <time>2013-09-13T14:01:12Z</time>
      </trkpt>
      <trkpt lat="42.082667" lon="1.022783">
        <ele>1784.0</ele>
        <time>2013-09-13T14:01:13Z</time>
      </trkpt>
      <trkpt lat="42.082767" lon="1.022833">
        <ele>1781.0</ele>
        <time>2013-09-13T14:01:14Z</time>
      </trkpt>
      <trkpt lat="42.082867" lon="1.022867">
        <ele>1778.0</ele>
        <time>2013-09-13T14:01:15Z</time>
      </trkpt>
      <trkpt lat="42.082967" lon="1.022917">
        <ele>1775.0</ele>
        <time>2013-09-13T14:01:16Z</time>
      </trkpt>
      <trkpt lat="42.083067" lon="1.022950">
        <ele>1773.0</ele>
        <time>2013-09-13T14:01:17Z</time>
      </trkpt>
      <trkpt lat="42.083183" lon="1.022983">
        <ele>1770.0</ele>
        <time>2013-09-13T14:01:18Z</time>
      </trkpt>
      <trkpt lat="42.083300" lon="1.023017">
        <ele>1768.0</ele>
        <time>2013-09-13T14:01:19Z</time>
      </trkpt>
      <trkpt lat="42.083400" lon="1.023033">
        <ele>1766.0</ele>
        <time>2013-09-13T14:01:20Z</time>
      </trkpt>
      <trkpt lat="42.083517" lon="1.023083">
        <ele>1764.0</ele>
        <time>2013-09-13T14:01:21Z</time>
      </trkpt>
      <trkpt lat="42.083617" lon="1.023117">
        <ele>1763.0</ele>
        <time>2013-09-13T14:01:22Z</time>
      </trkpt>
      <trkpt lat="42.083717" lon="1.023150">
        <ele>1762.0</ele>
        <time>2013-09-13T14:01:23Z</time>
      </trkpt>
      <trkpt lat="42.083817" lon="1.023200">
        <ele>1761.0</ele>
        <time>2013-09-13T14:01:24Z</time>
      </trkpt>
      <trkpt lat="42.083917" lon="1.023233">
        <ele>1759.0</ele>
        <time>2013-09-13T14:01:25Z</time>
      </trkpt>
      <trkpt lat="42.084017" lon="1.023267">
        <ele>1756.0</ele>
        <time>2013-09-13T14:01:26Z</time>
      </trkpt>
      <trkpt lat="42.084133" lon="1.023300">
        <ele>1754.0</ele>
        <time>2013-09-13T14:01:27Z</time>
      </trkpt>
      <trkpt lat="42.084233" lon="1.023333">
        <ele>1752.0</ele>
        <time>2013-09-13T14:01:28Z</time>
      </trkpt>
      <trkpt lat="42.084333" lon="1.023367">
        <ele>1750.0</ele>
        <time>2013-09-13T14:01:29Z</time>
      </trkpt>
      <trkpt lat="42.084433" lon="1.023400">
        <ele>1748.0</ele>
        <time>2013-09-13T14:01:30Z</time>
      </trkpt>
      <trkpt lat="42.084533" lon="1.023433">
        <ele>1746.0</ele>
        <time>2013-09-13T14:01:31Z</time>
      </trkpt>
      <trkpt lat="42.084633" lon="1.023467">
        <ele>1743.0</ele>
        <time>2013-09-13T14:01:32Z</time>
      </trkpt>
      <trkpt lat="42.084733" lon="1.023500">
        <ele>1740.0</ele>
        <time>2013-09-13T14:01:33Z</time>
      </trkpt>
      <trkpt lat="42.084833" lon="1.023533">
        <ele>1737.0</ele>
        <time>2013-09-13T14:01:34Z</time>
      </trkpt>
      <trkpt lat="42.084933" lon="1.023567">
        <ele>1734.0</ele>
        <time>2013-09-13T14:01:35Z</time>
      </trkpt>
      <trkpt lat="42.085033" lon="1.023600">
        <ele>1732.0</ele>
        <time>2013-09-13T14:01:36Z</time>
      </trkpt>
      <trkpt lat="42.085133" lon="1.023633">
        <ele>1730.0</ele>
        <time>2013-09-13T14:01:37Z</time>
      </trkpt>
      <trkpt lat="42.085217" lon="1.023650">
        <ele>1728.0</ele>
        <time>2013-09-13T14:01:38Z</time>
      </trkpt>
      <trkpt lat="42.085317" lon="1.023683">
        <ele>1726.0</ele>
        <time>2013-09-13T14:01:39Z</time>
      </trkpt>
      <trkpt lat="42.085417" lon="1.023700">
        <ele>1723.0</ele>
        <time>2013-09-13T14:01:40Z</time>
      </trkpt>
      <trkpt lat="42.085500" lon="1.023733">
        <ele>1721.0</ele>
        <time>2013-09-13T14:01:41Z</time>
      </trkpt>
      <trkpt lat="42.085583" lon="1.023767">
        <ele>1718.0</ele>
        <time>2013-09-13T14:01:42Z</time>
      </trkpt>
      <trkpt lat="42.085683" lon="1.023800">
        <ele>1716.0</ele>
        <time>2013-09-13T14:01:43Z</time>
      </trkpt>
      <trkpt lat="42.085783" lon="1.023833">
        <ele>1713.0</ele>
        <time>2013-09-13T14:01:44Z</time>
      </trkpt>
      <trkpt lat="42.085867" lon="1.023850">
        <ele>1711.0</ele>
        <time>2013-09-13T14:01:45Z</time>
      </trkpt>
      <trkpt lat="42.085967" lon="1.023883">
        <ele>1709.0</ele>
        <time>2013-09-13T14:01:46Z</time>
      </trkpt>
      <trkpt lat="42.086050" lon="1.023917">
        <ele>1707.0</ele>
        <time>2013-09-13T14:01:47Z</time>
      </trkpt>
      <trkpt lat="42.086150" lon="1.023950">
        <ele>1705.0</ele>
        <time>2013-09-13T14:01:48Z</time>
      </trkpt>
      <trkpt lat="42.086233" lon="1.023983">
        <ele>1703.0</ele>
        <time>2013-09-13T14:01:49Z</time>
      </trkpt>
      <trkpt lat="42.086333" lon="1.024017">
        <ele>1701.0</ele>
        <time>2013-09-13T14:01:50Z</time>
      </trkpt>
      <trkpt lat="42.086417" lon="1.024050">
        <ele>1699.0</ele>
        <time>2013-09-13T14:01:51Z</time>
      </trkpt>
      <trkpt lat="42.086500" lon="1.024083">
        <ele>1697.0</ele>
        <time>2013-09-13T14:01:52Z</time>
      </trkpt>
      <trkpt lat="42.086583" lon="1.024117">
        <ele>1695.0</ele>
        <time>2013-09-13T14:01:53Z</time>
      </trkpt>
      <trkpt lat="42.086667" lon="1.024150">
        <ele>1692.0</ele>
        <time>2013-09-13T14:01:54Z</time>
      </trkpt>
      <trkpt lat="42.086767" lon="1.024200">
        <ele>1690.0</ele>
        <time>2013-09-13T14:01:55Z</time>
      </trkpt>
      <trkpt lat="42.086867" lon="1.024233">
        <ele>1687.0</ele>
        <time>2013-09-13T14:01:56Z</time>
      </trkpt>
      <trkpt lat="42.086950" lon="1.024267">
        <ele>1687.0</ele>
        <time>2013-09-13T14:01:57Z</time>
      </trkpt>
      <trkpt lat="42.087033" lon="1.024300">
        <ele>1686.0</ele>
        <time>2013-09-13T14:01:58Z</time>
      </trkpt>
      <trkpt lat="42.087133" lon="1.024333">
        <ele>1684.0</ele>
        <time>2013-09-13T14:01:59Z</time>
      </trkpt>
      <trkpt lat="42.087233" lon="1.024350">
        <ele>1681.0</ele>
        <time>2013-09-13T14:02:00Z</time>
      </trkpt>
      <trkpt lat="42.087333" lon="1.024383">
        <ele>1678.0</ele>
        <time>2013-09-13T14:02:01Z</time>
      </trkpt>
      <trkpt lat="42.087433" lon="1.024433">
        <ele>1675.0</ele>
        <time>2013-09-13T14:02:02Z</time>
      </trkpt>
      <trkpt lat="42.087533" lon="1.024467">
        <ele>1673.0</ele>
        <time>2013-09-13T14:02:03Z</time>
      </trkpt>
      <trkpt lat="42.087633" lon="1.024500">
        <ele>1671.0</ele>
        <time>2013-09-13T14:02:04Z</time>
      </trkpt>
      <trkpt lat="42.087733" lon="1.024533">
        <ele>1668.0</ele>
        <time>2013-09-13T14:02:05Z</time>
      </trkpt>
      <trkpt lat="42.087833" lon="1.024550">
        <ele>1666.0</ele>
        <time>2013-09-13T14:02:06Z</time>
      </trkpt>
      <trkpt lat="42.087933" lon="1.024583">
        <ele>1663.0</ele>
        <time>2013-09-13T14:02:07Z</time>
      </trkpt>
      <trkpt lat="42.088033" lon="1.024633">
        <ele>1661.0</ele>
        <time>2013-09-13T14:02:08Z</time>
      </trkpt>
      <trkpt lat="42.088133" lon="1.024683">
        <ele>1658.0</ele>
        <time>2013-09-13T14:02:09Z</time>
      </trkpt>
      <trkpt lat="42.088233" lon="1.024733">
        <ele>1656.0</ele>
        <time>2013-09-13T14:02:10Z</time>
      </trkpt>
      <trkpt lat="42.088333" lon="1.024767">
        <ele>1654.0</ele>
        <time>2013-09-13T14:02:11Z</time>
      </trkpt>
      <trkpt lat="42.088417" lon="1.024800">
        <ele>1653.0</ele>
        <time>2013-09-13T14:02:12Z</time>
      </trkpt>
      <trkpt lat="42.088517" lon="1.024833">
        <ele>1651.0</ele>
        <time>2013-09-13T14:02:13Z</time>
      </trkpt>
      <trkpt lat="42.088617" lon="1.024867">
        <ele>1649.0</ele>
        <time>2013-09-13T14:02:14Z</time>
      </trkpt>
      <trkpt lat="42.088717" lon="1.024917">
        <ele>1647.0</ele>
        <time>2013-09-13T14:02:15Z</time>
      </trkpt>
      <trkpt lat="42.088800" lon="1.024967">
        <ele>1645.0</ele>
        <time>2013-09-13T14:02:16Z</time>
      </trkpt>
      <trkpt lat="42.088900" lon="1.025000">
        <ele>1644.0</ele>
        <time>2013-09-13T14:02:17Z</time>
      </trkpt>
      <trkpt lat="42.088983" lon="1.025033">
        <ele>1642.0</ele>
        <time>2013-09-13T14:02:18Z</time>
      </trkpt>
      <trkpt lat="42.089083" lon="1.025050">
        <ele>1641.0</ele>
        <time>2013-09-13T14:02:19Z</time>
      </trkpt>
      <trkpt lat="42.089183" lon="1.025083">
        <ele>1640.0</ele>
        <time>2013-09-13T14:02:20Z</time>
      </trkpt>
      <trkpt lat="42.089283" lon="1.025117">
        <ele>1638.0</ele>
        <time>2013-09-13T14:02:21Z</time>
      </trkpt>
      <trkpt lat="42.089367" lon="1.025167">
        <ele>1637.0</ele>
        <time>2013-09-13T14:02:22Z</time>
      </trkpt>
      <trkpt lat="42.089467" lon="1.025200">
        <ele>1635.0</ele>
        <time>2013-09-13T14:02:23Z</time>
      </trkpt>
      <trkpt lat="42.089550" lon="1.025233">
        <ele>1633.0</ele>
        <time>2013-09-13T14:02:24Z</time>
      </trkpt>
      <trkpt lat="42.089650" lon="1.025267">
        <ele>1631.0</ele>
        <time>2013-09-13T14:02:25Z</time>
      </trkpt>
      <trkpt lat="42.089733" lon="1.025300">
        <ele>1629.0</ele>
        <time>2013-09-13T14:02:26Z</time>
      </trkpt>
      <trkpt lat="42.089833" lon="1.025333">
        <ele>1627.0</ele>
        <time>2013-09-13T14:02:27Z</time>
      </trkpt>
      <trkpt lat="42.089917" lon="1.025367">
        <ele>1625.0</ele>
        <time>2013-09-13T14:02:28Z</time>
      </trkpt>
      <trkpt lat="42.090017" lon="1.025400">
        <ele>1623.0</ele>
        <time>2013-09-13T14:02:29Z</time>
      </trkpt>
      <trkpt lat="42.090117" lon="1.025450">
        <ele>1621.0</ele>
        <time>2013-09-13T14:02:30Z</time>
      </trkpt>
      <trkpt lat="42.090200" lon="1.025483">
        <ele>1618.0</ele>
        <time>2013-09-13T14:02:31Z</time>
      </trkpt>
      <trkpt lat="42.090283" lon="1.025533">
        <ele>1616.0</ele>
        <time>2013-09-13T14:02:32Z</time>
      </trkpt>
      <trkpt lat="42.090367" lon="1.025583">
        <ele>1615.0</ele>
        <time>2013-09-13T14:02:33Z</time>
      </trkpt>
      <trkpt lat="42.090467" lon="1.025633">
        <ele>1613.0</ele>
        <time>2013-09-13T14:02:34Z</time>
      </trkpt>
      <trkpt lat="42.090550" lon="1.025667">
        <ele>1611.0</ele>
        <time>2013-09-13T14:02:35Z</time>
      </trkpt>
      <trkpt lat="42.090650" lon="1.025717">
        <ele>1609.0</ele>
        <time>2013-09-13T14:02:36Z</time>
      </trkpt>
      <trkpt lat="42.090733" lon="1.025767">
        <ele>1608.0</ele>
        <time>2013-09-13T14:02:37Z</time>
      </trkpt>
      <trkpt lat="42.090817" lon="1.025817">
        <ele>1606.0</ele>
        <time>2013-09-13T14:02:38Z</time>
      </trkpt>
      <trkpt lat="42.090900" lon="1.025867">
        <ele>1605.0</ele>
        <time>2013-09-13T14:02:39Z</time>
      </trkpt>
      <trkpt lat="42.091000" lon="1.025933">
        <ele>1603.0</ele>
        <time>2013-09-13T14:02:40Z</time>
      </trkpt>
      <trkpt lat="42.091083" lon="1.025983">
        <ele>1601.0</ele>
        <time>2013-09-13T14:02:41Z</time>
      </trkpt>
      <trkpt lat="42.091167" lon="1.026050">
        <ele>1599.0</ele>
        <time>2013-09-13T14:02:42Z</time>
      </trkpt>
      <trkpt lat="42.091250" lon="1.026100">
        <ele>1597.0</ele>
        <time>2013-09-13T14:02:43Z</time>
      </trkpt>
      <trkpt lat="42.091333" lon="1.026167">
        <ele>1596.0</ele>
        <time>2013-09-13T14:02:44Z</time>
      </trkpt>
      <trkpt lat="42.091400" lon="1.026233">
        <ele>1595.0</ele>
        <time>2013-09-13T14:02:45Z</time>
      </trkpt>
      <trkpt lat="42.091483" lon="1.026283">
        <ele>1593.0</ele>
        <time>2013-09-13T14:02:46Z</time>
      </trkpt>
      <trkpt lat="42.091550" lon="1.026350">
        <ele>1591.0</ele>
        <time>2013-09-13T14:02:47Z</time>
      </trkpt>
      <trkpt lat="42.091633" lon="1.026417">
        <ele>1588.0</ele>
        <time>2013-09-13T14:02:48Z</time>
      </trkpt>
      <trkpt lat="42.091717" lon="1.026500">
        <ele>1586.0</ele>
        <time>2013-09-13T14:02:49Z</time>
      </trkpt>
      <trkpt lat="42.091800" lon="1.026567">
        <ele>1584.0</ele>
        <time>2013-09-13T14:02:50Z</time>
      </trkpt>
      <trkpt lat="42.091867" lon="1.026633">
        <ele>1583.0</ele>
        <time>2013-09-13T14:02:51Z</time>
      </trkpt>
      <trkpt lat="42.091933" lon="1.026700">
        <ele>1582.0</ele>
        <time>2013-09-13T14:02:52Z</time>
      </trkpt>
      <trkpt lat="42.092000" lon="1.026767">
        <ele>1580.0</ele>
        <time>2013-09-13T14:02:53Z</time>
      </trkpt>
      <trkpt lat="42.092067" lon="1.026833">
        <ele>1578.0</ele>
        <time>2013-09-13T14:02:54Z</time>
      </trkpt>
      <trkpt lat="42.092150" lon="1.026900">
        <ele>1576.0</ele>
        <time>2013-09-13T14:02:55Z</time>
      </trkpt>
      <trkpt lat="42.092217" lon="1.026967">
        <ele>1574.0</ele>
        <time>2013-09-13T14:02:56Z</time>
      </trkpt>
      <trkpt lat="42.092300" lon="1.027033">
        <ele>1571.0</ele>
        <time>2013-09-13T14:02:57Z</time>
      </trkpt>
      <trkpt lat="42.092383" lon="1.027083">
        <ele>1570.0</ele>
        <time>2013-09-13T14:02:58Z</time>
      </trkpt>
      <trkpt lat="42.092450" lon="1.027133">
        <ele>1568.0</ele>
        <time>2013-09-13T14:02:59Z</time>
      </trkpt>
      <trkpt lat="42.092533" lon="1.027200">
        <ele>1566.0</ele>
        <time>2013-09-13T14:03:00Z</time>
      </trkpt>
      <trkpt lat="42.092600" lon="1.027250">
        <ele>1564.0</ele>
        <time>2013-09-13T14:03:01Z</time>
      </trkpt>
      <trkpt lat="42.092667" lon="1.027300">
        <ele>1561.0</ele>
        <time>2013-09-13T14:03:02Z</time>
      </trkpt>
      <trkpt lat="42.092750" lon="1.027350">
        <ele>1559.0</ele>
        <time>2013-09-13T14:03:03Z</time>
      </trkpt>
      <trkpt lat="42.092833" lon="1.027417">
        <ele>1556.0</ele>
        <time>2013-09-13T14:03:04Z</time>
      </trkpt>
      <trkpt lat="42.092900" lon="1.027483">
        <ele>1553.0</ele>
        <time>2013-09-13T14:03:05Z</time>
      </trkpt>
      <trkpt lat="42.092967" lon="1.027550">
        <ele>1551.0</ele>
        <time>2013-09-13T14:03:06Z</time>
      </trkpt>
      <trkpt lat="42.093033" lon="1.027617">
        <ele>1549.0</ele>
        <time>2013-09-13T14:03:07Z</time>
      </trkpt>
      <trkpt lat="42.093117" lon="1.027683">
        <ele>1547.0</ele>
        <time>2013-09-13T14:03:08Z</time>
      </trkpt>
      <trkpt lat="42.093183" lon="1.027767">
        <ele>1545.0</ele>
        <time>2013-09-13T14:03:09Z</time>
      </trkpt>
      <trkpt lat="42.093267" lon="1.027833">
        <ele>1543.0</ele>
        <time>2013-09-13T14:03:10Z</time>
      </trkpt>
      <trkpt lat="42.093350" lon="1.027917">
        <ele>1542.0</ele>
        <time>2013-09-13T14:03:11Z</time>
      </trkpt>
      <trkpt lat="42.093400" lon="1.027983">
        <ele>1541.0</ele>
        <time>2013-09-13T14:03:12Z</time>
      </trkpt>
      <trkpt lat="42.093467" lon="1.028050">
        <ele>1541.0</ele>
        <time>2013-09-13T14:03:13Z</time>
      </trkpt>
      <trkpt lat="42.093533" lon="1.028133">
        <ele>1539.0</ele>
        <time>2013-09-13T14:03:14Z</time>
      </trkpt>
      <trkpt lat="42.093600" lon="1.028233">
        <ele>1537.0</ele>
        <time>2013-09-13T14:03:15Z</time>
      </trkpt>
      <trkpt lat="42.093667" lon="1.028333">
        <ele>1536.0</ele>
        <time>2013-09-13T14:03:16Z</time>
      </trkpt>
      <trkpt lat="42.093733" lon="1.028417">
        <ele>1534.0</ele>
        <time>2013-09-13T14:03:17Z</time>
      </trkpt>
      <trkpt lat="42.093800" lon="1.028500">
        <ele>1533.0</ele>
        <time>2013-09-13T14:03:18Z</time>
      </trkpt>
      <trkpt lat="42.093850" lon="1.028567">
        <ele>1531.0</ele>
        <time>2013-09-13T14:03:19Z</time>
      </trkpt>
      <trkpt lat="42.093900" lon="1.028633">
        <ele>1530.0</ele>
        <time>2013-09-13T14:03:20Z</time>
      </trkpt>
      <trkpt lat="42.093967" lon="1.028717">
        <ele>1528.0</ele>
        <time>2013-09-13T14:03:21Z</time>
      </trkpt>
      <trkpt lat="42.094017" lon="1.028800">
        <ele>1526.0</ele>
        <time>2013-09-13T14:03:22Z</time>
      </trkpt>
      <trkpt lat="42.094083" lon="1.028883">
        <ele>1524.0</ele>
        <time>2013-09-13T14:03:23Z</time>
      </trkpt>
      <trkpt lat="42.094150" lon="1.028933">
        <ele>1523.0</ele>
        <time>2013-09-13T14:03:24Z</time>
      </trkpt>
      <trkpt lat="42.094200" lon="1.029000">
        <ele>1523.0</ele>
        <time>2013-09-13T14:03:25Z</time>
      </trkpt>
      <trkpt lat="42.094267" lon="1.029067">
        <ele>1522.0</ele>
        <time>2013-09-13T14:03:26Z</time>
      </trkpt>
      <trkpt lat="42.094317" lon="1.029150">
        <ele>1522.0</ele>
        <time>2013-09-13T14:03:27Z</time>
      </trkpt>
      <trkpt lat="42.094367" lon="1.029233">
        <ele>1521.0</ele>
        <time>2013-09-13T14:03:28Z</time>
      </trkpt>
      <trkpt lat="42.094433" lon="1.029333">
        <ele>1521.0</ele>
        <time>2013-09-13T14:03:29Z</time>
      </trkpt>
      <trkpt lat="42.094500" lon="1.029417">
        <ele>1522.0</ele>
        <time>2013-09-13T14:03:30Z</time>
      </trkpt>
      <trkpt lat="42.094550" lon="1.029500">
        <ele>1523.0</ele>
        <time>2013-09-13T14:03:31Z</time>
      </trkpt>
      <trkpt lat="42.094600" lon="1.029583">
        <ele>1525.0</ele>
        <time>2013-09-13T14:03:32Z</time>
      </trkpt>
      <trkpt lat="42.094650" lon="1.029667">
        <ele>1526.0</ele>
        <time>2013-09-13T14:03:33Z</time>
      </trkpt>
      <trkpt lat="42.094700" lon="1.029767">
        <ele>1526.0</ele>
        <time>2013-09-13T14:03:34Z</time>
      </trkpt>
      <trkpt lat="42.094767" lon="1.029867">
        <ele>1526.0</ele>
        <time>2013-09-13T14:03:35Z</time>
      </trkpt>
      <trkpt lat="42.094833" lon="1.029967">
        <ele>1526.0</ele>
        <time>2013-09-13T14:03:36Z</time>
      </trkpt>
      <trkpt lat="42.094900" lon="1.030050">
        <ele>1526.0</ele>
        <time>2013-09-13T14:03:37Z</time>
      </trkpt>
      <trkpt lat="42.094950" lon="1.030133">
        <ele>1526.0</ele>
        <time>2013-09-13T14:03:38Z</time>
      </trkpt>
      <trkpt lat="42.095000" lon="1.030217">
        <ele>1527.0</ele>
        <time>2013-09-13T14:03:39Z</time>
      </trkpt>
      <trkpt lat="42.095033" lon="1.030317">
        <ele>1528.0</ele>
        <time>2013-09-13T14:03:40Z</time>
      </trkpt>
      <trkpt lat="42.095067" lon="1.030667">
        <ele>1527.0</ele>
        <time>2013-09-13T14:03:43Z</time>
      </trkpt>
      <trkpt lat="42.095083" lon="1.030783">
        <ele>1527.0</ele>
        <time>2013-09-13T14:03:44Z</time>
      </trkpt>
      <trkpt lat="42.095117" lon="1.030900">
        <ele>1527.0</ele>
        <time>2013-09-13T14:03:45Z</time>
      </trkpt>
      <trkpt lat="42.095150" lon="1.031000">
        <ele>1526.0</ele>
        <time>2013-09-13T14:03:46Z</time>
      </trkpt>
      <trkpt lat="42.095200" lon="1.031117">
        <ele>1525.0</ele>
        <time>2013-09-13T14:03:47Z</time>
      </trkpt>
      <trkpt lat="42.095250" lon="1.031233">
        <ele>1524.0</ele>
        <time>2013-09-13T14:03:48Z</time>
      </trkpt>
      <trkpt lat="42.095300" lon="1.031350">
        <ele>1522.0</ele>
        <time>2013-09-13T14:03:49Z</time>
      </trkpt>
      <trkpt lat="42.095350" lon="1.031467">
        <ele>1522.0</ele>
        <time>2013-09-13T14:03:50Z</time>
      </trkpt>
      <trkpt lat="42.095400" lon="1.031550">
        <ele>1523.0</ele>
        <time>2013-09-13T14:03:51Z</time>
      </trkpt>
      <trkpt lat="42.095450" lon="1.031633">
        <ele>1522.0</ele>
        <time>2013-09-13T14:03:52Z</time>
      </trkpt>
      <trkpt lat="42.095517" lon="1.031733">
        <ele>1522.0</ele>
        <time>2013-09-13T14:03:53Z</time>
      </trkpt>
      <trkpt lat="42.095583" lon="1.031850">
        <ele>1521.0</ele>
        <time>2013-09-13T14:03:54Z</time>
      </trkpt>
      <trkpt lat="42.095650" lon="1.031950">
        <ele>1519.0</ele>
        <time>2013-09-13T14:03:55Z</time>
      </trkpt>
      <trkpt lat="42.095717" lon="1.032050">
        <ele>1518.0</ele>
        <time>2013-09-13T14:03:56Z</time>
      </trkpt>
      <trkpt lat="42.095783" lon="1.032133">
        <ele>1519.0</ele>
        <time>2013-09-13T14:03:57Z</time>
      </trkpt>
      <trkpt lat="42.095850" lon="1.032217">
        <ele>1520.0</ele>
        <time>2013-09-13T14:03:58Z</time>
      </trkpt>
      <trkpt lat="42.095933" lon="1.032283">
        <ele>1520.0</ele>
        <time>2013-09-13T14:03:59Z</time>
      </trkpt>
      <trkpt lat="42.096017" lon="1.032367">
        <ele>1519.0</ele>
        <time>2013-09-13T14:04:00Z</time>
      </trkpt>
      <trkpt lat="42.096100" lon="1.032450">
        <ele>1518.0</ele>
        <time>2013-09-13T14:04:01Z</time>
      </trkpt>
      <trkpt lat="42.096183" lon="1.032550">
        <ele>1518.0</ele>
        <time>2013-09-13T14:04:02Z</time>
      </trkpt>
      <trkpt lat="42.096250" lon="1.032650">
        <ele>1519.0</ele>
        <time>2013-09-13T14:04:03Z</time>
      </trkpt>
      <trkpt lat="42.096333" lon="1.032733">
        <ele>1521.0</ele>
        <time>2013-09-13T14:04:04Z</time>
      </trkpt>
      <trkpt lat="42.096400" lon="1.032817">
        <ele>1522.0</ele>
        <time>2013-09-13T14:04:05Z</time>
      </trkpt>
      <trkpt lat="42.096467" lon="1.032883">
        <ele>1523.0</ele>
        <time>2013-09-13T14:04:06Z</time>
      </trkpt>
      <trkpt lat="42.096550" lon="1.032983">
        <ele>1523.0</ele>
        <time>2013-09-13T14:04:07Z</time>
      </trkpt>
      <trkpt lat="42.096600" lon="1.033083">
        <ele>1523.0</ele>
        <time>2013-09-13T14:04:08Z</time>
      </trkpt>
      <trkpt lat="42.096633" lon="1.033217">
        <ele>1523.0</ele>
        <time>2013-09-13T14:04:09Z</time>
      </trkpt>
      <trkpt lat="42.096617" lon="1.033333">
        <ele>1524.0</ele>
        <time>2013-09-13T14:04:10Z</time>
      </trkpt>
      <trkpt lat="42.096567" lon="1.033450">
        <ele>1524.0</ele>
        <time>2013-09-13T14:04:11Z</time>
      </trkpt>
      <trkpt lat="42.096517" lon="1.033517">
        <ele>1525.0</ele>
        <time>2013-09-13T14:04:12Z</time>
      </trkpt>
      <trkpt lat="42.096450" lon="1.033567">
        <ele>1526.0</ele>
        <time>2013-09-13T14:04:13Z</time>
      </trkpt>
      <trkpt lat="42.096400" lon="1.033600">
        <ele>1527.0</ele>
        <time>2013-09-13T14:04:14Z</time>
      </trkpt>
      <trkpt lat="42.096333" lon="1.033600">
        <ele>1528.0</ele>
        <time>2013-09-13T14:04:15Z</time>
      </trkpt>
      <trkpt lat="42.096267" lon="1.033583">
        <ele>1528.0</ele>
        <time>2013-09-13T14:04:16Z</time>
      </trkpt>
      <trkpt lat="42.096217" lon="1.033533">
        <ele>1528.0</ele>
        <time>2013-09-13T14:04:17Z</time>
      </trkpt>
      <trkpt lat="42.096167" lon="1.033467">
        <ele>1527.0</ele>
        <time>2013-09-13T14:04:18Z</time>
      </trkpt>
      <trkpt lat="42.096150" lon="1.033367">
        <ele>1528.0</ele>
        <time>2013-09-13T14:04:19Z</time>
      </trkpt>
      <trkpt lat="42.096167" lon="1.033267">
        <ele>1528.0</ele>
        <time>2013-09-13T14:04:20Z</time>
      </trkpt>
      <trkpt lat="42.096200" lon="1.033183">
        <ele>1529.0</ele>
        <time>2013-09-13T14:04:21Z</time>
      </trkpt>
      <trkpt lat="42.096233" lon="1.033100">
        <ele>1529.0</ele>
        <time>2013-09-13T14:04:22Z</time>
      </trkpt>
      <trkpt lat="42.096300" lon="1.033033">
        <ele>1530.0</ele>
        <time>2013-09-13T14:04:23Z</time>
      </trkpt>
      <trkpt lat="42.096367" lon="1.032967">
        <ele>1530.0</ele>
        <time>2013-09-13T14:04:24Z</time>
      </trkpt>
      <trkpt lat="42.096450" lon="1.032917">
        <ele>1531.0</ele>
        <time>2013-09-13T14:04:25Z</time>
      </trkpt>
      <trkpt lat="42.096533" lon="1.032883">
        <ele>1531.0</ele>
        <time>2013-09-13T14:04:26Z</time>
      </trkpt>
      <trkpt lat="42.096633" lon="1.032867">
        <ele>1531.0</ele>
        <time>2013-09-13T14:04:27Z</time>
      </trkpt>
      <trkpt lat="42.096733" lon="1.032867">
        <ele>1531.0</ele>
        <time>2013-09-13T14:04:28Z</time>
      </trkpt>
      <trkpt lat="42.096833" lon="1.032883">
        <ele>1531.0</ele>
        <time>2013-09-13T14:04:29Z</time>
      </trkpt>
      <trkpt lat="42.096917" lon="1.032917">
        <ele>1531.0</ele>
        <time>2013-09-13T14:04:30Z</time>
      </trkpt>
      <trkpt lat="42.097000" lon="1.032983">
        <ele>1532.0</ele>
        <time>2013-09-13T14:04:31Z</time>
      </trkpt>
      <trkpt lat="42.097083" lon="1.033050">
        <ele>1532.0</ele>
        <time>2013-09-13T14:04:32Z</time>
      </trkpt>
      <trkpt lat="42.097167" lon="1.033150">
        <ele>1532.0</ele>
        <time>2013-09-13T14:04:33Z</time>
      </trkpt>
      <trkpt lat="42.097217" lon="1.033250">
        <ele>1533.0</ele>
        <time>2013-09-13T14:04:34Z</time>
      </trkpt>
      <trkpt lat="42.097283" lon="1.033350">
        <ele>1534.0</ele>
        <time>2013-09-13T14:04:35Z</time>
      </trkpt>
      <trkpt lat="42.097300" lon="1.033467">
        <ele>1534.0</ele>
        <time>2013-09-13T14:04:36Z</time>
      </trkpt>
      <trkpt lat="42.097317" lon="1.033583">
        <ele>1535.0</ele>
        <time>2013-09-13T14:04:37Z</time>
      </trkpt>
      <trkpt lat="42.097300" lon="1.033683">
        <ele>1536.0</ele>
        <time>2013-09-13T14:04:38Z</time>
      </trkpt>
      <trkpt lat="42.097283" lon="1.033767">
        <ele>1537.0</ele>
        <time>2013-09-13T14:04:39Z</time>
      </trkpt>
      <trkpt lat="42.097233" lon="1.033833">
        <ele>1537.0</ele>
        <time>2013-09-13T14:04:40Z</time>
      </trkpt>
      <trkpt lat="42.097183" lon="1.033900">
        <ele>1537.0</ele>
        <time>2013-09-13T14:04:41Z</time>
      </trkpt>
      <trkpt lat="42.097117" lon="1.033933">
        <ele>1538.0</ele>
        <time>2013-09-13T14:04:42Z</time>
      </trkpt>
      <trkpt lat="42.097050" lon="1.033950">
        <ele>1539.0</ele>
        <time>2013-09-13T14:04:43Z</time>
      </trkpt>
      <trkpt lat="42.097000" lon="1.033950">
        <ele>1541.0</ele>
        <time>2013-09-13T14:04:44Z</time>
      </trkpt>
      <trkpt lat="42.096950" lon="1.033933">
        <ele>1542.0</ele>
        <time>2013-09-13T14:04:45Z</time>
      </trkpt>
      <trkpt lat="42.096900" lon="1.033917">
        <ele>1543.0</ele>
        <time>2013-09-13T14:04:46Z</time>
      </trkpt>
      <trkpt lat="42.096850" lon="1.033867">
        <ele>1544.0</ele>
        <time>2013-09-13T14:04:47Z</time>
      </trkpt>
      <trkpt lat="42.096817" lon="1.033783">
        <ele>1543.0</ele>
        <time>2013-09-13T14:04:48Z</time>
      </trkpt>
      <trkpt lat="42.096800" lon="1.033683">
        <ele>1543.0</ele>
        <time>2013-09-13T14:04:49Z</time>
      </trkpt>
      <trkpt lat="42.096817" lon="1.033583">
        <ele>1542.0</ele>
        <time>2013-09-13T14:04:50Z</time>
      </trkpt>
      <trkpt lat="42.096850" lon="1.033500">
        <ele>1543.0</ele>
        <time>2013-09-13T14:04:51Z</time>
      </trkpt>
      <trkpt lat="42.096917" lon="1.033433">
        <ele>1544.0</ele>
        <time>2013-09-13T14:04:52Z</time>
      </trkpt>
      <trkpt lat="42.097000" lon="1.033383">
        <ele>1544.0</ele>
        <time>2013-09-13T14:04:53Z</time>
      </trkpt>
      <trkpt lat="42.097083" lon="1.033367">
        <ele>1544.0</ele>
        <time>2013-09-13T14:04:54Z</time>
      </trkpt>
      <trkpt lat="42.097183" lon="1.033367">
        <ele>1544.0</ele>
        <time>2013-09-13T14:04:55Z</time>
      </trkpt>
      <trkpt lat="42.097283" lon="1.033367">
        <ele>1544.0</ele>
        <time>2013-09-13T14:04:56Z</time>
      </trkpt>
      <trkpt lat="42.097367" lon="1.033400">
        <ele>1544.0</ele>
        <time>2013-09-13T14:04:57Z</time>
      </trkpt>
      <trkpt lat="42.097450" lon="1.033450">
        <ele>1545.0</ele>
        <time>2013-09-13T14:04:58Z</time>
      </trkpt>
      <trkpt lat="42.097533" lon="1.033517">
        <ele>1546.0</ele>
        <time>2013-09-13T14:04:59Z</time>
      </trkpt>
      <trkpt lat="42.097600" lon="1.033617">
        <ele>1546.0</ele>
        <time>2013-09-13T14:05:00Z</time>
      </trkpt>
      <trkpt lat="42.097650" lon="1.033733">
        <ele>1546.0</ele>
        <time>2013-09-13T14:05:01Z</time>
      </trkpt>
      <trkpt lat="42.097667" lon="1.033867">
        <ele>1546.0</ele>
        <time>2013-09-13T14:05:02Z</time>
      </trkpt>
      <trkpt lat="42.097667" lon="1.033983">
        <ele>1546.0</ele>
        <time>2013-09-13T14:05:03Z</time>
      </trkpt>
      <trkpt lat="42.097667" lon="1.034100">
        <ele>1547.0</ele>
        <time>2013-09-13T14:05:04Z</time>
      </trkpt>
      <trkpt lat="42.097633" lon="1.034200">
        <ele>1547.0</ele>
        <time>2013-09-13T14:05:05Z</time>
      </trkpt>
      <trkpt lat="42.097600" lon="1.034283">
        <ele>1547.0</ele>
        <time>2013-09-13T14:05:06Z</time>
      </trkpt>
      <trkpt lat="42.097550" lon="1.034350">
        <ele>1546.0</ele>
        <time>2013-09-13T14:05:07Z</time>
      </trkpt>
      <trkpt lat="42.097483" lon="1.034433">
        <ele>1546.0</ele>
        <time>2013-09-13T14:05:08Z</time>
      </trkpt>
      <trkpt lat="42.097417" lon="1.034517">
        <ele>1546.0</ele>
        <time>2013-09-13T14:05:09Z</time>
      </trkpt>
      <trkpt lat="42.097350" lon="1.034567">
        <ele>1548.0</ele>
        <time>2013-09-13T14:05:10Z</time>
      </trkpt>
      <trkpt lat="42.097283" lon="1.034600">
        <ele>1549.0</ele>
        <time>2013-09-13T14:05:11Z</time>
      </trkpt>
      <trkpt lat="42.097217" lon="1.034583">
        <ele>1548.0</ele>
        <time>2013-09-13T14:05:12Z</time>
      </trkpt>
      <trkpt lat="42.097133" lon="1.034550">
        <ele>1547.0</ele>
        <time>2013-09-13T14:05:13Z</time>
      </trkpt>
      <trkpt lat="42.097067" lon="1.034500">
        <ele>1548.0</ele>
        <time>2013-09-13T14:05:14Z</time>
      </trkpt>
      <trkpt lat="42.097017" lon="1.034433">
        <ele>1549.0</ele>
        <time>2013-09-13T14:05:15Z</time>
      </trkpt>
      <trkpt lat="42.096983" lon="1.034383">
        <ele>1551.0</ele>
        <time>2013-09-13T14:05:16Z</time>
      </trkpt>
      <trkpt lat="42.096967" lon="1.034300">
        <ele>1553.0</ele>
        <time>2013-09-13T14:05:17Z</time>
      </trkpt>
      <trkpt lat="42.096967" lon="1.034200">
        <ele>1554.0</ele>
        <time>2013-09-13T14:05:18Z</time>
      </trkpt>
      <trkpt lat="42.096983" lon="1.034083">
        <ele>1554.0</ele>
        <time>2013-09-13T14:05:19Z</time>
      </trkpt>
      <trkpt lat="42.097017" lon="1.033983">
        <ele>1555.0</ele>
        <time>2013-09-13T14:05:20Z</time>
      </trkpt>
      <trkpt lat="42.097050" lon="1.033883">
        <ele>1558.0</ele>
        <time>2013-09-13T14:05:21Z</time>
      </trkpt>
      <trkpt lat="42.097117" lon="1.033817">
        <ele>1559.0</ele>
        <time>2013-09-13T14:05:22Z</time>
      </trkpt>
      <trkpt lat="42.097167" lon="1.033750">
        <ele>1561.0</ele>
        <time>2013-09-13T14:05:23Z</time>
      </trkpt>
      <trkpt lat="42.097233" lon="1.033683">
        <ele>1561.0</ele>
        <time>2013-09-13T14:05:24Z</time>
      </trkpt>
      <trkpt lat="42.097300" lon="1.033617">
        <ele>1562.0</ele>
        <time>2013-09-13T14:05:25Z</time>
      </trkpt>
      <trkpt lat="42.097367" lon="1.033550">
        <ele>1562.0</ele>
        <time>2013-09-13T14:05:26Z</time>
      </trkpt>
      <trkpt lat="42.097450" lon="1.033517">
        <ele>1562.0</ele>
        <time>2013-09-13T14:05:27Z</time>
      </trkpt>
      <trkpt lat="42.097550" lon="1.033517">
        <ele>1562.0</ele>
        <time>2013-09-13T14:05:28Z</time>
      </trkpt>
      <trkpt lat="42.097633" lon="1.033533">
        <ele>1562.0</ele>
        <time>2013-09-13T14:05:29Z</time>
      </trkpt>
      <trkpt lat="42.097717" lon="1.033583">
        <ele>1562.0</ele>
        <time>2013-09-13T14:05:30Z</time>
      </trkpt>
      <trkpt lat="42.097800" lon="1.033650">
        <ele>1562.0</ele>
        <time>2013-09-13T14:05:31Z</time>
      </trkpt>
      <trkpt lat="42.097850" lon="1.033733">
        <ele>1563.0</ele>
        <time>2013-09-13T14:05:32Z</time>
      </trkpt>
      <trkpt lat="42.097900" lon="1.033833">
        <ele>1563.0</ele>
        <time>2013-09-13T14:05:33Z</time>
      </trkpt>
      <trkpt lat="42.097933" lon="1.033933">
        <ele>1563.0</ele>
        <time>2013-09-13T14:05:34Z</time>
      </trkpt>
      <trkpt lat="42.097967" lon="1.034050">
        <ele>1564.0</ele>
        <time>2013-09-13T14:05:35Z</time>
      </trkpt>
      <trkpt lat="42.097967" lon="1.034150">
        <ele>1564.0</ele>
        <time>2013-09-13T14:05:36Z</time>
      </trkpt>
      <trkpt lat="42.097967" lon="1.034267">
        <ele>1564.0</ele>
        <time>2013-09-13T14:05:37Z</time>
      </trkpt>
      <trkpt lat="42.097933" lon="1.034383">
        <ele>1564.0</ele>
        <time>2013-09-13T14:05:38Z</time>
      </trkpt>
      <trkpt lat="42.097883" lon="1.034483">
        <ele>1564.0</ele>
        <time>2013-09-13T14:05:39Z</time>
      </trkpt>
      <trkpt lat="42.097833" lon="1.034567">
        <ele>1563.0</ele>
        <time>2013-09-13T14:05:40Z</time>
      </trkpt>
      <trkpt lat="42.097783" lon="1.034633">
        <ele>1563.0</ele>
        <time>2013-09-13T14:05:41Z</time>
      </trkpt>
      <trkpt lat="42.097733" lon="1.034700">
        <ele>1563.0</ele>
        <time>2013-09-13T14:05:42Z</time>
      </trkpt>
      <trkpt lat="42.097667" lon="1.034783">
        <ele>1563.0</ele>
        <time>2013-09-13T14:05:43Z</time>
      </trkpt>
      <trkpt lat="42.097617" lon="1.034883">
        <ele>1563.0</ele>
        <time>2013-09-13T14:05:44Z</time>
      </trkpt>
      <trkpt lat="42.097550" lon="1.034967">
        <ele>1563.0</ele>
        <time>2013-09-13T14:05:45Z</time>
      </trkpt>
      <trkpt lat="42.097500" lon="1.035033">
        <ele>1564.0</ele>
        <time>2013-09-13T14:05:46Z</time>
      </trkpt>
      <trkpt lat="42.097467" lon="1.035100">
        <ele>1565.0</ele>
        <time>2013-09-13T14:05:47Z</time>
      </trkpt>
      <trkpt lat="42.097433" lon="1.035183">
        <ele>1565.0</ele>
        <time>2013-09-13T14:05:48Z</time>
      </trkpt>
      <trkpt lat="42.097383" lon="1.035267">
        <ele>1565.0</ele>
        <time>2013-09-13T14:05:49Z</time>
      </trkpt>
      <trkpt lat="42.097300" lon="1.035333">
        <ele>1564.0</ele>
        <time>2013-09-13T14:05:50Z</time>
      </trkpt>
      <trkpt lat="42.097217" lon="1.035383">
        <ele>1563.0</ele>
        <time>2013-09-13T14:05:51Z</time>
      </trkpt>
      <trkpt lat="42.097067" lon="1.035317">
        <ele>1565.0</ele>
        <time>2013-09-13T14:05:53Z</time>
      </trkpt>
      <trkpt lat="42.097017" lon="1.035250">
        <ele>1565.0</ele>
        <time>2013-09-13T14:05:54Z</time>
      </trkpt>
      <trkpt lat="42.096967" lon="1.035167">
        <ele>1565.0</ele>
        <time>2013-09-13T14:05:55Z</time>
      </trkpt>
      <trkpt lat="42.096917" lon="1.035083">
        <ele>1567.0</ele>
        <time>2013-09-13T14:05:56Z</time>
      </trkpt>
      <trkpt lat="42.096900" lon="1.035000">
        <ele>1569.0</ele>
        <time>2013-09-13T14:05:57Z</time>
      </trkpt>
      <trkpt lat="42.096900" lon="1.034917">
        <ele>1571.0</ele>
        <time>2013-09-13T14:05:58Z</time>
      </trkpt>
      <trkpt lat="42.096883" lon="1.034833">
        <ele>1572.0</ele>
        <time>2013-09-13T14:05:59Z</time>
      </trkpt>
      <trkpt lat="42.096883" lon="1.034717">
        <ele>1573.0</ele>
        <time>2013-09-13T14:06:00Z</time>
      </trkpt>
      <trkpt lat="42.096883" lon="1.034617">
        <ele>1573.0</ele>
        <time>2013-09-13T14:06:01Z</time>
      </trkpt>
      <trkpt lat="42.096917" lon="1.034517">
        <ele>1575.0</ele>
        <time>2013-09-13T14:06:02Z</time>
      </trkpt>
      <trkpt lat="42.096983" lon="1.034433">
        <ele>1576.0</ele>
        <time>2013-09-13T14:06:03Z</time>
      </trkpt>
      <trkpt lat="42.097067" lon="1.034367">
        <ele>1577.0</ele>
        <time>2013-09-13T14:06:04Z</time>
      </trkpt>
      <trkpt lat="42.097150" lon="1.034333">
        <ele>1578.0</ele>
        <time>2013-09-13T14:06:05Z</time>
      </trkpt>
      <trkpt lat="42.097233" lon="1.034300">
        <ele>1580.0</ele>
        <time>2013-09-13T14:06:06Z</time>
      </trkpt>
      <trkpt lat="42.097317" lon="1.034283">
        <ele>1581.0</ele>
        <time>2013-09-13T14:06:07Z</time>
      </trkpt>
      <trkpt lat="42.097417" lon="1.034300">
        <ele>1582.0</ele>
        <time>2013-09-13T14:06:08Z</time>
      </trkpt>
      <trkpt lat="42.097500" lon="1.034350">
        <ele>1583.0</ele>
        <time>2013-09-13T14:06:09Z</time>
      </trkpt>
      <trkpt lat="42.097583" lon="1.034417">
        <ele>1584.0</ele>
        <time>2013-09-13T14:06:10Z</time>
      </trkpt>
      <trkpt lat="42.097667" lon="1.034517">
        <ele>1585.0</ele>
        <time>2013-09-13T14:06:11Z</time>
      </trkpt>
      <trkpt lat="42.097717" lon="1.034600">
        <ele>1588.0</ele>
        <time>2013-09-13T14:06:12Z</time>
      </trkpt>
      <trkpt lat="42.097767" lon="1.034683">
        <ele>1590.0</ele>
        <time>2013-09-13T14:06:13Z</time>
      </trkpt>
      <trkpt lat="42.097800" lon="1.034800">
        <ele>1591.0</ele>
        <time>2013-09-13T14:06:14Z</time>
      </trkpt>
      <trkpt lat="42.097800" lon="1.034917">
        <ele>1592.0</ele>
        <time>2013-09-13T14:06:15Z</time>
      </trkpt>
      <trkpt lat="42.097783" lon="1.035033">
        <ele>1593.0</ele>
        <time>2013-09-13T14:06:16Z</time>
      </trkpt>
      <trkpt lat="42.097750" lon="1.035133">
        <ele>1594.0</ele>
        <time>2013-09-13T14:06:17Z</time>
      </trkpt>
      <trkpt lat="42.097683" lon="1.035200">
        <ele>1595.0</ele>
        <time>2013-09-13T14:06:18Z</time>
      </trkpt>
      <trkpt lat="42.097617" lon="1.035233">
        <ele>1596.0</ele>
        <time>2013-09-13T14:06:19Z</time>
      </trkpt>
      <trkpt lat="42.097550" lon="1.035250">
        <ele>1596.0</ele>
        <time>2013-09-13T14:06:20Z</time>
      </trkpt>
      <trkpt lat="42.097483" lon="1.035250">
        <ele>1596.0</ele>
        <time>2013-09-13T14:06:21Z</time>
      </trkpt>
      <trkpt lat="42.097417" lon="1.035233">
        <ele>1595.0</ele>
        <time>2013-09-13T14:06:22Z</time>
      </trkpt>
      <trkpt lat="42.097350" lon="1.035167">
        <ele>1595.0</ele>
        <time>2013-09-13T14:06:23Z</time>
      </trkpt>
      <trkpt lat="42.097317" lon="1.035083">
        <ele>1596.0</ele>
        <time>2013-09-13T14:06:24Z</time>
      </trkpt>
      <trkpt lat="42.097283" lon="1.035000">
        <ele>1597.0</ele>
        <time>2013-09-13T14:06:25Z</time>
      </trkpt>
      <trkpt lat="42.097267" lon="1.034933">
        <ele>1599.0</ele>
        <time>2013-09-13T14:06:26Z</time>
      </trkpt>
      <trkpt lat="42.097267" lon="1.034833">
        <ele>1600.0</ele>
        <time>2013-09-13T14:06:27Z</time>
      </trkpt>
      <trkpt lat="42.097267" lon="1.034733">
        <ele>1600.0</ele>
        <time>2013-09-13T14:06:28Z</time>
      </trkpt>
      <trkpt lat="42.097300" lon="1.034617">
        <ele>1601.0</ele>
        <time>2013-09-13T14:06:29Z</time>
      </trkpt>
      <trkpt lat="42.097333" lon="1.034517">
        <ele>1601.0</ele>
        <time>2013-09-13T14:06:30Z</time>
      </trkpt>
      <trkpt lat="42.097383" lon="1.034433">
        <ele>1601.0</ele>
        <time>2013-09-13T14:06:31Z</time>
      </trkpt>
      <trkpt lat="42.097450" lon="1.034350">
        <ele>1603.0</ele>
        <time>2013-09-13T14:06:32Z</time>
      </trkpt>
      <trkpt lat="42.097533" lon="1.034317">
        <ele>1604.0</ele>
        <time>2013-09-13T14:06:33Z</time>
      </trkpt>
      <trkpt lat="42.097617" lon="1.034317">
        <ele>1605.0</ele>
        <time>2013-09-13T14:06:34Z</time>
      </trkpt>
      <trkpt lat="42.097717" lon="1.034333">
        <ele>1605.0</ele>
        <time>2013-09-13T14:06:35Z</time>
      </trkpt>
      <trkpt lat="42.097817" lon="1.034367">
        <ele>1605.0</ele>
        <time>2013-09-13T14:06:36Z</time>
      </trkpt>
      <trkpt lat="42.097900" lon="1.034433">
        <ele>1606.0</ele>
        <time>2013-09-13T14:06:37Z</time>
      </trkpt>
      <trkpt lat="42.097967" lon="1.034517">
        <ele>1607.0</ele>
        <time>2013-09-13T14:06:38Z</time>
      </trkpt>
      <trkpt lat="42.098000" lon="1.034617">
        <ele>1608.0</ele>
        <time>2013-09-13T14:06:39Z</time>
      </trkpt>
      <trkpt lat="42.098033" lon="1.034717">
        <ele>1609.0</ele>
        <time>2013-09-13T14:06:40Z</time>
      </trkpt>
      <trkpt lat="42.098050" lon="1.034833">
        <ele>1610.0</ele>
        <time>2013-09-13T14:06:41Z</time>
      </trkpt>
      <trkpt lat="42.098033" lon="1.034933">
        <ele>1611.0</ele>
        <time>2013-09-13T14:06:42Z</time>
      </trkpt>
      <trkpt lat="42.098017" lon="1.035033">
        <ele>1611.0</ele>
        <time>2013-09-13T14:06:43Z</time>
      </trkpt>
      <trkpt lat="42.097967" lon="1.035117">
        <ele>1611.0</ele>
        <time>2013-09-13T14:06:44Z</time>
      </trkpt>
      <trkpt lat="42.097917" lon="1.035183">
        <ele>1612.0</ele>
        <time>2013-09-13T14:06:45Z</time>
      </trkpt>
      <trkpt lat="42.097850" lon="1.035233">
        <ele>1612.0</ele>
        <time>2013-09-13T14:06:46Z</time>
      </trkpt>
      <trkpt lat="42.097800" lon="1.035267">
        <ele>1613.0</ele>
        <time>2013-09-13T14:06:47Z</time>
      </trkpt>
      <trkpt lat="42.097750" lon="1.035267">
        <ele>1613.0</ele>
        <time>2013-09-13T14:06:48Z</time>
      </trkpt>
      <trkpt lat="42.097683" lon="1.035267">
        <ele>1612.0</ele>
        <time>2013-09-13T14:06:49Z</time>
      </trkpt>
      <trkpt lat="42.097617" lon="1.035217">
        <ele>1611.0</ele>
        <time>2013-09-13T14:06:50Z</time>
      </trkpt>
      <trkpt lat="42.097550" lon="1.035150">
        <ele>1609.0</ele>
        <time>2013-09-13T14:06:51Z</time>
      </trkpt>
      <trkpt lat="42.097483" lon="1.035083">
        <ele>1609.0</ele>
        <time>2013-09-13T14:06:52Z</time>
      </trkpt>
      <trkpt lat="42.097433" lon="1.034983">
        <ele>1611.0</ele>
        <time>2013-09-13T14:06:53Z</time>
      </trkpt>
      <trkpt lat="42.097400" lon="1.034917">
        <ele>1615.0</ele>
        <time>2013-09-13T14:06:54Z</time>
      </trkpt>
      <trkpt lat="42.097367" lon="1.034833">
        <ele>1616.0</ele>
        <time>2013-09-13T14:06:55Z</time>
      </trkpt>
      <trkpt lat="42.097350" lon="1.034733">
        <ele>1617.0</ele>
        <time>2013-09-13T14:06:56Z</time>
      </trkpt>
      <trkpt lat="42.097350" lon="1.034600">
        <ele>1617.0</ele>
        <time>2013-09-13T14:06:57Z</time>
      </trkpt>
      <trkpt lat="42.097367" lon="1.034450">
        <ele>1616.0</ele>
        <time>2013-09-13T14:06:58Z</time>
      </trkpt>
      <trkpt lat="42.097417" lon="1.034317">
        <ele>1615.0</ele>
        <time>2013-09-13T14:06:59Z</time>
      </trkpt>
      <trkpt lat="42.097483" lon="1.034233">
        <ele>1616.0</ele>
        <time>2013-09-13T14:07:00Z</time>
      </trkpt>
      <trkpt lat="42.097550" lon="1.034167">
        <ele>1618.0</ele>
        <time>2013-09-13T14:07:01Z</time>
      </trkpt>
      <trkpt lat="42.097633" lon="1.034117">
        <ele>1618.0</ele>
        <time>2013-09-13T14:07:02Z</time>
      </trkpt>
      <trkpt lat="42.097700" lon="1.034067">
        <ele>1618.0</ele>
        <time>2013-09-13T14:07:03Z</time>
      </trkpt>
      <trkpt lat="42.097800" lon="1.034017">
        <ele>1617.0</ele>
        <time>2013-09-13T14:07:04Z</time>
      </trkpt>
      <trkpt lat="42.097917" lon="1.034017">
        <ele>1616.0</ele>
        <time>2013-09-13T14:07:05Z</time>
      </trkpt>
      <trkpt lat="42.098017" lon="1.034033">
        <ele>1616.0</ele>
        <time>2013-09-13T14:07:06Z</time>
      </trkpt>
      <trkpt lat="42.098100" lon="1.034100">
        <ele>1617.0</ele>
        <time>2013-09-13T14:07:07Z</time>
      </trkpt>
      <trkpt lat="42.098233" lon="1.034233">
        <ele>1618.0</ele>
        <time>2013-09-13T14:07:09Z</time>
      </trkpt>
      <trkpt lat="42.098283" lon="1.034317">
        <ele>1619.0</ele>
        <time>2013-09-13T14:07:10Z</time>
      </trkpt>
      <trkpt lat="42.098317" lon="1.034400">
        <ele>1619.0</ele>
        <time>2013-09-13T14:07:11Z</time>
      </trkpt>
      <trkpt lat="42.098333" lon="1.034517">
        <ele>1619.0</ele>
        <time>2013-09-13T14:07:12Z</time>
      </trkpt>
      <trkpt lat="42.098333" lon="1.034633">
        <ele>1619.0</ele>
        <time>2013-09-13T14:07:13Z</time>
      </trkpt>
      <trkpt lat="42.098317" lon="1.034733">
        <ele>1620.0</ele>
        <time>2013-09-13T14:07:14Z</time>
      </trkpt>
      <trkpt lat="42.098267" lon="1.034800">
        <ele>1621.0</ele>
        <time>2013-09-13T14:07:15Z</time>
      </trkpt>
      <trkpt lat="42.098217" lon="1.034850">
        <ele>1621.0</ele>
        <time>2013-09-13T14:07:16Z</time>
      </trkpt>
      <trkpt lat="42.098150" lon="1.034883">
        <ele>1621.0</ele>
        <time>2013-09-13T14:07:17Z</time>
      </trkpt>
      <trkpt lat="42.098083" lon="1.034917">
        <ele>1620.0</ele>
        <time>2013-09-13T14:07:18Z</time>
      </trkpt>
      <trkpt lat="42.098000" lon="1.034917">
        <ele>1620.0</ele>
        <time>2013-09-13T14:07:19Z</time>
      </trkpt>
      <trkpt lat="42.097933" lon="1.034900">
        <ele>1620.0</ele>
        <time>2013-09-13T14:07:20Z</time>
      </trkpt>
      <trkpt lat="42.097850" lon="1.034867">
        <ele>1620.0</ele>
        <time>2013-09-13T14:07:21Z</time>
      </trkpt>
      <trkpt lat="42.097800" lon="1.034817">
        <ele>1621.0</ele>
        <time>2013-09-13T14:07:22Z</time>
      </trkpt>
      <trkpt lat="42.097750" lon="1.034750">
        <ele>1622.0</ele>
        <time>2013-09-13T14:07:23Z</time>
      </trkpt>
      <trkpt lat="42.097717" lon="1.034650">
        <ele>1622.0</ele>
        <time>2013-09-13T14:07:24Z</time>
      </trkpt>
      <trkpt lat="42.097700" lon="1.034533">
        <ele>1622.0</ele>
        <time>2013-09-13T14:07:25Z</time>
      </trkpt>
      <trkpt lat="42.097700" lon="1.034417">
        <ele>1621.0</ele>
        <time>2013-09-13T14:07:26Z</time>
      </trkpt>
      <trkpt lat="42.097717" lon="1.034300">
        <ele>1622.0</ele>
        <time>2013-09-13T14:07:27Z</time>
      </trkpt>
      <trkpt lat="42.097750" lon="1.034183">
        <ele>1622.0</ele>
        <time>2013-09-13T14:07:28Z</time>
      </trkpt>
      <trkpt lat="42.097800" lon="1.034083">
        <ele>1622.0</ele>
        <time>2013-09-13T14:07:29Z</time>
      </trkpt>
      <trkpt lat="42.097867" lon="1.033983">
        <ele>1622.0</ele>
        <time>2013-09-13T14:07:30Z</time>
      </trkpt>
      <trkpt lat="42.097950" lon="1.033900">
        <ele>1622.0</ele>
        <time>2013-09-13T14:07:31Z</time>
      </trkpt>
      <trkpt lat="42.098033" lon="1.033833">
        <ele>1623.0</ele>
        <time>2013-09-13T14:07:32Z</time>
      </trkpt>
      <trkpt lat="42.098117" lon="1.033783">
        <ele>1623.0</ele>
        <time>2013-09-13T14:07:33Z</time>
      </trkpt>
      <trkpt lat="42.098200" lon="1.033733">
        <ele>1624.0</ele>
        <time>2013-09-13T14:07:34Z</time>
      </trkpt>
      <trkpt lat="42.098283" lon="1.033683">
        <ele>1624.0</ele>
        <time>2013-09-13T14:07:35Z</time>
      </trkpt>
      <trkpt lat="42.098383" lon="1.033667">
        <ele>1624.0</ele>
        <time>2013-09-13T14:07:36Z</time>
      </trkpt>
      <trkpt lat="42.098483" lon="1.033683">
        <ele>1623.0</ele>
        <time>2013-09-13T14:07:37Z</time>
      </trkpt>
      <trkpt lat="42.098583" lon="1.033700">
        <ele>1623.0</ele>
        <time>2013-09-13T14:07:38Z</time>
      </trkpt>
      <trkpt lat="42.098667" lon="1.033733">
        <ele>1623.0</ele>
        <time>2013-09-13T14:07:39Z</time>
      </trkpt>
      <trkpt lat="42.098750" lon="1.033783">
        <ele>1624.0</ele>
        <time>2013-09-13T14:07:40Z</time>
      </trkpt>
      <trkpt lat="42.098817" lon="1.033817">
        <ele>1625.0</ele>
        <time>2013-09-13T14:07:41Z</time>
      </trkpt>
      <trkpt lat="42.098883" lon="1.033883">
        <ele>1626.0</ele>
        <time>2013-09-13T14:07:42Z</time>
      </trkpt>
      <trkpt lat="42.098950" lon="1.033933">
        <ele>1626.0</ele>
        <time>2013-09-13T14:07:43Z</time>
      </trkpt>
      <trkpt lat="42.099017" lon="1.034000">
        <ele>1626.0</ele>
        <time>2013-09-13T14:07:44Z</time>
      </trkpt>
      <trkpt lat="42.099067" lon="1.034083">
        <ele>1626.0</ele>
        <time>2013-09-13T14:07:45Z</time>
      </trkpt>
      <trkpt lat="42.099133" lon="1.034167">
        <ele>1625.0</ele>
        <time>2013-09-13T14:07:46Z</time>
      </trkpt>
      <trkpt lat="42.099183" lon="1.034267">
        <ele>1626.0</ele>
        <time>2013-09-13T14:07:47Z</time>
      </trkpt>
      <trkpt lat="42.099250" lon="1.034350">
        <ele>1626.0</ele>
        <time>2013-09-13T14:07:48Z</time>
      </trkpt>
      <trkpt lat="42.099300" lon="1.034433">
        <ele>1627.0</ele>
        <time>2013-09-13T14:07:49Z</time>
      </trkpt>
      <trkpt lat="42.099417" lon="1.034717">
        <ele>1629.0</ele>
        <time>2013-09-13T14:07:52Z</time>
      </trkpt>
      <trkpt lat="42.099400" lon="1.034933">
        <ele>1628.0</ele>
        <time>2013-09-13T14:07:54Z</time>
      </trkpt>
      <trkpt lat="42.099350" lon="1.035033">
        <ele>1628.0</ele>
        <time>2013-09-13T14:07:55Z</time>
      </trkpt>
      <trkpt lat="42.099317" lon="1.035117">
        <ele>1629.0</ele>
        <time>2013-09-13T14:07:56Z</time>
      </trkpt>
      <trkpt lat="42.099283" lon="1.035200">
        <ele>1630.0</ele>
        <time>2013-09-13T14:07:57Z</time>
      </trkpt>
      <trkpt lat="42.099233" lon="1.035250">
        <ele>1631.0</ele>
        <time>2013-09-13T14:07:58Z</time>
      </trkpt>
      <trkpt lat="42.099200" lon="1.035283">
        <ele>1631.0</ele>
        <time>2013-09-13T14:07:59Z</time>
      </trkpt>
      <trkpt lat="42.099133" lon="1.035300">
        <ele>1631.0</ele>
        <time>2013-09-13T14:08:00Z</time>
      </trkpt>
      <trkpt lat="42.099067" lon="1.035300">
        <ele>1628.0</ele>
        <time>2013-09-13T14:08:01Z</time>
      </trkpt>
      <trkpt lat="42.098983" lon="1.035317">
        <ele>1627.0</ele>
        <time>2013-09-13T14:08:02Z</time>
      </trkpt>
      <trkpt lat="42.098900" lon="1.035317">
        <ele>1627.0</ele>
        <time>2013-09-13T14:08:03Z</time>
      </trkpt>
      <trkpt lat="42.098850" lon="1.035283">
        <ele>1629.0</ele>
        <time>2013-09-13T14:08:04Z</time>
      </trkpt>
      <trkpt lat="42.098800" lon="1.035233">
        <ele>1629.0</ele>
        <time>2013-09-13T14:08:05Z</time>
      </trkpt>
      <trkpt lat="42.098750" lon="1.035167">
        <ele>1629.0</ele>
        <time>2013-09-13T14:08:06Z</time>
      </trkpt>
      <trkpt lat="42.098700" lon="1.035067">
        <ele>1627.0</ele>
        <time>2013-09-13T14:08:07Z</time>
      </trkpt>
      <trkpt lat="42.098667" lon="1.034950">
        <ele>1625.0</ele>
        <time>2013-09-13T14:08:08Z</time>
      </trkpt>
      <trkpt lat="42.098667" lon="1.034833">
        <ele>1624.0</ele>
        <time>2013-09-13T14:08:09Z</time>
      </trkpt>
      <trkpt lat="42.098667" lon="1.034700">
        <ele>1624.0</ele>
        <time>2013-09-13T14:08:10Z</time>
      </trkpt>
      <trkpt lat="42.098700" lon="1.034583">
        <ele>1623.0</ele>
        <time>2013-09-13T14:08:11Z</time>
      </trkpt>
      <trkpt lat="42.098717" lon="1.034467">
        <ele>1622.0</ele>
        <time>2013-09-13T14:08:12Z</time>
      </trkpt>
      <trkpt lat="42.098767" lon="1.034350">
        <ele>1621.0</ele>
        <time>2013-09-13T14:08:13Z</time>
      </trkpt>
      <trkpt lat="42.098833" lon="1.034233">
        <ele>1621.0</ele>
        <time>2013-09-13T14:08:14Z</time>
      </trkpt>
      <trkpt lat="42.098917" lon="1.034150">
        <ele>1620.0</ele>
        <time>2013-09-13T14:08:15Z</time>
      </trkpt>
      <trkpt lat="42.099000" lon="1.034100">
        <ele>1620.0</ele>
        <time>2013-09-13T14:08:16Z</time>
      </trkpt>
      <trkpt lat="42.099100" lon="1.034067">
        <ele>1620.0</ele>
        <time>2013-09-13T14:08:17Z</time>
      </trkpt>
      <trkpt lat="42.099183" lon="1.034033">
        <ele>1621.0</ele>
        <time>2013-09-13T14:08:18Z</time>
      </trkpt>
      <trkpt lat="42.099267" lon="1.034017">
        <ele>1622.0</ele>
        <time>2013-09-13T14:08:19Z</time>
      </trkpt>
      <trkpt lat="42.099350" lon="1.034017">
        <ele>1622.0</ele>
        <time>2013-09-13T14:08:20Z</time>
      </trkpt>
      <trkpt lat="42.099433" lon="1.034017">
        <ele>1622.0</ele>
        <time>2013-09-13T14:08:21Z</time>
      </trkpt>
      <trkpt lat="42.099533" lon="1.034033">
        <ele>1621.0</ele>
        <time>2013-09-13T14:08:22Z</time>
      </trkpt>
      <trkpt lat="42.099633" lon="1.034050">
        <ele>1619.0</ele>
        <time>2013-09-13T14:08:23Z</time>
      </trkpt>
      <trkpt lat="42.099733" lon="1.034067">
        <ele>1618.0</ele>
        <time>2013-09-13T14:08:24Z</time>
      </trkpt>
      <trkpt lat="42.099817" lon="1.034067">
        <ele>1619.0</ele>
        <time>2013-09-13T14:08:25Z</time>
      </trkpt>
      <trkpt lat="42.099900" lon="1.034100">
        <ele>1620.0</ele>
        <time>2013-09-13T14:08:26Z</time>
      </trkpt>
      <trkpt lat="42.099983" lon="1.034117">
        <ele>1620.0</ele>
        <time>2013-09-13T14:08:27Z</time>
      </trkpt>
      <trkpt lat="42.100083" lon="1.034150">
        <ele>1619.0</ele>
        <time>2013-09-13T14:08:28Z</time>
      </trkpt>
      <trkpt lat="42.100167" lon="1.034200">
        <ele>1618.0</ele>
        <time>2013-09-13T14:08:29Z</time>
      </trkpt>
      <trkpt lat="42.100283" lon="1.034267">
        <ele>1617.0</ele>
        <time>2013-09-13T14:08:30Z</time>
      </trkpt>
      <trkpt lat="42.100383" lon="1.034317">
        <ele>1617.0</ele>
        <time>2013-09-13T14:08:31Z</time>
      </trkpt>
      <trkpt lat="42.100483" lon="1.034350">
        <ele>1618.0</ele>
        <time>2013-09-13T14:08:32Z</time>
      </trkpt>
      <trkpt lat="42.100567" lon="1.034383">
        <ele>1618.0</ele>
        <time>2013-09-13T14:08:33Z</time>
      </trkpt>
      <trkpt lat="42.100650" lon="1.034417">
        <ele>1618.0</ele>
        <time>2013-09-13T14:08:34Z</time>
      </trkpt>
      <trkpt lat="42.100750" lon="1.034450">
        <ele>1618.0</ele>
        <time>2013-09-13T14:08:35Z</time>
      </trkpt>
      <trkpt lat="42.100833" lon="1.034483">
        <ele>1618.0</ele>
        <time>2013-09-13T14:08:36Z</time>
      </trkpt>
      <trkpt lat="42.100933" lon="1.034517">
        <ele>1618.0</ele>
        <time>2013-09-13T14:08:37Z</time>
      </trkpt>
      <trkpt lat="42.101017" lon="1.034550">
        <ele>1618.0</ele>
        <time>2013-09-13T14:08:38Z</time>
      </trkpt>
      <trkpt lat="42.101083" lon="1.034567">
        <ele>1618.0</ele>
        <time>2013-09-13T14:08:39Z</time>
      </trkpt>
      <trkpt lat="42.101150" lon="1.034583">
        <ele>1618.0</ele>
        <time>2013-09-13T14:08:40Z</time>
      </trkpt>
      <trkpt lat="42.101233" lon="1.034600">
        <ele>1617.0</ele>
        <time>2013-09-13T14:08:41Z</time>
      </trkpt>
      <trkpt lat="42.101317" lon="1.034633">
        <ele>1615.0</ele>
        <time>2013-09-13T14:08:42Z</time>
      </trkpt>
      <trkpt lat="42.101417" lon="1.034650">
        <ele>1613.0</ele>
        <time>2013-09-13T14:08:43Z</time>
      </trkpt>
      <trkpt lat="42.101517" lon="1.034683">
        <ele>1611.0</ele>
        <time>2013-09-13T14:08:44Z</time>
      </trkpt>
      <trkpt lat="42.101617" lon="1.034700">
        <ele>1610.0</ele>
        <time>2013-09-13T14:08:45Z</time>
      </trkpt>
      <trkpt lat="42.101683" lon="1.034717">
        <ele>1611.0</ele>
        <time>2013-09-13T14:08:46Z</time>
      </trkpt>
      <trkpt lat="42.101767" lon="1.034750">
        <ele>1611.0</ele>
        <time>2013-09-13T14:08:47Z</time>
      </trkpt>
      <trkpt lat="42.101833" lon="1.034767">
        <ele>1611.0</ele>
        <time>2013-09-13T14:08:48Z</time>
      </trkpt>
      <trkpt lat="42.101917" lon="1.034783">
        <ele>1611.0</ele>
        <time>2013-09-13T14:08:49Z</time>
      </trkpt>
      <trkpt lat="42.102017" lon="1.034800">
        <ele>1610.0</ele>
        <time>2013-09-13T14:08:50Z</time>
      </trkpt>
      <trkpt lat="42.102100" lon="1.034817">
        <ele>1609.0</ele>
        <time>2013-09-13T14:08:51Z</time>
      </trkpt>
      <trkpt lat="42.102200" lon="1.034833">
        <ele>1607.0</ele>
        <time>2013-09-13T14:08:52Z</time>
      </trkpt>
      <trkpt lat="42.102450" lon="1.034867">
        <ele>1603.0</ele>
        <time>2013-09-13T14:08:55Z</time>
      </trkpt>
      <trkpt lat="42.102550" lon="1.034883">
        <ele>1601.0</ele>
        <time>2013-09-13T14:08:56Z</time>
      </trkpt>
      <trkpt lat="42.102633" lon="1.034900">
        <ele>1599.0</ele>
        <time>2013-09-13T14:08:57Z</time>
      </trkpt>
      <trkpt lat="42.102733" lon="1.034917">
        <ele>1597.0</ele>
        <time>2013-09-13T14:08:58Z</time>
      </trkpt>
      <trkpt lat="42.102833" lon="1.034933">
        <ele>1595.0</ele>
        <time>2013-09-13T14:08:59Z</time>
      </trkpt>
      <trkpt lat="42.102950" lon="1.034950">
        <ele>1593.0</ele>
        <time>2013-09-13T14:09:00Z</time>
      </trkpt>
      <trkpt lat="42.103050" lon="1.034950">
        <ele>1592.0</ele>
        <time>2013-09-13T14:09:01Z</time>
      </trkpt>
      <trkpt lat="42.103150" lon="1.034967">
        <ele>1592.0</ele>
        <time>2013-09-13T14:09:02Z</time>
      </trkpt>
      <trkpt lat="42.103250" lon="1.034967">
        <ele>1592.0</ele>
        <time>2013-09-13T14:09:03Z</time>
      </trkpt>
      <trkpt lat="42.103350" lon="1.034967">
        <ele>1591.0</ele>
        <time>2013-09-13T14:09:04Z</time>
      </trkpt>
      <trkpt lat="42.103450" lon="1.034967">
        <ele>1591.0</ele>
        <time>2013-09-13T14:09:05Z</time>
      </trkpt>
      <trkpt lat="42.103550" lon="1.034983">
        <ele>1590.0</ele>
        <time>2013-09-13T14:09:06Z</time>
      </trkpt>
      <trkpt lat="42.103650" lon="1.034983">
        <ele>1591.0</ele>
        <time>2013-09-13T14:09:07Z</time>
      </trkpt>
      <trkpt lat="42.103733" lon="1.034983">
        <ele>1591.0</ele>
        <time>2013-09-13T14:09:08Z</time>
      </trkpt>
      <trkpt lat="42.103833" lon="1.034983">
        <ele>1592.0</ele>
        <time>2013-09-13T14:09:09Z</time>
      </trkpt>
      <trkpt lat="42.103933" lon="1.034983">
        <ele>1592.0</ele>
        <time>2013-09-13T14:09:10Z</time>
      </trkpt>
      <trkpt lat="42.104033" lon="1.034983">
        <ele>1592.0</ele>
        <time>2013-09-13T14:09:11Z</time>
      </trkpt>
      <trkpt lat="42.104133" lon="1.034983">
        <ele>1592.0</ele>
        <time>2013-09-13T14:09:12Z</time>
      </trkpt>
      <trkpt lat="42.104217" lon="1.034983">
        <ele>1593.0</ele>
        <time>2013-09-13T14:09:13Z</time>
      </trkpt>
      <trkpt lat="42.104300" lon="1.034983">
        <ele>1593.0</ele>
        <time>2013-09-13T14:09:14Z</time>
      </trkpt>
      <trkpt lat="42.104367" lon="1.035000">
        <ele>1593.0</ele>
        <time>2013-09-13T14:09:15Z</time>
      </trkpt>
      <trkpt lat="42.104467" lon="1.035017">
        <ele>1593.0</ele>
        <time>2013-09-13T14:09:16Z</time>
      </trkpt>
      <trkpt lat="42.104550" lon="1.035050">
        <ele>1592.0</ele>
        <time>2013-09-13T14:09:17Z</time>
      </trkpt>
      <trkpt lat="42.104633" lon="1.035100">
        <ele>1591.0</ele>
        <time>2013-09-13T14:09:18Z</time>
      </trkpt>
      <trkpt lat="42.104700" lon="1.035167">
        <ele>1591.0</ele>
        <time>2013-09-13T14:09:19Z</time>
      </trkpt>
      <trkpt lat="42.104767" lon="1.035250">
        <ele>1591.0</ele>
        <time>2013-09-13T14:09:20Z</time>
      </trkpt>
      <trkpt lat="42.104817" lon="1.035350">
        <ele>1589.0</ele>
        <time>2013-09-13T14:09:21Z</time>
      </trkpt>
      <trkpt lat="42.104883" lon="1.035450">
        <ele>1587.0</ele>
        <time>2013-09-13T14:09:22Z</time>
      </trkpt>
      <trkpt lat="42.104983" lon="1.035533">
        <ele>1584.0</ele>
        <time>2013-09-13T14:09:23Z</time>
      </trkpt>
      <trkpt lat="42.105083" lon="1.035600">
        <ele>1583.0</ele>
        <time>2013-09-13T14:09:24Z</time>
      </trkpt>
      <trkpt lat="42.105167" lon="1.035667">
        <ele>1583.0</ele>
        <time>2013-09-13T14:09:25Z</time>
      </trkpt>
      <trkpt lat="42.105250" lon="1.035700">
        <ele>1583.0</ele>
        <time>2013-09-13T14:09:26Z</time>
      </trkpt>
      <trkpt lat="42.105333" lon="1.035733">
        <ele>1583.0</ele>
        <time>2013-09-13T14:09:27Z</time>
      </trkpt>
      <trkpt lat="42.105417" lon="1.035767">
        <ele>1582.0</ele>
        <time>2013-09-13T14:09:28Z</time>
      </trkpt>
      <trkpt lat="42.105517" lon="1.035800">
        <ele>1581.0</ele>
        <time>2013-09-13T14:09:29Z</time>
      </trkpt>
      <trkpt lat="42.105617" lon="1.035833">
        <ele>1580.0</ele>
        <time>2013-09-13T14:09:30Z</time>
      </trkpt>
      <trkpt lat="42.105700" lon="1.035850">
        <ele>1580.0</ele>
        <time>2013-09-13T14:09:31Z</time>
      </trkpt>
      <trkpt lat="42.105800" lon="1.035850">
        <ele>1579.0</ele>
        <time>2013-09-13T14:09:32Z</time>
      </trkpt>
      <trkpt lat="42.105883" lon="1.035850">
        <ele>1579.0</ele>
        <time>2013-09-13T14:09:33Z</time>
      </trkpt>
      <trkpt lat="42.105983" lon="1.035850">
        <ele>1579.0</ele>
        <time>2013-09-13T14:09:34Z</time>
      </trkpt>
      <trkpt lat="42.106067" lon="1.035850">
        <ele>1578.0</ele>
        <time>2013-09-13T14:09:35Z</time>
      </trkpt>
      <trkpt lat="42.106167" lon="1.035850">
        <ele>1576.0</ele>
        <time>2013-09-13T14:09:36Z</time>
      </trkpt>
      <trkpt lat="42.106250" lon="1.035850">
        <ele>1575.0</ele>
        <time>2013-09-13T14:09:37Z</time>
      </trkpt>
      <trkpt lat="42.106350" lon="1.035867">
        <ele>1574.0</ele>
        <time>2013-09-13T14:09:38Z</time>
      </trkpt>
      <trkpt lat="42.106433" lon="1.035867">
        <ele>1573.0</ele>
        <time>2013-09-13T14:09:39Z</time>
      </trkpt>
      <trkpt lat="42.106533" lon="1.035883">
        <ele>1572.0</ele>
        <time>2013-09-13T14:09:40Z</time>
      </trkpt>
      <trkpt lat="42.106617" lon="1.035883">
        <ele>1571.0</ele>
        <time>2013-09-13T14:09:41Z</time>
      </trkpt>
      <trkpt lat="42.106717" lon="1.035883">
        <ele>1570.0</ele>
        <time>2013-09-13T14:09:42Z</time>
      </trkpt>
      <trkpt lat="42.106817" lon="1.035883">
        <ele>1569.0</ele>
        <time>2013-09-13T14:09:43Z</time>
      </trkpt>
      <trkpt lat="42.106900" lon="1.035883">
        <ele>1569.0</ele>
        <time>2013-09-13T14:09:44Z</time>
      </trkpt>
      <trkpt lat="42.107000" lon="1.035883">
        <ele>1568.0</ele>
        <time>2013-09-13T14:09:45Z</time>
      </trkpt>
      <trkpt lat="42.107083" lon="1.035883">
        <ele>1567.0</ele>
        <time>2013-09-13T14:09:46Z</time>
      </trkpt>
      <trkpt lat="42.107183" lon="1.035900">
        <ele>1566.0</ele>
        <time>2013-09-13T14:09:47Z</time>
      </trkpt>
      <trkpt lat="42.107283" lon="1.035900">
        <ele>1565.0</ele>
        <time>2013-09-13T14:09:48Z</time>
      </trkpt>
      <trkpt lat="42.107383" lon="1.035917">
        <ele>1564.0</ele>
        <time>2013-09-13T14:09:49Z</time>
      </trkpt>
      <trkpt lat="42.107500" lon="1.035933">
        <ele>1563.0</ele>
        <time>2013-09-13T14:09:50Z</time>
      </trkpt>
      <trkpt lat="42.107600" lon="1.035967">
        <ele>1562.0</ele>
        <time>2013-09-13T14:09:51Z</time>
      </trkpt>
      <trkpt lat="42.107700" lon="1.035983">
        <ele>1562.0</ele>
        <time>2013-09-13T14:09:52Z</time>
      </trkpt>
      <trkpt lat="42.107783" lon="1.035983">
        <ele>1561.0</ele>
        <time>2013-09-13T14:09:53Z</time>
      </trkpt>
      <trkpt lat="42.107883" lon="1.036000">
        <ele>1559.0</ele>
        <time>2013-09-13T14:09:54Z</time>
      </trkpt>
      <trkpt lat="42.107983" lon="1.036017">
        <ele>1556.0</ele>
        <time>2013-09-13T14:09:55Z</time>
      </trkpt>
      <trkpt lat="42.108083" lon="1.036033">
        <ele>1554.0</ele>
        <time>2013-09-13T14:09:56Z</time>
      </trkpt>
      <trkpt lat="42.108200" lon="1.036050">
        <ele>1551.0</ele>
        <time>2013-09-13T14:09:57Z</time>
      </trkpt>
      <trkpt lat="42.108283" lon="1.036067">
        <ele>1550.0</ele>
        <time>2013-09-13T14:09:58Z</time>
      </trkpt>
      <trkpt lat="42.108383" lon="1.036083">
        <ele>1549.0</ele>
        <time>2013-09-13T14:09:59Z</time>
      </trkpt>
      <trkpt lat="42.108467" lon="1.036100">
        <ele>1548.0</ele>
        <time>2013-09-13T14:10:00Z</time>
      </trkpt>
      <trkpt lat="42.108567" lon="1.036117">
        <ele>1546.0</ele>
        <time>2013-09-13T14:10:01Z</time>
      </trkpt>
      <trkpt lat="42.108667" lon="1.036133">
        <ele>1543.0</ele>
        <time>2013-09-13T14:10:02Z</time>
      </trkpt>
      <trkpt lat="42.108767" lon="1.036150">
        <ele>1541.0</ele>
        <time>2013-09-13T14:10:03Z</time>
      </trkpt>
      <trkpt lat="42.108867" lon="1.036167">
        <ele>1540.0</ele>
        <time>2013-09-13T14:10:04Z</time>
      </trkpt>
      <trkpt lat="42.108967" lon="1.036183">
        <ele>1539.0</ele>
        <time>2013-09-13T14:10:05Z</time>
      </trkpt>
      <trkpt lat="42.109050" lon="1.036200">
        <ele>1538.0</ele>
        <time>2013-09-13T14:10:06Z</time>
      </trkpt>
      <trkpt lat="42.109150" lon="1.036200">
        <ele>1538.0</ele>
        <time>2013-09-13T14:10:07Z</time>
      </trkpt>
      <trkpt lat="42.109250" lon="1.036217">
        <ele>1536.0</ele>
        <time>2013-09-13T14:10:08Z</time>
      </trkpt>
      <trkpt lat="42.109350" lon="1.036233">
        <ele>1535.0</ele>
        <time>2013-09-13T14:10:09Z</time>
      </trkpt>
      <trkpt lat="42.109450" lon="1.036267">
        <ele>1534.0</ele>
        <time>2013-09-13T14:10:10Z</time>
      </trkpt>
      <trkpt lat="42.109550" lon="1.036300">
        <ele>1533.0</ele>
        <time>2013-09-13T14:10:11Z</time>
      </trkpt>
      <trkpt lat="42.109633" lon="1.036317">
        <ele>1532.0</ele>
        <time>2013-09-13T14:10:12Z</time>
      </trkpt>
      <trkpt lat="42.109733" lon="1.036350">
        <ele>1531.0</ele>
        <time>2013-09-13T14:10:13Z</time>
      </trkpt>
      <trkpt lat="42.109933" lon="1.036383">
        <ele>1524.0</ele>
        <time>2013-09-13T14:10:15Z</time>
      </trkpt>
      <trkpt lat="42.110033" lon="1.036400">
        <ele>1521.0</ele>
        <time>2013-09-13T14:10:16Z</time>
      </trkpt>
      <trkpt lat="42.110133" lon="1.036433">
        <ele>1518.0</ele>
        <time>2013-09-13T14:10:17Z</time>
      </trkpt>
      <trkpt lat="42.110233" lon="1.036467">
        <ele>1516.0</ele>
        <time>2013-09-13T14:10:18Z</time>
      </trkpt>
      <trkpt lat="42.110333" lon="1.036483">
        <ele>1514.0</ele>
        <time>2013-09-13T14:10:19Z</time>
      </trkpt>
      <trkpt lat="42.110417" lon="1.036517">
        <ele>1511.0</ele>
        <time>2013-09-13T14:10:20Z</time>
      </trkpt>
      <trkpt lat="42.110517" lon="1.036550">
        <ele>1508.0</ele>
        <time>2013-09-13T14:10:21Z</time>
      </trkpt>
      <trkpt lat="42.110617" lon="1.036583">
        <ele>1506.0</ele>
        <time>2013-09-13T14:10:22Z</time>
      </trkpt>
      <trkpt lat="42.110717" lon="1.036633">
        <ele>1504.0</ele>
        <time>2013-09-13T14:10:23Z</time>
      </trkpt>
      <trkpt lat="42.110800" lon="1.036683">
        <ele>1502.0</ele>
        <time>2013-09-13T14:10:24Z</time>
      </trkpt>
      <trkpt lat="42.110883" lon="1.036717">
        <ele>1499.0</ele>
        <time>2013-09-13T14:10:25Z</time>
      </trkpt>
      <trkpt lat="42.110983" lon="1.036750">
        <ele>1497.0</ele>
        <time>2013-09-13T14:10:26Z</time>
      </trkpt>
      <trkpt lat="42.111083" lon="1.036783">
        <ele>1493.0</ele>
        <time>2013-09-13T14:10:27Z</time>
      </trkpt>
      <trkpt lat="42.111183" lon="1.036817">
        <ele>1491.0</ele>
        <time>2013-09-13T14:10:28Z</time>
      </trkpt>
      <trkpt lat="42.111283" lon="1.036850">
        <ele>1489.0</ele>
        <time>2013-09-13T14:10:29Z</time>
      </trkpt>
      <trkpt lat="42.111367" lon="1.036867">
        <ele>1488.0</ele>
        <time>2013-09-13T14:10:30Z</time>
      </trkpt>
      <trkpt lat="42.111467" lon="1.036867">
        <ele>1486.0</ele>
        <time>2013-09-13T14:10:31Z</time>
      </trkpt>
      <trkpt lat="42.111550" lon="1.036883">
        <ele>1485.0</ele>
        <time>2013-09-13T14:10:32Z</time>
      </trkpt>
      <trkpt lat="42.111633" lon="1.036900">
        <ele>1483.0</ele>
        <time>2013-09-13T14:10:33Z</time>
      </trkpt>
      <trkpt lat="42.111733" lon="1.036900">
        <ele>1481.0</ele>
        <time>2013-09-13T14:10:34Z</time>
      </trkpt>
      <trkpt lat="42.111833" lon="1.036917">
        <ele>1478.0</ele>
        <time>2013-09-13T14:10:35Z</time>
      </trkpt>
      <trkpt lat="42.111933" lon="1.036917">
        <ele>1476.0</ele>
        <time>2013-09-13T14:10:36Z</time>
      </trkpt>
      <trkpt lat="42.112033" lon="1.036900">
        <ele>1474.0</ele>
        <time>2013-09-13T14:10:37Z</time>
      </trkpt>
      <trkpt lat="42.112117" lon="1.036900">
        <ele>1473.0</ele>
        <time>2013-09-13T14:10:38Z</time>
      </trkpt>
      <trkpt lat="42.112217" lon="1.036900">
        <ele>1471.0</ele>
        <time>2013-09-13T14:10:39Z</time>
      </trkpt>
      <trkpt lat="42.112300" lon="1.036900">
        <ele>1468.0</ele>
        <time>2013-09-13T14:10:40Z</time>
      </trkpt>
      <trkpt lat="42.112400" lon="1.036900">
        <ele>1466.0</ele>
        <time>2013-09-13T14:10:41Z</time>
      </trkpt>
      <trkpt lat="42.112500" lon="1.036900">
        <ele>1465.0</ele>
        <time>2013-09-13T14:10:42Z</time>
      </trkpt>
      <trkpt lat="42.112583" lon="1.036900">
        <ele>1464.0</ele>
        <time>2013-09-13T14:10:43Z</time>
      </trkpt>
      <trkpt lat="42.112683" lon="1.036900">
        <ele>1462.0</ele>
        <time>2013-09-13T14:10:44Z</time>
      </trkpt>
      <trkpt lat="42.112767" lon="1.036900">
        <ele>1461.0</ele>
        <time>2013-09-13T14:10:45Z</time>
      </trkpt>
      <trkpt lat="42.112867" lon="1.036883">
        <ele>1459.0</ele>
        <time>2013-09-13T14:10:46Z</time>
      </trkpt>
      <trkpt lat="42.112950" lon="1.036883">
        <ele>1458.0</ele>
        <time>2013-09-13T14:10:47Z</time>
      </trkpt>
      <trkpt lat="42.113033" lon="1.036883">
        <ele>1456.0</ele>
        <time>2013-09-13T14:10:48Z</time>
      </trkpt>
      <trkpt lat="42.113117" lon="1.036867">
        <ele>1455.0</ele>
        <time>2013-09-13T14:10:49Z</time>
      </trkpt>
      <trkpt lat="42.113217" lon="1.036833">
        <ele>1453.0</ele>
        <time>2013-09-13T14:10:50Z</time>
      </trkpt>
      <trkpt lat="42.113300" lon="1.036817">
        <ele>1451.0</ele>
        <time>2013-09-13T14:10:51Z</time>
      </trkpt>
      <trkpt lat="42.113383" lon="1.036800">
        <ele>1449.0</ele>
        <time>2013-09-13T14:10:52Z</time>
      </trkpt>
      <trkpt lat="42.113483" lon="1.036767">
        <ele>1447.0</ele>
        <time>2013-09-13T14:10:53Z</time>
      </trkpt>
      <trkpt lat="42.113567" lon="1.036733">
        <ele>1446.0</ele>
        <time>2013-09-13T14:10:54Z</time>
      </trkpt>
      <trkpt lat="42.113650" lon="1.036700">
        <ele>1444.0</ele>
        <time>2013-09-13T14:10:55Z</time>
      </trkpt>
      <trkpt lat="42.113733" lon="1.036667">
        <ele>1442.0</ele>
        <time>2013-09-13T14:10:56Z</time>
      </trkpt>
      <trkpt lat="42.113833" lon="1.036650">
        <ele>1440.0</ele>
        <time>2013-09-13T14:10:57Z</time>
      </trkpt>
      <trkpt lat="42.113917" lon="1.036633">
        <ele>1438.0</ele>
        <time>2013-09-13T14:10:58Z</time>
      </trkpt>
      <trkpt lat="42.114000" lon="1.036617">
        <ele>1437.0</ele>
        <time>2013-09-13T14:10:59Z</time>
      </trkpt>
      <trkpt lat="42.114083" lon="1.036600">
        <ele>1435.0</ele>
        <time>2013-09-13T14:11:00Z</time>
      </trkpt>
      <trkpt lat="42.114183" lon="1.036583">
        <ele>1434.0</ele>
        <time>2013-09-13T14:11:01Z</time>
      </trkpt>
      <trkpt lat="42.114267" lon="1.036567">
        <ele>1433.0</ele>
        <time>2013-09-13T14:11:02Z</time>
      </trkpt>
      <trkpt lat="42.114367" lon="1.036550">
        <ele>1431.0</ele>
        <time>2013-09-13T14:11:03Z</time>
      </trkpt>
      <trkpt lat="42.114450" lon="1.036533">
        <ele>1430.0</ele>
        <time>2013-09-13T14:11:04Z</time>
      </trkpt>
      <trkpt lat="42.114550" lon="1.036517">
        <ele>1429.0</ele>
        <time>2013-09-13T14:11:05Z</time>
      </trkpt>
      <trkpt lat="42.114633" lon="1.036483">
        <ele>1428.0</ele>
        <time>2013-09-13T14:11:06Z</time>
      </trkpt>
      <trkpt lat="42.114717" lon="1.036467">
        <ele>1426.0</ele>
        <time>2013-09-13T14:11:07Z</time>
      </trkpt>
      <trkpt lat="42.114817" lon="1.036433">
        <ele>1423.0</ele>
        <time>2013-09-13T14:11:08Z</time>
      </trkpt>
      <trkpt lat="42.114917" lon="1.036417">
        <ele>1422.0</ele>
        <time>2013-09-13T14:11:09Z</time>
      </trkpt>
      <trkpt lat="42.115017" lon="1.036400">
        <ele>1420.0</ele>
        <time>2013-09-13T14:11:10Z</time>
      </trkpt>
      <trkpt lat="42.115083" lon="1.036383">
        <ele>1419.0</ele>
        <time>2013-09-13T14:11:11Z</time>
      </trkpt>
      <trkpt lat="42.115167" lon="1.036367">
        <ele>1418.0</ele>
        <time>2013-09-13T14:11:12Z</time>
      </trkpt>
      <trkpt lat="42.115250" lon="1.036350">
        <ele>1415.0</ele>
        <time>2013-09-13T14:11:13Z</time>
      </trkpt>
      <trkpt lat="42.115350" lon="1.036333">
        <ele>1412.0</ele>
        <time>2013-09-13T14:11:14Z</time>
      </trkpt>
      <trkpt lat="42.115467" lon="1.036333">
        <ele>1409.0</ele>
        <time>2013-09-13T14:11:15Z</time>
      </trkpt>
      <trkpt lat="42.115550" lon="1.036333">
        <ele>1408.0</ele>
        <time>2013-09-13T14:11:16Z</time>
      </trkpt>
      <trkpt lat="42.115633" lon="1.036317">
        <ele>1407.0</ele>
        <time>2013-09-13T14:11:17Z</time>
      </trkpt>
      <trkpt lat="42.115700" lon="1.036317">
        <ele>1406.0</ele>
        <time>2013-09-13T14:11:18Z</time>
      </trkpt>
      <trkpt lat="42.115783" lon="1.036317">
        <ele>1404.0</ele>
        <time>2013-09-13T14:11:19Z</time>
      </trkpt>
      <trkpt lat="42.115867" lon="1.036333">
        <ele>1402.0</ele>
        <time>2013-09-13T14:11:20Z</time>
      </trkpt>
      <trkpt lat="42.115967" lon="1.036350">
        <ele>1400.0</ele>
        <time>2013-09-13T14:11:21Z</time>
      </trkpt>
      <trkpt lat="42.116117" lon="1.036383">
        <ele>1398.0</ele>
        <time>2013-09-13T14:11:23Z</time>
      </trkpt>
      <trkpt lat="42.116200" lon="1.036383">
        <ele>1397.0</ele>
        <time>2013-09-13T14:11:24Z</time>
      </trkpt>
      <trkpt lat="42.116267" lon="1.036383">
        <ele>1395.0</ele>
        <time>2013-09-13T14:11:25Z</time>
      </trkpt>
      <trkpt lat="42.116367" lon="1.036367">
        <ele>1392.0</ele>
        <time>2013-09-13T14:11:26Z</time>
      </trkpt>
      <trkpt lat="42.116450" lon="1.036367">
        <ele>1389.0</ele>
        <time>2013-09-13T14:11:27Z</time>
      </trkpt>
      <trkpt lat="42.116633" lon="1.036367">
        <ele>1385.0</ele>
        <time>2013-09-13T14:11:29Z</time>
      </trkpt>
      <trkpt lat="42.116717" lon="1.036367">
        <ele>1383.0</ele>
        <time>2013-09-13T14:11:30Z</time>
      </trkpt>
      <trkpt lat="42.116800" lon="1.036367">
        <ele>1381.0</ele>
        <time>2013-09-13T14:11:31Z</time>
      </trkpt>
      <trkpt lat="42.116883" lon="1.036367">
        <ele>1378.0</ele>
        <time>2013-09-13T14:11:32Z</time>
      </trkpt>
      <trkpt lat="42.116983" lon="1.036367">
        <ele>1376.0</ele>
        <time>2013-09-13T14:11:33Z</time>
      </trkpt>
      <trkpt lat="42.117083" lon="1.036367">
        <ele>1374.0</ele>
        <time>2013-09-13T14:11:34Z</time>
      </trkpt>
      <trkpt lat="42.117167" lon="1.036367">
        <ele>1372.0</ele>
        <time>2013-09-13T14:11:35Z</time>
      </trkpt>
      <trkpt lat="42.117250" lon="1.036350">
        <ele>1371.0</ele>
        <time>2013-09-13T14:11:36Z</time>
      </trkpt>
      <trkpt lat="42.117350" lon="1.036350">
        <ele>1369.0</ele>
        <time>2013-09-13T14:11:37Z</time>
      </trkpt>
      <trkpt lat="42.117433" lon="1.036333">
        <ele>1367.0</ele>
        <time>2013-09-13T14:11:38Z</time>
      </trkpt>
      <trkpt lat="42.117533" lon="1.036317">
        <ele>1365.0</ele>
        <time>2013-09-13T14:11:39Z</time>
      </trkpt>
      <trkpt lat="42.117633" lon="1.036317">
        <ele>1363.0</ele>
        <time>2013-09-13T14:11:40Z</time>
      </trkpt>
      <trkpt lat="42.117733" lon="1.036300">
        <ele>1362.0</ele>
        <time>2013-09-13T14:11:41Z</time>
      </trkpt>
      <trkpt lat="42.117817" lon="1.036283">
        <ele>1361.0</ele>
        <time>2013-09-13T14:11:42Z</time>
      </trkpt>
      <trkpt lat="42.117900" lon="1.036283">
        <ele>1360.0</ele>
        <time>2013-09-13T14:11:43Z</time>
      </trkpt>
      <trkpt lat="42.117983" lon="1.036267">
        <ele>1358.0</ele>
        <time>2013-09-13T14:11:44Z</time>
      </trkpt>
      <trkpt lat="42.118083" lon="1.036267">
        <ele>1356.0</ele>
        <time>2013-09-13T14:11:45Z</time>
      </trkpt>
      <trkpt lat="42.118183" lon="1.036250">
        <ele>1353.0</ele>
        <time>2013-09-13T14:11:46Z</time>
      </trkpt>
      <trkpt lat="42.118283" lon="1.036217">
        <ele>1351.0</ele>
        <time>2013-09-13T14:11:47Z</time>
      </trkpt>
      <trkpt lat="42.118383" lon="1.036200">
        <ele>1350.0</ele>
        <time>2013-09-13T14:11:48Z</time>
      </trkpt>
      <trkpt lat="42.118467" lon="1.036183">
        <ele>1350.0</ele>
        <time>2013-09-13T14:11:49Z</time>
      </trkpt>
      <trkpt lat="42.118550" lon="1.036167">
        <ele>1349.0</ele>
        <time>2013-09-13T14:11:50Z</time>
      </trkpt>
      <trkpt lat="42.118633" lon="1.036167">
        <ele>1347.0</ele>
        <time>2013-09-13T14:11:51Z</time>
      </trkpt>
      <trkpt lat="42.118733" lon="1.036150">
        <ele>1344.0</ele>
        <time>2013-09-13T14:11:52Z</time>
      </trkpt>
      <trkpt lat="42.118833" lon="1.036167">
        <ele>1342.0</ele>
        <time>2013-09-13T14:11:53Z</time>
      </trkpt>
      <trkpt lat="42.118933" lon="1.036167">
        <ele>1340.0</ele>
        <time>2013-09-13T14:11:54Z</time>
      </trkpt>
      <trkpt lat="42.119033" lon="1.036167">
        <ele>1338.0</ele>
        <time>2013-09-13T14:11:55Z</time>
      </trkpt>
      <trkpt lat="42.119117" lon="1.036167">
        <ele>1336.0</ele>
        <time>2013-09-13T14:11:56Z</time>
      </trkpt>
      <trkpt lat="42.119217" lon="1.036167">
        <ele>1333.0</ele>
        <time>2013-09-13T14:11:57Z</time>
      </trkpt>
      <trkpt lat="42.119333" lon="1.036183">
        <ele>1331.0</ele>
        <time>2013-09-13T14:11:58Z</time>
      </trkpt>
      <trkpt lat="42.119433" lon="1.036183">
        <ele>1328.0</ele>
        <time>2013-09-13T14:11:59Z</time>
      </trkpt>
      <trkpt lat="42.119533" lon="1.036200">
        <ele>1326.0</ele>
        <time>2013-09-13T14:12:00Z</time>
      </trkpt>
      <trkpt lat="42.119633" lon="1.036200">
        <ele>1325.0</ele>
        <time>2013-09-13T14:12:01Z</time>
      </trkpt>
      <trkpt lat="42.119733" lon="1.036200">
        <ele>1323.0</ele>
        <time>2013-09-13T14:12:02Z</time>
      </trkpt>
      <trkpt lat="42.119933" lon="1.036217">
        <ele>1318.0</ele>
        <time>2013-09-13T14:12:04Z</time>
      </trkpt>
      <trkpt lat="42.120117" lon="1.036250">
        <ele>1315.0</ele>
        <time>2013-09-13T14:12:06Z</time>
      </trkpt>
      <trkpt lat="42.120217" lon="1.036267">
        <ele>1314.0</ele>
        <time>2013-09-13T14:12:07Z</time>
      </trkpt>
      <trkpt lat="42.120317" lon="1.036283">
        <ele>1313.0</ele>
        <time>2013-09-13T14:12:08Z</time>
      </trkpt>
      <trkpt lat="42.120400" lon="1.036300">
        <ele>1311.0</ele>
        <time>2013-09-13T14:12:09Z</time>
      </trkpt>
      <trkpt lat="42.120500" lon="1.036317">
        <ele>1310.0</ele>
        <time>2013-09-13T14:12:10Z</time>
      </trkpt>
      <trkpt lat="42.120600" lon="1.036333">
        <ele>1309.0</ele>
        <time>2013-09-13T14:12:11Z</time>
      </trkpt>
      <trkpt lat="42.120683" lon="1.036367">
        <ele>1308.0</ele>
        <time>2013-09-13T14:12:12Z</time>
      </trkpt>
      <trkpt lat="42.120767" lon="1.036383">
        <ele>1307.0</ele>
        <time>2013-09-13T14:12:13Z</time>
      </trkpt>
      <trkpt lat="42.120867" lon="1.036400">
        <ele>1306.0</ele>
        <time>2013-09-13T14:12:14Z</time>
      </trkpt>
      <trkpt lat="42.120950" lon="1.036433">
        <ele>1304.0</ele>
        <time>2013-09-13T14:12:15Z</time>
      </trkpt>
      <trkpt lat="42.121050" lon="1.036450">
        <ele>1303.0</ele>
        <time>2013-09-13T14:12:16Z</time>
      </trkpt>
      <trkpt lat="42.121133" lon="1.036467">
        <ele>1302.0</ele>
        <time>2013-09-13T14:12:17Z</time>
      </trkpt>
      <trkpt lat="42.121217" lon="1.036500">
        <ele>1301.0</ele>
        <time>2013-09-13T14:12:18Z</time>
      </trkpt>
      <trkpt lat="42.121300" lon="1.036533">
        <ele>1301.0</ele>
        <time>2013-09-13T14:12:19Z</time>
      </trkpt>
      <trkpt lat="42.121383" lon="1.036567">
        <ele>1300.0</ele>
        <time>2013-09-13T14:12:20Z</time>
      </trkpt>
      <trkpt lat="42.121467" lon="1.036633">
        <ele>1298.0</ele>
        <time>2013-09-13T14:12:21Z</time>
      </trkpt>
      <trkpt lat="42.121550" lon="1.036700">
        <ele>1296.0</ele>
        <time>2013-09-13T14:12:22Z</time>
      </trkpt>
      <trkpt lat="42.121617" lon="1.036783">
        <ele>1294.0</ele>
        <time>2013-09-13T14:12:23Z</time>
      </trkpt>
      <trkpt lat="42.121683" lon="1.036883">
        <ele>1293.0</ele>
        <time>2013-09-13T14:12:24Z</time>
      </trkpt>
      <trkpt lat="42.121733" lon="1.036967">
        <ele>1292.0</ele>
        <time>2013-09-13T14:12:25Z</time>
      </trkpt>
      <trkpt lat="42.121783" lon="1.037067">
        <ele>1291.0</ele>
        <time>2013-09-13T14:12:26Z</time>
      </trkpt>
      <trkpt lat="42.121850" lon="1.037183">
        <ele>1289.0</ele>
        <time>2013-09-13T14:12:27Z</time>
      </trkpt>
      <trkpt lat="42.121900" lon="1.037283">
        <ele>1287.0</ele>
        <time>2013-09-13T14:12:28Z</time>
      </trkpt>
      <trkpt lat="42.121967" lon="1.037400">
        <ele>1286.0</ele>
        <time>2013-09-13T14:12:29Z</time>
      </trkpt>
      <trkpt lat="42.122017" lon="1.037500">
        <ele>1284.0</ele>
        <time>2013-09-13T14:12:30Z</time>
      </trkpt>
      <trkpt lat="42.122133" lon="1.037717">
        <ele>1282.0</ele>
        <time>2013-09-13T14:12:32Z</time>
      </trkpt>
      <trkpt lat="42.122200" lon="1.037817">
        <ele>1281.0</ele>
        <time>2013-09-13T14:12:33Z</time>
      </trkpt>
      <trkpt lat="42.122250" lon="1.037917">
        <ele>1280.0</ele>
        <time>2013-09-13T14:12:34Z</time>
      </trkpt>
      <trkpt lat="42.122300" lon="1.038017">
        <ele>1279.0</ele>
        <time>2013-09-13T14:12:35Z</time>
      </trkpt>
      <trkpt lat="42.122417" lon="1.038250">
        <ele>1277.0</ele>
        <time>2013-09-13T14:12:37Z</time>
      </trkpt>
      <trkpt lat="42.122467" lon="1.038350">
        <ele>1276.0</ele>
        <time>2013-09-13T14:12:38Z</time>
      </trkpt>
      <trkpt lat="42.122517" lon="1.038467">
        <ele>1275.0</ele>
        <time>2013-09-13T14:12:39Z</time>
      </trkpt>
      <trkpt lat="42.122617" lon="1.038700">
        <ele>1274.0</ele>
        <time>2013-09-13T14:12:41Z</time>
      </trkpt>
      <trkpt lat="42.122667" lon="1.038800">
        <ele>1273.0</ele>
        <time>2013-09-13T14:12:42Z</time>
      </trkpt>
      <trkpt lat="42.122717" lon="1.038900">
        <ele>1273.0</ele>
        <time>2013-09-13T14:12:43Z</time>
      </trkpt>
      <trkpt lat="42.122767" lon="1.039000">
        <ele>1272.0</ele>
        <time>2013-09-13T14:12:44Z</time>
      </trkpt>
      <trkpt lat="42.122833" lon="1.039100">
        <ele>1271.0</ele>
        <time>2013-09-13T14:12:45Z</time>
      </trkpt>
      <trkpt lat="42.122900" lon="1.039200">
        <ele>1271.0</ele>
        <time>2013-09-13T14:12:46Z</time>
      </trkpt>
      <trkpt lat="42.123000" lon="1.039267">
        <ele>1270.0</ele>
        <time>2013-09-13T14:12:47Z</time>
      </trkpt>
      <trkpt lat="42.123100" lon="1.039300">
        <ele>1270.0</ele>
        <time>2013-09-13T14:12:48Z</time>
      </trkpt>
      <trkpt lat="42.123200" lon="1.039333">
        <ele>1269.0</ele>
        <time>2013-09-13T14:12:49Z</time>
      </trkpt>
      <trkpt lat="42.123317" lon="1.039350">
        <ele>1268.0</ele>
        <time>2013-09-13T14:12:50Z</time>
      </trkpt>
      <trkpt lat="42.123433" lon="1.039350">
        <ele>1268.0</ele>
        <time>2013-09-13T14:12:51Z</time>
      </trkpt>
      <trkpt lat="42.123533" lon="1.039367">
        <ele>1268.0</ele>
        <time>2013-09-13T14:12:52Z</time>
      </trkpt>
      <trkpt lat="42.123633" lon="1.039367">
        <ele>1269.0</ele>
        <time>2013-09-13T14:12:53Z</time>
      </trkpt>
      <trkpt lat="42.123733" lon="1.039350">
        <ele>1271.0</ele>
        <time>2013-09-13T14:12:54Z</time>
      </trkpt>
      <trkpt lat="42.123833" lon="1.039333">
        <ele>1272.0</ele>
        <time>2013-09-13T14:12:55Z</time>
      </trkpt>
      <trkpt lat="42.123917" lon="1.039317">
        <ele>1273.0</ele>
        <time>2013-09-13T14:12:56Z</time>
      </trkpt>
      <trkpt lat="42.124017" lon="1.039317">
        <ele>1274.0</ele>
        <time>2013-09-13T14:12:57Z</time>
      </trkpt>
      <trkpt lat="42.124100" lon="1.039367">
        <ele>1275.0</ele>
        <time>2013-09-13T14:12:58Z</time>
      </trkpt>
      <trkpt lat="42.124183" lon="1.039467">
        <ele>1276.0</ele>
        <time>2013-09-13T14:12:59Z</time>
      </trkpt>
      <trkpt lat="42.124217" lon="1.039583">
        <ele>1276.0</ele>
        <time>2013-09-13T14:13:00Z</time>
      </trkpt>
      <trkpt lat="42.124217" lon="1.039683">
        <ele>1277.0</ele>
        <time>2013-09-13T14:13:01Z</time>
      </trkpt>
      <trkpt lat="42.124200" lon="1.039783">
        <ele>1279.0</ele>
        <time>2013-09-13T14:13:02Z</time>
      </trkpt>
      <trkpt lat="42.124167" lon="1.039867">
        <ele>1280.0</ele>
        <time>2013-09-13T14:13:03Z</time>
      </trkpt>
      <trkpt lat="42.124117" lon="1.039950">
        <ele>1282.0</ele>
        <time>2013-09-13T14:13:04Z</time>
      </trkpt>
      <trkpt lat="42.124050" lon="1.040000">
        <ele>1284.0</ele>
        <time>2013-09-13T14:13:05Z</time>
      </trkpt>
      <trkpt lat="42.124000" lon="1.040033">
        <ele>1286.0</ele>
        <time>2013-09-13T14:13:06Z</time>
      </trkpt>
      <trkpt lat="42.123933" lon="1.040033">
        <ele>1288.0</ele>
        <time>2013-09-13T14:13:07Z</time>
      </trkpt>
      <trkpt lat="42.123883" lon="1.040000">
        <ele>1289.0</ele>
        <time>2013-09-13T14:13:08Z</time>
      </trkpt>
      <trkpt lat="42.123833" lon="1.039950">
        <ele>1289.0</ele>
        <time>2013-09-13T14:13:09Z</time>
      </trkpt>
      <trkpt lat="42.123800" lon="1.039900">
        <ele>1290.0</ele>
        <time>2013-09-13T14:13:10Z</time>
      </trkpt>
      <trkpt lat="42.123767" lon="1.039817">
        <ele>1291.0</ele>
        <time>2013-09-13T14:13:11Z</time>
      </trkpt>
      <trkpt lat="42.123767" lon="1.039733">
        <ele>1292.0</ele>
        <time>2013-09-13T14:13:12Z</time>
      </trkpt>
      <trkpt lat="42.123767" lon="1.039633">
        <ele>1293.0</ele>
        <time>2013-09-13T14:13:13Z</time>
      </trkpt>
      <trkpt lat="42.123800" lon="1.039533">
        <ele>1293.0</ele>
        <time>2013-09-13T14:13:14Z</time>
      </trkpt>
      <trkpt lat="42.123833" lon="1.039433">
        <ele>1294.0</ele>
        <time>2013-09-13T14:13:15Z</time>
      </trkpt>
      <trkpt lat="42.123900" lon="1.039350">
        <ele>1295.0</ele>
        <time>2013-09-13T14:13:16Z</time>
      </trkpt>
      <trkpt lat="42.123967" lon="1.039283">
        <ele>1295.0</ele>
        <time>2013-09-13T14:13:17Z</time>
      </trkpt>
      <trkpt lat="42.124067" lon="1.039217">
        <ele>1296.0</ele>
        <time>2013-09-13T14:13:18Z</time>
      </trkpt>
      <trkpt lat="42.124150" lon="1.039183">
        <ele>1296.0</ele>
        <time>2013-09-13T14:13:19Z</time>
      </trkpt>
      <trkpt lat="42.124250" lon="1.039167">
        <ele>1297.0</ele>
        <time>2013-09-13T14:13:20Z</time>
      </trkpt>
      <trkpt lat="42.124333" lon="1.039183">
        <ele>1299.0</ele>
        <time>2013-09-13T14:13:21Z</time>
      </trkpt>
      <trkpt lat="42.124417" lon="1.039217">
        <ele>1299.0</ele>
        <time>2013-09-13T14:13:22Z</time>
      </trkpt>
      <trkpt lat="42.124500" lon="1.039283">
        <ele>1300.0</ele>
        <time>2013-09-13T14:13:23Z</time>
      </trkpt>
      <trkpt lat="42.124567" lon="1.039383">
        <ele>1301.0</ele>
        <time>2013-09-13T14:13:24Z</time>
      </trkpt>
      <trkpt lat="42.124600" lon="1.039483">
        <ele>1302.0</ele>
        <time>2013-09-13T14:13:25Z</time>
      </trkpt>
      <trkpt lat="42.124617" lon="1.039567">
        <ele>1304.0</ele>
        <time>2013-09-13T14:13:26Z</time>
      </trkpt>
      <trkpt lat="42.124617" lon="1.039667">
        <ele>1306.0</ele>
        <time>2013-09-13T14:13:27Z</time>
      </trkpt>
      <trkpt lat="42.124617" lon="1.039767">
        <ele>1307.0</ele>
        <time>2013-09-13T14:13:28Z</time>
      </trkpt>
      <trkpt lat="42.124533" lon="1.039933">
        <ele>1310.0</ele>
        <time>2013-09-13T14:13:30Z</time>
      </trkpt>
      <trkpt lat="42.124467" lon="1.039983">
        <ele>1311.0</ele>
        <time>2013-09-13T14:13:31Z</time>
      </trkpt>
      <trkpt lat="42.124400" lon="1.040017">
        <ele>1313.0</ele>
        <time>2013-09-13T14:13:32Z</time>
      </trkpt>
      <trkpt lat="42.124350" lon="1.040033">
        <ele>1314.0</ele>
        <time>2013-09-13T14:13:33Z</time>
      </trkpt>
      <trkpt lat="42.124283" lon="1.040017">
        <ele>1316.0</ele>
        <time>2013-09-13T14:13:34Z</time>
      </trkpt>
      <trkpt lat="42.124233" lon="1.039983">
        <ele>1317.0</ele>
        <time>2013-09-13T14:13:35Z</time>
      </trkpt>
      <trkpt lat="42.124183" lon="1.039933">
        <ele>1317.0</ele>
        <time>2013-09-13T14:13:36Z</time>
      </trkpt>
      <trkpt lat="42.124133" lon="1.039867">
        <ele>1318.0</ele>
        <time>2013-09-13T14:13:37Z</time>
      </trkpt>
      <trkpt lat="42.124117" lon="1.039783">
        <ele>1318.0</ele>
        <time>2013-09-13T14:13:38Z</time>
      </trkpt>
      <trkpt lat="42.124117" lon="1.039683">
        <ele>1319.0</ele>
        <time>2013-09-13T14:13:39Z</time>
      </trkpt>
      <trkpt lat="42.124133" lon="1.039583">
        <ele>1319.0</ele>
        <time>2013-09-13T14:13:40Z</time>
      </trkpt>
      <trkpt lat="42.124167" lon="1.039483">
        <ele>1319.0</ele>
        <time>2013-09-13T14:13:41Z</time>
      </trkpt>
      <trkpt lat="42.124250" lon="1.039400">
        <ele>1319.0</ele>
        <time>2013-09-13T14:13:42Z</time>
      </trkpt>
      <trkpt lat="42.124333" lon="1.039350">
        <ele>1319.0</ele>
        <time>2013-09-13T14:13:43Z</time>
      </trkpt>
      <trkpt lat="42.124433" lon="1.039333">
        <ele>1320.0</ele>
        <time>2013-09-13T14:13:44Z</time>
      </trkpt>
      <trkpt lat="42.124517" lon="1.039350">
        <ele>1320.0</ele>
        <time>2013-09-13T14:13:45Z</time>
      </trkpt>
      <trkpt lat="42.124617" lon="1.039383">
        <ele>1321.0</ele>
        <time>2013-09-13T14:13:46Z</time>
      </trkpt>
      <trkpt lat="42.124683" lon="1.039450">
        <ele>1322.0</ele>
        <time>2013-09-13T14:13:47Z</time>
      </trkpt>
      <trkpt lat="42.124733" lon="1.039533">
        <ele>1324.0</ele>
        <time>2013-09-13T14:13:48Z</time>
      </trkpt>
      <trkpt lat="42.124783" lon="1.039617">
        <ele>1324.0</ele>
        <time>2013-09-13T14:13:49Z</time>
      </trkpt>
      <trkpt lat="42.124833" lon="1.039733">
        <ele>1325.0</ele>
        <time>2013-09-13T14:13:50Z</time>
      </trkpt>
      <trkpt lat="42.124850" lon="1.039833">
        <ele>1326.0</ele>
        <time>2013-09-13T14:13:51Z</time>
      </trkpt>
      <trkpt lat="42.124867" lon="1.039917">
        <ele>1327.0</ele>
        <time>2013-09-13T14:13:52Z</time>
      </trkpt>
      <trkpt lat="42.124850" lon="1.040017">
        <ele>1329.0</ele>
        <time>2013-09-13T14:13:53Z</time>
      </trkpt>
      <trkpt lat="42.124800" lon="1.040100">
        <ele>1329.0</ele>
        <time>2013-09-13T14:13:54Z</time>
      </trkpt>
      <trkpt lat="42.124767" lon="1.040167">
        <ele>1329.0</ele>
        <time>2013-09-13T14:13:55Z</time>
      </trkpt>
      <trkpt lat="42.124700" lon="1.040233">
        <ele>1330.0</ele>
        <time>2013-09-13T14:13:56Z</time>
      </trkpt>
      <trkpt lat="42.124650" lon="1.040267">
        <ele>1331.0</ele>
        <time>2013-09-13T14:13:57Z</time>
      </trkpt>
      <trkpt lat="42.124583" lon="1.040267">
        <ele>1331.0</ele>
        <time>2013-09-13T14:13:58Z</time>
      </trkpt>
      <trkpt lat="42.124517" lon="1.040233">
        <ele>1331.0</ele>
        <time>2013-09-13T14:13:59Z</time>
      </trkpt>
      <trkpt lat="42.124467" lon="1.040167">
        <ele>1331.0</ele>
        <time>2013-09-13T14:14:00Z</time>
      </trkpt>
      <trkpt lat="42.124433" lon="1.040100">
        <ele>1332.0</ele>
        <time>2013-09-13T14:14:01Z</time>
      </trkpt>
      <trkpt lat="42.124417" lon="1.040000">
        <ele>1332.0</ele>
        <time>2013-09-13T14:14:02Z</time>
      </trkpt>
      <trkpt lat="42.124417" lon="1.039900">
        <ele>1332.0</ele>
        <time>2013-09-13T14:14:03Z</time>
      </trkpt>
      <trkpt lat="42.124433" lon="1.039783">
        <ele>1332.0</ele>
        <time>2013-09-13T14:14:04Z</time>
      </trkpt>
      <trkpt lat="42.124500" lon="1.039683">
        <ele>1332.0</ele>
        <time>2013-09-13T14:14:05Z</time>
      </trkpt>
      <trkpt lat="42.124567" lon="1.039583">
        <ele>1333.0</ele>
        <time>2013-09-13T14:14:06Z</time>
      </trkpt>
      <trkpt lat="42.124633" lon="1.039517">
        <ele>1333.0</ele>
        <time>2013-09-13T14:14:07Z</time>
      </trkpt>
      <trkpt lat="42.124717" lon="1.039450">
        <ele>1334.0</ele>
        <time>2013-09-13T14:14:08Z</time>
      </trkpt>
      <trkpt lat="42.124800" lon="1.039417">
        <ele>1335.0</ele>
        <time>2013-09-13T14:14:09Z</time>
      </trkpt>
      <trkpt lat="42.124900" lon="1.039400">
        <ele>1336.0</ele>
        <time>2013-09-13T14:14:10Z</time>
      </trkpt>
      <trkpt lat="42.125000" lon="1.039417">
        <ele>1337.0</ele>
        <time>2013-09-13T14:14:11Z</time>
      </trkpt>
      <trkpt lat="42.125183" lon="1.039500">
        <ele>1339.0</ele>
        <time>2013-09-13T14:14:13Z</time>
      </trkpt>
      <trkpt lat="42.125250" lon="1.039583">
        <ele>1340.0</ele>
        <time>2013-09-13T14:14:14Z</time>
      </trkpt>
      <trkpt lat="42.125300" lon="1.039667">
        <ele>1342.0</ele>
        <time>2013-09-13T14:14:15Z</time>
      </trkpt>
      <trkpt lat="42.125350" lon="1.039767">
        <ele>1343.0</ele>
        <time>2013-09-13T14:14:16Z</time>
      </trkpt>
      <trkpt lat="42.125367" lon="1.039867">
        <ele>1344.0</ele>
        <time>2013-09-13T14:14:17Z</time>
      </trkpt>
      <trkpt lat="42.125367" lon="1.039983">
        <ele>1345.0</ele>
        <time>2013-09-13T14:14:18Z</time>
      </trkpt>
      <trkpt lat="42.125333" lon="1.040067">
        <ele>1346.0</ele>
        <time>2013-09-13T14:14:19Z</time>
      </trkpt>
      <trkpt lat="42.125300" lon="1.040150">
        <ele>1347.0</ele>
        <time>2013-09-13T14:14:20Z</time>
      </trkpt>
      <trkpt lat="42.125250" lon="1.040183">
        <ele>1349.0</ele>
        <time>2013-09-13T14:14:21Z</time>
      </trkpt>
      <trkpt lat="42.125200" lon="1.040217">
        <ele>1351.0</ele>
        <time>2013-09-13T14:14:22Z</time>
      </trkpt>
      <trkpt lat="42.125150" lon="1.040217">
        <ele>1352.0</ele>
        <time>2013-09-13T14:14:23Z</time>
      </trkpt>
      <trkpt lat="42.125083" lon="1.040217">
        <ele>1353.0</ele>
        <time>2013-09-13T14:14:24Z</time>
      </trkpt>
      <trkpt lat="42.125033" lon="1.040167">
        <ele>1352.0</ele>
        <time>2013-09-13T14:14:25Z</time>
      </trkpt>
      <trkpt lat="42.124967" lon="1.040117">
        <ele>1352.0</ele>
        <time>2013-09-13T14:14:26Z</time>
      </trkpt>
      <trkpt lat="42.124933" lon="1.040033">
        <ele>1352.0</ele>
        <time>2013-09-13T14:14:27Z</time>
      </trkpt>
      <trkpt lat="42.124900" lon="1.039933">
        <ele>1352.0</ele>
        <time>2013-09-13T14:14:28Z</time>
      </trkpt>
      <trkpt lat="42.124900" lon="1.039817">
        <ele>1353.0</ele>
        <time>2013-09-13T14:14:29Z</time>
      </trkpt>
      <trkpt lat="42.124933" lon="1.039717">
        <ele>1353.0</ele>
        <time>2013-09-13T14:14:30Z</time>
      </trkpt>
      <trkpt lat="42.124967" lon="1.039617">
        <ele>1354.0</ele>
        <time>2013-09-13T14:14:31Z</time>
      </trkpt>
      <trkpt lat="42.125017" lon="1.039517">
        <ele>1354.0</ele>
        <time>2013-09-13T14:14:32Z</time>
      </trkpt>
      <trkpt lat="42.125083" lon="1.039433">
        <ele>1355.0</ele>
        <time>2013-09-13T14:14:33Z</time>
      </trkpt>
      <trkpt lat="42.125167" lon="1.039367">
        <ele>1356.0</ele>
        <time>2013-09-13T14:14:34Z</time>
      </trkpt>
      <trkpt lat="42.125250" lon="1.039333">
        <ele>1358.0</ele>
        <time>2013-09-13T14:14:35Z</time>
      </trkpt>
      <trkpt lat="42.125350" lon="1.039300">
        <ele>1359.0</ele>
        <time>2013-09-13T14:14:36Z</time>
      </trkpt>
      <trkpt lat="42.125433" lon="1.039300">
        <ele>1360.0</ele>
        <time>2013-09-13T14:14:37Z</time>
      </trkpt>
      <trkpt lat="42.125533" lon="1.039317">
        <ele>1361.0</ele>
        <time>2013-09-13T14:14:38Z</time>
      </trkpt>
      <trkpt lat="42.125617" lon="1.039367">
        <ele>1362.0</ele>
        <time>2013-09-13T14:14:39Z</time>
      </trkpt>
      <trkpt lat="42.125700" lon="1.039450">
        <ele>1363.0</ele>
        <time>2013-09-13T14:14:40Z</time>
      </trkpt>
      <trkpt lat="42.125767" lon="1.039533">
        <ele>1364.0</ele>
        <time>2013-09-13T14:14:41Z</time>
      </trkpt>
      <trkpt lat="42.125817" lon="1.039617">
        <ele>1366.0</ele>
        <time>2013-09-13T14:14:42Z</time>
      </trkpt>
      <trkpt lat="42.125850" lon="1.039700">
        <ele>1368.0</ele>
        <time>2013-09-13T14:14:43Z</time>
      </trkpt>
      <trkpt lat="42.125867" lon="1.039800">
        <ele>1369.0</ele>
        <time>2013-09-13T14:14:44Z</time>
      </trkpt>
      <trkpt lat="42.125883" lon="1.039900">
        <ele>1370.0</ele>
        <time>2013-09-13T14:14:45Z</time>
      </trkpt>
      <trkpt lat="42.125867" lon="1.040017">
        <ele>1371.0</ele>
        <time>2013-09-13T14:14:46Z</time>
      </trkpt>
      <trkpt lat="42.125833" lon="1.040117">
        <ele>1372.0</ele>
        <time>2013-09-13T14:14:47Z</time>
      </trkpt>
      <trkpt lat="42.125783" lon="1.040200">
        <ele>1373.0</ele>
        <time>2013-09-13T14:14:48Z</time>
      </trkpt>
      <trkpt lat="42.125733" lon="1.040250">
        <ele>1375.0</ele>
        <time>2013-09-13T14:14:49Z</time>
      </trkpt>
      <trkpt lat="42.125683" lon="1.040283">
        <ele>1376.0</ele>
        <time>2013-09-13T14:14:50Z</time>
      </trkpt>
      <trkpt lat="42.125617" lon="1.040283">
        <ele>1378.0</ele>
        <time>2013-09-13T14:14:51Z</time>
      </trkpt>
      <trkpt lat="42.125550" lon="1.040267">
        <ele>1378.0</ele>
        <time>2013-09-13T14:14:52Z</time>
      </trkpt>
      <trkpt lat="42.125483" lon="1.040217">
        <ele>1379.0</ele>
        <time>2013-09-13T14:14:53Z</time>
      </trkpt>
      <trkpt lat="42.125433" lon="1.040167">
        <ele>1379.0</ele>
        <time>2013-09-13T14:14:54Z</time>
      </trkpt>
      <trkpt lat="42.125400" lon="1.040083">
        <ele>1380.0</ele>
        <time>2013-09-13T14:14:55Z</time>
      </trkpt>
      <trkpt lat="42.125383" lon="1.039983">
        <ele>1381.0</ele>
        <time>2013-09-13T14:14:56Z</time>
      </trkpt>
      <trkpt lat="42.125367" lon="1.039900">
        <ele>1382.0</ele>
        <time>2013-09-13T14:14:57Z</time>
      </trkpt>
      <trkpt lat="42.125383" lon="1.039783">
        <ele>1382.0</ele>
        <time>2013-09-13T14:14:58Z</time>
      </trkpt>
      <trkpt lat="42.125417" lon="1.039683">
        <ele>1382.0</ele>
        <time>2013-09-13T14:14:59Z</time>
      </trkpt>
      <trkpt lat="42.125467" lon="1.039583">
        <ele>1382.0</ele>
        <time>2013-09-13T14:15:00Z</time>
      </trkpt>
      <trkpt lat="42.125517" lon="1.039483">
        <ele>1383.0</ele>
        <time>2013-09-13T14:15:01Z</time>
      </trkpt>
      <trkpt lat="42.125583" lon="1.039417">
        <ele>1385.0</ele>
        <time>2013-09-13T14:15:02Z</time>
      </trkpt>
      <trkpt lat="42.125667" lon="1.039367">
        <ele>1387.0</ele>
        <time>2013-09-13T14:15:03Z</time>
      </trkpt>
      <trkpt lat="42.125750" lon="1.039333">
        <ele>1389.0</ele>
        <time>2013-09-13T14:15:04Z</time>
      </trkpt>
      <trkpt lat="42.125833" lon="1.039317">
        <ele>1390.0</ele>
        <time>2013-09-13T14:15:05Z</time>
      </trkpt>
      <trkpt lat="42.125917" lon="1.039333">
        <ele>1391.0</ele>
        <time>2013-09-13T14:15:06Z</time>
      </trkpt>
      <trkpt lat="42.126000" lon="1.039383">
        <ele>1393.0</ele>
        <time>2013-09-13T14:15:07Z</time>
      </trkpt>
      <trkpt lat="42.126067" lon="1.039450">
        <ele>1395.0</ele>
        <time>2013-09-13T14:15:08Z</time>
      </trkpt>
      <trkpt lat="42.126117" lon="1.039517">
        <ele>1396.0</ele>
        <time>2013-09-13T14:15:09Z</time>
      </trkpt>
      <trkpt lat="42.126150" lon="1.039617">
        <ele>1398.0</ele>
        <time>2013-09-13T14:15:10Z</time>
      </trkpt>
      <trkpt lat="42.126183" lon="1.039700">
        <ele>1399.0</ele>
        <time>2013-09-13T14:15:11Z</time>
      </trkpt>
      <trkpt lat="42.126200" lon="1.039817">
        <ele>1400.0</ele>
        <time>2013-09-13T14:15:12Z</time>
      </trkpt>
      <trkpt lat="42.126200" lon="1.039917">
        <ele>1402.0</ele>
        <time>2013-09-13T14:15:13Z</time>
      </trkpt>
      <trkpt lat="42.126183" lon="1.040017">
        <ele>1403.0</ele>
        <time>2013-09-13T14:15:14Z</time>
      </trkpt>
      <trkpt lat="42.126150" lon="1.040100">
        <ele>1404.0</ele>
        <time>2013-09-13T14:15:15Z</time>
      </trkpt>
      <trkpt lat="42.126100" lon="1.040167">
        <ele>1406.0</ele>
        <time>2013-09-13T14:15:16Z</time>
      </trkpt>
      <trkpt lat="42.126033" lon="1.040200">
        <ele>1406.0</ele>
        <time>2013-09-13T14:15:17Z</time>
      </trkpt>
      <trkpt lat="42.125967" lon="1.040217">
        <ele>1406.0</ele>
        <time>2013-09-13T14:15:18Z</time>
      </trkpt>
      <trkpt lat="42.125900" lon="1.040183">
        <ele>1407.0</ele>
        <time>2013-09-13T14:15:19Z</time>
      </trkpt>
      <trkpt lat="42.125833" lon="1.040150">
        <ele>1410.0</ele>
        <time>2013-09-13T14:15:20Z</time>
      </trkpt>
      <trkpt lat="42.125800" lon="1.040083">
        <ele>1412.0</ele>
        <time>2013-09-13T14:15:21Z</time>
      </trkpt>
      <trkpt lat="42.125767" lon="1.040017">
        <ele>1413.0</ele>
        <time>2013-09-13T14:15:22Z</time>
      </trkpt>
      <trkpt lat="42.125733" lon="1.039917">
        <ele>1414.0</ele>
        <time>2013-09-13T14:15:23Z</time>
      </trkpt>
      <trkpt lat="42.125733" lon="1.039800">
        <ele>1414.0</ele>
        <time>2013-09-13T14:15:24Z</time>
      </trkpt>
      <trkpt lat="42.125733" lon="1.039683">
        <ele>1414.0</ele>
        <time>2013-09-13T14:15:25Z</time>
      </trkpt>
      <trkpt lat="42.125767" lon="1.039583">
        <ele>1414.0</ele>
        <time>2013-09-13T14:15:26Z</time>
      </trkpt>
      <trkpt lat="42.125817" lon="1.039483">
        <ele>1416.0</ele>
        <time>2013-09-13T14:15:27Z</time>
      </trkpt>
      <trkpt lat="42.125867" lon="1.039417">
        <ele>1417.0</ele>
        <time>2013-09-13T14:15:28Z</time>
      </trkpt>
      <trkpt lat="42.125950" lon="1.039350">
        <ele>1419.0</ele>
        <time>2013-09-13T14:15:29Z</time>
      </trkpt>
      <trkpt lat="42.126017" lon="1.039300">
        <ele>1420.0</ele>
        <time>2013-09-13T14:15:30Z</time>
      </trkpt>
      <trkpt lat="42.126100" lon="1.039300">
        <ele>1421.0</ele>
        <time>2013-09-13T14:15:31Z</time>
      </trkpt>
      <trkpt lat="42.126183" lon="1.039317">
        <ele>1423.0</ele>
        <time>2013-09-13T14:15:32Z</time>
      </trkpt>
      <trkpt lat="42.126250" lon="1.039383">
        <ele>1423.0</ele>
        <time>2013-09-13T14:15:33Z</time>
      </trkpt>
      <trkpt lat="42.126300" lon="1.039483">
        <ele>1424.0</ele>
        <time>2013-09-13T14:15:34Z</time>
      </trkpt>
      <trkpt lat="42.126333" lon="1.039583">
        <ele>1425.0</ele>
        <time>2013-09-13T14:15:35Z</time>
      </trkpt>
      <trkpt lat="42.126367" lon="1.039667">
        <ele>1426.0</ele>
        <time>2013-09-13T14:15:36Z</time>
      </trkpt>
      <trkpt lat="42.126350" lon="1.039767">
        <ele>1428.0</ele>
        <time>2013-09-13T14:15:37Z</time>
      </trkpt>
      <trkpt lat="42.126333" lon="1.039850">
        <ele>1429.0</ele>
        <time>2013-09-13T14:15:38Z</time>
      </trkpt>
      <trkpt lat="42.126283" lon="1.039950">
        <ele>1430.0</ele>
        <time>2013-09-13T14:15:39Z</time>
      </trkpt>
      <trkpt lat="42.126217" lon="1.040033">
        <ele>1430.0</ele>
        <time>2013-09-13T14:15:40Z</time>
      </trkpt>
      <trkpt lat="42.126150" lon="1.040100">
        <ele>1431.0</ele>
        <time>2013-09-13T14:15:41Z</time>
      </trkpt>
      <trkpt lat="42.126083" lon="1.040133">
        <ele>1433.0</ele>
        <time>2013-09-13T14:15:42Z</time>
      </trkpt>
      <trkpt lat="42.126000" lon="1.040167">
        <ele>1434.0</ele>
        <time>2013-09-13T14:15:43Z</time>
      </trkpt>
      <trkpt lat="42.125933" lon="1.040167">
        <ele>1436.0</ele>
        <time>2013-09-13T14:15:44Z</time>
      </trkpt>
      <trkpt lat="42.125867" lon="1.040150">
        <ele>1437.0</ele>
        <time>2013-09-13T14:15:45Z</time>
      </trkpt>
      <trkpt lat="42.125800" lon="1.040117">
        <ele>1438.0</ele>
        <time>2013-09-13T14:15:46Z</time>
      </trkpt>
      <trkpt lat="42.125750" lon="1.040050">
        <ele>1438.0</ele>
        <time>2013-09-13T14:15:47Z</time>
      </trkpt>
      <trkpt lat="42.125717" lon="1.039967">
        <ele>1438.0</ele>
        <time>2013-09-13T14:15:48Z</time>
      </trkpt>
      <trkpt lat="42.125683" lon="1.039867">
        <ele>1438.0</ele>
        <time>2013-09-13T14:15:49Z</time>
      </trkpt>
      <trkpt lat="42.125683" lon="1.039767">
        <ele>1439.0</ele>
        <time>2013-09-13T14:15:50Z</time>
      </trkpt>
      <trkpt lat="42.125683" lon="1.039667">
        <ele>1440.0</ele>
        <time>2013-09-13T14:15:51Z</time>
      </trkpt>
      <trkpt lat="42.125700" lon="1.039567">
        <ele>1441.0</ele>
        <time>2013-09-13T14:15:52Z</time>
      </trkpt>
      <trkpt lat="42.125733" lon="1.039467">
        <ele>1441.0</ele>
        <time>2013-09-13T14:15:53Z</time>
      </trkpt>
      <trkpt lat="42.125783" lon="1.039383">
        <ele>1441.0</ele>
        <time>2013-09-13T14:15:54Z</time>
      </trkpt>
      <trkpt lat="42.125850" lon="1.039317">
        <ele>1442.0</ele>
        <time>2013-09-13T14:15:55Z</time>
      </trkpt>
      <trkpt lat="42.125917" lon="1.039267">
        <ele>1443.0</ele>
        <time>2013-09-13T14:15:56Z</time>
      </trkpt>
      <trkpt lat="42.125983" lon="1.039217">
        <ele>1445.0</ele>
        <time>2013-09-13T14:15:57Z</time>
      </trkpt>
      <trkpt lat="42.126033" lon="1.039150">
        <ele>1446.0</ele>
        <time>2013-09-13T14:15:58Z</time>
      </trkpt>
      <trkpt lat="42.126100" lon="1.039100">
        <ele>1447.0</ele>
        <time>2013-09-13T14:15:59Z</time>
      </trkpt>
      <trkpt lat="42.126183" lon="1.039067">
        <ele>1447.0</ele>
        <time>2013-09-13T14:16:00Z</time>
      </trkpt>
      <trkpt lat="42.126267" lon="1.039050">
        <ele>1447.0</ele>
        <time>2013-09-13T14:16:01Z</time>
      </trkpt>
      <trkpt lat="42.126350" lon="1.039050">
        <ele>1449.0</ele>
        <time>2013-09-13T14:16:02Z</time>
      </trkpt>
      <trkpt lat="42.126433" lon="1.039050">
        <ele>1450.0</ele>
        <time>2013-09-13T14:16:03Z</time>
      </trkpt>
      <trkpt lat="42.126500" lon="1.039067">
        <ele>1452.0</ele>
        <time>2013-09-13T14:16:04Z</time>
      </trkpt>
      <trkpt lat="42.126567" lon="1.039067">
        <ele>1454.0</ele>
        <time>2013-09-13T14:16:05Z</time>
      </trkpt>
      <trkpt lat="42.126667" lon="1.039067">
        <ele>1454.0</ele>
        <time>2013-09-13T14:16:06Z</time>
      </trkpt>
      <trkpt lat="42.126750" lon="1.039100">
        <ele>1455.0</ele>
        <time>2013-09-13T14:16:07Z</time>
      </trkpt>
      <trkpt lat="42.126850" lon="1.039117">
        <ele>1455.0</ele>
        <time>2013-09-13T14:16:08Z</time>
      </trkpt>
      <trkpt lat="42.126933" lon="1.039167">
        <ele>1456.0</ele>
        <time>2013-09-13T14:16:09Z</time>
      </trkpt>
      <trkpt lat="42.127000" lon="1.039233">
        <ele>1458.0</ele>
        <time>2013-09-13T14:16:10Z</time>
      </trkpt>
      <trkpt lat="42.127100" lon="1.039400">
        <ele>1461.0</ele>
        <time>2013-09-13T14:16:12Z</time>
      </trkpt>
      <trkpt lat="42.127150" lon="1.039750">
        <ele>1464.0</ele>
        <time>2013-09-13T14:16:15Z</time>
      </trkpt>
      <trkpt lat="42.127133" lon="1.039867">
        <ele>1465.0</ele>
        <time>2013-09-13T14:16:16Z</time>
      </trkpt>
      <trkpt lat="42.127100" lon="1.039967">
        <ele>1466.0</ele>
        <time>2013-09-13T14:16:17Z</time>
      </trkpt>
      <trkpt lat="42.127067" lon="1.040050">
        <ele>1468.0</ele>
        <time>2013-09-13T14:16:18Z</time>
      </trkpt>
      <trkpt lat="42.127017" lon="1.040100">
        <ele>1471.0</ele>
        <time>2013-09-13T14:16:19Z</time>
      </trkpt>
      <trkpt lat="42.126967" lon="1.040167">
        <ele>1471.0</ele>
        <time>2013-09-13T14:16:20Z</time>
      </trkpt>
      <trkpt lat="42.126883" lon="1.040217">
        <ele>1471.0</ele>
        <time>2013-09-13T14:16:21Z</time>
      </trkpt>
      <trkpt lat="42.126800" lon="1.040250">
        <ele>1470.0</ele>
        <time>2013-09-13T14:16:22Z</time>
      </trkpt>
      <trkpt lat="42.126717" lon="1.040250">
        <ele>1471.0</ele>
        <time>2013-09-13T14:16:23Z</time>
      </trkpt>
      <trkpt lat="42.126633" lon="1.040250">
        <ele>1475.0</ele>
        <time>2013-09-13T14:16:24Z</time>
      </trkpt>
      <trkpt lat="42.126567" lon="1.040233">
        <ele>1479.0</ele>
        <time>2013-09-13T14:16:25Z</time>
      </trkpt>
      <trkpt lat="42.126517" lon="1.040183">
        <ele>1481.0</ele>
        <time>2013-09-13T14:16:26Z</time>
      </trkpt>
      <trkpt lat="42.126467" lon="1.040117">
        <ele>1482.0</ele>
        <time>2013-09-13T14:16:27Z</time>
      </trkpt>
      <trkpt lat="42.126417" lon="1.040033">
        <ele>1482.0</ele>
        <time>2013-09-13T14:16:28Z</time>
      </trkpt>
      <trkpt lat="42.126383" lon="1.039933">
        <ele>1483.0</ele>
        <time>2013-09-13T14:16:29Z</time>
      </trkpt>
      <trkpt lat="42.126383" lon="1.039817">
        <ele>1484.0</ele>
        <time>2013-09-13T14:16:30Z</time>
      </trkpt>
      <trkpt lat="42.126383" lon="1.039717">
        <ele>1485.0</ele>
        <time>2013-09-13T14:16:31Z</time>
      </trkpt>
      <trkpt lat="42.126400" lon="1.039633">
        <ele>1486.0</ele>
        <time>2013-09-13T14:16:32Z</time>
      </trkpt>
      <trkpt lat="42.126400" lon="1.039550">
        <ele>1488.0</ele>
        <time>2013-09-13T14:16:33Z</time>
      </trkpt>
      <trkpt lat="42.126400" lon="1.039467">
        <ele>1489.0</ele>
        <time>2013-09-13T14:16:34Z</time>
      </trkpt>
      <trkpt lat="42.126417" lon="1.039367">
        <ele>1489.0</ele>
        <time>2013-09-13T14:16:35Z</time>
      </trkpt>
      <trkpt lat="42.126467" lon="1.039283">
        <ele>1489.0</ele>
        <time>2013-09-13T14:16:36Z</time>
      </trkpt>
      <trkpt lat="42.126517" lon="1.039200">
        <ele>1491.0</ele>
        <time>2013-09-13T14:16:37Z</time>
      </trkpt>
      <trkpt lat="42.126583" lon="1.039133">
        <ele>1492.0</ele>
        <time>2013-09-13T14:16:38Z</time>
      </trkpt>
      <trkpt lat="42.126650" lon="1.039083">
        <ele>1495.0</ele>
        <time>2013-09-13T14:16:39Z</time>
      </trkpt>
      <trkpt lat="42.126733" lon="1.039067">
        <ele>1497.0</ele>
        <time>2013-09-13T14:16:40Z</time>
      </trkpt>
      <trkpt lat="42.126817" lon="1.039050">
        <ele>1497.0</ele>
        <time>2013-09-13T14:16:41Z</time>
      </trkpt>
      <trkpt lat="42.126917" lon="1.039067">
        <ele>1498.0</ele>
        <time>2013-09-13T14:16:42Z</time>
      </trkpt>
      <trkpt lat="42.127017" lon="1.039117">
        <ele>1498.0</ele>
        <time>2013-09-13T14:16:43Z</time>
      </trkpt>
      <trkpt lat="42.127117" lon="1.039200">
        <ele>1498.0</ele>
        <time>2013-09-13T14:16:44Z</time>
      </trkpt>
      <trkpt lat="42.127167" lon="1.039300">
        <ele>1500.0</ele>
        <time>2013-09-13T14:16:45Z</time>
      </trkpt>
      <trkpt lat="42.127200" lon="1.039383">
        <ele>1501.0</ele>
        <time>2013-09-13T14:16:46Z</time>
      </trkpt>
      <trkpt lat="42.127217" lon="1.039483">
        <ele>1503.0</ele>
        <time>2013-09-13T14:16:47Z</time>
      </trkpt>
      <trkpt lat="42.127233" lon="1.039583">
        <ele>1504.0</ele>
        <time>2013-09-13T14:16:48Z</time>
      </trkpt>
      <trkpt lat="42.127233" lon="1.039683">
        <ele>1505.0</ele>
        <time>2013-09-13T14:16:49Z</time>
      </trkpt>
      <trkpt lat="42.127217" lon="1.039800">
        <ele>1506.0</ele>
        <time>2013-09-13T14:16:50Z</time>
      </trkpt>
      <trkpt lat="42.127167" lon="1.039900">
        <ele>1507.0</ele>
        <time>2013-09-13T14:16:51Z</time>
      </trkpt>
      <trkpt lat="42.127117" lon="1.039983">
        <ele>1507.0</ele>
        <time>2013-09-13T14:16:52Z</time>
      </trkpt>
      <trkpt lat="42.127050" lon="1.040050">
        <ele>1509.0</ele>
        <time>2013-09-13T14:16:53Z</time>
      </trkpt>
      <trkpt lat="42.126983" lon="1.040083">
        <ele>1510.0</ele>
        <time>2013-09-13T14:16:54Z</time>
      </trkpt>
      <trkpt lat="42.126933" lon="1.040100">
        <ele>1512.0</ele>
        <time>2013-09-13T14:16:55Z</time>
      </trkpt>
      <trkpt lat="42.126867" lon="1.040117">
        <ele>1513.0</ele>
        <time>2013-09-13T14:16:56Z</time>
      </trkpt>
      <trkpt lat="42.126800" lon="1.040117">
        <ele>1513.0</ele>
        <time>2013-09-13T14:16:57Z</time>
      </trkpt>
      <trkpt lat="42.126733" lon="1.040100">
        <ele>1514.0</ele>
        <time>2013-09-13T14:16:58Z</time>
      </trkpt>
      <trkpt lat="42.126667" lon="1.040067">
        <ele>1514.0</ele>
        <time>2013-09-13T14:16:59Z</time>
      </trkpt>
      <trkpt lat="42.126617" lon="1.040000">
        <ele>1515.0</ele>
        <time>2013-09-13T14:17:00Z</time>
      </trkpt>
      <trkpt lat="42.126600" lon="1.039917">
        <ele>1516.0</ele>
        <time>2013-09-13T14:17:01Z</time>
      </trkpt>
      <trkpt lat="42.126600" lon="1.039817">
        <ele>1516.0</ele>
        <time>2013-09-13T14:17:02Z</time>
      </trkpt>
      <trkpt lat="42.126600" lon="1.039733">
        <ele>1518.0</ele>
        <time>2013-09-13T14:17:03Z</time>
      </trkpt>
      <trkpt lat="42.126633" lon="1.039650">
        <ele>1520.0</ele>
        <time>2013-09-13T14:17:04Z</time>
      </trkpt>
      <trkpt lat="42.126683" lon="1.039583">
        <ele>1521.0</ele>
        <time>2013-09-13T14:17:05Z</time>
      </trkpt>
      <trkpt lat="42.126750" lon="1.039517">
        <ele>1522.0</ele>
        <time>2013-09-13T14:17:06Z</time>
      </trkpt>
      <trkpt lat="42.126850" lon="1.039483">
        <ele>1524.0</ele>
        <time>2013-09-13T14:17:07Z</time>
      </trkpt>
      <trkpt lat="42.126933" lon="1.039467">
        <ele>1526.0</ele>
        <time>2013-09-13T14:17:08Z</time>
      </trkpt>
      <trkpt lat="42.127033" lon="1.039500">
        <ele>1528.0</ele>
        <time>2013-09-13T14:17:09Z</time>
      </trkpt>
      <trkpt lat="42.127117" lon="1.039550">
        <ele>1530.0</ele>
        <time>2013-09-13T14:17:10Z</time>
      </trkpt>
      <trkpt lat="42.127200" lon="1.039633">
        <ele>1532.0</ele>
        <time>2013-09-13T14:17:11Z</time>
      </trkpt>
      <trkpt lat="42.127250" lon="1.039733">
        <ele>1534.0</ele>
        <time>2013-09-13T14:17:12Z</time>
      </trkpt>
      <trkpt lat="42.127283" lon="1.039850">
        <ele>1536.0</ele>
        <time>2013-09-13T14:17:13Z</time>
      </trkpt>
      <trkpt lat="42.127300" lon="1.039967">
        <ele>1538.0</ele>
        <time>2013-09-13T14:17:14Z</time>
      </trkpt>
      <trkpt lat="42.127283" lon="1.040067">
        <ele>1540.0</ele>
        <time>2013-09-13T14:17:15Z</time>
      </trkpt>
      <trkpt lat="42.127250" lon="1.040167">
        <ele>1541.0</ele>
        <time>2013-09-13T14:17:16Z</time>
      </trkpt>
      <trkpt lat="42.127200" lon="1.040250">
        <ele>1541.0</ele>
        <time>2013-09-13T14:17:17Z</time>
      </trkpt>
      <trkpt lat="42.127133" lon="1.040317">
        <ele>1543.0</ele>
        <time>2013-09-13T14:17:18Z</time>
      </trkpt>
      <trkpt lat="42.127067" lon="1.040367">
        <ele>1544.0</ele>
        <time>2013-09-13T14:17:19Z</time>
      </trkpt>
      <trkpt lat="42.127000" lon="1.040367">
        <ele>1545.0</ele>
        <time>2013-09-13T14:17:20Z</time>
      </trkpt>
      <trkpt lat="42.126933" lon="1.040350">
        <ele>1543.0</ele>
        <time>2013-09-13T14:17:21Z</time>
      </trkpt>
      <trkpt lat="42.126850" lon="1.040333">
        <ele>1544.0</ele>
        <time>2013-09-13T14:17:22Z</time>
      </trkpt>
      <trkpt lat="42.126783" lon="1.040283">
        <ele>1545.0</ele>
        <time>2013-09-13T14:17:23Z</time>
      </trkpt>
      <trkpt lat="42.126733" lon="1.040217">
        <ele>1546.0</ele>
        <time>2013-09-13T14:17:24Z</time>
      </trkpt>
      <trkpt lat="42.126700" lon="1.040117">
        <ele>1547.0</ele>
        <time>2013-09-13T14:17:25Z</time>
      </trkpt>
      <trkpt lat="42.126683" lon="1.040033">
        <ele>1548.0</ele>
        <time>2013-09-13T14:17:26Z</time>
      </trkpt>
      <trkpt lat="42.126667" lon="1.039933">
        <ele>1549.0</ele>
        <time>2013-09-13T14:17:27Z</time>
      </trkpt>
      <trkpt lat="42.126650" lon="1.039833">
        <ele>1550.0</ele>
        <time>2013-09-13T14:17:28Z</time>
      </trkpt>
      <trkpt lat="42.126667" lon="1.039733">
        <ele>1552.0</ele>
        <time>2013-09-13T14:17:29Z</time>
      </trkpt>
      <trkpt lat="42.126683" lon="1.039617">
        <ele>1554.0</ele>
        <time>2013-09-13T14:17:30Z</time>
      </trkpt>
      <trkpt lat="42.126733" lon="1.039533">
        <ele>1556.0</ele>
        <time>2013-09-13T14:17:31Z</time>
      </trkpt>
      <trkpt lat="42.126817" lon="1.039483">
        <ele>1557.0</ele>
        <time>2013-09-13T14:17:32Z</time>
      </trkpt>
      <trkpt lat="42.126883" lon="1.039450">
        <ele>1559.0</ele>
        <time>2013-09-13T14:17:33Z</time>
      </trkpt>
      <trkpt lat="42.126967" lon="1.039450">
        <ele>1559.0</ele>
        <time>2013-09-13T14:17:34Z</time>
      </trkpt>
      <trkpt lat="42.127067" lon="1.039450">
        <ele>1559.0</ele>
        <time>2013-09-13T14:17:35Z</time>
      </trkpt>
      <trkpt lat="42.127150" lon="1.039467">
        <ele>1559.0</ele>
        <time>2013-09-13T14:17:36Z</time>
      </trkpt>
      <trkpt lat="42.127250" lon="1.039517">
        <ele>1560.0</ele>
        <time>2013-09-13T14:17:37Z</time>
      </trkpt>
      <trkpt lat="42.127317" lon="1.039617">
        <ele>1560.0</ele>
        <time>2013-09-13T14:17:38Z</time>
      </trkpt>
      <trkpt lat="42.127383" lon="1.039717">
        <ele>1561.0</ele>
        <time>2013-09-13T14:17:39Z</time>
      </trkpt>
      <trkpt lat="42.127417" lon="1.039817">
        <ele>1563.0</ele>
        <time>2013-09-13T14:17:40Z</time>
      </trkpt>
      <trkpt lat="42.127450" lon="1.039917">
        <ele>1565.0</ele>
        <time>2013-09-13T14:17:41Z</time>
      </trkpt>
      <trkpt lat="42.127450" lon="1.040017">
        <ele>1567.0</ele>
        <time>2013-09-13T14:17:42Z</time>
      </trkpt>
      <trkpt lat="42.127433" lon="1.040117">
        <ele>1568.0</ele>
        <time>2013-09-13T14:17:43Z</time>
      </trkpt>
      <trkpt lat="42.127417" lon="1.040200">
        <ele>1569.0</ele>
        <time>2013-09-13T14:17:44Z</time>
      </trkpt>
      <trkpt lat="42.127367" lon="1.040300">
        <ele>1570.0</ele>
        <time>2013-09-13T14:17:45Z</time>
      </trkpt>
      <trkpt lat="42.127317" lon="1.040367">
        <ele>1571.0</ele>
        <time>2013-09-13T14:17:46Z</time>
      </trkpt>
      <trkpt lat="42.127250" lon="1.040417">
        <ele>1572.0</ele>
        <time>2013-09-13T14:17:47Z</time>
      </trkpt>
      <trkpt lat="42.127167" lon="1.040433">
        <ele>1573.0</ele>
        <time>2013-09-13T14:17:48Z</time>
      </trkpt>
      <trkpt lat="42.127083" lon="1.040400">
        <ele>1573.0</ele>
        <time>2013-09-13T14:17:49Z</time>
      </trkpt>
      <trkpt lat="42.127000" lon="1.040367">
        <ele>1573.0</ele>
        <time>2013-09-13T14:17:50Z</time>
      </trkpt>
      <trkpt lat="42.126950" lon="1.040300">
        <ele>1575.0</ele>
        <time>2013-09-13T14:17:51Z</time>
      </trkpt>
      <trkpt lat="42.126917" lon="1.040217">
        <ele>1577.0</ele>
        <time>2013-09-13T14:17:52Z</time>
      </trkpt>
      <trkpt lat="42.126900" lon="1.040133">
        <ele>1578.0</ele>
        <time>2013-09-13T14:17:53Z</time>
      </trkpt>
      <trkpt lat="42.126883" lon="1.040033">
        <ele>1578.0</ele>
        <time>2013-09-13T14:17:54Z</time>
      </trkpt>
      <trkpt lat="42.126900" lon="1.039917">
        <ele>1579.0</ele>
        <time>2013-09-13T14:17:55Z</time>
      </trkpt>
      <trkpt lat="42.126917" lon="1.039800">
        <ele>1579.0</ele>
        <time>2013-09-13T14:17:56Z</time>
      </trkpt>
      <trkpt lat="42.126967" lon="1.039717">
        <ele>1580.0</ele>
        <time>2013-09-13T14:17:57Z</time>
      </trkpt>
      <trkpt lat="42.127017" lon="1.039633">
        <ele>1581.0</ele>
        <time>2013-09-13T14:17:58Z</time>
      </trkpt>
      <trkpt lat="42.127067" lon="1.039550">
        <ele>1582.0</ele>
        <time>2013-09-13T14:17:59Z</time>
      </trkpt>
      <trkpt lat="42.127133" lon="1.039483">
        <ele>1582.0</ele>
        <time>2013-09-13T14:18:00Z</time>
      </trkpt>
      <trkpt lat="42.127200" lon="1.039433">
        <ele>1581.0</ele>
        <time>2013-09-13T14:18:01Z</time>
      </trkpt>
      <trkpt lat="42.127283" lon="1.039417">
        <ele>1581.0</ele>
        <time>2013-09-13T14:18:02Z</time>
      </trkpt>
      <trkpt lat="42.127383" lon="1.039400">
        <ele>1581.0</ele>
        <time>2013-09-13T14:18:03Z</time>
      </trkpt>
      <trkpt lat="42.127467" lon="1.039400">
        <ele>1581.0</ele>
        <time>2013-09-13T14:18:04Z</time>
      </trkpt>
      <trkpt lat="42.127550" lon="1.039417">
        <ele>1581.0</ele>
        <time>2013-09-13T14:18:05Z</time>
      </trkpt>
      <trkpt lat="42.127617" lon="1.039433">
        <ele>1583.0</ele>
        <time>2013-09-13T14:18:06Z</time>
      </trkpt>
      <trkpt lat="42.127700" lon="1.039467">
        <ele>1583.0</ele>
        <time>2013-09-13T14:18:07Z</time>
      </trkpt>
      <trkpt lat="42.127783" lon="1.039517">
        <ele>1582.0</ele>
        <time>2013-09-13T14:18:08Z</time>
      </trkpt>
      <trkpt lat="42.127867" lon="1.039600">
        <ele>1582.0</ele>
        <time>2013-09-13T14:18:09Z</time>
      </trkpt>
      <trkpt lat="42.127933" lon="1.039700">
        <ele>1581.0</ele>
        <time>2013-09-13T14:18:10Z</time>
      </trkpt>
      <trkpt lat="42.128000" lon="1.039783">
        <ele>1583.0</ele>
        <time>2013-09-13T14:18:11Z</time>
      </trkpt>
      <trkpt lat="42.128050" lon="1.039850">
        <ele>1585.0</ele>
        <time>2013-09-13T14:18:12Z</time>
      </trkpt>
      <trkpt lat="42.128100" lon="1.039933">
        <ele>1587.0</ele>
        <time>2013-09-13T14:18:13Z</time>
      </trkpt>
      <trkpt lat="42.128117" lon="1.040017">
        <ele>1588.0</ele>
        <time>2013-09-13T14:18:14Z</time>
      </trkpt>
      <trkpt lat="42.128133" lon="1.040267">
        <ele>1588.0</ele>
        <time>2013-09-13T14:18:16Z</time>
      </trkpt>
      <trkpt lat="42.128133" lon="1.040383">
        <ele>1589.0</ele>
        <time>2013-09-13T14:18:17Z</time>
      </trkpt>
      <trkpt lat="42.128100" lon="1.040483">
        <ele>1591.0</ele>
        <time>2013-09-13T14:18:18Z</time>
      </trkpt>
      <trkpt lat="42.128083" lon="1.040550">
        <ele>1593.0</ele>
        <time>2013-09-13T14:18:19Z</time>
      </trkpt>
      <trkpt lat="42.128033" lon="1.040600">
        <ele>1594.0</ele>
        <time>2013-09-13T14:18:20Z</time>
      </trkpt>
      <trkpt lat="42.127967" lon="1.040650">
        <ele>1594.0</ele>
        <time>2013-09-13T14:18:21Z</time>
      </trkpt>
      <trkpt lat="42.127900" lon="1.040683">
        <ele>1592.0</ele>
        <time>2013-09-13T14:18:22Z</time>
      </trkpt>
      <trkpt lat="42.127817" lon="1.040717">
        <ele>1591.0</ele>
        <time>2013-09-13T14:18:23Z</time>
      </trkpt>
      <trkpt lat="42.127733" lon="1.040717">
        <ele>1592.0</ele>
        <time>2013-09-13T14:18:24Z</time>
      </trkpt>
      <trkpt lat="42.127683" lon="1.040733">
        <ele>1593.0</ele>
        <time>2013-09-13T14:18:25Z</time>
      </trkpt>
      <trkpt lat="42.127617" lon="1.040717">
        <ele>1594.0</ele>
        <time>2013-09-13T14:18:26Z</time>
      </trkpt>
      <trkpt lat="42.127550" lon="1.040683">
        <ele>1593.0</ele>
        <time>2013-09-13T14:18:27Z</time>
      </trkpt>
      <trkpt lat="42.127483" lon="1.040617">
        <ele>1592.0</ele>
        <time>2013-09-13T14:18:28Z</time>
      </trkpt>
      <trkpt lat="42.127433" lon="1.040517">
        <ele>1592.0</ele>
        <time>2013-09-13T14:18:29Z</time>
      </trkpt>
      <trkpt lat="42.127383" lon="1.040417">
        <ele>1591.0</ele>
        <time>2013-09-13T14:18:30Z</time>
      </trkpt>
      <trkpt lat="42.127367" lon="1.040300">
        <ele>1592.0</ele>
        <time>2013-09-13T14:18:31Z</time>
      </trkpt>
      <trkpt lat="42.127367" lon="1.040217">
        <ele>1593.0</ele>
        <time>2013-09-13T14:18:32Z</time>
      </trkpt>
      <trkpt lat="42.127383" lon="1.040117">
        <ele>1595.0</ele>
        <time>2013-09-13T14:18:33Z</time>
      </trkpt>
      <trkpt lat="42.127400" lon="1.040017">
        <ele>1595.0</ele>
        <time>2013-09-13T14:18:34Z</time>
      </trkpt>
      <trkpt lat="42.127450" lon="1.039917">
        <ele>1594.0</ele>
        <time>2013-09-13T14:18:35Z</time>
      </trkpt>
      <trkpt lat="42.127517" lon="1.039850">
        <ele>1593.0</ele>
        <time>2013-09-13T14:18:36Z</time>
      </trkpt>
      <trkpt lat="42.127600" lon="1.039783">
        <ele>1593.0</ele>
        <time>2013-09-13T14:18:37Z</time>
      </trkpt>
      <trkpt lat="42.127683" lon="1.039750">
        <ele>1592.0</ele>
        <time>2013-09-13T14:18:38Z</time>
      </trkpt>
      <trkpt lat="42.127750" lon="1.039717">
        <ele>1592.0</ele>
        <time>2013-09-13T14:18:39Z</time>
      </trkpt>
      <trkpt lat="42.127833" lon="1.039683">
        <ele>1592.0</ele>
        <time>2013-09-13T14:18:40Z</time>
      </trkpt>
      <trkpt lat="42.127900" lon="1.039667">
        <ele>1593.0</ele>
        <time>2013-09-13T14:18:41Z</time>
      </trkpt>
      <trkpt lat="42.127983" lon="1.039650">
        <ele>1593.0</ele>
        <time>2013-09-13T14:18:42Z</time>
      </trkpt>
      <trkpt lat="42.128067" lon="1.039633">
        <ele>1592.0</ele>
        <time>2013-09-13T14:18:43Z</time>
      </trkpt>
      <trkpt lat="42.128150" lon="1.039633">
        <ele>1591.0</ele>
        <time>2013-09-13T14:18:44Z</time>
      </trkpt>
      <trkpt lat="42.128233" lon="1.039667">
        <ele>1591.0</ele>
        <time>2013-09-13T14:18:45Z</time>
      </trkpt>
      <trkpt lat="42.128317" lon="1.039733">
        <ele>1590.0</ele>
        <time>2013-09-13T14:18:46Z</time>
      </trkpt>
      <trkpt lat="42.128383" lon="1.039800">
        <ele>1590.0</ele>
        <time>2013-09-13T14:18:47Z</time>
      </trkpt>
      <trkpt lat="42.128433" lon="1.039867">
        <ele>1589.0</ele>
        <time>2013-09-13T14:18:48Z</time>
      </trkpt>
      <trkpt lat="42.128500" lon="1.039950">
        <ele>1589.0</ele>
        <time>2013-09-13T14:18:49Z</time>
      </trkpt>
      <trkpt lat="42.128567" lon="1.040033">
        <ele>1589.0</ele>
        <time>2013-09-13T14:18:50Z</time>
      </trkpt>
      <trkpt lat="42.128617" lon="1.040133">
        <ele>1589.0</ele>
        <time>2013-09-13T14:18:51Z</time>
      </trkpt>
      <trkpt lat="42.128650" lon="1.040233">
        <ele>1589.0</ele>
        <time>2013-09-13T14:18:52Z</time>
      </trkpt>
      <trkpt lat="42.128683" lon="1.040333">
        <ele>1589.0</ele>
        <time>2013-09-13T14:18:53Z</time>
      </trkpt>
      <trkpt lat="42.128700" lon="1.040433">
        <ele>1590.0</ele>
        <time>2013-09-13T14:18:54Z</time>
      </trkpt>
      <trkpt lat="42.128700" lon="1.040533">
        <ele>1590.0</ele>
        <time>2013-09-13T14:18:55Z</time>
      </trkpt>
      <trkpt lat="42.128700" lon="1.040633">
        <ele>1591.0</ele>
        <time>2013-09-13T14:18:56Z</time>
      </trkpt>
      <trkpt lat="42.128683" lon="1.040733">
        <ele>1591.0</ele>
        <time>2013-09-13T14:18:57Z</time>
      </trkpt>
      <trkpt lat="42.128667" lon="1.040833">
        <ele>1591.0</ele>
        <time>2013-09-13T14:18:58Z</time>
      </trkpt>
      <trkpt lat="42.128617" lon="1.040917">
        <ele>1592.0</ele>
        <time>2013-09-13T14:18:59Z</time>
      </trkpt>
      <trkpt lat="42.128583" lon="1.041000">
        <ele>1592.0</ele>
        <time>2013-09-13T14:19:00Z</time>
      </trkpt>
      <trkpt lat="42.128533" lon="1.041050">
        <ele>1592.0</ele>
        <time>2013-09-13T14:19:01Z</time>
      </trkpt>
      <trkpt lat="42.128467" lon="1.041100">
        <ele>1592.0</ele>
        <time>2013-09-13T14:19:02Z</time>
      </trkpt>
      <trkpt lat="42.128400" lon="1.041133">
        <ele>1592.0</ele>
        <time>2013-09-13T14:19:03Z</time>
      </trkpt>
      <trkpt lat="42.128333" lon="1.041150">
        <ele>1591.0</ele>
        <time>2013-09-13T14:19:04Z</time>
      </trkpt>
      <trkpt lat="42.128250" lon="1.041167">
        <ele>1591.0</ele>
        <time>2013-09-13T14:19:05Z</time>
      </trkpt>
      <trkpt lat="42.128183" lon="1.041183">
        <ele>1591.0</ele>
        <time>2013-09-13T14:19:06Z</time>
      </trkpt>
      <trkpt lat="42.128117" lon="1.041200">
        <ele>1591.0</ele>
        <time>2013-09-13T14:19:07Z</time>
      </trkpt>
      <trkpt lat="42.128033" lon="1.041200">
        <ele>1591.0</ele>
        <time>2013-09-13T14:19:08Z</time>
      </trkpt>
      <trkpt lat="42.127950" lon="1.041200">
        <ele>1590.0</ele>
        <time>2013-09-13T14:19:09Z</time>
      </trkpt>
      <trkpt lat="42.127867" lon="1.041183">
        <ele>1590.0</ele>
        <time>2013-09-13T14:19:10Z</time>
      </trkpt>
      <trkpt lat="42.127783" lon="1.041167">
        <ele>1590.0</ele>
        <time>2013-09-13T14:19:11Z</time>
      </trkpt>
      <trkpt lat="42.127717" lon="1.041150">
        <ele>1590.0</ele>
        <time>2013-09-13T14:19:12Z</time>
      </trkpt>
      <trkpt lat="42.127650" lon="1.041133">
        <ele>1590.0</ele>
        <time>2013-09-13T14:19:13Z</time>
      </trkpt>
      <trkpt lat="42.127583" lon="1.041083">
        <ele>1590.0</ele>
        <time>2013-09-13T14:19:14Z</time>
      </trkpt>
      <trkpt lat="42.127517" lon="1.041033">
        <ele>1589.0</ele>
        <time>2013-09-13T14:19:15Z</time>
      </trkpt>
      <trkpt lat="42.127450" lon="1.040967">
        <ele>1589.0</ele>
        <time>2013-09-13T14:19:16Z</time>
      </trkpt>
      <trkpt lat="42.127383" lon="1.040917">
        <ele>1589.0</ele>
        <time>2013-09-13T14:19:17Z</time>
      </trkpt>
      <trkpt lat="42.127317" lon="1.040850">
        <ele>1589.0</ele>
        <time>2013-09-13T14:19:18Z</time>
      </trkpt>
      <trkpt lat="42.127267" lon="1.040783">
        <ele>1590.0</ele>
        <time>2013-09-13T14:19:19Z</time>
      </trkpt>
      <trkpt lat="42.127217" lon="1.040700">
        <ele>1591.0</ele>
        <time>2013-09-13T14:19:20Z</time>
      </trkpt>
      <trkpt lat="42.127183" lon="1.040633">
        <ele>1591.0</ele>
        <time>2013-09-13T14:19:21Z</time>
      </trkpt>
      <trkpt lat="42.127133" lon="1.040567">
        <ele>1592.0</ele>
        <time>2013-09-13T14:19:22Z</time>
      </trkpt>
      <trkpt lat="42.127117" lon="1.040500">
        <ele>1592.0</ele>
        <time>2013-09-13T14:19:23Z</time>
      </trkpt>
      <trkpt lat="42.127100" lon="1.040433">
        <ele>1592.0</ele>
        <time>2013-09-13T14:19:24Z</time>
      </trkpt>
      <trkpt lat="42.127100" lon="1.040350">
        <ele>1591.0</ele>
        <time>2013-09-13T14:19:25Z</time>
      </trkpt>
      <trkpt lat="42.127133" lon="1.040267">
        <ele>1589.0</ele>
        <time>2013-09-13T14:19:26Z</time>
      </trkpt>
      <trkpt lat="42.127183" lon="1.040167">
        <ele>1588.0</ele>
        <time>2013-09-13T14:19:27Z</time>
      </trkpt>
      <trkpt lat="42.127233" lon="1.040083">
        <ele>1587.0</ele>
        <time>2013-09-13T14:19:28Z</time>
      </trkpt>
      <trkpt lat="42.127267" lon="1.040000">
        <ele>1587.0</ele>
        <time>2013-09-13T14:19:29Z</time>
      </trkpt>
      <trkpt lat="42.127300" lon="1.039917">
        <ele>1586.0</ele>
        <time>2013-09-13T14:19:30Z</time>
      </trkpt>
      <trkpt lat="42.127317" lon="1.039833">
        <ele>1586.0</ele>
        <time>2013-09-13T14:19:31Z</time>
      </trkpt>
      <trkpt lat="42.127333" lon="1.039750">
        <ele>1585.0</ele>
        <time>2013-09-13T14:19:32Z</time>
      </trkpt>
      <trkpt lat="42.127350" lon="1.039650">
        <ele>1584.0</ele>
        <time>2013-09-13T14:19:33Z</time>
      </trkpt>
      <trkpt lat="42.127350" lon="1.039550">
        <ele>1583.0</ele>
        <time>2013-09-13T14:19:34Z</time>
      </trkpt>
      <trkpt lat="42.127350" lon="1.039467">
        <ele>1582.0</ele>
        <time>2013-09-13T14:19:35Z</time>
      </trkpt>
      <trkpt lat="42.127350" lon="1.039367">
        <ele>1581.0</ele>
        <time>2013-09-13T14:19:36Z</time>
      </trkpt>
      <trkpt lat="42.127350" lon="1.039267">
        <ele>1580.0</ele>
        <time>2013-09-13T14:19:37Z</time>
      </trkpt>
      <trkpt lat="42.127333" lon="1.039167">
        <ele>1579.0</ele>
        <time>2013-09-13T14:19:38Z</time>
      </trkpt>
      <trkpt lat="42.127333" lon="1.039083">
        <ele>1578.0</ele>
        <time>2013-09-13T14:19:39Z</time>
      </trkpt>
      <trkpt lat="42.127317" lon="1.038983">
        <ele>1577.0</ele>
        <time>2013-09-13T14:19:40Z</time>
      </trkpt>
      <trkpt lat="42.127317" lon="1.038900">
        <ele>1576.0</ele>
        <time>2013-09-13T14:19:41Z</time>
      </trkpt>
      <trkpt lat="42.127300" lon="1.038817">
        <ele>1575.0</ele>
        <time>2013-09-13T14:19:42Z</time>
      </trkpt>
      <trkpt lat="42.127283" lon="1.038717">
        <ele>1574.0</ele>
        <time>2013-09-13T14:19:43Z</time>
      </trkpt>
      <trkpt lat="42.127267" lon="1.038617">
        <ele>1572.0</ele>
        <time>2013-09-13T14:19:44Z</time>
      </trkpt>
      <trkpt lat="42.127250" lon="1.038517">
        <ele>1571.0</ele>
        <time>2013-09-13T14:19:45Z</time>
      </trkpt>
      <trkpt lat="42.127217" lon="1.038433">
        <ele>1570.0</ele>
        <time>2013-09-13T14:19:46Z</time>
      </trkpt>
      <trkpt lat="42.127183" lon="1.038350">
        <ele>1570.0</ele>
        <time>2013-09-13T14:19:47Z</time>
      </trkpt>
      <trkpt lat="42.127150" lon="1.038267">
        <ele>1569.0</ele>
        <time>2013-09-13T14:19:48Z</time>
      </trkpt>
      <trkpt lat="42.127117" lon="1.038183">
        <ele>1567.0</ele>
        <time>2013-09-13T14:19:49Z</time>
      </trkpt>
      <trkpt lat="42.127083" lon="1.038100">
        <ele>1565.0</ele>
        <time>2013-09-13T14:19:50Z</time>
      </trkpt>
      <trkpt lat="42.127033" lon="1.038017">
        <ele>1562.0</ele>
        <time>2013-09-13T14:19:51Z</time>
      </trkpt>
      <trkpt lat="42.127000" lon="1.037933">
        <ele>1561.0</ele>
        <time>2013-09-13T14:19:52Z</time>
      </trkpt>
      <trkpt lat="42.126967" lon="1.037850">
        <ele>1559.0</ele>
        <time>2013-09-13T14:19:53Z</time>
      </trkpt>
      <trkpt lat="42.126933" lon="1.037767">
        <ele>1557.0</ele>
        <time>2013-09-13T14:19:54Z</time>
      </trkpt>
      <trkpt lat="42.126900" lon="1.037667">
        <ele>1555.0</ele>
        <time>2013-09-13T14:19:55Z</time>
      </trkpt>
      <trkpt lat="42.126867" lon="1.037567">
        <ele>1553.0</ele>
        <time>2013-09-13T14:19:56Z</time>
      </trkpt>
      <trkpt lat="42.126850" lon="1.037467">
        <ele>1552.0</ele>
        <time>2013-09-13T14:19:57Z</time>
      </trkpt>
      <trkpt lat="42.126817" lon="1.037367">
        <ele>1552.0</ele>
        <time>2013-09-13T14:19:58Z</time>
      </trkpt>
      <trkpt lat="42.126800" lon="1.037267">
        <ele>1552.0</ele>
        <time>2013-09-13T14:19:59Z</time>
      </trkpt>
      <trkpt lat="42.126800" lon="1.037167">
        <ele>1551.0</ele>
        <time>2013-09-13T14:20:00Z</time>
      </trkpt>
      <trkpt lat="42.126783" lon="1.037050">
        <ele>1551.0</ele>
        <time>2013-09-13T14:20:01Z</time>
      </trkpt>
      <trkpt lat="42.126783" lon="1.036950">
        <ele>1551.0</ele>
        <time>2013-09-13T14:20:02Z</time>
      </trkpt>
      <trkpt lat="42.126767" lon="1.036833">
        <ele>1551.0</ele>
        <time>2013-09-13T14:20:03Z</time>
      </trkpt>
      <trkpt lat="42.126750" lon="1.036717">
        <ele>1552.0</ele>
        <time>2013-09-13T14:20:04Z</time>
      </trkpt>
      <trkpt lat="42.126750" lon="1.036600">
        <ele>1552.0</ele>
        <time>2013-09-13T14:20:05Z</time>
      </trkpt>
      <trkpt lat="42.126733" lon="1.036483">
        <ele>1552.0</ele>
        <time>2013-09-13T14:20:06Z</time>
      </trkpt>
      <trkpt lat="42.126717" lon="1.036367">
        <ele>1553.0</ele>
        <time>2013-09-13T14:20:07Z</time>
      </trkpt>
      <trkpt lat="42.126700" lon="1.036267">
        <ele>1553.0</ele>
        <time>2013-09-13T14:20:08Z</time>
      </trkpt>
      <trkpt lat="42.126683" lon="1.036150">
        <ele>1553.0</ele>
        <time>2013-09-13T14:20:09Z</time>
      </trkpt>
      <trkpt lat="42.126650" lon="1.036033">
        <ele>1553.0</ele>
        <time>2013-09-13T14:20:10Z</time>
      </trkpt>
      <trkpt lat="42.126633" lon="1.035917">
        <ele>1553.0</ele>
        <time>2013-09-13T14:20:11Z</time>
      </trkpt>
      <trkpt lat="42.126600" lon="1.035800">
        <ele>1553.0</ele>
        <time>2013-09-13T14:20:12Z</time>
      </trkpt>
      <trkpt lat="42.126583" lon="1.035683">
        <ele>1554.0</ele>
        <time>2013-09-13T14:20:13Z</time>
      </trkpt>
      <trkpt lat="42.126567" lon="1.035567">
        <ele>1555.0</ele>
        <time>2013-09-13T14:20:14Z</time>
      </trkpt>
      <trkpt lat="42.126567" lon="1.035467">
        <ele>1557.0</ele>
        <time>2013-09-13T14:20:15Z</time>
      </trkpt>
      <trkpt lat="42.126550" lon="1.035350">
        <ele>1558.0</ele>
        <time>2013-09-13T14:20:16Z</time>
      </trkpt>
      <trkpt lat="42.126550" lon="1.035233">
        <ele>1559.0</ele>
        <time>2013-09-13T14:20:17Z</time>
      </trkpt>
      <trkpt lat="42.126567" lon="1.035133">
        <ele>1561.0</ele>
        <time>2013-09-13T14:20:18Z</time>
      </trkpt>
      <trkpt lat="42.126567" lon="1.035017">
        <ele>1563.0</ele>
        <time>2013-09-13T14:20:19Z</time>
      </trkpt>
      <trkpt lat="42.126567" lon="1.034933">
        <ele>1566.0</ele>
        <time>2013-09-13T14:20:20Z</time>
      </trkpt>
      <trkpt lat="42.126550" lon="1.034850">
        <ele>1568.0</ele>
        <time>2013-09-13T14:20:21Z</time>
      </trkpt>
      <trkpt lat="42.126533" lon="1.034767">
        <ele>1570.0</ele>
        <time>2013-09-13T14:20:22Z</time>
      </trkpt>
      <trkpt lat="42.126483" lon="1.034733">
        <ele>1572.0</ele>
        <time>2013-09-13T14:20:23Z</time>
      </trkpt>
      <trkpt lat="42.126400" lon="1.034733">
        <ele>1573.0</ele>
        <time>2013-09-13T14:20:24Z</time>
      </trkpt>
      <trkpt lat="42.126317" lon="1.034783">
        <ele>1574.0</ele>
        <time>2013-09-13T14:20:25Z</time>
      </trkpt>
      <trkpt lat="42.126250" lon="1.034867">
        <ele>1575.0</ele>
        <time>2013-09-13T14:20:26Z</time>
      </trkpt>
      <trkpt lat="42.126217" lon="1.035000">
        <ele>1575.0</ele>
        <time>2013-09-13T14:20:27Z</time>
      </trkpt>
      <trkpt lat="42.126233" lon="1.035133">
        <ele>1576.0</ele>
        <time>2013-09-13T14:20:28Z</time>
      </trkpt>
      <trkpt lat="42.126267" lon="1.035250">
        <ele>1577.0</ele>
        <time>2013-09-13T14:20:29Z</time>
      </trkpt>
      <trkpt lat="42.126333" lon="1.035333">
        <ele>1578.0</ele>
        <time>2013-09-13T14:20:30Z</time>
      </trkpt>
      <trkpt lat="42.126417" lon="1.035400">
        <ele>1580.0</ele>
        <time>2013-09-13T14:20:31Z</time>
      </trkpt>
      <trkpt lat="42.126483" lon="1.035450">
        <ele>1583.0</ele>
        <time>2013-09-13T14:20:32Z</time>
      </trkpt>
      <trkpt lat="42.126550" lon="1.035467">
        <ele>1585.0</ele>
        <time>2013-09-13T14:20:33Z</time>
      </trkpt>
      <trkpt lat="42.126633" lon="1.035467">
        <ele>1586.0</ele>
        <time>2013-09-13T14:20:34Z</time>
      </trkpt>
      <trkpt lat="42.126717" lon="1.035467">
        <ele>1588.0</ele>
        <time>2013-09-13T14:20:35Z</time>
      </trkpt>
      <trkpt lat="42.126783" lon="1.035417">
        <ele>1589.0</ele>
        <time>2013-09-13T14:20:36Z</time>
      </trkpt>
      <trkpt lat="42.126867" lon="1.035367">
        <ele>1590.0</ele>
        <time>2013-09-13T14:20:37Z</time>
      </trkpt>
      <trkpt lat="42.126933" lon="1.035283">
        <ele>1591.0</ele>
        <time>2013-09-13T14:20:38Z</time>
      </trkpt>
      <trkpt lat="42.126967" lon="1.035200">
        <ele>1593.0</ele>
        <time>2013-09-13T14:20:39Z</time>
      </trkpt>
      <trkpt lat="42.127000" lon="1.035117">
        <ele>1594.0</ele>
        <time>2013-09-13T14:20:40Z</time>
      </trkpt>
      <trkpt lat="42.127017" lon="1.035033">
        <ele>1596.0</ele>
        <time>2013-09-13T14:20:41Z</time>
      </trkpt>
      <trkpt lat="42.127033" lon="1.034933">
        <ele>1596.0</ele>
        <time>2013-09-13T14:20:42Z</time>
      </trkpt>
      <trkpt lat="42.127033" lon="1.034817">
        <ele>1598.0</ele>
        <time>2013-09-13T14:20:43Z</time>
      </trkpt>
      <trkpt lat="42.126967" lon="1.034650">
        <ele>1601.0</ele>
        <time>2013-09-13T14:20:45Z</time>
      </trkpt>
      <trkpt lat="42.126900" lon="1.034617">
        <ele>1602.0</ele>
        <time>2013-09-13T14:20:46Z</time>
      </trkpt>
      <trkpt lat="42.126817" lon="1.034600">
        <ele>1603.0</ele>
        <time>2013-09-13T14:20:47Z</time>
      </trkpt>
      <trkpt lat="42.126733" lon="1.034617">
        <ele>1605.0</ele>
        <time>2013-09-13T14:20:48Z</time>
      </trkpt>
      <trkpt lat="42.126650" lon="1.034667">
        <ele>1606.0</ele>
        <time>2013-09-13T14:20:49Z</time>
      </trkpt>
      <trkpt lat="42.126583" lon="1.034733">
        <ele>1608.0</ele>
        <time>2013-09-13T14:20:50Z</time>
      </trkpt>
      <trkpt lat="42.126533" lon="1.034833">
        <ele>1610.0</ele>
        <time>2013-09-13T14:20:51Z</time>
      </trkpt>
      <trkpt lat="42.126517" lon="1.034950">
        <ele>1612.0</ele>
        <time>2013-09-13T14:20:52Z</time>
      </trkpt>
      <trkpt lat="42.126500" lon="1.035083">
        <ele>1614.0</ele>
        <time>2013-09-13T14:20:53Z</time>
      </trkpt>
      <trkpt lat="42.126500" lon="1.035217">
        <ele>1616.0</ele>
        <time>2013-09-13T14:20:54Z</time>
      </trkpt>
      <trkpt lat="42.126533" lon="1.035367">
        <ele>1617.0</ele>
        <time>2013-09-13T14:20:55Z</time>
      </trkpt>
      <trkpt lat="42.126583" lon="1.035483">
        <ele>1618.0</ele>
        <time>2013-09-13T14:20:56Z</time>
      </trkpt>
      <trkpt lat="42.126650" lon="1.035567">
        <ele>1620.0</ele>
        <time>2013-09-13T14:20:57Z</time>
      </trkpt>
      <trkpt lat="42.126717" lon="1.035633">
        <ele>1621.0</ele>
        <time>2013-09-13T14:20:58Z</time>
      </trkpt>
      <trkpt lat="42.126800" lon="1.035700">
        <ele>1623.0</ele>
        <time>2013-09-13T14:20:59Z</time>
      </trkpt>
      <trkpt lat="42.126883" lon="1.035767">
        <ele>1625.0</ele>
        <time>2013-09-13T14:21:00Z</time>
      </trkpt>
      <trkpt lat="42.126967" lon="1.035817">
        <ele>1626.0</ele>
        <time>2013-09-13T14:21:01Z</time>
      </trkpt>
      <trkpt lat="42.127050" lon="1.035833">
        <ele>1628.0</ele>
        <time>2013-09-13T14:21:02Z</time>
      </trkpt>
      <trkpt lat="42.127133" lon="1.035800">
        <ele>1629.0</ele>
        <time>2013-09-13T14:21:03Z</time>
      </trkpt>
      <trkpt lat="42.127200" lon="1.035750">
        <ele>1630.0</ele>
        <time>2013-09-13T14:21:04Z</time>
      </trkpt>
      <trkpt lat="42.127283" lon="1.035683">
        <ele>1631.0</ele>
        <time>2013-09-13T14:21:05Z</time>
      </trkpt>
      <trkpt lat="42.127333" lon="1.035617">
        <ele>1632.0</ele>
        <time>2013-09-13T14:21:06Z</time>
      </trkpt>
      <trkpt lat="42.127400" lon="1.035550">
        <ele>1634.0</ele>
        <time>2013-09-13T14:21:07Z</time>
      </trkpt>
      <trkpt lat="42.127433" lon="1.035483">
        <ele>1635.0</ele>
        <time>2013-09-13T14:21:08Z</time>
      </trkpt>
      <trkpt lat="42.127483" lon="1.035383">
        <ele>1635.0</ele>
        <time>2013-09-13T14:21:09Z</time>
      </trkpt>
      <trkpt lat="42.127500" lon="1.035283">
        <ele>1635.0</ele>
        <time>2013-09-13T14:21:10Z</time>
      </trkpt>
      <trkpt lat="42.127500" lon="1.035167">
        <ele>1636.0</ele>
        <time>2013-09-13T14:21:11Z</time>
      </trkpt>
      <trkpt lat="42.127483" lon="1.035083">
        <ele>1637.0</ele>
        <time>2013-09-13T14:21:12Z</time>
      </trkpt>
      <trkpt lat="42.127467" lon="1.035017">
        <ele>1639.0</ele>
        <time>2013-09-13T14:21:13Z</time>
      </trkpt>
      <trkpt lat="42.127433" lon="1.034950">
        <ele>1641.0</ele>
        <time>2013-09-13T14:21:14Z</time>
      </trkpt>
      <trkpt lat="42.127383" lon="1.034883">
        <ele>1642.0</ele>
        <time>2013-09-13T14:21:15Z</time>
      </trkpt>
      <trkpt lat="42.127333" lon="1.034817">
        <ele>1642.0</ele>
        <time>2013-09-13T14:21:16Z</time>
      </trkpt>
      <trkpt lat="42.127283" lon="1.034750">
        <ele>1642.0</ele>
        <time>2013-09-13T14:21:17Z</time>
      </trkpt>
      <trkpt lat="42.127217" lon="1.034700">
        <ele>1644.0</ele>
        <time>2013-09-13T14:21:18Z</time>
      </trkpt>
      <trkpt lat="42.127150" lon="1.034683">
        <ele>1646.0</ele>
        <time>2013-09-13T14:21:19Z</time>
      </trkpt>
      <trkpt lat="42.127067" lon="1.034683">
        <ele>1648.0</ele>
        <time>2013-09-13T14:21:20Z</time>
      </trkpt>
      <trkpt lat="42.127000" lon="1.034717">
        <ele>1649.0</ele>
        <time>2013-09-13T14:21:21Z</time>
      </trkpt>
      <trkpt lat="42.126917" lon="1.034750">
        <ele>1650.0</ele>
        <time>2013-09-13T14:21:22Z</time>
      </trkpt>
      <trkpt lat="42.126833" lon="1.034800">
        <ele>1651.0</ele>
        <time>2013-09-13T14:21:23Z</time>
      </trkpt>
      <trkpt lat="42.126767" lon="1.034867">
        <ele>1652.0</ele>
        <time>2013-09-13T14:21:24Z</time>
      </trkpt>
      <trkpt lat="42.126683" lon="1.034950">
        <ele>1653.0</ele>
        <time>2013-09-13T14:21:25Z</time>
      </trkpt>
      <trkpt lat="42.126633" lon="1.035033">
        <ele>1656.0</ele>
        <time>2013-09-13T14:21:26Z</time>
      </trkpt>
      <trkpt lat="42.126567" lon="1.035117">
        <ele>1659.0</ele>
        <time>2013-09-13T14:21:27Z</time>
      </trkpt>
      <trkpt lat="42.126517" lon="1.035200">
        <ele>1661.0</ele>
        <time>2013-09-13T14:21:28Z</time>
      </trkpt>
      <trkpt lat="42.126467" lon="1.035317">
        <ele>1664.0</ele>
        <time>2013-09-13T14:21:29Z</time>
      </trkpt>
      <trkpt lat="42.126433" lon="1.035433">
        <ele>1666.0</ele>
        <time>2013-09-13T14:21:30Z</time>
      </trkpt>
      <trkpt lat="42.126433" lon="1.035550">
        <ele>1668.0</ele>
        <time>2013-09-13T14:21:31Z</time>
      </trkpt>
      <trkpt lat="42.126483" lon="1.035767">
        <ele>1672.0</ele>
        <time>2013-09-13T14:21:33Z</time>
      </trkpt>
      <trkpt lat="42.126500" lon="1.035883">
        <ele>1674.0</ele>
        <time>2013-09-13T14:21:34Z</time>
      </trkpt>
      <trkpt lat="42.126517" lon="1.035983">
        <ele>1675.0</ele>
        <time>2013-09-13T14:21:35Z</time>
      </trkpt>
      <trkpt lat="42.126550" lon="1.036100">
        <ele>1675.0</ele>
        <time>2013-09-13T14:21:36Z</time>
      </trkpt>
      <trkpt lat="42.126600" lon="1.036200">
        <ele>1676.0</ele>
        <time>2013-09-13T14:21:37Z</time>
      </trkpt>
      <trkpt lat="42.126667" lon="1.036283">
        <ele>1677.0</ele>
        <time>2013-09-13T14:21:38Z</time>
      </trkpt>
      <trkpt lat="42.126717" lon="1.036367">
        <ele>1678.0</ele>
        <time>2013-09-13T14:21:39Z</time>
      </trkpt>
      <trkpt lat="42.126783" lon="1.036450">
        <ele>1680.0</ele>
        <time>2013-09-13T14:21:40Z</time>
      </trkpt>
      <trkpt lat="42.126867" lon="1.036517">
        <ele>1682.0</ele>
        <time>2013-09-13T14:21:41Z</time>
      </trkpt>
      <trkpt lat="42.126950" lon="1.036567">
        <ele>1683.0</ele>
        <time>2013-09-13T14:21:42Z</time>
      </trkpt>
      <trkpt lat="42.127033" lon="1.036583">
        <ele>1685.0</ele>
        <time>2013-09-13T14:21:43Z</time>
      </trkpt>
      <trkpt lat="42.127117" lon="1.036600">
        <ele>1686.0</ele>
        <time>2013-09-13T14:21:44Z</time>
      </trkpt>
      <trkpt lat="42.127200" lon="1.036600">
        <ele>1688.0</ele>
        <time>2013-09-13T14:21:45Z</time>
      </trkpt>
      <trkpt lat="42.127267" lon="1.036583">
        <ele>1690.0</ele>
        <time>2013-09-13T14:21:46Z</time>
      </trkpt>
      <trkpt lat="42.127350" lon="1.036533">
        <ele>1691.0</ele>
        <time>2013-09-13T14:21:47Z</time>
      </trkpt>
      <trkpt lat="42.127400" lon="1.036483">
        <ele>1693.0</ele>
        <time>2013-09-13T14:21:48Z</time>
      </trkpt>
      <trkpt lat="42.127467" lon="1.036417">
        <ele>1694.0</ele>
        <time>2013-09-13T14:21:49Z</time>
      </trkpt>
      <trkpt lat="42.127517" lon="1.036333">
        <ele>1695.0</ele>
        <time>2013-09-13T14:21:50Z</time>
      </trkpt>
      <trkpt lat="42.127533" lon="1.036233">
        <ele>1696.0</ele>
        <time>2013-09-13T14:21:51Z</time>
      </trkpt>
      <trkpt lat="42.127550" lon="1.036133">
        <ele>1697.0</ele>
        <time>2013-09-13T14:21:52Z</time>
      </trkpt>
      <trkpt lat="42.127550" lon="1.036033">
        <ele>1698.0</ele>
        <time>2013-09-13T14:21:53Z</time>
      </trkpt>
      <trkpt lat="42.127533" lon="1.035950">
        <ele>1700.0</ele>
        <time>2013-09-13T14:21:54Z</time>
      </trkpt>
      <trkpt lat="42.127517" lon="1.035867">
        <ele>1701.0</ele>
        <time>2013-09-13T14:21:55Z</time>
      </trkpt>
      <trkpt lat="42.127467" lon="1.035800">
        <ele>1703.0</ele>
        <time>2013-09-13T14:21:56Z</time>
      </trkpt>
      <trkpt lat="42.127417" lon="1.035733">
        <ele>1704.0</ele>
        <time>2013-09-13T14:21:57Z</time>
      </trkpt>
      <trkpt lat="42.127367" lon="1.035667">
        <ele>1705.0</ele>
        <time>2013-09-13T14:21:58Z</time>
      </trkpt>
      <trkpt lat="42.127283" lon="1.035633">
        <ele>1706.0</ele>
        <time>2013-09-13T14:21:59Z</time>
      </trkpt>
      <trkpt lat="42.127217" lon="1.035633">
        <ele>1708.0</ele>
        <time>2013-09-13T14:22:00Z</time>
      </trkpt>
      <trkpt lat="42.127133" lon="1.035650">
        <ele>1709.0</ele>
        <time>2013-09-13T14:22:01Z</time>
      </trkpt>
      <trkpt lat="42.127067" lon="1.035683">
        <ele>1710.0</ele>
        <time>2013-09-13T14:22:02Z</time>
      </trkpt>
      <trkpt lat="42.126983" lon="1.035717">
        <ele>1710.0</ele>
        <time>2013-09-13T14:22:03Z</time>
      </trkpt>
      <trkpt lat="42.126900" lon="1.035767">
        <ele>1711.0</ele>
        <time>2013-09-13T14:22:04Z</time>
      </trkpt>
      <trkpt lat="42.126750" lon="1.035933">
        <ele>1713.0</ele>
        <time>2013-09-13T14:22:06Z</time>
      </trkpt>
      <trkpt lat="42.126700" lon="1.036050">
        <ele>1714.0</ele>
        <time>2013-09-13T14:22:07Z</time>
      </trkpt>
      <trkpt lat="42.126667" lon="1.036183">
        <ele>1715.0</ele>
        <time>2013-09-13T14:22:08Z</time>
      </trkpt>
      <trkpt lat="42.126650" lon="1.036317">
        <ele>1717.0</ele>
        <time>2013-09-13T14:22:09Z</time>
      </trkpt>
      <trkpt lat="42.126667" lon="1.036450">
        <ele>1719.0</ele>
        <time>2013-09-13T14:22:10Z</time>
      </trkpt>
      <trkpt lat="42.126683" lon="1.036550">
        <ele>1721.0</ele>
        <time>2013-09-13T14:22:11Z</time>
      </trkpt>
      <trkpt lat="42.126717" lon="1.036667">
        <ele>1722.0</ele>
        <time>2013-09-13T14:22:12Z</time>
      </trkpt>
      <trkpt lat="42.126750" lon="1.036800">
        <ele>1723.0</ele>
        <time>2013-09-13T14:22:13Z</time>
      </trkpt>
      <trkpt lat="42.126800" lon="1.036917">
        <ele>1724.0</ele>
        <time>2013-09-13T14:22:14Z</time>
      </trkpt>
      <trkpt lat="42.126883" lon="1.037017">
        <ele>1726.0</ele>
        <time>2013-09-13T14:22:15Z</time>
      </trkpt>
      <trkpt lat="42.126950" lon="1.037067">
        <ele>1728.0</ele>
        <time>2013-09-13T14:22:16Z</time>
      </trkpt>
      <trkpt lat="42.127033" lon="1.037100">
        <ele>1730.0</ele>
        <time>2013-09-13T14:22:17Z</time>
      </trkpt>
      <trkpt lat="42.127117" lon="1.037117">
        <ele>1732.0</ele>
        <time>2013-09-13T14:22:18Z</time>
      </trkpt>
      <trkpt lat="42.127183" lon="1.037100">
        <ele>1733.0</ele>
        <time>2013-09-13T14:22:19Z</time>
      </trkpt>
      <trkpt lat="42.127267" lon="1.037083">
        <ele>1735.0</ele>
        <time>2013-09-13T14:22:20Z</time>
      </trkpt>
      <trkpt lat="42.127333" lon="1.037033">
        <ele>1735.0</ele>
        <time>2013-09-13T14:22:21Z</time>
      </trkpt>
      <trkpt lat="42.127400" lon="1.036967">
        <ele>1736.0</ele>
        <time>2013-09-13T14:22:22Z</time>
      </trkpt>
      <trkpt lat="42.127467" lon="1.036900">
        <ele>1737.0</ele>
        <time>2013-09-13T14:22:23Z</time>
      </trkpt>
      <trkpt lat="42.127500" lon="1.036817">
        <ele>1738.0</ele>
        <time>2013-09-13T14:22:24Z</time>
      </trkpt>
      <trkpt lat="42.127517" lon="1.036717">
        <ele>1739.0</ele>
        <time>2013-09-13T14:22:25Z</time>
      </trkpt>
      <trkpt lat="42.127517" lon="1.036650">
        <ele>1742.0</ele>
        <time>2013-09-13T14:22:26Z</time>
      </trkpt>
      <trkpt lat="42.127517" lon="1.036567">
        <ele>1744.0</ele>
        <time>2013-09-13T14:22:27Z</time>
      </trkpt>
      <trkpt lat="42.127500" lon="1.036500">
        <ele>1745.0</ele>
        <time>2013-09-13T14:22:28Z</time>
      </trkpt>
      <trkpt lat="42.127467" lon="1.036450">
        <ele>1747.0</ele>
        <time>2013-09-13T14:22:29Z</time>
      </trkpt>
      <trkpt lat="42.127400" lon="1.036400">
        <ele>1748.0</ele>
        <time>2013-09-13T14:22:30Z</time>
      </trkpt>
      <trkpt lat="42.127317" lon="1.036383">
        <ele>1749.0</ele>
        <time>2013-09-13T14:22:31Z</time>
      </trkpt>
      <trkpt lat="42.127233" lon="1.036383">
        <ele>1749.0</ele>
        <time>2013-09-13T14:22:32Z</time>
      </trkpt>
      <trkpt lat="42.127150" lon="1.036433">
        <ele>1750.0</ele>
        <time>2013-09-13T14:22:33Z</time>
      </trkpt>
      <trkpt lat="42.127067" lon="1.036500">
        <ele>1751.0</ele>
        <time>2013-09-13T14:22:34Z</time>
      </trkpt>
      <trkpt lat="42.126983" lon="1.036583">
        <ele>1752.0</ele>
        <time>2013-09-13T14:22:35Z</time>
      </trkpt>
      <trkpt lat="42.126917" lon="1.036683">
        <ele>1754.0</ele>
        <time>2013-09-13T14:22:36Z</time>
      </trkpt>
      <trkpt lat="42.126850" lon="1.036800">
        <ele>1755.0</ele>
        <time>2013-09-13T14:22:37Z</time>
      </trkpt>
      <trkpt lat="42.126800" lon="1.036917">
        <ele>1756.0</ele>
        <time>2013-09-13T14:22:38Z</time>
      </trkpt>
      <trkpt lat="42.126783" lon="1.037067">
        <ele>1756.0</ele>
        <time>2013-09-13T14:22:39Z</time>
      </trkpt>
      <trkpt lat="42.126767" lon="1.037200">
        <ele>1757.0</ele>
        <time>2013-09-13T14:22:40Z</time>
      </trkpt>
      <trkpt lat="42.126767" lon="1.037333">
        <ele>1759.0</ele>
        <time>2013-09-13T14:22:41Z</time>
      </trkpt>
      <trkpt lat="42.126783" lon="1.037467">
        <ele>1761.0</ele>
        <time>2013-09-13T14:22:42Z</time>
      </trkpt>
      <trkpt lat="42.126817" lon="1.037583">
        <ele>1763.0</ele>
        <time>2013-09-13T14:22:43Z</time>
      </trkpt>
      <trkpt lat="42.126867" lon="1.037667">
        <ele>1765.0</ele>
        <time>2013-09-13T14:22:44Z</time>
      </trkpt>
      <trkpt lat="42.126933" lon="1.037750">
        <ele>1766.0</ele>
        <time>2013-09-13T14:22:45Z</time>
      </trkpt>
      <trkpt lat="42.127000" lon="1.037817">
        <ele>1767.0</ele>
        <time>2013-09-13T14:22:46Z</time>
      </trkpt>
      <trkpt lat="42.127083" lon="1.037867">
        <ele>1768.0</ele>
        <time>2013-09-13T14:22:47Z</time>
      </trkpt>
      <trkpt lat="42.127167" lon="1.037883">
        <ele>1769.0</ele>
        <time>2013-09-13T14:22:48Z</time>
      </trkpt>
      <trkpt lat="42.127233" lon="1.037883">
        <ele>1770.0</ele>
        <time>2013-09-13T14:22:49Z</time>
      </trkpt>
      <trkpt lat="42.127317" lon="1.037867">
        <ele>1771.0</ele>
        <time>2013-09-13T14:22:50Z</time>
      </trkpt>
      <trkpt lat="42.127400" lon="1.037817">
        <ele>1771.0</ele>
        <time>2013-09-13T14:22:51Z</time>
      </trkpt>
      <trkpt lat="42.127467" lon="1.037783">
        <ele>1772.0</ele>
        <time>2013-09-13T14:22:52Z</time>
      </trkpt>
      <trkpt lat="42.127500" lon="1.037733">
        <ele>1774.0</ele>
        <time>2013-09-13T14:22:53Z</time>
      </trkpt>
      <trkpt lat="42.127533" lon="1.037683">
        <ele>1775.0</ele>
        <time>2013-09-13T14:22:54Z</time>
      </trkpt>
      <trkpt lat="42.127550" lon="1.037600">
        <ele>1776.0</ele>
        <time>2013-09-13T14:22:55Z</time>
      </trkpt>
      <trkpt lat="42.127550" lon="1.037500">
        <ele>1776.0</ele>
        <time>2013-09-13T14:22:56Z</time>
      </trkpt>
      <trkpt lat="42.127550" lon="1.037417">
        <ele>1777.0</ele>
        <time>2013-09-13T14:22:57Z</time>
      </trkpt>
      <trkpt lat="42.127533" lon="1.037350">
        <ele>1778.0</ele>
        <time>2013-09-13T14:22:58Z</time>
      </trkpt>
      <trkpt lat="42.127483" lon="1.037283">
        <ele>1779.0</ele>
        <time>2013-09-13T14:22:59Z</time>
      </trkpt>
      <trkpt lat="42.127433" lon="1.037250">
        <ele>1782.0</ele>
        <time>2013-09-13T14:23:00Z</time>
      </trkpt>
      <trkpt lat="42.127367" lon="1.037217">
        <ele>1784.0</ele>
        <time>2013-09-13T14:23:01Z</time>
      </trkpt>
      <trkpt lat="42.127300" lon="1.037200">
        <ele>1786.0</ele>
        <time>2013-09-13T14:23:02Z</time>
      </trkpt>
      <trkpt lat="42.127233" lon="1.037167">
        <ele>1787.0</ele>
        <time>2013-09-13T14:23:03Z</time>
      </trkpt>
      <trkpt lat="42.127150" lon="1.037167">
        <ele>1788.0</ele>
        <time>2013-09-13T14:23:04Z</time>
      </trkpt>
      <trkpt lat="42.127067" lon="1.037183">
        <ele>1790.0</ele>
        <time>2013-09-13T14:23:05Z</time>
      </trkpt>
      <trkpt lat="42.126983" lon="1.037217">
        <ele>1793.0</ele>
        <time>2013-09-13T14:23:06Z</time>
      </trkpt>
      <trkpt lat="42.126933" lon="1.037283">
        <ele>1796.0</ele>
        <time>2013-09-13T14:23:07Z</time>
      </trkpt>
      <trkpt lat="42.126883" lon="1.037350">
        <ele>1799.0</ele>
        <time>2013-09-13T14:23:08Z</time>
      </trkpt>
      <trkpt lat="42.126850" lon="1.037433">
        <ele>1801.0</ele>
        <time>2013-09-13T14:23:09Z</time>
      </trkpt>
      <trkpt lat="42.126800" lon="1.037550">
        <ele>1802.0</ele>
        <time>2013-09-13T14:23:10Z</time>
      </trkpt>
      <trkpt lat="42.126767" lon="1.037683">
        <ele>1803.0</ele>
        <time>2013-09-13T14:23:11Z</time>
      </trkpt>
      <trkpt lat="42.126750" lon="1.037817">
        <ele>1802.0</ele>
        <time>2013-09-13T14:23:12Z</time>
      </trkpt>
      <trkpt lat="42.126750" lon="1.037967">
        <ele>1802.0</ele>
        <time>2013-09-13T14:23:13Z</time>
      </trkpt>
      <trkpt lat="42.126783" lon="1.038117">
        <ele>1803.0</ele>
        <time>2013-09-13T14:23:14Z</time>
      </trkpt>
      <trkpt lat="42.126817" lon="1.038233">
        <ele>1804.0</ele>
        <time>2013-09-13T14:23:15Z</time>
      </trkpt>
      <trkpt lat="42.126867" lon="1.038350">
        <ele>1805.0</ele>
        <time>2013-09-13T14:23:16Z</time>
      </trkpt>
      <trkpt lat="42.126917" lon="1.038467">
        <ele>1806.0</ele>
        <time>2013-09-13T14:23:17Z</time>
      </trkpt>
      <trkpt lat="42.126967" lon="1.038567">
        <ele>1807.0</ele>
        <time>2013-09-13T14:23:18Z</time>
      </trkpt>
      <trkpt lat="42.127033" lon="1.038667">
        <ele>1808.0</ele>
        <time>2013-09-13T14:23:19Z</time>
      </trkpt>
      <trkpt lat="42.127100" lon="1.038717">
        <ele>1808.0</ele>
        <time>2013-09-13T14:23:20Z</time>
      </trkpt>
      <trkpt lat="42.127183" lon="1.038750">
        <ele>1809.0</ele>
        <time>2013-09-13T14:23:21Z</time>
      </trkpt>
      <trkpt lat="42.127267" lon="1.038767">
        <ele>1809.0</ele>
        <time>2013-09-13T14:23:22Z</time>
      </trkpt>
      <trkpt lat="42.127350" lon="1.038767">
        <ele>1810.0</ele>
        <time>2013-09-13T14:23:23Z</time>
      </trkpt>
      <trkpt lat="42.127417" lon="1.038733">
        <ele>1811.0</ele>
        <time>2013-09-13T14:23:24Z</time>
      </trkpt>
      <trkpt lat="42.127467" lon="1.038683">
        <ele>1813.0</ele>
        <time>2013-09-13T14:23:25Z</time>
      </trkpt>
      <trkpt lat="42.127517" lon="1.038633">
        <ele>1813.0</ele>
        <time>2013-09-13T14:23:26Z</time>
      </trkpt>
      <trkpt lat="42.127567" lon="1.038550">
        <ele>1814.0</ele>
        <time>2013-09-13T14:23:27Z</time>
      </trkpt>
      <trkpt lat="42.127600" lon="1.038467">
        <ele>1814.0</ele>
        <time>2013-09-13T14:23:28Z</time>
      </trkpt>
      <trkpt lat="42.127633" lon="1.038367">
        <ele>1814.0</ele>
        <time>2013-09-13T14:23:29Z</time>
      </trkpt>
      <trkpt lat="42.127650" lon="1.038267">
        <ele>1815.0</ele>
        <time>2013-09-13T14:23:30Z</time>
      </trkpt>
      <trkpt lat="42.127633" lon="1.038167">
        <ele>1816.0</ele>
        <time>2013-09-13T14:23:31Z</time>
      </trkpt>
      <trkpt lat="42.127617" lon="1.038083">
        <ele>1818.0</ele>
        <time>2013-09-13T14:23:32Z</time>
      </trkpt>
      <trkpt lat="42.127583" lon="1.038017">
        <ele>1820.0</ele>
        <time>2013-09-13T14:23:33Z</time>
      </trkpt>
      <trkpt lat="42.127533" lon="1.037983">
        <ele>1823.0</ele>
        <time>2013-09-13T14:23:34Z</time>
      </trkpt>
      <trkpt lat="42.127467" lon="1.037967">
        <ele>1825.0</ele>
        <time>2013-09-13T14:23:35Z</time>
      </trkpt>
      <trkpt lat="42.127400" lon="1.037950">
        <ele>1827.0</ele>
        <time>2013-09-13T14:23:36Z</time>
      </trkpt>
      <trkpt lat="42.127317" lon="1.037950">
        <ele>1830.0</ele>
        <time>2013-09-13T14:23:37Z</time>
      </trkpt>
      <trkpt lat="42.127217" lon="1.037950">
        <ele>1832.0</ele>
        <time>2013-09-13T14:23:38Z</time>
      </trkpt>
      <trkpt lat="42.127133" lon="1.037983">
        <ele>1834.0</ele>
        <time>2013-09-13T14:23:39Z</time>
      </trkpt>
      <trkpt lat="42.127050" lon="1.038067">
        <ele>1838.0</ele>
        <time>2013-09-13T14:23:40Z</time>
      </trkpt>
      <trkpt lat="42.126983" lon="1.038183">
        <ele>1840.0</ele>
        <time>2013-09-13T14:23:41Z</time>
      </trkpt>
      <trkpt lat="42.126933" lon="1.038300">
        <ele>1843.0</ele>
        <time>2013-09-13T14:23:42Z</time>
      </trkpt>
      <trkpt lat="42.126900" lon="1.038417">
        <ele>1846.0</ele>
        <time>2013-09-13T14:23:43Z</time>
      </trkpt>
      <trkpt lat="42.126883" lon="1.038550">
        <ele>1848.0</ele>
        <time>2013-09-13T14:23:44Z</time>
      </trkpt>
      <trkpt lat="42.126883" lon="1.038700">
        <ele>1848.0</ele>
        <time>2013-09-13T14:23:45Z</time>
      </trkpt>
      <trkpt lat="42.126883" lon="1.038867">
        <ele>1848.0</ele>
        <time>2013-09-13T14:23:46Z</time>
      </trkpt>
      <trkpt lat="42.126917" lon="1.039000">
        <ele>1848.0</ele>
        <time>2013-09-13T14:23:47Z</time>
      </trkpt>
      <trkpt lat="42.126950" lon="1.039133">
        <ele>1849.0</ele>
        <time>2013-09-13T14:23:48Z</time>
      </trkpt>
      <trkpt lat="42.127000" lon="1.039250">
        <ele>1850.0</ele>
        <time>2013-09-13T14:23:49Z</time>
      </trkpt>
      <trkpt lat="42.127067" lon="1.039350">
        <ele>1851.0</ele>
        <time>2013-09-13T14:23:50Z</time>
      </trkpt>
      <trkpt lat="42.127133" lon="1.039450">
        <ele>1851.0</ele>
        <time>2013-09-13T14:23:51Z</time>
      </trkpt>
      <trkpt lat="42.127200" lon="1.039550">
        <ele>1852.0</ele>
        <time>2013-09-13T14:23:52Z</time>
      </trkpt>
      <trkpt lat="42.127283" lon="1.039617">
        <ele>1853.0</ele>
        <time>2013-09-13T14:23:53Z</time>
      </trkpt>
      <trkpt lat="42.127367" lon="1.039650">
        <ele>1853.0</ele>
        <time>2013-09-13T14:23:54Z</time>
      </trkpt>
      <trkpt lat="42.127450" lon="1.039650">
        <ele>1854.0</ele>
        <time>2013-09-13T14:23:55Z</time>
      </trkpt>
      <trkpt lat="42.127500" lon="1.039617">
        <ele>1855.0</ele>
        <time>2013-09-13T14:23:56Z</time>
      </trkpt>
      <trkpt lat="42.127550" lon="1.039600">
        <ele>1855.0</ele>
        <time>2013-09-13T14:23:57Z</time>
      </trkpt>
      <trkpt lat="42.127600" lon="1.039567">
        <ele>1855.0</ele>
        <time>2013-09-13T14:23:58Z</time>
      </trkpt>
      <trkpt lat="42.127667" lon="1.039533">
        <ele>1854.0</ele>
        <time>2013-09-13T14:23:59Z</time>
      </trkpt>
      <trkpt lat="42.127717" lon="1.039483">
        <ele>1853.0</ele>
        <time>2013-09-13T14:24:00Z</time>
      </trkpt>
      <trkpt lat="42.127767" lon="1.039417">
        <ele>1852.0</ele>
        <time>2013-09-13T14:24:01Z</time>
      </trkpt>
      <trkpt lat="42.127800" lon="1.039350">
        <ele>1851.0</ele>
        <time>2013-09-13T14:24:02Z</time>
      </trkpt>
      <trkpt lat="42.127800" lon="1.039283">
        <ele>1852.0</ele>
        <time>2013-09-13T14:24:03Z</time>
      </trkpt>
      <trkpt lat="42.127817" lon="1.039200">
        <ele>1852.0</ele>
        <time>2013-09-13T14:24:04Z</time>
      </trkpt>
      <trkpt lat="42.127800" lon="1.039100">
        <ele>1851.0</ele>
        <time>2013-09-13T14:24:05Z</time>
      </trkpt>
      <trkpt lat="42.127800" lon="1.038983">
        <ele>1851.0</ele>
        <time>2013-09-13T14:24:06Z</time>
      </trkpt>
      <trkpt lat="42.127767" lon="1.038883">
        <ele>1851.0</ele>
        <time>2013-09-13T14:24:07Z</time>
      </trkpt>
      <trkpt lat="42.127750" lon="1.038817">
        <ele>1851.0</ele>
        <time>2013-09-13T14:24:08Z</time>
      </trkpt>
      <trkpt lat="42.127717" lon="1.038767">
        <ele>1853.0</ele>
        <time>2013-09-13T14:24:09Z</time>
      </trkpt>
      <trkpt lat="42.127700" lon="1.038700">
        <ele>1855.0</ele>
        <time>2013-09-13T14:24:10Z</time>
      </trkpt>
      <trkpt lat="42.127667" lon="1.038650">
        <ele>1857.0</ele>
        <time>2013-09-13T14:24:11Z</time>
      </trkpt>
      <trkpt lat="42.127650" lon="1.038583">
        <ele>1859.0</ele>
        <time>2013-09-13T14:24:12Z</time>
      </trkpt>
      <trkpt lat="42.127617" lon="1.038517">
        <ele>1861.0</ele>
        <time>2013-09-13T14:24:13Z</time>
      </trkpt>
      <trkpt lat="42.127567" lon="1.038467">
        <ele>1863.0</ele>
        <time>2013-09-13T14:24:14Z</time>
      </trkpt>
      <trkpt lat="42.127533" lon="1.038400">
        <ele>1866.0</ele>
        <time>2013-09-13T14:24:15Z</time>
      </trkpt>
      <trkpt lat="42.127517" lon="1.038317">
        <ele>1870.0</ele>
        <time>2013-09-13T14:24:16Z</time>
      </trkpt>
      <trkpt lat="42.127517" lon="1.038250">
        <ele>1873.0</ele>
        <time>2013-09-13T14:24:17Z</time>
      </trkpt>
      <trkpt lat="42.127550" lon="1.038167">
        <ele>1876.0</ele>
        <time>2013-09-13T14:24:18Z</time>
      </trkpt>
      <trkpt lat="42.127600" lon="1.038117">
        <ele>1878.0</ele>
        <time>2013-09-13T14:24:19Z</time>
      </trkpt>
      <trkpt lat="42.127667" lon="1.038083">
        <ele>1880.0</ele>
        <time>2013-09-13T14:24:20Z</time>
      </trkpt>
      <trkpt lat="42.127750" lon="1.038083">
        <ele>1881.0</ele>
        <time>2013-09-13T14:24:21Z</time>
      </trkpt>
      <trkpt lat="42.127850" lon="1.038117">
        <ele>1882.0</ele>
        <time>2013-09-13T14:24:22Z</time>
      </trkpt>
      <trkpt lat="42.127950" lon="1.038183">
        <ele>1882.0</ele>
        <time>2013-09-13T14:24:23Z</time>
      </trkpt>
      <trkpt lat="42.128033" lon="1.038250">
        <ele>1884.0</ele>
        <time>2013-09-13T14:24:24Z</time>
      </trkpt>
      <trkpt lat="42.128117" lon="1.038333">
        <ele>1886.0</ele>
        <time>2013-09-13T14:24:25Z</time>
      </trkpt>
      <trkpt lat="42.128233" lon="1.038550">
        <ele>1890.0</ele>
        <time>2013-09-13T14:24:27Z</time>
      </trkpt>
      <trkpt lat="42.128267" lon="1.038667">
        <ele>1891.0</ele>
        <time>2013-09-13T14:24:28Z</time>
      </trkpt>
      <trkpt lat="42.128283" lon="1.038800">
        <ele>1893.0</ele>
        <time>2013-09-13T14:24:29Z</time>
      </trkpt>
      <trkpt lat="42.128300" lon="1.039067">
        <ele>1894.0</ele>
        <time>2013-09-13T14:24:31Z</time>
      </trkpt>
      <trkpt lat="42.128283" lon="1.039217">
        <ele>1895.0</ele>
        <time>2013-09-13T14:24:32Z</time>
      </trkpt>
      <trkpt lat="42.128233" lon="1.039333">
        <ele>1896.0</ele>
        <time>2013-09-13T14:24:33Z</time>
      </trkpt>
      <trkpt lat="42.128183" lon="1.039450">
        <ele>1898.0</ele>
        <time>2013-09-13T14:24:34Z</time>
      </trkpt>
      <trkpt lat="42.128133" lon="1.039550">
        <ele>1900.0</ele>
        <time>2013-09-13T14:24:35Z</time>
      </trkpt>
      <trkpt lat="42.128067" lon="1.039650">
        <ele>1901.0</ele>
        <time>2013-09-13T14:24:36Z</time>
      </trkpt>
      <trkpt lat="42.127983" lon="1.039750">
        <ele>1902.0</ele>
        <time>2013-09-13T14:24:37Z</time>
      </trkpt>
      <trkpt lat="42.127900" lon="1.039833">
        <ele>1903.0</ele>
        <time>2013-09-13T14:24:38Z</time>
      </trkpt>
      <trkpt lat="42.127833" lon="1.039900">
        <ele>1905.0</ele>
        <time>2013-09-13T14:24:39Z</time>
      </trkpt>
      <trkpt lat="42.127750" lon="1.039967">
        <ele>1906.0</ele>
        <time>2013-09-13T14:24:40Z</time>
      </trkpt>
      <trkpt lat="42.127683" lon="1.040000">
        <ele>1907.0</ele>
        <time>2013-09-13T14:24:41Z</time>
      </trkpt>
      <trkpt lat="42.127600" lon="1.040033">
        <ele>1907.0</ele>
        <time>2013-09-13T14:24:42Z</time>
      </trkpt>
      <trkpt lat="42.127517" lon="1.040033">
        <ele>1907.0</ele>
        <time>2013-09-13T14:24:43Z</time>
      </trkpt>
      <trkpt lat="42.127417" lon="1.040017">
        <ele>1907.0</ele>
        <time>2013-09-13T14:24:44Z</time>
      </trkpt>
      <trkpt lat="42.127333" lon="1.040000">
        <ele>1907.0</ele>
        <time>2013-09-13T14:24:45Z</time>
      </trkpt>
      <trkpt lat="42.127250" lon="1.039983">
        <ele>1907.0</ele>
        <time>2013-09-13T14:24:46Z</time>
      </trkpt>
      <trkpt lat="42.127167" lon="1.039950">
        <ele>1908.0</ele>
        <time>2013-09-13T14:24:47Z</time>
      </trkpt>
      <trkpt lat="42.127083" lon="1.039933">
        <ele>1908.0</ele>
        <time>2013-09-13T14:24:48Z</time>
      </trkpt>
      <trkpt lat="42.127000" lon="1.039900">
        <ele>1909.0</ele>
        <time>2013-09-13T14:24:49Z</time>
      </trkpt>
      <trkpt lat="42.126917" lon="1.039867">
        <ele>1910.0</ele>
        <time>2013-09-13T14:24:50Z</time>
      </trkpt>
      <trkpt lat="42.126867" lon="1.039817">
        <ele>1911.0</ele>
        <time>2013-09-13T14:24:51Z</time>
      </trkpt>
      <trkpt lat="42.126817" lon="1.039750">
        <ele>1913.0</ele>
        <time>2013-09-13T14:24:52Z</time>
      </trkpt>
      <trkpt lat="42.126783" lon="1.039700">
        <ele>1915.0</ele>
        <time>2013-09-13T14:24:53Z</time>
      </trkpt>
      <trkpt lat="42.126750" lon="1.039650">
        <ele>1918.0</ele>
        <time>2013-09-13T14:24:54Z</time>
      </trkpt>
      <trkpt lat="42.126717" lon="1.039617">
        <ele>1921.0</ele>
        <time>2013-09-13T14:24:55Z</time>
      </trkpt>
      <trkpt lat="42.126683" lon="1.039550">
        <ele>1923.0</ele>
        <time>2013-09-13T14:24:56Z</time>
      </trkpt>
      <trkpt lat="42.126650" lon="1.039483">
        <ele>1924.0</ele>
        <time>2013-09-13T14:24:57Z</time>
      </trkpt>
      <trkpt lat="42.126633" lon="1.039400">
        <ele>1924.0</ele>
        <time>2013-09-13T14:24:58Z</time>
      </trkpt>
      <trkpt lat="42.126650" lon="1.039300">
        <ele>1926.0</ele>
        <time>2013-09-13T14:24:59Z</time>
      </trkpt>
      <trkpt lat="42.126683" lon="1.039233">
        <ele>1928.0</ele>
        <time>2013-09-13T14:25:00Z</time>
      </trkpt>
      <trkpt lat="42.126750" lon="1.039183">
        <ele>1932.0</ele>
        <time>2013-09-13T14:25:01Z</time>
      </trkpt>
      <trkpt lat="42.126817" lon="1.039183">
        <ele>1934.0</ele>
        <time>2013-09-13T14:25:02Z</time>
      </trkpt>
      <trkpt lat="42.126900" lon="1.039200">
        <ele>1937.0</ele>
        <time>2013-09-13T14:25:03Z</time>
      </trkpt>
      <trkpt lat="42.126983" lon="1.039250">
        <ele>1939.0</ele>
        <time>2013-09-13T14:25:04Z</time>
      </trkpt>
      <trkpt lat="42.127067" lon="1.039333">
        <ele>1942.0</ele>
        <time>2013-09-13T14:25:05Z</time>
      </trkpt>
      <trkpt lat="42.127117" lon="1.039433">
        <ele>1945.0</ele>
        <time>2013-09-13T14:25:06Z</time>
      </trkpt>
      <trkpt lat="42.127167" lon="1.039567">
        <ele>1947.0</ele>
        <time>2013-09-13T14:25:07Z</time>
      </trkpt>
      <trkpt lat="42.127200" lon="1.039700">
        <ele>1949.0</ele>
        <time>2013-09-13T14:25:08Z</time>
      </trkpt>
      <trkpt lat="42.127233" lon="1.039833">
        <ele>1951.0</ele>
        <time>2013-09-13T14:25:09Z</time>
      </trkpt>
      <trkpt lat="42.127233" lon="1.039983">
        <ele>1953.0</ele>
        <time>2013-09-13T14:25:10Z</time>
      </trkpt>
      <trkpt lat="42.127200" lon="1.040117">
        <ele>1956.0</ele>
        <time>2013-09-13T14:25:11Z</time>
      </trkpt>
      <trkpt lat="42.127150" lon="1.040267">
        <ele>1957.0</ele>
        <time>2013-09-13T14:25:12Z</time>
      </trkpt>
      <trkpt lat="42.127083" lon="1.040383">
        <ele>1958.0</ele>
        <time>2013-09-13T14:25:13Z</time>
      </trkpt>
      <trkpt lat="42.127000" lon="1.040483">
        <ele>1959.0</ele>
        <time>2013-09-13T14:25:14Z</time>
      </trkpt>
      <trkpt lat="42.126933" lon="1.040533">
        <ele>1962.0</ele>
        <time>2013-09-13T14:25:15Z</time>
      </trkpt>
      <trkpt lat="42.126850" lon="1.040567">
        <ele>1964.0</ele>
        <time>2013-09-13T14:25:16Z</time>
      </trkpt>
      <trkpt lat="42.126783" lon="1.040583">
        <ele>1964.0</ele>
        <time>2013-09-13T14:25:17Z</time>
      </trkpt>
      <trkpt lat="42.126700" lon="1.040583">
        <ele>1965.0</ele>
        <time>2013-09-13T14:25:18Z</time>
      </trkpt>
      <trkpt lat="42.126617" lon="1.040567">
        <ele>1966.0</ele>
        <time>2013-09-13T14:25:19Z</time>
      </trkpt>
      <trkpt lat="42.126533" lon="1.040533">
        <ele>1966.0</ele>
        <time>2013-09-13T14:25:20Z</time>
      </trkpt>
      <trkpt lat="42.126483" lon="1.040483">
        <ele>1967.0</ele>
        <time>2013-09-13T14:25:21Z</time>
      </trkpt>
      <trkpt lat="42.126467" lon="1.040433">
        <ele>1969.0</ele>
        <time>2013-09-13T14:25:22Z</time>
      </trkpt>
      <trkpt lat="42.126483" lon="1.040350">
        <ele>1969.0</ele>
        <time>2013-09-13T14:25:23Z</time>
      </trkpt>
      <trkpt lat="42.126533" lon="1.040283">
        <ele>1968.0</ele>
        <time>2013-09-13T14:25:24Z</time>
      </trkpt>
      <trkpt lat="42.126600" lon="1.040250">
        <ele>1970.0</ele>
        <time>2013-09-13T14:25:25Z</time>
      </trkpt>
      <trkpt lat="42.126667" lon="1.040233">
        <ele>1973.0</ele>
        <time>2013-09-13T14:25:26Z</time>
      </trkpt>
      <trkpt lat="42.126733" lon="1.040233">
        <ele>1975.0</ele>
        <time>2013-09-13T14:25:27Z</time>
      </trkpt>
      <trkpt lat="42.126783" lon="1.040267">
        <ele>1977.0</ele>
        <time>2013-09-13T14:25:28Z</time>
      </trkpt>
      <trkpt lat="42.126850" lon="1.040317">
        <ele>1978.0</ele>
        <time>2013-09-13T14:25:29Z</time>
      </trkpt>
      <trkpt lat="42.126933" lon="1.040400">
        <ele>1979.0</ele>
        <time>2013-09-13T14:25:30Z</time>
      </trkpt>
      <trkpt lat="42.126983" lon="1.040500">
        <ele>1980.0</ele>
        <time>2013-09-13T14:25:31Z</time>
      </trkpt>
      <trkpt lat="42.127033" lon="1.040783">
        <ele>1982.0</ele>
        <time>2013-09-13T14:25:33Z</time>
      </trkpt>
      <trkpt lat="42.127017" lon="1.040933">
        <ele>1983.0</ele>
        <time>2013-09-13T14:25:34Z</time>
      </trkpt>
      <trkpt lat="42.127000" lon="1.041083">
        <ele>1984.0</ele>
        <time>2013-09-13T14:25:35Z</time>
      </trkpt>
      <trkpt lat="42.126983" lon="1.041233">
        <ele>1985.0</ele>
        <time>2013-09-13T14:25:36Z</time>
      </trkpt>
      <trkpt lat="42.126950" lon="1.041383">
        <ele>1986.0</ele>
        <time>2013-09-13T14:25:37Z</time>
      </trkpt>
      <trkpt lat="42.126900" lon="1.041500">
        <ele>1987.0</ele>
        <time>2013-09-13T14:25:38Z</time>
      </trkpt>
      <trkpt lat="42.126817" lon="1.041600">
        <ele>1987.0</ele>
        <time>2013-09-13T14:25:39Z</time>
      </trkpt>
      <trkpt lat="42.126733" lon="1.041683">
        <ele>1987.0</ele>
        <time>2013-09-13T14:25:40Z</time>
      </trkpt>
      <trkpt lat="42.126650" lon="1.041750">
        <ele>1987.0</ele>
        <time>2013-09-13T14:25:41Z</time>
      </trkpt>
      <trkpt lat="42.126567" lon="1.041800">
        <ele>1988.0</ele>
        <time>2013-09-13T14:25:42Z</time>
      </trkpt>
      <trkpt lat="42.126483" lon="1.041833">
        <ele>1988.0</ele>
        <time>2013-09-13T14:25:43Z</time>
      </trkpt>
      <trkpt lat="42.126400" lon="1.041850">
        <ele>1987.0</ele>
        <time>2013-09-13T14:25:44Z</time>
      </trkpt>
      <trkpt lat="42.126333" lon="1.041833">
        <ele>1987.0</ele>
        <time>2013-09-13T14:25:45Z</time>
      </trkpt>
      <trkpt lat="42.126267" lon="1.041800">
        <ele>1988.0</ele>
        <time>2013-09-13T14:25:46Z</time>
      </trkpt>
      <trkpt lat="42.126217" lon="1.041783">
        <ele>1989.0</ele>
        <time>2013-09-13T14:25:47Z</time>
      </trkpt>
      <trkpt lat="42.126150" lon="1.041767">
        <ele>1989.0</ele>
        <time>2013-09-13T14:25:48Z</time>
      </trkpt>
      <trkpt lat="42.126100" lon="1.041733">
        <ele>1989.0</ele>
        <time>2013-09-13T14:25:49Z</time>
      </trkpt>
      <trkpt lat="42.126067" lon="1.041683">
        <ele>1989.0</ele>
        <time>2013-09-13T14:25:50Z</time>
      </trkpt>
      <trkpt lat="42.126033" lon="1.041617">
        <ele>1989.0</ele>
        <time>2013-09-13T14:25:51Z</time>
      </trkpt>
      <trkpt lat="42.126000" lon="1.041550">
        <ele>1989.0</ele>
        <time>2013-09-13T14:25:52Z</time>
      </trkpt>
      <trkpt lat="42.125983" lon="1.041483">
        <ele>1989.0</ele>
        <time>2013-09-13T14:25:53Z</time>
      </trkpt>
      <trkpt lat="42.125983" lon="1.041417">
        <ele>1989.0</ele>
        <time>2013-09-13T14:25:54Z</time>
      </trkpt>
      <trkpt lat="42.125983" lon="1.041367">
        <ele>1988.0</ele>
        <time>2013-09-13T14:25:55Z</time>
      </trkpt>
      <trkpt lat="42.125967" lon="1.041300">
        <ele>1988.0</ele>
        <time>2013-09-13T14:25:56Z</time>
      </trkpt>
      <trkpt lat="42.125967" lon="1.041217">
        <ele>1986.0</ele>
        <time>2013-09-13T14:25:57Z</time>
      </trkpt>
      <trkpt lat="42.125950" lon="1.041100">
        <ele>1984.0</ele>
        <time>2013-09-13T14:25:58Z</time>
      </trkpt>
      <trkpt lat="42.125950" lon="1.040983">
        <ele>1981.0</ele>
        <time>2013-09-13T14:25:59Z</time>
      </trkpt>
      <trkpt lat="42.125950" lon="1.040883">
        <ele>1979.0</ele>
        <time>2013-09-13T14:26:00Z</time>
      </trkpt>
      <trkpt lat="42.125933" lon="1.040800">
        <ele>1978.0</ele>
        <time>2013-09-13T14:26:01Z</time>
      </trkpt>
      <trkpt lat="42.125917" lon="1.040717">
        <ele>1977.0</ele>
        <time>2013-09-13T14:26:02Z</time>
      </trkpt>
      <trkpt lat="42.125883" lon="1.040650">
        <ele>1975.0</ele>
        <time>2013-09-13T14:26:03Z</time>
      </trkpt>
      <trkpt lat="42.125867" lon="1.040567">
        <ele>1973.0</ele>
        <time>2013-09-13T14:26:04Z</time>
      </trkpt>
      <trkpt lat="42.125833" lon="1.040483">
        <ele>1970.0</ele>
        <time>2013-09-13T14:26:05Z</time>
      </trkpt>
      <trkpt lat="42.125800" lon="1.040383">
        <ele>1967.0</ele>
        <time>2013-09-13T14:26:06Z</time>
      </trkpt>
      <trkpt lat="42.125767" lon="1.040300">
        <ele>1964.0</ele>
        <time>2013-09-13T14:26:07Z</time>
      </trkpt>
      <trkpt lat="42.125717" lon="1.040217">
        <ele>1963.0</ele>
        <time>2013-09-13T14:26:08Z</time>
      </trkpt>
      <trkpt lat="42.125667" lon="1.040133">
        <ele>1962.0</ele>
        <time>2013-09-13T14:26:09Z</time>
      </trkpt>
      <trkpt lat="42.125617" lon="1.040067">
        <ele>1961.0</ele>
        <time>2013-09-13T14:26:10Z</time>
      </trkpt>
      <trkpt lat="42.125567" lon="1.040000">
        <ele>1960.0</ele>
        <time>2013-09-13T14:26:11Z</time>
      </trkpt>
      <trkpt lat="42.125500" lon="1.039917">
        <ele>1958.0</ele>
        <time>2013-09-13T14:26:12Z</time>
      </trkpt>
      <trkpt lat="42.125467" lon="1.039817">
        <ele>1957.0</ele>
        <time>2013-09-13T14:26:13Z</time>
      </trkpt>
      <trkpt lat="42.125417" lon="1.039733">
        <ele>1956.0</ele>
        <time>2013-09-13T14:26:14Z</time>
      </trkpt>
      <trkpt lat="42.125367" lon="1.039650">
        <ele>1955.0</ele>
        <time>2013-09-13T14:26:15Z</time>
      </trkpt>
      <trkpt lat="42.125333" lon="1.039583">
        <ele>1955.0</ele>
        <time>2013-09-13T14:26:16Z</time>
      </trkpt>
      <trkpt lat="42.125300" lon="1.039500">
        <ele>1954.0</ele>
        <time>2013-09-13T14:26:17Z</time>
      </trkpt>
      <trkpt lat="42.125267" lon="1.039400">
        <ele>1952.0</ele>
        <time>2013-09-13T14:26:18Z</time>
      </trkpt>
      <trkpt lat="42.125233" lon="1.039300">
        <ele>1950.0</ele>
        <time>2013-09-13T14:26:19Z</time>
      </trkpt>
      <trkpt lat="42.125200" lon="1.039183">
        <ele>1948.0</ele>
        <time>2013-09-13T14:26:20Z</time>
      </trkpt>
      <trkpt lat="42.125167" lon="1.039083">
        <ele>1947.0</ele>
        <time>2013-09-13T14:26:21Z</time>
      </trkpt>
      <trkpt lat="42.125133" lon="1.038983">
        <ele>1948.0</ele>
        <time>2013-09-13T14:26:22Z</time>
      </trkpt>
      <trkpt lat="42.125117" lon="1.038900">
        <ele>1947.0</ele>
        <time>2013-09-13T14:26:23Z</time>
      </trkpt>
      <trkpt lat="42.125100" lon="1.038800">
        <ele>1946.0</ele>
        <time>2013-09-13T14:26:24Z</time>
      </trkpt>
      <trkpt lat="42.125067" lon="1.038700">
        <ele>1943.0</ele>
        <time>2013-09-13T14:26:25Z</time>
      </trkpt>
      <trkpt lat="42.125050" lon="1.038583">
        <ele>1940.0</ele>
        <time>2013-09-13T14:26:26Z</time>
      </trkpt>
      <trkpt lat="42.125017" lon="1.038483">
        <ele>1938.0</ele>
        <time>2013-09-13T14:26:27Z</time>
      </trkpt>
      <trkpt lat="42.124983" lon="1.038383">
        <ele>1937.0</ele>
        <time>2013-09-13T14:26:28Z</time>
      </trkpt>
      <trkpt lat="42.124950" lon="1.038300">
        <ele>1936.0</ele>
        <time>2013-09-13T14:26:29Z</time>
      </trkpt>
      <trkpt lat="42.124917" lon="1.038217">
        <ele>1935.0</ele>
        <time>2013-09-13T14:26:30Z</time>
      </trkpt>
      <trkpt lat="42.124900" lon="1.038117">
        <ele>1933.0</ele>
        <time>2013-09-13T14:26:31Z</time>
      </trkpt>
      <trkpt lat="42.124883" lon="1.038017">
        <ele>1931.0</ele>
        <time>2013-09-13T14:26:32Z</time>
      </trkpt>
      <trkpt lat="42.124850" lon="1.037917">
        <ele>1930.0</ele>
        <time>2013-09-13T14:26:33Z</time>
      </trkpt>
      <trkpt lat="42.124833" lon="1.037850">
        <ele>1930.0</ele>
        <time>2013-09-13T14:26:34Z</time>
      </trkpt>
      <trkpt lat="42.124817" lon="1.037783">
        <ele>1930.0</ele>
        <time>2013-09-13T14:26:35Z</time>
      </trkpt>
      <trkpt lat="42.124800" lon="1.037717">
        <ele>1929.0</ele>
        <time>2013-09-13T14:26:36Z</time>
      </trkpt>
      <trkpt lat="42.124800" lon="1.037650">
        <ele>1928.0</ele>
        <time>2013-09-13T14:26:37Z</time>
      </trkpt>
      <trkpt lat="42.124783" lon="1.037550">
        <ele>1926.0</ele>
        <time>2013-09-13T14:26:38Z</time>
      </trkpt>
      <trkpt lat="42.124750" lon="1.037467">
        <ele>1925.0</ele>
        <time>2013-09-13T14:26:39Z</time>
      </trkpt>
      <trkpt lat="42.124717" lon="1.037400">
        <ele>1924.0</ele>
        <time>2013-09-13T14:26:40Z</time>
      </trkpt>
      <trkpt lat="42.124700" lon="1.037333">
        <ele>1923.0</ele>
        <time>2013-09-13T14:26:41Z</time>
      </trkpt>
      <trkpt lat="42.124667" lon="1.037250">
        <ele>1923.0</ele>
        <time>2013-09-13T14:26:42Z</time>
      </trkpt>
      <trkpt lat="42.124650" lon="1.037150">
        <ele>1921.0</ele>
        <time>2013-09-13T14:26:43Z</time>
      </trkpt>
      <trkpt lat="42.124650" lon="1.037050">
        <ele>1920.0</ele>
        <time>2013-09-13T14:26:44Z</time>
      </trkpt>
      <trkpt lat="42.124650" lon="1.036967">
        <ele>1920.0</ele>
        <time>2013-09-13T14:26:45Z</time>
      </trkpt>
      <trkpt lat="42.124633" lon="1.036883">
        <ele>1921.0</ele>
        <time>2013-09-13T14:26:46Z</time>
      </trkpt>
      <trkpt lat="42.124617" lon="1.036833">
        <ele>1922.0</ele>
        <time>2013-09-13T14:26:47Z</time>
      </trkpt>
      <trkpt lat="42.124583" lon="1.036767">
        <ele>1923.0</ele>
        <time>2013-09-13T14:26:48Z</time>
      </trkpt>
      <trkpt lat="42.124567" lon="1.036700">
        <ele>1923.0</ele>
        <time>2013-09-13T14:26:49Z</time>
      </trkpt>
      <trkpt lat="42.124550" lon="1.036617">
        <ele>1922.0</ele>
        <time>2013-09-13T14:26:50Z</time>
      </trkpt>
      <trkpt lat="42.124533" lon="1.036517">
        <ele>1920.0</ele>
        <time>2013-09-13T14:26:51Z</time>
      </trkpt>
      <trkpt lat="42.124533" lon="1.036433">
        <ele>1919.0</ele>
        <time>2013-09-13T14:26:52Z</time>
      </trkpt>
      <trkpt lat="42.124533" lon="1.036350">
        <ele>1919.0</ele>
        <time>2013-09-13T14:26:53Z</time>
      </trkpt>
      <trkpt lat="42.124517" lon="1.036283">
        <ele>1920.0</ele>
        <time>2013-09-13T14:26:54Z</time>
      </trkpt>
      <trkpt lat="42.124517" lon="1.036200">
        <ele>1920.0</ele>
        <time>2013-09-13T14:26:55Z</time>
      </trkpt>
      <trkpt lat="42.124517" lon="1.036117">
        <ele>1920.0</ele>
        <time>2013-09-13T14:26:56Z</time>
      </trkpt>
      <trkpt lat="42.124517" lon="1.036017">
        <ele>1919.0</ele>
        <time>2013-09-13T14:26:57Z</time>
      </trkpt>
      <trkpt lat="42.124517" lon="1.035933">
        <ele>1918.0</ele>
        <time>2013-09-13T14:26:58Z</time>
      </trkpt>
      <trkpt lat="42.124500" lon="1.035867">
        <ele>1919.0</ele>
        <time>2013-09-13T14:26:59Z</time>
      </trkpt>
      <trkpt lat="42.124500" lon="1.035817">
        <ele>1919.0</ele>
        <time>2013-09-13T14:27:00Z</time>
      </trkpt>
      <trkpt lat="42.124500" lon="1.035767">
        <ele>1918.0</ele>
        <time>2013-09-13T14:27:01Z</time>
      </trkpt>
      <trkpt lat="42.124517" lon="1.035700">
        <ele>1915.0</ele>
        <time>2013-09-13T14:27:02Z</time>
      </trkpt>
      <trkpt lat="42.124517" lon="1.035617">
        <ele>1912.0</ele>
        <time>2013-09-13T14:27:03Z</time>
      </trkpt>
      <trkpt lat="42.124550" lon="1.035517">
        <ele>1910.0</ele>
        <time>2013-09-13T14:27:04Z</time>
      </trkpt>
      <trkpt lat="42.124550" lon="1.035433">
        <ele>1908.0</ele>
        <time>2013-09-13T14:27:05Z</time>
      </trkpt>
      <trkpt lat="42.124550" lon="1.035350">
        <ele>1907.0</ele>
        <time>2013-09-13T14:27:06Z</time>
      </trkpt>
      <trkpt lat="42.124550" lon="1.035267">
        <ele>1906.0</ele>
        <time>2013-09-13T14:27:07Z</time>
      </trkpt>
      <trkpt lat="42.124533" lon="1.035183">
        <ele>1905.0</ele>
        <time>2013-09-13T14:27:08Z</time>
      </trkpt>
      <trkpt lat="42.124533" lon="1.035117">
        <ele>1905.0</ele>
        <time>2013-09-13T14:27:09Z</time>
      </trkpt>
      <trkpt lat="42.124533" lon="1.035033">
        <ele>1905.0</ele>
        <time>2013-09-13T14:27:10Z</time>
      </trkpt>
      <trkpt lat="42.124533" lon="1.034967">
        <ele>1906.0</ele>
        <time>2013-09-13T14:27:11Z</time>
      </trkpt>
      <trkpt lat="42.124533" lon="1.034900">
        <ele>1907.0</ele>
        <time>2013-09-13T14:27:12Z</time>
      </trkpt>
      <trkpt lat="42.124550" lon="1.034833">
        <ele>1908.0</ele>
        <time>2013-09-13T14:27:13Z</time>
      </trkpt>
      <trkpt lat="42.124550" lon="1.034767">
        <ele>1908.0</ele>
        <time>2013-09-13T14:27:14Z</time>
      </trkpt>
      <trkpt lat="42.124550" lon="1.034683">
        <ele>1909.0</ele>
        <time>2013-09-13T14:27:15Z</time>
      </trkpt>
      <trkpt lat="42.124567" lon="1.034600">
        <ele>1909.0</ele>
        <time>2013-09-13T14:27:16Z</time>
      </trkpt>
      <trkpt lat="42.124600" lon="1.034533">
        <ele>1910.0</ele>
        <time>2013-09-13T14:27:17Z</time>
      </trkpt>
      <trkpt lat="42.124667" lon="1.034517">
        <ele>1912.0</ele>
        <time>2013-09-13T14:27:18Z</time>
      </trkpt>
      <trkpt lat="42.124733" lon="1.034517">
        <ele>1913.0</ele>
        <time>2013-09-13T14:27:19Z</time>
      </trkpt>
      <trkpt lat="42.124817" lon="1.034567">
        <ele>1914.0</ele>
        <time>2013-09-13T14:27:20Z</time>
      </trkpt>
      <trkpt lat="42.124900" lon="1.034633">
        <ele>1915.0</ele>
        <time>2013-09-13T14:27:21Z</time>
      </trkpt>
      <trkpt lat="42.124950" lon="1.034733">
        <ele>1916.0</ele>
        <time>2013-09-13T14:27:22Z</time>
      </trkpt>
      <trkpt lat="42.125000" lon="1.034850">
        <ele>1917.0</ele>
        <time>2013-09-13T14:27:23Z</time>
      </trkpt>
      <trkpt lat="42.125033" lon="1.034967">
        <ele>1918.0</ele>
        <time>2013-09-13T14:27:24Z</time>
      </trkpt>
      <trkpt lat="42.125050" lon="1.035117">
        <ele>1918.0</ele>
        <time>2013-09-13T14:27:25Z</time>
      </trkpt>
      <trkpt lat="42.125050" lon="1.035267">
        <ele>1919.0</ele>
        <time>2013-09-13T14:27:26Z</time>
      </trkpt>
      <trkpt lat="42.125017" lon="1.035417">
        <ele>1919.0</ele>
        <time>2013-09-13T14:27:27Z</time>
      </trkpt>
      <trkpt lat="42.124950" lon="1.035567">
        <ele>1919.0</ele>
        <time>2013-09-13T14:27:28Z</time>
      </trkpt>
      <trkpt lat="42.124883" lon="1.035683">
        <ele>1919.0</ele>
        <time>2013-09-13T14:27:29Z</time>
      </trkpt>
      <trkpt lat="42.124800" lon="1.035767">
        <ele>1920.0</ele>
        <time>2013-09-13T14:27:30Z</time>
      </trkpt>
      <trkpt lat="42.124717" lon="1.035850">
        <ele>1920.0</ele>
        <time>2013-09-13T14:27:31Z</time>
      </trkpt>
      <trkpt lat="42.124633" lon="1.035900">
        <ele>1920.0</ele>
        <time>2013-09-13T14:27:32Z</time>
      </trkpt>
      <trkpt lat="42.124533" lon="1.035933">
        <ele>1920.0</ele>
        <time>2013-09-13T14:27:33Z</time>
      </trkpt>
      <trkpt lat="42.124433" lon="1.035933">
        <ele>1920.0</ele>
        <time>2013-09-13T14:27:34Z</time>
      </trkpt>
      <trkpt lat="42.124333" lon="1.035900">
        <ele>1920.0</ele>
        <time>2013-09-13T14:27:35Z</time>
      </trkpt>
      <trkpt lat="42.124267" lon="1.035850">
        <ele>1920.0</ele>
        <time>2013-09-13T14:27:36Z</time>
      </trkpt>
      <trkpt lat="42.124200" lon="1.035783">
        <ele>1920.0</ele>
        <time>2013-09-13T14:27:37Z</time>
      </trkpt>
      <trkpt lat="42.124150" lon="1.035717">
        <ele>1921.0</ele>
        <time>2013-09-13T14:27:38Z</time>
      </trkpt>
      <trkpt lat="42.124100" lon="1.035667">
        <ele>1922.0</ele>
        <time>2013-09-13T14:27:39Z</time>
      </trkpt>
      <trkpt lat="42.124050" lon="1.035617">
        <ele>1923.0</ele>
        <time>2013-09-13T14:27:40Z</time>
      </trkpt>
      <trkpt lat="42.124017" lon="1.035550">
        <ele>1923.0</ele>
        <time>2013-09-13T14:27:41Z</time>
      </trkpt>
      <trkpt lat="42.124000" lon="1.035483">
        <ele>1923.0</ele>
        <time>2013-09-13T14:27:42Z</time>
      </trkpt>
      <trkpt lat="42.123983" lon="1.035400">
        <ele>1924.0</ele>
        <time>2013-09-13T14:27:43Z</time>
      </trkpt>
      <trkpt lat="42.124017" lon="1.035333">
        <ele>1925.0</ele>
        <time>2013-09-13T14:27:44Z</time>
      </trkpt>
      <trkpt lat="42.124050" lon="1.035267">
        <ele>1925.0</ele>
        <time>2013-09-13T14:27:45Z</time>
      </trkpt>
      <trkpt lat="42.124100" lon="1.035233">
        <ele>1926.0</ele>
        <time>2013-09-13T14:27:46Z</time>
      </trkpt>
      <trkpt lat="42.124167" lon="1.035200">
        <ele>1926.0</ele>
        <time>2013-09-13T14:27:47Z</time>
      </trkpt>
      <trkpt lat="42.124250" lon="1.035200">
        <ele>1927.0</ele>
        <time>2013-09-13T14:27:48Z</time>
      </trkpt>
      <trkpt lat="42.124333" lon="1.035233">
        <ele>1928.0</ele>
        <time>2013-09-13T14:27:49Z</time>
      </trkpt>
      <trkpt lat="42.124417" lon="1.035283">
        <ele>1928.0</ele>
        <time>2013-09-13T14:27:50Z</time>
      </trkpt>
      <trkpt lat="42.124500" lon="1.035350">
        <ele>1929.0</ele>
        <time>2013-09-13T14:27:51Z</time>
      </trkpt>
      <trkpt lat="42.124583" lon="1.035433">
        <ele>1929.0</ele>
        <time>2013-09-13T14:27:52Z</time>
      </trkpt>
      <trkpt lat="42.124633" lon="1.035567">
        <ele>1930.0</ele>
        <time>2013-09-13T14:27:53Z</time>
      </trkpt>
      <trkpt lat="42.124683" lon="1.035700">
        <ele>1930.0</ele>
        <time>2013-09-13T14:27:54Z</time>
      </trkpt>
      <trkpt lat="42.124717" lon="1.035850">
        <ele>1930.0</ele>
        <time>2013-09-13T14:27:55Z</time>
      </trkpt>
      <trkpt lat="42.124717" lon="1.036017">
        <ele>1930.0</ele>
        <time>2013-09-13T14:27:56Z</time>
      </trkpt>
      <trkpt lat="42.124700" lon="1.036167">
        <ele>1930.0</ele>
        <time>2013-09-13T14:27:57Z</time>
      </trkpt>
      <trkpt lat="42.124683" lon="1.036300">
        <ele>1931.0</ele>
        <time>2013-09-13T14:27:58Z</time>
      </trkpt>
      <trkpt lat="42.124633" lon="1.036433">
        <ele>1931.0</ele>
        <time>2013-09-13T14:27:59Z</time>
      </trkpt>
      <trkpt lat="42.124550" lon="1.036533">
        <ele>1930.0</ele>
        <time>2013-09-13T14:28:00Z</time>
      </trkpt>
      <trkpt lat="42.124467" lon="1.036633">
        <ele>1929.0</ele>
        <time>2013-09-13T14:28:01Z</time>
      </trkpt>
      <trkpt lat="42.124367" lon="1.036683">
        <ele>1930.0</ele>
        <time>2013-09-13T14:28:02Z</time>
      </trkpt>
      <trkpt lat="42.124267" lon="1.036700">
        <ele>1931.0</ele>
        <time>2013-09-13T14:28:03Z</time>
      </trkpt>
      <trkpt lat="42.124183" lon="1.036683">
        <ele>1931.0</ele>
        <time>2013-09-13T14:28:04Z</time>
      </trkpt>
      <trkpt lat="42.124100" lon="1.036650">
        <ele>1932.0</ele>
        <time>2013-09-13T14:28:05Z</time>
      </trkpt>
      <trkpt lat="42.124033" lon="1.036600">
        <ele>1931.0</ele>
        <time>2013-09-13T14:28:06Z</time>
      </trkpt>
      <trkpt lat="42.123967" lon="1.036550">
        <ele>1931.0</ele>
        <time>2013-09-13T14:28:07Z</time>
      </trkpt>
      <trkpt lat="42.123917" lon="1.036483">
        <ele>1931.0</ele>
        <time>2013-09-13T14:28:08Z</time>
      </trkpt>
      <trkpt lat="42.123867" lon="1.036417">
        <ele>1930.0</ele>
        <time>2013-09-13T14:28:09Z</time>
      </trkpt>
      <trkpt lat="42.123817" lon="1.036367">
        <ele>1931.0</ele>
        <time>2013-09-13T14:28:10Z</time>
      </trkpt>
      <trkpt lat="42.123783" lon="1.036317">
        <ele>1931.0</ele>
        <time>2013-09-13T14:28:11Z</time>
      </trkpt>
      <trkpt lat="42.123767" lon="1.036233">
        <ele>1930.0</ele>
        <time>2013-09-13T14:28:12Z</time>
      </trkpt>
      <trkpt lat="42.123750" lon="1.036150">
        <ele>1929.0</ele>
        <time>2013-09-13T14:28:13Z</time>
      </trkpt>
      <trkpt lat="42.123750" lon="1.036067">
        <ele>1929.0</ele>
        <time>2013-09-13T14:28:14Z</time>
      </trkpt>
      <trkpt lat="42.123750" lon="1.036000">
        <ele>1929.0</ele>
        <time>2013-09-13T14:28:15Z</time>
      </trkpt>
      <trkpt lat="42.123750" lon="1.035950">
        <ele>1930.0</ele>
        <time>2013-09-13T14:28:16Z</time>
      </trkpt>
      <trkpt lat="42.123750" lon="1.035900">
        <ele>1931.0</ele>
        <time>2013-09-13T14:28:17Z</time>
      </trkpt>
      <trkpt lat="42.123750" lon="1.035867">
        <ele>1932.0</ele>
        <time>2013-09-13T14:28:18Z</time>
      </trkpt>
      <trkpt lat="42.123750" lon="1.035800">
        <ele>1932.0</ele>
        <time>2013-09-13T14:28:19Z</time>
      </trkpt>
      <trkpt lat="42.123767" lon="1.035733">
        <ele>1931.0</ele>
        <time>2013-09-13T14:28:20Z</time>
      </trkpt>
      <trkpt lat="42.123800" lon="1.035650">
        <ele>1930.0</ele>
        <time>2013-09-13T14:28:21Z</time>
      </trkpt>
      <trkpt lat="42.123833" lon="1.035600">
        <ele>1930.0</ele>
        <time>2013-09-13T14:28:22Z</time>
      </trkpt>
      <trkpt lat="42.123883" lon="1.035550">
        <ele>1931.0</ele>
        <time>2013-09-13T14:28:23Z</time>
      </trkpt>
      <trkpt lat="42.123933" lon="1.035533">
        <ele>1931.0</ele>
        <time>2013-09-13T14:28:24Z</time>
      </trkpt>
      <trkpt lat="42.124017" lon="1.035550">
        <ele>1931.0</ele>
        <time>2013-09-13T14:28:25Z</time>
      </trkpt>
      <trkpt lat="42.124100" lon="1.035567">
        <ele>1930.0</ele>
        <time>2013-09-13T14:28:26Z</time>
      </trkpt>
      <trkpt lat="42.124183" lon="1.035617">
        <ele>1930.0</ele>
        <time>2013-09-13T14:28:27Z</time>
      </trkpt>
      <trkpt lat="42.124250" lon="1.035700">
        <ele>1930.0</ele>
        <time>2013-09-13T14:28:28Z</time>
      </trkpt>
      <trkpt lat="42.124317" lon="1.035800">
        <ele>1930.0</ele>
        <time>2013-09-13T14:28:29Z</time>
      </trkpt>
      <trkpt lat="42.124367" lon="1.035933">
        <ele>1930.0</ele>
        <time>2013-09-13T14:28:30Z</time>
      </trkpt>
      <trkpt lat="42.124383" lon="1.036083">
        <ele>1930.0</ele>
        <time>2013-09-13T14:28:31Z</time>
      </trkpt>
      <trkpt lat="42.124400" lon="1.036233">
        <ele>1930.0</ele>
        <time>2013-09-13T14:28:32Z</time>
      </trkpt>
      <trkpt lat="42.124367" lon="1.036383">
        <ele>1930.0</ele>
        <time>2013-09-13T14:28:33Z</time>
      </trkpt>
      <trkpt lat="42.124333" lon="1.036517">
        <ele>1930.0</ele>
        <time>2013-09-13T14:28:34Z</time>
      </trkpt>
      <trkpt lat="42.124267" lon="1.036617">
        <ele>1930.0</ele>
        <time>2013-09-13T14:28:35Z</time>
      </trkpt>
      <trkpt lat="42.124200" lon="1.036683">
        <ele>1930.0</ele>
        <time>2013-09-13T14:28:36Z</time>
      </trkpt>
      <trkpt lat="42.124117" lon="1.036733">
        <ele>1930.0</ele>
        <time>2013-09-13T14:28:37Z</time>
      </trkpt>
      <trkpt lat="42.124050" lon="1.036733">
        <ele>1930.0</ele>
        <time>2013-09-13T14:28:38Z</time>
      </trkpt>
      <trkpt lat="42.123983" lon="1.036717">
        <ele>1930.0</ele>
        <time>2013-09-13T14:28:39Z</time>
      </trkpt>
      <trkpt lat="42.123933" lon="1.036667">
        <ele>1929.0</ele>
        <time>2013-09-13T14:28:40Z</time>
      </trkpt>
      <trkpt lat="42.123883" lon="1.036617">
        <ele>1929.0</ele>
        <time>2013-09-13T14:28:41Z</time>
      </trkpt>
      <trkpt lat="42.123867" lon="1.036550">
        <ele>1929.0</ele>
        <time>2013-09-13T14:28:42Z</time>
      </trkpt>
      <trkpt lat="42.123850" lon="1.036483">
        <ele>1929.0</ele>
        <time>2013-09-13T14:28:43Z</time>
      </trkpt>
      <trkpt lat="42.123833" lon="1.036417">
        <ele>1930.0</ele>
        <time>2013-09-13T14:28:44Z</time>
      </trkpt>
      <trkpt lat="42.123833" lon="1.036350">
        <ele>1930.0</ele>
        <time>2013-09-13T14:28:45Z</time>
      </trkpt>
      <trkpt lat="42.123833" lon="1.036267">
        <ele>1929.0</ele>
        <time>2013-09-13T14:28:46Z</time>
      </trkpt>
      <trkpt lat="42.123833" lon="1.036183">
        <ele>1928.0</ele>
        <time>2013-09-13T14:28:47Z</time>
      </trkpt>
      <trkpt lat="42.123833" lon="1.036083">
        <ele>1927.0</ele>
        <time>2013-09-13T14:28:48Z</time>
      </trkpt>
      <trkpt lat="42.123833" lon="1.036017">
        <ele>1927.0</ele>
        <time>2013-09-13T14:28:49Z</time>
      </trkpt>
      <trkpt lat="42.123833" lon="1.035950">
        <ele>1928.0</ele>
        <time>2013-09-13T14:28:50Z</time>
      </trkpt>
      <trkpt lat="42.123800" lon="1.035833">
        <ele>1930.0</ele>
        <time>2013-09-13T14:28:52Z</time>
      </trkpt>
      <trkpt lat="42.123783" lon="1.035767">
        <ele>1930.0</ele>
        <time>2013-09-13T14:28:53Z</time>
      </trkpt>
      <trkpt lat="42.123767" lon="1.035683">
        <ele>1929.0</ele>
        <time>2013-09-13T14:28:54Z</time>
      </trkpt>
      <trkpt lat="42.123767" lon="1.035600">
        <ele>1929.0</ele>
        <time>2013-09-13T14:28:55Z</time>
      </trkpt>
      <trkpt lat="42.123750" lon="1.035533">
        <ele>1929.0</ele>
        <time>2013-09-13T14:28:56Z</time>
      </trkpt>
      <trkpt lat="42.123750" lon="1.035467">
        <ele>1929.0</ele>
        <time>2013-09-13T14:28:57Z</time>
      </trkpt>
      <trkpt lat="42.123750" lon="1.035400">
        <ele>1929.0</ele>
        <time>2013-09-13T14:28:58Z</time>
      </trkpt>
      <trkpt lat="42.123733" lon="1.035317">
        <ele>1929.0</ele>
        <time>2013-09-13T14:28:59Z</time>
      </trkpt>
      <trkpt lat="42.123733" lon="1.035250">
        <ele>1929.0</ele>
        <time>2013-09-13T14:29:00Z</time>
      </trkpt>
      <trkpt lat="42.123750" lon="1.035167">
        <ele>1928.0</ele>
        <time>2013-09-13T14:29:01Z</time>
      </trkpt>
      <trkpt lat="42.123750" lon="1.035083">
        <ele>1928.0</ele>
        <time>2013-09-13T14:29:02Z</time>
      </trkpt>
      <trkpt lat="42.123767" lon="1.035017">
        <ele>1927.0</ele>
        <time>2013-09-13T14:29:03Z</time>
      </trkpt>
      <trkpt lat="42.123783" lon="1.034950">
        <ele>1927.0</ele>
        <time>2013-09-13T14:29:04Z</time>
      </trkpt>
      <trkpt lat="42.123783" lon="1.034883">
        <ele>1927.0</ele>
        <time>2013-09-13T14:29:05Z</time>
      </trkpt>
      <trkpt lat="42.123783" lon="1.034817">
        <ele>1926.0</ele>
        <time>2013-09-13T14:29:06Z</time>
      </trkpt>
      <trkpt lat="42.123800" lon="1.034733">
        <ele>1924.0</ele>
        <time>2013-09-13T14:29:07Z</time>
      </trkpt>
      <trkpt lat="42.123800" lon="1.034633">
        <ele>1922.0</ele>
        <time>2013-09-13T14:29:08Z</time>
      </trkpt>
      <trkpt lat="42.123817" lon="1.034550">
        <ele>1921.0</ele>
        <time>2013-09-13T14:29:09Z</time>
      </trkpt>
      <trkpt lat="42.123817" lon="1.034483">
        <ele>1921.0</ele>
        <time>2013-09-13T14:29:10Z</time>
      </trkpt>
      <trkpt lat="42.123817" lon="1.034417">
        <ele>1921.0</ele>
        <time>2013-09-13T14:29:11Z</time>
      </trkpt>
      <trkpt lat="42.123833" lon="1.034367">
        <ele>1921.0</ele>
        <time>2013-09-13T14:29:12Z</time>
      </trkpt>
      <trkpt lat="42.123833" lon="1.034283">
        <ele>1919.0</ele>
        <time>2013-09-13T14:29:13Z</time>
      </trkpt>
      <trkpt lat="42.123833" lon="1.034100">
        <ele>1915.0</ele>
        <time>2013-09-13T14:29:15Z</time>
      </trkpt>
      <trkpt lat="42.123833" lon="1.034017">
        <ele>1914.0</ele>
        <time>2013-09-13T14:29:16Z</time>
      </trkpt>
      <trkpt lat="42.123833" lon="1.033933">
        <ele>1914.0</ele>
        <time>2013-09-13T14:29:17Z</time>
      </trkpt>
      <trkpt lat="42.123833" lon="1.033850">
        <ele>1914.0</ele>
        <time>2013-09-13T14:29:18Z</time>
      </trkpt>
      <trkpt lat="42.123817" lon="1.033783">
        <ele>1914.0</ele>
        <time>2013-09-13T14:29:19Z</time>
      </trkpt>
      <trkpt lat="42.123817" lon="1.033717">
        <ele>1913.0</ele>
        <time>2013-09-13T14:29:20Z</time>
      </trkpt>
      <trkpt lat="42.123817" lon="1.033633">
        <ele>1912.0</ele>
        <time>2013-09-13T14:29:21Z</time>
      </trkpt>
      <trkpt lat="42.123833" lon="1.033550">
        <ele>1912.0</ele>
        <time>2013-09-13T14:29:22Z</time>
      </trkpt>
      <trkpt lat="42.123833" lon="1.033483">
        <ele>1912.0</ele>
        <time>2013-09-13T14:29:23Z</time>
      </trkpt>
      <trkpt lat="42.123850" lon="1.033417">
        <ele>1912.0</ele>
        <time>2013-09-13T14:29:24Z</time>
      </trkpt>
      <trkpt lat="42.123867" lon="1.033350">
        <ele>1912.0</ele>
        <time>2013-09-13T14:29:25Z</time>
      </trkpt>
      <trkpt lat="42.123883" lon="1.033283">
        <ele>1913.0</ele>
        <time>2013-09-13T14:29:26Z</time>
      </trkpt>
      <trkpt lat="42.123883" lon="1.033200">
        <ele>1912.0</ele>
        <time>2013-09-13T14:29:27Z</time>
      </trkpt>
      <trkpt lat="42.123900" lon="1.033133">
        <ele>1913.0</ele>
        <time>2013-09-13T14:29:28Z</time>
      </trkpt>
      <trkpt lat="42.123900" lon="1.033050">
        <ele>1913.0</ele>
        <time>2013-09-13T14:29:29Z</time>
      </trkpt>
      <trkpt lat="42.123917" lon="1.032967">
        <ele>1913.0</ele>
        <time>2013-09-13T14:29:30Z</time>
      </trkpt>
      <trkpt lat="42.123917" lon="1.032883">
        <ele>1913.0</ele>
        <time>2013-09-13T14:29:31Z</time>
      </trkpt>
      <trkpt lat="42.123917" lon="1.032800">
        <ele>1913.0</ele>
        <time>2013-09-13T14:29:32Z</time>
      </trkpt>
      <trkpt lat="42.123917" lon="1.032717">
        <ele>1914.0</ele>
        <time>2013-09-13T14:29:33Z</time>
      </trkpt>
      <trkpt lat="42.123917" lon="1.032650">
        <ele>1915.0</ele>
        <time>2013-09-13T14:29:34Z</time>
      </trkpt>
      <trkpt lat="42.123917" lon="1.032567">
        <ele>1916.0</ele>
        <time>2013-09-13T14:29:35Z</time>
      </trkpt>
      <trkpt lat="42.123900" lon="1.032517">
        <ele>1917.0</ele>
        <time>2013-09-13T14:29:36Z</time>
      </trkpt>
      <trkpt lat="42.123900" lon="1.032450">
        <ele>1918.0</ele>
        <time>2013-09-13T14:29:37Z</time>
      </trkpt>
      <trkpt lat="42.123883" lon="1.032400">
        <ele>1918.0</ele>
        <time>2013-09-13T14:29:38Z</time>
      </trkpt>
      <trkpt lat="42.123883" lon="1.032333">
        <ele>1917.0</ele>
        <time>2013-09-13T14:29:39Z</time>
      </trkpt>
      <trkpt lat="42.123900" lon="1.032250">
        <ele>1917.0</ele>
        <time>2013-09-13T14:29:40Z</time>
      </trkpt>
      <trkpt lat="42.123933" lon="1.032200">
        <ele>1917.0</ele>
        <time>2013-09-13T14:29:41Z</time>
      </trkpt>
      <trkpt lat="42.123983" lon="1.032150">
        <ele>1918.0</ele>
        <time>2013-09-13T14:29:42Z</time>
      </trkpt>
      <trkpt lat="42.124067" lon="1.032133">
        <ele>1917.0</ele>
        <time>2013-09-13T14:29:43Z</time>
      </trkpt>
      <trkpt lat="42.124150" lon="1.032150">
        <ele>1917.0</ele>
        <time>2013-09-13T14:29:44Z</time>
      </trkpt>
      <trkpt lat="42.124250" lon="1.032183">
        <ele>1917.0</ele>
        <time>2013-09-13T14:29:45Z</time>
      </trkpt>
      <trkpt lat="42.124317" lon="1.032250">
        <ele>1917.0</ele>
        <time>2013-09-13T14:29:46Z</time>
      </trkpt>
      <trkpt lat="42.124383" lon="1.032350">
        <ele>1918.0</ele>
        <time>2013-09-13T14:29:47Z</time>
      </trkpt>
      <trkpt lat="42.124433" lon="1.032483">
        <ele>1917.0</ele>
        <time>2013-09-13T14:29:48Z</time>
      </trkpt>
      <trkpt lat="42.124467" lon="1.032633">
        <ele>1916.0</ele>
        <time>2013-09-13T14:29:49Z</time>
      </trkpt>
      <trkpt lat="42.124467" lon="1.032783">
        <ele>1916.0</ele>
        <time>2013-09-13T14:29:50Z</time>
      </trkpt>
      <trkpt lat="42.124450" lon="1.032933">
        <ele>1916.0</ele>
        <time>2013-09-13T14:29:51Z</time>
      </trkpt>
      <trkpt lat="42.124417" lon="1.033067">
        <ele>1916.0</ele>
        <time>2013-09-13T14:29:52Z</time>
      </trkpt>
      <trkpt lat="42.124350" lon="1.033183">
        <ele>1916.0</ele>
        <time>2013-09-13T14:29:53Z</time>
      </trkpt>
      <trkpt lat="42.124283" lon="1.033283">
        <ele>1917.0</ele>
        <time>2013-09-13T14:29:54Z</time>
      </trkpt>
      <trkpt lat="42.124217" lon="1.033367">
        <ele>1917.0</ele>
        <time>2013-09-13T14:29:55Z</time>
      </trkpt>
      <trkpt lat="42.124133" lon="1.033417">
        <ele>1917.0</ele>
        <time>2013-09-13T14:29:56Z</time>
      </trkpt>
      <trkpt lat="42.124050" lon="1.033450">
        <ele>1917.0</ele>
        <time>2013-09-13T14:29:57Z</time>
      </trkpt>
      <trkpt lat="42.123967" lon="1.033450">
        <ele>1917.0</ele>
        <time>2013-09-13T14:29:58Z</time>
      </trkpt>
      <trkpt lat="42.123900" lon="1.033417">
        <ele>1917.0</ele>
        <time>2013-09-13T14:29:59Z</time>
      </trkpt>
      <trkpt lat="42.123850" lon="1.033383">
        <ele>1916.0</ele>
        <time>2013-09-13T14:30:00Z</time>
      </trkpt>
      <trkpt lat="42.123800" lon="1.033350">
        <ele>1917.0</ele>
        <time>2013-09-13T14:30:01Z</time>
      </trkpt>
      <trkpt lat="42.123783" lon="1.033317">
        <ele>1917.0</ele>
        <time>2013-09-13T14:30:02Z</time>
      </trkpt>
      <trkpt lat="42.123750" lon="1.033267">
        <ele>1917.0</ele>
        <time>2013-09-13T14:30:03Z</time>
      </trkpt>
      <trkpt lat="42.123733" lon="1.033200">
        <ele>1916.0</ele>
        <time>2013-09-13T14:30:04Z</time>
      </trkpt>
      <trkpt lat="42.123717" lon="1.033133">
        <ele>1915.0</ele>
        <time>2013-09-13T14:30:05Z</time>
      </trkpt>
      <trkpt lat="42.123700" lon="1.033067">
        <ele>1915.0</ele>
        <time>2013-09-13T14:30:06Z</time>
      </trkpt>
      <trkpt lat="42.123683" lon="1.033000">
        <ele>1915.0</ele>
        <time>2013-09-13T14:30:07Z</time>
      </trkpt>
      <trkpt lat="42.123667" lon="1.032933">
        <ele>1916.0</ele>
        <time>2013-09-13T14:30:08Z</time>
      </trkpt>
      <trkpt lat="42.123667" lon="1.032867">
        <ele>1917.0</ele>
        <time>2013-09-13T14:30:09Z</time>
      </trkpt>
      <trkpt lat="42.123667" lon="1.032800">
        <ele>1918.0</ele>
        <time>2013-09-13T14:30:10Z</time>
      </trkpt>
      <trkpt lat="42.123650" lon="1.032717">
        <ele>1919.0</ele>
        <time>2013-09-13T14:30:11Z</time>
      </trkpt>
      <trkpt lat="42.123650" lon="1.032633">
        <ele>1920.0</ele>
        <time>2013-09-13T14:30:12Z</time>
      </trkpt>
      <trkpt lat="42.123650" lon="1.032583">
        <ele>1923.0</ele>
        <time>2013-09-13T14:30:13Z</time>
      </trkpt>
      <trkpt lat="42.123650" lon="1.032517">
        <ele>1925.0</ele>
        <time>2013-09-13T14:30:14Z</time>
      </trkpt>
      <trkpt lat="42.123667" lon="1.032450">
        <ele>1928.0</ele>
        <time>2013-09-13T14:30:15Z</time>
      </trkpt>
      <trkpt lat="42.123700" lon="1.032400">
        <ele>1929.0</ele>
        <time>2013-09-13T14:30:16Z</time>
      </trkpt>
      <trkpt lat="42.123767" lon="1.032367">
        <ele>1930.0</ele>
        <time>2013-09-13T14:30:17Z</time>
      </trkpt>
      <trkpt lat="42.123867" lon="1.032350">
        <ele>1930.0</ele>
        <time>2013-09-13T14:30:18Z</time>
      </trkpt>
      <trkpt lat="42.123950" lon="1.032400">
        <ele>1931.0</ele>
        <time>2013-09-13T14:30:19Z</time>
      </trkpt>
      <trkpt lat="42.124033" lon="1.032483">
        <ele>1932.0</ele>
        <time>2013-09-13T14:30:20Z</time>
      </trkpt>
      <trkpt lat="42.124117" lon="1.032717">
        <ele>1936.0</ele>
        <time>2013-09-13T14:30:22Z</time>
      </trkpt>
      <trkpt lat="42.124150" lon="1.032850">
        <ele>1937.0</ele>
        <time>2013-09-13T14:30:23Z</time>
      </trkpt>
      <trkpt lat="42.124167" lon="1.033000">
        <ele>1938.0</ele>
        <time>2013-09-13T14:30:24Z</time>
      </trkpt>
      <trkpt lat="42.124167" lon="1.033150">
        <ele>1939.0</ele>
        <time>2013-09-13T14:30:25Z</time>
      </trkpt>
      <trkpt lat="42.124133" lon="1.033283">
        <ele>1940.0</ele>
        <time>2013-09-13T14:30:26Z</time>
      </trkpt>
      <trkpt lat="42.124083" lon="1.033417">
        <ele>1941.0</ele>
        <time>2013-09-13T14:30:27Z</time>
      </trkpt>
      <trkpt lat="42.124017" lon="1.033517">
        <ele>1941.0</ele>
        <time>2013-09-13T14:30:28Z</time>
      </trkpt>
      <trkpt lat="42.123933" lon="1.033583">
        <ele>1942.0</ele>
        <time>2013-09-13T14:30:29Z</time>
      </trkpt>
      <trkpt lat="42.123867" lon="1.033633">
        <ele>1942.0</ele>
        <time>2013-09-13T14:30:30Z</time>
      </trkpt>
      <trkpt lat="42.123783" lon="1.033650">
        <ele>1943.0</ele>
        <time>2013-09-13T14:30:31Z</time>
      </trkpt>
      <trkpt lat="42.123717" lon="1.033633">
        <ele>1943.0</ele>
        <time>2013-09-13T14:30:32Z</time>
      </trkpt>
      <trkpt lat="42.123650" lon="1.033600">
        <ele>1944.0</ele>
        <time>2013-09-13T14:30:33Z</time>
      </trkpt>
      <trkpt lat="42.123600" lon="1.033550">
        <ele>1945.0</ele>
        <time>2013-09-13T14:30:34Z</time>
      </trkpt>
      <trkpt lat="42.123567" lon="1.033500">
        <ele>1946.0</ele>
        <time>2013-09-13T14:30:35Z</time>
      </trkpt>
      <trkpt lat="42.123517" lon="1.033450">
        <ele>1948.0</ele>
        <time>2013-09-13T14:30:36Z</time>
      </trkpt>
      <trkpt lat="42.123483" lon="1.033400">
        <ele>1950.0</ele>
        <time>2013-09-13T14:30:37Z</time>
      </trkpt>
      <trkpt lat="42.123450" lon="1.033350">
        <ele>1952.0</ele>
        <time>2013-09-13T14:30:38Z</time>
      </trkpt>
      <trkpt lat="42.123417" lon="1.033300">
        <ele>1953.0</ele>
        <time>2013-09-13T14:30:39Z</time>
      </trkpt>
      <trkpt lat="42.123383" lon="1.033233">
        <ele>1954.0</ele>
        <time>2013-09-13T14:30:40Z</time>
      </trkpt>
      <trkpt lat="42.123383" lon="1.033167">
        <ele>1956.0</ele>
        <time>2013-09-13T14:30:41Z</time>
      </trkpt>
      <trkpt lat="42.123417" lon="1.033083">
        <ele>1957.0</ele>
        <time>2013-09-13T14:30:42Z</time>
      </trkpt>
      <trkpt lat="42.123483" lon="1.033050">
        <ele>1958.0</ele>
        <time>2013-09-13T14:30:43Z</time>
      </trkpt>
      <trkpt lat="42.123567" lon="1.033033">
        <ele>1959.0</ele>
        <time>2013-09-13T14:30:44Z</time>
      </trkpt>
      <trkpt lat="42.123667" lon="1.033050">
        <ele>1961.0</ele>
        <time>2013-09-13T14:30:45Z</time>
      </trkpt>
      <trkpt lat="42.123733" lon="1.033117">
        <ele>1963.0</ele>
        <time>2013-09-13T14:30:46Z</time>
      </trkpt>
      <trkpt lat="42.123800" lon="1.033183">
        <ele>1965.0</ele>
        <time>2013-09-13T14:30:47Z</time>
      </trkpt>
      <trkpt lat="42.123850" lon="1.033283">
        <ele>1966.0</ele>
        <time>2013-09-13T14:30:48Z</time>
      </trkpt>
      <trkpt lat="42.123900" lon="1.033400">
        <ele>1968.0</ele>
        <time>2013-09-13T14:30:49Z</time>
      </trkpt>
      <trkpt lat="42.123950" lon="1.033533">
        <ele>1968.0</ele>
        <time>2013-09-13T14:30:50Z</time>
      </trkpt>
      <trkpt lat="42.123967" lon="1.033683">
        <ele>1969.0</ele>
        <time>2013-09-13T14:30:51Z</time>
      </trkpt>
      <trkpt lat="42.123983" lon="1.033833">
        <ele>1970.0</ele>
        <time>2013-09-13T14:30:52Z</time>
      </trkpt>
      <trkpt lat="42.123967" lon="1.034000">
        <ele>1971.0</ele>
        <time>2013-09-13T14:30:53Z</time>
      </trkpt>
      <trkpt lat="42.123933" lon="1.034133">
        <ele>1972.0</ele>
        <time>2013-09-13T14:30:54Z</time>
      </trkpt>
      <trkpt lat="42.123883" lon="1.034267">
        <ele>1973.0</ele>
        <time>2013-09-13T14:30:55Z</time>
      </trkpt>
      <trkpt lat="42.123817" lon="1.034383">
        <ele>1974.0</ele>
        <time>2013-09-13T14:30:56Z</time>
      </trkpt>
      <trkpt lat="42.123750" lon="1.034467">
        <ele>1975.0</ele>
        <time>2013-09-13T14:30:57Z</time>
      </trkpt>
      <trkpt lat="42.123667" lon="1.034517">
        <ele>1975.0</ele>
        <time>2013-09-13T14:30:58Z</time>
      </trkpt>
      <trkpt lat="42.123567" lon="1.034533">
        <ele>1976.0</ele>
        <time>2013-09-13T14:30:59Z</time>
      </trkpt>
      <trkpt lat="42.123500" lon="1.034533">
        <ele>1977.0</ele>
        <time>2013-09-13T14:31:00Z</time>
      </trkpt>
      <trkpt lat="42.123450" lon="1.034500">
        <ele>1978.0</ele>
        <time>2013-09-13T14:31:01Z</time>
      </trkpt>
      <trkpt lat="42.123400" lon="1.034467">
        <ele>1980.0</ele>
        <time>2013-09-13T14:31:02Z</time>
      </trkpt>
      <trkpt lat="42.123367" lon="1.034417">
        <ele>1981.0</ele>
        <time>2013-09-13T14:31:03Z</time>
      </trkpt>
      <trkpt lat="42.123333" lon="1.034367">
        <ele>1982.0</ele>
        <time>2013-09-13T14:31:04Z</time>
      </trkpt>
      <trkpt lat="42.123300" lon="1.034300">
        <ele>1983.0</ele>
        <time>2013-09-13T14:31:05Z</time>
      </trkpt>
      <trkpt lat="42.123267" lon="1.034233">
        <ele>1984.0</ele>
        <time>2013-09-13T14:31:06Z</time>
      </trkpt>
      <trkpt lat="42.123250" lon="1.034183">
        <ele>1986.0</ele>
        <time>2013-09-13T14:31:07Z</time>
      </trkpt>
      <trkpt lat="42.123233" lon="1.034117">
        <ele>1987.0</ele>
        <time>2013-09-13T14:31:08Z</time>
      </trkpt>
      <trkpt lat="42.123217" lon="1.034050">
        <ele>1988.0</ele>
        <time>2013-09-13T14:31:09Z</time>
      </trkpt>
      <trkpt lat="42.123183" lon="1.033983">
        <ele>1989.0</ele>
        <time>2013-09-13T14:31:10Z</time>
      </trkpt>
      <trkpt lat="42.123167" lon="1.033900">
        <ele>1989.0</ele>
        <time>2013-09-13T14:31:11Z</time>
      </trkpt>
      <trkpt lat="42.123150" lon="1.033833">
        <ele>1990.0</ele>
        <time>2013-09-13T14:31:12Z</time>
      </trkpt>
      <trkpt lat="42.123133" lon="1.033750">
        <ele>1991.0</ele>
        <time>2013-09-13T14:31:13Z</time>
      </trkpt>
      <trkpt lat="42.123133" lon="1.033667">
        <ele>1992.0</ele>
        <time>2013-09-13T14:31:14Z</time>
      </trkpt>
      <trkpt lat="42.123133" lon="1.033583">
        <ele>1993.0</ele>
        <time>2013-09-13T14:31:15Z</time>
      </trkpt>
      <trkpt lat="42.123133" lon="1.033500">
        <ele>1994.0</ele>
        <time>2013-09-13T14:31:16Z</time>
      </trkpt>
      <trkpt lat="42.123133" lon="1.033417">
        <ele>1995.0</ele>
        <time>2013-09-13T14:31:17Z</time>
      </trkpt>
      <trkpt lat="42.123133" lon="1.033333">
        <ele>1997.0</ele>
        <time>2013-09-13T14:31:18Z</time>
      </trkpt>
      <trkpt lat="42.123133" lon="1.033250">
        <ele>1998.0</ele>
        <time>2013-09-13T14:31:19Z</time>
      </trkpt>
      <trkpt lat="42.123133" lon="1.033150">
        <ele>1998.0</ele>
        <time>2013-09-13T14:31:20Z</time>
      </trkpt>
      <trkpt lat="42.123150" lon="1.033067">
        <ele>1999.0</ele>
        <time>2013-09-13T14:31:21Z</time>
      </trkpt>
      <trkpt lat="42.123150" lon="1.032983">
        <ele>2000.0</ele>
        <time>2013-09-13T14:31:22Z</time>
      </trkpt>
      <trkpt lat="42.123167" lon="1.032917">
        <ele>2001.0</ele>
        <time>2013-09-13T14:31:23Z</time>
      </trkpt>
      <trkpt lat="42.123167" lon="1.032833">
        <ele>2003.0</ele>
        <time>2013-09-13T14:31:24Z</time>
      </trkpt>
      <trkpt lat="42.123200" lon="1.032783">
        <ele>2004.0</ele>
        <time>2013-09-13T14:31:25Z</time>
      </trkpt>
      <trkpt lat="42.123250" lon="1.032733">
        <ele>2005.0</ele>
        <time>2013-09-13T14:31:26Z</time>
      </trkpt>
      <trkpt lat="42.123317" lon="1.032717">
        <ele>2006.0</ele>
        <time>2013-09-13T14:31:27Z</time>
      </trkpt>
      <trkpt lat="42.123400" lon="1.032733">
        <ele>2006.0</ele>
        <time>2013-09-13T14:31:28Z</time>
      </trkpt>
      <trkpt lat="42.123467" lon="1.032783">
        <ele>2007.0</ele>
        <time>2013-09-13T14:31:29Z</time>
      </trkpt>
      <trkpt lat="42.123550" lon="1.032850">
        <ele>2007.0</ele>
        <time>2013-09-13T14:31:30Z</time>
      </trkpt>
      <trkpt lat="42.123600" lon="1.032950">
        <ele>2008.0</ele>
        <time>2013-09-13T14:31:31Z</time>
      </trkpt>
      <trkpt lat="42.123650" lon="1.033067">
        <ele>2009.0</ele>
        <time>2013-09-13T14:31:32Z</time>
      </trkpt>
      <trkpt lat="42.123683" lon="1.033200">
        <ele>2010.0</ele>
        <time>2013-09-13T14:31:33Z</time>
      </trkpt>
      <trkpt lat="42.123700" lon="1.033333">
        <ele>2011.0</ele>
        <time>2013-09-13T14:31:34Z</time>
      </trkpt>
      <trkpt lat="42.123683" lon="1.033467">
        <ele>2012.0</ele>
        <time>2013-09-13T14:31:35Z</time>
      </trkpt>
      <trkpt lat="42.123650" lon="1.033583">
        <ele>2013.0</ele>
        <time>2013-09-13T14:31:36Z</time>
      </trkpt>
      <trkpt lat="42.123600" lon="1.033700">
        <ele>2014.0</ele>
        <time>2013-09-13T14:31:37Z</time>
      </trkpt>
      <trkpt lat="42.123517" lon="1.033783">
        <ele>2014.0</ele>
        <time>2013-09-13T14:31:38Z</time>
      </trkpt>
      <trkpt lat="42.123450" lon="1.033833">
        <ele>2015.0</ele>
        <time>2013-09-13T14:31:39Z</time>
      </trkpt>
      <trkpt lat="42.123367" lon="1.033850">
        <ele>2015.0</ele>
        <time>2013-09-13T14:31:40Z</time>
      </trkpt>
      <trkpt lat="42.123300" lon="1.033833">
        <ele>2015.0</ele>
        <time>2013-09-13T14:31:41Z</time>
      </trkpt>
      <trkpt lat="42.123250" lon="1.033783">
        <ele>2015.0</ele>
        <time>2013-09-13T14:31:42Z</time>
      </trkpt>
      <trkpt lat="42.123200" lon="1.033733">
        <ele>2015.0</ele>
        <time>2013-09-13T14:31:43Z</time>
      </trkpt>
      <trkpt lat="42.123183" lon="1.033650">
        <ele>2014.0</ele>
        <time>2013-09-13T14:31:44Z</time>
      </trkpt>
      <trkpt lat="42.123167" lon="1.033567">
        <ele>2013.0</ele>
        <time>2013-09-13T14:31:45Z</time>
      </trkpt>
      <trkpt lat="42.123167" lon="1.033500">
        <ele>2013.0</ele>
        <time>2013-09-13T14:31:46Z</time>
      </trkpt>
      <trkpt lat="42.123150" lon="1.033417">
        <ele>2014.0</ele>
        <time>2013-09-13T14:31:47Z</time>
      </trkpt>
      <trkpt lat="42.123133" lon="1.033350">
        <ele>2014.0</ele>
        <time>2013-09-13T14:31:48Z</time>
      </trkpt>
      <trkpt lat="42.123117" lon="1.033283">
        <ele>2015.0</ele>
        <time>2013-09-13T14:31:49Z</time>
      </trkpt>
      <trkpt lat="42.123117" lon="1.033217">
        <ele>2015.0</ele>
        <time>2013-09-13T14:31:50Z</time>
      </trkpt>
      <trkpt lat="42.123117" lon="1.033133">
        <ele>2015.0</ele>
        <time>2013-09-13T14:31:51Z</time>
      </trkpt>
      <trkpt lat="42.123117" lon="1.033067">
        <ele>2016.0</ele>
        <time>2013-09-13T14:31:52Z</time>
      </trkpt>
      <trkpt lat="42.123117" lon="1.032983">
        <ele>2015.0</ele>
        <time>2013-09-13T14:31:53Z</time>
      </trkpt>
      <trkpt lat="42.123117" lon="1.032917">
        <ele>2015.0</ele>
        <time>2013-09-13T14:31:54Z</time>
      </trkpt>
      <trkpt lat="42.123133" lon="1.032833">
        <ele>2015.0</ele>
        <time>2013-09-13T14:31:55Z</time>
      </trkpt>
      <trkpt lat="42.123133" lon="1.032750">
        <ele>2014.0</ele>
        <time>2013-09-13T14:31:56Z</time>
      </trkpt>
      <trkpt lat="42.123150" lon="1.032667">
        <ele>2013.0</ele>
        <time>2013-09-13T14:31:57Z</time>
      </trkpt>
      <trkpt lat="42.123150" lon="1.032583">
        <ele>2012.0</ele>
        <time>2013-09-13T14:31:58Z</time>
      </trkpt>
      <trkpt lat="42.123133" lon="1.032500">
        <ele>2012.0</ele>
        <time>2013-09-13T14:31:59Z</time>
      </trkpt>
      <trkpt lat="42.123133" lon="1.032417">
        <ele>2012.0</ele>
        <time>2013-09-13T14:32:00Z</time>
      </trkpt>
      <trkpt lat="42.123133" lon="1.032333">
        <ele>2011.0</ele>
        <time>2013-09-13T14:32:01Z</time>
      </trkpt>
      <trkpt lat="42.123133" lon="1.032250">
        <ele>2011.0</ele>
        <time>2013-09-13T14:32:02Z</time>
      </trkpt>
      <trkpt lat="42.123150" lon="1.032183">
        <ele>2010.0</ele>
        <time>2013-09-13T14:32:03Z</time>
      </trkpt>
      <trkpt lat="42.123167" lon="1.032100">
        <ele>2009.0</ele>
        <time>2013-09-13T14:32:04Z</time>
      </trkpt>
      <trkpt lat="42.123217" lon="1.032033">
        <ele>2008.0</ele>
        <time>2013-09-13T14:32:05Z</time>
      </trkpt>
      <trkpt lat="42.123267" lon="1.031983">
        <ele>2008.0</ele>
        <time>2013-09-13T14:32:06Z</time>
      </trkpt>
      <trkpt lat="42.123333" lon="1.031967">
        <ele>2008.0</ele>
        <time>2013-09-13T14:32:07Z</time>
      </trkpt>
      <trkpt lat="42.123417" lon="1.031983">
        <ele>2008.0</ele>
        <time>2013-09-13T14:32:08Z</time>
      </trkpt>
      <trkpt lat="42.123483" lon="1.032033">
        <ele>2008.0</ele>
        <time>2013-09-13T14:32:09Z</time>
      </trkpt>
      <trkpt lat="42.123550" lon="1.032117">
        <ele>2009.0</ele>
        <time>2013-09-13T14:32:10Z</time>
      </trkpt>
      <trkpt lat="42.123600" lon="1.032200">
        <ele>2010.0</ele>
        <time>2013-09-13T14:32:11Z</time>
      </trkpt>
      <trkpt lat="42.123633" lon="1.032267">
        <ele>2011.0</ele>
        <time>2013-09-13T14:32:12Z</time>
      </trkpt>
      <trkpt lat="42.123700" lon="1.032483">
        <ele>2012.0</ele>
        <time>2013-09-13T14:32:14Z</time>
      </trkpt>
      <trkpt lat="42.123717" lon="1.032633">
        <ele>2012.0</ele>
        <time>2013-09-13T14:32:15Z</time>
      </trkpt>
      <trkpt lat="42.123700" lon="1.032783">
        <ele>2012.0</ele>
        <time>2013-09-13T14:32:16Z</time>
      </trkpt>
      <trkpt lat="42.123667" lon="1.032917">
        <ele>2012.0</ele>
        <time>2013-09-13T14:32:17Z</time>
      </trkpt>
      <trkpt lat="42.123600" lon="1.033033">
        <ele>2013.0</ele>
        <time>2013-09-13T14:32:18Z</time>
      </trkpt>
      <trkpt lat="42.123533" lon="1.033117">
        <ele>2015.0</ele>
        <time>2013-09-13T14:32:19Z</time>
      </trkpt>
      <trkpt lat="42.123450" lon="1.033200">
        <ele>2016.0</ele>
        <time>2013-09-13T14:32:20Z</time>
      </trkpt>
      <trkpt lat="42.123367" lon="1.033250">
        <ele>2018.0</ele>
        <time>2013-09-13T14:32:21Z</time>
      </trkpt>
      <trkpt lat="42.123267" lon="1.033283">
        <ele>2018.0</ele>
        <time>2013-09-13T14:32:22Z</time>
      </trkpt>
      <trkpt lat="42.123167" lon="1.033267">
        <ele>2019.0</ele>
        <time>2013-09-13T14:32:23Z</time>
      </trkpt>
      <trkpt lat="42.123083" lon="1.033233">
        <ele>2019.0</ele>
        <time>2013-09-13T14:32:24Z</time>
      </trkpt>
      <trkpt lat="42.123000" lon="1.033183">
        <ele>2020.0</ele>
        <time>2013-09-13T14:32:25Z</time>
      </trkpt>
      <trkpt lat="42.122950" lon="1.033133">
        <ele>2020.0</ele>
        <time>2013-09-13T14:32:26Z</time>
      </trkpt>
      <trkpt lat="42.122917" lon="1.033083">
        <ele>2021.0</ele>
        <time>2013-09-13T14:32:27Z</time>
      </trkpt>
      <trkpt lat="42.122883" lon="1.033017">
        <ele>2020.0</ele>
        <time>2013-09-13T14:32:28Z</time>
      </trkpt>
      <trkpt lat="42.122850" lon="1.032933">
        <ele>2018.0</ele>
        <time>2013-09-13T14:32:29Z</time>
      </trkpt>
      <trkpt lat="42.122833" lon="1.032850">
        <ele>2017.0</ele>
        <time>2013-09-13T14:32:30Z</time>
      </trkpt>
      <trkpt lat="42.122833" lon="1.032750">
        <ele>2015.0</ele>
        <time>2013-09-13T14:32:31Z</time>
      </trkpt>
      <trkpt lat="42.122833" lon="1.032650">
        <ele>2014.0</ele>
        <time>2013-09-13T14:32:32Z</time>
      </trkpt>
      <trkpt lat="42.122833" lon="1.032583">
        <ele>2013.0</ele>
        <time>2013-09-13T14:32:33Z</time>
      </trkpt>
      <trkpt lat="42.122867" lon="1.032417">
        <ele>2011.0</ele>
        <time>2013-09-13T14:32:35Z</time>
      </trkpt>
      <trkpt lat="42.122867" lon="1.032317">
        <ele>2010.0</ele>
        <time>2013-09-13T14:32:36Z</time>
      </trkpt>
      <trkpt lat="42.122867" lon="1.032217">
        <ele>2008.0</ele>
        <time>2013-09-13T14:32:37Z</time>
      </trkpt>
      <trkpt lat="42.122867" lon="1.032117">
        <ele>2007.0</ele>
        <time>2013-09-13T14:32:38Z</time>
      </trkpt>
      <trkpt lat="42.122850" lon="1.032033">
        <ele>2007.0</ele>
        <time>2013-09-13T14:32:39Z</time>
      </trkpt>
      <trkpt lat="42.122850" lon="1.031950">
        <ele>2006.0</ele>
        <time>2013-09-13T14:32:40Z</time>
      </trkpt>
      <trkpt lat="42.122833" lon="1.031850">
        <ele>2004.0</ele>
        <time>2013-09-13T14:32:41Z</time>
      </trkpt>
      <trkpt lat="42.122833" lon="1.031767">
        <ele>2003.0</ele>
        <time>2013-09-13T14:32:42Z</time>
      </trkpt>
      <trkpt lat="42.122833" lon="1.031667">
        <ele>2002.0</ele>
        <time>2013-09-13T14:32:43Z</time>
      </trkpt>
      <trkpt lat="42.122850" lon="1.031567">
        <ele>2001.0</ele>
        <time>2013-09-13T14:32:44Z</time>
      </trkpt>
      <trkpt lat="42.122867" lon="1.031483">
        <ele>2002.0</ele>
        <time>2013-09-13T14:32:45Z</time>
      </trkpt>
      <trkpt lat="42.122867" lon="1.031417">
        <ele>2002.0</ele>
        <time>2013-09-13T14:32:46Z</time>
      </trkpt>
      <trkpt lat="42.122900" lon="1.031267">
        <ele>2000.0</ele>
        <time>2013-09-13T14:32:48Z</time>
      </trkpt>
      <trkpt lat="42.122933" lon="1.031183">
        <ele>1999.0</ele>
        <time>2013-09-13T14:32:49Z</time>
      </trkpt>
      <trkpt lat="42.122950" lon="1.031083">
        <ele>1997.0</ele>
        <time>2013-09-13T14:32:50Z</time>
      </trkpt>
      <trkpt lat="42.122967" lon="1.031000">
        <ele>1995.0</ele>
        <time>2013-09-13T14:32:51Z</time>
      </trkpt>
      <trkpt lat="42.123000" lon="1.030917">
        <ele>1994.0</ele>
        <time>2013-09-13T14:32:52Z</time>
      </trkpt>
      <trkpt lat="42.123017" lon="1.030850">
        <ele>1994.0</ele>
        <time>2013-09-13T14:32:53Z</time>
      </trkpt>
      <trkpt lat="42.123017" lon="1.030800">
        <ele>1994.0</ele>
        <time>2013-09-13T14:32:54Z</time>
      </trkpt>
      <trkpt lat="42.123017" lon="1.030733">
        <ele>1993.0</ele>
        <time>2013-09-13T14:32:55Z</time>
      </trkpt>
      <trkpt lat="42.123033" lon="1.030667">
        <ele>1992.0</ele>
        <time>2013-09-13T14:32:56Z</time>
      </trkpt>
      <trkpt lat="42.123033" lon="1.030600">
        <ele>1991.0</ele>
        <time>2013-09-13T14:32:57Z</time>
      </trkpt>
      <trkpt lat="42.123033" lon="1.030533">
        <ele>1990.0</ele>
        <time>2013-09-13T14:32:58Z</time>
      </trkpt>
      <trkpt lat="42.123017" lon="1.030467">
        <ele>1989.0</ele>
        <time>2013-09-13T14:32:59Z</time>
      </trkpt>
      <trkpt lat="42.123017" lon="1.030333">
        <ele>1986.0</ele>
        <time>2013-09-13T14:33:01Z</time>
      </trkpt>
      <trkpt lat="42.123017" lon="1.030267">
        <ele>1984.0</ele>
        <time>2013-09-13T14:33:02Z</time>
      </trkpt>
      <trkpt lat="42.123033" lon="1.030200">
        <ele>1981.0</ele>
        <time>2013-09-13T14:33:03Z</time>
      </trkpt>
      <trkpt lat="42.123050" lon="1.030117">
        <ele>1979.0</ele>
        <time>2013-09-13T14:33:04Z</time>
      </trkpt>
      <trkpt lat="42.123067" lon="1.030050">
        <ele>1977.0</ele>
        <time>2013-09-13T14:33:05Z</time>
      </trkpt>
      <trkpt lat="42.123100" lon="1.029983">
        <ele>1975.0</ele>
        <time>2013-09-13T14:33:06Z</time>
      </trkpt>
      <trkpt lat="42.123117" lon="1.029900">
        <ele>1974.0</ele>
        <time>2013-09-13T14:33:07Z</time>
      </trkpt>
      <trkpt lat="42.123133" lon="1.029733">
        <ele>1971.0</ele>
        <time>2013-09-13T14:33:09Z</time>
      </trkpt>
      <trkpt lat="42.123133" lon="1.029667">
        <ele>1970.0</ele>
        <time>2013-09-13T14:33:10Z</time>
      </trkpt>
      <trkpt lat="42.123133" lon="1.029583">
        <ele>1969.0</ele>
        <time>2013-09-13T14:33:11Z</time>
      </trkpt>
      <trkpt lat="42.123117" lon="1.029517">
        <ele>1968.0</ele>
        <time>2013-09-13T14:33:12Z</time>
      </trkpt>
      <trkpt lat="42.123117" lon="1.029433">
        <ele>1966.0</ele>
        <time>2013-09-13T14:33:13Z</time>
      </trkpt>
      <trkpt lat="42.123117" lon="1.029350">
        <ele>1964.0</ele>
        <time>2013-09-13T14:33:14Z</time>
      </trkpt>
      <trkpt lat="42.123117" lon="1.029267">
        <ele>1962.0</ele>
        <time>2013-09-13T14:33:15Z</time>
      </trkpt>
      <trkpt lat="42.123117" lon="1.029183">
        <ele>1961.0</ele>
        <time>2013-09-13T14:33:16Z</time>
      </trkpt>
      <trkpt lat="42.123117" lon="1.029100">
        <ele>1960.0</ele>
        <time>2013-09-13T14:33:17Z</time>
      </trkpt>
      <trkpt lat="42.123117" lon="1.029017">
        <ele>1958.0</ele>
        <time>2013-09-13T14:33:18Z</time>
      </trkpt>
      <trkpt lat="42.123117" lon="1.028917">
        <ele>1957.0</ele>
        <time>2013-09-13T14:33:19Z</time>
      </trkpt>
      <trkpt lat="42.123133" lon="1.028833">
        <ele>1954.0</ele>
        <time>2013-09-13T14:33:20Z</time>
      </trkpt>
      <trkpt lat="42.123133" lon="1.028733">
        <ele>1952.0</ele>
        <time>2013-09-13T14:33:21Z</time>
      </trkpt>
      <trkpt lat="42.123117" lon="1.028650">
        <ele>1951.0</ele>
        <time>2013-09-13T14:33:22Z</time>
      </trkpt>
      <trkpt lat="42.123117" lon="1.028567">
        <ele>1949.0</ele>
        <time>2013-09-13T14:33:23Z</time>
      </trkpt>
      <trkpt lat="42.123100" lon="1.028467">
        <ele>1948.0</ele>
        <time>2013-09-13T14:33:24Z</time>
      </trkpt>
      <trkpt lat="42.123100" lon="1.028383">
        <ele>1946.0</ele>
        <time>2013-09-13T14:33:25Z</time>
      </trkpt>
      <trkpt lat="42.123100" lon="1.028283">
        <ele>1945.0</ele>
        <time>2013-09-13T14:33:26Z</time>
      </trkpt>
      <trkpt lat="42.123100" lon="1.028183">
        <ele>1943.0</ele>
        <time>2013-09-13T14:33:27Z</time>
      </trkpt>
      <trkpt lat="42.123100" lon="1.028100">
        <ele>1941.0</ele>
        <time>2013-09-13T14:33:28Z</time>
      </trkpt>
      <trkpt lat="42.123100" lon="1.027983">
        <ele>1939.0</ele>
        <time>2013-09-13T14:33:29Z</time>
      </trkpt>
      <trkpt lat="42.123100" lon="1.027883">
        <ele>1937.0</ele>
        <time>2013-09-13T14:33:30Z</time>
      </trkpt>
      <trkpt lat="42.123117" lon="1.027800">
        <ele>1936.0</ele>
        <time>2013-09-13T14:33:31Z</time>
      </trkpt>
      <trkpt lat="42.123117" lon="1.027717">
        <ele>1936.0</ele>
        <time>2013-09-13T14:33:32Z</time>
      </trkpt>
      <trkpt lat="42.123117" lon="1.027633">
        <ele>1935.0</ele>
        <time>2013-09-13T14:33:33Z</time>
      </trkpt>
      <trkpt lat="42.123117" lon="1.027567">
        <ele>1933.0</ele>
        <time>2013-09-13T14:33:34Z</time>
      </trkpt>
      <trkpt lat="42.123100" lon="1.027483">
        <ele>1932.0</ele>
        <time>2013-09-13T14:33:35Z</time>
      </trkpt>
      <trkpt lat="42.123100" lon="1.027300">
        <ele>1929.0</ele>
        <time>2013-09-13T14:33:37Z</time>
      </trkpt>
      <trkpt lat="42.123083" lon="1.027150">
        <ele>1929.0</ele>
        <time>2013-09-13T14:33:39Z</time>
      </trkpt>
      <trkpt lat="42.123083" lon="1.027083">
        <ele>1929.0</ele>
        <time>2013-09-13T14:33:40Z</time>
      </trkpt>
      <trkpt lat="42.123067" lon="1.027000">
        <ele>1929.0</ele>
        <time>2013-09-13T14:33:41Z</time>
      </trkpt>
      <trkpt lat="42.123067" lon="1.026917">
        <ele>1929.0</ele>
        <time>2013-09-13T14:33:42Z</time>
      </trkpt>
      <trkpt lat="42.123067" lon="1.026833">
        <ele>1929.0</ele>
        <time>2013-09-13T14:33:43Z</time>
      </trkpt>
      <trkpt lat="42.123067" lon="1.026750">
        <ele>1929.0</ele>
        <time>2013-09-13T14:33:44Z</time>
      </trkpt>
      <trkpt lat="42.123083" lon="1.026650">
        <ele>1929.0</ele>
        <time>2013-09-13T14:33:45Z</time>
      </trkpt>
      <trkpt lat="42.123083" lon="1.026550">
        <ele>1929.0</ele>
        <time>2013-09-13T14:33:46Z</time>
      </trkpt>
      <trkpt lat="42.123083" lon="1.026467">
        <ele>1929.0</ele>
        <time>2013-09-13T14:33:47Z</time>
      </trkpt>
      <trkpt lat="42.123083" lon="1.026250">
        <ele>1933.0</ele>
        <time>2013-09-13T14:33:50Z</time>
      </trkpt>
      <trkpt lat="42.123083" lon="1.026200">
        <ele>1934.0</ele>
        <time>2013-09-13T14:33:51Z</time>
      </trkpt>
      <trkpt lat="42.123083" lon="1.026117">
        <ele>1934.0</ele>
        <time>2013-09-13T14:33:52Z</time>
      </trkpt>
      <trkpt lat="42.123083" lon="1.026017">
        <ele>1934.0</ele>
        <time>2013-09-13T14:33:53Z</time>
      </trkpt>
      <trkpt lat="42.123083" lon="1.025933">
        <ele>1934.0</ele>
        <time>2013-09-13T14:33:54Z</time>
      </trkpt>
      <trkpt lat="42.123083" lon="1.025850">
        <ele>1935.0</ele>
        <time>2013-09-13T14:33:55Z</time>
      </trkpt>
      <trkpt lat="42.123083" lon="1.025783">
        <ele>1937.0</ele>
        <time>2013-09-13T14:33:56Z</time>
      </trkpt>
      <trkpt lat="42.123083" lon="1.025717">
        <ele>1937.0</ele>
        <time>2013-09-13T14:33:57Z</time>
      </trkpt>
      <trkpt lat="42.123083" lon="1.025633">
        <ele>1937.0</ele>
        <time>2013-09-13T14:33:58Z</time>
      </trkpt>
      <trkpt lat="42.123083" lon="1.025550">
        <ele>1936.0</ele>
        <time>2013-09-13T14:33:59Z</time>
      </trkpt>
      <trkpt lat="42.123083" lon="1.025450">
        <ele>1936.0</ele>
        <time>2013-09-13T14:34:00Z</time>
      </trkpt>
      <trkpt lat="42.123083" lon="1.025350">
        <ele>1936.0</ele>
        <time>2013-09-13T14:34:01Z</time>
      </trkpt>
      <trkpt lat="42.123083" lon="1.025267">
        <ele>1937.0</ele>
        <time>2013-09-13T14:34:02Z</time>
      </trkpt>
      <trkpt lat="42.123083" lon="1.025183">
        <ele>1939.0</ele>
        <time>2013-09-13T14:34:03Z</time>
      </trkpt>
      <trkpt lat="42.123083" lon="1.025100">
        <ele>1940.0</ele>
        <time>2013-09-13T14:34:04Z</time>
      </trkpt>
      <trkpt lat="42.123083" lon="1.025017">
        <ele>1940.0</ele>
        <time>2013-09-13T14:34:05Z</time>
      </trkpt>
      <trkpt lat="42.123100" lon="1.024933">
        <ele>1941.0</ele>
        <time>2013-09-13T14:34:06Z</time>
      </trkpt>
      <trkpt lat="42.123133" lon="1.024850">
        <ele>1943.0</ele>
        <time>2013-09-13T14:34:07Z</time>
      </trkpt>
      <trkpt lat="42.123167" lon="1.024817">
        <ele>1945.0</ele>
        <time>2013-09-13T14:34:08Z</time>
      </trkpt>
      <trkpt lat="42.123233" lon="1.024783">
        <ele>1945.0</ele>
        <time>2013-09-13T14:34:09Z</time>
      </trkpt>
      <trkpt lat="42.123333" lon="1.024767">
        <ele>1945.0</ele>
        <time>2013-09-13T14:34:10Z</time>
      </trkpt>
      <trkpt lat="42.123417" lon="1.024783">
        <ele>1946.0</ele>
        <time>2013-09-13T14:34:11Z</time>
      </trkpt>
      <trkpt lat="42.123500" lon="1.024850">
        <ele>1947.0</ele>
        <time>2013-09-13T14:34:12Z</time>
      </trkpt>
      <trkpt lat="42.123567" lon="1.024917">
        <ele>1948.0</ele>
        <time>2013-09-13T14:34:13Z</time>
      </trkpt>
      <trkpt lat="42.123617" lon="1.025033">
        <ele>1948.0</ele>
        <time>2013-09-13T14:34:14Z</time>
      </trkpt>
      <trkpt lat="42.123667" lon="1.025167">
        <ele>1947.0</ele>
        <time>2013-09-13T14:34:15Z</time>
      </trkpt>
      <trkpt lat="42.123700" lon="1.025300">
        <ele>1947.0</ele>
        <time>2013-09-13T14:34:16Z</time>
      </trkpt>
      <trkpt lat="42.123717" lon="1.025567">
        <ele>1949.0</ele>
        <time>2013-09-13T14:34:18Z</time>
      </trkpt>
      <trkpt lat="42.123683" lon="1.025700">
        <ele>1949.0</ele>
        <time>2013-09-13T14:34:19Z</time>
      </trkpt>
      <trkpt lat="42.123633" lon="1.025800">
        <ele>1950.0</ele>
        <time>2013-09-13T14:34:20Z</time>
      </trkpt>
      <trkpt lat="42.123567" lon="1.025867">
        <ele>1951.0</ele>
        <time>2013-09-13T14:34:21Z</time>
      </trkpt>
      <trkpt lat="42.123400" lon="1.025883">
        <ele>1952.0</ele>
        <time>2013-09-13T14:34:23Z</time>
      </trkpt>
      <trkpt lat="42.123350" lon="1.025850">
        <ele>1953.0</ele>
        <time>2013-09-13T14:34:24Z</time>
      </trkpt>
      <trkpt lat="42.123300" lon="1.025783">
        <ele>1954.0</ele>
        <time>2013-09-13T14:34:25Z</time>
      </trkpt>
      <trkpt lat="42.123267" lon="1.025717">
        <ele>1955.0</ele>
        <time>2013-09-13T14:34:26Z</time>
      </trkpt>
      <trkpt lat="42.123250" lon="1.025633">
        <ele>1955.0</ele>
        <time>2013-09-13T14:34:27Z</time>
      </trkpt>
      <trkpt lat="42.123233" lon="1.025550">
        <ele>1956.0</ele>
        <time>2013-09-13T14:34:28Z</time>
      </trkpt>
      <trkpt lat="42.123217" lon="1.025450">
        <ele>1956.0</ele>
        <time>2013-09-13T14:34:29Z</time>
      </trkpt>
      <trkpt lat="42.123217" lon="1.025367">
        <ele>1956.0</ele>
        <time>2013-09-13T14:34:30Z</time>
      </trkpt>
      <trkpt lat="42.123200" lon="1.025283">
        <ele>1957.0</ele>
        <time>2013-09-13T14:34:31Z</time>
      </trkpt>
      <trkpt lat="42.123183" lon="1.025217">
        <ele>1958.0</ele>
        <time>2013-09-13T14:34:32Z</time>
      </trkpt>
      <trkpt lat="42.123150" lon="1.025133">
        <ele>1959.0</ele>
        <time>2013-09-13T14:34:33Z</time>
      </trkpt>
      <trkpt lat="42.123133" lon="1.025067">
        <ele>1959.0</ele>
        <time>2013-09-13T14:34:34Z</time>
      </trkpt>
      <trkpt lat="42.123117" lon="1.024983">
        <ele>1960.0</ele>
        <time>2013-09-13T14:34:35Z</time>
      </trkpt>
      <trkpt lat="42.123100" lon="1.024900">
        <ele>1960.0</ele>
        <time>2013-09-13T14:34:36Z</time>
      </trkpt>
      <trkpt lat="42.123067" lon="1.024800">
        <ele>1960.0</ele>
        <time>2013-09-13T14:34:37Z</time>
      </trkpt>
      <trkpt lat="42.123050" lon="1.024700">
        <ele>1960.0</ele>
        <time>2013-09-13T14:34:38Z</time>
      </trkpt>
      <trkpt lat="42.123033" lon="1.024633">
        <ele>1960.0</ele>
        <time>2013-09-13T14:34:39Z</time>
      </trkpt>
      <trkpt lat="42.123017" lon="1.024550">
        <ele>1960.0</ele>
        <time>2013-09-13T14:34:40Z</time>
      </trkpt>
      <trkpt lat="42.123000" lon="1.024467">
        <ele>1958.0</ele>
        <time>2013-09-13T14:34:41Z</time>
      </trkpt>
      <trkpt lat="42.123000" lon="1.024350">
        <ele>1955.0</ele>
        <time>2013-09-13T14:34:42Z</time>
      </trkpt>
      <trkpt lat="42.123000" lon="1.024233">
        <ele>1954.0</ele>
        <time>2013-09-13T14:34:43Z</time>
      </trkpt>
      <trkpt lat="42.123033" lon="1.024150">
        <ele>1954.0</ele>
        <time>2013-09-13T14:34:44Z</time>
      </trkpt>
      <trkpt lat="42.123083" lon="1.024050">
        <ele>1953.0</ele>
        <time>2013-09-13T14:34:45Z</time>
      </trkpt>
      <trkpt lat="42.123133" lon="1.023983">
        <ele>1953.0</ele>
        <time>2013-09-13T14:34:46Z</time>
      </trkpt>
      <trkpt lat="42.123183" lon="1.023900">
        <ele>1952.0</ele>
        <time>2013-09-13T14:34:47Z</time>
      </trkpt>
      <trkpt lat="42.123233" lon="1.023817">
        <ele>1952.0</ele>
        <time>2013-09-13T14:34:48Z</time>
      </trkpt>
      <trkpt lat="42.123283" lon="1.023750">
        <ele>1951.0</ele>
        <time>2013-09-13T14:34:49Z</time>
      </trkpt>
      <trkpt lat="42.123333" lon="1.023683">
        <ele>1951.0</ele>
        <time>2013-09-13T14:34:50Z</time>
      </trkpt>
      <trkpt lat="42.123400" lon="1.023617">
        <ele>1949.0</ele>
        <time>2013-09-13T14:34:51Z</time>
      </trkpt>
      <trkpt lat="42.123467" lon="1.023550">
        <ele>1948.0</ele>
        <time>2013-09-13T14:34:52Z</time>
      </trkpt>
      <trkpt lat="42.123550" lon="1.023500">
        <ele>1946.0</ele>
        <time>2013-09-13T14:34:53Z</time>
      </trkpt>
      <trkpt lat="42.123617" lon="1.023467">
        <ele>1945.0</ele>
        <time>2013-09-13T14:34:54Z</time>
      </trkpt>
      <trkpt lat="42.123700" lon="1.023417">
        <ele>1943.0</ele>
        <time>2013-09-13T14:34:55Z</time>
      </trkpt>
      <trkpt lat="42.123783" lon="1.023383">
        <ele>1941.0</ele>
        <time>2013-09-13T14:34:56Z</time>
      </trkpt>
      <trkpt lat="42.123850" lon="1.023350">
        <ele>1938.0</ele>
        <time>2013-09-13T14:34:57Z</time>
      </trkpt>
      <trkpt lat="42.123950" lon="1.023333">
        <ele>1935.0</ele>
        <time>2013-09-13T14:34:58Z</time>
      </trkpt>
      <trkpt lat="42.124033" lon="1.023367">
        <ele>1933.0</ele>
        <time>2013-09-13T14:34:59Z</time>
      </trkpt>
      <trkpt lat="42.124117" lon="1.023417">
        <ele>1930.0</ele>
        <time>2013-09-13T14:35:00Z</time>
      </trkpt>
      <trkpt lat="42.124200" lon="1.023500">
        <ele>1928.0</ele>
        <time>2013-09-13T14:35:01Z</time>
      </trkpt>
      <trkpt lat="42.124350" lon="1.023650">
        <ele>1927.0</ele>
        <time>2013-09-13T14:35:03Z</time>
      </trkpt>
      <trkpt lat="42.124417" lon="1.023717">
        <ele>1929.0</ele>
        <time>2013-09-13T14:35:04Z</time>
      </trkpt>
      <trkpt lat="42.124483" lon="1.023783">
        <ele>1930.0</ele>
        <time>2013-09-13T14:35:05Z</time>
      </trkpt>
      <trkpt lat="42.124550" lon="1.023867">
        <ele>1931.0</ele>
        <time>2013-09-13T14:35:06Z</time>
      </trkpt>
      <trkpt lat="42.124600" lon="1.023967">
        <ele>1931.0</ele>
        <time>2013-09-13T14:35:07Z</time>
      </trkpt>
      <trkpt lat="42.124650" lon="1.024083">
        <ele>1932.0</ele>
        <time>2013-09-13T14:35:08Z</time>
      </trkpt>
      <trkpt lat="42.124683" lon="1.024200">
        <ele>1933.0</ele>
        <time>2013-09-13T14:35:09Z</time>
      </trkpt>
      <trkpt lat="42.124717" lon="1.024300">
        <ele>1935.0</ele>
        <time>2013-09-13T14:35:10Z</time>
      </trkpt>
      <trkpt lat="42.124717" lon="1.024417">
        <ele>1936.0</ele>
        <time>2013-09-13T14:35:11Z</time>
      </trkpt>
      <trkpt lat="42.124683" lon="1.024517">
        <ele>1937.0</ele>
        <time>2013-09-13T14:35:12Z</time>
      </trkpt>
      <trkpt lat="42.124583" lon="1.024700">
        <ele>1939.0</ele>
        <time>2013-09-13T14:35:14Z</time>
      </trkpt>
      <trkpt lat="42.124517" lon="1.024733">
        <ele>1941.0</ele>
        <time>2013-09-13T14:35:15Z</time>
      </trkpt>
      <trkpt lat="42.124467" lon="1.024717">
        <ele>1943.0</ele>
        <time>2013-09-13T14:35:16Z</time>
      </trkpt>
      <trkpt lat="42.124417" lon="1.024667">
        <ele>1945.0</ele>
        <time>2013-09-13T14:35:17Z</time>
      </trkpt>
      <trkpt lat="42.124383" lon="1.024600">
        <ele>1947.0</ele>
        <time>2013-09-13T14:35:18Z</time>
      </trkpt>
      <trkpt lat="42.124367" lon="1.024517">
        <ele>1948.0</ele>
        <time>2013-09-13T14:35:19Z</time>
      </trkpt>
      <trkpt lat="42.124367" lon="1.024433">
        <ele>1948.0</ele>
        <time>2013-09-13T14:35:20Z</time>
      </trkpt>
      <trkpt lat="42.124367" lon="1.024333">
        <ele>1949.0</ele>
        <time>2013-09-13T14:35:21Z</time>
      </trkpt>
      <trkpt lat="42.124400" lon="1.024233">
        <ele>1950.0</ele>
        <time>2013-09-13T14:35:22Z</time>
      </trkpt>
      <trkpt lat="42.124450" lon="1.024167">
        <ele>1951.0</ele>
        <time>2013-09-13T14:35:23Z</time>
      </trkpt>
      <trkpt lat="42.124517" lon="1.024100">
        <ele>1952.0</ele>
        <time>2013-09-13T14:35:24Z</time>
      </trkpt>
      <trkpt lat="42.124600" lon="1.024067">
        <ele>1951.0</ele>
        <time>2013-09-13T14:35:25Z</time>
      </trkpt>
      <trkpt lat="42.124683" lon="1.024050">
        <ele>1951.0</ele>
        <time>2013-09-13T14:35:26Z</time>
      </trkpt>
      <trkpt lat="42.124783" lon="1.024067">
        <ele>1951.0</ele>
        <time>2013-09-13T14:35:27Z</time>
      </trkpt>
      <trkpt lat="42.124867" lon="1.024133">
        <ele>1951.0</ele>
        <time>2013-09-13T14:35:28Z</time>
      </trkpt>
      <trkpt lat="42.124950" lon="1.024200">
        <ele>1951.0</ele>
        <time>2013-09-13T14:35:29Z</time>
      </trkpt>
      <trkpt lat="42.125017" lon="1.024283">
        <ele>1952.0</ele>
        <time>2013-09-13T14:35:30Z</time>
      </trkpt>
      <trkpt lat="42.125067" lon="1.024367">
        <ele>1954.0</ele>
        <time>2013-09-13T14:35:31Z</time>
      </trkpt>
      <trkpt lat="42.125117" lon="1.024583">
        <ele>1956.0</ele>
        <time>2013-09-13T14:35:33Z</time>
      </trkpt>
      <trkpt lat="42.125100" lon="1.024700">
        <ele>1956.0</ele>
        <time>2013-09-13T14:35:34Z</time>
      </trkpt>
      <trkpt lat="42.125050" lon="1.024800">
        <ele>1956.0</ele>
        <time>2013-09-13T14:35:35Z</time>
      </trkpt>
      <trkpt lat="42.124983" lon="1.024883">
        <ele>1957.0</ele>
        <time>2013-09-13T14:35:36Z</time>
      </trkpt>
      <trkpt lat="42.124917" lon="1.024933">
        <ele>1958.0</ele>
        <time>2013-09-13T14:35:37Z</time>
      </trkpt>
      <trkpt lat="42.124867" lon="1.024950">
        <ele>1960.0</ele>
        <time>2013-09-13T14:35:38Z</time>
      </trkpt>
      <trkpt lat="42.124800" lon="1.024967">
        <ele>1962.0</ele>
        <time>2013-09-13T14:35:39Z</time>
      </trkpt>
      <trkpt lat="42.124733" lon="1.024967">
        <ele>1963.0</ele>
        <time>2013-09-13T14:35:40Z</time>
      </trkpt>
      <trkpt lat="42.124667" lon="1.024950">
        <ele>1964.0</ele>
        <time>2013-09-13T14:35:41Z</time>
      </trkpt>
      <trkpt lat="42.124600" lon="1.024900">
        <ele>1966.0</ele>
        <time>2013-09-13T14:35:42Z</time>
      </trkpt>
      <trkpt lat="42.124567" lon="1.024833">
        <ele>1968.0</ele>
        <time>2013-09-13T14:35:43Z</time>
      </trkpt>
      <trkpt lat="42.124550" lon="1.024767">
        <ele>1969.0</ele>
        <time>2013-09-13T14:35:44Z</time>
      </trkpt>
      <trkpt lat="42.124517" lon="1.024700">
        <ele>1970.0</ele>
        <time>2013-09-13T14:35:45Z</time>
      </trkpt>
      <trkpt lat="42.124500" lon="1.024600">
        <ele>1970.0</ele>
        <time>2013-09-13T14:35:46Z</time>
      </trkpt>
      <trkpt lat="42.124500" lon="1.024500">
        <ele>1969.0</ele>
        <time>2013-09-13T14:35:47Z</time>
      </trkpt>
      <trkpt lat="42.124517" lon="1.024383">
        <ele>1968.0</ele>
        <time>2013-09-13T14:35:48Z</time>
      </trkpt>
      <trkpt lat="42.124550" lon="1.024267">
        <ele>1967.0</ele>
        <time>2013-09-13T14:35:49Z</time>
      </trkpt>
      <trkpt lat="42.124583" lon="1.024200">
        <ele>1966.0</ele>
        <time>2013-09-13T14:35:50Z</time>
      </trkpt>
      <trkpt lat="42.124600" lon="1.024117">
        <ele>1966.0</ele>
        <time>2013-09-13T14:35:51Z</time>
      </trkpt>
      <trkpt lat="42.124617" lon="1.024033">
        <ele>1965.0</ele>
        <time>2013-09-13T14:35:52Z</time>
      </trkpt>
      <trkpt lat="42.124633" lon="1.023933">
        <ele>1963.0</ele>
        <time>2013-09-13T14:35:53Z</time>
      </trkpt>
      <trkpt lat="42.124650" lon="1.023800">
        <ele>1959.0</ele>
        <time>2013-09-13T14:35:54Z</time>
      </trkpt>
      <trkpt lat="42.124667" lon="1.023683">
        <ele>1956.0</ele>
        <time>2013-09-13T14:35:55Z</time>
      </trkpt>
      <trkpt lat="42.124700" lon="1.023567">
        <ele>1954.0</ele>
        <time>2013-09-13T14:35:56Z</time>
      </trkpt>
      <trkpt lat="42.124733" lon="1.023483">
        <ele>1953.0</ele>
        <time>2013-09-13T14:35:57Z</time>
      </trkpt>
      <trkpt lat="42.124750" lon="1.023383">
        <ele>1952.0</ele>
        <time>2013-09-13T14:35:58Z</time>
      </trkpt>
      <trkpt lat="42.124783" lon="1.023300">
        <ele>1949.0</ele>
        <time>2013-09-13T14:35:59Z</time>
      </trkpt>
      <trkpt lat="42.124800" lon="1.023183">
        <ele>1946.0</ele>
        <time>2013-09-13T14:36:00Z</time>
      </trkpt>
      <trkpt lat="42.124833" lon="1.023067">
        <ele>1943.0</ele>
        <time>2013-09-13T14:36:01Z</time>
      </trkpt>
      <trkpt lat="42.124867" lon="1.022950">
        <ele>1941.0</ele>
        <time>2013-09-13T14:36:02Z</time>
      </trkpt>
      <trkpt lat="42.124900" lon="1.022850">
        <ele>1939.0</ele>
        <time>2013-09-13T14:36:03Z</time>
      </trkpt>
      <trkpt lat="42.124917" lon="1.022750">
        <ele>1938.0</ele>
        <time>2013-09-13T14:36:04Z</time>
      </trkpt>
      <trkpt lat="42.124917" lon="1.022667">
        <ele>1937.0</ele>
        <time>2013-09-13T14:36:05Z</time>
      </trkpt>
      <trkpt lat="42.124933" lon="1.022550">
        <ele>1934.0</ele>
        <time>2013-09-13T14:36:06Z</time>
      </trkpt>
      <trkpt lat="42.124967" lon="1.022450">
        <ele>1931.0</ele>
        <time>2013-09-13T14:36:07Z</time>
      </trkpt>
      <trkpt lat="42.124983" lon="1.022350">
        <ele>1929.0</ele>
        <time>2013-09-13T14:36:08Z</time>
      </trkpt>
      <trkpt lat="42.125017" lon="1.022250">
        <ele>1927.0</ele>
        <time>2013-09-13T14:36:09Z</time>
      </trkpt>
      <trkpt lat="42.125033" lon="1.022150">
        <ele>1925.0</ele>
        <time>2013-09-13T14:36:10Z</time>
      </trkpt>
      <trkpt lat="42.125067" lon="1.022050">
        <ele>1922.0</ele>
        <time>2013-09-13T14:36:11Z</time>
      </trkpt>
      <trkpt lat="42.125067" lon="1.021950">
        <ele>1920.0</ele>
        <time>2013-09-13T14:36:12Z</time>
      </trkpt>
      <trkpt lat="42.125083" lon="1.021833">
        <ele>1918.0</ele>
        <time>2013-09-13T14:36:13Z</time>
      </trkpt>
      <trkpt lat="42.125100" lon="1.021733">
        <ele>1915.0</ele>
        <time>2013-09-13T14:36:14Z</time>
      </trkpt>
      <trkpt lat="42.125100" lon="1.021617">
        <ele>1914.0</ele>
        <time>2013-09-13T14:36:15Z</time>
      </trkpt>
      <trkpt lat="42.125100" lon="1.021517">
        <ele>1912.0</ele>
        <time>2013-09-13T14:36:16Z</time>
      </trkpt>
      <trkpt lat="42.125100" lon="1.021433">
        <ele>1911.0</ele>
        <time>2013-09-13T14:36:17Z</time>
      </trkpt>
      <trkpt lat="42.125100" lon="1.021333">
        <ele>1909.0</ele>
        <time>2013-09-13T14:36:18Z</time>
      </trkpt>
      <trkpt lat="42.125083" lon="1.021233">
        <ele>1908.0</ele>
        <time>2013-09-13T14:36:19Z</time>
      </trkpt>
      <trkpt lat="42.125067" lon="1.021133">
        <ele>1906.0</ele>
        <time>2013-09-13T14:36:20Z</time>
      </trkpt>
      <trkpt lat="42.125050" lon="1.021033">
        <ele>1904.0</ele>
        <time>2013-09-13T14:36:21Z</time>
      </trkpt>
      <trkpt lat="42.125050" lon="1.020917">
        <ele>1903.0</ele>
        <time>2013-09-13T14:36:22Z</time>
      </trkpt>
      <trkpt lat="42.125050" lon="1.020817">
        <ele>1901.0</ele>
        <time>2013-09-13T14:36:23Z</time>
      </trkpt>
      <trkpt lat="42.125050" lon="1.020717">
        <ele>1900.0</ele>
        <time>2013-09-13T14:36:24Z</time>
      </trkpt>
      <trkpt lat="42.125033" lon="1.020600">
        <ele>1898.0</ele>
        <time>2013-09-13T14:36:25Z</time>
      </trkpt>
      <trkpt lat="42.125033" lon="1.020500">
        <ele>1896.0</ele>
        <time>2013-09-13T14:36:26Z</time>
      </trkpt>
      <trkpt lat="42.125017" lon="1.020400">
        <ele>1895.0</ele>
        <time>2013-09-13T14:36:27Z</time>
      </trkpt>
      <trkpt lat="42.125017" lon="1.020283">
        <ele>1893.0</ele>
        <time>2013-09-13T14:36:28Z</time>
      </trkpt>
      <trkpt lat="42.125017" lon="1.020183">
        <ele>1892.0</ele>
        <time>2013-09-13T14:36:29Z</time>
      </trkpt>
      <trkpt lat="42.125000" lon="1.020067">
        <ele>1891.0</ele>
        <time>2013-09-13T14:36:30Z</time>
      </trkpt>
      <trkpt lat="42.125000" lon="1.019950">
        <ele>1889.0</ele>
        <time>2013-09-13T14:36:31Z</time>
      </trkpt>
      <trkpt lat="42.125000" lon="1.019850">
        <ele>1888.0</ele>
        <time>2013-09-13T14:36:32Z</time>
      </trkpt>
      <trkpt lat="42.125000" lon="1.019750">
        <ele>1886.0</ele>
        <time>2013-09-13T14:36:33Z</time>
      </trkpt>
      <trkpt lat="42.124983" lon="1.019650">
        <ele>1885.0</ele>
        <time>2013-09-13T14:36:34Z</time>
      </trkpt>
      <trkpt lat="42.124967" lon="1.019533">
        <ele>1883.0</ele>
        <time>2013-09-13T14:36:35Z</time>
      </trkpt>
      <trkpt lat="42.124950" lon="1.019433">
        <ele>1881.0</ele>
        <time>2013-09-13T14:36:36Z</time>
      </trkpt>
      <trkpt lat="42.124933" lon="1.019317">
        <ele>1878.0</ele>
        <time>2013-09-13T14:36:37Z</time>
      </trkpt>
      <trkpt lat="42.124933" lon="1.019217">
        <ele>1875.0</ele>
        <time>2013-09-13T14:36:38Z</time>
      </trkpt>
      <trkpt lat="42.124933" lon="1.019100">
        <ele>1873.0</ele>
        <time>2013-09-13T14:36:39Z</time>
      </trkpt>
      <trkpt lat="42.124933" lon="1.018983">
        <ele>1871.0</ele>
        <time>2013-09-13T14:36:40Z</time>
      </trkpt>
      <trkpt lat="42.124933" lon="1.018867">
        <ele>1869.0</ele>
        <time>2013-09-13T14:36:41Z</time>
      </trkpt>
      <trkpt lat="42.124950" lon="1.018750">
        <ele>1866.0</ele>
        <time>2013-09-13T14:36:42Z</time>
      </trkpt>
      <trkpt lat="42.124950" lon="1.018617">
        <ele>1863.0</ele>
        <time>2013-09-13T14:36:43Z</time>
      </trkpt>
      <trkpt lat="42.124967" lon="1.018483">
        <ele>1860.0</ele>
        <time>2013-09-13T14:36:44Z</time>
      </trkpt>
      <trkpt lat="42.124967" lon="1.018367">
        <ele>1858.0</ele>
        <time>2013-09-13T14:36:45Z</time>
      </trkpt>
      <trkpt lat="42.124967" lon="1.018233">
        <ele>1856.0</ele>
        <time>2013-09-13T14:36:46Z</time>
      </trkpt>
      <trkpt lat="42.124983" lon="1.018100">
        <ele>1854.0</ele>
        <time>2013-09-13T14:36:47Z</time>
      </trkpt>
      <trkpt lat="42.125000" lon="1.017967">
        <ele>1851.0</ele>
        <time>2013-09-13T14:36:48Z</time>
      </trkpt>
      <trkpt lat="42.125000" lon="1.017833">
        <ele>1849.0</ele>
        <time>2013-09-13T14:36:49Z</time>
      </trkpt>
      <trkpt lat="42.125017" lon="1.017717">
        <ele>1847.0</ele>
        <time>2013-09-13T14:36:50Z</time>
      </trkpt>
      <trkpt lat="42.125033" lon="1.017583">
        <ele>1845.0</ele>
        <time>2013-09-13T14:36:51Z</time>
      </trkpt>
      <trkpt lat="42.125033" lon="1.017450">
        <ele>1843.0</ele>
        <time>2013-09-13T14:36:52Z</time>
      </trkpt>
      <trkpt lat="42.125050" lon="1.017317">
        <ele>1842.0</ele>
        <time>2013-09-13T14:36:53Z</time>
      </trkpt>
      <trkpt lat="42.125067" lon="1.017200">
        <ele>1840.0</ele>
        <time>2013-09-13T14:36:54Z</time>
      </trkpt>
      <trkpt lat="42.125100" lon="1.017067">
        <ele>1838.0</ele>
        <time>2013-09-13T14:36:55Z</time>
      </trkpt>
      <trkpt lat="42.125117" lon="1.016933">
        <ele>1836.0</ele>
        <time>2013-09-13T14:36:56Z</time>
      </trkpt>
      <trkpt lat="42.125133" lon="1.016817">
        <ele>1834.0</ele>
        <time>2013-09-13T14:36:57Z</time>
      </trkpt>
      <trkpt lat="42.125167" lon="1.016700">
        <ele>1833.0</ele>
        <time>2013-09-13T14:36:58Z</time>
      </trkpt>
      <trkpt lat="42.125200" lon="1.016583">
        <ele>1833.0</ele>
        <time>2013-09-13T14:36:59Z</time>
      </trkpt>
      <trkpt lat="42.125233" lon="1.016467">
        <ele>1833.0</ele>
        <time>2013-09-13T14:37:00Z</time>
      </trkpt>
      <trkpt lat="42.125267" lon="1.016350">
        <ele>1833.0</ele>
        <time>2013-09-13T14:37:01Z</time>
      </trkpt>
      <trkpt lat="42.125300" lon="1.016217">
        <ele>1832.0</ele>
        <time>2013-09-13T14:37:02Z</time>
      </trkpt>
      <trkpt lat="42.125333" lon="1.016083">
        <ele>1831.0</ele>
        <time>2013-09-13T14:37:03Z</time>
      </trkpt>
      <trkpt lat="42.125367" lon="1.015933">
        <ele>1830.0</ele>
        <time>2013-09-13T14:37:04Z</time>
      </trkpt>
      <trkpt lat="42.125383" lon="1.015800">
        <ele>1830.0</ele>
        <time>2013-09-13T14:37:05Z</time>
      </trkpt>
      <trkpt lat="42.125417" lon="1.015683">
        <ele>1831.0</ele>
        <time>2013-09-13T14:37:06Z</time>
      </trkpt>
      <trkpt lat="42.125450" lon="1.015567">
        <ele>1831.0</ele>
        <time>2013-09-13T14:37:07Z</time>
      </trkpt>
      <trkpt lat="42.125483" lon="1.015450">
        <ele>1832.0</ele>
        <time>2013-09-13T14:37:08Z</time>
      </trkpt>
      <trkpt lat="42.125517" lon="1.015333">
        <ele>1832.0</ele>
        <time>2013-09-13T14:37:09Z</time>
      </trkpt>
      <trkpt lat="42.125550" lon="1.015233">
        <ele>1832.0</ele>
        <time>2013-09-13T14:37:10Z</time>
      </trkpt>
      <trkpt lat="42.125600" lon="1.015117">
        <ele>1832.0</ele>
        <time>2013-09-13T14:37:11Z</time>
      </trkpt>
      <trkpt lat="42.125650" lon="1.015000">
        <ele>1832.0</ele>
        <time>2013-09-13T14:37:12Z</time>
      </trkpt>
      <trkpt lat="42.125700" lon="1.014883">
        <ele>1832.0</ele>
        <time>2013-09-13T14:37:13Z</time>
      </trkpt>
      <trkpt lat="42.125750" lon="1.014767">
        <ele>1832.0</ele>
        <time>2013-09-13T14:37:14Z</time>
      </trkpt>
      <trkpt lat="42.125800" lon="1.014633">
        <ele>1831.0</ele>
        <time>2013-09-13T14:37:15Z</time>
      </trkpt>
      <trkpt lat="42.125867" lon="1.014517">
        <ele>1830.0</ele>
        <time>2013-09-13T14:37:16Z</time>
      </trkpt>
      <trkpt lat="42.125917" lon="1.014400">
        <ele>1830.0</ele>
        <time>2013-09-13T14:37:17Z</time>
      </trkpt>
      <trkpt lat="42.125950" lon="1.014267">
        <ele>1830.0</ele>
        <time>2013-09-13T14:37:18Z</time>
      </trkpt>
      <trkpt lat="42.126000" lon="1.014150">
        <ele>1830.0</ele>
        <time>2013-09-13T14:37:19Z</time>
      </trkpt>
      <trkpt lat="42.126033" lon="1.014050">
        <ele>1830.0</ele>
        <time>2013-09-13T14:37:20Z</time>
      </trkpt>
      <trkpt lat="42.126067" lon="1.013917">
        <ele>1830.0</ele>
        <time>2013-09-13T14:37:21Z</time>
      </trkpt>
      <trkpt lat="42.126100" lon="1.013800">
        <ele>1829.0</ele>
        <time>2013-09-13T14:37:22Z</time>
      </trkpt>
      <trkpt lat="42.126117" lon="1.013683">
        <ele>1829.0</ele>
        <time>2013-09-13T14:37:23Z</time>
      </trkpt>
      <trkpt lat="42.126150" lon="1.013550">
        <ele>1829.0</ele>
        <time>2013-09-13T14:37:24Z</time>
      </trkpt>
      <trkpt lat="42.126150" lon="1.013433">
        <ele>1829.0</ele>
        <time>2013-09-13T14:37:25Z</time>
      </trkpt>
      <trkpt lat="42.126167" lon="1.013317">
        <ele>1829.0</ele>
        <time>2013-09-13T14:37:26Z</time>
      </trkpt>
      <trkpt lat="42.126183" lon="1.013183">
        <ele>1828.0</ele>
        <time>2013-09-13T14:37:27Z</time>
      </trkpt>
      <trkpt lat="42.126200" lon="1.013050">
        <ele>1827.0</ele>
        <time>2013-09-13T14:37:28Z</time>
      </trkpt>
      <trkpt lat="42.126200" lon="1.012933">
        <ele>1827.0</ele>
        <time>2013-09-13T14:37:29Z</time>
      </trkpt>
      <trkpt lat="42.126200" lon="1.012800">
        <ele>1826.0</ele>
        <time>2013-09-13T14:37:30Z</time>
      </trkpt>
      <trkpt lat="42.126200" lon="1.012683">
        <ele>1825.0</ele>
        <time>2013-09-13T14:37:31Z</time>
      </trkpt>
      <trkpt lat="42.126200" lon="1.012550">
        <ele>1824.0</ele>
        <time>2013-09-13T14:37:32Z</time>
      </trkpt>
      <trkpt lat="42.126200" lon="1.012417">
        <ele>1822.0</ele>
        <time>2013-09-13T14:37:33Z</time>
      </trkpt>
      <trkpt lat="42.126200" lon="1.012283">
        <ele>1820.0</ele>
        <time>2013-09-13T14:37:34Z</time>
      </trkpt>
      <trkpt lat="42.126183" lon="1.012150">
        <ele>1818.0</ele>
        <time>2013-09-13T14:37:35Z</time>
      </trkpt>
      <trkpt lat="42.126167" lon="1.012033">
        <ele>1816.0</ele>
        <time>2013-09-13T14:37:36Z</time>
      </trkpt>
      <trkpt lat="42.126150" lon="1.011917">
        <ele>1813.0</ele>
        <time>2013-09-13T14:37:37Z</time>
      </trkpt>
      <trkpt lat="42.126133" lon="1.011783">
        <ele>1811.0</ele>
        <time>2013-09-13T14:37:38Z</time>
      </trkpt>
      <trkpt lat="42.126117" lon="1.011650">
        <ele>1809.0</ele>
        <time>2013-09-13T14:37:39Z</time>
      </trkpt>
      <trkpt lat="42.126117" lon="1.011533">
        <ele>1808.0</ele>
        <time>2013-09-13T14:37:40Z</time>
      </trkpt>
      <trkpt lat="42.126117" lon="1.011433">
        <ele>1807.0</ele>
        <time>2013-09-13T14:37:41Z</time>
      </trkpt>
      <trkpt lat="42.126100" lon="1.011333">
        <ele>1806.0</ele>
        <time>2013-09-13T14:37:42Z</time>
      </trkpt>
      <trkpt lat="42.126083" lon="1.011217">
        <ele>1803.0</ele>
        <time>2013-09-13T14:37:43Z</time>
      </trkpt>
      <trkpt lat="42.126067" lon="1.011100">
        <ele>1801.0</ele>
        <time>2013-09-13T14:37:44Z</time>
      </trkpt>
      <trkpt lat="42.126050" lon="1.010950">
        <ele>1798.0</ele>
        <time>2013-09-13T14:37:45Z</time>
      </trkpt>
      <trkpt lat="42.126033" lon="1.010833">
        <ele>1796.0</ele>
        <time>2013-09-13T14:37:46Z</time>
      </trkpt>
      <trkpt lat="42.126000" lon="1.010717">
        <ele>1795.0</ele>
        <time>2013-09-13T14:37:47Z</time>
      </trkpt>
      <trkpt lat="42.125967" lon="1.010617">
        <ele>1793.0</ele>
        <time>2013-09-13T14:37:48Z</time>
      </trkpt>
      <trkpt lat="42.125933" lon="1.010500">
        <ele>1792.0</ele>
        <time>2013-09-13T14:37:49Z</time>
      </trkpt>
      <trkpt lat="42.125900" lon="1.010400">
        <ele>1790.0</ele>
        <time>2013-09-13T14:37:50Z</time>
      </trkpt>
      <trkpt lat="42.125883" lon="1.010283">
        <ele>1789.0</ele>
        <time>2013-09-13T14:37:51Z</time>
      </trkpt>
      <trkpt lat="42.125850" lon="1.010150">
        <ele>1786.0</ele>
        <time>2013-09-13T14:37:52Z</time>
      </trkpt>
      <trkpt lat="42.125833" lon="1.010033">
        <ele>1784.0</ele>
        <time>2013-09-13T14:37:53Z</time>
      </trkpt>
      <trkpt lat="42.125800" lon="1.009917">
        <ele>1782.0</ele>
        <time>2013-09-13T14:37:54Z</time>
      </trkpt>
      <trkpt lat="42.125767" lon="1.009817">
        <ele>1780.0</ele>
        <time>2013-09-13T14:37:55Z</time>
      </trkpt>
      <trkpt lat="42.125733" lon="1.009717">
        <ele>1778.0</ele>
        <time>2013-09-13T14:37:56Z</time>
      </trkpt>
      <trkpt lat="42.125700" lon="1.009600">
        <ele>1775.0</ele>
        <time>2013-09-13T14:37:57Z</time>
      </trkpt>
      <trkpt lat="42.125667" lon="1.009483">
        <ele>1772.0</ele>
        <time>2013-09-13T14:37:58Z</time>
      </trkpt>
      <trkpt lat="42.125617" lon="1.009367">
        <ele>1770.0</ele>
        <time>2013-09-13T14:37:59Z</time>
      </trkpt>
      <trkpt lat="42.125567" lon="1.009267">
        <ele>1767.0</ele>
        <time>2013-09-13T14:38:00Z</time>
      </trkpt>
      <trkpt lat="42.125517" lon="1.009167">
        <ele>1765.0</ele>
        <time>2013-09-13T14:38:01Z</time>
      </trkpt>
      <trkpt lat="42.125483" lon="1.009050">
        <ele>1762.0</ele>
        <time>2013-09-13T14:38:02Z</time>
      </trkpt>
      <trkpt lat="42.125450" lon="1.008950">
        <ele>1760.0</ele>
        <time>2013-09-13T14:38:03Z</time>
      </trkpt>
      <trkpt lat="42.125417" lon="1.008850">
        <ele>1757.0</ele>
        <time>2013-09-13T14:38:04Z</time>
      </trkpt>
      <trkpt lat="42.125383" lon="1.008733">
        <ele>1755.0</ele>
        <time>2013-09-13T14:38:05Z</time>
      </trkpt>
      <trkpt lat="42.125333" lon="1.008633">
        <ele>1752.0</ele>
        <time>2013-09-13T14:38:06Z</time>
      </trkpt>
      <trkpt lat="42.125300" lon="1.008517">
        <ele>1750.0</ele>
        <time>2013-09-13T14:38:07Z</time>
      </trkpt>
      <trkpt lat="42.125283" lon="1.008400">
        <ele>1747.0</ele>
        <time>2013-09-13T14:38:08Z</time>
      </trkpt>
      <trkpt lat="42.125250" lon="1.008283">
        <ele>1745.0</ele>
        <time>2013-09-13T14:38:09Z</time>
      </trkpt>
      <trkpt lat="42.125233" lon="1.008167">
        <ele>1742.0</ele>
        <time>2013-09-13T14:38:10Z</time>
      </trkpt>
      <trkpt lat="42.125200" lon="1.008050">
        <ele>1739.0</ele>
        <time>2013-09-13T14:38:11Z</time>
      </trkpt>
      <trkpt lat="42.125183" lon="1.007933">
        <ele>1737.0</ele>
        <time>2013-09-13T14:38:12Z</time>
      </trkpt>
      <trkpt lat="42.125150" lon="1.007817">
        <ele>1734.0</ele>
        <time>2013-09-13T14:38:13Z</time>
      </trkpt>
      <trkpt lat="42.125133" lon="1.007700">
        <ele>1731.0</ele>
        <time>2013-09-13T14:38:14Z</time>
      </trkpt>
      <trkpt lat="42.125117" lon="1.007583">
        <ele>1728.0</ele>
        <time>2013-09-13T14:38:15Z</time>
      </trkpt>
      <trkpt lat="42.125083" lon="1.007467">
        <ele>1724.0</ele>
        <time>2013-09-13T14:38:16Z</time>
      </trkpt>
      <trkpt lat="42.125050" lon="1.007350">
        <ele>1722.0</ele>
        <time>2013-09-13T14:38:17Z</time>
      </trkpt>
      <trkpt lat="42.125033" lon="1.007233">
        <ele>1721.0</ele>
        <time>2013-09-13T14:38:18Z</time>
      </trkpt>
      <trkpt lat="42.125017" lon="1.007133">
        <ele>1718.0</ele>
        <time>2013-09-13T14:38:19Z</time>
      </trkpt>
      <trkpt lat="42.124983" lon="1.007017">
        <ele>1715.0</ele>
        <time>2013-09-13T14:38:20Z</time>
      </trkpt>
      <trkpt lat="42.124950" lon="1.006883">
        <ele>1712.0</ele>
        <time>2013-09-13T14:38:21Z</time>
      </trkpt>
      <trkpt lat="42.124917" lon="1.006750">
        <ele>1709.0</ele>
        <time>2013-09-13T14:38:22Z</time>
      </trkpt>
      <trkpt lat="42.124883" lon="1.006617">
        <ele>1706.0</ele>
        <time>2013-09-13T14:38:23Z</time>
      </trkpt>
      <trkpt lat="42.124867" lon="1.006500">
        <ele>1704.0</ele>
        <time>2013-09-13T14:38:24Z</time>
      </trkpt>
      <trkpt lat="42.124833" lon="1.006383">
        <ele>1703.0</ele>
        <time>2013-09-13T14:38:25Z</time>
      </trkpt>
      <trkpt lat="42.124800" lon="1.006283">
        <ele>1702.0</ele>
        <time>2013-09-13T14:38:26Z</time>
      </trkpt>
      <trkpt lat="42.124767" lon="1.006167">
        <ele>1700.0</ele>
        <time>2013-09-13T14:38:27Z</time>
      </trkpt>
      <trkpt lat="42.124717" lon="1.006050">
        <ele>1697.0</ele>
        <time>2013-09-13T14:38:28Z</time>
      </trkpt>
      <trkpt lat="42.124700" lon="1.005917">
        <ele>1695.0</ele>
        <time>2013-09-13T14:38:29Z</time>
      </trkpt>
      <trkpt lat="42.124667" lon="1.005800">
        <ele>1692.0</ele>
        <time>2013-09-13T14:38:30Z</time>
      </trkpt>
      <trkpt lat="42.124617" lon="1.005683">
        <ele>1690.0</ele>
        <time>2013-09-13T14:38:31Z</time>
      </trkpt>
      <trkpt lat="42.124583" lon="1.005567">
        <ele>1688.0</ele>
        <time>2013-09-13T14:38:32Z</time>
      </trkpt>
      <trkpt lat="42.124533" lon="1.005450">
        <ele>1686.0</ele>
        <time>2013-09-13T14:38:33Z</time>
      </trkpt>
      <trkpt lat="42.124483" lon="1.005333">
        <ele>1684.0</ele>
        <time>2013-09-13T14:38:34Z</time>
      </trkpt>
      <trkpt lat="42.124467" lon="1.005200">
        <ele>1682.0</ele>
        <time>2013-09-13T14:38:35Z</time>
      </trkpt>
      <trkpt lat="42.124433" lon="1.005067">
        <ele>1680.0</ele>
        <time>2013-09-13T14:38:36Z</time>
      </trkpt>
      <trkpt lat="42.124417" lon="1.004950">
        <ele>1678.0</ele>
        <time>2013-09-13T14:38:37Z</time>
      </trkpt>
      <trkpt lat="42.124383" lon="1.004833">
        <ele>1677.0</ele>
        <time>2013-09-13T14:38:38Z</time>
      </trkpt>
      <trkpt lat="42.124350" lon="1.004700">
        <ele>1675.0</ele>
        <time>2013-09-13T14:38:39Z</time>
      </trkpt>
      <trkpt lat="42.124317" lon="1.004583">
        <ele>1673.0</ele>
        <time>2013-09-13T14:38:40Z</time>
      </trkpt>
      <trkpt lat="42.124267" lon="1.004450">
        <ele>1671.0</ele>
        <time>2013-09-13T14:38:41Z</time>
      </trkpt>
      <trkpt lat="42.124233" lon="1.004317">
        <ele>1669.0</ele>
        <time>2013-09-13T14:38:42Z</time>
      </trkpt>
      <trkpt lat="42.124200" lon="1.004183">
        <ele>1668.0</ele>
        <time>2013-09-13T14:38:43Z</time>
      </trkpt>
      <trkpt lat="42.124167" lon="1.004067">
        <ele>1669.0</ele>
        <time>2013-09-13T14:38:44Z</time>
      </trkpt>
      <trkpt lat="42.124133" lon="1.003950">
        <ele>1668.0</ele>
        <time>2013-09-13T14:38:45Z</time>
      </trkpt>
      <trkpt lat="42.124100" lon="1.003833">
        <ele>1668.0</ele>
        <time>2013-09-13T14:38:46Z</time>
      </trkpt>
      <trkpt lat="42.124067" lon="1.003733">
        <ele>1667.0</ele>
        <time>2013-09-13T14:38:47Z</time>
      </trkpt>
      <trkpt lat="42.124033" lon="1.003617">
        <ele>1666.0</ele>
        <time>2013-09-13T14:38:48Z</time>
      </trkpt>
      <trkpt lat="42.124000" lon="1.003500">
        <ele>1664.0</ele>
        <time>2013-09-13T14:38:49Z</time>
      </trkpt>
      <trkpt lat="42.123967" lon="1.003367">
        <ele>1662.0</ele>
        <time>2013-09-13T14:38:50Z</time>
      </trkpt>
      <trkpt lat="42.123933" lon="1.003267">
        <ele>1661.0</ele>
        <time>2013-09-13T14:38:51Z</time>
      </trkpt>
      <trkpt lat="42.123917" lon="1.003150">
        <ele>1661.0</ele>
        <time>2013-09-13T14:38:52Z</time>
      </trkpt>
      <trkpt lat="42.123883" lon="1.003033">
        <ele>1660.0</ele>
        <time>2013-09-13T14:38:53Z</time>
      </trkpt>
      <trkpt lat="42.123850" lon="1.002933">
        <ele>1659.0</ele>
        <time>2013-09-13T14:38:54Z</time>
      </trkpt>
      <trkpt lat="42.123833" lon="1.002817">
        <ele>1658.0</ele>
        <time>2013-09-13T14:38:55Z</time>
      </trkpt>
      <trkpt lat="42.123800" lon="1.002683">
        <ele>1656.0</ele>
        <time>2013-09-13T14:38:56Z</time>
      </trkpt>
      <trkpt lat="42.123767" lon="1.002567">
        <ele>1655.0</ele>
        <time>2013-09-13T14:38:57Z</time>
      </trkpt>
      <trkpt lat="42.123733" lon="1.002467">
        <ele>1654.0</ele>
        <time>2013-09-13T14:38:58Z</time>
      </trkpt>
      <trkpt lat="42.123700" lon="1.002350">
        <ele>1653.0</ele>
        <time>2013-09-13T14:38:59Z</time>
      </trkpt>
      <trkpt lat="42.123683" lon="1.002250">
        <ele>1652.0</ele>
        <time>2013-09-13T14:39:00Z</time>
      </trkpt>
      <trkpt lat="42.123650" lon="1.002150">
        <ele>1651.0</ele>
        <time>2013-09-13T14:39:01Z</time>
      </trkpt>
      <trkpt lat="42.123617" lon="1.002033">
        <ele>1650.0</ele>
        <time>2013-09-13T14:39:02Z</time>
      </trkpt>
      <trkpt lat="42.123583" lon="1.001933">
        <ele>1648.0</ele>
        <time>2013-09-13T14:39:03Z</time>
      </trkpt>
      <trkpt lat="42.123550" lon="1.001833">
        <ele>1647.0</ele>
        <time>2013-09-13T14:39:04Z</time>
      </trkpt>
      <trkpt lat="42.123500" lon="1.001733">
        <ele>1646.0</ele>
        <time>2013-09-13T14:39:05Z</time>
      </trkpt>
      <trkpt lat="42.123483" lon="1.001633">
        <ele>1645.0</ele>
        <time>2013-09-13T14:39:06Z</time>
      </trkpt>
      <trkpt lat="42.123483" lon="1.001533">
        <ele>1644.0</ele>
        <time>2013-09-13T14:39:07Z</time>
      </trkpt>
      <trkpt lat="42.123467" lon="1.001433">
        <ele>1643.0</ele>
        <time>2013-09-13T14:39:08Z</time>
      </trkpt>
      <trkpt lat="42.123450" lon="1.001333">
        <ele>1642.0</ele>
        <time>2013-09-13T14:39:09Z</time>
      </trkpt>
      <trkpt lat="42.123433" lon="1.001233">
        <ele>1641.0</ele>
        <time>2013-09-13T14:39:10Z</time>
      </trkpt>
      <trkpt lat="42.123417" lon="1.001117">
        <ele>1639.0</ele>
        <time>2013-09-13T14:39:11Z</time>
      </trkpt>
      <trkpt lat="42.123417" lon="1.001017">
        <ele>1638.0</ele>
        <time>2013-09-13T14:39:12Z</time>
      </trkpt>
      <trkpt lat="42.123400" lon="1.000917">
        <ele>1637.0</ele>
        <time>2013-09-13T14:39:13Z</time>
      </trkpt>
      <trkpt lat="42.123383" lon="1.000817">
        <ele>1636.0</ele>
        <time>2013-09-13T14:39:14Z</time>
      </trkpt>
      <trkpt lat="42.123367" lon="1.000717">
        <ele>1635.0</ele>
        <time>2013-09-13T14:39:15Z</time>
      </trkpt>
      <trkpt lat="42.123350" lon="1.000600">
        <ele>1633.0</ele>
        <time>2013-09-13T14:39:16Z</time>
      </trkpt>
      <trkpt lat="42.123317" lon="1.000500">
        <ele>1632.0</ele>
        <time>2013-09-13T14:39:17Z</time>
      </trkpt>
      <trkpt lat="42.123300" lon="1.000383">
        <ele>1630.0</ele>
        <time>2013-09-13T14:39:18Z</time>
      </trkpt>
      <trkpt lat="42.123283" lon="1.000283">
        <ele>1629.0</ele>
        <time>2013-09-13T14:39:19Z</time>
      </trkpt>
      <trkpt lat="42.123267" lon="1.000183">
        <ele>1629.0</ele>
        <time>2013-09-13T14:39:20Z</time>
      </trkpt>
      <trkpt lat="42.123233" lon="1.000100">
        <ele>1628.0</ele>
        <time>2013-09-13T14:39:21Z</time>
      </trkpt>
      <trkpt lat="42.123200" lon="1.000000">
        <ele>1627.0</ele>
        <time>2013-09-13T14:39:22Z</time>
      </trkpt>
      <trkpt lat="42.123183" lon="0.999900">
        <ele>1625.0</ele>
        <time>2013-09-13T14:39:23Z</time>
      </trkpt>
      <trkpt lat="42.123167" lon="0.999783">
        <ele>1622.0</ele>
        <time>2013-09-13T14:39:24Z</time>
      </trkpt>
      <trkpt lat="42.123133" lon="0.999667">
        <ele>1620.0</ele>
        <time>2013-09-13T14:39:25Z</time>
      </trkpt>
      <trkpt lat="42.123117" lon="0.999567">
        <ele>1619.0</ele>
        <time>2013-09-13T14:39:26Z</time>
      </trkpt>
      <trkpt lat="42.123083" lon="0.999450">
        <ele>1618.0</ele>
        <time>2013-09-13T14:39:27Z</time>
      </trkpt>
      <trkpt lat="42.123067" lon="0.999350">
        <ele>1617.0</ele>
        <time>2013-09-13T14:39:28Z</time>
      </trkpt>
      <trkpt lat="42.123050" lon="0.999233">
        <ele>1615.0</ele>
        <time>2013-09-13T14:39:29Z</time>
      </trkpt>
      <trkpt lat="42.123033" lon="0.999133">
        <ele>1613.0</ele>
        <time>2013-09-13T14:39:30Z</time>
      </trkpt>
      <trkpt lat="42.123017" lon="0.999017">
        <ele>1612.0</ele>
        <time>2013-09-13T14:39:31Z</time>
      </trkpt>
      <trkpt lat="42.123000" lon="0.998900">
        <ele>1611.0</ele>
        <time>2013-09-13T14:39:32Z</time>
      </trkpt>
      <trkpt lat="42.123000" lon="0.998800">
        <ele>1610.0</ele>
        <time>2013-09-13T14:39:33Z</time>
      </trkpt>
      <trkpt lat="42.122983" lon="0.998700">
        <ele>1608.0</ele>
        <time>2013-09-13T14:39:34Z</time>
      </trkpt>
      <trkpt lat="42.122967" lon="0.998583">
        <ele>1607.0</ele>
        <time>2013-09-13T14:39:35Z</time>
      </trkpt>
      <trkpt lat="42.122950" lon="0.998467">
        <ele>1606.0</ele>
        <time>2013-09-13T14:39:36Z</time>
      </trkpt>
      <trkpt lat="42.122933" lon="0.998367">
        <ele>1604.0</ele>
        <time>2013-09-13T14:39:37Z</time>
      </trkpt>
      <trkpt lat="42.122917" lon="0.998267">
        <ele>1603.0</ele>
        <time>2013-09-13T14:39:38Z</time>
      </trkpt>
      <trkpt lat="42.122900" lon="0.998150">
        <ele>1601.0</ele>
        <time>2013-09-13T14:39:39Z</time>
      </trkpt>
      <trkpt lat="42.122900" lon="0.998033">
        <ele>1599.0</ele>
        <time>2013-09-13T14:39:40Z</time>
      </trkpt>
      <trkpt lat="42.122883" lon="0.997917">
        <ele>1597.0</ele>
        <time>2013-09-13T14:39:41Z</time>
      </trkpt>
      <trkpt lat="42.122883" lon="0.997800">
        <ele>1596.0</ele>
        <time>2013-09-13T14:39:42Z</time>
      </trkpt>
      <trkpt lat="42.122867" lon="0.997700">
        <ele>1595.0</ele>
        <time>2013-09-13T14:39:43Z</time>
      </trkpt>
      <trkpt lat="42.122867" lon="0.997583">
        <ele>1594.0</ele>
        <time>2013-09-13T14:39:44Z</time>
      </trkpt>
      <trkpt lat="42.122850" lon="0.997483">
        <ele>1594.0</ele>
        <time>2013-09-13T14:39:45Z</time>
      </trkpt>
      <trkpt lat="42.122850" lon="0.997367">
        <ele>1593.0</ele>
        <time>2013-09-13T14:39:46Z</time>
      </trkpt>
      <trkpt lat="42.122867" lon="0.997233">
        <ele>1593.0</ele>
        <time>2013-09-13T14:39:47Z</time>
      </trkpt>
      <trkpt lat="42.122867" lon="0.997117">
        <ele>1593.0</ele>
        <time>2013-09-13T14:39:48Z</time>
      </trkpt>
      <trkpt lat="42.122867" lon="0.997000">
        <ele>1593.0</ele>
        <time>2013-09-13T14:39:49Z</time>
      </trkpt>
      <trkpt lat="42.122867" lon="0.996900">
        <ele>1594.0</ele>
        <time>2013-09-13T14:39:50Z</time>
      </trkpt>
      <trkpt lat="42.122850" lon="0.996800">
        <ele>1594.0</ele>
        <time>2013-09-13T14:39:51Z</time>
      </trkpt>
      <trkpt lat="42.122833" lon="0.996700">
        <ele>1594.0</ele>
        <time>2013-09-13T14:39:52Z</time>
      </trkpt>
      <trkpt lat="42.122833" lon="0.996583">
        <ele>1592.0</ele>
        <time>2013-09-13T14:39:53Z</time>
      </trkpt>
      <trkpt lat="42.122817" lon="0.996483">
        <ele>1591.0</ele>
        <time>2013-09-13T14:39:54Z</time>
      </trkpt>
      <trkpt lat="42.122817" lon="0.996367">
        <ele>1589.0</ele>
        <time>2013-09-13T14:39:55Z</time>
      </trkpt>
      <trkpt lat="42.122800" lon="0.996250">
        <ele>1588.0</ele>
        <time>2013-09-13T14:39:56Z</time>
      </trkpt>
      <trkpt lat="42.122800" lon="0.996133">
        <ele>1587.0</ele>
        <time>2013-09-13T14:39:57Z</time>
      </trkpt>
      <trkpt lat="42.122800" lon="0.996017">
        <ele>1586.0</ele>
        <time>2013-09-13T14:39:58Z</time>
      </trkpt>
      <trkpt lat="42.122783" lon="0.995900">
        <ele>1585.0</ele>
        <time>2013-09-13T14:39:59Z</time>
      </trkpt>
      <trkpt lat="42.122767" lon="0.995783">
        <ele>1584.0</ele>
        <time>2013-09-13T14:40:00Z</time>
      </trkpt>
      <trkpt lat="42.122750" lon="0.995683">
        <ele>1583.0</ele>
        <time>2013-09-13T14:40:01Z</time>
      </trkpt>
      <trkpt lat="42.122733" lon="0.995583">
        <ele>1582.0</ele>
        <time>2013-09-13T14:40:02Z</time>
      </trkpt>
      <trkpt lat="42.122717" lon="0.995483">
        <ele>1581.0</ele>
        <time>2013-09-13T14:40:03Z</time>
      </trkpt>
      <trkpt lat="42.122717" lon="0.995383">
        <ele>1580.0</ele>
        <time>2013-09-13T14:40:04Z</time>
      </trkpt>
      <trkpt lat="42.122717" lon="0.995267">
        <ele>1578.0</ele>
        <time>2013-09-13T14:40:05Z</time>
      </trkpt>
      <trkpt lat="42.122717" lon="0.995167">
        <ele>1576.0</ele>
        <time>2013-09-13T14:40:06Z</time>
      </trkpt>
      <trkpt lat="42.122733" lon="0.995067">
        <ele>1574.0</ele>
        <time>2013-09-13T14:40:07Z</time>
      </trkpt>
      <trkpt lat="42.122733" lon="0.994950">
        <ele>1572.0</ele>
        <time>2013-09-13T14:40:08Z</time>
      </trkpt>
      <trkpt lat="42.122750" lon="0.994850">
        <ele>1570.0</ele>
        <time>2013-09-13T14:40:09Z</time>
      </trkpt>
      <trkpt lat="42.122750" lon="0.994733">
        <ele>1566.0</ele>
        <time>2013-09-13T14:40:10Z</time>
      </trkpt>
      <trkpt lat="42.122750" lon="0.994617">
        <ele>1563.0</ele>
        <time>2013-09-13T14:40:11Z</time>
      </trkpt>
      <trkpt lat="42.122750" lon="0.994483">
        <ele>1560.0</ele>
        <time>2013-09-13T14:40:12Z</time>
      </trkpt>
      <trkpt lat="42.122767" lon="0.994367">
        <ele>1556.0</ele>
        <time>2013-09-13T14:40:13Z</time>
      </trkpt>
      <trkpt lat="42.122783" lon="0.994250">
        <ele>1553.0</ele>
        <time>2013-09-13T14:40:14Z</time>
      </trkpt>
      <trkpt lat="42.122817" lon="0.994133">
        <ele>1549.0</ele>
        <time>2013-09-13T14:40:15Z</time>
      </trkpt>
      <trkpt lat="42.122850" lon="0.994033">
        <ele>1546.0</ele>
        <time>2013-09-13T14:40:16Z</time>
      </trkpt>
      <trkpt lat="42.122867" lon="0.993917">
        <ele>1544.0</ele>
        <time>2013-09-13T14:40:17Z</time>
      </trkpt>
      <trkpt lat="42.122900" lon="0.993800">
        <ele>1541.0</ele>
        <time>2013-09-13T14:40:18Z</time>
      </trkpt>
      <trkpt lat="42.122933" lon="0.993683">
        <ele>1538.0</ele>
        <time>2013-09-13T14:40:19Z</time>
      </trkpt>
      <trkpt lat="42.122967" lon="0.993550">
        <ele>1536.0</ele>
        <time>2013-09-13T14:40:20Z</time>
      </trkpt>
      <trkpt lat="42.122983" lon="0.993417">
        <ele>1534.0</ele>
        <time>2013-09-13T14:40:21Z</time>
      </trkpt>
      <trkpt lat="42.123017" lon="0.993283">
        <ele>1534.0</ele>
        <time>2013-09-13T14:40:22Z</time>
      </trkpt>
      <trkpt lat="42.123033" lon="0.993183">
        <ele>1534.0</ele>
        <time>2013-09-13T14:40:23Z</time>
      </trkpt>
      <trkpt lat="42.123050" lon="0.993083">
        <ele>1534.0</ele>
        <time>2013-09-13T14:40:24Z</time>
      </trkpt>
      <trkpt lat="42.123067" lon="0.992967">
        <ele>1533.0</ele>
        <time>2013-09-13T14:40:25Z</time>
      </trkpt>
      <trkpt lat="42.123083" lon="0.992833">
        <ele>1531.0</ele>
        <time>2013-09-13T14:40:26Z</time>
      </trkpt>
      <trkpt lat="42.123117" lon="0.992700">
        <ele>1529.0</ele>
        <time>2013-09-13T14:40:27Z</time>
      </trkpt>
      <trkpt lat="42.123150" lon="0.992567">
        <ele>1528.0</ele>
        <time>2013-09-13T14:40:28Z</time>
      </trkpt>
      <trkpt lat="42.123167" lon="0.992450">
        <ele>1528.0</ele>
        <time>2013-09-13T14:40:29Z</time>
      </trkpt>
      <trkpt lat="42.123200" lon="0.992367">
        <ele>1528.0</ele>
        <time>2013-09-13T14:40:30Z</time>
      </trkpt>
      <trkpt lat="42.123217" lon="0.992283">
        <ele>1529.0</ele>
        <time>2013-09-13T14:40:31Z</time>
      </trkpt>
      <trkpt lat="42.123233" lon="0.992200">
        <ele>1528.0</ele>
        <time>2013-09-13T14:40:32Z</time>
      </trkpt>
      <trkpt lat="42.123250" lon="0.992100">
        <ele>1526.0</ele>
        <time>2013-09-13T14:40:33Z</time>
      </trkpt>
      <trkpt lat="42.123283" lon="0.991983">
        <ele>1524.0</ele>
        <time>2013-09-13T14:40:34Z</time>
      </trkpt>
      <trkpt lat="42.123300" lon="0.991883">
        <ele>1523.0</ele>
        <time>2013-09-13T14:40:35Z</time>
      </trkpt>
      <trkpt lat="42.123317" lon="0.991767">
        <ele>1522.0</ele>
        <time>2013-09-13T14:40:36Z</time>
      </trkpt>
      <trkpt lat="42.123333" lon="0.991683">
        <ele>1522.0</ele>
        <time>2013-09-13T14:40:37Z</time>
      </trkpt>
      <trkpt lat="42.123333" lon="0.991600">
        <ele>1522.0</ele>
        <time>2013-09-13T14:40:38Z</time>
      </trkpt>
      <trkpt lat="42.123333" lon="0.991517">
        <ele>1521.0</ele>
        <time>2013-09-13T14:40:39Z</time>
      </trkpt>
      <trkpt lat="42.123350" lon="0.991417">
        <ele>1520.0</ele>
        <time>2013-09-13T14:40:40Z</time>
      </trkpt>
      <trkpt lat="42.123383" lon="0.991317">
        <ele>1519.0</ele>
        <time>2013-09-13T14:40:41Z</time>
      </trkpt>
      <trkpt lat="42.123400" lon="0.991200">
        <ele>1518.0</ele>
        <time>2013-09-13T14:40:42Z</time>
      </trkpt>
      <trkpt lat="42.123433" lon="0.991100">
        <ele>1518.0</ele>
        <time>2013-09-13T14:40:43Z</time>
      </trkpt>
      <trkpt lat="42.123467" lon="0.991017">
        <ele>1519.0</ele>
        <time>2013-09-13T14:40:44Z</time>
      </trkpt>
      <trkpt lat="42.123483" lon="0.990933">
        <ele>1520.0</ele>
        <time>2013-09-13T14:40:45Z</time>
      </trkpt>
      <trkpt lat="42.123500" lon="0.990833">
        <ele>1520.0</ele>
        <time>2013-09-13T14:40:46Z</time>
      </trkpt>
      <trkpt lat="42.123517" lon="0.990733">
        <ele>1520.0</ele>
        <time>2013-09-13T14:40:47Z</time>
      </trkpt>
      <trkpt lat="42.123550" lon="0.990633">
        <ele>1519.0</ele>
        <time>2013-09-13T14:40:48Z</time>
      </trkpt>
      <trkpt lat="42.123583" lon="0.990533">
        <ele>1519.0</ele>
        <time>2013-09-13T14:40:49Z</time>
      </trkpt>
      <trkpt lat="42.123617" lon="0.990467">
        <ele>1521.0</ele>
        <time>2013-09-13T14:40:50Z</time>
      </trkpt>
      <trkpt lat="42.123650" lon="0.990400">
        <ele>1522.0</ele>
        <time>2013-09-13T14:40:51Z</time>
      </trkpt>
      <trkpt lat="42.123683" lon="0.990317">
        <ele>1523.0</ele>
        <time>2013-09-13T14:40:52Z</time>
      </trkpt>
      <trkpt lat="42.123717" lon="0.990250">
        <ele>1523.0</ele>
        <time>2013-09-13T14:40:53Z</time>
      </trkpt>
      <trkpt lat="42.123750" lon="0.990167">
        <ele>1523.0</ele>
        <time>2013-09-13T14:40:54Z</time>
      </trkpt>
      <trkpt lat="42.123783" lon="0.990083">
        <ele>1524.0</ele>
        <time>2013-09-13T14:40:55Z</time>
      </trkpt>
      <trkpt lat="42.123817" lon="0.990017">
        <ele>1525.0</ele>
        <time>2013-09-13T14:40:56Z</time>
      </trkpt>
      <trkpt lat="42.123850" lon="0.989967">
        <ele>1526.0</ele>
        <time>2013-09-13T14:40:57Z</time>
      </trkpt>
      <trkpt lat="42.123883" lon="0.989883">
        <ele>1526.0</ele>
        <time>2013-09-13T14:40:58Z</time>
      </trkpt>
      <trkpt lat="42.123917" lon="0.989817">
        <ele>1526.0</ele>
        <time>2013-09-13T14:40:59Z</time>
      </trkpt>
      <trkpt lat="42.123950" lon="0.989733">
        <ele>1526.0</ele>
        <time>2013-09-13T14:41:00Z</time>
      </trkpt>
      <trkpt lat="42.123983" lon="0.989650">
        <ele>1526.0</ele>
        <time>2013-09-13T14:41:01Z</time>
      </trkpt>
      <trkpt lat="42.124000" lon="0.989583">
        <ele>1527.0</ele>
        <time>2013-09-13T14:41:02Z</time>
      </trkpt>
      <trkpt lat="42.124033" lon="0.989500">
        <ele>1527.0</ele>
        <time>2013-09-13T14:41:03Z</time>
      </trkpt>
      <trkpt lat="42.124083" lon="0.989433">
        <ele>1527.0</ele>
        <time>2013-09-13T14:41:04Z</time>
      </trkpt>
      <trkpt lat="42.124150" lon="0.989367">
        <ele>1526.0</ele>
        <time>2013-09-13T14:41:05Z</time>
      </trkpt>
      <trkpt lat="42.124217" lon="0.989333">
        <ele>1526.0</ele>
        <time>2013-09-13T14:41:06Z</time>
      </trkpt>
      <trkpt lat="42.124283" lon="0.989317">
        <ele>1525.0</ele>
        <time>2013-09-13T14:41:07Z</time>
      </trkpt>
      <trkpt lat="42.124367" lon="0.989283">
        <ele>1524.0</ele>
        <time>2013-09-13T14:41:08Z</time>
      </trkpt>
      <trkpt lat="42.124433" lon="0.989233">
        <ele>1523.0</ele>
        <time>2013-09-13T14:41:09Z</time>
      </trkpt>
      <trkpt lat="42.124500" lon="0.989167">
        <ele>1521.0</ele>
        <time>2013-09-13T14:41:10Z</time>
      </trkpt>
      <trkpt lat="42.124550" lon="0.989117">
        <ele>1521.0</ele>
        <time>2013-09-13T14:41:11Z</time>
      </trkpt>
      <trkpt lat="42.124600" lon="0.989050">
        <ele>1520.0</ele>
        <time>2013-09-13T14:41:12Z</time>
      </trkpt>
      <trkpt lat="42.124667" lon="0.989000">
        <ele>1520.0</ele>
        <time>2013-09-13T14:41:13Z</time>
      </trkpt>
      <trkpt lat="42.124700" lon="0.988950">
        <ele>1518.0</ele>
        <time>2013-09-13T14:41:14Z</time>
      </trkpt>
      <trkpt lat="42.124750" lon="0.988883">
        <ele>1516.0</ele>
        <time>2013-09-13T14:41:15Z</time>
      </trkpt>
      <trkpt lat="42.124800" lon="0.988817">
        <ele>1513.0</ele>
        <time>2013-09-13T14:41:16Z</time>
      </trkpt>
      <trkpt lat="42.124833" lon="0.988733">
        <ele>1510.0</ele>
        <time>2013-09-13T14:41:17Z</time>
      </trkpt>
      <trkpt lat="42.124883" lon="0.988650">
        <ele>1506.0</ele>
        <time>2013-09-13T14:41:18Z</time>
      </trkpt>
      <trkpt lat="42.124933" lon="0.988550">
        <ele>1503.0</ele>
        <time>2013-09-13T14:41:19Z</time>
      </trkpt>
      <trkpt lat="42.124983" lon="0.988450">
        <ele>1501.0</ele>
        <time>2013-09-13T14:41:20Z</time>
      </trkpt>
      <trkpt lat="42.125000" lon="0.988367">
        <ele>1500.0</ele>
        <time>2013-09-13T14:41:21Z</time>
      </trkpt>
      <trkpt lat="42.125017" lon="0.988283">
        <ele>1498.0</ele>
        <time>2013-09-13T14:41:22Z</time>
      </trkpt>
      <trkpt lat="42.125033" lon="0.988200">
        <ele>1497.0</ele>
        <time>2013-09-13T14:41:23Z</time>
      </trkpt>
      <trkpt lat="42.125050" lon="0.988117">
        <ele>1494.0</ele>
        <time>2013-09-13T14:41:24Z</time>
      </trkpt>
      <trkpt lat="42.125067" lon="0.988033">
        <ele>1492.0</ele>
        <time>2013-09-13T14:41:25Z</time>
      </trkpt>
      <trkpt lat="42.125083" lon="0.987950">
        <ele>1490.0</ele>
        <time>2013-09-13T14:41:26Z</time>
      </trkpt>
      <trkpt lat="42.125100" lon="0.987867">
        <ele>1489.0</ele>
        <time>2013-09-13T14:41:27Z</time>
      </trkpt>
      <trkpt lat="42.125117" lon="0.987767">
        <ele>1487.0</ele>
        <time>2013-09-13T14:41:28Z</time>
      </trkpt>
      <trkpt lat="42.125133" lon="0.987683">
        <ele>1484.0</ele>
        <time>2013-09-13T14:41:29Z</time>
      </trkpt>
      <trkpt lat="42.125133" lon="0.987600">
        <ele>1482.0</ele>
        <time>2013-09-13T14:41:30Z</time>
      </trkpt>
      <trkpt lat="42.125150" lon="0.987517">
        <ele>1481.0</ele>
        <time>2013-09-13T14:41:31Z</time>
      </trkpt>
      <trkpt lat="42.125150" lon="0.987433">
        <ele>1479.0</ele>
        <time>2013-09-13T14:41:32Z</time>
      </trkpt>
      <trkpt lat="42.125150" lon="0.987350">
        <ele>1477.0</ele>
        <time>2013-09-13T14:41:33Z</time>
      </trkpt>
      <trkpt lat="42.125150" lon="0.987250">
        <ele>1474.0</ele>
        <time>2013-09-13T14:41:34Z</time>
      </trkpt>
      <trkpt lat="42.125150" lon="0.987150">
        <ele>1472.0</ele>
        <time>2013-09-13T14:41:35Z</time>
      </trkpt>
      <trkpt lat="42.125167" lon="0.987067">
        <ele>1471.0</ele>
        <time>2013-09-13T14:41:36Z</time>
      </trkpt>
      <trkpt lat="42.125183" lon="0.986983">
        <ele>1469.0</ele>
        <time>2013-09-13T14:41:37Z</time>
      </trkpt>
      <trkpt lat="42.125200" lon="0.986883">
        <ele>1467.0</ele>
        <time>2013-09-13T14:41:38Z</time>
      </trkpt>
      <trkpt lat="42.125217" lon="0.986783">
        <ele>1465.0</ele>
        <time>2013-09-13T14:41:39Z</time>
      </trkpt>
      <trkpt lat="42.125217" lon="0.986683">
        <ele>1464.0</ele>
        <time>2013-09-13T14:41:40Z</time>
      </trkpt>
      <trkpt lat="42.125217" lon="0.986600">
        <ele>1463.0</ele>
        <time>2013-09-13T14:41:41Z</time>
      </trkpt>
      <trkpt lat="42.125217" lon="0.986533">
        <ele>1462.0</ele>
        <time>2013-09-13T14:41:42Z</time>
      </trkpt>
      <trkpt lat="42.125233" lon="0.986467">
        <ele>1462.0</ele>
        <time>2013-09-13T14:41:43Z</time>
      </trkpt>
      <trkpt lat="42.125233" lon="0.986383">
        <ele>1461.0</ele>
        <time>2013-09-13T14:41:44Z</time>
      </trkpt>
      <trkpt lat="42.125233" lon="0.986300">
        <ele>1459.0</ele>
        <time>2013-09-13T14:41:45Z</time>
      </trkpt>
      <trkpt lat="42.125250" lon="0.986217">
        <ele>1458.0</ele>
        <time>2013-09-13T14:41:46Z</time>
      </trkpt>
      <trkpt lat="42.125267" lon="0.986133">
        <ele>1456.0</ele>
        <time>2013-09-13T14:41:47Z</time>
      </trkpt>
      <trkpt lat="42.125283" lon="0.986033">
        <ele>1454.0</ele>
        <time>2013-09-13T14:41:48Z</time>
      </trkpt>
      <trkpt lat="42.125300" lon="0.985950">
        <ele>1452.0</ele>
        <time>2013-09-13T14:41:49Z</time>
      </trkpt>
      <trkpt lat="42.125317" lon="0.985867">
        <ele>1450.0</ele>
        <time>2013-09-13T14:41:50Z</time>
      </trkpt>
      <trkpt lat="42.125317" lon="0.985800">
        <ele>1448.0</ele>
        <time>2013-09-13T14:41:51Z</time>
      </trkpt>
      <trkpt lat="42.125317" lon="0.985733">
        <ele>1446.0</ele>
        <time>2013-09-13T14:41:52Z</time>
      </trkpt>
      <trkpt lat="42.125333" lon="0.985650">
        <ele>1444.0</ele>
        <time>2013-09-13T14:41:53Z</time>
      </trkpt>
      <trkpt lat="42.125350" lon="0.985583">
        <ele>1442.0</ele>
        <time>2013-09-13T14:41:54Z</time>
      </trkpt>
      <trkpt lat="42.125367" lon="0.985517">
        <ele>1439.0</ele>
        <time>2013-09-13T14:41:55Z</time>
      </trkpt>
      <trkpt lat="42.125367" lon="0.985433">
        <ele>1437.0</ele>
        <time>2013-09-13T14:41:56Z</time>
      </trkpt>
      <trkpt lat="42.125383" lon="0.985350">
        <ele>1434.0</ele>
        <time>2013-09-13T14:41:57Z</time>
      </trkpt>
      <trkpt lat="42.125383" lon="0.985250">
        <ele>1432.0</ele>
        <time>2013-09-13T14:41:58Z</time>
      </trkpt>
      <trkpt lat="42.125383" lon="0.985150">
        <ele>1429.0</ele>
        <time>2013-09-13T14:41:59Z</time>
      </trkpt>
      <trkpt lat="42.125367" lon="0.985067">
        <ele>1427.0</ele>
        <time>2013-09-13T14:42:00Z</time>
      </trkpt>
      <trkpt lat="42.125350" lon="0.984983">
        <ele>1425.0</ele>
        <time>2013-09-13T14:42:01Z</time>
      </trkpt>
      <trkpt lat="42.125333" lon="0.984917">
        <ele>1424.0</ele>
        <time>2013-09-13T14:42:02Z</time>
      </trkpt>
      <trkpt lat="42.125317" lon="0.984850">
        <ele>1423.0</ele>
        <time>2013-09-13T14:42:03Z</time>
      </trkpt>
      <trkpt lat="42.125300" lon="0.984767">
        <ele>1421.0</ele>
        <time>2013-09-13T14:42:04Z</time>
      </trkpt>
      <trkpt lat="42.125283" lon="0.984683">
        <ele>1418.0</ele>
        <time>2013-09-13T14:42:05Z</time>
      </trkpt>
      <trkpt lat="42.125250" lon="0.984600">
        <ele>1415.0</ele>
        <time>2013-09-13T14:42:06Z</time>
      </trkpt>
      <trkpt lat="42.125233" lon="0.984517">
        <ele>1413.0</ele>
        <time>2013-09-13T14:42:07Z</time>
      </trkpt>
      <trkpt lat="42.125217" lon="0.984433">
        <ele>1411.0</ele>
        <time>2013-09-13T14:42:08Z</time>
      </trkpt>
      <trkpt lat="42.125200" lon="0.984350">
        <ele>1408.0</ele>
        <time>2013-09-13T14:42:09Z</time>
      </trkpt>
      <trkpt lat="42.125183" lon="0.984250">
        <ele>1406.0</ele>
        <time>2013-09-13T14:42:10Z</time>
      </trkpt>
      <trkpt lat="42.125167" lon="0.984167">
        <ele>1405.0</ele>
        <time>2013-09-13T14:42:11Z</time>
      </trkpt>
      <trkpt lat="42.125150" lon="0.984100">
        <ele>1404.0</ele>
        <time>2013-09-13T14:42:12Z</time>
      </trkpt>
      <trkpt lat="42.125133" lon="0.984033">
        <ele>1403.0</ele>
        <time>2013-09-13T14:42:13Z</time>
      </trkpt>
      <trkpt lat="42.125117" lon="0.983967">
        <ele>1402.0</ele>
        <time>2013-09-13T14:42:14Z</time>
      </trkpt>
      <trkpt lat="42.125117" lon="0.983900">
        <ele>1401.0</ele>
        <time>2013-09-13T14:42:15Z</time>
      </trkpt>
      <trkpt lat="42.125100" lon="0.983817">
        <ele>1398.0</ele>
        <time>2013-09-13T14:42:16Z</time>
      </trkpt>
      <trkpt lat="42.125067" lon="0.983733">
        <ele>1396.0</ele>
        <time>2013-09-13T14:42:17Z</time>
      </trkpt>
      <trkpt lat="42.125050" lon="0.983650">
        <ele>1394.0</ele>
        <time>2013-09-13T14:42:18Z</time>
      </trkpt>
      <trkpt lat="42.125033" lon="0.983567">
        <ele>1393.0</ele>
        <time>2013-09-13T14:42:19Z</time>
      </trkpt>
      <trkpt lat="42.125017" lon="0.983500">
        <ele>1393.0</ele>
        <time>2013-09-13T14:42:20Z</time>
      </trkpt>
      <trkpt lat="42.125017" lon="0.983433">
        <ele>1392.0</ele>
        <time>2013-09-13T14:42:21Z</time>
      </trkpt>
      <trkpt lat="42.125000" lon="0.983367">
        <ele>1391.0</ele>
        <time>2013-09-13T14:42:22Z</time>
      </trkpt>
      <trkpt lat="42.125000" lon="0.983283">
        <ele>1389.0</ele>
        <time>2013-09-13T14:42:23Z</time>
      </trkpt>
      <trkpt lat="42.124983" lon="0.983183">
        <ele>1387.0</ele>
        <time>2013-09-13T14:42:24Z</time>
      </trkpt>
      <trkpt lat="42.124983" lon="0.983117">
        <ele>1385.0</ele>
        <time>2013-09-13T14:42:25Z</time>
      </trkpt>
      <trkpt lat="42.124967" lon="0.983067">
        <ele>1384.0</ele>
        <time>2013-09-13T14:42:26Z</time>
      </trkpt>
      <trkpt lat="42.124967" lon="0.983000">
        <ele>1382.0</ele>
        <time>2013-09-13T14:42:27Z</time>
      </trkpt>
      <trkpt lat="42.124967" lon="0.982933">
        <ele>1378.0</ele>
        <time>2013-09-13T14:42:28Z</time>
      </trkpt>
      <trkpt lat="42.124983" lon="0.982850">
        <ele>1375.0</ele>
        <time>2013-09-13T14:42:29Z</time>
      </trkpt>
      <trkpt lat="42.125000" lon="0.982750">
        <ele>1372.0</ele>
        <time>2013-09-13T14:42:30Z</time>
      </trkpt>
      <trkpt lat="42.125000" lon="0.982683">
        <ele>1370.0</ele>
        <time>2013-09-13T14:42:31Z</time>
      </trkpt>
      <trkpt lat="42.125000" lon="0.982600">
        <ele>1368.0</ele>
        <time>2013-09-13T14:42:32Z</time>
      </trkpt>
      <trkpt lat="42.124983" lon="0.982533">
        <ele>1366.0</ele>
        <time>2013-09-13T14:42:33Z</time>
      </trkpt>
      <trkpt lat="42.124983" lon="0.982450">
        <ele>1364.0</ele>
        <time>2013-09-13T14:42:34Z</time>
      </trkpt>
      <trkpt lat="42.124983" lon="0.982383">
        <ele>1362.0</ele>
        <time>2013-09-13T14:42:35Z</time>
      </trkpt>
      <trkpt lat="42.124983" lon="0.982300">
        <ele>1360.0</ele>
        <time>2013-09-13T14:42:36Z</time>
      </trkpt>
      <trkpt lat="42.125000" lon="0.982217">
        <ele>1358.0</ele>
        <time>2013-09-13T14:42:37Z</time>
      </trkpt>
      <trkpt lat="42.125000" lon="0.982150">
        <ele>1356.0</ele>
        <time>2013-09-13T14:42:38Z</time>
      </trkpt>
      <trkpt lat="42.125017" lon="0.982083">
        <ele>1354.0</ele>
        <time>2013-09-13T14:42:39Z</time>
      </trkpt>
      <trkpt lat="42.125033" lon="0.982000">
        <ele>1351.0</ele>
        <time>2013-09-13T14:42:40Z</time>
      </trkpt>
      <trkpt lat="42.125033" lon="0.981900">
        <ele>1348.0</ele>
        <time>2013-09-13T14:42:41Z</time>
      </trkpt>
      <trkpt lat="42.125033" lon="0.981800">
        <ele>1345.0</ele>
        <time>2013-09-13T14:42:42Z</time>
      </trkpt>
      <trkpt lat="42.125017" lon="0.981717">
        <ele>1343.0</ele>
        <time>2013-09-13T14:42:43Z</time>
      </trkpt>
      <trkpt lat="42.125017" lon="0.981633">
        <ele>1342.0</ele>
        <time>2013-09-13T14:42:44Z</time>
      </trkpt>
      <trkpt lat="42.125017" lon="0.981550">
        <ele>1339.0</ele>
        <time>2013-09-13T14:42:45Z</time>
      </trkpt>
      <trkpt lat="42.125017" lon="0.981450">
        <ele>1337.0</ele>
        <time>2013-09-13T14:42:46Z</time>
      </trkpt>
      <trkpt lat="42.125017" lon="0.981367">
        <ele>1336.0</ele>
        <time>2013-09-13T14:42:47Z</time>
      </trkpt>
      <trkpt lat="42.125017" lon="0.981300">
        <ele>1334.0</ele>
        <time>2013-09-13T14:42:48Z</time>
      </trkpt>
      <trkpt lat="42.125017" lon="0.981217">
        <ele>1332.0</ele>
        <time>2013-09-13T14:42:49Z</time>
      </trkpt>
      <trkpt lat="42.125000" lon="0.981150">
        <ele>1331.0</ele>
        <time>2013-09-13T14:42:50Z</time>
      </trkpt>
      <trkpt lat="42.125000" lon="0.981083">
        <ele>1329.0</ele>
        <time>2013-09-13T14:42:51Z</time>
      </trkpt>
      <trkpt lat="42.125000" lon="0.981017">
        <ele>1327.0</ele>
        <time>2013-09-13T14:42:52Z</time>
      </trkpt>
      <trkpt lat="42.125000" lon="0.980967">
        <ele>1325.0</ele>
        <time>2013-09-13T14:42:53Z</time>
      </trkpt>
      <trkpt lat="42.125017" lon="0.980817">
        <ele>1320.0</ele>
        <time>2013-09-13T14:42:55Z</time>
      </trkpt>
      <trkpt lat="42.125017" lon="0.980733">
        <ele>1317.0</ele>
        <time>2013-09-13T14:42:56Z</time>
      </trkpt>
      <trkpt lat="42.125033" lon="0.980650">
        <ele>1315.0</ele>
        <time>2013-09-13T14:42:57Z</time>
      </trkpt>
      <trkpt lat="42.125050" lon="0.980583">
        <ele>1314.0</ele>
        <time>2013-09-13T14:42:58Z</time>
      </trkpt>
      <trkpt lat="42.125050" lon="0.980500">
        <ele>1312.0</ele>
        <time>2013-09-13T14:42:59Z</time>
      </trkpt>
      <trkpt lat="42.125050" lon="0.980400">
        <ele>1310.0</ele>
        <time>2013-09-13T14:43:00Z</time>
      </trkpt>
      <trkpt lat="42.125067" lon="0.980317">
        <ele>1308.0</ele>
        <time>2013-09-13T14:43:01Z</time>
      </trkpt>
      <trkpt lat="42.125067" lon="0.980217">
        <ele>1306.0</ele>
        <time>2013-09-13T14:43:02Z</time>
      </trkpt>
      <trkpt lat="42.125067" lon="0.980133">
        <ele>1304.0</ele>
        <time>2013-09-13T14:43:03Z</time>
      </trkpt>
      <trkpt lat="42.125083" lon="0.980033">
        <ele>1302.0</ele>
        <time>2013-09-13T14:43:04Z</time>
      </trkpt>
      <trkpt lat="42.125083" lon="0.979933">
        <ele>1300.0</ele>
        <time>2013-09-13T14:43:05Z</time>
      </trkpt>
      <trkpt lat="42.125100" lon="0.979850">
        <ele>1298.0</ele>
        <time>2013-09-13T14:43:06Z</time>
      </trkpt>
      <trkpt lat="42.125100" lon="0.979750">
        <ele>1297.0</ele>
        <time>2013-09-13T14:43:07Z</time>
      </trkpt>
      <trkpt lat="42.125117" lon="0.979650">
        <ele>1295.0</ele>
        <time>2013-09-13T14:43:08Z</time>
      </trkpt>
      <trkpt lat="42.125133" lon="0.979550">
        <ele>1294.0</ele>
        <time>2013-09-13T14:43:09Z</time>
      </trkpt>
      <trkpt lat="42.125150" lon="0.979333">
        <ele>1291.0</ele>
        <time>2013-09-13T14:43:11Z</time>
      </trkpt>
      <trkpt lat="42.125150" lon="0.979217">
        <ele>1290.0</ele>
        <time>2013-09-13T14:43:12Z</time>
      </trkpt>
      <trkpt lat="42.125167" lon="0.979117">
        <ele>1289.0</ele>
        <time>2013-09-13T14:43:13Z</time>
      </trkpt>
      <trkpt lat="42.125167" lon="0.979000">
        <ele>1288.0</ele>
        <time>2013-09-13T14:43:14Z</time>
      </trkpt>
      <trkpt lat="42.125183" lon="0.978900">
        <ele>1286.0</ele>
        <time>2013-09-13T14:43:15Z</time>
      </trkpt>
      <trkpt lat="42.125200" lon="0.978783">
        <ele>1285.0</ele>
        <time>2013-09-13T14:43:16Z</time>
      </trkpt>
      <trkpt lat="42.125217" lon="0.978683">
        <ele>1283.0</ele>
        <time>2013-09-13T14:43:17Z</time>
      </trkpt>
      <trkpt lat="42.125233" lon="0.978567">
        <ele>1282.0</ele>
        <time>2013-09-13T14:43:18Z</time>
      </trkpt>
      <trkpt lat="42.125233" lon="0.978467">
        <ele>1281.0</ele>
        <time>2013-09-13T14:43:19Z</time>
      </trkpt>
      <trkpt lat="42.125250" lon="0.978367">
        <ele>1280.0</ele>
        <time>2013-09-13T14:43:20Z</time>
      </trkpt>
      <trkpt lat="42.125267" lon="0.978283">
        <ele>1280.0</ele>
        <time>2013-09-13T14:43:21Z</time>
      </trkpt>
      <trkpt lat="42.125250" lon="0.978167">
        <ele>1279.0</ele>
        <time>2013-09-13T14:43:22Z</time>
      </trkpt>
      <trkpt lat="42.125250" lon="0.978067">
        <ele>1279.0</ele>
        <time>2013-09-13T14:43:23Z</time>
      </trkpt>
      <trkpt lat="42.125250" lon="0.977967">
        <ele>1280.0</ele>
        <time>2013-09-13T14:43:24Z</time>
      </trkpt>
      <trkpt lat="42.125233" lon="0.977900">
        <ele>1281.0</ele>
        <time>2013-09-13T14:43:25Z</time>
      </trkpt>
      <trkpt lat="42.125233" lon="0.977717">
        <ele>1281.0</ele>
        <time>2013-09-13T14:43:27Z</time>
      </trkpt>
      <trkpt lat="42.125217" lon="0.977600">
        <ele>1281.0</ele>
        <time>2013-09-13T14:43:28Z</time>
      </trkpt>
      <trkpt lat="42.125200" lon="0.977483">
        <ele>1281.0</ele>
        <time>2013-09-13T14:43:29Z</time>
      </trkpt>
      <trkpt lat="42.125183" lon="0.977350">
        <ele>1282.0</ele>
        <time>2013-09-13T14:43:30Z</time>
      </trkpt>
      <trkpt lat="42.125183" lon="0.977250">
        <ele>1284.0</ele>
        <time>2013-09-13T14:43:31Z</time>
      </trkpt>
      <trkpt lat="42.125167" lon="0.977133">
        <ele>1286.0</ele>
        <time>2013-09-13T14:43:32Z</time>
      </trkpt>
      <trkpt lat="42.125150" lon="0.977050">
        <ele>1288.0</ele>
        <time>2013-09-13T14:43:33Z</time>
      </trkpt>
      <trkpt lat="42.125117" lon="0.976950">
        <ele>1290.0</ele>
        <time>2013-09-13T14:43:34Z</time>
      </trkpt>
      <trkpt lat="42.125117" lon="0.976850">
        <ele>1291.0</ele>
        <time>2013-09-13T14:43:35Z</time>
      </trkpt>
      <trkpt lat="42.125117" lon="0.976717">
        <ele>1291.0</ele>
        <time>2013-09-13T14:43:36Z</time>
      </trkpt>
      <trkpt lat="42.125150" lon="0.976600">
        <ele>1291.0</ele>
        <time>2013-09-13T14:43:37Z</time>
      </trkpt>
      <trkpt lat="42.125200" lon="0.976500">
        <ele>1292.0</ele>
        <time>2013-09-13T14:43:38Z</time>
      </trkpt>
      <trkpt lat="42.125250" lon="0.976433">
        <ele>1294.0</ele>
        <time>2013-09-13T14:43:39Z</time>
      </trkpt>
      <trkpt lat="42.125333" lon="0.976383">
        <ele>1296.0</ele>
        <time>2013-09-13T14:43:40Z</time>
      </trkpt>
      <trkpt lat="42.125400" lon="0.976367">
        <ele>1297.0</ele>
        <time>2013-09-13T14:43:41Z</time>
      </trkpt>
      <trkpt lat="42.125483" lon="0.976367">
        <ele>1298.0</ele>
        <time>2013-09-13T14:43:42Z</time>
      </trkpt>
      <trkpt lat="42.125567" lon="0.976400">
        <ele>1299.0</ele>
        <time>2013-09-13T14:43:43Z</time>
      </trkpt>
      <trkpt lat="42.125633" lon="0.976467">
        <ele>1299.0</ele>
        <time>2013-09-13T14:43:44Z</time>
      </trkpt>
      <trkpt lat="42.125667" lon="0.976567">
        <ele>1298.0</ele>
        <time>2013-09-13T14:43:45Z</time>
      </trkpt>
      <trkpt lat="42.125683" lon="0.976667">
        <ele>1298.0</ele>
        <time>2013-09-13T14:43:46Z</time>
      </trkpt>
      <trkpt lat="42.125667" lon="0.976783">
        <ele>1298.0</ele>
        <time>2013-09-13T14:43:47Z</time>
      </trkpt>
      <trkpt lat="42.125633" lon="0.976883">
        <ele>1297.0</ele>
        <time>2013-09-13T14:43:48Z</time>
      </trkpt>
      <trkpt lat="42.125600" lon="0.976967">
        <ele>1297.0</ele>
        <time>2013-09-13T14:43:49Z</time>
      </trkpt>
      <trkpt lat="42.125533" lon="0.977033">
        <ele>1297.0</ele>
        <time>2013-09-13T14:43:50Z</time>
      </trkpt>
      <trkpt lat="42.125467" lon="0.977050">
        <ele>1298.0</ele>
        <time>2013-09-13T14:43:51Z</time>
      </trkpt>
      <trkpt lat="42.125400" lon="0.977050">
        <ele>1299.0</ele>
        <time>2013-09-13T14:43:52Z</time>
      </trkpt>
      <trkpt lat="42.125317" lon="0.977000">
        <ele>1299.0</ele>
        <time>2013-09-13T14:43:53Z</time>
      </trkpt>
      <trkpt lat="42.125267" lon="0.976917">
        <ele>1300.0</ele>
        <time>2013-09-13T14:43:54Z</time>
      </trkpt>
      <trkpt lat="42.125217" lon="0.976850">
        <ele>1301.0</ele>
        <time>2013-09-13T14:43:55Z</time>
      </trkpt>
      <trkpt lat="42.125167" lon="0.976783">
        <ele>1303.0</ele>
        <time>2013-09-13T14:43:56Z</time>
      </trkpt>
      <trkpt lat="42.125117" lon="0.976717">
        <ele>1304.0</ele>
        <time>2013-09-13T14:43:57Z</time>
      </trkpt>
      <trkpt lat="42.125083" lon="0.976650">
        <ele>1306.0</ele>
        <time>2013-09-13T14:43:58Z</time>
      </trkpt>
      <trkpt lat="42.125050" lon="0.976567">
        <ele>1306.0</ele>
        <time>2013-09-13T14:43:59Z</time>
      </trkpt>
      <trkpt lat="42.125033" lon="0.976467">
        <ele>1306.0</ele>
        <time>2013-09-13T14:44:00Z</time>
      </trkpt>
      <trkpt lat="42.125050" lon="0.976367">
        <ele>1306.0</ele>
        <time>2013-09-13T14:44:01Z</time>
      </trkpt>
      <trkpt lat="42.125083" lon="0.976267">
        <ele>1308.0</ele>
        <time>2013-09-13T14:44:02Z</time>
      </trkpt>
      <trkpt lat="42.125150" lon="0.976200">
        <ele>1309.0</ele>
        <time>2013-09-13T14:44:03Z</time>
      </trkpt>
      <trkpt lat="42.125217" lon="0.976167">
        <ele>1312.0</ele>
        <time>2013-09-13T14:44:04Z</time>
      </trkpt>
      <trkpt lat="42.125300" lon="0.976150">
        <ele>1314.0</ele>
        <time>2013-09-13T14:44:05Z</time>
      </trkpt>
      <trkpt lat="42.125383" lon="0.976150">
        <ele>1316.0</ele>
        <time>2013-09-13T14:44:06Z</time>
      </trkpt>
      <trkpt lat="42.125450" lon="0.976183">
        <ele>1318.0</ele>
        <time>2013-09-13T14:44:07Z</time>
      </trkpt>
      <trkpt lat="42.125533" lon="0.976233">
        <ele>1319.0</ele>
        <time>2013-09-13T14:44:08Z</time>
      </trkpt>
      <trkpt lat="42.125583" lon="0.976317">
        <ele>1319.0</ele>
        <time>2013-09-13T14:44:09Z</time>
      </trkpt>
      <trkpt lat="42.125617" lon="0.976417">
        <ele>1320.0</ele>
        <time>2013-09-13T14:44:10Z</time>
      </trkpt>
      <trkpt lat="42.125650" lon="0.976550">
        <ele>1321.0</ele>
        <time>2013-09-13T14:44:11Z</time>
      </trkpt>
      <trkpt lat="42.125633" lon="0.976667">
        <ele>1321.0</ele>
        <time>2013-09-13T14:44:12Z</time>
      </trkpt>
      <trkpt lat="42.125583" lon="0.976817">
        <ele>1324.0</ele>
        <time>2013-09-13T14:44:14Z</time>
      </trkpt>
      <trkpt lat="42.125550" lon="0.976867">
        <ele>1325.0</ele>
        <time>2013-09-13T14:44:15Z</time>
      </trkpt>
      <trkpt lat="42.125483" lon="0.976917">
        <ele>1326.0</ele>
        <time>2013-09-13T14:44:16Z</time>
      </trkpt>
      <trkpt lat="42.125400" lon="0.976950">
        <ele>1327.0</ele>
        <time>2013-09-13T14:44:17Z</time>
      </trkpt>
      <trkpt lat="42.125317" lon="0.976950">
        <ele>1327.0</ele>
        <time>2013-09-13T14:44:18Z</time>
      </trkpt>
      <trkpt lat="42.125233" lon="0.976917">
        <ele>1328.0</ele>
        <time>2013-09-13T14:44:19Z</time>
      </trkpt>
      <trkpt lat="42.125167" lon="0.976883">
        <ele>1328.0</ele>
        <time>2013-09-13T14:44:20Z</time>
      </trkpt>
      <trkpt lat="42.125117" lon="0.976817">
        <ele>1329.0</ele>
        <time>2013-09-13T14:44:21Z</time>
      </trkpt>
      <trkpt lat="42.125067" lon="0.976750">
        <ele>1330.0</ele>
        <time>2013-09-13T14:44:22Z</time>
      </trkpt>
      <trkpt lat="42.125017" lon="0.976667">
        <ele>1330.0</ele>
        <time>2013-09-13T14:44:23Z</time>
      </trkpt>
      <trkpt lat="42.124983" lon="0.976583">
        <ele>1330.0</ele>
        <time>2013-09-13T14:44:24Z</time>
      </trkpt>
      <trkpt lat="42.124950" lon="0.976500">
        <ele>1331.0</ele>
        <time>2013-09-13T14:44:25Z</time>
      </trkpt>
      <trkpt lat="42.124933" lon="0.976400">
        <ele>1332.0</ele>
        <time>2013-09-13T14:44:26Z</time>
      </trkpt>
      <trkpt lat="42.124900" lon="0.976300">
        <ele>1333.0</ele>
        <time>2013-09-13T14:44:27Z</time>
      </trkpt>
      <trkpt lat="42.124883" lon="0.976183">
        <ele>1334.0</ele>
        <time>2013-09-13T14:44:28Z</time>
      </trkpt>
      <trkpt lat="42.124867" lon="0.976083">
        <ele>1337.0</ele>
        <time>2013-09-13T14:44:29Z</time>
      </trkpt>
      <trkpt lat="42.124850" lon="0.975983">
        <ele>1340.0</ele>
        <time>2013-09-13T14:44:30Z</time>
      </trkpt>
      <trkpt lat="42.124833" lon="0.975900">
        <ele>1343.0</ele>
        <time>2013-09-13T14:44:31Z</time>
      </trkpt>
      <trkpt lat="42.124833" lon="0.975817">
        <ele>1346.0</ele>
        <time>2013-09-13T14:44:32Z</time>
      </trkpt>
      <trkpt lat="42.124833" lon="0.975733">
        <ele>1349.0</ele>
        <time>2013-09-13T14:44:33Z</time>
      </trkpt>
      <trkpt lat="42.124850" lon="0.975650">
        <ele>1351.0</ele>
        <time>2013-09-13T14:44:34Z</time>
      </trkpt>
      <trkpt lat="42.124900" lon="0.975583">
        <ele>1352.0</ele>
        <time>2013-09-13T14:44:35Z</time>
      </trkpt>
      <trkpt lat="42.124983" lon="0.975550">
        <ele>1354.0</ele>
        <time>2013-09-13T14:44:36Z</time>
      </trkpt>
      <trkpt lat="42.125067" lon="0.975533">
        <ele>1355.0</ele>
        <time>2013-09-13T14:44:37Z</time>
      </trkpt>
      <trkpt lat="42.125150" lon="0.975517">
        <ele>1356.0</ele>
        <time>2013-09-13T14:44:38Z</time>
      </trkpt>
      <trkpt lat="42.125233" lon="0.975550">
        <ele>1358.0</ele>
        <time>2013-09-13T14:44:39Z</time>
      </trkpt>
      <trkpt lat="42.125350" lon="0.975700">
        <ele>1362.0</ele>
        <time>2013-09-13T14:44:41Z</time>
      </trkpt>
      <trkpt lat="42.125383" lon="0.975817">
        <ele>1363.0</ele>
        <time>2013-09-13T14:44:42Z</time>
      </trkpt>
      <trkpt lat="42.125383" lon="0.975917">
        <ele>1366.0</ele>
        <time>2013-09-13T14:44:43Z</time>
      </trkpt>
      <trkpt lat="42.125350" lon="0.976000">
        <ele>1367.0</ele>
        <time>2013-09-13T14:44:44Z</time>
      </trkpt>
      <trkpt lat="42.125300" lon="0.976100">
        <ele>1368.0</ele>
        <time>2013-09-13T14:44:45Z</time>
      </trkpt>
      <trkpt lat="42.125250" lon="0.976183">
        <ele>1368.0</ele>
        <time>2013-09-13T14:44:46Z</time>
      </trkpt>
      <trkpt lat="42.125183" lon="0.976250">
        <ele>1370.0</ele>
        <time>2013-09-13T14:44:47Z</time>
      </trkpt>
      <trkpt lat="42.125117" lon="0.976267">
        <ele>1373.0</ele>
        <time>2013-09-13T14:44:48Z</time>
      </trkpt>
      <trkpt lat="42.125050" lon="0.976283">
        <ele>1376.0</ele>
        <time>2013-09-13T14:44:49Z</time>
      </trkpt>
      <trkpt lat="42.125000" lon="0.976283">
        <ele>1379.0</ele>
        <time>2013-09-13T14:44:50Z</time>
      </trkpt>
      <trkpt lat="42.124933" lon="0.976250">
        <ele>1381.0</ele>
        <time>2013-09-13T14:44:51Z</time>
      </trkpt>
      <trkpt lat="42.124867" lon="0.976233">
        <ele>1382.0</ele>
        <time>2013-09-13T14:44:52Z</time>
      </trkpt>
      <trkpt lat="42.124800" lon="0.976200">
        <ele>1384.0</ele>
        <time>2013-09-13T14:44:53Z</time>
      </trkpt>
      <trkpt lat="42.124750" lon="0.976150">
        <ele>1386.0</ele>
        <time>2013-09-13T14:44:54Z</time>
      </trkpt>
      <trkpt lat="42.124700" lon="0.976083">
        <ele>1389.0</ele>
        <time>2013-09-13T14:44:55Z</time>
      </trkpt>
      <trkpt lat="42.124667" lon="0.976017">
        <ele>1391.0</ele>
        <time>2013-09-13T14:44:56Z</time>
      </trkpt>
      <trkpt lat="42.124650" lon="0.975950">
        <ele>1393.0</ele>
        <time>2013-09-13T14:44:57Z</time>
      </trkpt>
      <trkpt lat="42.124650" lon="0.975867">
        <ele>1394.0</ele>
        <time>2013-09-13T14:44:58Z</time>
      </trkpt>
      <trkpt lat="42.124667" lon="0.975767">
        <ele>1395.0</ele>
        <time>2013-09-13T14:44:59Z</time>
      </trkpt>
      <trkpt lat="42.124700" lon="0.975683">
        <ele>1395.0</ele>
        <time>2013-09-13T14:45:00Z</time>
      </trkpt>
      <trkpt lat="42.124750" lon="0.975617">
        <ele>1396.0</ele>
        <time>2013-09-13T14:45:01Z</time>
      </trkpt>
      <trkpt lat="42.124833" lon="0.975567">
        <ele>1397.0</ele>
        <time>2013-09-13T14:45:02Z</time>
      </trkpt>
      <trkpt lat="42.124900" lon="0.975567">
        <ele>1399.0</ele>
        <time>2013-09-13T14:45:03Z</time>
      </trkpt>
      <trkpt lat="42.124967" lon="0.975583">
        <ele>1400.0</ele>
        <time>2013-09-13T14:45:04Z</time>
      </trkpt>
      <trkpt lat="42.125050" lon="0.975617">
        <ele>1402.0</ele>
        <time>2013-09-13T14:45:05Z</time>
      </trkpt>
      <trkpt lat="42.125200" lon="0.975683">
        <ele>1406.0</ele>
        <time>2013-09-13T14:45:07Z</time>
      </trkpt>
      <trkpt lat="42.125250" lon="0.975700">
        <ele>1408.0</ele>
        <time>2013-09-13T14:45:08Z</time>
      </trkpt>
      <trkpt lat="42.125333" lon="0.975717">
        <ele>1410.0</ele>
        <time>2013-09-13T14:45:09Z</time>
      </trkpt>
      <trkpt lat="42.125417" lon="0.975717">
        <ele>1411.0</ele>
        <time>2013-09-13T14:45:10Z</time>
      </trkpt>
      <trkpt lat="42.125517" lon="0.975700">
        <ele>1412.0</ele>
        <time>2013-09-13T14:45:11Z</time>
      </trkpt>
      <trkpt lat="42.125600" lon="0.975667">
        <ele>1414.0</ele>
        <time>2013-09-13T14:45:12Z</time>
      </trkpt>
      <trkpt lat="42.125667" lon="0.975617">
        <ele>1415.0</ele>
        <time>2013-09-13T14:45:13Z</time>
      </trkpt>
      <trkpt lat="42.125700" lon="0.975533">
        <ele>1417.0</ele>
        <time>2013-09-13T14:45:14Z</time>
      </trkpt>
      <trkpt lat="42.125750" lon="0.975450">
        <ele>1419.0</ele>
        <time>2013-09-13T14:45:15Z</time>
      </trkpt>
      <trkpt lat="42.125783" lon="0.975367">
        <ele>1420.0</ele>
        <time>2013-09-13T14:45:16Z</time>
      </trkpt>
      <trkpt lat="42.125833" lon="0.975300">
        <ele>1421.0</ele>
        <time>2013-09-13T14:45:17Z</time>
      </trkpt>
      <trkpt lat="42.125900" lon="0.975250">
        <ele>1422.0</ele>
        <time>2013-09-13T14:45:18Z</time>
      </trkpt>
      <trkpt lat="42.125967" lon="0.975200">
        <ele>1423.0</ele>
        <time>2013-09-13T14:45:19Z</time>
      </trkpt>
      <trkpt lat="42.126033" lon="0.975167">
        <ele>1424.0</ele>
        <time>2013-09-13T14:45:20Z</time>
      </trkpt>
      <trkpt lat="42.126117" lon="0.975167">
        <ele>1425.0</ele>
        <time>2013-09-13T14:45:21Z</time>
      </trkpt>
      <trkpt lat="42.126183" lon="0.975217">
        <ele>1426.0</ele>
        <time>2013-09-13T14:45:22Z</time>
      </trkpt>
      <trkpt lat="42.126233" lon="0.975250">
        <ele>1426.0</ele>
        <time>2013-09-13T14:45:23Z</time>
      </trkpt>
      <trkpt lat="42.126317" lon="0.975317">
        <ele>1424.0</ele>
        <time>2013-09-13T14:45:24Z</time>
      </trkpt>
      <trkpt lat="42.126383" lon="0.975383">
        <ele>1423.0</ele>
        <time>2013-09-13T14:45:25Z</time>
      </trkpt>
      <trkpt lat="42.126467" lon="0.975483">
        <ele>1420.0</ele>
        <time>2013-09-13T14:45:26Z</time>
      </trkpt>
      <trkpt lat="42.126533" lon="0.975583">
        <ele>1418.0</ele>
        <time>2013-09-13T14:45:27Z</time>
      </trkpt>
      <trkpt lat="42.126583" lon="0.975700">
        <ele>1416.0</ele>
        <time>2013-09-13T14:45:28Z</time>
      </trkpt>
      <trkpt lat="42.126617" lon="0.976083">
        <ele>1415.0</ele>
        <time>2013-09-13T14:45:31Z</time>
      </trkpt>
      <trkpt lat="42.126600" lon="0.976217">
        <ele>1414.0</ele>
        <time>2013-09-13T14:45:32Z</time>
      </trkpt>
      <trkpt lat="42.126550" lon="0.976350">
        <ele>1414.0</ele>
        <time>2013-09-13T14:45:33Z</time>
      </trkpt>
      <trkpt lat="42.126500" lon="0.976467">
        <ele>1415.0</ele>
        <time>2013-09-13T14:45:34Z</time>
      </trkpt>
      <trkpt lat="42.126450" lon="0.976550">
        <ele>1417.0</ele>
        <time>2013-09-13T14:45:35Z</time>
      </trkpt>
      <trkpt lat="42.126383" lon="0.976617">
        <ele>1418.0</ele>
        <time>2013-09-13T14:45:36Z</time>
      </trkpt>
      <trkpt lat="42.126333" lon="0.976667">
        <ele>1419.0</ele>
        <time>2013-09-13T14:45:37Z</time>
      </trkpt>
      <trkpt lat="42.126267" lon="0.976717">
        <ele>1420.0</ele>
        <time>2013-09-13T14:45:38Z</time>
      </trkpt>
      <trkpt lat="42.126183" lon="0.976767">
        <ele>1420.0</ele>
        <time>2013-09-13T14:45:39Z</time>
      </trkpt>
      <trkpt lat="42.126083" lon="0.976800">
        <ele>1420.0</ele>
        <time>2013-09-13T14:45:40Z</time>
      </trkpt>
      <trkpt lat="42.126000" lon="0.976817">
        <ele>1420.0</ele>
        <time>2013-09-13T14:45:41Z</time>
      </trkpt>
      <trkpt lat="42.125917" lon="0.976833">
        <ele>1421.0</ele>
        <time>2013-09-13T14:45:42Z</time>
      </trkpt>
      <trkpt lat="42.125850" lon="0.976800">
        <ele>1423.0</ele>
        <time>2013-09-13T14:45:43Z</time>
      </trkpt>
      <trkpt lat="42.125767" lon="0.976767">
        <ele>1423.0</ele>
        <time>2013-09-13T14:45:44Z</time>
      </trkpt>
      <trkpt lat="42.125700" lon="0.976683">
        <ele>1424.0</ele>
        <time>2013-09-13T14:45:45Z</time>
      </trkpt>
      <trkpt lat="42.125650" lon="0.976600">
        <ele>1424.0</ele>
        <time>2013-09-13T14:45:46Z</time>
      </trkpt>
      <trkpt lat="42.125633" lon="0.976500">
        <ele>1424.0</ele>
        <time>2013-09-13T14:45:47Z</time>
      </trkpt>
      <trkpt lat="42.125617" lon="0.976400">
        <ele>1425.0</ele>
        <time>2013-09-13T14:45:48Z</time>
      </trkpt>
      <trkpt lat="42.125617" lon="0.976300">
        <ele>1425.0</ele>
        <time>2013-09-13T14:45:49Z</time>
      </trkpt>
      <trkpt lat="42.125650" lon="0.976200">
        <ele>1426.0</ele>
        <time>2013-09-13T14:45:50Z</time>
      </trkpt>
      <trkpt lat="42.125700" lon="0.976117">
        <ele>1426.0</ele>
        <time>2013-09-13T14:45:51Z</time>
      </trkpt>
      <trkpt lat="42.125767" lon="0.976033">
        <ele>1426.0</ele>
        <time>2013-09-13T14:45:52Z</time>
      </trkpt>
      <trkpt lat="42.125850" lon="0.975983">
        <ele>1427.0</ele>
        <time>2013-09-13T14:45:53Z</time>
      </trkpt>
      <trkpt lat="42.125917" lon="0.975950">
        <ele>1428.0</ele>
        <time>2013-09-13T14:45:54Z</time>
      </trkpt>
      <trkpt lat="42.126000" lon="0.975950">
        <ele>1430.0</ele>
        <time>2013-09-13T14:45:55Z</time>
      </trkpt>
      <trkpt lat="42.126067" lon="0.975967">
        <ele>1431.0</ele>
        <time>2013-09-13T14:45:56Z</time>
      </trkpt>
      <trkpt lat="42.126133" lon="0.976017">
        <ele>1432.0</ele>
        <time>2013-09-13T14:45:57Z</time>
      </trkpt>
      <trkpt lat="42.126200" lon="0.976083">
        <ele>1433.0</ele>
        <time>2013-09-13T14:45:58Z</time>
      </trkpt>
      <trkpt lat="42.126267" lon="0.976167">
        <ele>1434.0</ele>
        <time>2013-09-13T14:45:59Z</time>
      </trkpt>
      <trkpt lat="42.126300" lon="0.976283">
        <ele>1436.0</ele>
        <time>2013-09-13T14:46:00Z</time>
      </trkpt>
      <trkpt lat="42.126333" lon="0.976417">
        <ele>1436.0</ele>
        <time>2013-09-13T14:46:01Z</time>
      </trkpt>
      <trkpt lat="42.126333" lon="0.976550">
        <ele>1437.0</ele>
        <time>2013-09-13T14:46:02Z</time>
      </trkpt>
      <trkpt lat="42.126333" lon="0.976700">
        <ele>1438.0</ele>
        <time>2013-09-13T14:46:03Z</time>
      </trkpt>
      <trkpt lat="42.126317" lon="0.976817">
        <ele>1439.0</ele>
        <time>2013-09-13T14:46:04Z</time>
      </trkpt>
      <trkpt lat="42.126267" lon="0.976917">
        <ele>1441.0</ele>
        <time>2013-09-13T14:46:05Z</time>
      </trkpt>
      <trkpt lat="42.126200" lon="0.977000">
        <ele>1442.0</ele>
        <time>2013-09-13T14:46:06Z</time>
      </trkpt>
      <trkpt lat="42.126133" lon="0.977050">
        <ele>1444.0</ele>
        <time>2013-09-13T14:46:07Z</time>
      </trkpt>
      <trkpt lat="42.126050" lon="0.977083">
        <ele>1446.0</ele>
        <time>2013-09-13T14:46:08Z</time>
      </trkpt>
      <trkpt lat="42.125983" lon="0.977133">
        <ele>1448.0</ele>
        <time>2013-09-13T14:46:09Z</time>
      </trkpt>
      <trkpt lat="42.125917" lon="0.977150">
        <ele>1451.0</ele>
        <time>2013-09-13T14:46:10Z</time>
      </trkpt>
      <trkpt lat="42.125850" lon="0.977167">
        <ele>1453.0</ele>
        <time>2013-09-13T14:46:11Z</time>
      </trkpt>
      <trkpt lat="42.125783" lon="0.977183">
        <ele>1454.0</ele>
        <time>2013-09-13T14:46:12Z</time>
      </trkpt>
      <trkpt lat="42.125717" lon="0.977167">
        <ele>1455.0</ele>
        <time>2013-09-13T14:46:13Z</time>
      </trkpt>
      <trkpt lat="42.125650" lon="0.977117">
        <ele>1456.0</ele>
        <time>2013-09-13T14:46:14Z</time>
      </trkpt>
      <trkpt lat="42.125583" lon="0.977033">
        <ele>1457.0</ele>
        <time>2013-09-13T14:46:15Z</time>
      </trkpt>
      <trkpt lat="42.125550" lon="0.976933">
        <ele>1458.0</ele>
        <time>2013-09-13T14:46:16Z</time>
      </trkpt>
      <trkpt lat="42.125550" lon="0.976850">
        <ele>1461.0</ele>
        <time>2013-09-13T14:46:17Z</time>
      </trkpt>
      <trkpt lat="42.125567" lon="0.976783">
        <ele>1463.0</ele>
        <time>2013-09-13T14:46:18Z</time>
      </trkpt>
      <trkpt lat="42.125600" lon="0.976717">
        <ele>1465.0</ele>
        <time>2013-09-13T14:46:19Z</time>
      </trkpt>
      <trkpt lat="42.125633" lon="0.976633">
        <ele>1465.0</ele>
        <time>2013-09-13T14:46:20Z</time>
      </trkpt>
      <trkpt lat="42.125667" lon="0.976550">
        <ele>1465.0</ele>
        <time>2013-09-13T14:46:21Z</time>
      </trkpt>
      <trkpt lat="42.125717" lon="0.976467">
        <ele>1464.0</ele>
        <time>2013-09-13T14:46:22Z</time>
      </trkpt>
      <trkpt lat="42.125783" lon="0.976417">
        <ele>1465.0</ele>
        <time>2013-09-13T14:46:23Z</time>
      </trkpt>
      <trkpt lat="42.125867" lon="0.976383">
        <ele>1465.0</ele>
        <time>2013-09-13T14:46:24Z</time>
      </trkpt>
      <trkpt lat="42.125933" lon="0.976383">
        <ele>1467.0</ele>
        <time>2013-09-13T14:46:25Z</time>
      </trkpt>
      <trkpt lat="42.126017" lon="0.976433">
        <ele>1468.0</ele>
        <time>2013-09-13T14:46:26Z</time>
      </trkpt>
      <trkpt lat="42.126083" lon="0.976483">
        <ele>1468.0</ele>
        <time>2013-09-13T14:46:27Z</time>
      </trkpt>
      <trkpt lat="42.126133" lon="0.976583">
        <ele>1469.0</ele>
        <time>2013-09-13T14:46:28Z</time>
      </trkpt>
      <trkpt lat="42.126167" lon="0.976683">
        <ele>1470.0</ele>
        <time>2013-09-13T14:46:29Z</time>
      </trkpt>
      <trkpt lat="42.126183" lon="0.976783">
        <ele>1471.0</ele>
        <time>2013-09-13T14:46:30Z</time>
      </trkpt>
      <trkpt lat="42.126183" lon="0.976900">
        <ele>1471.0</ele>
        <time>2013-09-13T14:46:31Z</time>
      </trkpt>
      <trkpt lat="42.126150" lon="0.977000">
        <ele>1473.0</ele>
        <time>2013-09-13T14:46:32Z</time>
      </trkpt>
      <trkpt lat="42.126117" lon="0.977100">
        <ele>1474.0</ele>
        <time>2013-09-13T14:46:33Z</time>
      </trkpt>
      <trkpt lat="42.126067" lon="0.977183">
        <ele>1476.0</ele>
        <time>2013-09-13T14:46:34Z</time>
      </trkpt>
      <trkpt lat="42.126000" lon="0.977267">
        <ele>1478.0</ele>
        <time>2013-09-13T14:46:35Z</time>
      </trkpt>
      <trkpt lat="42.125933" lon="0.977317">
        <ele>1480.0</ele>
        <time>2013-09-13T14:46:36Z</time>
      </trkpt>
      <trkpt lat="42.125867" lon="0.977367">
        <ele>1481.0</ele>
        <time>2013-09-13T14:46:37Z</time>
      </trkpt>
      <trkpt lat="42.125783" lon="0.977383">
        <ele>1482.0</ele>
        <time>2013-09-13T14:46:38Z</time>
      </trkpt>
      <trkpt lat="42.125700" lon="0.977350">
        <ele>1483.0</ele>
        <time>2013-09-13T14:46:39Z</time>
      </trkpt>
      <trkpt lat="42.125650" lon="0.977283">
        <ele>1484.0</ele>
        <time>2013-09-13T14:46:40Z</time>
      </trkpt>
      <trkpt lat="42.125583" lon="0.977233">
        <ele>1485.0</ele>
        <time>2013-09-13T14:46:41Z</time>
      </trkpt>
      <trkpt lat="42.125550" lon="0.977183">
        <ele>1489.0</ele>
        <time>2013-09-13T14:46:42Z</time>
      </trkpt>
      <trkpt lat="42.125533" lon="0.977133">
        <ele>1491.0</ele>
        <time>2013-09-13T14:46:43Z</time>
      </trkpt>
      <trkpt lat="42.125517" lon="0.977067">
        <ele>1492.0</ele>
        <time>2013-09-13T14:46:44Z</time>
      </trkpt>
      <trkpt lat="42.125500" lon="0.976967">
        <ele>1491.0</ele>
        <time>2013-09-13T14:46:45Z</time>
      </trkpt>
      <trkpt lat="42.125517" lon="0.976850">
        <ele>1491.0</ele>
        <time>2013-09-13T14:46:46Z</time>
      </trkpt>
      <trkpt lat="42.125567" lon="0.976733">
        <ele>1491.0</ele>
        <time>2013-09-13T14:46:47Z</time>
      </trkpt>
      <trkpt lat="42.125617" lon="0.976650">
        <ele>1493.0</ele>
        <time>2013-09-13T14:46:48Z</time>
      </trkpt>
      <trkpt lat="42.125683" lon="0.976600">
        <ele>1495.0</ele>
        <time>2013-09-13T14:46:49Z</time>
      </trkpt>
      <trkpt lat="42.125750" lon="0.976567">
        <ele>1497.0</ele>
        <time>2013-09-13T14:46:50Z</time>
      </trkpt>
      <trkpt lat="42.125817" lon="0.976567">
        <ele>1498.0</ele>
        <time>2013-09-13T14:46:51Z</time>
      </trkpt>
      <trkpt lat="42.125900" lon="0.976567">
        <ele>1499.0</ele>
        <time>2013-09-13T14:46:52Z</time>
      </trkpt>
      <trkpt lat="42.125983" lon="0.976583">
        <ele>1499.0</ele>
        <time>2013-09-13T14:46:53Z</time>
      </trkpt>
      <trkpt lat="42.126067" lon="0.976633">
        <ele>1500.0</ele>
        <time>2013-09-13T14:46:54Z</time>
      </trkpt>
      <trkpt lat="42.126133" lon="0.976700">
        <ele>1501.0</ele>
        <time>2013-09-13T14:46:55Z</time>
      </trkpt>
      <trkpt lat="42.126167" lon="0.976800">
        <ele>1502.0</ele>
        <time>2013-09-13T14:46:56Z</time>
      </trkpt>
      <trkpt lat="42.126183" lon="0.976917">
        <ele>1503.0</ele>
        <time>2013-09-13T14:46:57Z</time>
      </trkpt>
      <trkpt lat="42.126200" lon="0.977050">
        <ele>1503.0</ele>
        <time>2013-09-13T14:46:58Z</time>
      </trkpt>
      <trkpt lat="42.126183" lon="0.977183">
        <ele>1504.0</ele>
        <time>2013-09-13T14:46:59Z</time>
      </trkpt>
      <trkpt lat="42.126167" lon="0.977283">
        <ele>1505.0</ele>
        <time>2013-09-13T14:47:00Z</time>
      </trkpt>
      <trkpt lat="42.126133" lon="0.977383">
        <ele>1507.0</ele>
        <time>2013-09-13T14:47:01Z</time>
      </trkpt>
      <trkpt lat="42.126083" lon="0.977467">
        <ele>1508.0</ele>
        <time>2013-09-13T14:47:02Z</time>
      </trkpt>
      <trkpt lat="42.126017" lon="0.977533">
        <ele>1508.0</ele>
        <time>2013-09-13T14:47:03Z</time>
      </trkpt>
      <trkpt lat="42.125950" lon="0.977617">
        <ele>1508.0</ele>
        <time>2013-09-13T14:47:04Z</time>
      </trkpt>
      <trkpt lat="42.125883" lon="0.977683">
        <ele>1509.0</ele>
        <time>2013-09-13T14:47:05Z</time>
      </trkpt>
      <trkpt lat="42.125800" lon="0.977733">
        <ele>1510.0</ele>
        <time>2013-09-13T14:47:06Z</time>
      </trkpt>
      <trkpt lat="42.125717" lon="0.977783">
        <ele>1510.0</ele>
        <time>2013-09-13T14:47:07Z</time>
      </trkpt>
      <trkpt lat="42.125633" lon="0.977817">
        <ele>1511.0</ele>
        <time>2013-09-13T14:47:08Z</time>
      </trkpt>
      <trkpt lat="42.125550" lon="0.977817">
        <ele>1513.0</ele>
        <time>2013-09-13T14:47:09Z</time>
      </trkpt>
      <trkpt lat="42.125467" lon="0.977817">
        <ele>1514.0</ele>
        <time>2013-09-13T14:47:10Z</time>
      </trkpt>
      <trkpt lat="42.125400" lon="0.977800">
        <ele>1515.0</ele>
        <time>2013-09-13T14:47:11Z</time>
      </trkpt>
      <trkpt lat="42.125350" lon="0.977750">
        <ele>1517.0</ele>
        <time>2013-09-13T14:47:12Z</time>
      </trkpt>
      <trkpt lat="42.125300" lon="0.977700">
        <ele>1518.0</ele>
        <time>2013-09-13T14:47:13Z</time>
      </trkpt>
      <trkpt lat="42.125250" lon="0.977617">
        <ele>1518.0</ele>
        <time>2013-09-13T14:47:14Z</time>
      </trkpt>
      <trkpt lat="42.125200" lon="0.977533">
        <ele>1518.0</ele>
        <time>2013-09-13T14:47:15Z</time>
      </trkpt>
      <trkpt lat="42.125167" lon="0.977433">
        <ele>1518.0</ele>
        <time>2013-09-13T14:47:16Z</time>
      </trkpt>
      <trkpt lat="42.125150" lon="0.977333">
        <ele>1520.0</ele>
        <time>2013-09-13T14:47:17Z</time>
      </trkpt>
      <trkpt lat="42.125133" lon="0.977250">
        <ele>1522.0</ele>
        <time>2013-09-13T14:47:18Z</time>
      </trkpt>
      <trkpt lat="42.125150" lon="0.977167">
        <ele>1525.0</ele>
        <time>2013-09-13T14:47:19Z</time>
      </trkpt>
      <trkpt lat="42.125150" lon="0.977067">
        <ele>1526.0</ele>
        <time>2013-09-13T14:47:20Z</time>
      </trkpt>
      <trkpt lat="42.125200" lon="0.976967">
        <ele>1527.0</ele>
        <time>2013-09-13T14:47:21Z</time>
      </trkpt>
      <trkpt lat="42.125250" lon="0.976867">
        <ele>1527.0</ele>
        <time>2013-09-13T14:47:22Z</time>
      </trkpt>
      <trkpt lat="42.125300" lon="0.976767">
        <ele>1528.0</ele>
        <time>2013-09-13T14:47:23Z</time>
      </trkpt>
      <trkpt lat="42.125367" lon="0.976683">
        <ele>1530.0</ele>
        <time>2013-09-13T14:47:24Z</time>
      </trkpt>
      <trkpt lat="42.125417" lon="0.976617">
        <ele>1531.0</ele>
        <time>2013-09-13T14:47:25Z</time>
      </trkpt>
      <trkpt lat="42.125467" lon="0.976567">
        <ele>1533.0</ele>
        <time>2013-09-13T14:47:26Z</time>
      </trkpt>
      <trkpt lat="42.125533" lon="0.976517">
        <ele>1534.0</ele>
        <time>2013-09-13T14:47:27Z</time>
      </trkpt>
      <trkpt lat="42.125583" lon="0.976467">
        <ele>1535.0</ele>
        <time>2013-09-13T14:47:28Z</time>
      </trkpt>
      <trkpt lat="42.125633" lon="0.976433">
        <ele>1536.0</ele>
        <time>2013-09-13T14:47:29Z</time>
      </trkpt>
      <trkpt lat="42.125683" lon="0.976400">
        <ele>1537.0</ele>
        <time>2013-09-13T14:47:30Z</time>
      </trkpt>
      <trkpt lat="42.125733" lon="0.976383">
        <ele>1537.0</ele>
        <time>2013-09-13T14:47:31Z</time>
      </trkpt>
      <trkpt lat="42.125800" lon="0.976383">
        <ele>1536.0</ele>
        <time>2013-09-13T14:47:32Z</time>
      </trkpt>
      <trkpt lat="42.125867" lon="0.976383">
        <ele>1534.0</ele>
        <time>2013-09-13T14:47:33Z</time>
      </trkpt>
      <trkpt lat="42.125950" lon="0.976433">
        <ele>1532.0</ele>
        <time>2013-09-13T14:47:34Z</time>
      </trkpt>
      <trkpt lat="42.126017" lon="0.976483">
        <ele>1530.0</ele>
        <time>2013-09-13T14:47:35Z</time>
      </trkpt>
      <trkpt lat="42.126083" lon="0.976533">
        <ele>1530.0</ele>
        <time>2013-09-13T14:47:36Z</time>
      </trkpt>
      <trkpt lat="42.126133" lon="0.976583">
        <ele>1530.0</ele>
        <time>2013-09-13T14:47:37Z</time>
      </trkpt>
      <trkpt lat="42.126183" lon="0.976650">
        <ele>1530.0</ele>
        <time>2013-09-13T14:47:38Z</time>
      </trkpt>
      <trkpt lat="42.126233" lon="0.976733">
        <ele>1529.0</ele>
        <time>2013-09-13T14:47:39Z</time>
      </trkpt>
      <trkpt lat="42.126267" lon="0.976850">
        <ele>1528.0</ele>
        <time>2013-09-13T14:47:40Z</time>
      </trkpt>
      <trkpt lat="42.126283" lon="0.976967">
        <ele>1527.0</ele>
        <time>2013-09-13T14:47:41Z</time>
      </trkpt>
      <trkpt lat="42.126283" lon="0.977100">
        <ele>1527.0</ele>
        <time>2013-09-13T14:47:42Z</time>
      </trkpt>
      <trkpt lat="42.126267" lon="0.977217">
        <ele>1527.0</ele>
        <time>2013-09-13T14:47:43Z</time>
      </trkpt>
      <trkpt lat="42.126233" lon="0.977317">
        <ele>1527.0</ele>
        <time>2013-09-13T14:47:44Z</time>
      </trkpt>
      <trkpt lat="42.126183" lon="0.977417">
        <ele>1527.0</ele>
        <time>2013-09-13T14:47:45Z</time>
      </trkpt>
      <trkpt lat="42.126117" lon="0.977500">
        <ele>1528.0</ele>
        <time>2013-09-13T14:47:46Z</time>
      </trkpt>
      <trkpt lat="42.126050" lon="0.977567">
        <ele>1528.0</ele>
        <time>2013-09-13T14:47:47Z</time>
      </trkpt>
      <trkpt lat="42.125967" lon="0.977600">
        <ele>1528.0</ele>
        <time>2013-09-13T14:47:48Z</time>
      </trkpt>
      <trkpt lat="42.125883" lon="0.977617">
        <ele>1529.0</ele>
        <time>2013-09-13T14:47:49Z</time>
      </trkpt>
      <trkpt lat="42.125783" lon="0.977633">
        <ele>1530.0</ele>
        <time>2013-09-13T14:47:50Z</time>
      </trkpt>
      <trkpt lat="42.125700" lon="0.977650">
        <ele>1531.0</ele>
        <time>2013-09-13T14:47:51Z</time>
      </trkpt>
      <trkpt lat="42.125617" lon="0.977667">
        <ele>1531.0</ele>
        <time>2013-09-13T14:47:52Z</time>
      </trkpt>
      <trkpt lat="42.125533" lon="0.977683">
        <ele>1532.0</ele>
        <time>2013-09-13T14:47:53Z</time>
      </trkpt>
      <trkpt lat="42.125467" lon="0.977683">
        <ele>1534.0</ele>
        <time>2013-09-13T14:47:54Z</time>
      </trkpt>
      <trkpt lat="42.125400" lon="0.977700">
        <ele>1536.0</ele>
        <time>2013-09-13T14:47:55Z</time>
      </trkpt>
      <trkpt lat="42.125333" lon="0.977700">
        <ele>1538.0</ele>
        <time>2013-09-13T14:47:56Z</time>
      </trkpt>
      <trkpt lat="42.125250" lon="0.977700">
        <ele>1540.0</ele>
        <time>2013-09-13T14:47:57Z</time>
      </trkpt>
      <trkpt lat="42.125183" lon="0.977683">
        <ele>1543.0</ele>
        <time>2013-09-13T14:47:58Z</time>
      </trkpt>
      <trkpt lat="42.125133" lon="0.977683">
        <ele>1546.0</ele>
        <time>2013-09-13T14:47:59Z</time>
      </trkpt>
      <trkpt lat="42.125083" lon="0.977667">
        <ele>1549.0</ele>
        <time>2013-09-13T14:48:00Z</time>
      </trkpt>
      <trkpt lat="42.125050" lon="0.977617">
        <ele>1552.0</ele>
        <time>2013-09-13T14:48:01Z</time>
      </trkpt>
      <trkpt lat="42.125033" lon="0.977550">
        <ele>1552.0</ele>
        <time>2013-09-13T14:48:02Z</time>
      </trkpt>
      <trkpt lat="42.125033" lon="0.977450">
        <ele>1551.0</ele>
        <time>2013-09-13T14:48:03Z</time>
      </trkpt>
      <trkpt lat="42.125067" lon="0.977350">
        <ele>1551.0</ele>
        <time>2013-09-13T14:48:04Z</time>
      </trkpt>
      <trkpt lat="42.125117" lon="0.977267">
        <ele>1551.0</ele>
        <time>2013-09-13T14:48:05Z</time>
      </trkpt>
      <trkpt lat="42.125183" lon="0.977217">
        <ele>1552.0</ele>
        <time>2013-09-13T14:48:06Z</time>
      </trkpt>
      <trkpt lat="42.125233" lon="0.977167">
        <ele>1553.0</ele>
        <time>2013-09-13T14:48:07Z</time>
      </trkpt>
      <trkpt lat="42.125283" lon="0.977117">
        <ele>1555.0</ele>
        <time>2013-09-13T14:48:08Z</time>
      </trkpt>
      <trkpt lat="42.125333" lon="0.977067">
        <ele>1556.0</ele>
        <time>2013-09-13T14:48:09Z</time>
      </trkpt>
      <trkpt lat="42.125383" lon="0.977033">
        <ele>1558.0</ele>
        <time>2013-09-13T14:48:10Z</time>
      </trkpt>
      <trkpt lat="42.125433" lon="0.977017">
        <ele>1558.0</ele>
        <time>2013-09-13T14:48:11Z</time>
      </trkpt>
      <trkpt lat="42.125500" lon="0.977017">
        <ele>1558.0</ele>
        <time>2013-09-13T14:48:12Z</time>
      </trkpt>
      <trkpt lat="42.125567" lon="0.977050">
        <ele>1557.0</ele>
        <time>2013-09-13T14:48:13Z</time>
      </trkpt>
      <trkpt lat="42.125633" lon="0.977100">
        <ele>1557.0</ele>
        <time>2013-09-13T14:48:14Z</time>
      </trkpt>
      <trkpt lat="42.125683" lon="0.977167">
        <ele>1557.0</ele>
        <time>2013-09-13T14:48:15Z</time>
      </trkpt>
      <trkpt lat="42.125733" lon="0.977250">
        <ele>1557.0</ele>
        <time>2013-09-13T14:48:16Z</time>
      </trkpt>
      <trkpt lat="42.125767" lon="0.977333">
        <ele>1557.0</ele>
        <time>2013-09-13T14:48:17Z</time>
      </trkpt>
      <trkpt lat="42.125767" lon="0.977450">
        <ele>1557.0</ele>
        <time>2013-09-13T14:48:18Z</time>
      </trkpt>
      <trkpt lat="42.125750" lon="0.977583">
        <ele>1556.0</ele>
        <time>2013-09-13T14:48:19Z</time>
      </trkpt>
      <trkpt lat="42.125717" lon="0.977700">
        <ele>1556.0</ele>
        <time>2013-09-13T14:48:20Z</time>
      </trkpt>
      <trkpt lat="42.125667" lon="0.977817">
        <ele>1556.0</ele>
        <time>2013-09-13T14:48:21Z</time>
      </trkpt>
      <trkpt lat="42.125600" lon="0.977900">
        <ele>1557.0</ele>
        <time>2013-09-13T14:48:22Z</time>
      </trkpt>
      <trkpt lat="42.125533" lon="0.977967">
        <ele>1558.0</ele>
        <time>2013-09-13T14:48:23Z</time>
      </trkpt>
      <trkpt lat="42.125467" lon="0.978017">
        <ele>1558.0</ele>
        <time>2013-09-13T14:48:24Z</time>
      </trkpt>
      <trkpt lat="42.125383" lon="0.978050">
        <ele>1559.0</ele>
        <time>2013-09-13T14:48:25Z</time>
      </trkpt>
      <trkpt lat="42.125300" lon="0.978067">
        <ele>1558.0</ele>
        <time>2013-09-13T14:48:26Z</time>
      </trkpt>
      <trkpt lat="42.125200" lon="0.978050">
        <ele>1558.0</ele>
        <time>2013-09-13T14:48:27Z</time>
      </trkpt>
      <trkpt lat="42.125117" lon="0.978033">
        <ele>1558.0</ele>
        <time>2013-09-13T14:48:28Z</time>
      </trkpt>
      <trkpt lat="42.125067" lon="0.978000">
        <ele>1561.0</ele>
        <time>2013-09-13T14:48:29Z</time>
      </trkpt>
      <trkpt lat="42.125033" lon="0.977983">
        <ele>1564.0</ele>
        <time>2013-09-13T14:48:30Z</time>
      </trkpt>
      <trkpt lat="42.124983" lon="0.977967">
        <ele>1566.0</ele>
        <time>2013-09-13T14:48:31Z</time>
      </trkpt>
      <trkpt lat="42.124933" lon="0.977950">
        <ele>1568.0</ele>
        <time>2013-09-13T14:48:32Z</time>
      </trkpt>
      <trkpt lat="42.124867" lon="0.977917">
        <ele>1568.0</ele>
        <time>2013-09-13T14:48:33Z</time>
      </trkpt>
      <trkpt lat="42.124800" lon="0.977883">
        <ele>1569.0</ele>
        <time>2013-09-13T14:48:34Z</time>
      </trkpt>
      <trkpt lat="42.124750" lon="0.977867">
        <ele>1569.0</ele>
        <time>2013-09-13T14:48:35Z</time>
      </trkpt>
      <trkpt lat="42.124700" lon="0.977833">
        <ele>1569.0</ele>
        <time>2013-09-13T14:48:36Z</time>
      </trkpt>
      <trkpt lat="42.124667" lon="0.977783">
        <ele>1567.0</ele>
        <time>2013-09-13T14:48:37Z</time>
      </trkpt>
      <trkpt lat="42.124633" lon="0.977700">
        <ele>1566.0</ele>
        <time>2013-09-13T14:48:38Z</time>
      </trkpt>
      <trkpt lat="42.124600" lon="0.977600">
        <ele>1564.0</ele>
        <time>2013-09-13T14:48:39Z</time>
      </trkpt>
      <trkpt lat="42.124567" lon="0.977500">
        <ele>1562.0</ele>
        <time>2013-09-13T14:48:40Z</time>
      </trkpt>
      <trkpt lat="42.124550" lon="0.977417">
        <ele>1561.0</ele>
        <time>2013-09-13T14:48:41Z</time>
      </trkpt>
      <trkpt lat="42.124533" lon="0.977333">
        <ele>1560.0</ele>
        <time>2013-09-13T14:48:42Z</time>
      </trkpt>
      <trkpt lat="42.124533" lon="0.977250">
        <ele>1558.0</ele>
        <time>2013-09-13T14:48:43Z</time>
      </trkpt>
      <trkpt lat="42.124517" lon="0.977167">
        <ele>1557.0</ele>
        <time>2013-09-13T14:48:44Z</time>
      </trkpt>
      <trkpt lat="42.124433" lon="0.976917">
        <ele>1552.0</ele>
        <time>2013-09-13T14:48:47Z</time>
      </trkpt>
      <trkpt lat="42.124400" lon="0.976833">
        <ele>1550.0</ele>
        <time>2013-09-13T14:48:48Z</time>
      </trkpt>
      <trkpt lat="42.124350" lon="0.976767">
        <ele>1549.0</ele>
        <time>2013-09-13T14:48:49Z</time>
      </trkpt>
      <trkpt lat="42.124300" lon="0.976700">
        <ele>1548.0</ele>
        <time>2013-09-13T14:48:50Z</time>
      </trkpt>
      <trkpt lat="42.124250" lon="0.976633">
        <ele>1546.0</ele>
        <time>2013-09-13T14:48:51Z</time>
      </trkpt>
      <trkpt lat="42.124200" lon="0.976583">
        <ele>1544.0</ele>
        <time>2013-09-13T14:48:52Z</time>
      </trkpt>
      <trkpt lat="42.124133" lon="0.976517">
        <ele>1542.0</ele>
        <time>2013-09-13T14:48:53Z</time>
      </trkpt>
      <trkpt lat="42.124067" lon="0.976450">
        <ele>1538.0</ele>
        <time>2013-09-13T14:48:54Z</time>
      </trkpt>
      <trkpt lat="42.124017" lon="0.976383">
        <ele>1535.0</ele>
        <time>2013-09-13T14:48:55Z</time>
      </trkpt>
      <trkpt lat="42.124000" lon="0.976300">
        <ele>1532.0</ele>
        <time>2013-09-13T14:48:56Z</time>
      </trkpt>
      <trkpt lat="42.123983" lon="0.976200">
        <ele>1529.0</ele>
        <time>2013-09-13T14:48:57Z</time>
      </trkpt>
      <trkpt lat="42.123983" lon="0.976117">
        <ele>1526.0</ele>
        <time>2013-09-13T14:48:58Z</time>
      </trkpt>
      <trkpt lat="42.123983" lon="0.976033">
        <ele>1524.0</ele>
        <time>2013-09-13T14:48:59Z</time>
      </trkpt>
      <trkpt lat="42.124000" lon="0.975950">
        <ele>1522.0</ele>
        <time>2013-09-13T14:49:00Z</time>
      </trkpt>
      <trkpt lat="42.124017" lon="0.975867">
        <ele>1519.0</ele>
        <time>2013-09-13T14:49:01Z</time>
      </trkpt>
      <trkpt lat="42.124033" lon="0.975800">
        <ele>1517.0</ele>
        <time>2013-09-13T14:49:02Z</time>
      </trkpt>
      <trkpt lat="42.124067" lon="0.975733">
        <ele>1514.0</ele>
        <time>2013-09-13T14:49:03Z</time>
      </trkpt>
      <trkpt lat="42.124117" lon="0.975683">
        <ele>1512.0</ele>
        <time>2013-09-13T14:49:04Z</time>
      </trkpt>
      <trkpt lat="42.124183" lon="0.975683">
        <ele>1509.0</ele>
        <time>2013-09-13T14:49:05Z</time>
      </trkpt>
      <trkpt lat="42.124250" lon="0.975700">
        <ele>1507.0</ele>
        <time>2013-09-13T14:49:06Z</time>
      </trkpt>
      <trkpt lat="42.124333" lon="0.975750">
        <ele>1504.0</ele>
        <time>2013-09-13T14:49:07Z</time>
      </trkpt>
      <trkpt lat="42.124400" lon="0.975800">
        <ele>1501.0</ele>
        <time>2013-09-13T14:49:08Z</time>
      </trkpt>
      <trkpt lat="42.124467" lon="0.975867">
        <ele>1499.0</ele>
        <time>2013-09-13T14:49:09Z</time>
      </trkpt>
      <trkpt lat="42.124533" lon="0.975933">
        <ele>1496.0</ele>
        <time>2013-09-13T14:49:10Z</time>
      </trkpt>
      <trkpt lat="42.124600" lon="0.975983">
        <ele>1494.0</ele>
        <time>2013-09-13T14:49:11Z</time>
      </trkpt>
      <trkpt lat="42.124683" lon="0.976017">
        <ele>1491.0</ele>
        <time>2013-09-13T14:49:12Z</time>
      </trkpt>
      <trkpt lat="42.124750" lon="0.976067">
        <ele>1488.0</ele>
        <time>2013-09-13T14:49:13Z</time>
      </trkpt>
      <trkpt lat="42.124817" lon="0.976117">
        <ele>1486.0</ele>
        <time>2013-09-13T14:49:14Z</time>
      </trkpt>
      <trkpt lat="42.124883" lon="0.976150">
        <ele>1484.0</ele>
        <time>2013-09-13T14:49:15Z</time>
      </trkpt>
      <trkpt lat="42.124950" lon="0.976200">
        <ele>1481.0</ele>
        <time>2013-09-13T14:49:16Z</time>
      </trkpt>
      <trkpt lat="42.125033" lon="0.976233">
        <ele>1478.0</ele>
        <time>2013-09-13T14:49:17Z</time>
      </trkpt>
      <trkpt lat="42.125100" lon="0.976283">
        <ele>1476.0</ele>
        <time>2013-09-13T14:49:18Z</time>
      </trkpt>
      <trkpt lat="42.125167" lon="0.976350">
        <ele>1473.0</ele>
        <time>2013-09-13T14:49:19Z</time>
      </trkpt>
      <trkpt lat="42.125233" lon="0.976433">
        <ele>1471.0</ele>
        <time>2013-09-13T14:49:20Z</time>
      </trkpt>
      <trkpt lat="42.125283" lon="0.976533">
        <ele>1468.0</ele>
        <time>2013-09-13T14:49:21Z</time>
      </trkpt>
      <trkpt lat="42.125333" lon="0.976633">
        <ele>1466.0</ele>
        <time>2013-09-13T14:49:22Z</time>
      </trkpt>
      <trkpt lat="42.125383" lon="0.976733">
        <ele>1463.0</ele>
        <time>2013-09-13T14:49:23Z</time>
      </trkpt>
      <trkpt lat="42.125417" lon="0.976817">
        <ele>1461.0</ele>
        <time>2013-09-13T14:49:24Z</time>
      </trkpt>
      <trkpt lat="42.125467" lon="0.976917">
        <ele>1459.0</ele>
        <time>2013-09-13T14:49:25Z</time>
      </trkpt>
      <trkpt lat="42.125517" lon="0.977017">
        <ele>1456.0</ele>
        <time>2013-09-13T14:49:26Z</time>
      </trkpt>
      <trkpt lat="42.125550" lon="0.977117">
        <ele>1454.0</ele>
        <time>2013-09-13T14:49:27Z</time>
      </trkpt>
      <trkpt lat="42.125583" lon="0.977217">
        <ele>1452.0</ele>
        <time>2013-09-13T14:49:28Z</time>
      </trkpt>
      <trkpt lat="42.125617" lon="0.977317">
        <ele>1450.0</ele>
        <time>2013-09-13T14:49:29Z</time>
      </trkpt>
      <trkpt lat="42.125650" lon="0.977433">
        <ele>1447.0</ele>
        <time>2013-09-13T14:49:30Z</time>
      </trkpt>
      <trkpt lat="42.125667" lon="0.977550">
        <ele>1445.0</ele>
        <time>2013-09-13T14:49:31Z</time>
      </trkpt>
      <trkpt lat="42.125700" lon="0.977650">
        <ele>1442.0</ele>
        <time>2013-09-13T14:49:32Z</time>
      </trkpt>
      <trkpt lat="42.125717" lon="0.977767">
        <ele>1440.0</ele>
        <time>2013-09-13T14:49:33Z</time>
      </trkpt>
      <trkpt lat="42.125733" lon="0.977883">
        <ele>1439.0</ele>
        <time>2013-09-13T14:49:34Z</time>
      </trkpt>
      <trkpt lat="42.125750" lon="0.978000">
        <ele>1438.0</ele>
        <time>2013-09-13T14:49:35Z</time>
      </trkpt>
      <trkpt lat="42.125767" lon="0.978100">
        <ele>1438.0</ele>
        <time>2013-09-13T14:49:36Z</time>
      </trkpt>
      <trkpt lat="42.125767" lon="0.978200">
        <ele>1437.0</ele>
        <time>2013-09-13T14:49:37Z</time>
      </trkpt>
      <trkpt lat="42.125783" lon="0.978300">
        <ele>1436.0</ele>
        <time>2013-09-13T14:49:38Z</time>
      </trkpt>
      <trkpt lat="42.125800" lon="0.978400">
        <ele>1435.0</ele>
        <time>2013-09-13T14:49:39Z</time>
      </trkpt>
      <trkpt lat="42.125817" lon="0.978517">
        <ele>1434.0</ele>
        <time>2013-09-13T14:49:40Z</time>
      </trkpt>
      <trkpt lat="42.125833" lon="0.978617">
        <ele>1433.0</ele>
        <time>2013-09-13T14:49:41Z</time>
      </trkpt>
      <trkpt lat="42.125850" lon="0.978717">
        <ele>1433.0</ele>
        <time>2013-09-13T14:49:42Z</time>
      </trkpt>
      <trkpt lat="42.125883" lon="0.978817">
        <ele>1433.0</ele>
        <time>2013-09-13T14:49:43Z</time>
      </trkpt>
      <trkpt lat="42.125900" lon="0.979017">
        <ele>1433.0</ele>
        <time>2013-09-13T14:49:45Z</time>
      </trkpt>
      <trkpt lat="42.125900" lon="0.979133">
        <ele>1434.0</ele>
        <time>2013-09-13T14:49:46Z</time>
      </trkpt>
      <trkpt lat="42.125917" lon="0.979217">
        <ele>1435.0</ele>
        <time>2013-09-13T14:49:47Z</time>
      </trkpt>
      <trkpt lat="42.125917" lon="0.979300">
        <ele>1437.0</ele>
        <time>2013-09-13T14:49:48Z</time>
      </trkpt>
      <trkpt lat="42.125900" lon="0.979383">
        <ele>1438.0</ele>
        <time>2013-09-13T14:49:49Z</time>
      </trkpt>
      <trkpt lat="42.125850" lon="0.979483">
        <ele>1439.0</ele>
        <time>2013-09-13T14:49:50Z</time>
      </trkpt>
      <trkpt lat="42.125800" lon="0.979567">
        <ele>1439.0</ele>
        <time>2013-09-13T14:49:51Z</time>
      </trkpt>
      <trkpt lat="42.125717" lon="0.979633">
        <ele>1440.0</ele>
        <time>2013-09-13T14:49:52Z</time>
      </trkpt>
      <trkpt lat="42.125633" lon="0.979650">
        <ele>1441.0</ele>
        <time>2013-09-13T14:49:53Z</time>
      </trkpt>
      <trkpt lat="42.125550" lon="0.979650">
        <ele>1442.0</ele>
        <time>2013-09-13T14:49:54Z</time>
      </trkpt>
      <trkpt lat="42.125467" lon="0.979617">
        <ele>1443.0</ele>
        <time>2013-09-13T14:49:55Z</time>
      </trkpt>
      <trkpt lat="42.125400" lon="0.979583">
        <ele>1444.0</ele>
        <time>2013-09-13T14:49:56Z</time>
      </trkpt>
      <trkpt lat="42.125333" lon="0.979550">
        <ele>1446.0</ele>
        <time>2013-09-13T14:49:57Z</time>
      </trkpt>
      <trkpt lat="42.125283" lon="0.979500">
        <ele>1446.0</ele>
        <time>2013-09-13T14:49:58Z</time>
      </trkpt>
      <trkpt lat="42.125217" lon="0.979417">
        <ele>1447.0</ele>
        <time>2013-09-13T14:49:59Z</time>
      </trkpt>
      <trkpt lat="42.125167" lon="0.979333">
        <ele>1446.0</ele>
        <time>2013-09-13T14:50:00Z</time>
      </trkpt>
      <trkpt lat="42.125133" lon="0.979233">
        <ele>1445.0</ele>
        <time>2013-09-13T14:50:01Z</time>
      </trkpt>
      <trkpt lat="42.125100" lon="0.979150">
        <ele>1445.0</ele>
        <time>2013-09-13T14:50:02Z</time>
      </trkpt>
      <trkpt lat="42.125100" lon="0.979050">
        <ele>1445.0</ele>
        <time>2013-09-13T14:50:03Z</time>
      </trkpt>
      <trkpt lat="42.125100" lon="0.978950">
        <ele>1445.0</ele>
        <time>2013-09-13T14:50:04Z</time>
      </trkpt>
      <trkpt lat="42.125133" lon="0.978883">
        <ele>1443.0</ele>
        <time>2013-09-13T14:50:05Z</time>
      </trkpt>
      <trkpt lat="42.125167" lon="0.978833">
        <ele>1442.0</ele>
        <time>2013-09-13T14:50:06Z</time>
      </trkpt>
      <trkpt lat="42.125217" lon="0.978783">
        <ele>1440.0</ele>
        <time>2013-09-13T14:50:07Z</time>
      </trkpt>
      <trkpt lat="42.125250" lon="0.978733">
        <ele>1439.0</ele>
        <time>2013-09-13T14:50:08Z</time>
      </trkpt>
      <trkpt lat="42.125317" lon="0.978700">
        <ele>1438.0</ele>
        <time>2013-09-13T14:50:09Z</time>
      </trkpt>
      <trkpt lat="42.125350" lon="0.978683">
        <ele>1437.0</ele>
        <time>2013-09-13T14:50:10Z</time>
      </trkpt>
      <trkpt lat="42.125400" lon="0.978683">
        <ele>1436.0</ele>
        <time>2013-09-13T14:50:11Z</time>
      </trkpt>
      <trkpt lat="42.125467" lon="0.978700">
        <ele>1435.0</ele>
        <time>2013-09-13T14:50:12Z</time>
      </trkpt>
      <trkpt lat="42.125517" lon="0.978733">
        <ele>1433.0</ele>
        <time>2013-09-13T14:50:13Z</time>
      </trkpt>
      <trkpt lat="42.125600" lon="0.978783">
        <ele>1430.0</ele>
        <time>2013-09-13T14:50:14Z</time>
      </trkpt>
      <trkpt lat="42.125667" lon="0.978850">
        <ele>1427.0</ele>
        <time>2013-09-13T14:50:15Z</time>
      </trkpt>
      <trkpt lat="42.125733" lon="0.978933">
        <ele>1425.0</ele>
        <time>2013-09-13T14:50:16Z</time>
      </trkpt>
      <trkpt lat="42.125783" lon="0.979017">
        <ele>1424.0</ele>
        <time>2013-09-13T14:50:17Z</time>
      </trkpt>
      <trkpt lat="42.125833" lon="0.979100">
        <ele>1424.0</ele>
        <time>2013-09-13T14:50:18Z</time>
      </trkpt>
      <trkpt lat="42.125883" lon="0.979167">
        <ele>1423.0</ele>
        <time>2013-09-13T14:50:19Z</time>
      </trkpt>
      <trkpt lat="42.125917" lon="0.979250">
        <ele>1423.0</ele>
        <time>2013-09-13T14:50:20Z</time>
      </trkpt>
      <trkpt lat="42.125967" lon="0.979317">
        <ele>1422.0</ele>
        <time>2013-09-13T14:50:21Z</time>
      </trkpt>
      <trkpt lat="42.126000" lon="0.979400">
        <ele>1422.0</ele>
        <time>2013-09-13T14:50:22Z</time>
      </trkpt>
      <trkpt lat="42.126033" lon="0.979500">
        <ele>1421.0</ele>
        <time>2013-09-13T14:50:23Z</time>
      </trkpt>
      <trkpt lat="42.126067" lon="0.979583">
        <ele>1420.0</ele>
        <time>2013-09-13T14:50:24Z</time>
      </trkpt>
      <trkpt lat="42.126117" lon="0.979683">
        <ele>1420.0</ele>
        <time>2013-09-13T14:50:25Z</time>
      </trkpt>
      <trkpt lat="42.126150" lon="0.979767">
        <ele>1420.0</ele>
        <time>2013-09-13T14:50:26Z</time>
      </trkpt>
      <trkpt lat="42.126183" lon="0.979950">
        <ele>1420.0</ele>
        <time>2013-09-13T14:50:28Z</time>
      </trkpt>
      <trkpt lat="42.126200" lon="0.980050">
        <ele>1421.0</ele>
        <time>2013-09-13T14:50:29Z</time>
      </trkpt>
      <trkpt lat="42.126200" lon="0.980167">
        <ele>1422.0</ele>
        <time>2013-09-13T14:50:30Z</time>
      </trkpt>
      <trkpt lat="42.126200" lon="0.980267">
        <ele>1423.0</ele>
        <time>2013-09-13T14:50:31Z</time>
      </trkpt>
      <trkpt lat="42.126200" lon="0.980367">
        <ele>1424.0</ele>
        <time>2013-09-13T14:50:32Z</time>
      </trkpt>
      <trkpt lat="42.126200" lon="0.980467">
        <ele>1425.0</ele>
        <time>2013-09-13T14:50:33Z</time>
      </trkpt>
      <trkpt lat="42.126200" lon="0.980567">
        <ele>1426.0</ele>
        <time>2013-09-13T14:50:34Z</time>
      </trkpt>
      <trkpt lat="42.126200" lon="0.980683">
        <ele>1427.0</ele>
        <time>2013-09-13T14:50:35Z</time>
      </trkpt>
      <trkpt lat="42.126200" lon="0.980800">
        <ele>1428.0</ele>
        <time>2013-09-13T14:50:36Z</time>
      </trkpt>
      <trkpt lat="42.126217" lon="0.980917">
        <ele>1429.0</ele>
        <time>2013-09-13T14:50:37Z</time>
      </trkpt>
      <trkpt lat="42.126217" lon="0.981017">
        <ele>1431.0</ele>
        <time>2013-09-13T14:50:38Z</time>
      </trkpt>
      <trkpt lat="42.126217" lon="0.981117">
        <ele>1434.0</ele>
        <time>2013-09-13T14:50:39Z</time>
      </trkpt>
      <trkpt lat="42.126217" lon="0.981217">
        <ele>1436.0</ele>
        <time>2013-09-13T14:50:40Z</time>
      </trkpt>
      <trkpt lat="42.126200" lon="0.981333">
        <ele>1437.0</ele>
        <time>2013-09-13T14:50:41Z</time>
      </trkpt>
      <trkpt lat="42.126167" lon="0.981450">
        <ele>1438.0</ele>
        <time>2013-09-13T14:50:42Z</time>
      </trkpt>
      <trkpt lat="42.126117" lon="0.981550">
        <ele>1440.0</ele>
        <time>2013-09-13T14:50:43Z</time>
      </trkpt>
      <trkpt lat="42.126067" lon="0.981633">
        <ele>1443.0</ele>
        <time>2013-09-13T14:50:44Z</time>
      </trkpt>
      <trkpt lat="42.126033" lon="0.981700">
        <ele>1447.0</ele>
        <time>2013-09-13T14:50:45Z</time>
      </trkpt>
      <trkpt lat="42.125983" lon="0.981783">
        <ele>1450.0</ele>
        <time>2013-09-13T14:50:46Z</time>
      </trkpt>
      <trkpt lat="42.125933" lon="0.981833">
        <ele>1453.0</ele>
        <time>2013-09-13T14:50:47Z</time>
      </trkpt>
      <trkpt lat="42.125867" lon="0.981867">
        <ele>1455.0</ele>
        <time>2013-09-13T14:50:48Z</time>
      </trkpt>
      <trkpt lat="42.125800" lon="0.981867">
        <ele>1457.0</ele>
        <time>2013-09-13T14:50:49Z</time>
      </trkpt>
      <trkpt lat="42.125750" lon="0.981817">
        <ele>1459.0</ele>
        <time>2013-09-13T14:50:50Z</time>
      </trkpt>
      <trkpt lat="42.125700" lon="0.981733">
        <ele>1461.0</ele>
        <time>2013-09-13T14:50:51Z</time>
      </trkpt>
      <trkpt lat="42.125700" lon="0.981650">
        <ele>1465.0</ele>
        <time>2013-09-13T14:50:52Z</time>
      </trkpt>
      <trkpt lat="42.125700" lon="0.981550">
        <ele>1467.0</ele>
        <time>2013-09-13T14:50:53Z</time>
      </trkpt>
      <trkpt lat="42.125733" lon="0.981450">
        <ele>1470.0</ele>
        <time>2013-09-13T14:50:54Z</time>
      </trkpt>
      <trkpt lat="42.125783" lon="0.981367">
        <ele>1473.0</ele>
        <time>2013-09-13T14:50:55Z</time>
      </trkpt>
      <trkpt lat="42.125850" lon="0.981267">
        <ele>1474.0</ele>
        <time>2013-09-13T14:50:56Z</time>
      </trkpt>
      <trkpt lat="42.125900" lon="0.981183">
        <ele>1476.0</ele>
        <time>2013-09-13T14:50:57Z</time>
      </trkpt>
      <trkpt lat="42.125983" lon="0.981117">
        <ele>1478.0</ele>
        <time>2013-09-13T14:50:58Z</time>
      </trkpt>
      <trkpt lat="42.126067" lon="0.981067">
        <ele>1479.0</ele>
        <time>2013-09-13T14:50:59Z</time>
      </trkpt>
      <trkpt lat="42.126167" lon="0.981050">
        <ele>1480.0</ele>
        <time>2013-09-13T14:51:00Z</time>
      </trkpt>
      <trkpt lat="42.126267" lon="0.981050">
        <ele>1481.0</ele>
        <time>2013-09-13T14:51:01Z</time>
      </trkpt>
      <trkpt lat="42.126350" lon="0.981100">
        <ele>1482.0</ele>
        <time>2013-09-13T14:51:02Z</time>
      </trkpt>
      <trkpt lat="42.126433" lon="0.981150">
        <ele>1483.0</ele>
        <time>2013-09-13T14:51:03Z</time>
      </trkpt>
      <trkpt lat="42.126500" lon="0.981233">
        <ele>1484.0</ele>
        <time>2013-09-13T14:51:04Z</time>
      </trkpt>
      <trkpt lat="42.126550" lon="0.981333">
        <ele>1485.0</ele>
        <time>2013-09-13T14:51:05Z</time>
      </trkpt>
      <trkpt lat="42.126583" lon="0.981433">
        <ele>1486.0</ele>
        <time>2013-09-13T14:51:06Z</time>
      </trkpt>
      <trkpt lat="42.126600" lon="0.981550">
        <ele>1487.0</ele>
        <time>2013-09-13T14:51:07Z</time>
      </trkpt>
      <trkpt lat="42.126583" lon="0.981667">
        <ele>1488.0</ele>
        <time>2013-09-13T14:51:08Z</time>
      </trkpt>
      <trkpt lat="42.126567" lon="0.981767">
        <ele>1489.0</ele>
        <time>2013-09-13T14:51:09Z</time>
      </trkpt>
      <trkpt lat="42.126517" lon="0.981850">
        <ele>1490.0</ele>
        <time>2013-09-13T14:51:10Z</time>
      </trkpt>
      <trkpt lat="42.126450" lon="0.981900">
        <ele>1492.0</ele>
        <time>2013-09-13T14:51:11Z</time>
      </trkpt>
      <trkpt lat="42.126400" lon="0.981917">
        <ele>1494.0</ele>
        <time>2013-09-13T14:51:12Z</time>
      </trkpt>
      <trkpt lat="42.126333" lon="0.981917">
        <ele>1496.0</ele>
        <time>2013-09-13T14:51:13Z</time>
      </trkpt>
      <trkpt lat="42.126267" lon="0.981900">
        <ele>1497.0</ele>
        <time>2013-09-13T14:51:14Z</time>
      </trkpt>
      <trkpt lat="42.126233" lon="0.981850">
        <ele>1499.0</ele>
        <time>2013-09-13T14:51:15Z</time>
      </trkpt>
      <trkpt lat="42.126200" lon="0.981783">
        <ele>1501.0</ele>
        <time>2013-09-13T14:51:16Z</time>
      </trkpt>
      <trkpt lat="42.126183" lon="0.981700">
        <ele>1502.0</ele>
        <time>2013-09-13T14:51:17Z</time>
      </trkpt>
      <trkpt lat="42.126200" lon="0.981600">
        <ele>1503.0</ele>
        <time>2013-09-13T14:51:18Z</time>
      </trkpt>
      <trkpt lat="42.126233" lon="0.981500">
        <ele>1505.0</ele>
        <time>2013-09-13T14:51:19Z</time>
      </trkpt>
      <trkpt lat="42.126267" lon="0.981400">
        <ele>1507.0</ele>
        <time>2013-09-13T14:51:20Z</time>
      </trkpt>
      <trkpt lat="42.126333" lon="0.981317">
        <ele>1508.0</ele>
        <time>2013-09-13T14:51:21Z</time>
      </trkpt>
      <trkpt lat="42.126400" lon="0.981250">
        <ele>1509.0</ele>
        <time>2013-09-13T14:51:22Z</time>
      </trkpt>
      <trkpt lat="42.126500" lon="0.981200">
        <ele>1509.0</ele>
        <time>2013-09-13T14:51:23Z</time>
      </trkpt>
      <trkpt lat="42.126600" lon="0.981167">
        <ele>1509.0</ele>
        <time>2013-09-13T14:51:24Z</time>
      </trkpt>
      <trkpt lat="42.126683" lon="0.981167">
        <ele>1510.0</ele>
        <time>2013-09-13T14:51:25Z</time>
      </trkpt>
      <trkpt lat="42.126767" lon="0.981183">
        <ele>1511.0</ele>
        <time>2013-09-13T14:51:26Z</time>
      </trkpt>
      <trkpt lat="42.126833" lon="0.981217">
        <ele>1512.0</ele>
        <time>2013-09-13T14:51:27Z</time>
      </trkpt>
      <trkpt lat="42.126900" lon="0.981283">
        <ele>1513.0</ele>
        <time>2013-09-13T14:51:28Z</time>
      </trkpt>
      <trkpt lat="42.126967" lon="0.981350">
        <ele>1513.0</ele>
        <time>2013-09-13T14:51:29Z</time>
      </trkpt>
      <trkpt lat="42.127017" lon="0.981450">
        <ele>1514.0</ele>
        <time>2013-09-13T14:51:30Z</time>
      </trkpt>
      <trkpt lat="42.127050" lon="0.981550">
        <ele>1515.0</ele>
        <time>2013-09-13T14:51:31Z</time>
      </trkpt>
      <trkpt lat="42.127050" lon="0.981650">
        <ele>1517.0</ele>
        <time>2013-09-13T14:51:32Z</time>
      </trkpt>
      <trkpt lat="42.127033" lon="0.981767">
        <ele>1518.0</ele>
        <time>2013-09-13T14:51:33Z</time>
      </trkpt>
      <trkpt lat="42.127000" lon="0.981850">
        <ele>1519.0</ele>
        <time>2013-09-13T14:51:34Z</time>
      </trkpt>
      <trkpt lat="42.126950" lon="0.981933">
        <ele>1520.0</ele>
        <time>2013-09-13T14:51:35Z</time>
      </trkpt>
      <trkpt lat="42.126883" lon="0.981983">
        <ele>1522.0</ele>
        <time>2013-09-13T14:51:36Z</time>
      </trkpt>
      <trkpt lat="42.126800" lon="0.982017">
        <ele>1523.0</ele>
        <time>2013-09-13T14:51:37Z</time>
      </trkpt>
      <trkpt lat="42.126750" lon="0.982017">
        <ele>1526.0</ele>
        <time>2013-09-13T14:51:38Z</time>
      </trkpt>
      <trkpt lat="42.126683" lon="0.982000">
        <ele>1529.0</ele>
        <time>2013-09-13T14:51:39Z</time>
      </trkpt>
      <trkpt lat="42.126650" lon="0.981983">
        <ele>1532.0</ele>
        <time>2013-09-13T14:51:40Z</time>
      </trkpt>
      <trkpt lat="42.126600" lon="0.981933">
        <ele>1535.0</ele>
        <time>2013-09-13T14:51:41Z</time>
      </trkpt>
      <trkpt lat="42.126567" lon="0.981850">
        <ele>1537.0</ele>
        <time>2013-09-13T14:51:42Z</time>
      </trkpt>
      <trkpt lat="42.126533" lon="0.981750">
        <ele>1538.0</ele>
        <time>2013-09-13T14:51:43Z</time>
      </trkpt>
      <trkpt lat="42.126550" lon="0.981633">
        <ele>1540.0</ele>
        <time>2013-09-13T14:51:44Z</time>
      </trkpt>
      <trkpt lat="42.126600" lon="0.981533">
        <ele>1541.0</ele>
        <time>2013-09-13T14:51:45Z</time>
      </trkpt>
      <trkpt lat="42.126667" lon="0.981467">
        <ele>1542.0</ele>
        <time>2013-09-13T14:51:46Z</time>
      </trkpt>
      <trkpt lat="42.126750" lon="0.981417">
        <ele>1543.0</ele>
        <time>2013-09-13T14:51:47Z</time>
      </trkpt>
      <trkpt lat="42.126850" lon="0.981383">
        <ele>1543.0</ele>
        <time>2013-09-13T14:51:48Z</time>
      </trkpt>
      <trkpt lat="42.126933" lon="0.981383">
        <ele>1543.0</ele>
        <time>2013-09-13T14:51:49Z</time>
      </trkpt>
      <trkpt lat="42.127033" lon="0.981400">
        <ele>1543.0</ele>
        <time>2013-09-13T14:51:50Z</time>
      </trkpt>
      <trkpt lat="42.127133" lon="0.981450">
        <ele>1543.0</ele>
        <time>2013-09-13T14:51:51Z</time>
      </trkpt>
      <trkpt lat="42.127217" lon="0.981517">
        <ele>1543.0</ele>
        <time>2013-09-13T14:51:52Z</time>
      </trkpt>
      <trkpt lat="42.127283" lon="0.981583">
        <ele>1543.0</ele>
        <time>2013-09-13T14:51:53Z</time>
      </trkpt>
      <trkpt lat="42.127333" lon="0.981683">
        <ele>1544.0</ele>
        <time>2013-09-13T14:51:54Z</time>
      </trkpt>
      <trkpt lat="42.127367" lon="0.981800">
        <ele>1545.0</ele>
        <time>2013-09-13T14:51:55Z</time>
      </trkpt>
      <trkpt lat="42.127367" lon="0.981933">
        <ele>1546.0</ele>
        <time>2013-09-13T14:51:56Z</time>
      </trkpt>
      <trkpt lat="42.127367" lon="0.982067">
        <ele>1548.0</ele>
        <time>2013-09-13T14:51:57Z</time>
      </trkpt>
      <trkpt lat="42.127350" lon="0.982167">
        <ele>1551.0</ele>
        <time>2013-09-13T14:51:58Z</time>
      </trkpt>
      <trkpt lat="42.127333" lon="0.982250">
        <ele>1554.0</ele>
        <time>2013-09-13T14:51:59Z</time>
      </trkpt>
      <trkpt lat="42.127267" lon="0.982333">
        <ele>1555.0</ele>
        <time>2013-09-13T14:52:00Z</time>
      </trkpt>
      <trkpt lat="42.127200" lon="0.982383">
        <ele>1556.0</ele>
        <time>2013-09-13T14:52:01Z</time>
      </trkpt>
      <trkpt lat="42.127117" lon="0.982417">
        <ele>1559.0</ele>
        <time>2013-09-13T14:52:02Z</time>
      </trkpt>
      <trkpt lat="42.127050" lon="0.982400">
        <ele>1561.0</ele>
        <time>2013-09-13T14:52:03Z</time>
      </trkpt>
      <trkpt lat="42.126983" lon="0.982383">
        <ele>1565.0</ele>
        <time>2013-09-13T14:52:04Z</time>
      </trkpt>
      <trkpt lat="42.126950" lon="0.982333">
        <ele>1569.0</ele>
        <time>2013-09-13T14:52:05Z</time>
      </trkpt>
      <trkpt lat="42.126933" lon="0.982283">
        <ele>1573.0</ele>
        <time>2013-09-13T14:52:06Z</time>
      </trkpt>
      <trkpt lat="42.126917" lon="0.982200">
        <ele>1575.0</ele>
        <time>2013-09-13T14:52:07Z</time>
      </trkpt>
      <trkpt lat="42.126917" lon="0.982100">
        <ele>1577.0</ele>
        <time>2013-09-13T14:52:08Z</time>
      </trkpt>
      <trkpt lat="42.126933" lon="0.981983">
        <ele>1579.0</ele>
        <time>2013-09-13T14:52:09Z</time>
      </trkpt>
      <trkpt lat="42.126983" lon="0.981900">
        <ele>1581.0</ele>
        <time>2013-09-13T14:52:10Z</time>
      </trkpt>
      <trkpt lat="42.127050" lon="0.981850">
        <ele>1583.0</ele>
        <time>2013-09-13T14:52:11Z</time>
      </trkpt>
      <trkpt lat="42.127117" lon="0.981817">
        <ele>1585.0</ele>
        <time>2013-09-13T14:52:12Z</time>
      </trkpt>
      <trkpt lat="42.127200" lon="0.981800">
        <ele>1586.0</ele>
        <time>2013-09-13T14:52:13Z</time>
      </trkpt>
      <trkpt lat="42.127283" lon="0.981800">
        <ele>1587.0</ele>
        <time>2013-09-13T14:52:14Z</time>
      </trkpt>
      <trkpt lat="42.127383" lon="0.981817">
        <ele>1586.0</ele>
        <time>2013-09-13T14:52:15Z</time>
      </trkpt>
      <trkpt lat="42.127467" lon="0.981867">
        <ele>1586.0</ele>
        <time>2013-09-13T14:52:16Z</time>
      </trkpt>
      <trkpt lat="42.127567" lon="0.981950">
        <ele>1586.0</ele>
        <time>2013-09-13T14:52:17Z</time>
      </trkpt>
      <trkpt lat="42.127650" lon="0.982017">
        <ele>1588.0</ele>
        <time>2013-09-13T14:52:18Z</time>
      </trkpt>
      <trkpt lat="42.127700" lon="0.982100">
        <ele>1591.0</ele>
        <time>2013-09-13T14:52:19Z</time>
      </trkpt>
      <trkpt lat="42.127733" lon="0.982183">
        <ele>1594.0</ele>
        <time>2013-09-13T14:52:20Z</time>
      </trkpt>
      <trkpt lat="42.127767" lon="0.982283">
        <ele>1596.0</ele>
        <time>2013-09-13T14:52:21Z</time>
      </trkpt>
      <trkpt lat="42.127767" lon="0.982400">
        <ele>1597.0</ele>
        <time>2013-09-13T14:52:22Z</time>
      </trkpt>
      <trkpt lat="42.127767" lon="0.982533">
        <ele>1598.0</ele>
        <time>2013-09-13T14:52:23Z</time>
      </trkpt>
      <trkpt lat="42.127750" lon="0.982650">
        <ele>1599.0</ele>
        <time>2013-09-13T14:52:24Z</time>
      </trkpt>
      <trkpt lat="42.127700" lon="0.982750">
        <ele>1601.0</ele>
        <time>2013-09-13T14:52:25Z</time>
      </trkpt>
      <trkpt lat="42.127650" lon="0.982833">
        <ele>1603.0</ele>
        <time>2013-09-13T14:52:26Z</time>
      </trkpt>
      <trkpt lat="42.127583" lon="0.982883">
        <ele>1606.0</ele>
        <time>2013-09-13T14:52:27Z</time>
      </trkpt>
      <trkpt lat="42.127533" lon="0.982917">
        <ele>1610.0</ele>
        <time>2013-09-13T14:52:28Z</time>
      </trkpt>
      <trkpt lat="42.127500" lon="0.982950">
        <ele>1614.0</ele>
        <time>2013-09-13T14:52:29Z</time>
      </trkpt>
      <trkpt lat="42.127450" lon="0.982950">
        <ele>1617.0</ele>
        <time>2013-09-13T14:52:30Z</time>
      </trkpt>
      <trkpt lat="42.127383" lon="0.982950">
        <ele>1620.0</ele>
        <time>2013-09-13T14:52:31Z</time>
      </trkpt>
      <trkpt lat="42.127317" lon="0.982917">
        <ele>1622.0</ele>
        <time>2013-09-13T14:52:32Z</time>
      </trkpt>
      <trkpt lat="42.127250" lon="0.982850">
        <ele>1624.0</ele>
        <time>2013-09-13T14:52:33Z</time>
      </trkpt>
      <trkpt lat="42.127217" lon="0.982783">
        <ele>1627.0</ele>
        <time>2013-09-13T14:52:34Z</time>
      </trkpt>
      <trkpt lat="42.127217" lon="0.982683">
        <ele>1630.0</ele>
        <time>2013-09-13T14:52:35Z</time>
      </trkpt>
      <trkpt lat="42.127217" lon="0.982600">
        <ele>1633.0</ele>
        <time>2013-09-13T14:52:36Z</time>
      </trkpt>
      <trkpt lat="42.127233" lon="0.982517">
        <ele>1636.0</ele>
        <time>2013-09-13T14:52:37Z</time>
      </trkpt>
      <trkpt lat="42.127267" lon="0.982433">
        <ele>1638.0</ele>
        <time>2013-09-13T14:52:38Z</time>
      </trkpt>
      <trkpt lat="42.127317" lon="0.982350">
        <ele>1640.0</ele>
        <time>2013-09-13T14:52:39Z</time>
      </trkpt>
      <trkpt lat="42.127383" lon="0.982283">
        <ele>1641.0</ele>
        <time>2013-09-13T14:52:40Z</time>
      </trkpt>
      <trkpt lat="42.127467" lon="0.982250">
        <ele>1642.0</ele>
        <time>2013-09-13T14:52:41Z</time>
      </trkpt>
      <trkpt lat="42.127567" lon="0.982250">
        <ele>1643.0</ele>
        <time>2013-09-13T14:52:42Z</time>
      </trkpt>
      <trkpt lat="42.127667" lon="0.982267">
        <ele>1644.0</ele>
        <time>2013-09-13T14:52:43Z</time>
      </trkpt>
      <trkpt lat="42.127750" lon="0.982300">
        <ele>1647.0</ele>
        <time>2013-09-13T14:52:44Z</time>
      </trkpt>
      <trkpt lat="42.127817" lon="0.982350">
        <ele>1649.0</ele>
        <time>2013-09-13T14:52:45Z</time>
      </trkpt>
      <trkpt lat="42.127867" lon="0.982417">
        <ele>1652.0</ele>
        <time>2013-09-13T14:52:46Z</time>
      </trkpt>
      <trkpt lat="42.127917" lon="0.982517">
        <ele>1653.0</ele>
        <time>2013-09-13T14:52:47Z</time>
      </trkpt>
      <trkpt lat="42.127950" lon="0.982633">
        <ele>1655.0</ele>
        <time>2013-09-13T14:52:48Z</time>
      </trkpt>
      <trkpt lat="42.127983" lon="0.982767">
        <ele>1656.0</ele>
        <time>2013-09-13T14:52:49Z</time>
      </trkpt>
      <trkpt lat="42.128000" lon="0.982883">
        <ele>1658.0</ele>
        <time>2013-09-13T14:52:50Z</time>
      </trkpt>
      <trkpt lat="42.127983" lon="0.983000">
        <ele>1660.0</ele>
        <time>2013-09-13T14:52:51Z</time>
      </trkpt>
      <trkpt lat="42.127950" lon="0.983117">
        <ele>1663.0</ele>
        <time>2013-09-13T14:52:52Z</time>
      </trkpt>
      <trkpt lat="42.127883" lon="0.983217">
        <ele>1664.0</ele>
        <time>2013-09-13T14:52:53Z</time>
      </trkpt>
      <trkpt lat="42.127817" lon="0.983300">
        <ele>1666.0</ele>
        <time>2013-09-13T14:52:54Z</time>
      </trkpt>
      <trkpt lat="42.127750" lon="0.983350">
        <ele>1668.0</ele>
        <time>2013-09-13T14:52:55Z</time>
      </trkpt>
      <trkpt lat="42.127683" lon="0.983400">
        <ele>1671.0</ele>
        <time>2013-09-13T14:52:56Z</time>
      </trkpt>
      <trkpt lat="42.127633" lon="0.983417">
        <ele>1675.0</ele>
        <time>2013-09-13T14:52:57Z</time>
      </trkpt>
      <trkpt lat="42.127567" lon="0.983417">
        <ele>1677.0</ele>
        <time>2013-09-13T14:52:58Z</time>
      </trkpt>
      <trkpt lat="42.127500" lon="0.983383">
        <ele>1679.0</ele>
        <time>2013-09-13T14:52:59Z</time>
      </trkpt>
      <trkpt lat="42.127433" lon="0.983350">
        <ele>1681.0</ele>
        <time>2013-09-13T14:53:00Z</time>
      </trkpt>
      <trkpt lat="42.127383" lon="0.983283">
        <ele>1682.0</ele>
        <time>2013-09-13T14:53:01Z</time>
      </trkpt>
      <trkpt lat="42.127333" lon="0.983200">
        <ele>1684.0</ele>
        <time>2013-09-13T14:53:02Z</time>
      </trkpt>
      <trkpt lat="42.127317" lon="0.983117">
        <ele>1686.0</ele>
        <time>2013-09-13T14:53:03Z</time>
      </trkpt>
      <trkpt lat="42.127300" lon="0.983033">
        <ele>1688.0</ele>
        <time>2013-09-13T14:53:04Z</time>
      </trkpt>
      <trkpt lat="42.127283" lon="0.982933">
        <ele>1689.0</ele>
        <time>2013-09-13T14:53:05Z</time>
      </trkpt>
      <trkpt lat="42.127283" lon="0.982833">
        <ele>1689.0</ele>
        <time>2013-09-13T14:53:06Z</time>
      </trkpt>
      <trkpt lat="42.127300" lon="0.982717">
        <ele>1690.0</ele>
        <time>2013-09-13T14:53:07Z</time>
      </trkpt>
      <trkpt lat="42.127333" lon="0.982617">
        <ele>1692.0</ele>
        <time>2013-09-13T14:53:08Z</time>
      </trkpt>
      <trkpt lat="42.127383" lon="0.982533">
        <ele>1695.0</ele>
        <time>2013-09-13T14:53:09Z</time>
      </trkpt>
      <trkpt lat="42.127450" lon="0.982483">
        <ele>1697.0</ele>
        <time>2013-09-13T14:53:10Z</time>
      </trkpt>
      <trkpt lat="42.127533" lon="0.982450">
        <ele>1699.0</ele>
        <time>2013-09-13T14:53:11Z</time>
      </trkpt>
      <trkpt lat="42.127617" lon="0.982450">
        <ele>1701.0</ele>
        <time>2013-09-13T14:53:12Z</time>
      </trkpt>
      <trkpt lat="42.127700" lon="0.982467">
        <ele>1703.0</ele>
        <time>2013-09-13T14:53:13Z</time>
      </trkpt>
      <trkpt lat="42.127783" lon="0.982517">
        <ele>1704.0</ele>
        <time>2013-09-13T14:53:14Z</time>
      </trkpt>
      <trkpt lat="42.127850" lon="0.982567">
        <ele>1705.0</ele>
        <time>2013-09-13T14:53:15Z</time>
      </trkpt>
      <trkpt lat="42.127917" lon="0.982650">
        <ele>1706.0</ele>
        <time>2013-09-13T14:53:16Z</time>
      </trkpt>
      <trkpt lat="42.127983" lon="0.982733">
        <ele>1707.0</ele>
        <time>2013-09-13T14:53:17Z</time>
      </trkpt>
      <trkpt lat="42.128033" lon="0.982833">
        <ele>1709.0</ele>
        <time>2013-09-13T14:53:18Z</time>
      </trkpt>
      <trkpt lat="42.128050" lon="0.982950">
        <ele>1710.0</ele>
        <time>2013-09-13T14:53:19Z</time>
      </trkpt>
      <trkpt lat="42.128050" lon="0.983067">
        <ele>1711.0</ele>
        <time>2013-09-13T14:53:20Z</time>
      </trkpt>
      <trkpt lat="42.128000" lon="0.983167">
        <ele>1712.0</ele>
        <time>2013-09-13T14:53:21Z</time>
      </trkpt>
      <trkpt lat="42.127967" lon="0.983267">
        <ele>1713.0</ele>
        <time>2013-09-13T14:53:22Z</time>
      </trkpt>
      <trkpt lat="42.127917" lon="0.983333">
        <ele>1715.0</ele>
        <time>2013-09-13T14:53:23Z</time>
      </trkpt>
      <trkpt lat="42.127850" lon="0.983383">
        <ele>1716.0</ele>
        <time>2013-09-13T14:53:24Z</time>
      </trkpt>
      <trkpt lat="42.127783" lon="0.983417">
        <ele>1717.0</ele>
        <time>2013-09-13T14:53:25Z</time>
      </trkpt>
      <trkpt lat="42.127700" lon="0.983417">
        <ele>1718.0</ele>
        <time>2013-09-13T14:53:26Z</time>
      </trkpt>
      <trkpt lat="42.127633" lon="0.983417">
        <ele>1720.0</ele>
        <time>2013-09-13T14:53:27Z</time>
      </trkpt>
      <trkpt lat="42.127567" lon="0.983400">
        <ele>1722.0</ele>
        <time>2013-09-13T14:53:28Z</time>
      </trkpt>
      <trkpt lat="42.127517" lon="0.983367">
        <ele>1724.0</ele>
        <time>2013-09-13T14:53:29Z</time>
      </trkpt>
      <trkpt lat="42.127450" lon="0.983317">
        <ele>1726.0</ele>
        <time>2013-09-13T14:53:30Z</time>
      </trkpt>
      <trkpt lat="42.127400" lon="0.983267">
        <ele>1727.0</ele>
        <time>2013-09-13T14:53:31Z</time>
      </trkpt>
      <trkpt lat="42.127350" lon="0.983183">
        <ele>1729.0</ele>
        <time>2013-09-13T14:53:32Z</time>
      </trkpt>
      <trkpt lat="42.127317" lon="0.983100">
        <ele>1731.0</ele>
        <time>2013-09-13T14:53:33Z</time>
      </trkpt>
      <trkpt lat="42.127283" lon="0.983033">
        <ele>1732.0</ele>
        <time>2013-09-13T14:53:34Z</time>
      </trkpt>
      <trkpt lat="42.127250" lon="0.982950">
        <ele>1733.0</ele>
        <time>2013-09-13T14:53:35Z</time>
      </trkpt>
      <trkpt lat="42.127233" lon="0.982867">
        <ele>1733.0</ele>
        <time>2013-09-13T14:53:36Z</time>
      </trkpt>
      <trkpt lat="42.127217" lon="0.982783">
        <ele>1733.0</ele>
        <time>2013-09-13T14:53:37Z</time>
      </trkpt>
      <trkpt lat="42.127217" lon="0.982667">
        <ele>1732.0</ele>
        <time>2013-09-13T14:53:38Z</time>
      </trkpt>
      <trkpt lat="42.127250" lon="0.982550">
        <ele>1732.0</ele>
        <time>2013-09-13T14:53:39Z</time>
      </trkpt>
      <trkpt lat="42.127267" lon="0.982433">
        <ele>1732.0</ele>
        <time>2013-09-13T14:53:40Z</time>
      </trkpt>
      <trkpt lat="42.127300" lon="0.982333">
        <ele>1732.0</ele>
        <time>2013-09-13T14:53:41Z</time>
      </trkpt>
      <trkpt lat="42.127317" lon="0.982233">
        <ele>1733.0</ele>
        <time>2013-09-13T14:53:42Z</time>
      </trkpt>
      <trkpt lat="42.127350" lon="0.982133">
        <ele>1734.0</ele>
        <time>2013-09-13T14:53:43Z</time>
      </trkpt>
      <trkpt lat="42.127400" lon="0.982033">
        <ele>1734.0</ele>
        <time>2013-09-13T14:53:44Z</time>
      </trkpt>
      <trkpt lat="42.127450" lon="0.981967">
        <ele>1734.0</ele>
        <time>2013-09-13T14:53:45Z</time>
      </trkpt>
      <trkpt lat="42.127533" lon="0.981917">
        <ele>1734.0</ele>
        <time>2013-09-13T14:53:46Z</time>
      </trkpt>
      <trkpt lat="42.127600" lon="0.981900">
        <ele>1734.0</ele>
        <time>2013-09-13T14:53:47Z</time>
      </trkpt>
      <trkpt lat="42.127700" lon="0.981883">
        <ele>1733.0</ele>
        <time>2013-09-13T14:53:48Z</time>
      </trkpt>
      <trkpt lat="42.127800" lon="0.981867">
        <ele>1732.0</ele>
        <time>2013-09-13T14:53:49Z</time>
      </trkpt>
      <trkpt lat="42.127900" lon="0.981850">
        <ele>1732.0</ele>
        <time>2013-09-13T14:53:50Z</time>
      </trkpt>
      <trkpt lat="42.127983" lon="0.981833">
        <ele>1732.0</ele>
        <time>2013-09-13T14:53:51Z</time>
      </trkpt>
      <trkpt lat="42.128067" lon="0.981800">
        <ele>1734.0</ele>
        <time>2013-09-13T14:53:52Z</time>
      </trkpt>
      <trkpt lat="42.128133" lon="0.981750">
        <ele>1737.0</ele>
        <time>2013-09-13T14:53:53Z</time>
      </trkpt>
      <trkpt lat="42.128200" lon="0.981700">
        <ele>1740.0</ele>
        <time>2013-09-13T14:53:54Z</time>
      </trkpt>
      <trkpt lat="42.128267" lon="0.981683">
        <ele>1742.0</ele>
        <time>2013-09-13T14:53:55Z</time>
      </trkpt>
      <trkpt lat="42.128350" lon="0.981700">
        <ele>1744.0</ele>
        <time>2013-09-13T14:53:56Z</time>
      </trkpt>
      <trkpt lat="42.128417" lon="0.981750">
        <ele>1744.0</ele>
        <time>2013-09-13T14:53:57Z</time>
      </trkpt>
      <trkpt lat="42.128467" lon="0.981850">
        <ele>1744.0</ele>
        <time>2013-09-13T14:53:58Z</time>
      </trkpt>
      <trkpt lat="42.128500" lon="0.981950">
        <ele>1745.0</ele>
        <time>2013-09-13T14:53:59Z</time>
      </trkpt>
      <trkpt lat="42.128500" lon="0.982033">
        <ele>1747.0</ele>
        <time>2013-09-13T14:54:00Z</time>
      </trkpt>
      <trkpt lat="42.128500" lon="0.982117">
        <ele>1750.0</ele>
        <time>2013-09-13T14:54:01Z</time>
      </trkpt>
      <trkpt lat="42.128467" lon="0.982200">
        <ele>1751.0</ele>
        <time>2013-09-13T14:54:02Z</time>
      </trkpt>
      <trkpt lat="42.128417" lon="0.982300">
        <ele>1751.0</ele>
        <time>2013-09-13T14:54:03Z</time>
      </trkpt>
      <trkpt lat="42.128267" lon="0.982433">
        <ele>1752.0</ele>
        <time>2013-09-13T14:54:05Z</time>
      </trkpt>
      <trkpt lat="42.128200" lon="0.982450">
        <ele>1755.0</ele>
        <time>2013-09-13T14:54:06Z</time>
      </trkpt>
      <trkpt lat="42.128117" lon="0.982433">
        <ele>1757.0</ele>
        <time>2013-09-13T14:54:07Z</time>
      </trkpt>
      <trkpt lat="42.128033" lon="0.982400">
        <ele>1758.0</ele>
        <time>2013-09-13T14:54:08Z</time>
      </trkpt>
      <trkpt lat="42.127967" lon="0.982333">
        <ele>1760.0</ele>
        <time>2013-09-13T14:54:09Z</time>
      </trkpt>
      <trkpt lat="42.127900" lon="0.982267">
        <ele>1761.0</ele>
        <time>2013-09-13T14:54:10Z</time>
      </trkpt>
      <trkpt lat="42.127850" lon="0.982183">
        <ele>1762.0</ele>
        <time>2013-09-13T14:54:11Z</time>
      </trkpt>
      <trkpt lat="42.127800" lon="0.982100">
        <ele>1763.0</ele>
        <time>2013-09-13T14:54:12Z</time>
      </trkpt>
      <trkpt lat="42.127783" lon="0.981983">
        <ele>1764.0</ele>
        <time>2013-09-13T14:54:13Z</time>
      </trkpt>
      <trkpt lat="42.127783" lon="0.981850">
        <ele>1765.0</ele>
        <time>2013-09-13T14:54:14Z</time>
      </trkpt>
      <trkpt lat="42.127783" lon="0.981733">
        <ele>1764.0</ele>
        <time>2013-09-13T14:54:15Z</time>
      </trkpt>
      <trkpt lat="42.127783" lon="0.981633">
        <ele>1765.0</ele>
        <time>2013-09-13T14:54:16Z</time>
      </trkpt>
      <trkpt lat="42.127800" lon="0.981533">
        <ele>1766.0</ele>
        <time>2013-09-13T14:54:17Z</time>
      </trkpt>
      <trkpt lat="42.127833" lon="0.981433">
        <ele>1767.0</ele>
        <time>2013-09-13T14:54:18Z</time>
      </trkpt>
      <trkpt lat="42.127867" lon="0.981333">
        <ele>1767.0</ele>
        <time>2013-09-13T14:54:19Z</time>
      </trkpt>
      <trkpt lat="42.127900" lon="0.981233">
        <ele>1768.0</ele>
        <time>2013-09-13T14:54:20Z</time>
      </trkpt>
      <trkpt lat="42.127950" lon="0.981133">
        <ele>1769.0</ele>
        <time>2013-09-13T14:54:21Z</time>
      </trkpt>
      <trkpt lat="42.127983" lon="0.981050">
        <ele>1770.0</ele>
        <time>2013-09-13T14:54:22Z</time>
      </trkpt>
      <trkpt lat="42.128033" lon="0.980950">
        <ele>1772.0</ele>
        <time>2013-09-13T14:54:23Z</time>
      </trkpt>
      <trkpt lat="42.128067" lon="0.980867">
        <ele>1773.0</ele>
        <time>2013-09-13T14:54:24Z</time>
      </trkpt>
      <trkpt lat="42.128117" lon="0.980800">
        <ele>1774.0</ele>
        <time>2013-09-13T14:54:25Z</time>
      </trkpt>
      <trkpt lat="42.128167" lon="0.980750">
        <ele>1775.0</ele>
        <time>2013-09-13T14:54:26Z</time>
      </trkpt>
      <trkpt lat="42.128233" lon="0.980717">
        <ele>1775.0</ele>
        <time>2013-09-13T14:54:27Z</time>
      </trkpt>
      <trkpt lat="42.128317" lon="0.980717">
        <ele>1775.0</ele>
        <time>2013-09-13T14:54:28Z</time>
      </trkpt>
      <trkpt lat="42.128400" lon="0.980733">
        <ele>1774.0</ele>
        <time>2013-09-13T14:54:29Z</time>
      </trkpt>
      <trkpt lat="42.128467" lon="0.980783">
        <ele>1775.0</ele>
        <time>2013-09-13T14:54:30Z</time>
      </trkpt>
      <trkpt lat="42.128533" lon="0.980850">
        <ele>1775.0</ele>
        <time>2013-09-13T14:54:31Z</time>
      </trkpt>
      <trkpt lat="42.128583" lon="0.980917">
        <ele>1776.0</ele>
        <time>2013-09-13T14:54:32Z</time>
      </trkpt>
      <trkpt lat="42.128633" lon="0.981017">
        <ele>1776.0</ele>
        <time>2013-09-13T14:54:33Z</time>
      </trkpt>
      <trkpt lat="42.128667" lon="0.981117">
        <ele>1776.0</ele>
        <time>2013-09-13T14:54:34Z</time>
      </trkpt>
      <trkpt lat="42.128683" lon="0.981367">
        <ele>1775.0</ele>
        <time>2013-09-13T14:54:36Z</time>
      </trkpt>
      <trkpt lat="42.128667" lon="0.981467">
        <ele>1775.0</ele>
        <time>2013-09-13T14:54:37Z</time>
      </trkpt>
      <trkpt lat="42.128617" lon="0.981550">
        <ele>1776.0</ele>
        <time>2013-09-13T14:54:38Z</time>
      </trkpt>
      <trkpt lat="42.128567" lon="0.981617">
        <ele>1777.0</ele>
        <time>2013-09-13T14:54:39Z</time>
      </trkpt>
      <trkpt lat="42.128483" lon="0.981650">
        <ele>1778.0</ele>
        <time>2013-09-13T14:54:40Z</time>
      </trkpt>
      <trkpt lat="42.128400" lon="0.981667">
        <ele>1779.0</ele>
        <time>2013-09-13T14:54:41Z</time>
      </trkpt>
      <trkpt lat="42.128317" lon="0.981667">
        <ele>1780.0</ele>
        <time>2013-09-13T14:54:42Z</time>
      </trkpt>
      <trkpt lat="42.128233" lon="0.981667">
        <ele>1781.0</ele>
        <time>2013-09-13T14:54:43Z</time>
      </trkpt>
      <trkpt lat="42.128167" lon="0.981633">
        <ele>1782.0</ele>
        <time>2013-09-13T14:54:44Z</time>
      </trkpt>
      <trkpt lat="42.128083" lon="0.981567">
        <ele>1783.0</ele>
        <time>2013-09-13T14:54:45Z</time>
      </trkpt>
      <trkpt lat="42.128033" lon="0.981483">
        <ele>1782.0</ele>
        <time>2013-09-13T14:54:46Z</time>
      </trkpt>
      <trkpt lat="42.127983" lon="0.981383">
        <ele>1782.0</ele>
        <time>2013-09-13T14:54:47Z</time>
      </trkpt>
      <trkpt lat="42.127933" lon="0.981283">
        <ele>1783.0</ele>
        <time>2013-09-13T14:54:48Z</time>
      </trkpt>
      <trkpt lat="42.127917" lon="0.981183">
        <ele>1785.0</ele>
        <time>2013-09-13T14:54:49Z</time>
      </trkpt>
      <trkpt lat="42.127917" lon="0.981083">
        <ele>1786.0</ele>
        <time>2013-09-13T14:54:50Z</time>
      </trkpt>
      <trkpt lat="42.127950" lon="0.980983">
        <ele>1786.0</ele>
        <time>2013-09-13T14:54:51Z</time>
      </trkpt>
      <trkpt lat="42.127983" lon="0.980883">
        <ele>1785.0</ele>
        <time>2013-09-13T14:54:52Z</time>
      </trkpt>
      <trkpt lat="42.128033" lon="0.980800">
        <ele>1786.0</ele>
        <time>2013-09-13T14:54:53Z</time>
      </trkpt>
      <trkpt lat="42.128100" lon="0.980750">
        <ele>1787.0</ele>
        <time>2013-09-13T14:54:54Z</time>
      </trkpt>
      <trkpt lat="42.128167" lon="0.980733">
        <ele>1787.0</ele>
        <time>2013-09-13T14:54:55Z</time>
      </trkpt>
      <trkpt lat="42.128233" lon="0.980733">
        <ele>1788.0</ele>
        <time>2013-09-13T14:54:56Z</time>
      </trkpt>
      <trkpt lat="42.128317" lon="0.980767">
        <ele>1787.0</ele>
        <time>2013-09-13T14:54:57Z</time>
      </trkpt>
      <trkpt lat="42.128400" lon="0.980800">
        <ele>1787.0</ele>
        <time>2013-09-13T14:54:58Z</time>
      </trkpt>
      <trkpt lat="42.128483" lon="0.980833">
        <ele>1786.0</ele>
        <time>2013-09-13T14:54:59Z</time>
      </trkpt>
      <trkpt lat="42.128567" lon="0.980850">
        <ele>1787.0</ele>
        <time>2013-09-13T14:55:00Z</time>
      </trkpt>
      <trkpt lat="42.128633" lon="0.980833">
        <ele>1788.0</ele>
        <time>2013-09-13T14:55:01Z</time>
      </trkpt>
      <trkpt lat="42.128717" lon="0.980800">
        <ele>1788.0</ele>
        <time>2013-09-13T14:55:02Z</time>
      </trkpt>
      <trkpt lat="42.128800" lon="0.980750">
        <ele>1788.0</ele>
        <time>2013-09-13T14:55:03Z</time>
      </trkpt>
      <trkpt lat="42.128867" lon="0.980700">
        <ele>1788.0</ele>
        <time>2013-09-13T14:55:04Z</time>
      </trkpt>
      <trkpt lat="42.128933" lon="0.980633">
        <ele>1788.0</ele>
        <time>2013-09-13T14:55:05Z</time>
      </trkpt>
      <trkpt lat="42.128983" lon="0.980550">
        <ele>1788.0</ele>
        <time>2013-09-13T14:55:06Z</time>
      </trkpt>
      <trkpt lat="42.129033" lon="0.980467">
        <ele>1787.0</ele>
        <time>2013-09-13T14:55:07Z</time>
      </trkpt>
      <trkpt lat="42.129083" lon="0.980367">
        <ele>1785.0</ele>
        <time>2013-09-13T14:55:08Z</time>
      </trkpt>
      <trkpt lat="42.129133" lon="0.980267">
        <ele>1784.0</ele>
        <time>2013-09-13T14:55:09Z</time>
      </trkpt>
      <trkpt lat="42.129183" lon="0.980167">
        <ele>1783.0</ele>
        <time>2013-09-13T14:55:10Z</time>
      </trkpt>
      <trkpt lat="42.129217" lon="0.980067">
        <ele>1781.0</ele>
        <time>2013-09-13T14:55:11Z</time>
      </trkpt>
      <trkpt lat="42.129267" lon="0.979950">
        <ele>1780.0</ele>
        <time>2013-09-13T14:55:12Z</time>
      </trkpt>
      <trkpt lat="42.129317" lon="0.979833">
        <ele>1778.0</ele>
        <time>2013-09-13T14:55:13Z</time>
      </trkpt>
      <trkpt lat="42.129350" lon="0.979717">
        <ele>1776.0</ele>
        <time>2013-09-13T14:55:14Z</time>
      </trkpt>
      <trkpt lat="42.129383" lon="0.979600">
        <ele>1774.0</ele>
        <time>2013-09-13T14:55:15Z</time>
      </trkpt>
      <trkpt lat="42.129417" lon="0.979483">
        <ele>1773.0</ele>
        <time>2013-09-13T14:55:16Z</time>
      </trkpt>
      <trkpt lat="42.129433" lon="0.979367">
        <ele>1772.0</ele>
        <time>2013-09-13T14:55:17Z</time>
      </trkpt>
      <trkpt lat="42.129450" lon="0.979267">
        <ele>1771.0</ele>
        <time>2013-09-13T14:55:18Z</time>
      </trkpt>
      <trkpt lat="42.129467" lon="0.979167">
        <ele>1770.0</ele>
        <time>2013-09-13T14:55:19Z</time>
      </trkpt>
      <trkpt lat="42.129500" lon="0.979050">
        <ele>1768.0</ele>
        <time>2013-09-13T14:55:20Z</time>
      </trkpt>
      <trkpt lat="42.129517" lon="0.978933">
        <ele>1766.0</ele>
        <time>2013-09-13T14:55:21Z</time>
      </trkpt>
      <trkpt lat="42.129533" lon="0.978817">
        <ele>1765.0</ele>
        <time>2013-09-13T14:55:22Z</time>
      </trkpt>
      <trkpt lat="42.129533" lon="0.978717">
        <ele>1764.0</ele>
        <time>2013-09-13T14:55:23Z</time>
      </trkpt>
      <trkpt lat="42.129550" lon="0.978617">
        <ele>1763.0</ele>
        <time>2013-09-13T14:55:24Z</time>
      </trkpt>
      <trkpt lat="42.129550" lon="0.978517">
        <ele>1762.0</ele>
        <time>2013-09-13T14:55:25Z</time>
      </trkpt>
      <trkpt lat="42.129567" lon="0.978417">
        <ele>1761.0</ele>
        <time>2013-09-13T14:55:26Z</time>
      </trkpt>
      <trkpt lat="42.129583" lon="0.978317">
        <ele>1760.0</ele>
        <time>2013-09-13T14:55:27Z</time>
      </trkpt>
      <trkpt lat="42.129600" lon="0.978200">
        <ele>1758.0</ele>
        <time>2013-09-13T14:55:28Z</time>
      </trkpt>
      <trkpt lat="42.129617" lon="0.978083">
        <ele>1756.0</ele>
        <time>2013-09-13T14:55:29Z</time>
      </trkpt>
      <trkpt lat="42.129633" lon="0.977983">
        <ele>1755.0</ele>
        <time>2013-09-13T14:55:30Z</time>
      </trkpt>
      <trkpt lat="42.129650" lon="0.977883">
        <ele>1754.0</ele>
        <time>2013-09-13T14:55:31Z</time>
      </trkpt>
      <trkpt lat="42.129650" lon="0.977783">
        <ele>1753.0</ele>
        <time>2013-09-13T14:55:32Z</time>
      </trkpt>
      <trkpt lat="42.129667" lon="0.977683">
        <ele>1751.0</ele>
        <time>2013-09-13T14:55:33Z</time>
      </trkpt>
      <trkpt lat="42.129683" lon="0.977567">
        <ele>1750.0</ele>
        <time>2013-09-13T14:55:34Z</time>
      </trkpt>
      <trkpt lat="42.129700" lon="0.977467">
        <ele>1749.0</ele>
        <time>2013-09-13T14:55:35Z</time>
      </trkpt>
      <trkpt lat="42.129717" lon="0.977383">
        <ele>1748.0</ele>
        <time>2013-09-13T14:55:36Z</time>
      </trkpt>
      <trkpt lat="42.129733" lon="0.977283">
        <ele>1748.0</ele>
        <time>2013-09-13T14:55:37Z</time>
      </trkpt>
      <trkpt lat="42.129750" lon="0.977200">
        <ele>1747.0</ele>
        <time>2013-09-13T14:55:38Z</time>
      </trkpt>
      <trkpt lat="42.129750" lon="0.977100">
        <ele>1745.0</ele>
        <time>2013-09-13T14:55:39Z</time>
      </trkpt>
      <trkpt lat="42.129767" lon="0.976983">
        <ele>1744.0</ele>
        <time>2013-09-13T14:55:40Z</time>
      </trkpt>
      <trkpt lat="42.129783" lon="0.976883">
        <ele>1742.0</ele>
        <time>2013-09-13T14:55:41Z</time>
      </trkpt>
      <trkpt lat="42.129800" lon="0.976783">
        <ele>1741.0</ele>
        <time>2013-09-13T14:55:42Z</time>
      </trkpt>
      <trkpt lat="42.129817" lon="0.976683">
        <ele>1740.0</ele>
        <time>2013-09-13T14:55:43Z</time>
      </trkpt>
      <trkpt lat="42.129850" lon="0.976583">
        <ele>1739.0</ele>
        <time>2013-09-13T14:55:44Z</time>
      </trkpt>
      <trkpt lat="42.129867" lon="0.976483">
        <ele>1738.0</ele>
        <time>2013-09-13T14:55:45Z</time>
      </trkpt>
      <trkpt lat="42.129883" lon="0.976383">
        <ele>1737.0</ele>
        <time>2013-09-13T14:55:46Z</time>
      </trkpt>
      <trkpt lat="42.129883" lon="0.976267">
        <ele>1735.0</ele>
        <time>2013-09-13T14:55:47Z</time>
      </trkpt>
      <trkpt lat="42.129900" lon="0.976167">
        <ele>1734.0</ele>
        <time>2013-09-13T14:55:48Z</time>
      </trkpt>
      <trkpt lat="42.129917" lon="0.976067">
        <ele>1733.0</ele>
        <time>2013-09-13T14:55:49Z</time>
      </trkpt>
      <trkpt lat="42.129933" lon="0.975967">
        <ele>1732.0</ele>
        <time>2013-09-13T14:55:50Z</time>
      </trkpt>
      <trkpt lat="42.129950" lon="0.975850">
        <ele>1730.0</ele>
        <time>2013-09-13T14:55:51Z</time>
      </trkpt>
      <trkpt lat="42.129967" lon="0.975750">
        <ele>1729.0</ele>
        <time>2013-09-13T14:55:52Z</time>
      </trkpt>
      <trkpt lat="42.129983" lon="0.975650">
        <ele>1728.0</ele>
        <time>2013-09-13T14:55:53Z</time>
      </trkpt>
      <trkpt lat="42.130000" lon="0.975533">
        <ele>1727.0</ele>
        <time>2013-09-13T14:55:54Z</time>
      </trkpt>
      <trkpt lat="42.130017" lon="0.975433">
        <ele>1726.0</ele>
        <time>2013-09-13T14:55:55Z</time>
      </trkpt>
      <trkpt lat="42.130050" lon="0.975333">
        <ele>1726.0</ele>
        <time>2013-09-13T14:55:56Z</time>
      </trkpt>
      <trkpt lat="42.130067" lon="0.975233">
        <ele>1725.0</ele>
        <time>2013-09-13T14:55:57Z</time>
      </trkpt>
      <trkpt lat="42.130083" lon="0.975117">
        <ele>1724.0</ele>
        <time>2013-09-13T14:55:58Z</time>
      </trkpt>
      <trkpt lat="42.130100" lon="0.975000">
        <ele>1723.0</ele>
        <time>2013-09-13T14:55:59Z</time>
      </trkpt>
      <trkpt lat="42.130117" lon="0.974867">
        <ele>1722.0</ele>
        <time>2013-09-13T14:56:00Z</time>
      </trkpt>
      <trkpt lat="42.130117" lon="0.974767">
        <ele>1723.0</ele>
        <time>2013-09-13T14:56:01Z</time>
      </trkpt>
      <trkpt lat="42.130117" lon="0.974667">
        <ele>1723.0</ele>
        <time>2013-09-13T14:56:02Z</time>
      </trkpt>
      <trkpt lat="42.130117" lon="0.974550">
        <ele>1724.0</ele>
        <time>2013-09-13T14:56:03Z</time>
      </trkpt>
      <trkpt lat="42.130117" lon="0.974433">
        <ele>1724.0</ele>
        <time>2013-09-13T14:56:04Z</time>
      </trkpt>
      <trkpt lat="42.130117" lon="0.974317">
        <ele>1724.0</ele>
        <time>2013-09-13T14:56:05Z</time>
      </trkpt>
      <trkpt lat="42.130133" lon="0.974200">
        <ele>1723.0</ele>
        <time>2013-09-13T14:56:06Z</time>
      </trkpt>
      <trkpt lat="42.130133" lon="0.974100">
        <ele>1724.0</ele>
        <time>2013-09-13T14:56:07Z</time>
      </trkpt>
      <trkpt lat="42.130133" lon="0.974017">
        <ele>1724.0</ele>
        <time>2013-09-13T14:56:08Z</time>
      </trkpt>
      <trkpt lat="42.130133" lon="0.973917">
        <ele>1724.0</ele>
        <time>2013-09-13T14:56:09Z</time>
      </trkpt>
      <trkpt lat="42.130133" lon="0.973817">
        <ele>1723.0</ele>
        <time>2013-09-13T14:56:10Z</time>
      </trkpt>
      <trkpt lat="42.130133" lon="0.973700">
        <ele>1721.0</ele>
        <time>2013-09-13T14:56:11Z</time>
      </trkpt>
      <trkpt lat="42.130133" lon="0.973583">
        <ele>1720.0</ele>
        <time>2013-09-13T14:56:12Z</time>
      </trkpt>
      <trkpt lat="42.130133" lon="0.973467">
        <ele>1720.0</ele>
        <time>2013-09-13T14:56:13Z</time>
      </trkpt>
      <trkpt lat="42.130150" lon="0.973383">
        <ele>1721.0</ele>
        <time>2013-09-13T14:56:14Z</time>
      </trkpt>
      <trkpt lat="42.130167" lon="0.973283">
        <ele>1720.0</ele>
        <time>2013-09-13T14:56:15Z</time>
      </trkpt>
      <trkpt lat="42.130167" lon="0.973167">
        <ele>1720.0</ele>
        <time>2013-09-13T14:56:16Z</time>
      </trkpt>
      <trkpt lat="42.130183" lon="0.973050">
        <ele>1719.0</ele>
        <time>2013-09-13T14:56:17Z</time>
      </trkpt>
      <trkpt lat="42.130183" lon="0.972933">
        <ele>1718.0</ele>
        <time>2013-09-13T14:56:18Z</time>
      </trkpt>
      <trkpt lat="42.130183" lon="0.972833">
        <ele>1718.0</ele>
        <time>2013-09-13T14:56:19Z</time>
      </trkpt>
      <trkpt lat="42.130167" lon="0.972733">
        <ele>1718.0</ele>
        <time>2013-09-13T14:56:20Z</time>
      </trkpt>
      <trkpt lat="42.130167" lon="0.972617">
        <ele>1718.0</ele>
        <time>2013-09-13T14:56:21Z</time>
      </trkpt>
      <trkpt lat="42.130150" lon="0.972500">
        <ele>1717.0</ele>
        <time>2013-09-13T14:56:22Z</time>
      </trkpt>
      <trkpt lat="42.130167" lon="0.972383">
        <ele>1717.0</ele>
        <time>2013-09-13T14:56:23Z</time>
      </trkpt>
      <trkpt lat="42.130167" lon="0.972267">
        <ele>1716.0</ele>
        <time>2013-09-13T14:56:24Z</time>
      </trkpt>
      <trkpt lat="42.130167" lon="0.972150">
        <ele>1715.0</ele>
        <time>2013-09-13T14:56:25Z</time>
      </trkpt>
      <trkpt lat="42.130167" lon="0.972033">
        <ele>1714.0</ele>
        <time>2013-09-13T14:56:26Z</time>
      </trkpt>
      <trkpt lat="42.130167" lon="0.971900">
        <ele>1713.0</ele>
        <time>2013-09-13T14:56:27Z</time>
      </trkpt>
      <trkpt lat="42.130150" lon="0.971800">
        <ele>1712.0</ele>
        <time>2013-09-13T14:56:28Z</time>
      </trkpt>
      <trkpt lat="42.130133" lon="0.971700">
        <ele>1711.0</ele>
        <time>2013-09-13T14:56:29Z</time>
      </trkpt>
      <trkpt lat="42.130117" lon="0.971583">
        <ele>1710.0</ele>
        <time>2013-09-13T14:56:30Z</time>
      </trkpt>
      <trkpt lat="42.130100" lon="0.971467">
        <ele>1708.0</ele>
        <time>2013-09-13T14:56:31Z</time>
      </trkpt>
      <trkpt lat="42.130083" lon="0.971333">
        <ele>1705.0</ele>
        <time>2013-09-13T14:56:32Z</time>
      </trkpt>
      <trkpt lat="42.130083" lon="0.971217">
        <ele>1703.0</ele>
        <time>2013-09-13T14:56:33Z</time>
      </trkpt>
      <trkpt lat="42.130083" lon="0.971083">
        <ele>1703.0</ele>
        <time>2013-09-13T14:56:34Z</time>
      </trkpt>
      <trkpt lat="42.130100" lon="0.970967">
        <ele>1703.0</ele>
        <time>2013-09-13T14:56:35Z</time>
      </trkpt>
      <trkpt lat="42.130100" lon="0.970867">
        <ele>1703.0</ele>
        <time>2013-09-13T14:56:36Z</time>
      </trkpt>
      <trkpt lat="42.130117" lon="0.970750">
        <ele>1703.0</ele>
        <time>2013-09-13T14:56:37Z</time>
      </trkpt>
      <trkpt lat="42.130117" lon="0.970650">
        <ele>1701.0</ele>
        <time>2013-09-13T14:56:38Z</time>
      </trkpt>
      <trkpt lat="42.130133" lon="0.970533">
        <ele>1700.0</ele>
        <time>2013-09-13T14:56:39Z</time>
      </trkpt>
      <trkpt lat="42.130167" lon="0.970417">
        <ele>1698.0</ele>
        <time>2013-09-13T14:56:40Z</time>
      </trkpt>
      <trkpt lat="42.130183" lon="0.970300">
        <ele>1696.0</ele>
        <time>2013-09-13T14:56:41Z</time>
      </trkpt>
      <trkpt lat="42.130217" lon="0.970183">
        <ele>1695.0</ele>
        <time>2013-09-13T14:56:42Z</time>
      </trkpt>
      <trkpt lat="42.130233" lon="0.970083">
        <ele>1694.0</ele>
        <time>2013-09-13T14:56:43Z</time>
      </trkpt>
      <trkpt lat="42.130267" lon="0.969967">
        <ele>1693.0</ele>
        <time>2013-09-13T14:56:44Z</time>
      </trkpt>
      <trkpt lat="42.130300" lon="0.969867">
        <ele>1692.0</ele>
        <time>2013-09-13T14:56:45Z</time>
      </trkpt>
      <trkpt lat="42.130333" lon="0.969750">
        <ele>1692.0</ele>
        <time>2013-09-13T14:56:46Z</time>
      </trkpt>
      <trkpt lat="42.130350" lon="0.969650">
        <ele>1692.0</ele>
        <time>2013-09-13T14:56:47Z</time>
      </trkpt>
      <trkpt lat="42.130383" lon="0.969533">
        <ele>1691.0</ele>
        <time>2013-09-13T14:56:48Z</time>
      </trkpt>
      <trkpt lat="42.130417" lon="0.969417">
        <ele>1690.0</ele>
        <time>2013-09-13T14:56:49Z</time>
      </trkpt>
      <trkpt lat="42.130450" lon="0.969317">
        <ele>1688.0</ele>
        <time>2013-09-13T14:56:50Z</time>
      </trkpt>
      <trkpt lat="42.130483" lon="0.969200">
        <ele>1687.0</ele>
        <time>2013-09-13T14:56:51Z</time>
      </trkpt>
      <trkpt lat="42.130533" lon="0.969083">
        <ele>1686.0</ele>
        <time>2013-09-13T14:56:52Z</time>
      </trkpt>
      <trkpt lat="42.130567" lon="0.968983">
        <ele>1684.0</ele>
        <time>2013-09-13T14:56:53Z</time>
      </trkpt>
      <trkpt lat="42.130600" lon="0.968867">
        <ele>1683.0</ele>
        <time>2013-09-13T14:56:54Z</time>
      </trkpt>
      <trkpt lat="42.130633" lon="0.968750">
        <ele>1683.0</ele>
        <time>2013-09-13T14:56:55Z</time>
      </trkpt>
      <trkpt lat="42.130650" lon="0.968633">
        <ele>1683.0</ele>
        <time>2013-09-13T14:56:56Z</time>
      </trkpt>
      <trkpt lat="42.130683" lon="0.968533">
        <ele>1683.0</ele>
        <time>2013-09-13T14:56:57Z</time>
      </trkpt>
      <trkpt lat="42.130700" lon="0.968450">
        <ele>1683.0</ele>
        <time>2013-09-13T14:56:58Z</time>
      </trkpt>
      <trkpt lat="42.130717" lon="0.968367">
        <ele>1682.0</ele>
        <time>2013-09-13T14:56:59Z</time>
      </trkpt>
      <trkpt lat="42.130750" lon="0.968250">
        <ele>1681.0</ele>
        <time>2013-09-13T14:57:00Z</time>
      </trkpt>
      <trkpt lat="42.130767" lon="0.968133">
        <ele>1680.0</ele>
        <time>2013-09-13T14:57:01Z</time>
      </trkpt>
      <trkpt lat="42.130783" lon="0.968033">
        <ele>1679.0</ele>
        <time>2013-09-13T14:57:02Z</time>
      </trkpt>
      <trkpt lat="42.130800" lon="0.967950">
        <ele>1679.0</ele>
        <time>2013-09-13T14:57:03Z</time>
      </trkpt>
      <trkpt lat="42.130833" lon="0.967850">
        <ele>1678.0</ele>
        <time>2013-09-13T14:57:04Z</time>
      </trkpt>
      <trkpt lat="42.130867" lon="0.967750">
        <ele>1676.0</ele>
        <time>2013-09-13T14:57:05Z</time>
      </trkpt>
      <trkpt lat="42.130883" lon="0.967633">
        <ele>1674.0</ele>
        <time>2013-09-13T14:57:06Z</time>
      </trkpt>
      <trkpt lat="42.130917" lon="0.967533">
        <ele>1673.0</ele>
        <time>2013-09-13T14:57:07Z</time>
      </trkpt>
      <trkpt lat="42.130950" lon="0.967433">
        <ele>1673.0</ele>
        <time>2013-09-13T14:57:08Z</time>
      </trkpt>
      <trkpt lat="42.130983" lon="0.967350">
        <ele>1674.0</ele>
        <time>2013-09-13T14:57:09Z</time>
      </trkpt>
      <trkpt lat="42.131000" lon="0.967250">
        <ele>1673.0</ele>
        <time>2013-09-13T14:57:10Z</time>
      </trkpt>
      <trkpt lat="42.131017" lon="0.967133">
        <ele>1673.0</ele>
        <time>2013-09-13T14:57:11Z</time>
      </trkpt>
      <trkpt lat="42.131033" lon="0.967017">
        <ele>1671.0</ele>
        <time>2013-09-13T14:57:12Z</time>
      </trkpt>
      <trkpt lat="42.131050" lon="0.966883">
        <ele>1669.0</ele>
        <time>2013-09-13T14:57:13Z</time>
      </trkpt>
      <trkpt lat="42.131067" lon="0.966767">
        <ele>1668.0</ele>
        <time>2013-09-13T14:57:14Z</time>
      </trkpt>
      <trkpt lat="42.131083" lon="0.966667">
        <ele>1667.0</ele>
        <time>2013-09-13T14:57:15Z</time>
      </trkpt>
      <trkpt lat="42.131083" lon="0.966550">
        <ele>1666.0</ele>
        <time>2013-09-13T14:57:16Z</time>
      </trkpt>
      <trkpt lat="42.131083" lon="0.966450">
        <ele>1665.0</ele>
        <time>2013-09-13T14:57:17Z</time>
      </trkpt>
      <trkpt lat="42.131100" lon="0.966333">
        <ele>1664.0</ele>
        <time>2013-09-13T14:57:18Z</time>
      </trkpt>
      <trkpt lat="42.131117" lon="0.966217">
        <ele>1662.0</ele>
        <time>2013-09-13T14:57:19Z</time>
      </trkpt>
      <trkpt lat="42.131133" lon="0.966100">
        <ele>1660.0</ele>
        <time>2013-09-13T14:57:20Z</time>
      </trkpt>
      <trkpt lat="42.131133" lon="0.965983">
        <ele>1659.0</ele>
        <time>2013-09-13T14:57:21Z</time>
      </trkpt>
      <trkpt lat="42.131133" lon="0.965883">
        <ele>1658.0</ele>
        <time>2013-09-13T14:57:22Z</time>
      </trkpt>
      <trkpt lat="42.131117" lon="0.965767">
        <ele>1657.0</ele>
        <time>2013-09-13T14:57:23Z</time>
      </trkpt>
      <trkpt lat="42.131117" lon="0.965650">
        <ele>1656.0</ele>
        <time>2013-09-13T14:57:24Z</time>
      </trkpt>
      <trkpt lat="42.131133" lon="0.965550">
        <ele>1653.0</ele>
        <time>2013-09-13T14:57:25Z</time>
      </trkpt>
      <trkpt lat="42.131167" lon="0.965433">
        <ele>1651.0</ele>
        <time>2013-09-13T14:57:26Z</time>
      </trkpt>
      <trkpt lat="42.131167" lon="0.965333">
        <ele>1648.0</ele>
        <time>2013-09-13T14:57:27Z</time>
      </trkpt>
      <trkpt lat="42.131167" lon="0.965233">
        <ele>1646.0</ele>
        <time>2013-09-13T14:57:28Z</time>
      </trkpt>
      <trkpt lat="42.131183" lon="0.965133">
        <ele>1643.0</ele>
        <time>2013-09-13T14:57:29Z</time>
      </trkpt>
      <trkpt lat="42.131183" lon="0.965033">
        <ele>1640.0</ele>
        <time>2013-09-13T14:57:30Z</time>
      </trkpt>
      <trkpt lat="42.131200" lon="0.964933">
        <ele>1637.0</ele>
        <time>2013-09-13T14:57:31Z</time>
      </trkpt>
      <trkpt lat="42.131233" lon="0.964833">
        <ele>1634.0</ele>
        <time>2013-09-13T14:57:32Z</time>
      </trkpt>
      <trkpt lat="42.131250" lon="0.964733">
        <ele>1631.0</ele>
        <time>2013-09-13T14:57:33Z</time>
      </trkpt>
      <trkpt lat="42.131250" lon="0.964617">
        <ele>1628.0</ele>
        <time>2013-09-13T14:57:34Z</time>
      </trkpt>
      <trkpt lat="42.131267" lon="0.964500">
        <ele>1626.0</ele>
        <time>2013-09-13T14:57:35Z</time>
      </trkpt>
      <trkpt lat="42.131283" lon="0.964383">
        <ele>1623.0</ele>
        <time>2013-09-13T14:57:36Z</time>
      </trkpt>
      <trkpt lat="42.131283" lon="0.964283">
        <ele>1621.0</ele>
        <time>2013-09-13T14:57:37Z</time>
      </trkpt>
      <trkpt lat="42.131300" lon="0.964183">
        <ele>1619.0</ele>
        <time>2013-09-13T14:57:38Z</time>
      </trkpt>
      <trkpt lat="42.131317" lon="0.964083">
        <ele>1617.0</ele>
        <time>2013-09-13T14:57:39Z</time>
      </trkpt>
      <trkpt lat="42.131333" lon="0.963967">
        <ele>1615.0</ele>
        <time>2013-09-13T14:57:40Z</time>
      </trkpt>
      <trkpt lat="42.131350" lon="0.963867">
        <ele>1613.0</ele>
        <time>2013-09-13T14:57:41Z</time>
      </trkpt>
      <trkpt lat="42.131367" lon="0.963767">
        <ele>1611.0</ele>
        <time>2013-09-13T14:57:42Z</time>
      </trkpt>
      <trkpt lat="42.131383" lon="0.963650">
        <ele>1609.0</ele>
        <time>2013-09-13T14:57:43Z</time>
      </trkpt>
      <trkpt lat="42.131400" lon="0.963550">
        <ele>1606.0</ele>
        <time>2013-09-13T14:57:44Z</time>
      </trkpt>
      <trkpt lat="42.131400" lon="0.963433">
        <ele>1604.0</ele>
        <time>2013-09-13T14:57:45Z</time>
      </trkpt>
      <trkpt lat="42.131417" lon="0.963317">
        <ele>1602.0</ele>
        <time>2013-09-13T14:57:46Z</time>
      </trkpt>
      <trkpt lat="42.131433" lon="0.963200">
        <ele>1601.0</ele>
        <time>2013-09-13T14:57:47Z</time>
      </trkpt>
      <trkpt lat="42.131450" lon="0.963083">
        <ele>1601.0</ele>
        <time>2013-09-13T14:57:48Z</time>
      </trkpt>
      <trkpt lat="42.131483" lon="0.962983">
        <ele>1602.0</ele>
        <time>2013-09-13T14:57:49Z</time>
      </trkpt>
      <trkpt lat="42.131500" lon="0.962883">
        <ele>1603.0</ele>
        <time>2013-09-13T14:57:50Z</time>
      </trkpt>
      <trkpt lat="42.131533" lon="0.962783">
        <ele>1602.0</ele>
        <time>2013-09-13T14:57:51Z</time>
      </trkpt>
      <trkpt lat="42.131550" lon="0.962667">
        <ele>1602.0</ele>
        <time>2013-09-13T14:57:52Z</time>
      </trkpt>
      <trkpt lat="42.131583" lon="0.962550">
        <ele>1601.0</ele>
        <time>2013-09-13T14:57:53Z</time>
      </trkpt>
      <trkpt lat="42.131600" lon="0.962450">
        <ele>1601.0</ele>
        <time>2013-09-13T14:57:54Z</time>
      </trkpt>
      <trkpt lat="42.131617" lon="0.962333">
        <ele>1601.0</ele>
        <time>2013-09-13T14:57:55Z</time>
      </trkpt>
      <trkpt lat="42.131617" lon="0.962233">
        <ele>1601.0</ele>
        <time>2013-09-13T14:57:56Z</time>
      </trkpt>
      <trkpt lat="42.131633" lon="0.962117">
        <ele>1601.0</ele>
        <time>2013-09-13T14:57:57Z</time>
      </trkpt>
      <trkpt lat="42.131633" lon="0.962017">
        <ele>1601.0</ele>
        <time>2013-09-13T14:57:58Z</time>
      </trkpt>
      <trkpt lat="42.131650" lon="0.961900">
        <ele>1601.0</ele>
        <time>2013-09-13T14:57:59Z</time>
      </trkpt>
      <trkpt lat="42.131667" lon="0.961800">
        <ele>1601.0</ele>
        <time>2013-09-13T14:58:00Z</time>
      </trkpt>
      <trkpt lat="42.131683" lon="0.961700">
        <ele>1600.0</ele>
        <time>2013-09-13T14:58:01Z</time>
      </trkpt>
      <trkpt lat="42.131717" lon="0.961600">
        <ele>1599.0</ele>
        <time>2013-09-13T14:58:02Z</time>
      </trkpt>
      <trkpt lat="42.131733" lon="0.961483">
        <ele>1597.0</ele>
        <time>2013-09-13T14:58:03Z</time>
      </trkpt>
      <trkpt lat="42.131767" lon="0.961383">
        <ele>1596.0</ele>
        <time>2013-09-13T14:58:04Z</time>
      </trkpt>
      <trkpt lat="42.131783" lon="0.961267">
        <ele>1595.0</ele>
        <time>2013-09-13T14:58:05Z</time>
      </trkpt>
      <trkpt lat="42.131817" lon="0.961167">
        <ele>1594.0</ele>
        <time>2013-09-13T14:58:06Z</time>
      </trkpt>
      <trkpt lat="42.131833" lon="0.961067">
        <ele>1594.0</ele>
        <time>2013-09-13T14:58:07Z</time>
      </trkpt>
      <trkpt lat="42.131867" lon="0.960967">
        <ele>1593.0</ele>
        <time>2013-09-13T14:58:08Z</time>
      </trkpt>
      <trkpt lat="42.131883" lon="0.960883">
        <ele>1591.0</ele>
        <time>2013-09-13T14:58:09Z</time>
      </trkpt>
      <trkpt lat="42.131917" lon="0.960783">
        <ele>1590.0</ele>
        <time>2013-09-13T14:58:10Z</time>
      </trkpt>
      <trkpt lat="42.131933" lon="0.960700">
        <ele>1588.0</ele>
        <time>2013-09-13T14:58:11Z</time>
      </trkpt>
      <trkpt lat="42.131967" lon="0.960600">
        <ele>1586.0</ele>
        <time>2013-09-13T14:58:12Z</time>
      </trkpt>
      <trkpt lat="42.131983" lon="0.960500">
        <ele>1585.0</ele>
        <time>2013-09-13T14:58:13Z</time>
      </trkpt>
      <trkpt lat="42.132000" lon="0.960400">
        <ele>1583.0</ele>
        <time>2013-09-13T14:58:14Z</time>
      </trkpt>
      <trkpt lat="42.132017" lon="0.960317">
        <ele>1582.0</ele>
        <time>2013-09-13T14:58:15Z</time>
      </trkpt>
      <trkpt lat="42.132033" lon="0.960233">
        <ele>1581.0</ele>
        <time>2013-09-13T14:58:16Z</time>
      </trkpt>
      <trkpt lat="42.132050" lon="0.960133">
        <ele>1579.0</ele>
        <time>2013-09-13T14:58:17Z</time>
      </trkpt>
      <trkpt lat="42.132067" lon="0.960050">
        <ele>1578.0</ele>
        <time>2013-09-13T14:58:18Z</time>
      </trkpt>
      <trkpt lat="42.132100" lon="0.959967">
        <ele>1577.0</ele>
        <time>2013-09-13T14:58:19Z</time>
      </trkpt>
      <trkpt lat="42.132117" lon="0.959900">
        <ele>1576.0</ele>
        <time>2013-09-13T14:58:20Z</time>
      </trkpt>
      <trkpt lat="42.132117" lon="0.959817">
        <ele>1574.0</ele>
        <time>2013-09-13T14:58:21Z</time>
      </trkpt>
      <trkpt lat="42.132133" lon="0.959733">
        <ele>1573.0</ele>
        <time>2013-09-13T14:58:22Z</time>
      </trkpt>
      <trkpt lat="42.132133" lon="0.959650">
        <ele>1572.0</ele>
        <time>2013-09-13T14:58:23Z</time>
      </trkpt>
      <trkpt lat="42.132133" lon="0.959567">
        <ele>1570.0</ele>
        <time>2013-09-13T14:58:24Z</time>
      </trkpt>
      <trkpt lat="42.132133" lon="0.959483">
        <ele>1568.0</ele>
        <time>2013-09-13T14:58:25Z</time>
      </trkpt>
      <trkpt lat="42.132133" lon="0.959400">
        <ele>1566.0</ele>
        <time>2013-09-13T14:58:26Z</time>
      </trkpt>
      <trkpt lat="42.132150" lon="0.959317">
        <ele>1564.0</ele>
        <time>2013-09-13T14:58:27Z</time>
      </trkpt>
      <trkpt lat="42.132167" lon="0.959233">
        <ele>1562.0</ele>
        <time>2013-09-13T14:58:28Z</time>
      </trkpt>
      <trkpt lat="42.132200" lon="0.959133">
        <ele>1560.0</ele>
        <time>2013-09-13T14:58:29Z</time>
      </trkpt>
      <trkpt lat="42.132233" lon="0.959033">
        <ele>1558.0</ele>
        <time>2013-09-13T14:58:30Z</time>
      </trkpt>
      <trkpt lat="42.132267" lon="0.958950">
        <ele>1557.0</ele>
        <time>2013-09-13T14:58:31Z</time>
      </trkpt>
      <trkpt lat="42.132283" lon="0.958867">
        <ele>1556.0</ele>
        <time>2013-09-13T14:58:32Z</time>
      </trkpt>
      <trkpt lat="42.132317" lon="0.958783">
        <ele>1555.0</ele>
        <time>2013-09-13T14:58:33Z</time>
      </trkpt>
      <trkpt lat="42.132333" lon="0.958683">
        <ele>1554.0</ele>
        <time>2013-09-13T14:58:34Z</time>
      </trkpt>
      <trkpt lat="42.132350" lon="0.958583">
        <ele>1552.0</ele>
        <time>2013-09-13T14:58:35Z</time>
      </trkpt>
      <trkpt lat="42.132367" lon="0.958483">
        <ele>1550.0</ele>
        <time>2013-09-13T14:58:36Z</time>
      </trkpt>
      <trkpt lat="42.132383" lon="0.958400">
        <ele>1549.0</ele>
        <time>2013-09-13T14:58:37Z</time>
      </trkpt>
      <trkpt lat="42.132383" lon="0.958300">
        <ele>1547.0</ele>
        <time>2013-09-13T14:58:38Z</time>
      </trkpt>
      <trkpt lat="42.132367" lon="0.958200">
        <ele>1546.0</ele>
        <time>2013-09-13T14:58:39Z</time>
      </trkpt>
      <trkpt lat="42.132367" lon="0.958117">
        <ele>1544.0</ele>
        <time>2013-09-13T14:58:40Z</time>
      </trkpt>
      <trkpt lat="42.132350" lon="0.958017">
        <ele>1542.0</ele>
        <time>2013-09-13T14:58:41Z</time>
      </trkpt>
      <trkpt lat="42.132333" lon="0.957900">
        <ele>1540.0</ele>
        <time>2013-09-13T14:58:42Z</time>
      </trkpt>
      <trkpt lat="42.132333" lon="0.957800">
        <ele>1537.0</ele>
        <time>2013-09-13T14:58:43Z</time>
      </trkpt>
      <trkpt lat="42.132333" lon="0.957683">
        <ele>1534.0</ele>
        <time>2013-09-13T14:58:44Z</time>
      </trkpt>
      <trkpt lat="42.132317" lon="0.957583">
        <ele>1532.0</ele>
        <time>2013-09-13T14:58:45Z</time>
      </trkpt>
      <trkpt lat="42.132300" lon="0.957483">
        <ele>1530.0</ele>
        <time>2013-09-13T14:58:46Z</time>
      </trkpt>
      <trkpt lat="42.132283" lon="0.957383">
        <ele>1528.0</ele>
        <time>2013-09-13T14:58:47Z</time>
      </trkpt>
      <trkpt lat="42.132267" lon="0.957283">
        <ele>1526.0</ele>
        <time>2013-09-13T14:58:48Z</time>
      </trkpt>
      <trkpt lat="42.132250" lon="0.957167">
        <ele>1523.0</ele>
        <time>2013-09-13T14:58:49Z</time>
      </trkpt>
      <trkpt lat="42.132233" lon="0.957050">
        <ele>1520.0</ele>
        <time>2013-09-13T14:58:50Z</time>
      </trkpt>
      <trkpt lat="42.132183" lon="0.956833">
        <ele>1516.0</ele>
        <time>2013-09-13T14:58:52Z</time>
      </trkpt>
      <trkpt lat="42.132150" lon="0.956733">
        <ele>1514.0</ele>
        <time>2013-09-13T14:58:53Z</time>
      </trkpt>
      <trkpt lat="42.132117" lon="0.956650">
        <ele>1512.0</ele>
        <time>2013-09-13T14:58:54Z</time>
      </trkpt>
      <trkpt lat="42.132083" lon="0.956550">
        <ele>1510.0</ele>
        <time>2013-09-13T14:58:55Z</time>
      </trkpt>
      <trkpt lat="42.132050" lon="0.956450">
        <ele>1507.0</ele>
        <time>2013-09-13T14:58:56Z</time>
      </trkpt>
      <trkpt lat="42.132000" lon="0.956367">
        <ele>1505.0</ele>
        <time>2013-09-13T14:58:57Z</time>
      </trkpt>
      <trkpt lat="42.131983" lon="0.956283">
        <ele>1503.0</ele>
        <time>2013-09-13T14:58:58Z</time>
      </trkpt>
      <trkpt lat="42.131933" lon="0.956183">
        <ele>1501.0</ele>
        <time>2013-09-13T14:58:59Z</time>
      </trkpt>
      <trkpt lat="42.131900" lon="0.956100">
        <ele>1499.0</ele>
        <time>2013-09-13T14:59:00Z</time>
      </trkpt>
      <trkpt lat="42.131867" lon="0.956000">
        <ele>1497.0</ele>
        <time>2013-09-13T14:59:01Z</time>
      </trkpt>
      <trkpt lat="42.131817" lon="0.955900">
        <ele>1495.0</ele>
        <time>2013-09-13T14:59:02Z</time>
      </trkpt>
      <trkpt lat="42.131783" lon="0.955817">
        <ele>1493.0</ele>
        <time>2013-09-13T14:59:03Z</time>
      </trkpt>
      <trkpt lat="42.131767" lon="0.955750">
        <ele>1492.0</ele>
        <time>2013-09-13T14:59:04Z</time>
      </trkpt>
      <trkpt lat="42.131733" lon="0.955667">
        <ele>1490.0</ele>
        <time>2013-09-13T14:59:05Z</time>
      </trkpt>
      <trkpt lat="42.131717" lon="0.955583">
        <ele>1487.0</ele>
        <time>2013-09-13T14:59:06Z</time>
      </trkpt>
      <trkpt lat="42.131700" lon="0.955483">
        <ele>1485.0</ele>
        <time>2013-09-13T14:59:07Z</time>
      </trkpt>
      <trkpt lat="42.131683" lon="0.955383">
        <ele>1483.0</ele>
        <time>2013-09-13T14:59:08Z</time>
      </trkpt>
      <trkpt lat="42.131650" lon="0.955300">
        <ele>1481.0</ele>
        <time>2013-09-13T14:59:09Z</time>
      </trkpt>
      <trkpt lat="42.131633" lon="0.955217">
        <ele>1480.0</ele>
        <time>2013-09-13T14:59:10Z</time>
      </trkpt>
      <trkpt lat="42.131600" lon="0.955133">
        <ele>1478.0</ele>
        <time>2013-09-13T14:59:11Z</time>
      </trkpt>
      <trkpt lat="42.131567" lon="0.955050">
        <ele>1478.0</ele>
        <time>2013-09-13T14:59:12Z</time>
      </trkpt>
      <trkpt lat="42.131550" lon="0.954983">
        <ele>1476.0</ele>
        <time>2013-09-13T14:59:13Z</time>
      </trkpt>
      <trkpt lat="42.131517" lon="0.954917">
        <ele>1474.0</ele>
        <time>2013-09-13T14:59:14Z</time>
      </trkpt>
      <trkpt lat="42.131500" lon="0.954833">
        <ele>1471.0</ele>
        <time>2013-09-13T14:59:15Z</time>
      </trkpt>
      <trkpt lat="42.131483" lon="0.954750">
        <ele>1469.0</ele>
        <time>2013-09-13T14:59:16Z</time>
      </trkpt>
      <trkpt lat="42.131450" lon="0.954683">
        <ele>1468.0</ele>
        <time>2013-09-13T14:59:17Z</time>
      </trkpt>
      <trkpt lat="42.131433" lon="0.954617">
        <ele>1466.0</ele>
        <time>2013-09-13T14:59:18Z</time>
      </trkpt>
      <trkpt lat="42.131417" lon="0.954533">
        <ele>1465.0</ele>
        <time>2013-09-13T14:59:19Z</time>
      </trkpt>
      <trkpt lat="42.131400" lon="0.954467">
        <ele>1463.0</ele>
        <time>2013-09-13T14:59:20Z</time>
      </trkpt>
      <trkpt lat="42.131367" lon="0.954400">
        <ele>1460.0</ele>
        <time>2013-09-13T14:59:21Z</time>
      </trkpt>
      <trkpt lat="42.131350" lon="0.954317">
        <ele>1458.0</ele>
        <time>2013-09-13T14:59:22Z</time>
      </trkpt>
      <trkpt lat="42.131317" lon="0.954250">
        <ele>1456.0</ele>
        <time>2013-09-13T14:59:23Z</time>
      </trkpt>
      <trkpt lat="42.131300" lon="0.954167">
        <ele>1453.0</ele>
        <time>2013-09-13T14:59:24Z</time>
      </trkpt>
      <trkpt lat="42.131250" lon="0.954100">
        <ele>1451.0</ele>
        <time>2013-09-13T14:59:25Z</time>
      </trkpt>
      <trkpt lat="42.131217" lon="0.954033">
        <ele>1448.0</ele>
        <time>2013-09-13T14:59:26Z</time>
      </trkpt>
      <trkpt lat="42.131183" lon="0.953950">
        <ele>1446.0</ele>
        <time>2013-09-13T14:59:27Z</time>
      </trkpt>
      <trkpt lat="42.131150" lon="0.953883">
        <ele>1444.0</ele>
        <time>2013-09-13T14:59:28Z</time>
      </trkpt>
      <trkpt lat="42.131117" lon="0.953817">
        <ele>1442.0</ele>
        <time>2013-09-13T14:59:29Z</time>
      </trkpt>
      <trkpt lat="42.131083" lon="0.953750">
        <ele>1441.0</ele>
        <time>2013-09-13T14:59:30Z</time>
      </trkpt>
      <trkpt lat="42.131050" lon="0.953683">
        <ele>1439.0</ele>
        <time>2013-09-13T14:59:31Z</time>
      </trkpt>
      <trkpt lat="42.131017" lon="0.953617">
        <ele>1437.0</ele>
        <time>2013-09-13T14:59:32Z</time>
      </trkpt>
      <trkpt lat="42.130983" lon="0.953550">
        <ele>1435.0</ele>
        <time>2013-09-13T14:59:33Z</time>
      </trkpt>
      <trkpt lat="42.130950" lon="0.953483">
        <ele>1433.0</ele>
        <time>2013-09-13T14:59:34Z</time>
      </trkpt>
      <trkpt lat="42.130917" lon="0.953417">
        <ele>1431.0</ele>
        <time>2013-09-13T14:59:35Z</time>
      </trkpt>
      <trkpt lat="42.130883" lon="0.953367">
        <ele>1429.0</ele>
        <time>2013-09-13T14:59:36Z</time>
      </trkpt>
      <trkpt lat="42.130850" lon="0.953300">
        <ele>1427.0</ele>
        <time>2013-09-13T14:59:37Z</time>
      </trkpt>
      <trkpt lat="42.130833" lon="0.953233">
        <ele>1424.0</ele>
        <time>2013-09-13T14:59:38Z</time>
      </trkpt>
      <trkpt lat="42.130800" lon="0.953167">
        <ele>1422.0</ele>
        <time>2013-09-13T14:59:39Z</time>
      </trkpt>
      <trkpt lat="42.130783" lon="0.953100">
        <ele>1420.0</ele>
        <time>2013-09-13T14:59:40Z</time>
      </trkpt>
      <trkpt lat="42.130750" lon="0.953033">
        <ele>1418.0</ele>
        <time>2013-09-13T14:59:41Z</time>
      </trkpt>
      <trkpt lat="42.130733" lon="0.952967">
        <ele>1416.0</ele>
        <time>2013-09-13T14:59:42Z</time>
      </trkpt>
      <trkpt lat="42.130717" lon="0.952900">
        <ele>1414.0</ele>
        <time>2013-09-13T14:59:43Z</time>
      </trkpt>
      <trkpt lat="42.130683" lon="0.952833">
        <ele>1412.0</ele>
        <time>2013-09-13T14:59:44Z</time>
      </trkpt>
      <trkpt lat="42.130667" lon="0.952767">
        <ele>1411.0</ele>
        <time>2013-09-13T14:59:45Z</time>
      </trkpt>
      <trkpt lat="42.130650" lon="0.952683">
        <ele>1409.0</ele>
        <time>2013-09-13T14:59:46Z</time>
      </trkpt>
      <trkpt lat="42.130633" lon="0.952600">
        <ele>1409.0</ele>
        <time>2013-09-13T14:59:47Z</time>
      </trkpt>
      <trkpt lat="42.130617" lon="0.952533">
        <ele>1408.0</ele>
        <time>2013-09-13T14:59:48Z</time>
      </trkpt>
      <trkpt lat="42.130600" lon="0.952483">
        <ele>1407.0</ele>
        <time>2013-09-13T14:59:49Z</time>
      </trkpt>
      <trkpt lat="42.130567" lon="0.952417">
        <ele>1406.0</ele>
        <time>2013-09-13T14:59:50Z</time>
      </trkpt>
      <trkpt lat="42.130500" lon="0.952283">
        <ele>1403.0</ele>
        <time>2013-09-13T14:59:52Z</time>
      </trkpt>
      <trkpt lat="42.130467" lon="0.952217">
        <ele>1401.0</ele>
        <time>2013-09-13T14:59:53Z</time>
      </trkpt>
      <trkpt lat="42.130433" lon="0.952150">
        <ele>1401.0</ele>
        <time>2013-09-13T14:59:54Z</time>
      </trkpt>
      <trkpt lat="42.130417" lon="0.952100">
        <ele>1401.0</ele>
        <time>2013-09-13T14:59:55Z</time>
      </trkpt>
      <trkpt lat="42.130400" lon="0.952050">
        <ele>1400.0</ele>
        <time>2013-09-13T14:59:56Z</time>
      </trkpt>
      <trkpt lat="42.130383" lon="0.952000">
        <ele>1399.0</ele>
        <time>2013-09-13T14:59:57Z</time>
      </trkpt>
      <trkpt lat="42.130350" lon="0.951933">
        <ele>1398.0</ele>
        <time>2013-09-13T14:59:58Z</time>
      </trkpt>
      <trkpt lat="42.130317" lon="0.951867">
        <ele>1396.0</ele>
        <time>2013-09-13T14:59:59Z</time>
      </trkpt>
      <trkpt lat="42.130283" lon="0.951783">
        <ele>1394.0</ele>
        <time>2013-09-13T15:00:00Z</time>
      </trkpt>
      <trkpt lat="42.130250" lon="0.951700">
        <ele>1393.0</ele>
        <time>2013-09-13T15:00:01Z</time>
      </trkpt>
      <trkpt lat="42.130217" lon="0.951617">
        <ele>1393.0</ele>
        <time>2013-09-13T15:00:02Z</time>
      </trkpt>
      <trkpt lat="42.130200" lon="0.951550">
        <ele>1394.0</ele>
        <time>2013-09-13T15:00:03Z</time>
      </trkpt>
      <trkpt lat="42.130183" lon="0.951500">
        <ele>1395.0</ele>
        <time>2013-09-13T15:00:04Z</time>
      </trkpt>
      <trkpt lat="42.130150" lon="0.951433">
        <ele>1396.0</ele>
        <time>2013-09-13T15:00:05Z</time>
      </trkpt>
      <trkpt lat="42.130100" lon="0.951383">
        <ele>1396.0</ele>
        <time>2013-09-13T15:00:06Z</time>
      </trkpt>
      <trkpt lat="42.130050" lon="0.951317">
        <ele>1396.0</ele>
        <time>2013-09-13T15:00:07Z</time>
      </trkpt>
      <trkpt lat="42.130000" lon="0.951267">
        <ele>1396.0</ele>
        <time>2013-09-13T15:00:08Z</time>
      </trkpt>
      <trkpt lat="42.129950" lon="0.951217">
        <ele>1399.0</ele>
        <time>2013-09-13T15:00:09Z</time>
      </trkpt>
      <trkpt lat="42.129900" lon="0.951200">
        <ele>1401.0</ele>
        <time>2013-09-13T15:00:10Z</time>
      </trkpt>
      <trkpt lat="42.129850" lon="0.951200">
        <ele>1402.0</ele>
        <time>2013-09-13T15:00:11Z</time>
      </trkpt>
      <trkpt lat="42.129800" lon="0.951167">
        <ele>1403.0</ele>
        <time>2013-09-13T15:00:12Z</time>
      </trkpt>
      <trkpt lat="42.129767" lon="0.951100">
        <ele>1403.0</ele>
        <time>2013-09-13T15:00:13Z</time>
      </trkpt>
      <trkpt lat="42.129750" lon="0.951000">
        <ele>1403.0</ele>
        <time>2013-09-13T15:00:14Z</time>
      </trkpt>
      <trkpt lat="42.129767" lon="0.950900">
        <ele>1404.0</ele>
        <time>2013-09-13T15:00:15Z</time>
      </trkpt>
      <trkpt lat="42.129817" lon="0.950833">
        <ele>1406.0</ele>
        <time>2013-09-13T15:00:16Z</time>
      </trkpt>
      <trkpt lat="42.129850" lon="0.950783">
        <ele>1408.0</ele>
        <time>2013-09-13T15:00:17Z</time>
      </trkpt>
      <trkpt lat="42.129900" lon="0.950750">
        <ele>1410.0</ele>
        <time>2013-09-13T15:00:18Z</time>
      </trkpt>
      <trkpt lat="42.129967" lon="0.950700">
        <ele>1411.0</ele>
        <time>2013-09-13T15:00:19Z</time>
      </trkpt>
      <trkpt lat="42.130033" lon="0.950650">
        <ele>1410.0</ele>
        <time>2013-09-13T15:00:20Z</time>
      </trkpt>
      <trkpt lat="42.130133" lon="0.950633">
        <ele>1411.0</ele>
        <time>2013-09-13T15:00:21Z</time>
      </trkpt>
      <trkpt lat="42.130217" lon="0.950650">
        <ele>1412.0</ele>
        <time>2013-09-13T15:00:22Z</time>
      </trkpt>
      <trkpt lat="42.130300" lon="0.950683">
        <ele>1413.0</ele>
        <time>2013-09-13T15:00:23Z</time>
      </trkpt>
      <trkpt lat="42.130383" lon="0.950767">
        <ele>1414.0</ele>
        <time>2013-09-13T15:00:24Z</time>
      </trkpt>
      <trkpt lat="42.130450" lon="0.950850">
        <ele>1415.0</ele>
        <time>2013-09-13T15:00:25Z</time>
      </trkpt>
      <trkpt lat="42.130517" lon="0.950967">
        <ele>1416.0</ele>
        <time>2013-09-13T15:00:26Z</time>
      </trkpt>
      <trkpt lat="42.130567" lon="0.951067">
        <ele>1416.0</ele>
        <time>2013-09-13T15:00:27Z</time>
      </trkpt>
      <trkpt lat="42.130600" lon="0.951200">
        <ele>1417.0</ele>
        <time>2013-09-13T15:00:28Z</time>
      </trkpt>
      <trkpt lat="42.130617" lon="0.951333">
        <ele>1418.0</ele>
        <time>2013-09-13T15:00:29Z</time>
      </trkpt>
      <trkpt lat="42.130600" lon="0.951467">
        <ele>1418.0</ele>
        <time>2013-09-13T15:00:30Z</time>
      </trkpt>
      <trkpt lat="42.130517" lon="0.951650">
        <ele>1421.0</ele>
        <time>2013-09-13T15:00:32Z</time>
      </trkpt>
      <trkpt lat="42.130467" lon="0.951717">
        <ele>1422.0</ele>
        <time>2013-09-13T15:00:33Z</time>
      </trkpt>
      <trkpt lat="42.130417" lon="0.951767">
        <ele>1423.0</ele>
        <time>2013-09-13T15:00:34Z</time>
      </trkpt>
      <trkpt lat="42.130350" lon="0.951817">
        <ele>1424.0</ele>
        <time>2013-09-13T15:00:35Z</time>
      </trkpt>
      <trkpt lat="42.130283" lon="0.951850">
        <ele>1424.0</ele>
        <time>2013-09-13T15:00:36Z</time>
      </trkpt>
      <trkpt lat="42.130217" lon="0.951867">
        <ele>1424.0</ele>
        <time>2013-09-13T15:00:37Z</time>
      </trkpt>
      <trkpt lat="42.130133" lon="0.951867">
        <ele>1425.0</ele>
        <time>2013-09-13T15:00:38Z</time>
      </trkpt>
      <trkpt lat="42.130067" lon="0.951883">
        <ele>1425.0</ele>
        <time>2013-09-13T15:00:39Z</time>
      </trkpt>
      <trkpt lat="42.129983" lon="0.951883">
        <ele>1427.0</ele>
        <time>2013-09-13T15:00:40Z</time>
      </trkpt>
      <trkpt lat="42.129900" lon="0.951900">
        <ele>1429.0</ele>
        <time>2013-09-13T15:00:41Z</time>
      </trkpt>
      <trkpt lat="42.129817" lon="0.951933">
        <ele>1431.0</ele>
        <time>2013-09-13T15:00:42Z</time>
      </trkpt>
      <trkpt lat="42.129750" lon="0.951950">
        <ele>1435.0</ele>
        <time>2013-09-13T15:00:43Z</time>
      </trkpt>
      <trkpt lat="42.129700" lon="0.951983">
        <ele>1438.0</ele>
        <time>2013-09-13T15:00:44Z</time>
      </trkpt>
      <trkpt lat="42.129633" lon="0.952000">
        <ele>1440.0</ele>
        <time>2013-09-13T15:00:45Z</time>
      </trkpt>
      <trkpt lat="42.129567" lon="0.952033">
        <ele>1441.0</ele>
        <time>2013-09-13T15:00:46Z</time>
      </trkpt>
      <trkpt lat="42.129517" lon="0.952067">
        <ele>1442.0</ele>
        <time>2013-09-13T15:00:47Z</time>
      </trkpt>
      <trkpt lat="42.129450" lon="0.952100">
        <ele>1443.0</ele>
        <time>2013-09-13T15:00:48Z</time>
      </trkpt>
      <trkpt lat="42.129383" lon="0.952133">
        <ele>1445.0</ele>
        <time>2013-09-13T15:00:49Z</time>
      </trkpt>
      <trkpt lat="42.129333" lon="0.952167">
        <ele>1446.0</ele>
        <time>2013-09-13T15:00:50Z</time>
      </trkpt>
      <trkpt lat="42.129267" lon="0.952200">
        <ele>1448.0</ele>
        <time>2013-09-13T15:00:51Z</time>
      </trkpt>
      <trkpt lat="42.129200" lon="0.952233">
        <ele>1450.0</ele>
        <time>2013-09-13T15:00:52Z</time>
      </trkpt>
      <trkpt lat="42.129133" lon="0.952250">
        <ele>1452.0</ele>
        <time>2013-09-13T15:00:53Z</time>
      </trkpt>
      <trkpt lat="42.129083" lon="0.952283">
        <ele>1454.0</ele>
        <time>2013-09-13T15:00:54Z</time>
      </trkpt>
      <trkpt lat="42.129017" lon="0.952333">
        <ele>1455.0</ele>
        <time>2013-09-13T15:00:55Z</time>
      </trkpt>
      <trkpt lat="42.128950" lon="0.952383">
        <ele>1456.0</ele>
        <time>2013-09-13T15:00:56Z</time>
      </trkpt>
      <trkpt lat="42.128883" lon="0.952417">
        <ele>1457.0</ele>
        <time>2013-09-13T15:00:57Z</time>
      </trkpt>
      <trkpt lat="42.128817" lon="0.952467">
        <ele>1459.0</ele>
        <time>2013-09-13T15:00:58Z</time>
      </trkpt>
      <trkpt lat="42.128750" lon="0.952517">
        <ele>1461.0</ele>
        <time>2013-09-13T15:00:59Z</time>
      </trkpt>
      <trkpt lat="42.128700" lon="0.952567">
        <ele>1463.0</ele>
        <time>2013-09-13T15:01:00Z</time>
      </trkpt>
      <trkpt lat="42.128650" lon="0.952633">
        <ele>1465.0</ele>
        <time>2013-09-13T15:01:01Z</time>
      </trkpt>
      <trkpt lat="42.128583" lon="0.952700">
        <ele>1465.0</ele>
        <time>2013-09-13T15:01:02Z</time>
      </trkpt>
      <trkpt lat="42.128517" lon="0.952767">
        <ele>1465.0</ele>
        <time>2013-09-13T15:01:03Z</time>
      </trkpt>
      <trkpt lat="42.128450" lon="0.952833">
        <ele>1466.0</ele>
        <time>2013-09-13T15:01:04Z</time>
      </trkpt>
      <trkpt lat="42.128317" lon="0.952883">
        <ele>1468.0</ele>
        <time>2013-09-13T15:01:06Z</time>
      </trkpt>
      <trkpt lat="42.128267" lon="0.952867">
        <ele>1469.0</ele>
        <time>2013-09-13T15:01:07Z</time>
      </trkpt>
      <trkpt lat="42.128217" lon="0.952817">
        <ele>1470.0</ele>
        <time>2013-09-13T15:01:08Z</time>
      </trkpt>
      <trkpt lat="42.128167" lon="0.952783">
        <ele>1470.0</ele>
        <time>2013-09-13T15:01:09Z</time>
      </trkpt>
      <trkpt lat="42.128150" lon="0.952717">
        <ele>1472.0</ele>
        <time>2013-09-13T15:01:10Z</time>
      </trkpt>
      <trkpt lat="42.128117" lon="0.952667">
        <ele>1472.0</ele>
        <time>2013-09-13T15:01:11Z</time>
      </trkpt>
      <trkpt lat="42.128117" lon="0.952583">
        <ele>1473.0</ele>
        <time>2013-09-13T15:01:12Z</time>
      </trkpt>
      <trkpt lat="42.128133" lon="0.952500">
        <ele>1473.0</ele>
        <time>2013-09-13T15:01:13Z</time>
      </trkpt>
      <trkpt lat="42.128167" lon="0.952400">
        <ele>1473.0</ele>
        <time>2013-09-13T15:01:14Z</time>
      </trkpt>
      <trkpt lat="42.128217" lon="0.952317">
        <ele>1474.0</ele>
        <time>2013-09-13T15:01:15Z</time>
      </trkpt>
      <trkpt lat="42.128283" lon="0.952283">
        <ele>1475.0</ele>
        <time>2013-09-13T15:01:16Z</time>
      </trkpt>
      <trkpt lat="42.128367" lon="0.952267">
        <ele>1476.0</ele>
        <time>2013-09-13T15:01:17Z</time>
      </trkpt>
      <trkpt lat="42.128550" lon="0.952317">
        <ele>1477.0</ele>
        <time>2013-09-13T15:01:19Z</time>
      </trkpt>
      <trkpt lat="42.128650" lon="0.952383">
        <ele>1478.0</ele>
        <time>2013-09-13T15:01:20Z</time>
      </trkpt>
      <trkpt lat="42.128717" lon="0.952467">
        <ele>1478.0</ele>
        <time>2013-09-13T15:01:21Z</time>
      </trkpt>
      <trkpt lat="42.128767" lon="0.952583">
        <ele>1479.0</ele>
        <time>2013-09-13T15:01:22Z</time>
      </trkpt>
      <trkpt lat="42.128800" lon="0.952933">
        <ele>1481.0</ele>
        <time>2013-09-13T15:01:25Z</time>
      </trkpt>
      <trkpt lat="42.128767" lon="0.953033">
        <ele>1482.0</ele>
        <time>2013-09-13T15:01:26Z</time>
      </trkpt>
      <trkpt lat="42.128717" lon="0.953117">
        <ele>1483.0</ele>
        <time>2013-09-13T15:01:27Z</time>
      </trkpt>
      <trkpt lat="42.128650" lon="0.953183">
        <ele>1483.0</ele>
        <time>2013-09-13T15:01:28Z</time>
      </trkpt>
      <trkpt lat="42.128583" lon="0.953233">
        <ele>1483.0</ele>
        <time>2013-09-13T15:01:29Z</time>
      </trkpt>
      <trkpt lat="42.128517" lon="0.953250">
        <ele>1483.0</ele>
        <time>2013-09-13T15:01:30Z</time>
      </trkpt>
      <trkpt lat="42.128450" lon="0.953233">
        <ele>1483.0</ele>
        <time>2013-09-13T15:01:31Z</time>
      </trkpt>
      <trkpt lat="42.128400" lon="0.953167">
        <ele>1483.0</ele>
        <time>2013-09-13T15:01:32Z</time>
      </trkpt>
      <trkpt lat="42.128350" lon="0.953117">
        <ele>1484.0</ele>
        <time>2013-09-13T15:01:33Z</time>
      </trkpt>
      <trkpt lat="42.128317" lon="0.953050">
        <ele>1486.0</ele>
        <time>2013-09-13T15:01:34Z</time>
      </trkpt>
      <trkpt lat="42.128283" lon="0.953000">
        <ele>1487.0</ele>
        <time>2013-09-13T15:01:35Z</time>
      </trkpt>
      <trkpt lat="42.128267" lon="0.952950">
        <ele>1488.0</ele>
        <time>2013-09-13T15:01:36Z</time>
      </trkpt>
      <trkpt lat="42.128233" lon="0.952883">
        <ele>1488.0</ele>
        <time>2013-09-13T15:01:37Z</time>
      </trkpt>
      <trkpt lat="42.128217" lon="0.952800">
        <ele>1488.0</ele>
        <time>2013-09-13T15:01:38Z</time>
      </trkpt>
      <trkpt lat="42.128200" lon="0.952717">
        <ele>1489.0</ele>
        <time>2013-09-13T15:01:39Z</time>
      </trkpt>
      <trkpt lat="42.128167" lon="0.952633">
        <ele>1489.0</ele>
        <time>2013-09-13T15:01:40Z</time>
      </trkpt>
      <trkpt lat="42.128150" lon="0.952567">
        <ele>1489.0</ele>
        <time>2013-09-13T15:01:41Z</time>
      </trkpt>
      <trkpt lat="42.128117" lon="0.952517">
        <ele>1489.0</ele>
        <time>2013-09-13T15:01:42Z</time>
      </trkpt>
      <trkpt lat="42.128100" lon="0.952433">
        <ele>1489.0</ele>
        <time>2013-09-13T15:01:43Z</time>
      </trkpt>
      <trkpt lat="42.128100" lon="0.952367">
        <ele>1488.0</ele>
        <time>2013-09-13T15:01:44Z</time>
      </trkpt>
      <trkpt lat="42.128133" lon="0.952283">
        <ele>1488.0</ele>
        <time>2013-09-13T15:01:45Z</time>
      </trkpt>
      <trkpt lat="42.128183" lon="0.952217">
        <ele>1488.0</ele>
        <time>2013-09-13T15:01:46Z</time>
      </trkpt>
      <trkpt lat="42.128267" lon="0.952167">
        <ele>1488.0</ele>
        <time>2013-09-13T15:01:47Z</time>
      </trkpt>
      <trkpt lat="42.128350" lon="0.952150">
        <ele>1488.0</ele>
        <time>2013-09-13T15:01:48Z</time>
      </trkpt>
      <trkpt lat="42.128450" lon="0.952150">
        <ele>1488.0</ele>
        <time>2013-09-13T15:01:49Z</time>
      </trkpt>
      <trkpt lat="42.128550" lon="0.952167">
        <ele>1488.0</ele>
        <time>2013-09-13T15:01:50Z</time>
      </trkpt>
      <trkpt lat="42.128633" lon="0.952233">
        <ele>1488.0</ele>
        <time>2013-09-13T15:01:51Z</time>
      </trkpt>
      <trkpt lat="42.128717" lon="0.952350">
        <ele>1488.0</ele>
        <time>2013-09-13T15:01:52Z</time>
      </trkpt>
      <trkpt lat="42.128783" lon="0.952467">
        <ele>1489.0</ele>
        <time>2013-09-13T15:01:53Z</time>
      </trkpt>
      <trkpt lat="42.128817" lon="0.952600">
        <ele>1489.0</ele>
        <time>2013-09-13T15:01:54Z</time>
      </trkpt>
      <trkpt lat="42.128833" lon="0.952733">
        <ele>1490.0</ele>
        <time>2013-09-13T15:01:55Z</time>
      </trkpt>
      <trkpt lat="42.128833" lon="0.952867">
        <ele>1490.0</ele>
        <time>2013-09-13T15:01:56Z</time>
      </trkpt>
      <trkpt lat="42.128833" lon="0.953017">
        <ele>1490.0</ele>
        <time>2013-09-13T15:01:57Z</time>
      </trkpt>
      <trkpt lat="42.128800" lon="0.953150">
        <ele>1492.0</ele>
        <time>2013-09-13T15:01:58Z</time>
      </trkpt>
      <trkpt lat="42.128783" lon="0.953267">
        <ele>1493.0</ele>
        <time>2013-09-13T15:01:59Z</time>
      </trkpt>
      <trkpt lat="42.128733" lon="0.953350">
        <ele>1495.0</ele>
        <time>2013-09-13T15:02:00Z</time>
      </trkpt>
      <trkpt lat="42.128633" lon="0.953450">
        <ele>1497.0</ele>
        <time>2013-09-13T15:02:02Z</time>
      </trkpt>
      <trkpt lat="42.128567" lon="0.953500">
        <ele>1498.0</ele>
        <time>2013-09-13T15:02:03Z</time>
      </trkpt>
      <trkpt lat="42.128500" lon="0.953517">
        <ele>1498.0</ele>
        <time>2013-09-13T15:02:04Z</time>
      </trkpt>
      <trkpt lat="42.128450" lon="0.953517">
        <ele>1498.0</ele>
        <time>2013-09-13T15:02:05Z</time>
      </trkpt>
      <trkpt lat="42.128400" lon="0.953500">
        <ele>1498.0</ele>
        <time>2013-09-13T15:02:06Z</time>
      </trkpt>
      <trkpt lat="42.128367" lon="0.953467">
        <ele>1498.0</ele>
        <time>2013-09-13T15:02:07Z</time>
      </trkpt>
      <trkpt lat="42.128333" lon="0.953400">
        <ele>1497.0</ele>
        <time>2013-09-13T15:02:08Z</time>
      </trkpt>
      <trkpt lat="42.128300" lon="0.953333">
        <ele>1497.0</ele>
        <time>2013-09-13T15:02:09Z</time>
      </trkpt>
      <trkpt lat="42.128300" lon="0.953267">
        <ele>1497.0</ele>
        <time>2013-09-13T15:02:10Z</time>
      </trkpt>
      <trkpt lat="42.128300" lon="0.953200">
        <ele>1498.0</ele>
        <time>2013-09-13T15:02:11Z</time>
      </trkpt>
      <trkpt lat="42.128317" lon="0.953133">
        <ele>1499.0</ele>
        <time>2013-09-13T15:02:12Z</time>
      </trkpt>
      <trkpt lat="42.128333" lon="0.953067">
        <ele>1499.0</ele>
        <time>2013-09-13T15:02:13Z</time>
      </trkpt>
      <trkpt lat="42.128400" lon="0.953000">
        <ele>1499.0</ele>
        <time>2013-09-13T15:02:14Z</time>
      </trkpt>
      <trkpt lat="42.128467" lon="0.952933">
        <ele>1499.0</ele>
        <time>2013-09-13T15:02:15Z</time>
      </trkpt>
      <trkpt lat="42.128567" lon="0.952900">
        <ele>1498.0</ele>
        <time>2013-09-13T15:02:16Z</time>
      </trkpt>
      <trkpt lat="42.128650" lon="0.952917">
        <ele>1499.0</ele>
        <time>2013-09-13T15:02:17Z</time>
      </trkpt>
      <trkpt lat="42.128750" lon="0.952967">
        <ele>1499.0</ele>
        <time>2013-09-13T15:02:18Z</time>
      </trkpt>
      <trkpt lat="42.128850" lon="0.953033">
        <ele>1499.0</ele>
        <time>2013-09-13T15:02:19Z</time>
      </trkpt>
      <trkpt lat="42.128933" lon="0.953150">
        <ele>1499.0</ele>
        <time>2013-09-13T15:02:20Z</time>
      </trkpt>
      <trkpt lat="42.129000" lon="0.953250">
        <ele>1499.0</ele>
        <time>2013-09-13T15:02:21Z</time>
      </trkpt>
      <trkpt lat="42.129067" lon="0.953350">
        <ele>1499.0</ele>
        <time>2013-09-13T15:02:22Z</time>
      </trkpt>
      <trkpt lat="42.129150" lon="0.953433">
        <ele>1499.0</ele>
        <time>2013-09-13T15:02:23Z</time>
      </trkpt>
      <trkpt lat="42.129250" lon="0.953483">
        <ele>1500.0</ele>
        <time>2013-09-13T15:02:24Z</time>
      </trkpt>
      <trkpt lat="42.129450" lon="0.953483">
        <ele>1501.0</ele>
        <time>2013-09-13T15:02:26Z</time>
      </trkpt>
      <trkpt lat="42.129517" lon="0.953450">
        <ele>1504.0</ele>
        <time>2013-09-13T15:02:27Z</time>
      </trkpt>
      <trkpt lat="42.129567" lon="0.953400">
        <ele>1506.0</ele>
        <time>2013-09-13T15:02:28Z</time>
      </trkpt>
      <trkpt lat="42.129633" lon="0.953350">
        <ele>1507.0</ele>
        <time>2013-09-13T15:02:29Z</time>
      </trkpt>
      <trkpt lat="42.129717" lon="0.953317">
        <ele>1508.0</ele>
        <time>2013-09-13T15:02:30Z</time>
      </trkpt>
      <trkpt lat="42.129817" lon="0.953317">
        <ele>1508.0</ele>
        <time>2013-09-13T15:02:31Z</time>
      </trkpt>
      <trkpt lat="42.129917" lon="0.953350">
        <ele>1508.0</ele>
        <time>2013-09-13T15:02:32Z</time>
      </trkpt>
      <trkpt lat="42.130017" lon="0.953433">
        <ele>1509.0</ele>
        <time>2013-09-13T15:02:33Z</time>
      </trkpt>
      <trkpt lat="42.130100" lon="0.953633">
        <ele>1513.0</ele>
        <time>2013-09-13T15:02:35Z</time>
      </trkpt>
      <trkpt lat="42.130117" lon="0.953750">
        <ele>1515.0</ele>
        <time>2013-09-13T15:02:36Z</time>
      </trkpt>
      <trkpt lat="42.130117" lon="0.953883">
        <ele>1516.0</ele>
        <time>2013-09-13T15:02:37Z</time>
      </trkpt>
      <trkpt lat="42.130083" lon="0.954000">
        <ele>1517.0</ele>
        <time>2013-09-13T15:02:38Z</time>
      </trkpt>
      <trkpt lat="42.130050" lon="0.954100">
        <ele>1519.0</ele>
        <time>2013-09-13T15:02:39Z</time>
      </trkpt>
      <trkpt lat="42.130000" lon="0.954183">
        <ele>1521.0</ele>
        <time>2013-09-13T15:02:40Z</time>
      </trkpt>
      <trkpt lat="42.129933" lon="0.954233">
        <ele>1523.0</ele>
        <time>2013-09-13T15:02:41Z</time>
      </trkpt>
      <trkpt lat="42.129867" lon="0.954250">
        <ele>1524.0</ele>
        <time>2013-09-13T15:02:42Z</time>
      </trkpt>
      <trkpt lat="42.129800" lon="0.954250">
        <ele>1526.0</ele>
        <time>2013-09-13T15:02:43Z</time>
      </trkpt>
      <trkpt lat="42.129733" lon="0.954233">
        <ele>1528.0</ele>
        <time>2013-09-13T15:02:44Z</time>
      </trkpt>
      <trkpt lat="42.129683" lon="0.954200">
        <ele>1529.0</ele>
        <time>2013-09-13T15:02:45Z</time>
      </trkpt>
      <trkpt lat="42.129633" lon="0.954150">
        <ele>1531.0</ele>
        <time>2013-09-13T15:02:46Z</time>
      </trkpt>
      <trkpt lat="42.129617" lon="0.954067">
        <ele>1532.0</ele>
        <time>2013-09-13T15:02:47Z</time>
      </trkpt>
      <trkpt lat="42.129617" lon="0.953983">
        <ele>1532.0</ele>
        <time>2013-09-13T15:02:48Z</time>
      </trkpt>
      <trkpt lat="42.129650" lon="0.953900">
        <ele>1533.0</ele>
        <time>2013-09-13T15:02:49Z</time>
      </trkpt>
      <trkpt lat="42.129700" lon="0.953817">
        <ele>1533.0</ele>
        <time>2013-09-13T15:02:50Z</time>
      </trkpt>
      <trkpt lat="42.129750" lon="0.953767">
        <ele>1534.0</ele>
        <time>2013-09-13T15:02:51Z</time>
      </trkpt>
      <trkpt lat="42.129817" lon="0.953700">
        <ele>1535.0</ele>
        <time>2013-09-13T15:02:52Z</time>
      </trkpt>
      <trkpt lat="42.129900" lon="0.953667">
        <ele>1536.0</ele>
        <time>2013-09-13T15:02:53Z</time>
      </trkpt>
      <trkpt lat="42.130000" lon="0.953650">
        <ele>1536.0</ele>
        <time>2013-09-13T15:02:54Z</time>
      </trkpt>
      <trkpt lat="42.130117" lon="0.953683">
        <ele>1535.0</ele>
        <time>2013-09-13T15:02:55Z</time>
      </trkpt>
      <trkpt lat="42.130217" lon="0.953767">
        <ele>1536.0</ele>
        <time>2013-09-13T15:02:56Z</time>
      </trkpt>
      <trkpt lat="42.130300" lon="0.953867">
        <ele>1537.0</ele>
        <time>2013-09-13T15:02:57Z</time>
      </trkpt>
      <trkpt lat="42.130350" lon="0.953967">
        <ele>1540.0</ele>
        <time>2013-09-13T15:02:58Z</time>
      </trkpt>
      <trkpt lat="42.130400" lon="0.954083">
        <ele>1542.0</ele>
        <time>2013-09-13T15:02:59Z</time>
      </trkpt>
      <trkpt lat="42.130417" lon="0.954200">
        <ele>1544.0</ele>
        <time>2013-09-13T15:03:00Z</time>
      </trkpt>
      <trkpt lat="42.130433" lon="0.954333">
        <ele>1546.0</ele>
        <time>2013-09-13T15:03:01Z</time>
      </trkpt>
      <trkpt lat="42.130450" lon="0.954483">
        <ele>1548.0</ele>
        <time>2013-09-13T15:03:02Z</time>
      </trkpt>
      <trkpt lat="42.130450" lon="0.954617">
        <ele>1550.0</ele>
        <time>2013-09-13T15:03:03Z</time>
      </trkpt>
      <trkpt lat="42.130433" lon="0.954717">
        <ele>1553.0</ele>
        <time>2013-09-13T15:03:04Z</time>
      </trkpt>
      <trkpt lat="42.130400" lon="0.954800">
        <ele>1556.0</ele>
        <time>2013-09-13T15:03:05Z</time>
      </trkpt>
      <trkpt lat="42.130350" lon="0.954867">
        <ele>1557.0</ele>
        <time>2013-09-13T15:03:06Z</time>
      </trkpt>
      <trkpt lat="42.130267" lon="0.954950">
        <ele>1558.0</ele>
        <time>2013-09-13T15:03:07Z</time>
      </trkpt>
      <trkpt lat="42.130200" lon="0.955017">
        <ele>1559.0</ele>
        <time>2013-09-13T15:03:08Z</time>
      </trkpt>
      <trkpt lat="42.130133" lon="0.955067">
        <ele>1562.0</ele>
        <time>2013-09-13T15:03:09Z</time>
      </trkpt>
      <trkpt lat="42.130083" lon="0.955083">
        <ele>1565.0</ele>
        <time>2013-09-13T15:03:10Z</time>
      </trkpt>
      <trkpt lat="42.130033" lon="0.955067">
        <ele>1567.0</ele>
        <time>2013-09-13T15:03:11Z</time>
      </trkpt>
      <trkpt lat="42.130000" lon="0.955000">
        <ele>1568.0</ele>
        <time>2013-09-13T15:03:12Z</time>
      </trkpt>
      <trkpt lat="42.129967" lon="0.954933">
        <ele>1567.0</ele>
        <time>2013-09-13T15:03:13Z</time>
      </trkpt>
      <trkpt lat="42.129933" lon="0.954867">
        <ele>1567.0</ele>
        <time>2013-09-13T15:03:14Z</time>
      </trkpt>
      <trkpt lat="42.129933" lon="0.954800">
        <ele>1568.0</ele>
        <time>2013-09-13T15:03:15Z</time>
      </trkpt>
      <trkpt lat="42.129917" lon="0.954733">
        <ele>1569.0</ele>
        <time>2013-09-13T15:03:16Z</time>
      </trkpt>
      <trkpt lat="42.129950" lon="0.954667">
        <ele>1570.0</ele>
        <time>2013-09-13T15:03:17Z</time>
      </trkpt>
      <trkpt lat="42.129983" lon="0.954583">
        <ele>1569.0</ele>
        <time>2013-09-13T15:03:18Z</time>
      </trkpt>
      <trkpt lat="42.130050" lon="0.954517">
        <ele>1568.0</ele>
        <time>2013-09-13T15:03:19Z</time>
      </trkpt>
      <trkpt lat="42.130133" lon="0.954467">
        <ele>1568.0</ele>
        <time>2013-09-13T15:03:20Z</time>
      </trkpt>
      <trkpt lat="42.130233" lon="0.954450">
        <ele>1568.0</ele>
        <time>2013-09-13T15:03:21Z</time>
      </trkpt>
      <trkpt lat="42.130333" lon="0.954467">
        <ele>1569.0</ele>
        <time>2013-09-13T15:03:22Z</time>
      </trkpt>
      <trkpt lat="42.130433" lon="0.954500">
        <ele>1570.0</ele>
        <time>2013-09-13T15:03:23Z</time>
      </trkpt>
      <trkpt lat="42.130533" lon="0.954567">
        <ele>1572.0</ele>
        <time>2013-09-13T15:03:24Z</time>
      </trkpt>
      <trkpt lat="42.130617" lon="0.954650">
        <ele>1573.0</ele>
        <time>2013-09-13T15:03:25Z</time>
      </trkpt>
      <trkpt lat="42.130683" lon="0.954767">
        <ele>1573.0</ele>
        <time>2013-09-13T15:03:26Z</time>
      </trkpt>
      <trkpt lat="42.130750" lon="0.954883">
        <ele>1574.0</ele>
        <time>2013-09-13T15:03:27Z</time>
      </trkpt>
      <trkpt lat="42.130800" lon="0.955017">
        <ele>1575.0</ele>
        <time>2013-09-13T15:03:28Z</time>
      </trkpt>
      <trkpt lat="42.130800" lon="0.955167">
        <ele>1576.0</ele>
        <time>2013-09-13T15:03:29Z</time>
      </trkpt>
      <trkpt lat="42.130783" lon="0.955283">
        <ele>1578.0</ele>
        <time>2013-09-13T15:03:30Z</time>
      </trkpt>
      <trkpt lat="42.130750" lon="0.955400">
        <ele>1579.0</ele>
        <time>2013-09-13T15:03:31Z</time>
      </trkpt>
      <trkpt lat="42.130683" lon="0.955467">
        <ele>1580.0</ele>
        <time>2013-09-13T15:03:32Z</time>
      </trkpt>
      <trkpt lat="42.130617" lon="0.955517">
        <ele>1582.0</ele>
        <time>2013-09-13T15:03:33Z</time>
      </trkpt>
      <trkpt lat="42.130567" lon="0.955533">
        <ele>1584.0</ele>
        <time>2013-09-13T15:03:34Z</time>
      </trkpt>
      <trkpt lat="42.130517" lon="0.955550">
        <ele>1587.0</ele>
        <time>2013-09-13T15:03:35Z</time>
      </trkpt>
      <trkpt lat="42.130467" lon="0.955550">
        <ele>1588.0</ele>
        <time>2013-09-13T15:03:36Z</time>
      </trkpt>
      <trkpt lat="42.130417" lon="0.955533">
        <ele>1589.0</ele>
        <time>2013-09-13T15:03:37Z</time>
      </trkpt>
      <trkpt lat="42.130367" lon="0.955500">
        <ele>1589.0</ele>
        <time>2013-09-13T15:03:38Z</time>
      </trkpt>
      <trkpt lat="42.130333" lon="0.955433">
        <ele>1588.0</ele>
        <time>2013-09-13T15:03:39Z</time>
      </trkpt>
      <trkpt lat="42.130300" lon="0.955367">
        <ele>1589.0</ele>
        <time>2013-09-13T15:03:40Z</time>
      </trkpt>
      <trkpt lat="42.130283" lon="0.955300">
        <ele>1590.0</ele>
        <time>2013-09-13T15:03:41Z</time>
      </trkpt>
      <trkpt lat="42.130283" lon="0.955233">
        <ele>1591.0</ele>
        <time>2013-09-13T15:03:42Z</time>
      </trkpt>
      <trkpt lat="42.130317" lon="0.955167">
        <ele>1592.0</ele>
        <time>2013-09-13T15:03:43Z</time>
      </trkpt>
      <trkpt lat="42.130350" lon="0.955083">
        <ele>1591.0</ele>
        <time>2013-09-13T15:03:44Z</time>
      </trkpt>
      <trkpt lat="42.130417" lon="0.955000">
        <ele>1590.0</ele>
        <time>2013-09-13T15:03:45Z</time>
      </trkpt>
      <trkpt lat="42.130500" lon="0.954950">
        <ele>1590.0</ele>
        <time>2013-09-13T15:03:46Z</time>
      </trkpt>
      <trkpt lat="42.130600" lon="0.954933">
        <ele>1591.0</ele>
        <time>2013-09-13T15:03:47Z</time>
      </trkpt>
      <trkpt lat="42.130700" lon="0.954967">
        <ele>1592.0</ele>
        <time>2013-09-13T15:03:48Z</time>
      </trkpt>
      <trkpt lat="42.130800" lon="0.955017">
        <ele>1593.0</ele>
        <time>2013-09-13T15:03:49Z</time>
      </trkpt>
      <trkpt lat="42.130883" lon="0.955100">
        <ele>1594.0</ele>
        <time>2013-09-13T15:03:50Z</time>
      </trkpt>
      <trkpt lat="42.130967" lon="0.955200">
        <ele>1596.0</ele>
        <time>2013-09-13T15:03:51Z</time>
      </trkpt>
      <trkpt lat="42.131033" lon="0.955300">
        <ele>1597.0</ele>
        <time>2013-09-13T15:03:52Z</time>
      </trkpt>
      <trkpt lat="42.131083" lon="0.955417">
        <ele>1598.0</ele>
        <time>2013-09-13T15:03:53Z</time>
      </trkpt>
      <trkpt lat="42.131117" lon="0.955550">
        <ele>1599.0</ele>
        <time>2013-09-13T15:03:54Z</time>
      </trkpt>
      <trkpt lat="42.131117" lon="0.955700">
        <ele>1600.0</ele>
        <time>2013-09-13T15:03:55Z</time>
      </trkpt>
      <trkpt lat="42.131117" lon="0.955817">
        <ele>1601.0</ele>
        <time>2013-09-13T15:03:56Z</time>
      </trkpt>
      <trkpt lat="42.131100" lon="0.955933">
        <ele>1603.0</ele>
        <time>2013-09-13T15:03:57Z</time>
      </trkpt>
      <trkpt lat="42.131067" lon="0.956033">
        <ele>1605.0</ele>
        <time>2013-09-13T15:03:58Z</time>
      </trkpt>
      <trkpt lat="42.131017" lon="0.956100">
        <ele>1606.0</ele>
        <time>2013-09-13T15:03:59Z</time>
      </trkpt>
      <trkpt lat="42.130933" lon="0.956133">
        <ele>1606.0</ele>
        <time>2013-09-13T15:04:00Z</time>
      </trkpt>
      <trkpt lat="42.130867" lon="0.956150">
        <ele>1606.0</ele>
        <time>2013-09-13T15:04:01Z</time>
      </trkpt>
      <trkpt lat="42.130800" lon="0.956150">
        <ele>1607.0</ele>
        <time>2013-09-13T15:04:02Z</time>
      </trkpt>
      <trkpt lat="42.130767" lon="0.956133">
        <ele>1609.0</ele>
        <time>2013-09-13T15:04:03Z</time>
      </trkpt>
      <trkpt lat="42.130733" lon="0.956100">
        <ele>1611.0</ele>
        <time>2013-09-13T15:04:04Z</time>
      </trkpt>
      <trkpt lat="42.130700" lon="0.956050">
        <ele>1612.0</ele>
        <time>2013-09-13T15:04:05Z</time>
      </trkpt>
      <trkpt lat="42.130683" lon="0.955983">
        <ele>1612.0</ele>
        <time>2013-09-13T15:04:06Z</time>
      </trkpt>
      <trkpt lat="42.130683" lon="0.955883">
        <ele>1612.0</ele>
        <time>2013-09-13T15:04:07Z</time>
      </trkpt>
      <trkpt lat="42.130717" lon="0.955800">
        <ele>1613.0</ele>
        <time>2013-09-13T15:04:08Z</time>
      </trkpt>
      <trkpt lat="42.130767" lon="0.955733">
        <ele>1614.0</ele>
        <time>2013-09-13T15:04:09Z</time>
      </trkpt>
      <trkpt lat="42.130833" lon="0.955667">
        <ele>1615.0</ele>
        <time>2013-09-13T15:04:10Z</time>
      </trkpt>
      <trkpt lat="42.130917" lon="0.955617">
        <ele>1615.0</ele>
        <time>2013-09-13T15:04:11Z</time>
      </trkpt>
      <trkpt lat="42.131017" lon="0.955600">
        <ele>1615.0</ele>
        <time>2013-09-13T15:04:12Z</time>
      </trkpt>
      <trkpt lat="42.131117" lon="0.955617">
        <ele>1616.0</ele>
        <time>2013-09-13T15:04:13Z</time>
      </trkpt>
      <trkpt lat="42.131217" lon="0.955667">
        <ele>1617.0</ele>
        <time>2013-09-13T15:04:14Z</time>
      </trkpt>
      <trkpt lat="42.131300" lon="0.955750">
        <ele>1618.0</ele>
        <time>2013-09-13T15:04:15Z</time>
      </trkpt>
      <trkpt lat="42.131383" lon="0.955867">
        <ele>1619.0</ele>
        <time>2013-09-13T15:04:16Z</time>
      </trkpt>
      <trkpt lat="42.131533" lon="0.956033">
        <ele>1623.0</ele>
        <time>2013-09-13T15:04:18Z</time>
      </trkpt>
      <trkpt lat="42.131617" lon="0.956083">
        <ele>1624.0</ele>
        <time>2013-09-13T15:04:19Z</time>
      </trkpt>
      <trkpt lat="42.131733" lon="0.956100">
        <ele>1625.0</ele>
        <time>2013-09-13T15:04:20Z</time>
      </trkpt>
      <trkpt lat="42.131850" lon="0.956133">
        <ele>1625.0</ele>
        <time>2013-09-13T15:04:21Z</time>
      </trkpt>
      <trkpt lat="42.131950" lon="0.956167">
        <ele>1626.0</ele>
        <time>2013-09-13T15:04:22Z</time>
      </trkpt>
      <trkpt lat="42.132150" lon="0.956183">
        <ele>1630.0</ele>
        <time>2013-09-13T15:04:24Z</time>
      </trkpt>
      <trkpt lat="42.132233" lon="0.956150">
        <ele>1632.0</ele>
        <time>2013-09-13T15:04:25Z</time>
      </trkpt>
      <trkpt lat="42.132317" lon="0.956083">
        <ele>1633.0</ele>
        <time>2013-09-13T15:04:26Z</time>
      </trkpt>
      <trkpt lat="42.132383" lon="0.956017">
        <ele>1634.0</ele>
        <time>2013-09-13T15:04:27Z</time>
      </trkpt>
      <trkpt lat="42.132433" lon="0.955933">
        <ele>1635.0</ele>
        <time>2013-09-13T15:04:28Z</time>
      </trkpt>
      <trkpt lat="42.132500" lon="0.955867">
        <ele>1637.0</ele>
        <time>2013-09-13T15:04:29Z</time>
      </trkpt>
      <trkpt lat="42.132583" lon="0.955833">
        <ele>1638.0</ele>
        <time>2013-09-13T15:04:30Z</time>
      </trkpt>
      <trkpt lat="42.132683" lon="0.955833">
        <ele>1639.0</ele>
        <time>2013-09-13T15:04:31Z</time>
      </trkpt>
      <trkpt lat="42.132783" lon="0.955883">
        <ele>1639.0</ele>
        <time>2013-09-13T15:04:32Z</time>
      </trkpt>
      <trkpt lat="42.132883" lon="0.955933">
        <ele>1639.0</ele>
        <time>2013-09-13T15:04:33Z</time>
      </trkpt>
      <trkpt lat="42.132950" lon="0.956017">
        <ele>1640.0</ele>
        <time>2013-09-13T15:04:34Z</time>
      </trkpt>
      <trkpt lat="42.133017" lon="0.956133">
        <ele>1642.0</ele>
        <time>2013-09-13T15:04:35Z</time>
      </trkpt>
      <trkpt lat="42.133050" lon="0.956250">
        <ele>1642.0</ele>
        <time>2013-09-13T15:04:36Z</time>
      </trkpt>
      <trkpt lat="42.133067" lon="0.956383">
        <ele>1642.0</ele>
        <time>2013-09-13T15:04:37Z</time>
      </trkpt>
      <trkpt lat="42.133050" lon="0.956500">
        <ele>1643.0</ele>
        <time>2013-09-13T15:04:38Z</time>
      </trkpt>
      <trkpt lat="42.133033" lon="0.956633">
        <ele>1643.0</ele>
        <time>2013-09-13T15:04:39Z</time>
      </trkpt>
      <trkpt lat="42.132983" lon="0.956733">
        <ele>1644.0</ele>
        <time>2013-09-13T15:04:40Z</time>
      </trkpt>
      <trkpt lat="42.132950" lon="0.956817">
        <ele>1645.0</ele>
        <time>2013-09-13T15:04:41Z</time>
      </trkpt>
      <trkpt lat="42.132883" lon="0.956883">
        <ele>1645.0</ele>
        <time>2013-09-13T15:04:42Z</time>
      </trkpt>
      <trkpt lat="42.132817" lon="0.956933">
        <ele>1646.0</ele>
        <time>2013-09-13T15:04:43Z</time>
      </trkpt>
      <trkpt lat="42.132733" lon="0.956967">
        <ele>1646.0</ele>
        <time>2013-09-13T15:04:44Z</time>
      </trkpt>
      <trkpt lat="42.132667" lon="0.956967">
        <ele>1646.0</ele>
        <time>2013-09-13T15:04:45Z</time>
      </trkpt>
      <trkpt lat="42.132617" lon="0.956950">
        <ele>1647.0</ele>
        <time>2013-09-13T15:04:46Z</time>
      </trkpt>
      <trkpt lat="42.132583" lon="0.956917">
        <ele>1648.0</ele>
        <time>2013-09-13T15:04:47Z</time>
      </trkpt>
      <trkpt lat="42.132550" lon="0.956867">
        <ele>1650.0</ele>
        <time>2013-09-13T15:04:48Z</time>
      </trkpt>
      <trkpt lat="42.132533" lon="0.956800">
        <ele>1650.0</ele>
        <time>2013-09-13T15:04:49Z</time>
      </trkpt>
      <trkpt lat="42.132500" lon="0.956733">
        <ele>1651.0</ele>
        <time>2013-09-13T15:04:50Z</time>
      </trkpt>
      <trkpt lat="42.132467" lon="0.956650">
        <ele>1652.0</ele>
        <time>2013-09-13T15:04:51Z</time>
      </trkpt>
      <trkpt lat="42.132433" lon="0.956583">
        <ele>1654.0</ele>
        <time>2013-09-13T15:04:52Z</time>
      </trkpt>
      <trkpt lat="42.132433" lon="0.956517">
        <ele>1656.0</ele>
        <time>2013-09-13T15:04:53Z</time>
      </trkpt>
      <trkpt lat="42.132450" lon="0.956450">
        <ele>1659.0</ele>
        <time>2013-09-13T15:04:54Z</time>
      </trkpt>
      <trkpt lat="42.132483" lon="0.956383">
        <ele>1660.0</ele>
        <time>2013-09-13T15:04:55Z</time>
      </trkpt>
      <trkpt lat="42.132550" lon="0.956300">
        <ele>1659.0</ele>
        <time>2013-09-13T15:04:56Z</time>
      </trkpt>
      <trkpt lat="42.132633" lon="0.956250">
        <ele>1659.0</ele>
        <time>2013-09-13T15:04:57Z</time>
      </trkpt>
      <trkpt lat="42.132783" lon="0.956183">
        <ele>1662.0</ele>
        <time>2013-09-13T15:04:59Z</time>
      </trkpt>
      <trkpt lat="42.132883" lon="0.956183">
        <ele>1663.0</ele>
        <time>2013-09-13T15:05:00Z</time>
      </trkpt>
      <trkpt lat="42.132983" lon="0.956217">
        <ele>1664.0</ele>
        <time>2013-09-13T15:05:01Z</time>
      </trkpt>
      <trkpt lat="42.133083" lon="0.956283">
        <ele>1664.0</ele>
        <time>2013-09-13T15:05:02Z</time>
      </trkpt>
      <trkpt lat="42.133267" lon="0.956617">
        <ele>1664.0</ele>
        <time>2013-09-13T15:05:05Z</time>
      </trkpt>
      <trkpt lat="42.133317" lon="0.956717">
        <ele>1664.0</ele>
        <time>2013-09-13T15:05:06Z</time>
      </trkpt>
      <trkpt lat="42.133400" lon="0.956817">
        <ele>1664.0</ele>
        <time>2013-09-13T15:05:07Z</time>
      </trkpt>
      <trkpt lat="42.133483" lon="0.956883">
        <ele>1664.0</ele>
        <time>2013-09-13T15:05:08Z</time>
      </trkpt>
      <trkpt lat="42.133583" lon="0.956933">
        <ele>1665.0</ele>
        <time>2013-09-13T15:05:09Z</time>
      </trkpt>
      <trkpt lat="42.133683" lon="0.956967">
        <ele>1666.0</ele>
        <time>2013-09-13T15:05:10Z</time>
      </trkpt>
      <trkpt lat="42.133767" lon="0.956983">
        <ele>1668.0</ele>
        <time>2013-09-13T15:05:11Z</time>
      </trkpt>
      <trkpt lat="42.133850" lon="0.956967">
        <ele>1669.0</ele>
        <time>2013-09-13T15:05:12Z</time>
      </trkpt>
      <trkpt lat="42.133917" lon="0.956933">
        <ele>1670.0</ele>
        <time>2013-09-13T15:05:13Z</time>
      </trkpt>
      <trkpt lat="42.133983" lon="0.956850">
        <ele>1670.0</ele>
        <time>2013-09-13T15:05:14Z</time>
      </trkpt>
      <trkpt lat="42.134017" lon="0.956750">
        <ele>1672.0</ele>
        <time>2013-09-13T15:05:15Z</time>
      </trkpt>
      <trkpt lat="42.134017" lon="0.956667">
        <ele>1674.0</ele>
        <time>2013-09-13T15:05:16Z</time>
      </trkpt>
      <trkpt lat="42.134050" lon="0.956617">
        <ele>1676.0</ele>
        <time>2013-09-13T15:05:17Z</time>
      </trkpt>
      <trkpt lat="42.134100" lon="0.956567">
        <ele>1679.0</ele>
        <time>2013-09-13T15:05:18Z</time>
      </trkpt>
      <trkpt lat="42.134183" lon="0.956533">
        <ele>1679.0</ele>
        <time>2013-09-13T15:05:19Z</time>
      </trkpt>
      <trkpt lat="42.134267" lon="0.956500">
        <ele>1679.0</ele>
        <time>2013-09-13T15:05:20Z</time>
      </trkpt>
      <trkpt lat="42.134367" lon="0.956500">
        <ele>1681.0</ele>
        <time>2013-09-13T15:05:21Z</time>
      </trkpt>
      <trkpt lat="42.134450" lon="0.956517">
        <ele>1684.0</ele>
        <time>2013-09-13T15:05:22Z</time>
      </trkpt>
      <trkpt lat="42.134517" lon="0.956583">
        <ele>1687.0</ele>
        <time>2013-09-13T15:05:23Z</time>
      </trkpt>
      <trkpt lat="42.134567" lon="0.956667">
        <ele>1689.0</ele>
        <time>2013-09-13T15:05:24Z</time>
      </trkpt>
      <trkpt lat="42.134617" lon="0.956767">
        <ele>1689.0</ele>
        <time>2013-09-13T15:05:25Z</time>
      </trkpt>
      <trkpt lat="42.134667" lon="0.956883">
        <ele>1689.0</ele>
        <time>2013-09-13T15:05:26Z</time>
      </trkpt>
      <trkpt lat="42.134700" lon="0.957017">
        <ele>1688.0</ele>
        <time>2013-09-13T15:05:27Z</time>
      </trkpt>
      <trkpt lat="42.134733" lon="0.957167">
        <ele>1687.0</ele>
        <time>2013-09-13T15:05:28Z</time>
      </trkpt>
      <trkpt lat="42.134733" lon="0.957317">
        <ele>1687.0</ele>
        <time>2013-09-13T15:05:29Z</time>
      </trkpt>
      <trkpt lat="42.134717" lon="0.957450">
        <ele>1688.0</ele>
        <time>2013-09-13T15:05:30Z</time>
      </trkpt>
      <trkpt lat="42.134700" lon="0.957567">
        <ele>1688.0</ele>
        <time>2013-09-13T15:05:31Z</time>
      </trkpt>
      <trkpt lat="42.134650" lon="0.957683">
        <ele>1688.0</ele>
        <time>2013-09-13T15:05:32Z</time>
      </trkpt>
      <trkpt lat="42.134600" lon="0.957800">
        <ele>1688.0</ele>
        <time>2013-09-13T15:05:33Z</time>
      </trkpt>
      <trkpt lat="42.134533" lon="0.957917">
        <ele>1689.0</ele>
        <time>2013-09-13T15:05:34Z</time>
      </trkpt>
      <trkpt lat="42.134467" lon="0.957983">
        <ele>1692.0</ele>
        <time>2013-09-13T15:05:35Z</time>
      </trkpt>
      <trkpt lat="42.134400" lon="0.958033">
        <ele>1694.0</ele>
        <time>2013-09-13T15:05:36Z</time>
      </trkpt>
      <trkpt lat="42.134333" lon="0.958050">
        <ele>1697.0</ele>
        <time>2013-09-13T15:05:37Z</time>
      </trkpt>
      <trkpt lat="42.134283" lon="0.958033">
        <ele>1700.0</ele>
        <time>2013-09-13T15:05:38Z</time>
      </trkpt>
      <trkpt lat="42.134233" lon="0.958017">
        <ele>1701.0</ele>
        <time>2013-09-13T15:05:39Z</time>
      </trkpt>
      <trkpt lat="42.134183" lon="0.957983">
        <ele>1702.0</ele>
        <time>2013-09-13T15:05:40Z</time>
      </trkpt>
      <trkpt lat="42.134117" lon="0.957933">
        <ele>1703.0</ele>
        <time>2013-09-13T15:05:41Z</time>
      </trkpt>
      <trkpt lat="42.134067" lon="0.957900">
        <ele>1703.0</ele>
        <time>2013-09-13T15:05:42Z</time>
      </trkpt>
      <trkpt lat="42.134017" lon="0.957850">
        <ele>1704.0</ele>
        <time>2013-09-13T15:05:43Z</time>
      </trkpt>
      <trkpt lat="42.133967" lon="0.957783">
        <ele>1705.0</ele>
        <time>2013-09-13T15:05:44Z</time>
      </trkpt>
      <trkpt lat="42.133950" lon="0.957700">
        <ele>1706.0</ele>
        <time>2013-09-13T15:05:45Z</time>
      </trkpt>
      <trkpt lat="42.133950" lon="0.957600">
        <ele>1706.0</ele>
        <time>2013-09-13T15:05:46Z</time>
      </trkpt>
      <trkpt lat="42.133950" lon="0.957500">
        <ele>1706.0</ele>
        <time>2013-09-13T15:05:47Z</time>
      </trkpt>
      <trkpt lat="42.133983" lon="0.957417">
        <ele>1706.0</ele>
        <time>2013-09-13T15:05:48Z</time>
      </trkpt>
      <trkpt lat="42.134017" lon="0.957333">
        <ele>1707.0</ele>
        <time>2013-09-13T15:05:49Z</time>
      </trkpt>
      <trkpt lat="42.134050" lon="0.957267">
        <ele>1708.0</ele>
        <time>2013-09-13T15:05:50Z</time>
      </trkpt>
      <trkpt lat="42.134117" lon="0.957200">
        <ele>1709.0</ele>
        <time>2013-09-13T15:05:51Z</time>
      </trkpt>
      <trkpt lat="42.134200" lon="0.957133">
        <ele>1709.0</ele>
        <time>2013-09-13T15:05:52Z</time>
      </trkpt>
      <trkpt lat="42.134283" lon="0.957100">
        <ele>1710.0</ele>
        <time>2013-09-13T15:05:53Z</time>
      </trkpt>
      <trkpt lat="42.134367" lon="0.957067">
        <ele>1710.0</ele>
        <time>2013-09-13T15:05:54Z</time>
      </trkpt>
      <trkpt lat="42.134450" lon="0.957017">
        <ele>1712.0</ele>
        <time>2013-09-13T15:05:55Z</time>
      </trkpt>
      <trkpt lat="42.134517" lon="0.956967">
        <ele>1713.0</ele>
        <time>2013-09-13T15:05:56Z</time>
      </trkpt>
      <trkpt lat="42.134600" lon="0.956917">
        <ele>1714.0</ele>
        <time>2013-09-13T15:05:57Z</time>
      </trkpt>
      <trkpt lat="42.134667" lon="0.956850">
        <ele>1715.0</ele>
        <time>2013-09-13T15:05:58Z</time>
      </trkpt>
      <trkpt lat="42.134717" lon="0.956783">
        <ele>1717.0</ele>
        <time>2013-09-13T15:05:59Z</time>
      </trkpt>
      <trkpt lat="42.134750" lon="0.956700">
        <ele>1718.0</ele>
        <time>2013-09-13T15:06:00Z</time>
      </trkpt>
      <trkpt lat="42.134750" lon="0.956617">
        <ele>1719.0</ele>
        <time>2013-09-13T15:06:01Z</time>
      </trkpt>
      <trkpt lat="42.134733" lon="0.956533">
        <ele>1720.0</ele>
        <time>2013-09-13T15:06:02Z</time>
      </trkpt>
      <trkpt lat="42.134717" lon="0.956483">
        <ele>1721.0</ele>
        <time>2013-09-13T15:06:03Z</time>
      </trkpt>
      <trkpt lat="42.134683" lon="0.956433">
        <ele>1721.0</ele>
        <time>2013-09-13T15:06:04Z</time>
      </trkpt>
      <trkpt lat="42.134650" lon="0.956383">
        <ele>1721.0</ele>
        <time>2013-09-13T15:06:05Z</time>
      </trkpt>
      <trkpt lat="42.134633" lon="0.956300">
        <ele>1720.0</ele>
        <time>2013-09-13T15:06:06Z</time>
      </trkpt>
      <trkpt lat="42.134600" lon="0.956200">
        <ele>1718.0</ele>
        <time>2013-09-13T15:06:07Z</time>
      </trkpt>
      <trkpt lat="42.134617" lon="0.956083">
        <ele>1718.0</ele>
        <time>2013-09-13T15:06:08Z</time>
      </trkpt>
      <trkpt lat="42.134633" lon="0.956000">
        <ele>1718.0</ele>
        <time>2013-09-13T15:06:09Z</time>
      </trkpt>
      <trkpt lat="42.134667" lon="0.955933">
        <ele>1720.0</ele>
        <time>2013-09-13T15:06:10Z</time>
      </trkpt>
      <trkpt lat="42.134717" lon="0.955867">
        <ele>1720.0</ele>
        <time>2013-09-13T15:06:11Z</time>
      </trkpt>
      <trkpt lat="42.134800" lon="0.955800">
        <ele>1720.0</ele>
        <time>2013-09-13T15:06:12Z</time>
      </trkpt>
      <trkpt lat="42.134883" lon="0.955733">
        <ele>1719.0</ele>
        <time>2013-09-13T15:06:13Z</time>
      </trkpt>
      <trkpt lat="42.134983" lon="0.955683">
        <ele>1720.0</ele>
        <time>2013-09-13T15:06:14Z</time>
      </trkpt>
      <trkpt lat="42.135067" lon="0.955650">
        <ele>1721.0</ele>
        <time>2013-09-13T15:06:15Z</time>
      </trkpt>
      <trkpt lat="42.135167" lon="0.955633">
        <ele>1721.0</ele>
        <time>2013-09-13T15:06:16Z</time>
      </trkpt>
      <trkpt lat="42.135267" lon="0.955633">
        <ele>1722.0</ele>
        <time>2013-09-13T15:06:17Z</time>
      </trkpt>
      <trkpt lat="42.135367" lon="0.955650">
        <ele>1721.0</ele>
        <time>2013-09-13T15:06:18Z</time>
      </trkpt>
      <trkpt lat="42.135467" lon="0.955683">
        <ele>1721.0</ele>
        <time>2013-09-13T15:06:19Z</time>
      </trkpt>
      <trkpt lat="42.135583" lon="0.955700">
        <ele>1721.0</ele>
        <time>2013-09-13T15:06:20Z</time>
      </trkpt>
      <trkpt lat="42.135683" lon="0.955733">
        <ele>1721.0</ele>
        <time>2013-09-13T15:06:21Z</time>
      </trkpt>
      <trkpt lat="42.135783" lon="0.955767">
        <ele>1721.0</ele>
        <time>2013-09-13T15:06:22Z</time>
      </trkpt>
      <trkpt lat="42.135900" lon="0.955783">
        <ele>1720.0</ele>
        <time>2013-09-13T15:06:23Z</time>
      </trkpt>
      <trkpt lat="42.136033" lon="0.955817">
        <ele>1720.0</ele>
        <time>2013-09-13T15:06:24Z</time>
      </trkpt>
      <trkpt lat="42.136167" lon="0.955833">
        <ele>1721.0</ele>
        <time>2013-09-13T15:06:25Z</time>
      </trkpt>
      <trkpt lat="42.136283" lon="0.955833">
        <ele>1722.0</ele>
        <time>2013-09-13T15:06:26Z</time>
      </trkpt>
      <trkpt lat="42.136383" lon="0.955850">
        <ele>1723.0</ele>
        <time>2013-09-13T15:06:27Z</time>
      </trkpt>
      <trkpt lat="42.136500" lon="0.955850">
        <ele>1725.0</ele>
        <time>2013-09-13T15:06:28Z</time>
      </trkpt>
      <trkpt lat="42.136617" lon="0.955850">
        <ele>1725.0</ele>
        <time>2013-09-13T15:06:29Z</time>
      </trkpt>
      <trkpt lat="42.136733" lon="0.955867">
        <ele>1725.0</ele>
        <time>2013-09-13T15:06:30Z</time>
      </trkpt>
      <trkpt lat="42.136850" lon="0.955883">
        <ele>1726.0</ele>
        <time>2013-09-13T15:06:31Z</time>
      </trkpt>
      <trkpt lat="42.136967" lon="0.955917">
        <ele>1727.0</ele>
        <time>2013-09-13T15:06:32Z</time>
      </trkpt>
      <trkpt lat="42.137067" lon="0.955967">
        <ele>1728.0</ele>
        <time>2013-09-13T15:06:33Z</time>
      </trkpt>
      <trkpt lat="42.137150" lon="0.956017">
        <ele>1729.0</ele>
        <time>2013-09-13T15:06:34Z</time>
      </trkpt>
      <trkpt lat="42.137250" lon="0.956067">
        <ele>1729.0</ele>
        <time>2013-09-13T15:06:35Z</time>
      </trkpt>
      <trkpt lat="42.137350" lon="0.956100">
        <ele>1728.0</ele>
        <time>2013-09-13T15:06:36Z</time>
      </trkpt>
      <trkpt lat="42.137467" lon="0.956133">
        <ele>1727.0</ele>
        <time>2013-09-13T15:06:37Z</time>
      </trkpt>
      <trkpt lat="42.137583" lon="0.956150">
        <ele>1726.0</ele>
        <time>2013-09-13T15:06:38Z</time>
      </trkpt>
      <trkpt lat="42.137700" lon="0.956167">
        <ele>1725.0</ele>
        <time>2013-09-13T15:06:39Z</time>
      </trkpt>
      <trkpt lat="42.137817" lon="0.956183">
        <ele>1724.0</ele>
        <time>2013-09-13T15:06:40Z</time>
      </trkpt>
      <trkpt lat="42.137933" lon="0.956200">
        <ele>1723.0</ele>
        <time>2013-09-13T15:06:41Z</time>
      </trkpt>
      <trkpt lat="42.138067" lon="0.956217">
        <ele>1723.0</ele>
        <time>2013-09-13T15:06:42Z</time>
      </trkpt>
      <trkpt lat="42.138183" lon="0.956233">
        <ele>1723.0</ele>
        <time>2013-09-13T15:06:43Z</time>
      </trkpt>
      <trkpt lat="42.138300" lon="0.956250">
        <ele>1724.0</ele>
        <time>2013-09-13T15:06:44Z</time>
      </trkpt>
      <trkpt lat="42.138400" lon="0.956267">
        <ele>1725.0</ele>
        <time>2013-09-13T15:06:45Z</time>
      </trkpt>
      <trkpt lat="42.138517" lon="0.956267">
        <ele>1726.0</ele>
        <time>2013-09-13T15:06:46Z</time>
      </trkpt>
      <trkpt lat="42.138633" lon="0.956267">
        <ele>1725.0</ele>
        <time>2013-09-13T15:06:47Z</time>
      </trkpt>
      <trkpt lat="42.138750" lon="0.956283">
        <ele>1725.0</ele>
        <time>2013-09-13T15:06:48Z</time>
      </trkpt>
      <trkpt lat="42.138867" lon="0.956300">
        <ele>1725.0</ele>
        <time>2013-09-13T15:06:49Z</time>
      </trkpt>
      <trkpt lat="42.138983" lon="0.956300">
        <ele>1725.0</ele>
        <time>2013-09-13T15:06:50Z</time>
      </trkpt>
      <trkpt lat="42.139100" lon="0.956300">
        <ele>1725.0</ele>
        <time>2013-09-13T15:06:51Z</time>
      </trkpt>
      <trkpt lat="42.139200" lon="0.956300">
        <ele>1725.0</ele>
        <time>2013-09-13T15:06:52Z</time>
      </trkpt>
      <trkpt lat="42.139300" lon="0.956300">
        <ele>1726.0</ele>
        <time>2013-09-13T15:06:53Z</time>
      </trkpt>
      <trkpt lat="42.139400" lon="0.956300">
        <ele>1726.0</ele>
        <time>2013-09-13T15:06:54Z</time>
      </trkpt>
      <trkpt lat="42.139517" lon="0.956300">
        <ele>1726.0</ele>
        <time>2013-09-13T15:06:55Z</time>
      </trkpt>
      <trkpt lat="42.139633" lon="0.956283">
        <ele>1725.0</ele>
        <time>2013-09-13T15:06:56Z</time>
      </trkpt>
      <trkpt lat="42.139733" lon="0.956283">
        <ele>1725.0</ele>
        <time>2013-09-13T15:06:57Z</time>
      </trkpt>
      <trkpt lat="42.139833" lon="0.956267">
        <ele>1724.0</ele>
        <time>2013-09-13T15:06:58Z</time>
      </trkpt>
      <trkpt lat="42.139917" lon="0.956250">
        <ele>1723.0</ele>
        <time>2013-09-13T15:06:59Z</time>
      </trkpt>
      <trkpt lat="42.140017" lon="0.956250">
        <ele>1722.0</ele>
        <time>2013-09-13T15:07:00Z</time>
      </trkpt>
      <trkpt lat="42.140133" lon="0.956250">
        <ele>1720.0</ele>
        <time>2013-09-13T15:07:01Z</time>
      </trkpt>
      <trkpt lat="42.140250" lon="0.956267">
        <ele>1718.0</ele>
        <time>2013-09-13T15:07:02Z</time>
      </trkpt>
      <trkpt lat="42.140350" lon="0.956283">
        <ele>1718.0</ele>
        <time>2013-09-13T15:07:03Z</time>
      </trkpt>
      <trkpt lat="42.140450" lon="0.956283">
        <ele>1718.0</ele>
        <time>2013-09-13T15:07:04Z</time>
      </trkpt>
      <trkpt lat="42.140533" lon="0.956283">
        <ele>1717.0</ele>
        <time>2013-09-13T15:07:05Z</time>
      </trkpt>
      <trkpt lat="42.140617" lon="0.956267">
        <ele>1717.0</ele>
        <time>2013-09-13T15:07:06Z</time>
      </trkpt>
      <trkpt lat="42.140717" lon="0.956267">
        <ele>1715.0</ele>
        <time>2013-09-13T15:07:07Z</time>
      </trkpt>
      <trkpt lat="42.140817" lon="0.956250">
        <ele>1713.0</ele>
        <time>2013-09-13T15:07:08Z</time>
      </trkpt>
      <trkpt lat="42.140933" lon="0.956250">
        <ele>1710.0</ele>
        <time>2013-09-13T15:07:09Z</time>
      </trkpt>
      <trkpt lat="42.141033" lon="0.956233">
        <ele>1709.0</ele>
        <time>2013-09-13T15:07:10Z</time>
      </trkpt>
      <trkpt lat="42.141117" lon="0.956233">
        <ele>1708.0</ele>
        <time>2013-09-13T15:07:11Z</time>
      </trkpt>
      <trkpt lat="42.141217" lon="0.956217">
        <ele>1707.0</ele>
        <time>2013-09-13T15:07:12Z</time>
      </trkpt>
      <trkpt lat="42.141300" lon="0.956217">
        <ele>1705.0</ele>
        <time>2013-09-13T15:07:13Z</time>
      </trkpt>
      <trkpt lat="42.141400" lon="0.956217">
        <ele>1703.0</ele>
        <time>2013-09-13T15:07:14Z</time>
      </trkpt>
      <trkpt lat="42.141483" lon="0.956200">
        <ele>1701.0</ele>
        <time>2013-09-13T15:07:15Z</time>
      </trkpt>
      <trkpt lat="42.141583" lon="0.956200">
        <ele>1699.0</ele>
        <time>2013-09-13T15:07:16Z</time>
      </trkpt>
      <trkpt lat="42.141683" lon="0.956183">
        <ele>1697.0</ele>
        <time>2013-09-13T15:07:17Z</time>
      </trkpt>
      <trkpt lat="42.141767" lon="0.956183">
        <ele>1695.0</ele>
        <time>2013-09-13T15:07:18Z</time>
      </trkpt>
      <trkpt lat="42.141867" lon="0.956183">
        <ele>1693.0</ele>
        <time>2013-09-13T15:07:19Z</time>
      </trkpt>
      <trkpt lat="42.141967" lon="0.956183">
        <ele>1691.0</ele>
        <time>2013-09-13T15:07:20Z</time>
      </trkpt>
      <trkpt lat="42.142067" lon="0.956167">
        <ele>1689.0</ele>
        <time>2013-09-13T15:07:21Z</time>
      </trkpt>
      <trkpt lat="42.142150" lon="0.956167">
        <ele>1687.0</ele>
        <time>2013-09-13T15:07:22Z</time>
      </trkpt>
      <trkpt lat="42.142250" lon="0.956150">
        <ele>1686.0</ele>
        <time>2013-09-13T15:07:23Z</time>
      </trkpt>
      <trkpt lat="42.142350" lon="0.956150">
        <ele>1684.0</ele>
        <time>2013-09-13T15:07:24Z</time>
      </trkpt>
      <trkpt lat="42.142433" lon="0.956133">
        <ele>1681.0</ele>
        <time>2013-09-13T15:07:25Z</time>
      </trkpt>
      <trkpt lat="42.142533" lon="0.956133">
        <ele>1679.0</ele>
        <time>2013-09-13T15:07:26Z</time>
      </trkpt>
      <trkpt lat="42.142633" lon="0.956133">
        <ele>1677.0</ele>
        <time>2013-09-13T15:07:27Z</time>
      </trkpt>
      <trkpt lat="42.142733" lon="0.956117">
        <ele>1675.0</ele>
        <time>2013-09-13T15:07:28Z</time>
      </trkpt>
      <trkpt lat="42.142833" lon="0.956117">
        <ele>1673.0</ele>
        <time>2013-09-13T15:07:29Z</time>
      </trkpt>
      <trkpt lat="42.142933" lon="0.956100">
        <ele>1671.0</ele>
        <time>2013-09-13T15:07:30Z</time>
      </trkpt>
      <trkpt lat="42.143033" lon="0.956100">
        <ele>1669.0</ele>
        <time>2013-09-13T15:07:31Z</time>
      </trkpt>
      <trkpt lat="42.143133" lon="0.956083">
        <ele>1668.0</ele>
        <time>2013-09-13T15:07:32Z</time>
      </trkpt>
      <trkpt lat="42.143233" lon="0.956083">
        <ele>1667.0</ele>
        <time>2013-09-13T15:07:33Z</time>
      </trkpt>
      <trkpt lat="42.143333" lon="0.956067">
        <ele>1665.0</ele>
        <time>2013-09-13T15:07:34Z</time>
      </trkpt>
      <trkpt lat="42.143433" lon="0.956050">
        <ele>1663.0</ele>
        <time>2013-09-13T15:07:35Z</time>
      </trkpt>
      <trkpt lat="42.143517" lon="0.956017">
        <ele>1661.0</ele>
        <time>2013-09-13T15:07:36Z</time>
      </trkpt>
      <trkpt lat="42.143617" lon="0.956000">
        <ele>1659.0</ele>
        <time>2013-09-13T15:07:37Z</time>
      </trkpt>
      <trkpt lat="42.143700" lon="0.955983">
        <ele>1657.0</ele>
        <time>2013-09-13T15:07:38Z</time>
      </trkpt>
      <trkpt lat="42.143783" lon="0.955967">
        <ele>1655.0</ele>
        <time>2013-09-13T15:07:39Z</time>
      </trkpt>
      <trkpt lat="42.143883" lon="0.955950">
        <ele>1653.0</ele>
        <time>2013-09-13T15:07:40Z</time>
      </trkpt>
      <trkpt lat="42.143967" lon="0.955933">
        <ele>1651.0</ele>
        <time>2013-09-13T15:07:41Z</time>
      </trkpt>
      <trkpt lat="42.144067" lon="0.955917">
        <ele>1649.0</ele>
        <time>2013-09-13T15:07:42Z</time>
      </trkpt>
      <trkpt lat="42.144150" lon="0.955900">
        <ele>1647.0</ele>
        <time>2013-09-13T15:07:43Z</time>
      </trkpt>
      <trkpt lat="42.144233" lon="0.955900">
        <ele>1645.0</ele>
        <time>2013-09-13T15:07:44Z</time>
      </trkpt>
      <trkpt lat="42.144333" lon="0.955883">
        <ele>1644.0</ele>
        <time>2013-09-13T15:07:45Z</time>
      </trkpt>
      <trkpt lat="42.144417" lon="0.955867">
        <ele>1641.0</ele>
        <time>2013-09-13T15:07:46Z</time>
      </trkpt>
      <trkpt lat="42.144517" lon="0.955850">
        <ele>1639.0</ele>
        <time>2013-09-13T15:07:47Z</time>
      </trkpt>
      <trkpt lat="42.144600" lon="0.955850">
        <ele>1637.0</ele>
        <time>2013-09-13T15:07:48Z</time>
      </trkpt>
      <trkpt lat="42.144700" lon="0.955833">
        <ele>1635.0</ele>
        <time>2013-09-13T15:07:49Z</time>
      </trkpt>
      <trkpt lat="42.144783" lon="0.955833">
        <ele>1633.0</ele>
        <time>2013-09-13T15:07:50Z</time>
      </trkpt>
      <trkpt lat="42.144867" lon="0.955817">
        <ele>1631.0</ele>
        <time>2013-09-13T15:07:51Z</time>
      </trkpt>
      <trkpt lat="42.144967" lon="0.955817">
        <ele>1629.0</ele>
        <time>2013-09-13T15:07:52Z</time>
      </trkpt>
      <trkpt lat="42.145050" lon="0.955783">
        <ele>1626.0</ele>
        <time>2013-09-13T15:07:53Z</time>
      </trkpt>
      <trkpt lat="42.145150" lon="0.955767">
        <ele>1624.0</ele>
        <time>2013-09-13T15:07:54Z</time>
      </trkpt>
      <trkpt lat="42.145233" lon="0.955750">
        <ele>1622.0</ele>
        <time>2013-09-13T15:07:55Z</time>
      </trkpt>
      <trkpt lat="42.145333" lon="0.955733">
        <ele>1621.0</ele>
        <time>2013-09-13T15:07:56Z</time>
      </trkpt>
      <trkpt lat="42.145417" lon="0.955733">
        <ele>1619.0</ele>
        <time>2013-09-13T15:07:57Z</time>
      </trkpt>
      <trkpt lat="42.145517" lon="0.955733">
        <ele>1617.0</ele>
        <time>2013-09-13T15:07:58Z</time>
      </trkpt>
      <trkpt lat="42.145617" lon="0.955733">
        <ele>1615.0</ele>
        <time>2013-09-13T15:07:59Z</time>
      </trkpt>
      <trkpt lat="42.145717" lon="0.955733">
        <ele>1613.0</ele>
        <time>2013-09-13T15:08:00Z</time>
      </trkpt>
      <trkpt lat="42.145817" lon="0.955733">
        <ele>1612.0</ele>
        <time>2013-09-13T15:08:01Z</time>
      </trkpt>
      <trkpt lat="42.145917" lon="0.955750">
        <ele>1610.0</ele>
        <time>2013-09-13T15:08:02Z</time>
      </trkpt>
      <trkpt lat="42.146017" lon="0.955767">
        <ele>1609.0</ele>
        <time>2013-09-13T15:08:03Z</time>
      </trkpt>
      <trkpt lat="42.146117" lon="0.955783">
        <ele>1608.0</ele>
        <time>2013-09-13T15:08:04Z</time>
      </trkpt>
      <trkpt lat="42.146217" lon="0.955783">
        <ele>1606.0</ele>
        <time>2013-09-13T15:08:05Z</time>
      </trkpt>
      <trkpt lat="42.146317" lon="0.955800">
        <ele>1604.0</ele>
        <time>2013-09-13T15:08:06Z</time>
      </trkpt>
      <trkpt lat="42.146417" lon="0.955800">
        <ele>1602.0</ele>
        <time>2013-09-13T15:08:07Z</time>
      </trkpt>
      <trkpt lat="42.146517" lon="0.955800">
        <ele>1601.0</ele>
        <time>2013-09-13T15:08:08Z</time>
      </trkpt>
      <trkpt lat="42.146600" lon="0.955817">
        <ele>1600.0</ele>
        <time>2013-09-13T15:08:09Z</time>
      </trkpt>
      <trkpt lat="42.146700" lon="0.955833">
        <ele>1599.0</ele>
        <time>2013-09-13T15:08:10Z</time>
      </trkpt>
      <trkpt lat="42.146783" lon="0.955833">
        <ele>1597.0</ele>
        <time>2013-09-13T15:08:11Z</time>
      </trkpt>
      <trkpt lat="42.146867" lon="0.955833">
        <ele>1595.0</ele>
        <time>2013-09-13T15:08:12Z</time>
      </trkpt>
      <trkpt lat="42.146950" lon="0.955833">
        <ele>1593.0</ele>
        <time>2013-09-13T15:08:13Z</time>
      </trkpt>
      <trkpt lat="42.147050" lon="0.955817">
        <ele>1590.0</ele>
        <time>2013-09-13T15:08:14Z</time>
      </trkpt>
      <trkpt lat="42.147150" lon="0.955817">
        <ele>1588.0</ele>
        <time>2013-09-13T15:08:15Z</time>
      </trkpt>
      <trkpt lat="42.147233" lon="0.955817">
        <ele>1587.0</ele>
        <time>2013-09-13T15:08:16Z</time>
      </trkpt>
      <trkpt lat="42.147317" lon="0.955817">
        <ele>1586.0</ele>
        <time>2013-09-13T15:08:17Z</time>
      </trkpt>
      <trkpt lat="42.147400" lon="0.955817">
        <ele>1584.0</ele>
        <time>2013-09-13T15:08:18Z</time>
      </trkpt>
      <trkpt lat="42.147483" lon="0.955817">
        <ele>1582.0</ele>
        <time>2013-09-13T15:08:19Z</time>
      </trkpt>
      <trkpt lat="42.147567" lon="0.955817">
        <ele>1581.0</ele>
        <time>2013-09-13T15:08:20Z</time>
      </trkpt>
      <trkpt lat="42.147667" lon="0.955817">
        <ele>1579.0</ele>
        <time>2013-09-13T15:08:21Z</time>
      </trkpt>
      <trkpt lat="42.147750" lon="0.955817">
        <ele>1577.0</ele>
        <time>2013-09-13T15:08:22Z</time>
      </trkpt>
      <trkpt lat="42.147833" lon="0.955800">
        <ele>1576.0</ele>
        <time>2013-09-13T15:08:23Z</time>
      </trkpt>
      <trkpt lat="42.147900" lon="0.955800">
        <ele>1574.0</ele>
        <time>2013-09-13T15:08:24Z</time>
      </trkpt>
      <trkpt lat="42.148000" lon="0.955800">
        <ele>1572.0</ele>
        <time>2013-09-13T15:08:25Z</time>
      </trkpt>
      <trkpt lat="42.148083" lon="0.955800">
        <ele>1569.0</ele>
        <time>2013-09-13T15:08:26Z</time>
      </trkpt>
      <trkpt lat="42.148167" lon="0.955783">
        <ele>1566.0</ele>
        <time>2013-09-13T15:08:27Z</time>
      </trkpt>
      <trkpt lat="42.148267" lon="0.955767">
        <ele>1564.0</ele>
        <time>2013-09-13T15:08:28Z</time>
      </trkpt>
      <trkpt lat="42.148350" lon="0.955767">
        <ele>1561.0</ele>
        <time>2013-09-13T15:08:29Z</time>
      </trkpt>
      <trkpt lat="42.148433" lon="0.955750">
        <ele>1560.0</ele>
        <time>2013-09-13T15:08:30Z</time>
      </trkpt>
      <trkpt lat="42.148517" lon="0.955767">
        <ele>1558.0</ele>
        <time>2013-09-13T15:08:31Z</time>
      </trkpt>
      <trkpt lat="42.148583" lon="0.955783">
        <ele>1556.0</ele>
        <time>2013-09-13T15:08:32Z</time>
      </trkpt>
      <trkpt lat="42.148667" lon="0.955817">
        <ele>1554.0</ele>
        <time>2013-09-13T15:08:33Z</time>
      </trkpt>
      <trkpt lat="42.148767" lon="0.955850">
        <ele>1551.0</ele>
        <time>2013-09-13T15:08:34Z</time>
      </trkpt>
      <trkpt lat="42.148867" lon="0.955900">
        <ele>1548.0</ele>
        <time>2013-09-13T15:08:35Z</time>
      </trkpt>
      <trkpt lat="42.148967" lon="0.955933">
        <ele>1546.0</ele>
        <time>2013-09-13T15:08:36Z</time>
      </trkpt>
      <trkpt lat="42.149050" lon="0.955983">
        <ele>1544.0</ele>
        <time>2013-09-13T15:08:37Z</time>
      </trkpt>
      <trkpt lat="42.149150" lon="0.956017">
        <ele>1543.0</ele>
        <time>2013-09-13T15:08:38Z</time>
      </trkpt>
      <trkpt lat="42.149233" lon="0.956033">
        <ele>1541.0</ele>
        <time>2013-09-13T15:08:39Z</time>
      </trkpt>
      <trkpt lat="42.149333" lon="0.956050">
        <ele>1539.0</ele>
        <time>2013-09-13T15:08:40Z</time>
      </trkpt>
      <trkpt lat="42.149433" lon="0.956083">
        <ele>1537.0</ele>
        <time>2013-09-13T15:08:41Z</time>
      </trkpt>
      <trkpt lat="42.149617" lon="0.956150">
        <ele>1532.0</ele>
        <time>2013-09-13T15:08:43Z</time>
      </trkpt>
      <trkpt lat="42.149717" lon="0.956183">
        <ele>1531.0</ele>
        <time>2013-09-13T15:08:44Z</time>
      </trkpt>
      <trkpt lat="42.149817" lon="0.956200">
        <ele>1529.0</ele>
        <time>2013-09-13T15:08:45Z</time>
      </trkpt>
      <trkpt lat="42.149900" lon="0.956233">
        <ele>1527.0</ele>
        <time>2013-09-13T15:08:46Z</time>
      </trkpt>
      <trkpt lat="42.150000" lon="0.956267">
        <ele>1525.0</ele>
        <time>2013-09-13T15:08:47Z</time>
      </trkpt>
      <trkpt lat="42.150100" lon="0.956300">
        <ele>1523.0</ele>
        <time>2013-09-13T15:08:48Z</time>
      </trkpt>
      <trkpt lat="42.150200" lon="0.956317">
        <ele>1522.0</ele>
        <time>2013-09-13T15:08:49Z</time>
      </trkpt>
      <trkpt lat="42.150300" lon="0.956350">
        <ele>1520.0</ele>
        <time>2013-09-13T15:08:50Z</time>
      </trkpt>
      <trkpt lat="42.150383" lon="0.956367">
        <ele>1519.0</ele>
        <time>2013-09-13T15:08:51Z</time>
      </trkpt>
      <trkpt lat="42.150483" lon="0.956400">
        <ele>1517.0</ele>
        <time>2013-09-13T15:08:52Z</time>
      </trkpt>
      <trkpt lat="42.150583" lon="0.956433">
        <ele>1515.0</ele>
        <time>2013-09-13T15:08:53Z</time>
      </trkpt>
      <trkpt lat="42.150683" lon="0.956467">
        <ele>1513.0</ele>
        <time>2013-09-13T15:08:54Z</time>
      </trkpt>
      <trkpt lat="42.150800" lon="0.956500">
        <ele>1511.0</ele>
        <time>2013-09-13T15:08:55Z</time>
      </trkpt>
      <trkpt lat="42.150900" lon="0.956517">
        <ele>1510.0</ele>
        <time>2013-09-13T15:08:56Z</time>
      </trkpt>
      <trkpt lat="42.151000" lon="0.956550">
        <ele>1509.0</ele>
        <time>2013-09-13T15:08:57Z</time>
      </trkpt>
      <trkpt lat="42.151100" lon="0.956583">
        <ele>1507.0</ele>
        <time>2013-09-13T15:08:58Z</time>
      </trkpt>
      <trkpt lat="42.151183" lon="0.956600">
        <ele>1506.0</ele>
        <time>2013-09-13T15:08:59Z</time>
      </trkpt>
      <trkpt lat="42.151283" lon="0.956633">
        <ele>1504.0</ele>
        <time>2013-09-13T15:09:00Z</time>
      </trkpt>
      <trkpt lat="42.151400" lon="0.956667">
        <ele>1502.0</ele>
        <time>2013-09-13T15:09:01Z</time>
      </trkpt>
      <trkpt lat="42.151500" lon="0.956700">
        <ele>1501.0</ele>
        <time>2013-09-13T15:09:02Z</time>
      </trkpt>
      <trkpt lat="42.151600" lon="0.956750">
        <ele>1499.0</ele>
        <time>2013-09-13T15:09:03Z</time>
      </trkpt>
      <trkpt lat="42.151700" lon="0.956800">
        <ele>1497.0</ele>
        <time>2013-09-13T15:09:04Z</time>
      </trkpt>
      <trkpt lat="42.151800" lon="0.956850">
        <ele>1496.0</ele>
        <time>2013-09-13T15:09:05Z</time>
      </trkpt>
      <trkpt lat="42.151900" lon="0.956900">
        <ele>1495.0</ele>
        <time>2013-09-13T15:09:06Z</time>
      </trkpt>
      <trkpt lat="42.152000" lon="0.956950">
        <ele>1493.0</ele>
        <time>2013-09-13T15:09:07Z</time>
      </trkpt>
      <trkpt lat="42.152100" lon="0.957000">
        <ele>1491.0</ele>
        <time>2013-09-13T15:09:08Z</time>
      </trkpt>
      <trkpt lat="42.152200" lon="0.957067">
        <ele>1490.0</ele>
        <time>2013-09-13T15:09:09Z</time>
      </trkpt>
      <trkpt lat="42.152317" lon="0.957117">
        <ele>1488.0</ele>
        <time>2013-09-13T15:09:10Z</time>
      </trkpt>
      <trkpt lat="42.152417" lon="0.957167">
        <ele>1486.0</ele>
        <time>2013-09-13T15:09:11Z</time>
      </trkpt>
      <trkpt lat="42.152517" lon="0.957217">
        <ele>1485.0</ele>
        <time>2013-09-13T15:09:12Z</time>
      </trkpt>
      <trkpt lat="42.152617" lon="0.957283">
        <ele>1483.0</ele>
        <time>2013-09-13T15:09:13Z</time>
      </trkpt>
      <trkpt lat="42.152717" lon="0.957333">
        <ele>1482.0</ele>
        <time>2013-09-13T15:09:14Z</time>
      </trkpt>
      <trkpt lat="42.152833" lon="0.957383">
        <ele>1480.0</ele>
        <time>2013-09-13T15:09:15Z</time>
      </trkpt>
      <trkpt lat="42.152933" lon="0.957433">
        <ele>1478.0</ele>
        <time>2013-09-13T15:09:16Z</time>
      </trkpt>
      <trkpt lat="42.153033" lon="0.957483">
        <ele>1476.0</ele>
        <time>2013-09-13T15:09:17Z</time>
      </trkpt>
      <trkpt lat="42.153133" lon="0.957533">
        <ele>1475.0</ele>
        <time>2013-09-13T15:09:18Z</time>
      </trkpt>
      <trkpt lat="42.153233" lon="0.957583">
        <ele>1473.0</ele>
        <time>2013-09-13T15:09:19Z</time>
      </trkpt>
      <trkpt lat="42.153317" lon="0.957633">
        <ele>1472.0</ele>
        <time>2013-09-13T15:09:20Z</time>
      </trkpt>
      <trkpt lat="42.153417" lon="0.957667">
        <ele>1470.0</ele>
        <time>2013-09-13T15:09:21Z</time>
      </trkpt>
      <trkpt lat="42.153500" lon="0.957717">
        <ele>1467.0</ele>
        <time>2013-09-13T15:09:22Z</time>
      </trkpt>
      <trkpt lat="42.153600" lon="0.957750">
        <ele>1465.0</ele>
        <time>2013-09-13T15:09:23Z</time>
      </trkpt>
      <trkpt lat="42.153967" lon="0.957983">
        <ele>1462.0</ele>
        <time>2013-09-13T15:09:27Z</time>
      </trkpt>
      <trkpt lat="42.154050" lon="0.958033">
        <ele>1461.0</ele>
        <time>2013-09-13T15:09:28Z</time>
      </trkpt>
      <trkpt lat="42.154150" lon="0.958083">
        <ele>1460.0</ele>
        <time>2013-09-13T15:09:29Z</time>
      </trkpt>
      <trkpt lat="42.154250" lon="0.958150">
        <ele>1460.0</ele>
        <time>2013-09-13T15:09:30Z</time>
      </trkpt>
      <trkpt lat="42.154350" lon="0.958217">
        <ele>1459.0</ele>
        <time>2013-09-13T15:09:31Z</time>
      </trkpt>
      <trkpt lat="42.154433" lon="0.958283">
        <ele>1460.0</ele>
        <time>2013-09-13T15:09:32Z</time>
      </trkpt>
      <trkpt lat="42.154517" lon="0.958317">
        <ele>1460.0</ele>
        <time>2013-09-13T15:09:33Z</time>
      </trkpt>
      <trkpt lat="42.154600" lon="0.958367">
        <ele>1461.0</ele>
        <time>2013-09-13T15:09:34Z</time>
      </trkpt>
      <trkpt lat="42.154683" lon="0.958400">
        <ele>1460.0</ele>
        <time>2013-09-13T15:09:35Z</time>
      </trkpt>
      <trkpt lat="42.154783" lon="0.958450">
        <ele>1459.0</ele>
        <time>2013-09-13T15:09:36Z</time>
      </trkpt>
      <trkpt lat="42.154883" lon="0.958500">
        <ele>1457.0</ele>
        <time>2013-09-13T15:09:37Z</time>
      </trkpt>
      <trkpt lat="42.155000" lon="0.958567">
        <ele>1456.0</ele>
        <time>2013-09-13T15:09:38Z</time>
      </trkpt>
      <trkpt lat="42.155100" lon="0.958617">
        <ele>1455.0</ele>
        <time>2013-09-13T15:09:39Z</time>
      </trkpt>
      <trkpt lat="42.155200" lon="0.958667">
        <ele>1457.0</ele>
        <time>2013-09-13T15:09:40Z</time>
      </trkpt>
      <trkpt lat="42.155283" lon="0.958717">
        <ele>1458.0</ele>
        <time>2013-09-13T15:09:41Z</time>
      </trkpt>
      <trkpt lat="42.155367" lon="0.958750">
        <ele>1460.0</ele>
        <time>2013-09-13T15:09:42Z</time>
      </trkpt>
      <trkpt lat="42.155450" lon="0.958783">
        <ele>1460.0</ele>
        <time>2013-09-13T15:09:43Z</time>
      </trkpt>
      <trkpt lat="42.155550" lon="0.958817">
        <ele>1459.0</ele>
        <time>2013-09-13T15:09:44Z</time>
      </trkpt>
      <trkpt lat="42.155650" lon="0.958867">
        <ele>1458.0</ele>
        <time>2013-09-13T15:09:45Z</time>
      </trkpt>
      <trkpt lat="42.155750" lon="0.958917">
        <ele>1457.0</ele>
        <time>2013-09-13T15:09:46Z</time>
      </trkpt>
      <trkpt lat="42.155833" lon="0.958983">
        <ele>1457.0</ele>
        <time>2013-09-13T15:09:47Z</time>
      </trkpt>
      <trkpt lat="42.155900" lon="0.959050">
        <ele>1457.0</ele>
        <time>2013-09-13T15:09:48Z</time>
      </trkpt>
      <trkpt lat="42.155967" lon="0.959133">
        <ele>1457.0</ele>
        <time>2013-09-13T15:09:49Z</time>
      </trkpt>
      <trkpt lat="42.156050" lon="0.959233">
        <ele>1457.0</ele>
        <time>2013-09-13T15:09:50Z</time>
      </trkpt>
      <trkpt lat="42.156133" lon="0.959333">
        <ele>1456.0</ele>
        <time>2013-09-13T15:09:51Z</time>
      </trkpt>
      <trkpt lat="42.156217" lon="0.959433">
        <ele>1455.0</ele>
        <time>2013-09-13T15:09:52Z</time>
      </trkpt>
      <trkpt lat="42.156300" lon="0.959533">
        <ele>1456.0</ele>
        <time>2013-09-13T15:09:53Z</time>
      </trkpt>
      <trkpt lat="42.156383" lon="0.959600">
        <ele>1458.0</ele>
        <time>2013-09-13T15:09:54Z</time>
      </trkpt>
      <trkpt lat="42.156450" lon="0.959667">
        <ele>1461.0</ele>
        <time>2013-09-13T15:09:55Z</time>
      </trkpt>
      <trkpt lat="42.156533" lon="0.959733">
        <ele>1462.0</ele>
        <time>2013-09-13T15:09:56Z</time>
      </trkpt>
      <trkpt lat="42.156633" lon="0.959783">
        <ele>1463.0</ele>
        <time>2013-09-13T15:09:57Z</time>
      </trkpt>
      <trkpt lat="42.156717" lon="0.959850">
        <ele>1463.0</ele>
        <time>2013-09-13T15:09:58Z</time>
      </trkpt>
      <trkpt lat="42.156800" lon="0.959950">
        <ele>1464.0</ele>
        <time>2013-09-13T15:09:59Z</time>
      </trkpt>
      <trkpt lat="42.156833" lon="0.960067">
        <ele>1465.0</ele>
        <time>2013-09-13T15:10:00Z</time>
      </trkpt>
      <trkpt lat="42.156833" lon="0.960183">
        <ele>1466.0</ele>
        <time>2013-09-13T15:10:01Z</time>
      </trkpt>
      <trkpt lat="42.156800" lon="0.960300">
        <ele>1467.0</ele>
        <time>2013-09-13T15:10:02Z</time>
      </trkpt>
      <trkpt lat="42.156750" lon="0.960350">
        <ele>1468.0</ele>
        <time>2013-09-13T15:10:03Z</time>
      </trkpt>
      <trkpt lat="42.156683" lon="0.960367">
        <ele>1469.0</ele>
        <time>2013-09-13T15:10:04Z</time>
      </trkpt>
      <trkpt lat="42.156617" lon="0.960350">
        <ele>1471.0</ele>
        <time>2013-09-13T15:10:05Z</time>
      </trkpt>
      <trkpt lat="42.156567" lon="0.960283">
        <ele>1472.0</ele>
        <time>2013-09-13T15:10:06Z</time>
      </trkpt>
      <trkpt lat="42.156533" lon="0.960200">
        <ele>1473.0</ele>
        <time>2013-09-13T15:10:07Z</time>
      </trkpt>
      <trkpt lat="42.156517" lon="0.960117">
        <ele>1474.0</ele>
        <time>2013-09-13T15:10:08Z</time>
      </trkpt>
      <trkpt lat="42.156533" lon="0.960017">
        <ele>1475.0</ele>
        <time>2013-09-13T15:10:09Z</time>
      </trkpt>
      <trkpt lat="42.156600" lon="0.959933">
        <ele>1475.0</ele>
        <time>2013-09-13T15:10:10Z</time>
      </trkpt>
      <trkpt lat="42.156667" lon="0.959850">
        <ele>1476.0</ele>
        <time>2013-09-13T15:10:11Z</time>
      </trkpt>
      <trkpt lat="42.156750" lon="0.959783">
        <ele>1476.0</ele>
        <time>2013-09-13T15:10:12Z</time>
      </trkpt>
      <trkpt lat="42.156833" lon="0.959733">
        <ele>1478.0</ele>
        <time>2013-09-13T15:10:13Z</time>
      </trkpt>
      <trkpt lat="42.156917" lon="0.959700">
        <ele>1479.0</ele>
        <time>2013-09-13T15:10:14Z</time>
      </trkpt>
      <trkpt lat="42.157017" lon="0.959683">
        <ele>1481.0</ele>
        <time>2013-09-13T15:10:15Z</time>
      </trkpt>
      <trkpt lat="42.157100" lon="0.959700">
        <ele>1482.0</ele>
        <time>2013-09-13T15:10:16Z</time>
      </trkpt>
      <trkpt lat="42.157200" lon="0.959733">
        <ele>1484.0</ele>
        <time>2013-09-13T15:10:17Z</time>
      </trkpt>
      <trkpt lat="42.157300" lon="0.959800">
        <ele>1486.0</ele>
        <time>2013-09-13T15:10:18Z</time>
      </trkpt>
      <trkpt lat="42.157367" lon="0.959900">
        <ele>1488.0</ele>
        <time>2013-09-13T15:10:19Z</time>
      </trkpt>
      <trkpt lat="42.157417" lon="0.960017">
        <ele>1489.0</ele>
        <time>2013-09-13T15:10:20Z</time>
      </trkpt>
      <trkpt lat="42.157433" lon="0.960150">
        <ele>1491.0</ele>
        <time>2013-09-13T15:10:21Z</time>
      </trkpt>
      <trkpt lat="42.157433" lon="0.960267">
        <ele>1493.0</ele>
        <time>2013-09-13T15:10:22Z</time>
      </trkpt>
      <trkpt lat="42.157417" lon="0.960383">
        <ele>1495.0</ele>
        <time>2013-09-13T15:10:23Z</time>
      </trkpt>
      <trkpt lat="42.157367" lon="0.960483">
        <ele>1497.0</ele>
        <time>2013-09-13T15:10:24Z</time>
      </trkpt>
      <trkpt lat="42.157317" lon="0.960583">
        <ele>1499.0</ele>
        <time>2013-09-13T15:10:25Z</time>
      </trkpt>
      <trkpt lat="42.157267" lon="0.960650">
        <ele>1501.0</ele>
        <time>2013-09-13T15:10:26Z</time>
      </trkpt>
      <trkpt lat="42.157200" lon="0.960667">
        <ele>1503.0</ele>
        <time>2013-09-13T15:10:27Z</time>
      </trkpt>
      <trkpt lat="42.157133" lon="0.960650">
        <ele>1505.0</ele>
        <time>2013-09-13T15:10:28Z</time>
      </trkpt>
      <trkpt lat="42.157083" lon="0.960617">
        <ele>1507.0</ele>
        <time>2013-09-13T15:10:29Z</time>
      </trkpt>
      <trkpt lat="42.157033" lon="0.960567">
        <ele>1509.0</ele>
        <time>2013-09-13T15:10:30Z</time>
      </trkpt>
      <trkpt lat="42.157000" lon="0.960500">
        <ele>1510.0</ele>
        <time>2013-09-13T15:10:31Z</time>
      </trkpt>
      <trkpt lat="42.156967" lon="0.960433">
        <ele>1512.0</ele>
        <time>2013-09-13T15:10:32Z</time>
      </trkpt>
      <trkpt lat="42.156983" lon="0.960350">
        <ele>1512.0</ele>
        <time>2013-09-13T15:10:33Z</time>
      </trkpt>
      <trkpt lat="42.157017" lon="0.960250">
        <ele>1512.0</ele>
        <time>2013-09-13T15:10:34Z</time>
      </trkpt>
      <trkpt lat="42.157067" lon="0.960150">
        <ele>1512.0</ele>
        <time>2013-09-13T15:10:35Z</time>
      </trkpt>
      <trkpt lat="42.157133" lon="0.960083">
        <ele>1513.0</ele>
        <time>2013-09-13T15:10:36Z</time>
      </trkpt>
      <trkpt lat="42.157200" lon="0.960017">
        <ele>1514.0</ele>
        <time>2013-09-13T15:10:37Z</time>
      </trkpt>
      <trkpt lat="42.157267" lon="0.959967">
        <ele>1515.0</ele>
        <time>2013-09-13T15:10:38Z</time>
      </trkpt>
      <trkpt lat="42.157333" lon="0.959933">
        <ele>1516.0</ele>
        <time>2013-09-13T15:10:39Z</time>
      </trkpt>
      <trkpt lat="42.157417" lon="0.959883">
        <ele>1517.0</ele>
        <time>2013-09-13T15:10:40Z</time>
      </trkpt>
      <trkpt lat="42.157500" lon="0.959850">
        <ele>1518.0</ele>
        <time>2013-09-13T15:10:41Z</time>
      </trkpt>
      <trkpt lat="42.157583" lon="0.959817">
        <ele>1519.0</ele>
        <time>2013-09-13T15:10:42Z</time>
      </trkpt>
      <trkpt lat="42.157683" lon="0.959800">
        <ele>1520.0</ele>
        <time>2013-09-13T15:10:43Z</time>
      </trkpt>
      <trkpt lat="42.157767" lon="0.959783">
        <ele>1522.0</ele>
        <time>2013-09-13T15:10:44Z</time>
      </trkpt>
      <trkpt lat="42.157867" lon="0.959783">
        <ele>1523.0</ele>
        <time>2013-09-13T15:10:45Z</time>
      </trkpt>
      <trkpt lat="42.157967" lon="0.959783">
        <ele>1524.0</ele>
        <time>2013-09-13T15:10:46Z</time>
      </trkpt>
      <trkpt lat="42.158050" lon="0.959783">
        <ele>1526.0</ele>
        <time>2013-09-13T15:10:47Z</time>
      </trkpt>
      <trkpt lat="42.158150" lon="0.959817">
        <ele>1528.0</ele>
        <time>2013-09-13T15:10:48Z</time>
      </trkpt>
      <trkpt lat="42.158233" lon="0.959850">
        <ele>1531.0</ele>
        <time>2013-09-13T15:10:49Z</time>
      </trkpt>
      <trkpt lat="42.158317" lon="0.959883">
        <ele>1534.0</ele>
        <time>2013-09-13T15:10:50Z</time>
      </trkpt>
      <trkpt lat="42.158383" lon="0.959900">
        <ele>1537.0</ele>
        <time>2013-09-13T15:10:51Z</time>
      </trkpt>
      <trkpt lat="42.158467" lon="0.959917">
        <ele>1539.0</ele>
        <time>2013-09-13T15:10:52Z</time>
      </trkpt>
      <trkpt lat="42.158567" lon="0.959950">
        <ele>1541.0</ele>
        <time>2013-09-13T15:10:53Z</time>
      </trkpt>
      <trkpt lat="42.158650" lon="0.960033">
        <ele>1543.0</ele>
        <time>2013-09-13T15:10:54Z</time>
      </trkpt>
      <trkpt lat="42.158700" lon="0.960133">
        <ele>1545.0</ele>
        <time>2013-09-13T15:10:55Z</time>
      </trkpt>
      <trkpt lat="42.158733" lon="0.960283">
        <ele>1546.0</ele>
        <time>2013-09-13T15:10:56Z</time>
      </trkpt>
      <trkpt lat="42.158717" lon="0.960417">
        <ele>1547.0</ele>
        <time>2013-09-13T15:10:57Z</time>
      </trkpt>
      <trkpt lat="42.158667" lon="0.960533">
        <ele>1549.0</ele>
        <time>2013-09-13T15:10:58Z</time>
      </trkpt>
      <trkpt lat="42.158600" lon="0.960617">
        <ele>1551.0</ele>
        <time>2013-09-13T15:10:59Z</time>
      </trkpt>
      <trkpt lat="42.158517" lon="0.960667">
        <ele>1553.0</ele>
        <time>2013-09-13T15:11:00Z</time>
      </trkpt>
      <trkpt lat="42.158433" lon="0.960667">
        <ele>1555.0</ele>
        <time>2013-09-13T15:11:01Z</time>
      </trkpt>
      <trkpt lat="42.158367" lon="0.960650">
        <ele>1556.0</ele>
        <time>2013-09-13T15:11:02Z</time>
      </trkpt>
      <trkpt lat="42.158317" lon="0.960583">
        <ele>1558.0</ele>
        <time>2013-09-13T15:11:03Z</time>
      </trkpt>
      <trkpt lat="42.158283" lon="0.960500">
        <ele>1560.0</ele>
        <time>2013-09-13T15:11:04Z</time>
      </trkpt>
      <trkpt lat="42.158283" lon="0.960417">
        <ele>1561.0</ele>
        <time>2013-09-13T15:11:05Z</time>
      </trkpt>
      <trkpt lat="42.158317" lon="0.960317">
        <ele>1563.0</ele>
        <time>2013-09-13T15:11:06Z</time>
      </trkpt>
      <trkpt lat="42.158367" lon="0.960250">
        <ele>1565.0</ele>
        <time>2013-09-13T15:11:07Z</time>
      </trkpt>
      <trkpt lat="42.158433" lon="0.960200">
        <ele>1567.0</ele>
        <time>2013-09-13T15:11:08Z</time>
      </trkpt>
      <trkpt lat="42.158500" lon="0.960150">
        <ele>1570.0</ele>
        <time>2013-09-13T15:11:09Z</time>
      </trkpt>
      <trkpt lat="42.158567" lon="0.960100">
        <ele>1573.0</ele>
        <time>2013-09-13T15:11:10Z</time>
      </trkpt>
      <trkpt lat="42.158633" lon="0.960067">
        <ele>1575.0</ele>
        <time>2013-09-13T15:11:11Z</time>
      </trkpt>
      <trkpt lat="42.158733" lon="0.960050">
        <ele>1577.0</ele>
        <time>2013-09-13T15:11:12Z</time>
      </trkpt>
      <trkpt lat="42.158833" lon="0.960083">
        <ele>1579.0</ele>
        <time>2013-09-13T15:11:13Z</time>
      </trkpt>
      <trkpt lat="42.158967" lon="0.960250">
        <ele>1583.0</ele>
        <time>2013-09-13T15:11:15Z</time>
      </trkpt>
      <trkpt lat="42.159017" lon="0.960367">
        <ele>1585.0</ele>
        <time>2013-09-13T15:11:16Z</time>
      </trkpt>
      <trkpt lat="42.159050" lon="0.960500">
        <ele>1587.0</ele>
        <time>2013-09-13T15:11:17Z</time>
      </trkpt>
      <trkpt lat="42.159067" lon="0.960617">
        <ele>1590.0</ele>
        <time>2013-09-13T15:11:18Z</time>
      </trkpt>
      <trkpt lat="42.159067" lon="0.960750">
        <ele>1592.0</ele>
        <time>2013-09-13T15:11:19Z</time>
      </trkpt>
      <trkpt lat="42.159033" lon="0.960867">
        <ele>1594.0</ele>
        <time>2013-09-13T15:11:20Z</time>
      </trkpt>
      <trkpt lat="42.158983" lon="0.960983">
        <ele>1596.0</ele>
        <time>2013-09-13T15:11:21Z</time>
      </trkpt>
      <trkpt lat="42.158917" lon="0.961050">
        <ele>1598.0</ele>
        <time>2013-09-13T15:11:22Z</time>
      </trkpt>
      <trkpt lat="42.158850" lon="0.961100">
        <ele>1599.0</ele>
        <time>2013-09-13T15:11:23Z</time>
      </trkpt>
      <trkpt lat="42.158767" lon="0.961100">
        <ele>1601.0</ele>
        <time>2013-09-13T15:11:24Z</time>
      </trkpt>
      <trkpt lat="42.158700" lon="0.961100">
        <ele>1603.0</ele>
        <time>2013-09-13T15:11:25Z</time>
      </trkpt>
      <trkpt lat="42.158633" lon="0.961067">
        <ele>1605.0</ele>
        <time>2013-09-13T15:11:26Z</time>
      </trkpt>
      <trkpt lat="42.158583" lon="0.961000">
        <ele>1606.0</ele>
        <time>2013-09-13T15:11:27Z</time>
      </trkpt>
      <trkpt lat="42.158567" lon="0.960917">
        <ele>1607.0</ele>
        <time>2013-09-13T15:11:28Z</time>
      </trkpt>
      <trkpt lat="42.158550" lon="0.960850">
        <ele>1608.0</ele>
        <time>2013-09-13T15:11:29Z</time>
      </trkpt>
      <trkpt lat="42.158567" lon="0.960767">
        <ele>1609.0</ele>
        <time>2013-09-13T15:11:30Z</time>
      </trkpt>
      <trkpt lat="42.158600" lon="0.960700">
        <ele>1611.0</ele>
        <time>2013-09-13T15:11:31Z</time>
      </trkpt>
      <trkpt lat="42.158650" lon="0.960650">
        <ele>1612.0</ele>
        <time>2013-09-13T15:11:32Z</time>
      </trkpt>
      <trkpt lat="42.158733" lon="0.960600">
        <ele>1613.0</ele>
        <time>2013-09-13T15:11:33Z</time>
      </trkpt>
      <trkpt lat="42.158800" lon="0.960550">
        <ele>1613.0</ele>
        <time>2013-09-13T15:11:34Z</time>
      </trkpt>
      <trkpt lat="42.158883" lon="0.960517">
        <ele>1615.0</ele>
        <time>2013-09-13T15:11:35Z</time>
      </trkpt>
      <trkpt lat="42.158950" lon="0.960500">
        <ele>1617.0</ele>
        <time>2013-09-13T15:11:36Z</time>
      </trkpt>
      <trkpt lat="42.159033" lon="0.960533">
        <ele>1619.0</ele>
        <time>2013-09-13T15:11:37Z</time>
      </trkpt>
      <trkpt lat="42.159117" lon="0.960583">
        <ele>1620.0</ele>
        <time>2013-09-13T15:11:38Z</time>
      </trkpt>
      <trkpt lat="42.159183" lon="0.960667">
        <ele>1621.0</ele>
        <time>2013-09-13T15:11:39Z</time>
      </trkpt>
      <trkpt lat="42.159250" lon="0.960767">
        <ele>1622.0</ele>
        <time>2013-09-13T15:11:40Z</time>
      </trkpt>
      <trkpt lat="42.159300" lon="0.960900">
        <ele>1624.0</ele>
        <time>2013-09-13T15:11:41Z</time>
      </trkpt>
      <trkpt lat="42.159333" lon="0.961017">
        <ele>1626.0</ele>
        <time>2013-09-13T15:11:42Z</time>
      </trkpt>
      <trkpt lat="42.159333" lon="0.961167">
        <ele>1629.0</ele>
        <time>2013-09-13T15:11:43Z</time>
      </trkpt>
      <trkpt lat="42.159300" lon="0.961283">
        <ele>1630.0</ele>
        <time>2013-09-13T15:11:44Z</time>
      </trkpt>
      <trkpt lat="42.159267" lon="0.961400">
        <ele>1632.0</ele>
        <time>2013-09-13T15:11:45Z</time>
      </trkpt>
      <trkpt lat="42.159200" lon="0.961500">
        <ele>1633.0</ele>
        <time>2013-09-13T15:11:46Z</time>
      </trkpt>
      <trkpt lat="42.159133" lon="0.961550">
        <ele>1634.0</ele>
        <time>2013-09-13T15:11:47Z</time>
      </trkpt>
      <trkpt lat="42.159050" lon="0.961583">
        <ele>1635.0</ele>
        <time>2013-09-13T15:11:48Z</time>
      </trkpt>
      <trkpt lat="42.158967" lon="0.961567">
        <ele>1636.0</ele>
        <time>2013-09-13T15:11:49Z</time>
      </trkpt>
      <trkpt lat="42.158917" lon="0.961533">
        <ele>1637.0</ele>
        <time>2013-09-13T15:11:50Z</time>
      </trkpt>
      <trkpt lat="42.158867" lon="0.961467">
        <ele>1639.0</ele>
        <time>2013-09-13T15:11:51Z</time>
      </trkpt>
      <trkpt lat="42.158850" lon="0.961383">
        <ele>1640.0</ele>
        <time>2013-09-13T15:11:52Z</time>
      </trkpt>
      <trkpt lat="42.158850" lon="0.961317">
        <ele>1642.0</ele>
        <time>2013-09-13T15:11:53Z</time>
      </trkpt>
      <trkpt lat="42.158867" lon="0.961250">
        <ele>1643.0</ele>
        <time>2013-09-13T15:11:54Z</time>
      </trkpt>
      <trkpt lat="42.158883" lon="0.961167">
        <ele>1643.0</ele>
        <time>2013-09-13T15:11:55Z</time>
      </trkpt>
      <trkpt lat="42.158933" lon="0.961100">
        <ele>1644.0</ele>
        <time>2013-09-13T15:11:56Z</time>
      </trkpt>
      <trkpt lat="42.159000" lon="0.961033">
        <ele>1644.0</ele>
        <time>2013-09-13T15:11:57Z</time>
      </trkpt>
      <trkpt lat="42.159083" lon="0.961000">
        <ele>1645.0</ele>
        <time>2013-09-13T15:11:58Z</time>
      </trkpt>
      <trkpt lat="42.159167" lon="0.960983">
        <ele>1646.0</ele>
        <time>2013-09-13T15:11:59Z</time>
      </trkpt>
      <trkpt lat="42.159250" lon="0.960967">
        <ele>1647.0</ele>
        <time>2013-09-13T15:12:00Z</time>
      </trkpt>
      <trkpt lat="42.159333" lon="0.960983">
        <ele>1649.0</ele>
        <time>2013-09-13T15:12:01Z</time>
      </trkpt>
      <trkpt lat="42.159433" lon="0.961017">
        <ele>1649.0</ele>
        <time>2013-09-13T15:12:02Z</time>
      </trkpt>
      <trkpt lat="42.159533" lon="0.961083">
        <ele>1649.0</ele>
        <time>2013-09-13T15:12:03Z</time>
      </trkpt>
      <trkpt lat="42.159617" lon="0.961167">
        <ele>1650.0</ele>
        <time>2013-09-13T15:12:04Z</time>
      </trkpt>
      <trkpt lat="42.159700" lon="0.961233">
        <ele>1651.0</ele>
        <time>2013-09-13T15:12:05Z</time>
      </trkpt>
      <trkpt lat="42.159783" lon="0.961267">
        <ele>1653.0</ele>
        <time>2013-09-13T15:12:06Z</time>
      </trkpt>
      <trkpt lat="42.159867" lon="0.961283">
        <ele>1654.0</ele>
        <time>2013-09-13T15:12:07Z</time>
      </trkpt>
      <trkpt lat="42.159950" lon="0.961283">
        <ele>1654.0</ele>
        <time>2013-09-13T15:12:08Z</time>
      </trkpt>
      <trkpt lat="42.160067" lon="0.961300">
        <ele>1654.0</ele>
        <time>2013-09-13T15:12:09Z</time>
      </trkpt>
      <trkpt lat="42.160167" lon="0.961317">
        <ele>1654.0</ele>
        <time>2013-09-13T15:12:10Z</time>
      </trkpt>
      <trkpt lat="42.160267" lon="0.961350">
        <ele>1657.0</ele>
        <time>2013-09-13T15:12:11Z</time>
      </trkpt>
      <trkpt lat="42.160350" lon="0.961350">
        <ele>1659.0</ele>
        <time>2013-09-13T15:12:12Z</time>
      </trkpt>
      <trkpt lat="42.160433" lon="0.961367">
        <ele>1662.0</ele>
        <time>2013-09-13T15:12:13Z</time>
      </trkpt>
      <trkpt lat="42.160517" lon="0.961367">
        <ele>1663.0</ele>
        <time>2013-09-13T15:12:14Z</time>
      </trkpt>
      <trkpt lat="42.160600" lon="0.961367">
        <ele>1665.0</ele>
        <time>2013-09-13T15:12:15Z</time>
      </trkpt>
      <trkpt lat="42.160700" lon="0.961383">
        <ele>1666.0</ele>
        <time>2013-09-13T15:12:16Z</time>
      </trkpt>
      <trkpt lat="42.160800" lon="0.961383">
        <ele>1667.0</ele>
        <time>2013-09-13T15:12:17Z</time>
      </trkpt>
      <trkpt lat="42.160883" lon="0.961400">
        <ele>1668.0</ele>
        <time>2013-09-13T15:12:18Z</time>
      </trkpt>
      <trkpt lat="42.160983" lon="0.961400">
        <ele>1670.0</ele>
        <time>2013-09-13T15:12:19Z</time>
      </trkpt>
      <trkpt lat="42.161067" lon="0.961383">
        <ele>1672.0</ele>
        <time>2013-09-13T15:12:20Z</time>
      </trkpt>
      <trkpt lat="42.161167" lon="0.961383">
        <ele>1674.0</ele>
        <time>2013-09-13T15:12:21Z</time>
      </trkpt>
      <trkpt lat="42.161250" lon="0.961367">
        <ele>1675.0</ele>
        <time>2013-09-13T15:12:22Z</time>
      </trkpt>
      <trkpt lat="42.161350" lon="0.961383">
        <ele>1676.0</ele>
        <time>2013-09-13T15:12:23Z</time>
      </trkpt>
      <trkpt lat="42.161450" lon="0.961383">
        <ele>1677.0</ele>
        <time>2013-09-13T15:12:24Z</time>
      </trkpt>
      <trkpt lat="42.161550" lon="0.961400">
        <ele>1678.0</ele>
        <time>2013-09-13T15:12:25Z</time>
      </trkpt>
      <trkpt lat="42.161650" lon="0.961417">
        <ele>1680.0</ele>
        <time>2013-09-13T15:12:26Z</time>
      </trkpt>
      <trkpt lat="42.161750" lon="0.961433">
        <ele>1681.0</ele>
        <time>2013-09-13T15:12:27Z</time>
      </trkpt>
      <trkpt lat="42.161850" lon="0.961433">
        <ele>1682.0</ele>
        <time>2013-09-13T15:12:28Z</time>
      </trkpt>
      <trkpt lat="42.161967" lon="0.961433">
        <ele>1684.0</ele>
        <time>2013-09-13T15:12:29Z</time>
      </trkpt>
      <trkpt lat="42.162067" lon="0.961433">
        <ele>1685.0</ele>
        <time>2013-09-13T15:12:30Z</time>
      </trkpt>
      <trkpt lat="42.162183" lon="0.961417">
        <ele>1686.0</ele>
        <time>2013-09-13T15:12:31Z</time>
      </trkpt>
      <trkpt lat="42.162283" lon="0.961417">
        <ele>1687.0</ele>
        <time>2013-09-13T15:12:32Z</time>
      </trkpt>
      <trkpt lat="42.162383" lon="0.961417">
        <ele>1687.0</ele>
        <time>2013-09-13T15:12:33Z</time>
      </trkpt>
      <trkpt lat="42.162500" lon="0.961433">
        <ele>1688.0</ele>
        <time>2013-09-13T15:12:34Z</time>
      </trkpt>
      <trkpt lat="42.162617" lon="0.961433">
        <ele>1689.0</ele>
        <time>2013-09-13T15:12:35Z</time>
      </trkpt>
      <trkpt lat="42.162717" lon="0.961417">
        <ele>1690.0</ele>
        <time>2013-09-13T15:12:36Z</time>
      </trkpt>
      <trkpt lat="42.162833" lon="0.961417">
        <ele>1690.0</ele>
        <time>2013-09-13T15:12:37Z</time>
      </trkpt>
      <trkpt lat="42.162933" lon="0.961400">
        <ele>1691.0</ele>
        <time>2013-09-13T15:12:38Z</time>
      </trkpt>
      <trkpt lat="42.163050" lon="0.961383">
        <ele>1691.0</ele>
        <time>2013-09-13T15:12:39Z</time>
      </trkpt>
      <trkpt lat="42.163167" lon="0.961367">
        <ele>1692.0</ele>
        <time>2013-09-13T15:12:40Z</time>
      </trkpt>
      <trkpt lat="42.163283" lon="0.961367">
        <ele>1694.0</ele>
        <time>2013-09-13T15:12:41Z</time>
      </trkpt>
      <trkpt lat="42.163383" lon="0.961383">
        <ele>1696.0</ele>
        <time>2013-09-13T15:12:42Z</time>
      </trkpt>
      <trkpt lat="42.163583" lon="0.961400">
        <ele>1700.0</ele>
        <time>2013-09-13T15:12:44Z</time>
      </trkpt>
      <trkpt lat="42.163683" lon="0.961400">
        <ele>1700.0</ele>
        <time>2013-09-13T15:12:45Z</time>
      </trkpt>
      <trkpt lat="42.163800" lon="0.961400">
        <ele>1699.0</ele>
        <time>2013-09-13T15:12:46Z</time>
      </trkpt>
      <trkpt lat="42.163933" lon="0.961400">
        <ele>1699.0</ele>
        <time>2013-09-13T15:12:47Z</time>
      </trkpt>
      <trkpt lat="42.164033" lon="0.961417">
        <ele>1699.0</ele>
        <time>2013-09-13T15:12:48Z</time>
      </trkpt>
      <trkpt lat="42.164150" lon="0.961417">
        <ele>1700.0</ele>
        <time>2013-09-13T15:12:49Z</time>
      </trkpt>
      <trkpt lat="42.164250" lon="0.961417">
        <ele>1701.0</ele>
        <time>2013-09-13T15:12:50Z</time>
      </trkpt>
      <trkpt lat="42.164350" lon="0.961400">
        <ele>1700.0</ele>
        <time>2013-09-13T15:12:51Z</time>
      </trkpt>
      <trkpt lat="42.164467" lon="0.961400">
        <ele>1700.0</ele>
        <time>2013-09-13T15:12:52Z</time>
      </trkpt>
      <trkpt lat="42.164567" lon="0.961400">
        <ele>1700.0</ele>
        <time>2013-09-13T15:12:53Z</time>
      </trkpt>
      <trkpt lat="42.164667" lon="0.961417">
        <ele>1700.0</ele>
        <time>2013-09-13T15:12:54Z</time>
      </trkpt>
      <trkpt lat="42.164783" lon="0.961417">
        <ele>1700.0</ele>
        <time>2013-09-13T15:12:55Z</time>
      </trkpt>
      <trkpt lat="42.164883" lon="0.961417">
        <ele>1699.0</ele>
        <time>2013-09-13T15:12:56Z</time>
      </trkpt>
      <trkpt lat="42.165000" lon="0.961417">
        <ele>1698.0</ele>
        <time>2013-09-13T15:12:57Z</time>
      </trkpt>
      <trkpt lat="42.165117" lon="0.961400">
        <ele>1696.0</ele>
        <time>2013-09-13T15:12:58Z</time>
      </trkpt>
      <trkpt lat="42.165233" lon="0.961417">
        <ele>1694.0</ele>
        <time>2013-09-13T15:12:59Z</time>
      </trkpt>
      <trkpt lat="42.165350" lon="0.961417">
        <ele>1693.0</ele>
        <time>2013-09-13T15:13:00Z</time>
      </trkpt>
      <trkpt lat="42.165467" lon="0.961433">
        <ele>1691.0</ele>
        <time>2013-09-13T15:13:01Z</time>
      </trkpt>
      <trkpt lat="42.165567" lon="0.961433">
        <ele>1689.0</ele>
        <time>2013-09-13T15:13:02Z</time>
      </trkpt>
      <trkpt lat="42.165683" lon="0.961450">
        <ele>1687.0</ele>
        <time>2013-09-13T15:13:03Z</time>
      </trkpt>
      <trkpt lat="42.165800" lon="0.961467">
        <ele>1685.0</ele>
        <time>2013-09-13T15:13:04Z</time>
      </trkpt>
      <trkpt lat="42.165917" lon="0.961467">
        <ele>1682.0</ele>
        <time>2013-09-13T15:13:05Z</time>
      </trkpt>
      <trkpt lat="42.166033" lon="0.961467">
        <ele>1680.0</ele>
        <time>2013-09-13T15:13:06Z</time>
      </trkpt>
      <trkpt lat="42.166150" lon="0.961467">
        <ele>1678.0</ele>
        <time>2013-09-13T15:13:07Z</time>
      </trkpt>
      <trkpt lat="42.166267" lon="0.961483">
        <ele>1677.0</ele>
        <time>2013-09-13T15:13:08Z</time>
      </trkpt>
      <trkpt lat="42.166383" lon="0.961483">
        <ele>1675.0</ele>
        <time>2013-09-13T15:13:09Z</time>
      </trkpt>
      <trkpt lat="42.166483" lon="0.961483">
        <ele>1673.0</ele>
        <time>2013-09-13T15:13:10Z</time>
      </trkpt>
      <trkpt lat="42.166600" lon="0.961500">
        <ele>1671.0</ele>
        <time>2013-09-13T15:13:11Z</time>
      </trkpt>
      <trkpt lat="42.166717" lon="0.961500">
        <ele>1668.0</ele>
        <time>2013-09-13T15:13:12Z</time>
      </trkpt>
      <trkpt lat="42.166833" lon="0.961517">
        <ele>1666.0</ele>
        <time>2013-09-13T15:13:13Z</time>
      </trkpt>
      <trkpt lat="42.166950" lon="0.961517">
        <ele>1663.0</ele>
        <time>2013-09-13T15:13:14Z</time>
      </trkpt>
      <trkpt lat="42.167067" lon="0.961517">
        <ele>1662.0</ele>
        <time>2013-09-13T15:13:15Z</time>
      </trkpt>
      <trkpt lat="42.167183" lon="0.961517">
        <ele>1660.0</ele>
        <time>2013-09-13T15:13:16Z</time>
      </trkpt>
      <trkpt lat="42.167283" lon="0.961517">
        <ele>1657.0</ele>
        <time>2013-09-13T15:13:17Z</time>
      </trkpt>
      <trkpt lat="42.167417" lon="0.961517">
        <ele>1654.0</ele>
        <time>2013-09-13T15:13:18Z</time>
      </trkpt>
      <trkpt lat="42.167533" lon="0.961517">
        <ele>1651.0</ele>
        <time>2013-09-13T15:13:19Z</time>
      </trkpt>
      <trkpt lat="42.167667" lon="0.961500">
        <ele>1649.0</ele>
        <time>2013-09-13T15:13:20Z</time>
      </trkpt>
      <trkpt lat="42.167767" lon="0.961500">
        <ele>1647.0</ele>
        <time>2013-09-13T15:13:21Z</time>
      </trkpt>
      <trkpt lat="42.167867" lon="0.961500">
        <ele>1645.0</ele>
        <time>2013-09-13T15:13:22Z</time>
      </trkpt>
      <trkpt lat="42.167983" lon="0.961483">
        <ele>1643.0</ele>
        <time>2013-09-13T15:13:23Z</time>
      </trkpt>
      <trkpt lat="42.168100" lon="0.961483">
        <ele>1641.0</ele>
        <time>2013-09-13T15:13:24Z</time>
      </trkpt>
      <trkpt lat="42.168200" lon="0.961483">
        <ele>1638.0</ele>
        <time>2013-09-13T15:13:25Z</time>
      </trkpt>
      <trkpt lat="42.168317" lon="0.961467">
        <ele>1636.0</ele>
        <time>2013-09-13T15:13:26Z</time>
      </trkpt>
      <trkpt lat="42.168433" lon="0.961467">
        <ele>1635.0</ele>
        <time>2013-09-13T15:13:27Z</time>
      </trkpt>
      <trkpt lat="42.168533" lon="0.961450">
        <ele>1634.0</ele>
        <time>2013-09-13T15:13:28Z</time>
      </trkpt>
      <trkpt lat="42.168650" lon="0.961433">
        <ele>1632.0</ele>
        <time>2013-09-13T15:13:29Z</time>
      </trkpt>
      <trkpt lat="42.168767" lon="0.961417">
        <ele>1630.0</ele>
        <time>2013-09-13T15:13:30Z</time>
      </trkpt>
      <trkpt lat="42.168867" lon="0.961417">
        <ele>1629.0</ele>
        <time>2013-09-13T15:13:31Z</time>
      </trkpt>
      <trkpt lat="42.168983" lon="0.961400">
        <ele>1628.0</ele>
        <time>2013-09-13T15:13:32Z</time>
      </trkpt>
      <trkpt lat="42.169083" lon="0.961383">
        <ele>1627.0</ele>
        <time>2013-09-13T15:13:33Z</time>
      </trkpt>
      <trkpt lat="42.169200" lon="0.961350">
        <ele>1625.0</ele>
        <time>2013-09-13T15:13:34Z</time>
      </trkpt>
      <trkpt lat="42.169317" lon="0.961333">
        <ele>1624.0</ele>
        <time>2013-09-13T15:13:35Z</time>
      </trkpt>
      <trkpt lat="42.169550" lon="0.961317">
        <ele>1623.0</ele>
        <time>2013-09-13T15:13:37Z</time>
      </trkpt>
      <trkpt lat="42.169667" lon="0.961317">
        <ele>1624.0</ele>
        <time>2013-09-13T15:13:38Z</time>
      </trkpt>
      <trkpt lat="42.169767" lon="0.961317">
        <ele>1625.0</ele>
        <time>2013-09-13T15:13:39Z</time>
      </trkpt>
      <trkpt lat="42.169867" lon="0.961317">
        <ele>1626.0</ele>
        <time>2013-09-13T15:13:40Z</time>
      </trkpt>
      <trkpt lat="42.169967" lon="0.961317">
        <ele>1626.0</ele>
        <time>2013-09-13T15:13:41Z</time>
      </trkpt>
      <trkpt lat="42.170083" lon="0.961317">
        <ele>1625.0</ele>
        <time>2013-09-13T15:13:42Z</time>
      </trkpt>
      <trkpt lat="42.170183" lon="0.961333">
        <ele>1624.0</ele>
        <time>2013-09-13T15:13:43Z</time>
      </trkpt>
      <trkpt lat="42.170300" lon="0.961350">
        <ele>1624.0</ele>
        <time>2013-09-13T15:13:44Z</time>
      </trkpt>
      <trkpt lat="42.170400" lon="0.961367">
        <ele>1624.0</ele>
        <time>2013-09-13T15:13:45Z</time>
      </trkpt>
      <trkpt lat="42.170500" lon="0.961367">
        <ele>1623.0</ele>
        <time>2013-09-13T15:13:46Z</time>
      </trkpt>
      <trkpt lat="42.170617" lon="0.961383">
        <ele>1621.0</ele>
        <time>2013-09-13T15:13:47Z</time>
      </trkpt>
      <trkpt lat="42.170733" lon="0.961400">
        <ele>1619.0</ele>
        <time>2013-09-13T15:13:48Z</time>
      </trkpt>
      <trkpt lat="42.170850" lon="0.961400">
        <ele>1617.0</ele>
        <time>2013-09-13T15:13:49Z</time>
      </trkpt>
      <trkpt lat="42.170967" lon="0.961417">
        <ele>1616.0</ele>
        <time>2013-09-13T15:13:50Z</time>
      </trkpt>
      <trkpt lat="42.171067" lon="0.961417">
        <ele>1615.0</ele>
        <time>2013-09-13T15:13:51Z</time>
      </trkpt>
      <trkpt lat="42.171183" lon="0.961433">
        <ele>1613.0</ele>
        <time>2013-09-13T15:13:52Z</time>
      </trkpt>
      <trkpt lat="42.171417" lon="0.961467">
        <ele>1608.0</ele>
        <time>2013-09-13T15:13:54Z</time>
      </trkpt>
      <trkpt lat="42.171533" lon="0.961483">
        <ele>1606.0</ele>
        <time>2013-09-13T15:13:55Z</time>
      </trkpt>
      <trkpt lat="42.171650" lon="0.961500">
        <ele>1605.0</ele>
        <time>2013-09-13T15:13:56Z</time>
      </trkpt>
      <trkpt lat="42.171767" lon="0.961500">
        <ele>1604.0</ele>
        <time>2013-09-13T15:13:57Z</time>
      </trkpt>
      <trkpt lat="42.171867" lon="0.961517">
        <ele>1603.0</ele>
        <time>2013-09-13T15:13:58Z</time>
      </trkpt>
      <trkpt lat="42.171967" lon="0.961533">
        <ele>1601.0</ele>
        <time>2013-09-13T15:13:59Z</time>
      </trkpt>
      <trkpt lat="42.172083" lon="0.961550">
        <ele>1599.0</ele>
        <time>2013-09-13T15:14:00Z</time>
      </trkpt>
      <trkpt lat="42.172200" lon="0.961550">
        <ele>1596.0</ele>
        <time>2013-09-13T15:14:01Z</time>
      </trkpt>
      <trkpt lat="42.172317" lon="0.961567">
        <ele>1594.0</ele>
        <time>2013-09-13T15:14:02Z</time>
      </trkpt>
      <trkpt lat="42.172433" lon="0.961567">
        <ele>1592.0</ele>
        <time>2013-09-13T15:14:03Z</time>
      </trkpt>
      <trkpt lat="42.172550" lon="0.961583">
        <ele>1590.0</ele>
        <time>2013-09-13T15:14:04Z</time>
      </trkpt>
      <trkpt lat="42.172650" lon="0.961583">
        <ele>1588.0</ele>
        <time>2013-09-13T15:14:05Z</time>
      </trkpt>
      <trkpt lat="42.172767" lon="0.961583">
        <ele>1586.0</ele>
        <time>2013-09-13T15:14:06Z</time>
      </trkpt>
      <trkpt lat="42.172883" lon="0.961600">
        <ele>1586.0</ele>
        <time>2013-09-13T15:14:07Z</time>
      </trkpt>
      <trkpt lat="42.172983" lon="0.961617">
        <ele>1586.0</ele>
        <time>2013-09-13T15:14:08Z</time>
      </trkpt>
      <trkpt lat="42.173067" lon="0.961633">
        <ele>1587.0</ele>
        <time>2013-09-13T15:14:09Z</time>
      </trkpt>
      <trkpt lat="42.173133" lon="0.961650">
        <ele>1587.0</ele>
        <time>2013-09-13T15:14:10Z</time>
      </trkpt>
      <trkpt lat="42.173217" lon="0.961650">
        <ele>1585.0</ele>
        <time>2013-09-13T15:14:11Z</time>
      </trkpt>
      <trkpt lat="42.173317" lon="0.961650">
        <ele>1583.0</ele>
        <time>2013-09-13T15:14:12Z</time>
      </trkpt>
      <trkpt lat="42.173417" lon="0.961667">
        <ele>1580.0</ele>
        <time>2013-09-13T15:14:13Z</time>
      </trkpt>
      <trkpt lat="42.173517" lon="0.961683">
        <ele>1578.0</ele>
        <time>2013-09-13T15:14:14Z</time>
      </trkpt>
      <trkpt lat="42.173617" lon="0.961683">
        <ele>1578.0</ele>
        <time>2013-09-13T15:14:15Z</time>
      </trkpt>
      <trkpt lat="42.173700" lon="0.961700">
        <ele>1579.0</ele>
        <time>2013-09-13T15:14:16Z</time>
      </trkpt>
      <trkpt lat="42.173783" lon="0.961700">
        <ele>1578.0</ele>
        <time>2013-09-13T15:14:17Z</time>
      </trkpt>
      <trkpt lat="42.173867" lon="0.961700">
        <ele>1577.0</ele>
        <time>2013-09-13T15:14:18Z</time>
      </trkpt>
      <trkpt lat="42.173967" lon="0.961700">
        <ele>1574.0</ele>
        <time>2013-09-13T15:14:19Z</time>
      </trkpt>
      <trkpt lat="42.174083" lon="0.961700">
        <ele>1572.0</ele>
        <time>2013-09-13T15:14:20Z</time>
      </trkpt>
      <trkpt lat="42.174200" lon="0.961717">
        <ele>1570.0</ele>
        <time>2013-09-13T15:14:21Z</time>
      </trkpt>
      <trkpt lat="42.174317" lon="0.961717">
        <ele>1569.0</ele>
        <time>2013-09-13T15:14:22Z</time>
      </trkpt>
      <trkpt lat="42.174433" lon="0.961717">
        <ele>1569.0</ele>
        <time>2013-09-13T15:14:23Z</time>
      </trkpt>
      <trkpt lat="42.174550" lon="0.961700">
        <ele>1569.0</ele>
        <time>2013-09-13T15:14:24Z</time>
      </trkpt>
      <trkpt lat="42.174667" lon="0.961700">
        <ele>1569.0</ele>
        <time>2013-09-13T15:14:25Z</time>
      </trkpt>
      <trkpt lat="42.174783" lon="0.961700">
        <ele>1569.0</ele>
        <time>2013-09-13T15:14:26Z</time>
      </trkpt>
      <trkpt lat="42.174900" lon="0.961717">
        <ele>1569.0</ele>
        <time>2013-09-13T15:14:27Z</time>
      </trkpt>
      <trkpt lat="42.175033" lon="0.961717">
        <ele>1570.0</ele>
        <time>2013-09-13T15:14:28Z</time>
      </trkpt>
      <trkpt lat="42.175150" lon="0.961733">
        <ele>1572.0</ele>
        <time>2013-09-13T15:14:29Z</time>
      </trkpt>
      <trkpt lat="42.175267" lon="0.961733">
        <ele>1574.0</ele>
        <time>2013-09-13T15:14:30Z</time>
      </trkpt>
      <trkpt lat="42.175367" lon="0.961733">
        <ele>1576.0</ele>
        <time>2013-09-13T15:14:31Z</time>
      </trkpt>
      <trkpt lat="42.175483" lon="0.961733">
        <ele>1578.0</ele>
        <time>2013-09-13T15:14:32Z</time>
      </trkpt>
      <trkpt lat="42.175583" lon="0.961733">
        <ele>1580.0</ele>
        <time>2013-09-13T15:14:33Z</time>
      </trkpt>
      <trkpt lat="42.175700" lon="0.961717">
        <ele>1580.0</ele>
        <time>2013-09-13T15:14:34Z</time>
      </trkpt>
      <trkpt lat="42.175817" lon="0.961683">
        <ele>1581.0</ele>
        <time>2013-09-13T15:14:35Z</time>
      </trkpt>
      <trkpt lat="42.175917" lon="0.961667">
        <ele>1581.0</ele>
        <time>2013-09-13T15:14:36Z</time>
      </trkpt>
      <trkpt lat="42.176033" lon="0.961650">
        <ele>1581.0</ele>
        <time>2013-09-13T15:14:37Z</time>
      </trkpt>
      <trkpt lat="42.176150" lon="0.961617">
        <ele>1582.0</ele>
        <time>2013-09-13T15:14:38Z</time>
      </trkpt>
      <trkpt lat="42.176250" lon="0.961600">
        <ele>1582.0</ele>
        <time>2013-09-13T15:14:39Z</time>
      </trkpt>
      <trkpt lat="42.176367" lon="0.961600">
        <ele>1582.0</ele>
        <time>2013-09-13T15:14:40Z</time>
      </trkpt>
      <trkpt lat="42.176483" lon="0.961583">
        <ele>1582.0</ele>
        <time>2013-09-13T15:14:41Z</time>
      </trkpt>
      <trkpt lat="42.176600" lon="0.961617">
        <ele>1582.0</ele>
        <time>2013-09-13T15:14:42Z</time>
      </trkpt>
      <trkpt lat="42.176717" lon="0.961633">
        <ele>1582.0</ele>
        <time>2013-09-13T15:14:43Z</time>
      </trkpt>
      <trkpt lat="42.176817" lon="0.961667">
        <ele>1583.0</ele>
        <time>2013-09-13T15:14:44Z</time>
      </trkpt>
      <trkpt lat="42.176917" lon="0.961683">
        <ele>1583.0</ele>
        <time>2013-09-13T15:14:45Z</time>
      </trkpt>
      <trkpt lat="42.177017" lon="0.961700">
        <ele>1582.0</ele>
        <time>2013-09-13T15:14:46Z</time>
      </trkpt>
      <trkpt lat="42.177133" lon="0.961700">
        <ele>1580.0</ele>
        <time>2013-09-13T15:14:47Z</time>
      </trkpt>
      <trkpt lat="42.177250" lon="0.961733">
        <ele>1578.0</ele>
        <time>2013-09-13T15:14:48Z</time>
      </trkpt>
      <trkpt lat="42.177367" lon="0.961750">
        <ele>1576.0</ele>
        <time>2013-09-13T15:14:49Z</time>
      </trkpt>
      <trkpt lat="42.177467" lon="0.961783">
        <ele>1575.0</ele>
        <time>2013-09-13T15:14:50Z</time>
      </trkpt>
      <trkpt lat="42.177583" lon="0.961800">
        <ele>1573.0</ele>
        <time>2013-09-13T15:14:51Z</time>
      </trkpt>
      <trkpt lat="42.177683" lon="0.961800">
        <ele>1572.0</ele>
        <time>2013-09-13T15:14:52Z</time>
      </trkpt>
      <trkpt lat="42.177917" lon="0.961800">
        <ele>1569.0</ele>
        <time>2013-09-13T15:14:54Z</time>
      </trkpt>
      <trkpt lat="42.178033" lon="0.961800">
        <ele>1568.0</ele>
        <time>2013-09-13T15:14:55Z</time>
      </trkpt>
      <trkpt lat="42.178133" lon="0.961783">
        <ele>1568.0</ele>
        <time>2013-09-13T15:14:56Z</time>
      </trkpt>
      <trkpt lat="42.178233" lon="0.961767">
        <ele>1567.0</ele>
        <time>2013-09-13T15:14:57Z</time>
      </trkpt>
      <trkpt lat="42.178333" lon="0.961750">
        <ele>1567.0</ele>
        <time>2013-09-13T15:14:58Z</time>
      </trkpt>
      <trkpt lat="42.178433" lon="0.961733">
        <ele>1566.0</ele>
        <time>2013-09-13T15:14:59Z</time>
      </trkpt>
      <trkpt lat="42.178533" lon="0.961717">
        <ele>1564.0</ele>
        <time>2013-09-13T15:15:00Z</time>
      </trkpt>
      <trkpt lat="42.178633" lon="0.961683">
        <ele>1563.0</ele>
        <time>2013-09-13T15:15:01Z</time>
      </trkpt>
      <trkpt lat="42.178733" lon="0.961667">
        <ele>1562.0</ele>
        <time>2013-09-13T15:15:02Z</time>
      </trkpt>
      <trkpt lat="42.178817" lon="0.961633">
        <ele>1560.0</ele>
        <time>2013-09-13T15:15:03Z</time>
      </trkpt>
      <trkpt lat="42.178917" lon="0.961617">
        <ele>1559.0</ele>
        <time>2013-09-13T15:15:04Z</time>
      </trkpt>
      <trkpt lat="42.179017" lon="0.961600">
        <ele>1557.0</ele>
        <time>2013-09-13T15:15:05Z</time>
      </trkpt>
      <trkpt lat="42.179100" lon="0.961583">
        <ele>1555.0</ele>
        <time>2013-09-13T15:15:06Z</time>
      </trkpt>
      <trkpt lat="42.179200" lon="0.961567">
        <ele>1553.0</ele>
        <time>2013-09-13T15:15:07Z</time>
      </trkpt>
      <trkpt lat="42.179300" lon="0.961550">
        <ele>1551.0</ele>
        <time>2013-09-13T15:15:08Z</time>
      </trkpt>
      <trkpt lat="42.179400" lon="0.961533">
        <ele>1549.0</ele>
        <time>2013-09-13T15:15:09Z</time>
      </trkpt>
      <trkpt lat="42.179517" lon="0.961517">
        <ele>1548.0</ele>
        <time>2013-09-13T15:15:10Z</time>
      </trkpt>
      <trkpt lat="42.179600" lon="0.961500">
        <ele>1546.0</ele>
        <time>2013-09-13T15:15:11Z</time>
      </trkpt>
      <trkpt lat="42.179700" lon="0.961483">
        <ele>1545.0</ele>
        <time>2013-09-13T15:15:12Z</time>
      </trkpt>
      <trkpt lat="42.179800" lon="0.961467">
        <ele>1543.0</ele>
        <time>2013-09-13T15:15:13Z</time>
      </trkpt>
      <trkpt lat="42.179883" lon="0.961450">
        <ele>1542.0</ele>
        <time>2013-09-13T15:15:14Z</time>
      </trkpt>
      <trkpt lat="42.179967" lon="0.961450">
        <ele>1541.0</ele>
        <time>2013-09-13T15:15:15Z</time>
      </trkpt>
      <trkpt lat="42.180067" lon="0.961433">
        <ele>1539.0</ele>
        <time>2013-09-13T15:15:16Z</time>
      </trkpt>
      <trkpt lat="42.180150" lon="0.961417">
        <ele>1537.0</ele>
        <time>2013-09-13T15:15:17Z</time>
      </trkpt>
      <trkpt lat="42.180233" lon="0.961400">
        <ele>1535.0</ele>
        <time>2013-09-13T15:15:18Z</time>
      </trkpt>
      <trkpt lat="42.180317" lon="0.961383">
        <ele>1533.0</ele>
        <time>2013-09-13T15:15:19Z</time>
      </trkpt>
      <trkpt lat="42.180400" lon="0.961383">
        <ele>1531.0</ele>
        <time>2013-09-13T15:15:20Z</time>
      </trkpt>
      <trkpt lat="42.180500" lon="0.961367">
        <ele>1529.0</ele>
        <time>2013-09-13T15:15:21Z</time>
      </trkpt>
      <trkpt lat="42.180583" lon="0.961367">
        <ele>1527.0</ele>
        <time>2013-09-13T15:15:22Z</time>
      </trkpt>
      <trkpt lat="42.180667" lon="0.961350">
        <ele>1526.0</ele>
        <time>2013-09-13T15:15:23Z</time>
      </trkpt>
      <trkpt lat="42.180750" lon="0.961333">
        <ele>1524.0</ele>
        <time>2013-09-13T15:15:24Z</time>
      </trkpt>
      <trkpt lat="42.180833" lon="0.961317">
        <ele>1524.0</ele>
        <time>2013-09-13T15:15:25Z</time>
      </trkpt>
      <trkpt lat="42.180917" lon="0.961300">
        <ele>1523.0</ele>
        <time>2013-09-13T15:15:26Z</time>
      </trkpt>
      <trkpt lat="42.181000" lon="0.961300">
        <ele>1523.0</ele>
        <time>2013-09-13T15:15:27Z</time>
      </trkpt>
      <trkpt lat="42.181083" lon="0.961283">
        <ele>1522.0</ele>
        <time>2013-09-13T15:15:28Z</time>
      </trkpt>
      <trkpt lat="42.181167" lon="0.961267">
        <ele>1522.0</ele>
        <time>2013-09-13T15:15:29Z</time>
      </trkpt>
      <trkpt lat="42.181267" lon="0.961233">
        <ele>1522.0</ele>
        <time>2013-09-13T15:15:30Z</time>
      </trkpt>
      <trkpt lat="42.181350" lon="0.961217">
        <ele>1522.0</ele>
        <time>2013-09-13T15:15:31Z</time>
      </trkpt>
      <trkpt lat="42.181417" lon="0.961183">
        <ele>1521.0</ele>
        <time>2013-09-13T15:15:32Z</time>
      </trkpt>
      <trkpt lat="42.181500" lon="0.961150">
        <ele>1521.0</ele>
        <time>2013-09-13T15:15:33Z</time>
      </trkpt>
      <trkpt lat="42.181583" lon="0.961117">
        <ele>1519.0</ele>
        <time>2013-09-13T15:15:34Z</time>
      </trkpt>
      <trkpt lat="42.181700" lon="0.961100">
        <ele>1518.0</ele>
        <time>2013-09-13T15:15:35Z</time>
      </trkpt>
      <trkpt lat="42.181817" lon="0.961067">
        <ele>1516.0</ele>
        <time>2013-09-13T15:15:36Z</time>
      </trkpt>
      <trkpt lat="42.181917" lon="0.961067">
        <ele>1516.0</ele>
        <time>2013-09-13T15:15:37Z</time>
      </trkpt>
      <trkpt lat="42.182017" lon="0.961050">
        <ele>1517.0</ele>
        <time>2013-09-13T15:15:38Z</time>
      </trkpt>
      <trkpt lat="42.182100" lon="0.961033">
        <ele>1517.0</ele>
        <time>2013-09-13T15:15:39Z</time>
      </trkpt>
      <trkpt lat="42.182283" lon="0.961000">
        <ele>1514.0</ele>
        <time>2013-09-13T15:15:41Z</time>
      </trkpt>
      <trkpt lat="42.182367" lon="0.960967">
        <ele>1512.0</ele>
        <time>2013-09-13T15:15:42Z</time>
      </trkpt>
      <trkpt lat="42.182467" lon="0.960950">
        <ele>1510.0</ele>
        <time>2013-09-13T15:15:43Z</time>
      </trkpt>
      <trkpt lat="42.182567" lon="0.960933">
        <ele>1508.0</ele>
        <time>2013-09-13T15:15:44Z</time>
      </trkpt>
      <trkpt lat="42.182650" lon="0.960917">
        <ele>1507.0</ele>
        <time>2013-09-13T15:15:45Z</time>
      </trkpt>
      <trkpt lat="42.182750" lon="0.960900">
        <ele>1505.0</ele>
        <time>2013-09-13T15:15:46Z</time>
      </trkpt>
      <trkpt lat="42.182833" lon="0.960867">
        <ele>1503.0</ele>
        <time>2013-09-13T15:15:47Z</time>
      </trkpt>
      <trkpt lat="42.182933" lon="0.960833">
        <ele>1501.0</ele>
        <time>2013-09-13T15:15:48Z</time>
      </trkpt>
      <trkpt lat="42.183033" lon="0.960800">
        <ele>1499.0</ele>
        <time>2013-09-13T15:15:49Z</time>
      </trkpt>
      <trkpt lat="42.183133" lon="0.960767">
        <ele>1498.0</ele>
        <time>2013-09-13T15:15:50Z</time>
      </trkpt>
      <trkpt lat="42.183217" lon="0.960750">
        <ele>1497.0</ele>
        <time>2013-09-13T15:15:51Z</time>
      </trkpt>
      <trkpt lat="42.183500" lon="0.960650">
        <ele>1491.0</ele>
        <time>2013-09-13T15:15:54Z</time>
      </trkpt>
      <trkpt lat="42.183600" lon="0.960600">
        <ele>1490.0</ele>
        <time>2013-09-13T15:15:55Z</time>
      </trkpt>
      <trkpt lat="42.183700" lon="0.960583">
        <ele>1490.0</ele>
        <time>2013-09-13T15:15:56Z</time>
      </trkpt>
      <trkpt lat="42.183783" lon="0.960550">
        <ele>1490.0</ele>
        <time>2013-09-13T15:15:57Z</time>
      </trkpt>
      <trkpt lat="42.183867" lon="0.960533">
        <ele>1490.0</ele>
        <time>2013-09-13T15:15:58Z</time>
      </trkpt>
      <trkpt lat="42.183950" lon="0.960517">
        <ele>1489.0</ele>
        <time>2013-09-13T15:15:59Z</time>
      </trkpt>
      <trkpt lat="42.184117" lon="0.960450">
        <ele>1485.0</ele>
        <time>2013-09-13T15:16:01Z</time>
      </trkpt>
      <trkpt lat="42.184233" lon="0.960417">
        <ele>1482.0</ele>
        <time>2013-09-13T15:16:02Z</time>
      </trkpt>
      <trkpt lat="42.184333" lon="0.960383">
        <ele>1479.0</ele>
        <time>2013-09-13T15:16:03Z</time>
      </trkpt>
      <trkpt lat="42.184433" lon="0.960367">
        <ele>1478.0</ele>
        <time>2013-09-13T15:16:04Z</time>
      </trkpt>
      <trkpt lat="42.184533" lon="0.960350">
        <ele>1477.0</ele>
        <time>2013-09-13T15:16:05Z</time>
      </trkpt>
      <trkpt lat="42.184617" lon="0.960333">
        <ele>1476.0</ele>
        <time>2013-09-13T15:16:06Z</time>
      </trkpt>
      <trkpt lat="42.184717" lon="0.960317">
        <ele>1474.0</ele>
        <time>2013-09-13T15:16:07Z</time>
      </trkpt>
      <trkpt lat="42.184817" lon="0.960300">
        <ele>1471.0</ele>
        <time>2013-09-13T15:16:08Z</time>
      </trkpt>
      <trkpt lat="42.184933" lon="0.960283">
        <ele>1468.0</ele>
        <time>2013-09-13T15:16:09Z</time>
      </trkpt>
      <trkpt lat="42.185033" lon="0.960250">
        <ele>1466.0</ele>
        <time>2013-09-13T15:16:10Z</time>
      </trkpt>
      <trkpt lat="42.185133" lon="0.960233">
        <ele>1465.0</ele>
        <time>2013-09-13T15:16:11Z</time>
      </trkpt>
      <trkpt lat="42.185217" lon="0.960217">
        <ele>1464.0</ele>
        <time>2013-09-13T15:16:12Z</time>
      </trkpt>
      <trkpt lat="42.185317" lon="0.960200">
        <ele>1462.0</ele>
        <time>2013-09-13T15:16:13Z</time>
      </trkpt>
      <trkpt lat="42.185417" lon="0.960183">
        <ele>1460.0</ele>
        <time>2013-09-13T15:16:14Z</time>
      </trkpt>
      <trkpt lat="42.185517" lon="0.960167">
        <ele>1457.0</ele>
        <time>2013-09-13T15:16:15Z</time>
      </trkpt>
      <trkpt lat="42.185617" lon="0.960150">
        <ele>1454.0</ele>
        <time>2013-09-13T15:16:16Z</time>
      </trkpt>
      <trkpt lat="42.185717" lon="0.960117">
        <ele>1452.0</ele>
        <time>2013-09-13T15:16:17Z</time>
      </trkpt>
      <trkpt lat="42.185817" lon="0.960100">
        <ele>1451.0</ele>
        <time>2013-09-13T15:16:18Z</time>
      </trkpt>
      <trkpt lat="42.185900" lon="0.960083">
        <ele>1449.0</ele>
        <time>2013-09-13T15:16:19Z</time>
      </trkpt>
      <trkpt lat="42.186000" lon="0.960050">
        <ele>1446.0</ele>
        <time>2013-09-13T15:16:20Z</time>
      </trkpt>
      <trkpt lat="42.186100" lon="0.960017">
        <ele>1443.0</ele>
        <time>2013-09-13T15:16:21Z</time>
      </trkpt>
      <trkpt lat="42.186217" lon="0.959983">
        <ele>1440.0</ele>
        <time>2013-09-13T15:16:22Z</time>
      </trkpt>
      <trkpt lat="42.186317" lon="0.959967">
        <ele>1439.0</ele>
        <time>2013-09-13T15:16:23Z</time>
      </trkpt>
      <trkpt lat="42.186400" lon="0.959950">
        <ele>1437.0</ele>
        <time>2013-09-13T15:16:24Z</time>
      </trkpt>
      <trkpt lat="42.186500" lon="0.959933">
        <ele>1435.0</ele>
        <time>2013-09-13T15:16:25Z</time>
      </trkpt>
      <trkpt lat="42.186600" lon="0.959917">
        <ele>1434.0</ele>
        <time>2013-09-13T15:16:26Z</time>
      </trkpt>
      <trkpt lat="42.186700" lon="0.959900">
        <ele>1432.0</ele>
        <time>2013-09-13T15:16:27Z</time>
      </trkpt>
      <trkpt lat="42.186800" lon="0.959867">
        <ele>1430.0</ele>
        <time>2013-09-13T15:16:28Z</time>
      </trkpt>
      <trkpt lat="42.186900" lon="0.959833">
        <ele>1428.0</ele>
        <time>2013-09-13T15:16:29Z</time>
      </trkpt>
      <trkpt lat="42.186983" lon="0.959800">
        <ele>1427.0</ele>
        <time>2013-09-13T15:16:30Z</time>
      </trkpt>
      <trkpt lat="42.187083" lon="0.959783">
        <ele>1425.0</ele>
        <time>2013-09-13T15:16:31Z</time>
      </trkpt>
      <trkpt lat="42.187167" lon="0.959750">
        <ele>1422.0</ele>
        <time>2013-09-13T15:16:32Z</time>
      </trkpt>
      <trkpt lat="42.187267" lon="0.959717">
        <ele>1420.0</ele>
        <time>2013-09-13T15:16:33Z</time>
      </trkpt>
      <trkpt lat="42.187367" lon="0.959683">
        <ele>1418.0</ele>
        <time>2013-09-13T15:16:34Z</time>
      </trkpt>
      <trkpt lat="42.187467" lon="0.959667">
        <ele>1416.0</ele>
        <time>2013-09-13T15:16:35Z</time>
      </trkpt>
      <trkpt lat="42.187567" lon="0.959650">
        <ele>1415.0</ele>
        <time>2013-09-13T15:16:36Z</time>
      </trkpt>
      <trkpt lat="42.187650" lon="0.959633">
        <ele>1413.0</ele>
        <time>2013-09-13T15:16:37Z</time>
      </trkpt>
      <trkpt lat="42.187750" lon="0.959617">
        <ele>1410.0</ele>
        <time>2013-09-13T15:16:38Z</time>
      </trkpt>
      <trkpt lat="42.187850" lon="0.959600">
        <ele>1407.0</ele>
        <time>2013-09-13T15:16:39Z</time>
      </trkpt>
      <trkpt lat="42.187967" lon="0.959567">
        <ele>1404.0</ele>
        <time>2013-09-13T15:16:40Z</time>
      </trkpt>
      <trkpt lat="42.188067" lon="0.959550">
        <ele>1402.0</ele>
        <time>2013-09-13T15:16:41Z</time>
      </trkpt>
      <trkpt lat="42.188167" lon="0.959517">
        <ele>1399.0</ele>
        <time>2013-09-13T15:16:42Z</time>
      </trkpt>
      <trkpt lat="42.188267" lon="0.959483">
        <ele>1397.0</ele>
        <time>2013-09-13T15:16:43Z</time>
      </trkpt>
      <trkpt lat="42.188350" lon="0.959467">
        <ele>1395.0</ele>
        <time>2013-09-13T15:16:44Z</time>
      </trkpt>
      <trkpt lat="42.188467" lon="0.959450">
        <ele>1392.0</ele>
        <time>2013-09-13T15:16:45Z</time>
      </trkpt>
      <trkpt lat="42.188567" lon="0.959433">
        <ele>1389.0</ele>
        <time>2013-09-13T15:16:46Z</time>
      </trkpt>
      <trkpt lat="42.188683" lon="0.959417">
        <ele>1386.0</ele>
        <time>2013-09-13T15:16:47Z</time>
      </trkpt>
      <trkpt lat="42.188800" lon="0.959400">
        <ele>1384.0</ele>
        <time>2013-09-13T15:16:48Z</time>
      </trkpt>
      <trkpt lat="42.188900" lon="0.959400">
        <ele>1383.0</ele>
        <time>2013-09-13T15:16:49Z</time>
      </trkpt>
      <trkpt lat="42.189000" lon="0.959400">
        <ele>1381.0</ele>
        <time>2013-09-13T15:16:50Z</time>
      </trkpt>
      <trkpt lat="42.189117" lon="0.959383">
        <ele>1378.0</ele>
        <time>2013-09-13T15:16:51Z</time>
      </trkpt>
      <trkpt lat="42.189233" lon="0.959367">
        <ele>1375.0</ele>
        <time>2013-09-13T15:16:52Z</time>
      </trkpt>
      <trkpt lat="42.189350" lon="0.959367">
        <ele>1373.0</ele>
        <time>2013-09-13T15:16:53Z</time>
      </trkpt>
      <trkpt lat="42.189717" lon="0.959367">
        <ele>1368.0</ele>
        <time>2013-09-13T15:16:56Z</time>
      </trkpt>
      <trkpt lat="42.189833" lon="0.959367">
        <ele>1366.0</ele>
        <time>2013-09-13T15:16:57Z</time>
      </trkpt>
      <trkpt lat="42.189950" lon="0.959383">
        <ele>1364.0</ele>
        <time>2013-09-13T15:16:58Z</time>
      </trkpt>
      <trkpt lat="42.190083" lon="0.959383">
        <ele>1362.0</ele>
        <time>2013-09-13T15:16:59Z</time>
      </trkpt>
      <trkpt lat="42.190200" lon="0.959383">
        <ele>1360.0</ele>
        <time>2013-09-13T15:17:00Z</time>
      </trkpt>
      <trkpt lat="42.190333" lon="0.959400">
        <ele>1358.0</ele>
        <time>2013-09-13T15:17:01Z</time>
      </trkpt>
      <trkpt lat="42.190450" lon="0.959400">
        <ele>1356.0</ele>
        <time>2013-09-13T15:17:02Z</time>
      </trkpt>
      <trkpt lat="42.190717" lon="0.959417">
        <ele>1352.0</ele>
        <time>2013-09-13T15:17:04Z</time>
      </trkpt>
      <trkpt lat="42.190850" lon="0.959417">
        <ele>1351.0</ele>
        <time>2013-09-13T15:17:05Z</time>
      </trkpt>
      <trkpt lat="42.190983" lon="0.959400">
        <ele>1350.0</ele>
        <time>2013-09-13T15:17:06Z</time>
      </trkpt>
      <trkpt lat="42.191100" lon="0.959383">
        <ele>1349.0</ele>
        <time>2013-09-13T15:17:07Z</time>
      </trkpt>
      <trkpt lat="42.191217" lon="0.959383">
        <ele>1348.0</ele>
        <time>2013-09-13T15:17:08Z</time>
      </trkpt>
      <trkpt lat="42.191350" lon="0.959400">
        <ele>1347.0</ele>
        <time>2013-09-13T15:17:09Z</time>
      </trkpt>
      <trkpt lat="42.191467" lon="0.959400">
        <ele>1345.0</ele>
        <time>2013-09-13T15:17:10Z</time>
      </trkpt>
      <trkpt lat="42.191600" lon="0.959400">
        <ele>1342.0</ele>
        <time>2013-09-13T15:17:11Z</time>
      </trkpt>
      <trkpt lat="42.191717" lon="0.959400">
        <ele>1341.0</ele>
        <time>2013-09-13T15:17:12Z</time>
      </trkpt>
      <trkpt lat="42.191833" lon="0.959400">
        <ele>1340.0</ele>
        <time>2013-09-13T15:17:13Z</time>
      </trkpt>
      <trkpt lat="42.191933" lon="0.959400">
        <ele>1338.0</ele>
        <time>2013-09-13T15:17:14Z</time>
      </trkpt>
      <trkpt lat="42.192050" lon="0.959400">
        <ele>1337.0</ele>
        <time>2013-09-13T15:17:15Z</time>
      </trkpt>
      <trkpt lat="42.192150" lon="0.959400">
        <ele>1335.0</ele>
        <time>2013-09-13T15:17:16Z</time>
      </trkpt>
      <trkpt lat="42.192250" lon="0.959400">
        <ele>1332.0</ele>
        <time>2013-09-13T15:17:17Z</time>
      </trkpt>
      <trkpt lat="42.192367" lon="0.959400">
        <ele>1330.0</ele>
        <time>2013-09-13T15:17:18Z</time>
      </trkpt>
      <trkpt lat="42.192483" lon="0.959400">
        <ele>1327.0</ele>
        <time>2013-09-13T15:17:19Z</time>
      </trkpt>
      <trkpt lat="42.192583" lon="0.959400">
        <ele>1325.0</ele>
        <time>2013-09-13T15:17:20Z</time>
      </trkpt>
      <trkpt lat="42.192700" lon="0.959400">
        <ele>1322.0</ele>
        <time>2013-09-13T15:17:21Z</time>
      </trkpt>
      <trkpt lat="42.192800" lon="0.959417">
        <ele>1320.0</ele>
        <time>2013-09-13T15:17:22Z</time>
      </trkpt>
      <trkpt lat="42.192900" lon="0.959433">
        <ele>1317.0</ele>
        <time>2013-09-13T15:17:23Z</time>
      </trkpt>
      <trkpt lat="42.193000" lon="0.959450">
        <ele>1315.0</ele>
        <time>2013-09-13T15:17:24Z</time>
      </trkpt>
      <trkpt lat="42.193100" lon="0.959467">
        <ele>1311.0</ele>
        <time>2013-09-13T15:17:25Z</time>
      </trkpt>
      <trkpt lat="42.193217" lon="0.959483">
        <ele>1308.0</ele>
        <time>2013-09-13T15:17:26Z</time>
      </trkpt>
      <trkpt lat="42.193333" lon="0.959517">
        <ele>1304.0</ele>
        <time>2013-09-13T15:17:27Z</time>
      </trkpt>
      <trkpt lat="42.193450" lon="0.959550">
        <ele>1301.0</ele>
        <time>2013-09-13T15:17:28Z</time>
      </trkpt>
      <trkpt lat="42.193550" lon="0.959600">
        <ele>1299.0</ele>
        <time>2013-09-13T15:17:29Z</time>
      </trkpt>
      <trkpt lat="42.193667" lon="0.959633">
        <ele>1296.0</ele>
        <time>2013-09-13T15:17:30Z</time>
      </trkpt>
      <trkpt lat="42.193767" lon="0.959683">
        <ele>1293.0</ele>
        <time>2013-09-13T15:17:31Z</time>
      </trkpt>
      <trkpt lat="42.193883" lon="0.959733">
        <ele>1291.0</ele>
        <time>2013-09-13T15:17:32Z</time>
      </trkpt>
      <trkpt lat="42.194000" lon="0.959767">
        <ele>1289.0</ele>
        <time>2013-09-13T15:17:33Z</time>
      </trkpt>
      <trkpt lat="42.194100" lon="0.959817">
        <ele>1287.0</ele>
        <time>2013-09-13T15:17:34Z</time>
      </trkpt>
      <trkpt lat="42.194200" lon="0.959850">
        <ele>1285.0</ele>
        <time>2013-09-13T15:17:35Z</time>
      </trkpt>
      <trkpt lat="42.194300" lon="0.959883">
        <ele>1283.0</ele>
        <time>2013-09-13T15:17:36Z</time>
      </trkpt>
      <trkpt lat="42.194400" lon="0.959900">
        <ele>1282.0</ele>
        <time>2013-09-13T15:17:37Z</time>
      </trkpt>
      <trkpt lat="42.194500" lon="0.959917">
        <ele>1280.0</ele>
        <time>2013-09-13T15:17:38Z</time>
      </trkpt>
      <trkpt lat="42.194583" lon="0.959933">
        <ele>1280.0</ele>
        <time>2013-09-13T15:17:39Z</time>
      </trkpt>
      <trkpt lat="42.194683" lon="0.959967">
        <ele>1278.0</ele>
        <time>2013-09-13T15:17:40Z</time>
      </trkpt>
      <trkpt lat="42.194783" lon="0.960000">
        <ele>1277.0</ele>
        <time>2013-09-13T15:17:41Z</time>
      </trkpt>
      <trkpt lat="42.194900" lon="0.960017">
        <ele>1276.0</ele>
        <time>2013-09-13T15:17:42Z</time>
      </trkpt>
      <trkpt lat="42.195000" lon="0.960050">
        <ele>1275.0</ele>
        <time>2013-09-13T15:17:43Z</time>
      </trkpt>
      <trkpt lat="42.195100" lon="0.960067">
        <ele>1275.0</ele>
        <time>2013-09-13T15:17:44Z</time>
      </trkpt>
      <trkpt lat="42.195200" lon="0.960083">
        <ele>1274.0</ele>
        <time>2013-09-13T15:17:45Z</time>
      </trkpt>
      <trkpt lat="42.195300" lon="0.960117">
        <ele>1273.0</ele>
        <time>2013-09-13T15:17:46Z</time>
      </trkpt>
      <trkpt lat="42.195400" lon="0.960150">
        <ele>1272.0</ele>
        <time>2013-09-13T15:17:47Z</time>
      </trkpt>
      <trkpt lat="42.195500" lon="0.960183">
        <ele>1272.0</ele>
        <time>2013-09-13T15:17:48Z</time>
      </trkpt>
      <trkpt lat="42.195600" lon="0.960217">
        <ele>1271.0</ele>
        <time>2013-09-13T15:17:49Z</time>
      </trkpt>
      <trkpt lat="42.195700" lon="0.960233">
        <ele>1270.0</ele>
        <time>2013-09-13T15:17:50Z</time>
      </trkpt>
      <trkpt lat="42.195800" lon="0.960267">
        <ele>1269.0</ele>
        <time>2013-09-13T15:17:51Z</time>
      </trkpt>
      <trkpt lat="42.195900" lon="0.960300">
        <ele>1268.0</ele>
        <time>2013-09-13T15:17:52Z</time>
      </trkpt>
      <trkpt lat="42.196017" lon="0.960350">
        <ele>1267.0</ele>
        <time>2013-09-13T15:17:53Z</time>
      </trkpt>
      <trkpt lat="42.196117" lon="0.960383">
        <ele>1267.0</ele>
        <time>2013-09-13T15:17:54Z</time>
      </trkpt>
      <trkpt lat="42.196217" lon="0.960433">
        <ele>1268.0</ele>
        <time>2013-09-13T15:17:55Z</time>
      </trkpt>
      <trkpt lat="42.196300" lon="0.960467">
        <ele>1269.0</ele>
        <time>2013-09-13T15:17:56Z</time>
      </trkpt>
      <trkpt lat="42.196400" lon="0.960517">
        <ele>1269.0</ele>
        <time>2013-09-13T15:17:57Z</time>
      </trkpt>
      <trkpt lat="42.196500" lon="0.960567">
        <ele>1269.0</ele>
        <time>2013-09-13T15:17:58Z</time>
      </trkpt>
      <trkpt lat="42.196600" lon="0.960617">
        <ele>1268.0</ele>
        <time>2013-09-13T15:17:59Z</time>
      </trkpt>
      <trkpt lat="42.196700" lon="0.960683">
        <ele>1267.0</ele>
        <time>2013-09-13T15:18:00Z</time>
      </trkpt>
      <trkpt lat="42.196800" lon="0.960717">
        <ele>1267.0</ele>
        <time>2013-09-13T15:18:01Z</time>
      </trkpt>
      <trkpt lat="42.196900" lon="0.960750">
        <ele>1267.0</ele>
        <time>2013-09-13T15:18:02Z</time>
      </trkpt>
      <trkpt lat="42.197017" lon="0.960783">
        <ele>1267.0</ele>
        <time>2013-09-13T15:18:03Z</time>
      </trkpt>
      <trkpt lat="42.197117" lon="0.960833">
        <ele>1266.0</ele>
        <time>2013-09-13T15:18:04Z</time>
      </trkpt>
      <trkpt lat="42.197217" lon="0.960883">
        <ele>1266.0</ele>
        <time>2013-09-13T15:18:05Z</time>
      </trkpt>
      <trkpt lat="42.197333" lon="0.960933">
        <ele>1266.0</ele>
        <time>2013-09-13T15:18:06Z</time>
      </trkpt>
      <trkpt lat="42.197433" lon="0.960967">
        <ele>1266.0</ele>
        <time>2013-09-13T15:18:07Z</time>
      </trkpt>
      <trkpt lat="42.197550" lon="0.961000">
        <ele>1266.0</ele>
        <time>2013-09-13T15:18:08Z</time>
      </trkpt>
      <trkpt lat="42.197650" lon="0.961017">
        <ele>1266.0</ele>
        <time>2013-09-13T15:18:09Z</time>
      </trkpt>
      <trkpt lat="42.197767" lon="0.961033">
        <ele>1266.0</ele>
        <time>2013-09-13T15:18:10Z</time>
      </trkpt>
      <trkpt lat="42.197867" lon="0.961067">
        <ele>1266.0</ele>
        <time>2013-09-13T15:18:11Z</time>
      </trkpt>
      <trkpt lat="42.197983" lon="0.961100">
        <ele>1266.0</ele>
        <time>2013-09-13T15:18:12Z</time>
      </trkpt>
      <trkpt lat="42.198083" lon="0.961117">
        <ele>1266.0</ele>
        <time>2013-09-13T15:18:13Z</time>
      </trkpt>
      <trkpt lat="42.198183" lon="0.961133">
        <ele>1265.0</ele>
        <time>2013-09-13T15:18:14Z</time>
      </trkpt>
      <trkpt lat="42.198283" lon="0.961150">
        <ele>1265.0</ele>
        <time>2013-09-13T15:18:15Z</time>
      </trkpt>
      <trkpt lat="42.198383" lon="0.961167">
        <ele>1264.0</ele>
        <time>2013-09-13T15:18:16Z</time>
      </trkpt>
      <trkpt lat="42.198500" lon="0.961200">
        <ele>1263.0</ele>
        <time>2013-09-13T15:18:17Z</time>
      </trkpt>
      <trkpt lat="42.198600" lon="0.961233">
        <ele>1263.0</ele>
        <time>2013-09-13T15:18:18Z</time>
      </trkpt>
      <trkpt lat="42.198700" lon="0.961267">
        <ele>1262.0</ele>
        <time>2013-09-13T15:18:19Z</time>
      </trkpt>
      <trkpt lat="42.198783" lon="0.961300">
        <ele>1260.0</ele>
        <time>2013-09-13T15:18:20Z</time>
      </trkpt>
      <trkpt lat="42.198883" lon="0.961350">
        <ele>1258.0</ele>
        <time>2013-09-13T15:18:21Z</time>
      </trkpt>
      <trkpt lat="42.199000" lon="0.961400">
        <ele>1255.0</ele>
        <time>2013-09-13T15:18:22Z</time>
      </trkpt>
      <trkpt lat="42.199117" lon="0.961450">
        <ele>1252.0</ele>
        <time>2013-09-13T15:18:23Z</time>
      </trkpt>
      <trkpt lat="42.199233" lon="0.961483">
        <ele>1248.0</ele>
        <time>2013-09-13T15:18:24Z</time>
      </trkpt>
      <trkpt lat="42.199333" lon="0.961533">
        <ele>1244.0</ele>
        <time>2013-09-13T15:18:25Z</time>
      </trkpt>
      <trkpt lat="42.199467" lon="0.961567">
        <ele>1240.0</ele>
        <time>2013-09-13T15:18:26Z</time>
      </trkpt>
      <trkpt lat="42.199583" lon="0.961617">
        <ele>1236.0</ele>
        <time>2013-09-13T15:18:27Z</time>
      </trkpt>
      <trkpt lat="42.199700" lon="0.961650">
        <ele>1233.0</ele>
        <time>2013-09-13T15:18:28Z</time>
      </trkpt>
      <trkpt lat="42.199917" lon="0.961750">
        <ele>1229.0</ele>
        <time>2013-09-13T15:18:30Z</time>
      </trkpt>
      <trkpt lat="42.200033" lon="0.961783">
        <ele>1227.0</ele>
        <time>2013-09-13T15:18:31Z</time>
      </trkpt>
      <trkpt lat="42.200150" lon="0.961833">
        <ele>1226.0</ele>
        <time>2013-09-13T15:18:32Z</time>
      </trkpt>
      <trkpt lat="42.200250" lon="0.961867">
        <ele>1226.0</ele>
        <time>2013-09-13T15:18:33Z</time>
      </trkpt>
      <trkpt lat="42.200367" lon="0.961900">
        <ele>1226.0</ele>
        <time>2013-09-13T15:18:34Z</time>
      </trkpt>
      <trkpt lat="42.200467" lon="0.961933">
        <ele>1224.0</ele>
        <time>2013-09-13T15:18:35Z</time>
      </trkpt>
      <trkpt lat="42.200583" lon="0.961983">
        <ele>1223.0</ele>
        <time>2013-09-13T15:18:36Z</time>
      </trkpt>
      <trkpt lat="42.200700" lon="0.962017">
        <ele>1221.0</ele>
        <time>2013-09-13T15:18:37Z</time>
      </trkpt>
      <trkpt lat="42.200800" lon="0.962067">
        <ele>1220.0</ele>
        <time>2013-09-13T15:18:38Z</time>
      </trkpt>
      <trkpt lat="42.200900" lon="0.962100">
        <ele>1219.0</ele>
        <time>2013-09-13T15:18:39Z</time>
      </trkpt>
      <trkpt lat="42.201000" lon="0.962133">
        <ele>1217.0</ele>
        <time>2013-09-13T15:18:40Z</time>
      </trkpt>
      <trkpt lat="42.201117" lon="0.962167">
        <ele>1216.0</ele>
        <time>2013-09-13T15:18:41Z</time>
      </trkpt>
      <trkpt lat="42.201217" lon="0.962200">
        <ele>1213.0</ele>
        <time>2013-09-13T15:18:42Z</time>
      </trkpt>
      <trkpt lat="42.201333" lon="0.962233">
        <ele>1211.0</ele>
        <time>2013-09-13T15:18:43Z</time>
      </trkpt>
      <trkpt lat="42.201433" lon="0.962283">
        <ele>1211.0</ele>
        <time>2013-09-13T15:18:44Z</time>
      </trkpt>
      <trkpt lat="42.201533" lon="0.962317">
        <ele>1211.0</ele>
        <time>2013-09-13T15:18:45Z</time>
      </trkpt>
      <trkpt lat="42.201617" lon="0.962367">
        <ele>1211.0</ele>
        <time>2013-09-13T15:18:46Z</time>
      </trkpt>
      <trkpt lat="42.201717" lon="0.962417">
        <ele>1211.0</ele>
        <time>2013-09-13T15:18:47Z</time>
      </trkpt>
      <trkpt lat="42.201817" lon="0.962467">
        <ele>1211.0</ele>
        <time>2013-09-13T15:18:48Z</time>
      </trkpt>
      <trkpt lat="42.201917" lon="0.962533">
        <ele>1210.0</ele>
        <time>2013-09-13T15:18:49Z</time>
      </trkpt>
      <trkpt lat="42.202033" lon="0.962600">
        <ele>1211.0</ele>
        <time>2013-09-13T15:18:50Z</time>
      </trkpt>
      <trkpt lat="42.202133" lon="0.962650">
        <ele>1211.0</ele>
        <time>2013-09-13T15:18:51Z</time>
      </trkpt>
      <trkpt lat="42.202233" lon="0.962700">
        <ele>1213.0</ele>
        <time>2013-09-13T15:18:52Z</time>
      </trkpt>
      <trkpt lat="42.202350" lon="0.962733">
        <ele>1214.0</ele>
        <time>2013-09-13T15:18:53Z</time>
      </trkpt>
      <trkpt lat="42.202467" lon="0.962783">
        <ele>1215.0</ele>
        <time>2013-09-13T15:18:54Z</time>
      </trkpt>
      <trkpt lat="42.202583" lon="0.962817">
        <ele>1216.0</ele>
        <time>2013-09-13T15:18:55Z</time>
      </trkpt>
      <trkpt lat="42.202683" lon="0.962867">
        <ele>1217.0</ele>
        <time>2013-09-13T15:18:56Z</time>
      </trkpt>
      <trkpt lat="42.202800" lon="0.962900">
        <ele>1218.0</ele>
        <time>2013-09-13T15:18:57Z</time>
      </trkpt>
      <trkpt lat="42.202900" lon="0.962917">
        <ele>1219.0</ele>
        <time>2013-09-13T15:18:58Z</time>
      </trkpt>
      <trkpt lat="42.203017" lon="0.962950">
        <ele>1220.0</ele>
        <time>2013-09-13T15:18:59Z</time>
      </trkpt>
      <trkpt lat="42.203117" lon="0.962967">
        <ele>1221.0</ele>
        <time>2013-09-13T15:19:00Z</time>
      </trkpt>
      <trkpt lat="42.203217" lon="0.962983">
        <ele>1221.0</ele>
        <time>2013-09-13T15:19:01Z</time>
      </trkpt>
      <trkpt lat="42.203317" lon="0.963017">
        <ele>1221.0</ele>
        <time>2013-09-13T15:19:02Z</time>
      </trkpt>
      <trkpt lat="42.203433" lon="0.963067">
        <ele>1221.0</ele>
        <time>2013-09-13T15:19:03Z</time>
      </trkpt>
      <trkpt lat="42.203550" lon="0.963117">
        <ele>1220.0</ele>
        <time>2013-09-13T15:19:04Z</time>
      </trkpt>
      <trkpt lat="42.203683" lon="0.963150">
        <ele>1219.0</ele>
        <time>2013-09-13T15:19:05Z</time>
      </trkpt>
      <trkpt lat="42.203783" lon="0.963200">
        <ele>1218.0</ele>
        <time>2013-09-13T15:19:06Z</time>
      </trkpt>
      <trkpt lat="42.203900" lon="0.963250">
        <ele>1219.0</ele>
        <time>2013-09-13T15:19:07Z</time>
      </trkpt>
      <trkpt lat="42.204000" lon="0.963300">
        <ele>1218.0</ele>
        <time>2013-09-13T15:19:08Z</time>
      </trkpt>
      <trkpt lat="42.204117" lon="0.963367">
        <ele>1217.0</ele>
        <time>2013-09-13T15:19:09Z</time>
      </trkpt>
      <trkpt lat="42.204233" lon="0.963417">
        <ele>1216.0</ele>
        <time>2013-09-13T15:19:10Z</time>
      </trkpt>
      <trkpt lat="42.204367" lon="0.963483">
        <ele>1214.0</ele>
        <time>2013-09-13T15:19:11Z</time>
      </trkpt>
      <trkpt lat="42.204483" lon="0.963550">
        <ele>1213.0</ele>
        <time>2013-09-13T15:19:12Z</time>
      </trkpt>
      <trkpt lat="42.204583" lon="0.963600">
        <ele>1212.0</ele>
        <time>2013-09-13T15:19:13Z</time>
      </trkpt>
      <trkpt lat="42.204700" lon="0.963667">
        <ele>1211.0</ele>
        <time>2013-09-13T15:19:14Z</time>
      </trkpt>
      <trkpt lat="42.204817" lon="0.963717">
        <ele>1211.0</ele>
        <time>2013-09-13T15:19:15Z</time>
      </trkpt>
      <trkpt lat="42.204933" lon="0.963767">
        <ele>1210.0</ele>
        <time>2013-09-13T15:19:16Z</time>
      </trkpt>
      <trkpt lat="42.205050" lon="0.963833">
        <ele>1210.0</ele>
        <time>2013-09-13T15:19:17Z</time>
      </trkpt>
      <trkpt lat="42.205183" lon="0.963867">
        <ele>1209.0</ele>
        <time>2013-09-13T15:19:18Z</time>
      </trkpt>
      <trkpt lat="42.205300" lon="0.963917">
        <ele>1209.0</ele>
        <time>2013-09-13T15:19:19Z</time>
      </trkpt>
      <trkpt lat="42.205400" lon="0.963950">
        <ele>1209.0</ele>
        <time>2013-09-13T15:19:20Z</time>
      </trkpt>
      <trkpt lat="42.205500" lon="0.963983">
        <ele>1210.0</ele>
        <time>2013-09-13T15:19:21Z</time>
      </trkpt>
      <trkpt lat="42.205600" lon="0.964033">
        <ele>1210.0</ele>
        <time>2013-09-13T15:19:22Z</time>
      </trkpt>
      <trkpt lat="42.205700" lon="0.964067">
        <ele>1209.0</ele>
        <time>2013-09-13T15:19:23Z</time>
      </trkpt>
      <trkpt lat="42.205817" lon="0.964117">
        <ele>1207.0</ele>
        <time>2013-09-13T15:19:24Z</time>
      </trkpt>
      <trkpt lat="42.205950" lon="0.964167">
        <ele>1207.0</ele>
        <time>2013-09-13T15:19:25Z</time>
      </trkpt>
      <trkpt lat="42.206050" lon="0.964217">
        <ele>1208.0</ele>
        <time>2013-09-13T15:19:26Z</time>
      </trkpt>
      <trkpt lat="42.206150" lon="0.964267">
        <ele>1210.0</ele>
        <time>2013-09-13T15:19:27Z</time>
      </trkpt>
      <trkpt lat="42.206233" lon="0.964317">
        <ele>1211.0</ele>
        <time>2013-09-13T15:19:28Z</time>
      </trkpt>
      <trkpt lat="42.206333" lon="0.964350">
        <ele>1211.0</ele>
        <time>2013-09-13T15:19:29Z</time>
      </trkpt>
      <trkpt lat="42.206450" lon="0.964400">
        <ele>1211.0</ele>
        <time>2013-09-13T15:19:30Z</time>
      </trkpt>
      <trkpt lat="42.206567" lon="0.964467">
        <ele>1210.0</ele>
        <time>2013-09-13T15:19:31Z</time>
      </trkpt>
      <trkpt lat="42.206667" lon="0.964517">
        <ele>1211.0</ele>
        <time>2013-09-13T15:19:32Z</time>
      </trkpt>
      <trkpt lat="42.206767" lon="0.964550">
        <ele>1212.0</ele>
        <time>2013-09-13T15:19:33Z</time>
      </trkpt>
      <trkpt lat="42.206850" lon="0.964583">
        <ele>1212.0</ele>
        <time>2013-09-13T15:19:34Z</time>
      </trkpt>
      <trkpt lat="42.206950" lon="0.964617">
        <ele>1212.0</ele>
        <time>2013-09-13T15:19:35Z</time>
      </trkpt>
      <trkpt lat="42.207067" lon="0.964650">
        <ele>1210.0</ele>
        <time>2013-09-13T15:19:36Z</time>
      </trkpt>
      <trkpt lat="42.207200" lon="0.964700">
        <ele>1208.0</ele>
        <time>2013-09-13T15:19:37Z</time>
      </trkpt>
      <trkpt lat="42.207317" lon="0.964750">
        <ele>1208.0</ele>
        <time>2013-09-13T15:19:38Z</time>
      </trkpt>
      <trkpt lat="42.207433" lon="0.964800">
        <ele>1208.0</ele>
        <time>2013-09-13T15:19:39Z</time>
      </trkpt>
      <trkpt lat="42.207533" lon="0.964833">
        <ele>1208.0</ele>
        <time>2013-09-13T15:19:40Z</time>
      </trkpt>
      <trkpt lat="42.207650" lon="0.964850">
        <ele>1209.0</ele>
        <time>2013-09-13T15:19:41Z</time>
      </trkpt>
      <trkpt lat="42.207750" lon="0.964883">
        <ele>1209.0</ele>
        <time>2013-09-13T15:19:42Z</time>
      </trkpt>
      <trkpt lat="42.207850" lon="0.964933">
        <ele>1209.0</ele>
        <time>2013-09-13T15:19:43Z</time>
      </trkpt>
      <trkpt lat="42.207967" lon="0.964983">
        <ele>1208.0</ele>
        <time>2013-09-13T15:19:44Z</time>
      </trkpt>
      <trkpt lat="42.208083" lon="0.965017">
        <ele>1207.0</ele>
        <time>2013-09-13T15:19:45Z</time>
      </trkpt>
      <trkpt lat="42.208200" lon="0.965067">
        <ele>1207.0</ele>
        <time>2013-09-13T15:19:46Z</time>
      </trkpt>
      <trkpt lat="42.208300" lon="0.965100">
        <ele>1208.0</ele>
        <time>2013-09-13T15:19:47Z</time>
      </trkpt>
      <trkpt lat="42.208400" lon="0.965150">
        <ele>1209.0</ele>
        <time>2013-09-13T15:19:48Z</time>
      </trkpt>
      <trkpt lat="42.208500" lon="0.965183">
        <ele>1209.0</ele>
        <time>2013-09-13T15:19:49Z</time>
      </trkpt>
      <trkpt lat="42.208617" lon="0.965233">
        <ele>1209.0</ele>
        <time>2013-09-13T15:19:50Z</time>
      </trkpt>
      <trkpt lat="42.208733" lon="0.965283">
        <ele>1208.0</ele>
        <time>2013-09-13T15:19:51Z</time>
      </trkpt>
      <trkpt lat="42.208833" lon="0.965333">
        <ele>1209.0</ele>
        <time>2013-09-13T15:19:52Z</time>
      </trkpt>
      <trkpt lat="42.208917" lon="0.965383">
        <ele>1209.0</ele>
        <time>2013-09-13T15:19:53Z</time>
      </trkpt>
      <trkpt lat="42.209017" lon="0.965417">
        <ele>1209.0</ele>
        <time>2013-09-13T15:19:54Z</time>
      </trkpt>
      <trkpt lat="42.209133" lon="0.965450">
        <ele>1208.0</ele>
        <time>2013-09-13T15:19:55Z</time>
      </trkpt>
      <trkpt lat="42.209250" lon="0.965483">
        <ele>1207.0</ele>
        <time>2013-09-13T15:19:56Z</time>
      </trkpt>
      <trkpt lat="42.209367" lon="0.965517">
        <ele>1206.0</ele>
        <time>2013-09-13T15:19:57Z</time>
      </trkpt>
      <trkpt lat="42.209483" lon="0.965550">
        <ele>1207.0</ele>
        <time>2013-09-13T15:19:58Z</time>
      </trkpt>
      <trkpt lat="42.209583" lon="0.965583">
        <ele>1207.0</ele>
        <time>2013-09-13T15:19:59Z</time>
      </trkpt>
      <trkpt lat="42.209700" lon="0.965600">
        <ele>1207.0</ele>
        <time>2013-09-13T15:20:00Z</time>
      </trkpt>
      <trkpt lat="42.209817" lon="0.965633">
        <ele>1207.0</ele>
        <time>2013-09-13T15:20:01Z</time>
      </trkpt>
      <trkpt lat="42.209950" lon="0.965650">
        <ele>1207.0</ele>
        <time>2013-09-13T15:20:02Z</time>
      </trkpt>
      <trkpt lat="42.210067" lon="0.965683">
        <ele>1209.0</ele>
        <time>2013-09-13T15:20:03Z</time>
      </trkpt>
      <trkpt lat="42.210183" lon="0.965700">
        <ele>1210.0</ele>
        <time>2013-09-13T15:20:04Z</time>
      </trkpt>
      <trkpt lat="42.210300" lon="0.965733">
        <ele>1211.0</ele>
        <time>2013-09-13T15:20:05Z</time>
      </trkpt>
      <trkpt lat="42.210417" lon="0.965767">
        <ele>1211.0</ele>
        <time>2013-09-13T15:20:06Z</time>
      </trkpt>
      <trkpt lat="42.210533" lon="0.965800">
        <ele>1212.0</ele>
        <time>2013-09-13T15:20:07Z</time>
      </trkpt>
      <trkpt lat="42.210633" lon="0.965850">
        <ele>1213.0</ele>
        <time>2013-09-13T15:20:08Z</time>
      </trkpt>
      <trkpt lat="42.210750" lon="0.965883">
        <ele>1214.0</ele>
        <time>2013-09-13T15:20:09Z</time>
      </trkpt>
      <trkpt lat="42.210850" lon="0.965917">
        <ele>1214.0</ele>
        <time>2013-09-13T15:20:10Z</time>
      </trkpt>
      <trkpt lat="42.210950" lon="0.965950">
        <ele>1213.0</ele>
        <time>2013-09-13T15:20:11Z</time>
      </trkpt>
      <trkpt lat="42.211050" lon="0.966000">
        <ele>1211.0</ele>
        <time>2013-09-13T15:20:12Z</time>
      </trkpt>
      <trkpt lat="42.211167" lon="0.966050">
        <ele>1209.0</ele>
        <time>2013-09-13T15:20:13Z</time>
      </trkpt>
      <trkpt lat="42.211283" lon="0.966083">
        <ele>1207.0</ele>
        <time>2013-09-13T15:20:14Z</time>
      </trkpt>
      <trkpt lat="42.211400" lon="0.966100">
        <ele>1206.0</ele>
        <time>2013-09-13T15:20:15Z</time>
      </trkpt>
      <trkpt lat="42.211500" lon="0.966133">
        <ele>1206.0</ele>
        <time>2013-09-13T15:20:16Z</time>
      </trkpt>
      <trkpt lat="42.211617" lon="0.966167">
        <ele>1205.0</ele>
        <time>2013-09-13T15:20:17Z</time>
      </trkpt>
      <trkpt lat="42.211733" lon="0.966200">
        <ele>1204.0</ele>
        <time>2013-09-13T15:20:18Z</time>
      </trkpt>
      <trkpt lat="42.211850" lon="0.966233">
        <ele>1204.0</ele>
        <time>2013-09-13T15:20:19Z</time>
      </trkpt>
      <trkpt lat="42.211967" lon="0.966283">
        <ele>1202.0</ele>
        <time>2013-09-13T15:20:20Z</time>
      </trkpt>
      <trkpt lat="42.212083" lon="0.966317">
        <ele>1199.0</ele>
        <time>2013-09-13T15:20:21Z</time>
      </trkpt>
      <trkpt lat="42.212217" lon="0.966350">
        <ele>1198.0</ele>
        <time>2013-09-13T15:20:22Z</time>
      </trkpt>
      <trkpt lat="42.212333" lon="0.966400">
        <ele>1196.0</ele>
        <time>2013-09-13T15:20:23Z</time>
      </trkpt>
      <trkpt lat="42.212450" lon="0.966433">
        <ele>1196.0</ele>
        <time>2013-09-13T15:20:24Z</time>
      </trkpt>
      <trkpt lat="42.212550" lon="0.966483">
        <ele>1195.0</ele>
        <time>2013-09-13T15:20:25Z</time>
      </trkpt>
      <trkpt lat="42.212650" lon="0.966533">
        <ele>1193.0</ele>
        <time>2013-09-13T15:20:26Z</time>
      </trkpt>
      <trkpt lat="42.212783" lon="0.966600">
        <ele>1191.0</ele>
        <time>2013-09-13T15:20:27Z</time>
      </trkpt>
      <trkpt lat="42.212917" lon="0.966650">
        <ele>1188.0</ele>
        <time>2013-09-13T15:20:28Z</time>
      </trkpt>
      <trkpt lat="42.213033" lon="0.966700">
        <ele>1186.0</ele>
        <time>2013-09-13T15:20:29Z</time>
      </trkpt>
      <trkpt lat="42.213150" lon="0.966733">
        <ele>1185.0</ele>
        <time>2013-09-13T15:20:30Z</time>
      </trkpt>
      <trkpt lat="42.213267" lon="0.966750">
        <ele>1184.0</ele>
        <time>2013-09-13T15:20:31Z</time>
      </trkpt>
      <trkpt lat="42.213383" lon="0.966767">
        <ele>1182.0</ele>
        <time>2013-09-13T15:20:32Z</time>
      </trkpt>
      <trkpt lat="42.213500" lon="0.966800">
        <ele>1180.0</ele>
        <time>2013-09-13T15:20:33Z</time>
      </trkpt>
      <trkpt lat="42.213617" lon="0.966850">
        <ele>1177.0</ele>
        <time>2013-09-13T15:20:34Z</time>
      </trkpt>
      <trkpt lat="42.213733" lon="0.966900">
        <ele>1175.0</ele>
        <time>2013-09-13T15:20:35Z</time>
      </trkpt>
      <trkpt lat="42.213850" lon="0.966950">
        <ele>1174.0</ele>
        <time>2013-09-13T15:20:36Z</time>
      </trkpt>
      <trkpt lat="42.213967" lon="0.967017">
        <ele>1171.0</ele>
        <time>2013-09-13T15:20:37Z</time>
      </trkpt>
      <trkpt lat="42.214067" lon="0.967050">
        <ele>1169.0</ele>
        <time>2013-09-13T15:20:38Z</time>
      </trkpt>
      <trkpt lat="42.214200" lon="0.967117">
        <ele>1165.0</ele>
        <time>2013-09-13T15:20:39Z</time>
      </trkpt>
      <trkpt lat="42.214317" lon="0.967167">
        <ele>1162.0</ele>
        <time>2013-09-13T15:20:40Z</time>
      </trkpt>
      <trkpt lat="42.214433" lon="0.967217">
        <ele>1159.0</ele>
        <time>2013-09-13T15:20:41Z</time>
      </trkpt>
      <trkpt lat="42.214567" lon="0.967267">
        <ele>1157.0</ele>
        <time>2013-09-13T15:20:42Z</time>
      </trkpt>
      <trkpt lat="42.214683" lon="0.967317">
        <ele>1154.0</ele>
        <time>2013-09-13T15:20:43Z</time>
      </trkpt>
      <trkpt lat="42.214800" lon="0.967350">
        <ele>1152.0</ele>
        <time>2013-09-13T15:20:44Z</time>
      </trkpt>
      <trkpt lat="42.214917" lon="0.967383">
        <ele>1148.0</ele>
        <time>2013-09-13T15:20:45Z</time>
      </trkpt>
      <trkpt lat="42.215050" lon="0.967417">
        <ele>1145.0</ele>
        <time>2013-09-13T15:20:46Z</time>
      </trkpt>
      <trkpt lat="42.215183" lon="0.967467">
        <ele>1141.0</ele>
        <time>2013-09-13T15:20:47Z</time>
      </trkpt>
      <trkpt lat="42.215317" lon="0.967500">
        <ele>1139.0</ele>
        <time>2013-09-13T15:20:48Z</time>
      </trkpt>
      <trkpt lat="42.215433" lon="0.967550">
        <ele>1136.0</ele>
        <time>2013-09-13T15:20:49Z</time>
      </trkpt>
      <trkpt lat="42.215567" lon="0.967583">
        <ele>1134.0</ele>
        <time>2013-09-13T15:20:50Z</time>
      </trkpt>
      <trkpt lat="42.215700" lon="0.967633">
        <ele>1131.0</ele>
        <time>2013-09-13T15:20:51Z</time>
      </trkpt>
      <trkpt lat="42.215833" lon="0.967667">
        <ele>1127.0</ele>
        <time>2013-09-13T15:20:52Z</time>
      </trkpt>
      <trkpt lat="42.215967" lon="0.967717">
        <ele>1124.0</ele>
        <time>2013-09-13T15:20:53Z</time>
      </trkpt>
      <trkpt lat="42.216100" lon="0.967767">
        <ele>1121.0</ele>
        <time>2013-09-13T15:20:54Z</time>
      </trkpt>
      <trkpt lat="42.216217" lon="0.967817">
        <ele>1119.0</ele>
        <time>2013-09-13T15:20:55Z</time>
      </trkpt>
      <trkpt lat="42.216333" lon="0.967883">
        <ele>1116.0</ele>
        <time>2013-09-13T15:20:56Z</time>
      </trkpt>
      <trkpt lat="42.216467" lon="0.967950">
        <ele>1113.0</ele>
        <time>2013-09-13T15:20:57Z</time>
      </trkpt>
      <trkpt lat="42.216600" lon="0.968017">
        <ele>1110.0</ele>
        <time>2013-09-13T15:20:58Z</time>
      </trkpt>
      <trkpt lat="42.216733" lon="0.968100">
        <ele>1106.0</ele>
        <time>2013-09-13T15:20:59Z</time>
      </trkpt>
      <trkpt lat="42.216850" lon="0.968183">
        <ele>1103.0</ele>
        <time>2013-09-13T15:21:00Z</time>
      </trkpt>
      <trkpt lat="42.216983" lon="0.968250">
        <ele>1101.0</ele>
        <time>2013-09-13T15:21:01Z</time>
      </trkpt>
      <trkpt lat="42.217100" lon="0.968333">
        <ele>1099.0</ele>
        <time>2013-09-13T15:21:02Z</time>
      </trkpt>
      <trkpt lat="42.217217" lon="0.968400">
        <ele>1098.0</ele>
        <time>2013-09-13T15:21:03Z</time>
      </trkpt>
      <trkpt lat="42.217333" lon="0.968450">
        <ele>1097.0</ele>
        <time>2013-09-13T15:21:04Z</time>
      </trkpt>
      <trkpt lat="42.217450" lon="0.968533">
        <ele>1095.0</ele>
        <time>2013-09-13T15:21:05Z</time>
      </trkpt>
      <trkpt lat="42.217583" lon="0.968600">
        <ele>1093.0</ele>
        <time>2013-09-13T15:21:06Z</time>
      </trkpt>
      <trkpt lat="42.217700" lon="0.968683">
        <ele>1091.0</ele>
        <time>2013-09-13T15:21:07Z</time>
      </trkpt>
      <trkpt lat="42.217833" lon="0.968767">
        <ele>1089.0</ele>
        <time>2013-09-13T15:21:08Z</time>
      </trkpt>
      <trkpt lat="42.217950" lon="0.968850">
        <ele>1087.0</ele>
        <time>2013-09-13T15:21:09Z</time>
      </trkpt>
      <trkpt lat="42.218067" lon="0.968933">
        <ele>1086.0</ele>
        <time>2013-09-13T15:21:10Z</time>
      </trkpt>
      <trkpt lat="42.218183" lon="0.969017">
        <ele>1084.0</ele>
        <time>2013-09-13T15:21:11Z</time>
      </trkpt>
      <trkpt lat="42.218300" lon="0.969100">
        <ele>1082.0</ele>
        <time>2013-09-13T15:21:12Z</time>
      </trkpt>
      <trkpt lat="42.218417" lon="0.969200">
        <ele>1079.0</ele>
        <time>2013-09-13T15:21:13Z</time>
      </trkpt>
      <trkpt lat="42.218533" lon="0.969300">
        <ele>1077.0</ele>
        <time>2013-09-13T15:21:14Z</time>
      </trkpt>
      <trkpt lat="42.218633" lon="0.969417">
        <ele>1075.0</ele>
        <time>2013-09-13T15:21:15Z</time>
      </trkpt>
      <trkpt lat="42.218750" lon="0.969517">
        <ele>1073.0</ele>
        <time>2013-09-13T15:21:16Z</time>
      </trkpt>
      <trkpt lat="42.218850" lon="0.969617">
        <ele>1071.0</ele>
        <time>2013-09-13T15:21:17Z</time>
      </trkpt>
      <trkpt lat="42.218950" lon="0.969733">
        <ele>1069.0</ele>
        <time>2013-09-13T15:21:18Z</time>
      </trkpt>
      <trkpt lat="42.219067" lon="0.969850">
        <ele>1066.0</ele>
        <time>2013-09-13T15:21:19Z</time>
      </trkpt>
      <trkpt lat="42.219150" lon="0.969967">
        <ele>1063.0</ele>
        <time>2013-09-13T15:21:20Z</time>
      </trkpt>
      <trkpt lat="42.219250" lon="0.970083">
        <ele>1060.0</ele>
        <time>2013-09-13T15:21:21Z</time>
      </trkpt>
      <trkpt lat="42.219350" lon="0.970217">
        <ele>1058.0</ele>
        <time>2013-09-13T15:21:22Z</time>
      </trkpt>
      <trkpt lat="42.219450" lon="0.970333">
        <ele>1055.0</ele>
        <time>2013-09-13T15:21:23Z</time>
      </trkpt>
      <trkpt lat="42.219550" lon="0.970467">
        <ele>1051.0</ele>
        <time>2013-09-13T15:21:24Z</time>
      </trkpt>
      <trkpt lat="42.219650" lon="0.970600">
        <ele>1048.0</ele>
        <time>2013-09-13T15:21:25Z</time>
      </trkpt>
      <trkpt lat="42.219750" lon="0.970717">
        <ele>1045.0</ele>
        <time>2013-09-13T15:21:26Z</time>
      </trkpt>
      <trkpt lat="42.219850" lon="0.970833">
        <ele>1043.0</ele>
        <time>2013-09-13T15:21:27Z</time>
      </trkpt>
      <trkpt lat="42.219933" lon="0.970950">
        <ele>1040.0</ele>
        <time>2013-09-13T15:21:28Z</time>
      </trkpt>
      <trkpt lat="42.220033" lon="0.971050">
        <ele>1038.0</ele>
        <time>2013-09-13T15:21:29Z</time>
      </trkpt>
      <trkpt lat="42.220117" lon="0.971150">
        <ele>1036.0</ele>
        <time>2013-09-13T15:21:30Z</time>
      </trkpt>
      <trkpt lat="42.220200" lon="0.971250">
        <ele>1034.0</ele>
        <time>2013-09-13T15:21:31Z</time>
      </trkpt>
      <trkpt lat="42.220283" lon="0.971367">
        <ele>1031.0</ele>
        <time>2013-09-13T15:21:32Z</time>
      </trkpt>
      <trkpt lat="42.220367" lon="0.971483">
        <ele>1029.0</ele>
        <time>2013-09-13T15:21:33Z</time>
      </trkpt>
      <trkpt lat="42.220450" lon="0.971600">
        <ele>1026.0</ele>
        <time>2013-09-13T15:21:34Z</time>
      </trkpt>
      <trkpt lat="42.220533" lon="0.971717">
        <ele>1024.0</ele>
        <time>2013-09-13T15:21:35Z</time>
      </trkpt>
      <trkpt lat="42.220617" lon="0.971817">
        <ele>1022.0</ele>
        <time>2013-09-13T15:21:36Z</time>
      </trkpt>
      <trkpt lat="42.220717" lon="0.971917">
        <ele>1019.0</ele>
        <time>2013-09-13T15:21:37Z</time>
      </trkpt>
      <trkpt lat="42.220833" lon="0.971983">
        <ele>1017.0</ele>
        <time>2013-09-13T15:21:38Z</time>
      </trkpt>
      <trkpt lat="42.220933" lon="0.972033">
        <ele>1015.0</ele>
        <time>2013-09-13T15:21:39Z</time>
      </trkpt>
      <trkpt lat="42.221050" lon="0.972083">
        <ele>1013.0</ele>
        <time>2013-09-13T15:21:40Z</time>
      </trkpt>
      <trkpt lat="42.221150" lon="0.972133">
        <ele>1011.0</ele>
        <time>2013-09-13T15:21:41Z</time>
      </trkpt>
      <trkpt lat="42.221267" lon="0.972183">
        <ele>1009.0</ele>
        <time>2013-09-13T15:21:42Z</time>
      </trkpt>
      <trkpt lat="42.221383" lon="0.972233">
        <ele>1007.0</ele>
        <time>2013-09-13T15:21:43Z</time>
      </trkpt>
      <trkpt lat="42.221483" lon="0.972283">
        <ele>1005.0</ele>
        <time>2013-09-13T15:21:44Z</time>
      </trkpt>
      <trkpt lat="42.221600" lon="0.972317">
        <ele>1003.0</ele>
        <time>2013-09-13T15:21:45Z</time>
      </trkpt>
      <trkpt lat="42.221717" lon="0.972333">
        <ele>1001.0</ele>
        <time>2013-09-13T15:21:46Z</time>
      </trkpt>
      <trkpt lat="42.221817" lon="0.972350">
        <ele>1000.0</ele>
        <time>2013-09-13T15:21:47Z</time>
      </trkpt>
      <trkpt lat="42.221933" lon="0.972383">
        <ele>998.0</ele>
        <time>2013-09-13T15:21:48Z</time>
      </trkpt>
      <trkpt lat="42.222050" lon="0.972417">
        <ele>996.0</ele>
        <time>2013-09-13T15:21:49Z</time>
      </trkpt>
      <trkpt lat="42.222167" lon="0.972433">
        <ele>994.0</ele>
        <time>2013-09-13T15:21:50Z</time>
      </trkpt>
      <trkpt lat="42.222283" lon="0.972467">
        <ele>992.0</ele>
        <time>2013-09-13T15:21:51Z</time>
      </trkpt>
      <trkpt lat="42.222400" lon="0.972483">
        <ele>991.0</ele>
        <time>2013-09-13T15:21:52Z</time>
      </trkpt>
      <trkpt lat="42.222533" lon="0.972483">
        <ele>989.0</ele>
        <time>2013-09-13T15:21:53Z</time>
      </trkpt>
      <trkpt lat="42.222650" lon="0.972500">
        <ele>987.0</ele>
        <time>2013-09-13T15:21:54Z</time>
      </trkpt>
      <trkpt lat="42.222783" lon="0.972533">
        <ele>985.0</ele>
        <time>2013-09-13T15:21:55Z</time>
      </trkpt>
      <trkpt lat="42.222900" lon="0.972567">
        <ele>982.0</ele>
        <time>2013-09-13T15:21:56Z</time>
      </trkpt>
      <trkpt lat="42.223033" lon="0.972617">
        <ele>980.0</ele>
        <time>2013-09-13T15:21:57Z</time>
      </trkpt>
      <trkpt lat="42.223150" lon="0.972667">
        <ele>978.0</ele>
        <time>2013-09-13T15:21:58Z</time>
      </trkpt>
      <trkpt lat="42.223267" lon="0.972717">
        <ele>976.0</ele>
        <time>2013-09-13T15:21:59Z</time>
      </trkpt>
      <trkpt lat="42.223367" lon="0.972800">
        <ele>974.0</ele>
        <time>2013-09-13T15:22:00Z</time>
      </trkpt>
      <trkpt lat="42.223467" lon="0.972900">
        <ele>972.0</ele>
        <time>2013-09-13T15:22:01Z</time>
      </trkpt>
      <trkpt lat="42.223533" lon="0.973050">
        <ele>969.0</ele>
        <time>2013-09-13T15:22:02Z</time>
      </trkpt>
      <trkpt lat="42.223583" lon="0.973217">
        <ele>966.0</ele>
        <time>2013-09-13T15:22:03Z</time>
      </trkpt>
      <trkpt lat="42.223617" lon="0.973367">
        <ele>964.0</ele>
        <time>2013-09-13T15:22:04Z</time>
      </trkpt>
      <trkpt lat="42.223600" lon="0.973500">
        <ele>962.0</ele>
        <time>2013-09-13T15:22:05Z</time>
      </trkpt>
      <trkpt lat="42.223583" lon="0.973600">
        <ele>960.0</ele>
        <time>2013-09-13T15:22:06Z</time>
      </trkpt>
      <trkpt lat="42.223550" lon="0.973683">
        <ele>958.0</ele>
        <time>2013-09-13T15:22:07Z</time>
      </trkpt>
      <trkpt lat="42.223500" lon="0.973767">
        <ele>955.0</ele>
        <time>2013-09-13T15:22:08Z</time>
      </trkpt>
      <trkpt lat="42.223450" lon="0.973833">
        <ele>953.0</ele>
        <time>2013-09-13T15:22:09Z</time>
      </trkpt>
      <trkpt lat="42.223383" lon="0.973900">
        <ele>950.0</ele>
        <time>2013-09-13T15:22:10Z</time>
      </trkpt>
      <trkpt lat="42.223333" lon="0.973967">
        <ele>948.0</ele>
        <time>2013-09-13T15:22:11Z</time>
      </trkpt>
      <trkpt lat="42.223283" lon="0.974033">
        <ele>947.0</ele>
        <time>2013-09-13T15:22:12Z</time>
      </trkpt>
      <trkpt lat="42.223233" lon="0.974083">
        <ele>946.0</ele>
        <time>2013-09-13T15:22:13Z</time>
      </trkpt>
      <trkpt lat="42.223183" lon="0.974133">
        <ele>944.0</ele>
        <time>2013-09-13T15:22:14Z</time>
      </trkpt>
      <trkpt lat="42.223117" lon="0.974167">
        <ele>942.0</ele>
        <time>2013-09-13T15:22:15Z</time>
      </trkpt>
      <trkpt lat="42.223050" lon="0.974183">
        <ele>941.0</ele>
        <time>2013-09-13T15:22:16Z</time>
      </trkpt>
      <trkpt lat="42.222983" lon="0.974183">
        <ele>940.0</ele>
        <time>2013-09-13T15:22:17Z</time>
      </trkpt>
      <trkpt lat="42.222933" lon="0.974167">
        <ele>939.0</ele>
        <time>2013-09-13T15:22:18Z</time>
      </trkpt>
      <trkpt lat="42.222900" lon="0.974167">
        <ele>939.0</ele>
        <time>2013-09-13T15:22:19Z</time>
      </trkpt>
      <trkpt lat="42.222850" lon="0.974133">
        <ele>938.0</ele>
        <time>2013-09-13T15:22:20Z</time>
      </trkpt>
      <trkpt lat="42.222800" lon="0.974117">
        <ele>937.0</ele>
        <time>2013-09-13T15:22:21Z</time>
      </trkpt>
      <trkpt lat="42.222767" lon="0.974100">
        <ele>935.0</ele>
        <time>2013-09-13T15:22:22Z</time>
      </trkpt>
      <trkpt lat="42.222717" lon="0.974100">
        <ele>934.0</ele>
        <time>2013-09-13T15:22:23Z</time>
      </trkpt>
      <trkpt lat="42.222650" lon="0.974083">
        <ele>932.0</ele>
        <time>2013-09-13T15:22:24Z</time>
      </trkpt>
      <trkpt lat="42.222600" lon="0.974083">
        <ele>931.0</ele>
        <time>2013-09-13T15:22:25Z</time>
      </trkpt>
      <trkpt lat="42.222567" lon="0.974100">
        <ele>929.0</ele>
        <time>2013-09-13T15:22:26Z</time>
      </trkpt>
      <trkpt lat="42.222517" lon="0.974100">
        <ele>928.0</ele>
        <time>2013-09-13T15:22:27Z</time>
      </trkpt>
      <trkpt lat="42.222467" lon="0.974133">
        <ele>926.0</ele>
        <time>2013-09-13T15:22:28Z</time>
      </trkpt>
      <trkpt lat="42.222417" lon="0.974150">
        <ele>923.0</ele>
        <time>2013-09-13T15:22:29Z</time>
      </trkpt>
      <trkpt lat="42.222367" lon="0.974183">
        <ele>921.0</ele>
        <time>2013-09-13T15:22:30Z</time>
      </trkpt>
      <trkpt lat="42.222300" lon="0.974217">
        <ele>918.0</ele>
        <time>2013-09-13T15:22:31Z</time>
      </trkpt>
      <trkpt lat="42.222250" lon="0.974233">
        <ele>916.0</ele>
        <time>2013-09-13T15:22:32Z</time>
      </trkpt>
      <trkpt lat="42.222200" lon="0.974267">
        <ele>914.0</ele>
        <time>2013-09-13T15:22:33Z</time>
      </trkpt>
      <trkpt lat="42.222150" lon="0.974283">
        <ele>912.0</ele>
        <time>2013-09-13T15:22:34Z</time>
      </trkpt>
      <trkpt lat="42.222100" lon="0.974300">
        <ele>910.0</ele>
        <time>2013-09-13T15:22:35Z</time>
      </trkpt>
      <trkpt lat="42.222050" lon="0.974317">
        <ele>907.0</ele>
        <time>2013-09-13T15:22:36Z</time>
      </trkpt>
      <trkpt lat="42.221983" lon="0.974350">
        <ele>904.0</ele>
        <time>2013-09-13T15:22:37Z</time>
      </trkpt>
      <trkpt lat="42.221933" lon="0.974417">
        <ele>902.0</ele>
        <time>2013-09-13T15:22:38Z</time>
      </trkpt>
      <trkpt lat="42.221900" lon="0.974517">
        <ele>899.0</ele>
        <time>2013-09-13T15:22:39Z</time>
      </trkpt>
      <trkpt lat="42.221883" lon="0.974650">
        <ele>896.0</ele>
        <time>2013-09-13T15:22:40Z</time>
      </trkpt>
      <trkpt lat="42.221867" lon="0.974783">
        <ele>893.0</ele>
        <time>2013-09-13T15:22:41Z</time>
      </trkpt>
      <trkpt lat="42.221917" lon="0.975083">
        <ele>888.0</ele>
        <time>2013-09-13T15:22:43Z</time>
      </trkpt>
      <trkpt lat="42.221967" lon="0.975217">
        <ele>886.0</ele>
        <time>2013-09-13T15:22:44Z</time>
      </trkpt>
      <trkpt lat="42.222017" lon="0.975350">
        <ele>884.0</ele>
        <time>2013-09-13T15:22:45Z</time>
      </trkpt>
      <trkpt lat="42.222083" lon="0.975467">
        <ele>881.0</ele>
        <time>2013-09-13T15:22:46Z</time>
      </trkpt>
      <trkpt lat="42.222167" lon="0.975583">
        <ele>878.0</ele>
        <time>2013-09-13T15:22:47Z</time>
      </trkpt>
      <trkpt lat="42.222283" lon="0.975667">
        <ele>875.0</ele>
        <time>2013-09-13T15:22:48Z</time>
      </trkpt>
      <trkpt lat="42.222400" lon="0.975717">
        <ele>873.0</ele>
        <time>2013-09-13T15:22:49Z</time>
      </trkpt>
      <trkpt lat="42.222517" lon="0.975717">
        <ele>871.0</ele>
        <time>2013-09-13T15:22:50Z</time>
      </trkpt>
      <trkpt lat="42.222617" lon="0.975683">
        <ele>868.0</ele>
        <time>2013-09-13T15:22:51Z</time>
      </trkpt>
      <trkpt lat="42.222700" lon="0.975600">
        <ele>866.0</ele>
        <time>2013-09-13T15:22:52Z</time>
      </trkpt>
      <trkpt lat="42.222750" lon="0.975517">
        <ele>864.0</ele>
        <time>2013-09-13T15:22:53Z</time>
      </trkpt>
      <trkpt lat="42.222783" lon="0.975433">
        <ele>862.0</ele>
        <time>2013-09-13T15:22:54Z</time>
      </trkpt>
      <trkpt lat="42.222800" lon="0.975367">
        <ele>860.0</ele>
        <time>2013-09-13T15:22:55Z</time>
      </trkpt>
      <trkpt lat="42.222817" lon="0.975283">
        <ele>858.0</ele>
        <time>2013-09-13T15:22:56Z</time>
      </trkpt>
      <trkpt lat="42.222833" lon="0.975217">
        <ele>856.0</ele>
        <time>2013-09-13T15:22:57Z</time>
      </trkpt>
      <trkpt lat="42.222850" lon="0.975133">
        <ele>853.0</ele>
        <time>2013-09-13T15:22:58Z</time>
      </trkpt>
      <trkpt lat="42.222850" lon="0.975050">
        <ele>851.0</ele>
        <time>2013-09-13T15:22:59Z</time>
      </trkpt>
      <trkpt lat="42.222850" lon="0.974983">
        <ele>849.0</ele>
        <time>2013-09-13T15:23:00Z</time>
      </trkpt>
      <trkpt lat="42.222833" lon="0.974933">
        <ele>847.0</ele>
        <time>2013-09-13T15:23:01Z</time>
      </trkpt>
      <trkpt lat="42.222833" lon="0.974883">
        <ele>845.0</ele>
        <time>2013-09-13T15:23:02Z</time>
      </trkpt>
      <trkpt lat="42.222800" lon="0.974833">
        <ele>842.0</ele>
        <time>2013-09-13T15:23:03Z</time>
      </trkpt>
      <trkpt lat="42.222783" lon="0.974783">
        <ele>839.0</ele>
        <time>2013-09-13T15:23:04Z</time>
      </trkpt>
      <trkpt lat="42.222767" lon="0.974733">
        <ele>836.0</ele>
        <time>2013-09-13T15:23:05Z</time>
      </trkpt>
      <trkpt lat="42.222750" lon="0.974700">
        <ele>833.0</ele>
        <time>2013-09-13T15:23:06Z</time>
      </trkpt>
      <trkpt lat="42.222733" lon="0.974650">
        <ele>830.0</ele>
        <time>2013-09-13T15:23:07Z</time>
      </trkpt>
      <trkpt lat="42.222717" lon="0.974600">
        <ele>826.0</ele>
        <time>2013-09-13T15:23:08Z</time>
      </trkpt>
      <trkpt lat="42.222717" lon="0.974533">
        <ele>823.0</ele>
        <time>2013-09-13T15:23:09Z</time>
      </trkpt>
      <trkpt lat="42.222717" lon="0.974450">
        <ele>819.0</ele>
        <time>2013-09-13T15:23:10Z</time>
      </trkpt>
      <trkpt lat="42.222750" lon="0.974367">
        <ele>816.0</ele>
        <time>2013-09-13T15:23:11Z</time>
      </trkpt>
      <trkpt lat="42.222783" lon="0.974300">
        <ele>814.0</ele>
        <time>2013-09-13T15:23:12Z</time>
      </trkpt>
      <trkpt lat="42.222833" lon="0.974233">
        <ele>812.0</ele>
        <time>2013-09-13T15:23:13Z</time>
      </trkpt>
      <trkpt lat="42.222900" lon="0.974183">
        <ele>809.0</ele>
        <time>2013-09-13T15:23:14Z</time>
      </trkpt>
      <trkpt lat="42.222983" lon="0.974133">
        <ele>806.0</ele>
        <time>2013-09-13T15:23:15Z</time>
      </trkpt>
      <trkpt lat="42.223067" lon="0.974100">
        <ele>803.0</ele>
        <time>2013-09-13T15:23:16Z</time>
      </trkpt>
      <trkpt lat="42.223167" lon="0.974083">
        <ele>800.0</ele>
        <time>2013-09-13T15:23:17Z</time>
      </trkpt>
      <trkpt lat="42.223283" lon="0.974100">
        <ele>798.0</ele>
        <time>2013-09-13T15:23:18Z</time>
      </trkpt>
      <trkpt lat="42.223383" lon="0.974133">
        <ele>796.0</ele>
        <time>2013-09-13T15:23:19Z</time>
      </trkpt>
      <trkpt lat="42.223483" lon="0.974217">
        <ele>793.0</ele>
        <time>2013-09-13T15:23:20Z</time>
      </trkpt>
      <trkpt lat="42.223567" lon="0.974300">
        <ele>790.0</ele>
        <time>2013-09-13T15:23:21Z</time>
      </trkpt>
      <trkpt lat="42.223650" lon="0.974417">
        <ele>787.0</ele>
        <time>2013-09-13T15:23:22Z</time>
      </trkpt>
      <trkpt lat="42.223733" lon="0.974550">
        <ele>783.0</ele>
        <time>2013-09-13T15:23:23Z</time>
      </trkpt>
      <trkpt lat="42.223783" lon="0.974700">
        <ele>780.0</ele>
        <time>2013-09-13T15:23:24Z</time>
      </trkpt>
      <trkpt lat="42.223817" lon="0.974867">
        <ele>777.0</ele>
        <time>2013-09-13T15:23:25Z</time>
      </trkpt>
      <trkpt lat="42.223833" lon="0.975000">
        <ele>774.0</ele>
        <time>2013-09-13T15:23:26Z</time>
      </trkpt>
      <trkpt lat="42.223833" lon="0.975133">
        <ele>773.0</ele>
        <time>2013-09-13T15:23:27Z</time>
      </trkpt>
      <trkpt lat="42.223817" lon="0.975233">
        <ele>771.0</ele>
        <time>2013-09-13T15:23:28Z</time>
      </trkpt>
      <trkpt lat="42.223783" lon="0.975333">
        <ele>768.0</ele>
        <time>2013-09-13T15:23:29Z</time>
      </trkpt>
      <trkpt lat="42.223750" lon="0.975433">
        <ele>765.0</ele>
        <time>2013-09-13T15:23:30Z</time>
      </trkpt>
      <trkpt lat="42.223700" lon="0.975500">
        <ele>763.0</ele>
        <time>2013-09-13T15:23:31Z</time>
      </trkpt>
      <trkpt lat="42.223650" lon="0.975533">
        <ele>760.0</ele>
        <time>2013-09-13T15:23:32Z</time>
      </trkpt>
      <trkpt lat="42.223617" lon="0.975567">
        <ele>758.0</ele>
        <time>2013-09-13T15:23:33Z</time>
      </trkpt>
      <trkpt lat="42.223567" lon="0.975567">
        <ele>754.0</ele>
        <time>2013-09-13T15:23:34Z</time>
      </trkpt>
      <trkpt lat="42.223517" lon="0.975583">
        <ele>751.0</ele>
        <time>2013-09-13T15:23:35Z</time>
      </trkpt>
      <trkpt lat="42.223467" lon="0.975617">
        <ele>748.0</ele>
        <time>2013-09-13T15:23:36Z</time>
      </trkpt>
      <trkpt lat="42.223400" lon="0.975650">
        <ele>745.0</ele>
        <time>2013-09-13T15:23:37Z</time>
      </trkpt>
      <trkpt lat="42.223350" lon="0.975667">
        <ele>743.0</ele>
        <time>2013-09-13T15:23:38Z</time>
      </trkpt>
      <trkpt lat="42.223300" lon="0.975683">
        <ele>741.0</ele>
        <time>2013-09-13T15:23:39Z</time>
      </trkpt>
      <trkpt lat="42.223250" lon="0.975683">
        <ele>739.0</ele>
        <time>2013-09-13T15:23:40Z</time>
      </trkpt>
      <trkpt lat="42.223217" lon="0.975650">
        <ele>737.0</ele>
        <time>2013-09-13T15:23:41Z</time>
      </trkpt>
      <trkpt lat="42.223200" lon="0.975600">
        <ele>734.0</ele>
        <time>2013-09-13T15:23:42Z</time>
      </trkpt>
      <trkpt lat="42.223200" lon="0.975517">
        <ele>732.0</ele>
        <time>2013-09-13T15:23:43Z</time>
      </trkpt>
      <trkpt lat="42.223217" lon="0.975433">
        <ele>729.0</ele>
        <time>2013-09-13T15:23:44Z</time>
      </trkpt>
      <trkpt lat="42.223250" lon="0.975367">
        <ele>726.0</ele>
        <time>2013-09-13T15:23:45Z</time>
      </trkpt>
      <trkpt lat="42.223300" lon="0.975300">
        <ele>724.0</ele>
        <time>2013-09-13T15:23:46Z</time>
      </trkpt>
      <trkpt lat="42.223367" lon="0.975233">
        <ele>720.0</ele>
        <time>2013-09-13T15:23:47Z</time>
      </trkpt>
      <trkpt lat="42.223433" lon="0.975167">
        <ele>717.0</ele>
        <time>2013-09-13T15:23:48Z</time>
      </trkpt>
      <trkpt lat="42.223500" lon="0.975100">
        <ele>714.0</ele>
        <time>2013-09-13T15:23:49Z</time>
      </trkpt>
      <trkpt lat="42.223583" lon="0.975033">
        <ele>711.0</ele>
        <time>2013-09-13T15:23:50Z</time>
      </trkpt>
      <trkpt lat="42.223667" lon="0.974967">
        <ele>707.0</ele>
        <time>2013-09-13T15:23:51Z</time>
      </trkpt>
      <trkpt lat="42.223750" lon="0.974900">
        <ele>705.0</ele>
        <time>2013-09-13T15:23:52Z</time>
      </trkpt>
      <trkpt lat="42.223817" lon="0.974850">
        <ele>702.0</ele>
        <time>2013-09-13T15:23:53Z</time>
      </trkpt>
      <trkpt lat="42.223883" lon="0.974783">
        <ele>699.0</ele>
        <time>2013-09-13T15:23:54Z</time>
      </trkpt>
      <trkpt lat="42.223983" lon="0.974717">
        <ele>695.0</ele>
        <time>2013-09-13T15:23:55Z</time>
      </trkpt>
      <trkpt lat="42.224083" lon="0.974667">
        <ele>692.0</ele>
        <time>2013-09-13T15:23:56Z</time>
      </trkpt>
      <trkpt lat="42.224267" lon="0.974617">
        <ele>687.0</ele>
        <time>2013-09-13T15:23:58Z</time>
      </trkpt>
      <trkpt lat="42.224367" lon="0.974600">
        <ele>685.0</ele>
        <time>2013-09-13T15:23:59Z</time>
      </trkpt>
      <trkpt lat="42.224467" lon="0.974550">
        <ele>682.0</ele>
        <time>2013-09-13T15:24:00Z</time>
      </trkpt>
      <trkpt lat="42.224567" lon="0.974517">
        <ele>678.0</ele>
        <time>2013-09-13T15:24:01Z</time>
      </trkpt>
      <trkpt lat="42.224667" lon="0.974467">
        <ele>675.0</ele>
        <time>2013-09-13T15:24:02Z</time>
      </trkpt>
      <trkpt lat="42.224767" lon="0.974450">
        <ele>673.0</ele>
        <time>2013-09-13T15:24:03Z</time>
      </trkpt>
      <trkpt lat="42.224867" lon="0.974433">
        <ele>671.0</ele>
        <time>2013-09-13T15:24:04Z</time>
      </trkpt>
      <trkpt lat="42.224983" lon="0.974400">
        <ele>668.0</ele>
        <time>2013-09-13T15:24:05Z</time>
      </trkpt>
      <trkpt lat="42.225083" lon="0.974383">
        <ele>665.0</ele>
        <time>2013-09-13T15:24:06Z</time>
      </trkpt>
      <trkpt lat="42.225183" lon="0.974367">
        <ele>662.0</ele>
        <time>2013-09-13T15:24:07Z</time>
      </trkpt>
      <trkpt lat="42.225300" lon="0.974350">
        <ele>660.0</ele>
        <time>2013-09-13T15:24:08Z</time>
      </trkpt>
      <trkpt lat="42.225400" lon="0.974383">
        <ele>658.0</ele>
        <time>2013-09-13T15:24:09Z</time>
      </trkpt>
      <trkpt lat="42.225583" lon="0.974550">
        <ele>652.0</ele>
        <time>2013-09-13T15:24:11Z</time>
      </trkpt>
      <trkpt lat="42.225650" lon="0.974667">
        <ele>649.0</ele>
        <time>2013-09-13T15:24:12Z</time>
      </trkpt>
      <trkpt lat="42.225700" lon="0.974800">
        <ele>647.0</ele>
        <time>2013-09-13T15:24:13Z</time>
      </trkpt>
      <trkpt lat="42.225717" lon="0.974917">
        <ele>645.0</ele>
        <time>2013-09-13T15:24:14Z</time>
      </trkpt>
      <trkpt lat="42.225733" lon="0.975050">
        <ele>642.0</ele>
        <time>2013-09-13T15:24:15Z</time>
      </trkpt>
      <trkpt lat="42.225733" lon="0.975167">
        <ele>640.0</ele>
        <time>2013-09-13T15:24:16Z</time>
      </trkpt>
      <trkpt lat="42.225733" lon="0.975267">
        <ele>638.0</ele>
        <time>2013-09-13T15:24:17Z</time>
      </trkpt>
      <trkpt lat="42.225717" lon="0.975350">
        <ele>635.0</ele>
        <time>2013-09-13T15:24:18Z</time>
      </trkpt>
      <trkpt lat="42.225667" lon="0.975417">
        <ele>633.0</ele>
        <time>2013-09-13T15:24:19Z</time>
      </trkpt>
      <trkpt lat="42.225617" lon="0.975450">
        <ele>630.0</ele>
        <time>2013-09-13T15:24:20Z</time>
      </trkpt>
      <trkpt lat="42.225567" lon="0.975450">
        <ele>626.0</ele>
        <time>2013-09-13T15:24:21Z</time>
      </trkpt>
      <trkpt lat="42.225517" lon="0.975417">
        <ele>624.0</ele>
        <time>2013-09-13T15:24:22Z</time>
      </trkpt>
      <trkpt lat="42.225500" lon="0.975367">
        <ele>622.0</ele>
        <time>2013-09-13T15:24:23Z</time>
      </trkpt>
      <trkpt lat="42.225467" lon="0.975317">
        <ele>620.0</ele>
        <time>2013-09-13T15:24:24Z</time>
      </trkpt>
      <trkpt lat="42.225433" lon="0.975283">
        <ele>617.0</ele>
        <time>2013-09-13T15:24:25Z</time>
      </trkpt>
      <trkpt lat="42.225383" lon="0.975233">
        <ele>615.0</ele>
        <time>2013-09-13T15:24:26Z</time>
      </trkpt>
      <trkpt lat="42.225350" lon="0.975183">
        <ele>612.0</ele>
        <time>2013-09-13T15:24:27Z</time>
      </trkpt>
      <trkpt lat="42.225317" lon="0.975117">
        <ele>610.0</ele>
        <time>2013-09-13T15:24:28Z</time>
      </trkpt>
      <trkpt lat="42.225300" lon="0.975067">
        <ele>609.0</ele>
        <time>2013-09-13T15:24:29Z</time>
      </trkpt>
      <trkpt lat="42.225267" lon="0.975000">
        <ele>606.0</ele>
        <time>2013-09-13T15:24:30Z</time>
      </trkpt>
      <trkpt lat="42.225233" lon="0.974933">
        <ele>604.0</ele>
        <time>2013-09-13T15:24:31Z</time>
      </trkpt>
      <trkpt lat="42.225200" lon="0.974850">
        <ele>602.0</ele>
        <time>2013-09-13T15:24:32Z</time>
      </trkpt>
      <trkpt lat="42.225183" lon="0.974767">
        <ele>600.0</ele>
        <time>2013-09-13T15:24:33Z</time>
      </trkpt>
      <trkpt lat="42.225150" lon="0.974700">
        <ele>599.0</ele>
        <time>2013-09-13T15:24:34Z</time>
      </trkpt>
      <trkpt lat="42.225133" lon="0.974617">
        <ele>597.0</ele>
        <time>2013-09-13T15:24:35Z</time>
      </trkpt>
      <trkpt lat="42.225117" lon="0.974550">
        <ele>596.0</ele>
        <time>2013-09-13T15:24:36Z</time>
      </trkpt>
      <trkpt lat="42.225100" lon="0.974467">
        <ele>595.0</ele>
        <time>2013-09-13T15:24:37Z</time>
      </trkpt>
      <trkpt lat="42.225083" lon="0.974400">
        <ele>593.0</ele>
        <time>2013-09-13T15:24:38Z</time>
      </trkpt>
      <trkpt lat="42.225067" lon="0.974317">
        <ele>592.0</ele>
        <time>2013-09-13T15:24:39Z</time>
      </trkpt>
      <trkpt lat="42.225033" lon="0.974250">
        <ele>591.0</ele>
        <time>2013-09-13T15:24:40Z</time>
      </trkpt>
      <trkpt lat="42.225033" lon="0.974167">
        <ele>591.0</ele>
        <time>2013-09-13T15:24:41Z</time>
      </trkpt>
      <trkpt lat="42.225033" lon="0.974117">
        <ele>591.0</ele>
        <time>2013-09-13T15:24:42Z</time>
      </trkpt>
      <trkpt lat="42.225033" lon="0.974067">
        <ele>592.0</ele>
        <time>2013-09-13T15:24:43Z</time>
      </trkpt>
      <trkpt lat="42.225000" lon="0.974017">
        <ele>592.0</ele>
        <time>2013-09-13T15:24:44Z</time>
      </trkpt>
      <trkpt lat="42.224967" lon="0.973983">
        <ele>591.0</ele>
        <time>2013-09-13T15:24:45Z</time>
      </trkpt>
      <trkpt lat="42.224917" lon="0.973983">
        <ele>590.0</ele>
        <time>2013-09-13T15:24:46Z</time>
      </trkpt>
      <trkpt lat="42.224867" lon="0.974000">
        <ele>589.0</ele>
        <time>2013-09-13T15:24:47Z</time>
      </trkpt>
      <trkpt lat="42.224817" lon="0.974050">
        <ele>588.0</ele>
        <time>2013-09-13T15:24:48Z</time>
      </trkpt>
      <trkpt lat="42.224767" lon="0.974100">
        <ele>588.0</ele>
        <time>2013-09-13T15:24:49Z</time>
      </trkpt>
      <trkpt lat="42.224717" lon="0.974150">
        <ele>588.0</ele>
        <time>2013-09-13T15:24:50Z</time>
      </trkpt>
      <trkpt lat="42.224683" lon="0.974217">
        <ele>587.0</ele>
        <time>2013-09-13T15:24:51Z</time>
      </trkpt>
      <trkpt lat="42.224633" lon="0.974283">
        <ele>586.0</ele>
        <time>2013-09-13T15:24:52Z</time>
      </trkpt>
      <trkpt lat="42.224600" lon="0.974383">
        <ele>585.0</ele>
        <time>2013-09-13T15:24:53Z</time>
      </trkpt>
      <trkpt lat="42.224567" lon="0.974483">
        <ele>584.0</ele>
        <time>2013-09-13T15:24:54Z</time>
      </trkpt>
      <trkpt lat="42.224533" lon="0.974583">
        <ele>584.0</ele>
        <time>2013-09-13T15:24:55Z</time>
      </trkpt>
      <trkpt lat="42.224500" lon="0.974650">
        <ele>584.0</ele>
        <time>2013-09-13T15:24:56Z</time>
      </trkpt>
      <trkpt lat="42.224450" lon="0.974683">
        <ele>583.0</ele>
        <time>2013-09-13T15:24:57Z</time>
      </trkpt>
      <trkpt lat="42.224400" lon="0.974650">
        <ele>582.0</ele>
        <time>2013-09-13T15:24:58Z</time>
      </trkpt>
      <trkpt lat="42.224367" lon="0.974600">
        <ele>581.0</ele>
        <time>2013-09-13T15:24:59Z</time>
      </trkpt>
      <trkpt lat="42.224350" lon="0.974533">
        <ele>580.0</ele>
        <time>2013-09-13T15:25:00Z</time>
      </trkpt>
      <trkpt lat="42.224367" lon="0.974467">
        <ele>579.0</ele>
        <time>2013-09-13T15:25:01Z</time>
      </trkpt>
      <trkpt lat="42.224400" lon="0.974383">
        <ele>579.0</ele>
        <time>2013-09-13T15:25:02Z</time>
      </trkpt>
      <trkpt lat="42.224433" lon="0.974317">
        <ele>578.0</ele>
        <time>2013-09-13T15:25:03Z</time>
      </trkpt>
      <trkpt lat="42.224483" lon="0.974233">
        <ele>577.0</ele>
        <time>2013-09-13T15:25:04Z</time>
      </trkpt>
      <trkpt lat="42.224517" lon="0.974167">
        <ele>576.0</ele>
        <time>2013-09-13T15:25:05Z</time>
      </trkpt>
      <trkpt lat="42.224567" lon="0.974083">
        <ele>576.0</ele>
        <time>2013-09-13T15:25:06Z</time>
      </trkpt>
      <trkpt lat="42.224617" lon="0.974017">
        <ele>576.0</ele>
        <time>2013-09-13T15:25:07Z</time>
      </trkpt>
      <trkpt lat="42.224650" lon="0.973950">
        <ele>576.0</ele>
        <time>2013-09-13T15:25:08Z</time>
      </trkpt>
      <trkpt lat="42.224683" lon="0.973883">
        <ele>575.0</ele>
        <time>2013-09-13T15:25:09Z</time>
      </trkpt>
      <trkpt lat="42.224683" lon="0.973800">
        <ele>575.0</ele>
        <time>2013-09-13T15:25:10Z</time>
      </trkpt>
      <trkpt lat="42.224683" lon="0.973733">
        <ele>573.0</ele>
        <time>2013-09-13T15:25:11Z</time>
      </trkpt>
      <trkpt lat="42.224633" lon="0.973700">
        <ele>572.0</ele>
        <time>2013-09-13T15:25:12Z</time>
      </trkpt>
      <trkpt lat="42.224583" lon="0.973700">
        <ele>571.0</ele>
        <time>2013-09-13T15:25:13Z</time>
      </trkpt>
      <trkpt lat="42.224483" lon="0.973817">
        <ele>569.0</ele>
        <time>2013-09-13T15:25:15Z</time>
      </trkpt>
      <trkpt lat="42.224450" lon="0.973917">
        <ele>568.0</ele>
        <time>2013-09-13T15:25:16Z</time>
      </trkpt>
      <trkpt lat="42.224400" lon="0.974133">
        <ele>567.0</ele>
        <time>2013-09-13T15:25:18Z</time>
      </trkpt>
      <trkpt lat="42.224400" lon="0.974250">
        <ele>567.0</ele>
        <time>2013-09-13T15:25:19Z</time>
      </trkpt>
      <trkpt lat="42.224367" lon="0.974333">
        <ele>566.0</ele>
        <time>2013-09-13T15:25:20Z</time>
      </trkpt>
      <trkpt lat="42.224317" lon="0.974383">
        <ele>566.0</ele>
        <time>2013-09-13T15:25:21Z</time>
      </trkpt>
      <trkpt lat="42.224267" lon="0.974400">
        <ele>564.0</ele>
        <time>2013-09-13T15:25:22Z</time>
      </trkpt>
      <trkpt lat="42.224217" lon="0.974350">
        <ele>562.0</ele>
        <time>2013-09-13T15:25:23Z</time>
      </trkpt>
      <trkpt lat="42.224200" lon="0.974283">
        <ele>561.0</ele>
        <time>2013-09-13T15:25:24Z</time>
      </trkpt>
      <trkpt lat="42.224233" lon="0.974150">
        <ele>559.0</ele>
        <time>2013-09-13T15:25:26Z</time>
      </trkpt>
      <trkpt lat="42.224250" lon="0.974067">
        <ele>558.0</ele>
        <time>2013-09-13T15:25:27Z</time>
      </trkpt>
      <trkpt lat="42.224267" lon="0.974000">
        <ele>557.0</ele>
        <time>2013-09-13T15:25:28Z</time>
      </trkpt>
      <trkpt lat="42.224283" lon="0.973900">
        <ele>556.0</ele>
        <time>2013-09-13T15:25:29Z</time>
      </trkpt>
      <trkpt lat="42.224300" lon="0.973833">
        <ele>555.0</ele>
        <time>2013-09-13T15:25:30Z</time>
      </trkpt>
      <trkpt lat="42.224300" lon="0.973750">
        <ele>554.0</ele>
        <time>2013-09-13T15:25:31Z</time>
      </trkpt>
      <trkpt lat="42.224300" lon="0.973700">
        <ele>554.0</ele>
        <time>2013-09-13T15:25:32Z</time>
      </trkpt>
      <trkpt lat="42.224283" lon="0.973650">
        <ele>553.0</ele>
        <time>2013-09-13T15:25:33Z</time>
      </trkpt>
      <trkpt lat="42.224233" lon="0.973617">
        <ele>552.0</ele>
        <time>2013-09-13T15:25:34Z</time>
      </trkpt>
      <trkpt lat="42.224183" lon="0.973617">
        <ele>550.0</ele>
        <time>2013-09-13T15:25:35Z</time>
      </trkpt>
      <trkpt lat="42.224117" lon="0.973683">
        <ele>549.0</ele>
        <time>2013-09-13T15:25:36Z</time>
      </trkpt>
      <trkpt lat="42.224067" lon="0.973767">
        <ele>548.0</ele>
        <time>2013-09-13T15:25:37Z</time>
      </trkpt>
      <trkpt lat="42.224033" lon="0.973850">
        <ele>547.0</ele>
        <time>2013-09-13T15:25:38Z</time>
      </trkpt>
      <trkpt lat="42.224000" lon="0.973933">
        <ele>547.0</ele>
        <time>2013-09-13T15:25:39Z</time>
      </trkpt>
      <trkpt lat="42.223950" lon="0.974017">
        <ele>546.0</ele>
        <time>2013-09-13T15:25:40Z</time>
      </trkpt>
      <trkpt lat="42.223900" lon="0.974067">
        <ele>545.0</ele>
        <time>2013-09-13T15:25:41Z</time>
      </trkpt>
      <trkpt lat="42.223850" lon="0.974117">
        <ele>543.0</ele>
        <time>2013-09-13T15:25:42Z</time>
      </trkpt>
      <trkpt lat="42.223800" lon="0.974133">
        <ele>542.0</ele>
        <time>2013-09-13T15:25:43Z</time>
      </trkpt>
      <trkpt lat="42.223767" lon="0.974117">
        <ele>541.0</ele>
        <time>2013-09-13T15:25:44Z</time>
      </trkpt>
      <trkpt lat="42.223717" lon="0.974067">
        <ele>540.0</ele>
        <time>2013-09-13T15:25:45Z</time>
      </trkpt>
      <trkpt lat="42.223700" lon="0.974000">
        <ele>539.0</ele>
        <time>2013-09-13T15:25:46Z</time>
      </trkpt>
      <trkpt lat="42.223700" lon="0.973917">
        <ele>537.0</ele>
        <time>2013-09-13T15:25:47Z</time>
      </trkpt>
      <trkpt lat="42.223717" lon="0.973833">
        <ele>536.0</ele>
        <time>2013-09-13T15:25:48Z</time>
      </trkpt>
      <trkpt lat="42.223733" lon="0.973750">
        <ele>536.0</ele>
        <time>2013-09-13T15:25:49Z</time>
      </trkpt>
      <trkpt lat="42.223767" lon="0.973683">
        <ele>535.0</ele>
        <time>2013-09-13T15:25:50Z</time>
      </trkpt>
      <trkpt lat="42.223800" lon="0.973533">
        <ele>534.0</ele>
        <time>2013-09-13T15:25:52Z</time>
      </trkpt>
      <trkpt lat="42.223767" lon="0.973483">
        <ele>533.0</ele>
        <time>2013-09-13T15:25:53Z</time>
      </trkpt>
      <trkpt lat="42.223733" lon="0.973450">
        <ele>532.0</ele>
        <time>2013-09-13T15:25:54Z</time>
      </trkpt>
      <trkpt lat="42.223683" lon="0.973450">
        <ele>531.0</ele>
        <time>2013-09-13T15:25:55Z</time>
      </trkpt>
      <trkpt lat="42.223617" lon="0.973483">
        <ele>530.0</ele>
        <time>2013-09-13T15:25:56Z</time>
      </trkpt>
      <trkpt lat="42.223583" lon="0.973550">
        <ele>529.0</ele>
        <time>2013-09-13T15:25:57Z</time>
      </trkpt>
      <trkpt lat="42.223517" lon="0.973750">
        <ele>526.0</ele>
        <time>2013-09-13T15:25:59Z</time>
      </trkpt>
      <trkpt lat="42.223483" lon="0.973850">
        <ele>525.0</ele>
        <time>2013-09-13T15:26:00Z</time>
      </trkpt>
      <trkpt lat="42.223433" lon="0.973933">
        <ele>524.0</ele>
        <time>2013-09-13T15:26:01Z</time>
      </trkpt>
      <trkpt lat="42.223400" lon="0.973983">
        <ele>523.0</ele>
        <time>2013-09-13T15:26:02Z</time>
      </trkpt>
      <trkpt lat="42.223350" lon="0.974000">
        <ele>523.0</ele>
        <time>2013-09-13T15:26:03Z</time>
      </trkpt>
      <trkpt lat="42.223317" lon="0.973983">
        <ele>521.0</ele>
        <time>2013-09-13T15:26:04Z</time>
      </trkpt>
      <trkpt lat="42.223267" lon="0.973950">
        <ele>519.0</ele>
        <time>2013-09-13T15:26:05Z</time>
      </trkpt>
      <trkpt lat="42.223233" lon="0.973900">
        <ele>518.0</ele>
        <time>2013-09-13T15:26:06Z</time>
      </trkpt>
      <trkpt lat="42.223200" lon="0.973867">
        <ele>517.0</ele>
        <time>2013-09-13T15:26:07Z</time>
      </trkpt>
      <trkpt lat="42.223167" lon="0.973817">
        <ele>516.0</ele>
        <time>2013-09-13T15:26:08Z</time>
      </trkpt>
      <trkpt lat="42.223133" lon="0.973783">
        <ele>515.0</ele>
        <time>2013-09-13T15:26:09Z</time>
      </trkpt>
      <trkpt lat="42.223100" lon="0.973733">
        <ele>513.0</ele>
        <time>2013-09-13T15:26:10Z</time>
      </trkpt>
      <trkpt lat="42.223050" lon="0.973700">
        <ele>512.0</ele>
        <time>2013-09-13T15:26:11Z</time>
      </trkpt>
      <trkpt lat="42.223017" lon="0.973650">
        <ele>511.0</ele>
        <time>2013-09-13T15:26:12Z</time>
      </trkpt>
      <trkpt lat="42.222983" lon="0.973633">
        <ele>511.0</ele>
        <time>2013-09-13T15:26:13Z</time>
      </trkpt>
      <trkpt lat="42.222933" lon="0.973617">
        <ele>510.0</ele>
        <time>2013-09-13T15:26:14Z</time>
      </trkpt>
      <trkpt lat="42.222900" lon="0.973617">
        <ele>510.0</ele>
        <time>2013-09-13T15:26:15Z</time>
      </trkpt>
      <trkpt lat="42.222850" lon="0.973633">
        <ele>510.0</ele>
        <time>2013-09-13T15:26:16Z</time>
      </trkpt>
      <trkpt lat="42.222800" lon="0.973650">
        <ele>509.0</ele>
        <time>2013-09-13T15:26:17Z</time>
      </trkpt>
      <trkpt lat="42.222750" lon="0.973683">
        <ele>508.0</ele>
        <time>2013-09-13T15:26:18Z</time>
      </trkpt>
      <trkpt lat="42.222717" lon="0.973700">
        <ele>506.0</ele>
        <time>2013-09-13T15:26:19Z</time>
      </trkpt>
      <trkpt lat="42.222667" lon="0.973717">
        <ele>505.0</ele>
        <time>2013-09-13T15:26:20Z</time>
      </trkpt>
      <trkpt lat="42.222633" lon="0.973733">
        <ele>504.0</ele>
        <time>2013-09-13T15:26:21Z</time>
      </trkpt>
      <trkpt lat="42.222600" lon="0.973750">
        <ele>503.0</ele>
        <time>2013-09-13T15:26:22Z</time>
      </trkpt>
      <trkpt lat="42.222600" lon="0.973750">
        <ele>503.0</ele>
        <time>2013-09-13T15:26:23Z</time>
      </trkpt>
      <trkpt lat="42.222583" lon="0.973767">
        <ele>502.0</ele>
        <time>2013-09-13T15:26:24Z</time>
      </trkpt>
      <trkpt lat="42.222583" lon="0.973767">
        <ele>502.0</ele>
        <time>2013-09-13T15:26:25Z</time>
      </trkpt>
      <trkpt lat="42.222583" lon="0.973783">
        <ele>502.0</ele>
        <time>2013-09-13T15:26:26Z</time>
      </trkpt>
      <trkpt lat="42.222583" lon="0.973800">
        <ele>502.0</ele>
        <time>2013-09-13T15:26:28Z</time>
      </trkpt>
      <trkpt lat="42.222583" lon="0.973800">
        <ele>502.0</ele>
        <time>2013-09-13T15:26:29Z</time>
      </trkpt>
      <trkpt lat="42.222583" lon="0.973800">
        <ele>502.0</ele>
        <time>2013-09-13T15:26:30Z</time>
      </trkpt>
      <trkpt lat="42.222583" lon="0.973800">
        <ele>502.0</ele>
        <time>2013-09-13T15:26:31Z</time>
      </trkpt>
      <trkpt lat="42.222583" lon="0.973800">
        <ele>502.0</ele>
        <time>2013-09-13T15:26:33Z</time>
      </trkpt>
      <trkpt lat="42.222583" lon="0.973800">
        <ele>502.0</ele>
        <time>2013-09-13T15:26:34Z</time>
      </trkpt>
      <trkpt lat="42.222583" lon="0.973800">
        <ele>502.0</ele>
        <time>2013-09-13T15:26:36Z</time>
      </trkpt>
      <trkpt lat="42.222583" lon="0.973800">
        <ele>502.0</ele>
        <time>2013-09-13T15:26:38Z</time>
      </trkpt>
      <trkpt lat="42.222583" lon="0.973800">
        <ele>502.0</ele>
        <time>2013-09-13T15:26:39Z</time>
      </trkpt>
      <trkpt lat="42.222583" lon="0.973800">
        <ele>502.0</ele>
        <time>2013-09-13T15:26:40Z</time>
      </trkpt>
      <trkpt lat="42.222583" lon="0.973800">
        <ele>502.0</ele>
        <time>2013-09-13T15:26:41Z</time>
      </trkpt>
      <trkpt lat="42.222583" lon="0.973800">
        <ele>502.0</ele>
        <time>2013-09-13T15:26:42Z</time>
      </trkpt>
      <trkpt lat="42.222583" lon="0.973800">
        <ele>502.0</ele>
        <time>2013-09-13T15:26:43Z</time>
      </trkpt>
      <trkpt lat="42.222583" lon="0.973800">
        <ele>502.0</ele>
        <time>2013-09-13T15:26:44Z</time>
      </trkpt>
      <trkpt lat="42.222583" lon="0.973800">
        <ele>502.0</ele>
        <time>2013-09-13T15:26:45Z</time>
      </trkpt>
      <trkpt lat="42.222583" lon="0.973800">
        <ele>502.0</ele>
        <time>2013-09-13T15:26:46Z</time>
      </trkpt>
      <trkpt lat="42.222583" lon="0.973800">
        <ele>503.0</ele>
        <time>2013-09-13T15:26:47Z</time>
      </trkpt>
      <trkpt lat="42.222583" lon="0.973800">
        <ele>503.0</ele>
        <time>2013-09-13T15:26:48Z</time>
      </trkpt>
      <trkpt lat="42.222583" lon="0.973800">
        <ele>503.0</ele>
        <time>2013-09-13T15:26:49Z</time>
      </trkpt>
      <trkpt lat="42.222600" lon="0.973800">
        <ele>503.0</ele>
        <time>2013-09-13T15:26:50Z</time>
      </trkpt>
      <trkpt lat="42.222600" lon="0.973800">
        <ele>503.0</ele>
        <time>2013-09-13T15:26:51Z</time>
      </trkpt>
      <trkpt lat="42.222600" lon="0.973800">
        <ele>503.0</ele>
        <time>2013-09-13T15:26:52Z</time>
      </trkpt>
      <trkpt lat="42.222600" lon="0.973817">
        <ele>502.0</ele>
        <time>2013-09-13T15:26:55Z</time>
      </trkpt>
      <trkpt lat="42.222600" lon="0.973800">
        <ele>502.0</ele>
        <time>2013-09-13T15:26:56Z</time>
      </trkpt>
      <trkpt lat="42.222600" lon="0.973800">
        <ele>502.0</ele>
        <time>2013-09-13T15:26:57Z</time>
      </trkpt>
      <trkpt lat="42.222600" lon="0.973800">
        <ele>502.0</ele>
        <time>2013-09-13T15:26:58Z</time>
      </trkpt>
      <trkpt lat="42.222600" lon="0.973800">
        <ele>502.0</ele>
        <time>2013-09-13T15:26:59Z</time>
      </trkpt>
      <trkpt lat="42.222583" lon="0.973817">
        <ele>502.0</ele>
        <time>2013-09-13T15:27:00Z</time>
      </trkpt>
      <trkpt lat="42.222583" lon="0.973817">
        <ele>502.0</ele>
        <time>2013-09-13T15:27:01Z</time>
      </trkpt>
      <trkpt lat="42.222600" lon="0.973800">
        <ele>502.0</ele>
        <time>2013-09-13T15:27:02Z</time>
      </trkpt>
      <trkpt lat="42.222600" lon="0.973800">
        <ele>502.0</ele>
        <time>2013-09-13T15:27:03Z</time>
      </trkpt>
      <trkpt lat="42.222600" lon="0.973800">
        <ele>502.0</ele>
        <time>2013-09-13T15:27:04Z</time>
      </trkpt>
      <trkpt lat="42.222583" lon="0.973817">
        <ele>502.0</ele>
        <time>2013-09-13T15:27:05Z</time>
      </trkpt>
      <trkpt lat="42.222583" lon="0.973817">
        <ele>502.0</ele>
        <time>2013-09-13T15:27:06Z</time>
      </trkpt>
      <trkpt lat="42.222600" lon="0.973800">
        <ele>502.0</ele>
        <time>2013-09-13T15:27:07Z</time>
      </trkpt>
      <trkpt lat="42.222600" lon="0.973800">
        <ele>502.0</ele>
        <time>2013-09-13T15:27:08Z</time>
      </trkpt>
      <trkpt lat="42.222600" lon="0.973800">
        <ele>502.0</ele>
        <time>2013-09-13T15:27:09Z</time>
      </trkpt>
      <trkpt lat="42.222600" lon="0.973800">
        <ele>502.0</ele>
        <time>2013-09-13T15:27:10Z</time>
      </trkpt>
      <trkpt lat="42.222600" lon="0.973800">
        <ele>502.0</ele>
        <time>2013-09-13T15:27:11Z</time>
      </trkpt>
      <trkpt lat="42.222600" lon="0.973800">
        <ele>502.0</ele>
        <time>2013-09-13T15:27:12Z</time>
      </trkpt>
      <trkpt lat="42.222600" lon="0.973800">
        <ele>501.0</ele>
        <time>2013-09-13T15:27:13Z</time>
      </trkpt>
      <trkpt lat="42.222600" lon="0.973800">
        <ele>501.0</ele>
        <time>2013-09-13T15:27:14Z</time>
      </trkpt>
      <trkpt lat="42.222600" lon="0.973800">
        <ele>501.0</ele>
        <time>2013-09-13T15:27:15Z</time>
      </trkpt>
      <trkpt lat="42.222600" lon="0.973800">
        <ele>501.0</ele>
        <time>2013-09-13T15:27:16Z</time>
      </trkpt>
      <trkpt lat="42.222600" lon="0.973800">
        <ele>501.0</ele>
        <time>2013-09-13T15:27:17Z</time>
      </trkpt>
      <trkpt lat="42.222600" lon="0.973800">
        <ele>501.0</ele>
        <time>2013-09-13T15:27:18Z</time>
      </trkpt>
      <trkpt lat="42.222600" lon="0.973800">
        <ele>501.0</ele>
        <time>2013-09-13T15:27:19Z</time>
      </trkpt>
      <trkpt lat="42.222600" lon="0.973800">
        <ele>501.0</ele>
        <time>2013-09-13T15:27:20Z</time>
      </trkpt>
      <trkpt lat="42.222600" lon="0.973800">
        <ele>501.0</ele>
        <time>2013-09-13T15:27:21Z</time>
      </trkpt>
      <trkpt lat="42.222600" lon="0.973800">
        <ele>501.0</ele>
        <time>2013-09-13T15:27:22Z</time>
      </trkpt>
      <trkpt lat="42.222600" lon="0.973817">
        <ele>501.0</ele>
        <time>2013-09-13T15:27:23Z</time>
      </trkpt>
      <trkpt lat="42.222600" lon="0.973817">
        <ele>500.0</ele>
        <time>2013-09-13T15:27:24Z</time>
      </trkpt>
      <trkpt lat="42.222600" lon="0.973817">
        <ele>501.0</ele>
        <time>2013-09-13T15:27:25Z</time>
      </trkpt>
      <trkpt lat="42.222600" lon="0.973817">
        <ele>501.0</ele>
        <time>2013-09-13T15:27:26Z</time>
      </trkpt>
      <trkpt lat="42.222600" lon="0.973817">
        <ele>501.0</ele>
        <time>2013-09-13T15:27:27Z</time>
      </trkpt>
      <trkpt lat="42.222583" lon="0.973817">
        <ele>501.0</ele>
        <time>2013-09-13T15:27:28Z</time>
      </trkpt>
      <trkpt lat="42.222583" lon="0.973817">
        <ele>500.0</ele>
        <time>2013-09-13T15:27:29Z</time>
      </trkpt>
      <trkpt lat="42.222583" lon="0.973817">
        <ele>500.0</ele>
        <time>2013-09-13T15:27:30Z</time>
      </trkpt>
      <trkpt lat="42.222583" lon="0.973833">
        <ele>500.0</ele>
        <time>2013-09-13T15:27:31Z</time>
      </trkpt>
      <trkpt lat="42.222583" lon="0.973833">
        <ele>500.0</ele>
        <time>2013-09-13T15:27:32Z</time>
      </trkpt>
      <trkpt lat="42.222583" lon="0.973850">
        <ele>500.0</ele>
        <time>2013-09-13T15:27:33Z</time>
      </trkpt>
      <trkpt lat="42.222583" lon="0.973850">
        <ele>500.0</ele>
        <time>2013-09-13T15:27:34Z</time>
      </trkpt>
      <trkpt lat="42.222567" lon="0.973850">
        <ele>500.0</ele>
        <time>2013-09-13T15:27:35Z</time>
      </trkpt>
      <trkpt lat="42.222567" lon="0.973850">
        <ele>500.0</ele>
        <time>2013-09-13T15:27:36Z</time>
      </trkpt>
      <trkpt lat="42.222567" lon="0.973850">
        <ele>500.0</ele>
        <time>2013-09-13T15:27:37Z</time>
      </trkpt>
      <trkpt lat="42.222550" lon="0.973850">
        <ele>500.0</ele>
        <time>2013-09-13T15:27:38Z</time>
      </trkpt>
      <trkpt lat="42.222550" lon="0.973850">
        <ele>500.0</ele>
        <time>2013-09-13T15:27:39Z</time>
      </trkpt>
      <trkpt lat="42.222550" lon="0.973867">
        <ele>500.0</ele>
        <time>2013-09-13T15:27:40Z</time>
      </trkpt>
      <trkpt lat="42.222550" lon="0.973867">
        <ele>500.0</ele>
        <time>2013-09-13T15:27:41Z</time>
      </trkpt>
      <trkpt lat="42.222550" lon="0.973867">
        <ele>501.0</ele>
        <time>2013-09-13T15:27:42Z</time>
      </trkpt>
      <trkpt lat="42.222550" lon="0.973850">
        <ele>501.0</ele>
        <time>2013-09-13T15:27:43Z</time>
      </trkpt>
      <trkpt lat="42.222533" lon="0.973867">
        <ele>501.0</ele>
        <time>2013-09-13T15:27:44Z</time>
      </trkpt>
      <trkpt lat="42.222533" lon="0.973867">
        <ele>501.0</ele>
        <time>2013-09-13T15:27:45Z</time>
      </trkpt>
      <trkpt lat="42.222533" lon="0.973883">
        <ele>501.0</ele>
        <time>2013-09-13T15:27:46Z</time>
      </trkpt>
      <trkpt lat="42.222533" lon="0.973883">
        <ele>501.0</ele>
        <time>2013-09-13T15:27:47Z</time>
      </trkpt>
      <trkpt lat="42.222517" lon="0.973917">
        <ele>501.0</ele>
        <time>2013-09-13T15:27:48Z</time>
      </trkpt>
      <trkpt lat="42.222533" lon="0.973917">
        <ele>501.0</ele>
        <time>2013-09-13T15:27:49Z</time>
      </trkpt>
      <trkpt lat="42.222517" lon="0.973933">
        <ele>501.0</ele>
        <time>2013-09-13T15:27:50Z</time>
      </trkpt>
      <trkpt lat="42.222517" lon="0.973917">
        <ele>501.0</ele>
        <time>2013-09-13T15:27:51Z</time>
      </trkpt>
      <trkpt lat="42.222517" lon="0.973917">
        <ele>501.0</ele>
        <time>2013-09-13T15:27:52Z</time>
      </trkpt>
      <trkpt lat="42.222517" lon="0.973933">
        <ele>501.0</ele>
        <time>2013-09-13T15:27:53Z</time>
      </trkpt>
      <trkpt lat="42.222500" lon="0.973950">
        <ele>501.0</ele>
        <time>2013-09-13T15:27:54Z</time>
      </trkpt>
      <trkpt lat="42.222500" lon="0.973950">
        <ele>501.0</ele>
        <time>2013-09-13T15:27:55Z</time>
      </trkpt>
      <trkpt lat="42.222500" lon="0.973950">
        <ele>501.0</ele>
        <time>2013-09-13T15:27:56Z</time>
      </trkpt>
      <trkpt lat="42.222500" lon="0.973950">
        <ele>501.0</ele>
        <time>2013-09-13T15:27:57Z</time>
      </trkpt>
      <trkpt lat="42.222500" lon="0.973950">
        <ele>501.0</ele>
        <time>2013-09-13T15:27:58Z</time>
      </trkpt>
      <trkpt lat="42.222500" lon="0.973950">
        <ele>501.0</ele>
        <time>2013-09-13T15:27:59Z</time>
      </trkpt>
      <trkpt lat="42.222500" lon="0.973933">
        <ele>501.0</ele>
        <time>2013-09-13T15:28:00Z</time>
      </trkpt>
      <trkpt lat="42.222500" lon="0.973950">
        <ele>501.0</ele>
        <time>2013-09-13T15:28:01Z</time>
      </trkpt>
      <trkpt lat="42.222500" lon="0.973933">
        <ele>501.0</ele>
        <time>2013-09-13T15:28:02Z</time>
      </trkpt>
      <trkpt lat="42.222517" lon="0.973933">
        <ele>501.0</ele>
        <time>2013-09-13T15:28:03Z</time>
      </trkpt>
      <trkpt lat="42.222500" lon="0.973933">
        <ele>501.0</ele>
        <time>2013-09-13T15:28:04Z</time>
      </trkpt>
      <trkpt lat="42.222500" lon="0.973933">
        <ele>501.0</ele>
        <time>2013-09-13T15:28:05Z</time>
      </trkpt>
      <trkpt lat="42.222500" lon="0.973933">
        <ele>501.0</ele>
        <time>2013-09-13T15:28:06Z</time>
      </trkpt>
    </trkseg>
  </trk>
</gpx>
